<?xml version='1.0' encoding='UTF-8'?><gpx version="1.1" creator="JPX - https://github.com/jenetics/jpx" xmlns="http://www.topografix.com/GPX/1/1"><trk><trkseg><trkpt lat="42.0745637" lon="13.5304255"><ele>718.2</ele><time>2026-05-01T13:05:08.65Z</time></trkpt><trkpt lat="42.0745336" lon="13.5302825"><ele>718.4</ele><time>2026-05-01T13:05:10.654Z</time></trkpt><trkpt lat="42.0745052" lon="13.5301579"><ele>718.6</ele><time>2026-05-01T13:05:12.65Z</time></trkpt><trkpt lat="42.0744948" lon="13.5300463"><ele>718.8000000000001</ele><time>2026-05-01T13:05:14.654Z</time></trkpt><trkpt lat="42.0745382" lon="13.5299833"><ele>719.0</ele><time>2026-05-01T13:05:16.656Z</time></trkpt><trkpt lat="42.0746352" lon="13.5299756"><ele>719.0</ele><time>2026-05-01T13:05:18.673Z</time></trkpt><trkpt lat="42.0747536" lon="13.5300197"><ele>719.0</ele><time>2026-05-01T13:05:20.651Z</time></trkpt><trkpt lat="42.074845" lon="13.5300881"><ele>719.0</ele><time>2026-05-01T13:05:22.653Z</time></trkpt><trkpt lat="42.0749096" lon="13.5301496"><ele>719.0</ele><time>2026-05-01T13:05:24.65Z</time></trkpt><trkpt lat="42.074986" lon="13.5302149"><ele>719.0</ele><time>2026-05-01T13:05:27.655Z</time></trkpt><trkpt lat="42.0750572" lon="13.5302829"><ele>719.4000000000001</ele><time>2026-05-01T13:05:29.657Z</time></trkpt><trkpt lat="42.0751432" lon="13.5303591"><ele>719.8</ele><time>2026-05-01T13:05:31.658Z</time></trkpt><trkpt lat="42.075238" lon="13.5304284"><ele>720.2</ele><time>2026-05-01T13:05:33.653Z</time></trkpt><trkpt lat="42.0753442" lon="13.5304707"><ele>720.5999999999999</ele><time>2026-05-01T13:05:35.654Z</time></trkpt><trkpt lat="42.0754544" lon="13.530476"><ele>721.0</ele><time>2026-05-01T13:05:37.692Z</time></trkpt><trkpt lat="42.0755686" lon="13.5304557"><ele>721.0</ele><time>2026-05-01T13:05:39.653Z</time></trkpt><trkpt lat="42.0756752" lon="13.5304439"><ele>721.0</ele><time>2026-05-01T13:05:41.651Z</time></trkpt><trkpt lat="42.0757644" lon="13.5304755"><ele>721.0</ele><time>2026-05-01T13:05:43.656Z</time></trkpt><trkpt lat="42.0758047" lon="13.5305971"><ele>721.0</ele><time>2026-05-01T13:05:45.649Z</time></trkpt><trkpt lat="42.0758272" lon="13.5307025"><ele>721.0</ele><time>2026-05-01T13:05:47.653Z</time></trkpt><trkpt lat="42.0758471" lon="13.5307956"><ele>721.2857142857143</ele><time>2026-05-01T13:05:49.658Z</time></trkpt><trkpt lat="42.0758553" lon="13.5309005"><ele>721.5714285714286</ele><time>2026-05-01T13:05:51.653Z</time></trkpt><trkpt lat="42.075869" lon="13.5310049"><ele>721.8571428571429</ele><time>2026-05-01T13:05:53.652Z</time></trkpt><trkpt lat="42.0758835" lon="13.5311042"><ele>722.1428571428571</ele><time>2026-05-01T13:05:55.653Z</time></trkpt><trkpt lat="42.0759051" lon="13.5311971"><ele>722.4285714285714</ele><time>2026-05-01T13:05:57.658Z</time></trkpt><trkpt lat="42.0759084" lon="13.5312849"><ele>722.7142857142858</ele><time>2026-05-01T13:05:59.648Z</time></trkpt><trkpt lat="42.0759131" lon="13.5313719"><ele>723.0</ele><time>2026-05-01T13:06:02.654Z</time></trkpt><trkpt lat="42.0759404" lon="13.5314877"><ele>723.2</ele><time>2026-05-01T13:06:14.66Z</time></trkpt><trkpt lat="42.0759541" lon="13.5316025"><ele>723.4</ele><time>2026-05-01T13:06:17.657Z</time></trkpt><trkpt lat="42.0759757" lon="13.5316856"><ele>723.6</ele><time>2026-05-01T13:06:19.652Z</time></trkpt><trkpt lat="42.0759997" lon="13.5318561"><ele>723.8000000000001</ele><time>2026-05-01T13:06:21.654Z</time></trkpt><trkpt lat="42.0760382" lon="13.531995"><ele>724.0</ele><time>2026-05-01T13:06:22.65Z</time></trkpt><trkpt lat="42.07608" lon="13.5321876"><ele>724.0</ele><time>2026-05-01T13:06:23.65Z</time></trkpt><trkpt lat="42.0761222" lon="13.5323522"><ele>724.0</ele><time>2026-05-01T13:06:24.655Z</time></trkpt><trkpt lat="42.0761478" lon="13.532498"><ele>724.0</ele><time>2026-05-01T13:06:25.654Z</time></trkpt><trkpt lat="42.0761699" lon="13.5326366"><ele>724.0</ele><time>2026-05-01T13:06:26.658Z</time></trkpt><trkpt lat="42.076204" lon="13.5327724"><ele>724.0</ele><time>2026-05-01T13:06:27.648Z</time></trkpt><trkpt lat="42.0762351" lon="13.5329208"><ele>724.0</ele><time>2026-05-01T13:06:28.674Z</time></trkpt><trkpt lat="42.07626" lon="13.5330736"><ele>724.0</ele><time>2026-05-01T13:06:29.656Z</time></trkpt><trkpt lat="42.0762949" lon="13.5332416"><ele>724.0</ele><time>2026-05-01T13:06:30.658Z</time></trkpt><trkpt lat="42.0763327" lon="13.5334282"><ele>724.0</ele><time>2026-05-01T13:06:31.659Z</time></trkpt><trkpt lat="42.0763774" lon="13.5336594"><ele>724.0</ele><time>2026-05-01T13:06:32.66Z</time></trkpt><trkpt lat="42.0764435" lon="13.5339572"><ele>724.0</ele><time>2026-05-01T13:06:33.656Z</time></trkpt><trkpt lat="42.0765037" lon="13.5342917"><ele>723.3333333333334</ele><time>2026-05-01T13:06:34.654Z</time></trkpt><trkpt lat="42.0765567" lon="13.5345923"><ele>722.6666666666666</ele><time>2026-05-01T13:06:35.653Z</time></trkpt><trkpt lat="42.0766072" lon="13.534844"><ele>722.0</ele><time>2026-05-01T13:06:36.649Z</time></trkpt><trkpt lat="42.0766606" lon="13.5350651"><ele>722.75</ele><time>2026-05-01T13:06:37.678Z</time></trkpt><trkpt lat="42.0767076" lon="13.5352622"><ele>723.5</ele><time>2026-05-01T13:06:38.649Z</time></trkpt><trkpt lat="42.0767493" lon="13.5354509"><ele>724.25</ele><time>2026-05-01T13:06:39.65Z</time></trkpt><trkpt lat="42.0767785" lon="13.5356111"><ele>725.0</ele><time>2026-05-01T13:06:40.663Z</time></trkpt><trkpt lat="42.0768076" lon="13.5357602"><ele>725.0</ele><time>2026-05-01T13:06:41.653Z</time></trkpt><trkpt lat="42.0768461" lon="13.535906"><ele>725.0</ele><time>2026-05-01T13:06:42.649Z</time></trkpt><trkpt lat="42.0768908" lon="13.5360399"><ele>725.0</ele><time>2026-05-01T13:06:43.654Z</time></trkpt><trkpt lat="42.0769366" lon="13.5361611"><ele>725.0</ele><time>2026-05-01T13:06:44.648Z</time></trkpt><trkpt lat="42.0769847" lon="13.5362769"><ele>725.0</ele><time>2026-05-01T13:06:45.656Z</time></trkpt><trkpt lat="42.0770279" lon="13.5363934"><ele>725.4</ele><time>2026-05-01T13:06:46.657Z</time></trkpt><trkpt lat="42.0770729" lon="13.5365021"><ele>725.8</ele><time>2026-05-01T13:06:47.69Z</time></trkpt><trkpt lat="42.0771156" lon="13.5366129"><ele>726.2</ele><time>2026-05-01T13:06:48.649Z</time></trkpt><trkpt lat="42.0771597" lon="13.5367254"><ele>726.6</ele><time>2026-05-01T13:06:49.653Z</time></trkpt><trkpt lat="42.0772028" lon="13.5368325"><ele>727.0</ele><time>2026-05-01T13:06:50.662Z</time></trkpt><trkpt lat="42.0772415" lon="13.5369456"><ele>727.2</ele><time>2026-05-01T13:06:51.653Z</time></trkpt><trkpt lat="42.0772864" lon="13.5370525"><ele>727.4000000000001</ele><time>2026-05-01T13:06:52.699Z</time></trkpt><trkpt lat="42.0773328" lon="13.5371631"><ele>727.5999999999999</ele><time>2026-05-01T13:06:53.652Z</time></trkpt><trkpt lat="42.0773793" lon="13.5372671"><ele>727.8</ele><time>2026-05-01T13:06:54.648Z</time></trkpt><trkpt lat="42.0774214" lon="13.5373797"><ele>728.0</ele><time>2026-05-01T13:06:55.647Z</time></trkpt><trkpt lat="42.0774641" lon="13.5374863"><ele>728.4</ele><time>2026-05-01T13:06:56.644Z</time></trkpt><trkpt lat="42.0775109" lon="13.5375922"><ele>728.8</ele><time>2026-05-01T13:06:57.673Z</time></trkpt><trkpt lat="42.0775563" lon="13.5376955"><ele>729.2</ele><time>2026-05-01T13:06:58.654Z</time></trkpt><trkpt lat="42.0776022" lon="13.5378039"><ele>729.6</ele><time>2026-05-01T13:06:59.65Z</time></trkpt><trkpt lat="42.0776451" lon="13.5379116"><ele>730.0</ele><time>2026-05-01T13:07:00.658Z</time></trkpt><trkpt lat="42.0776889" lon="13.5380141"><ele>730.1666666666667</ele><time>2026-05-01T13:07:01.657Z</time></trkpt><trkpt lat="42.0777295" lon="13.5381194"><ele>730.3333333333334</ele><time>2026-05-01T13:07:02.694Z</time></trkpt><trkpt lat="42.0777696" lon="13.5382261"><ele>730.5</ele><time>2026-05-01T13:07:03.652Z</time></trkpt><trkpt lat="42.077805" lon="13.538332"><ele>730.6666666666666</ele><time>2026-05-01T13:07:04.649Z</time></trkpt><trkpt lat="42.0778397" lon="13.538423"><ele>730.8333333333333</ele><time>2026-05-01T13:07:05.645Z</time></trkpt><trkpt lat="42.0778684" lon="13.5385031"><ele>731.0</ele><time>2026-05-01T13:07:06.659Z</time></trkpt><trkpt lat="42.0779138" lon="13.5386357"><ele>731.3333333333333</ele><time>2026-05-01T13:07:08.648Z</time></trkpt><trkpt lat="42.0779492" lon="13.5387389"><ele>731.6666666666666</ele><time>2026-05-01T13:07:10.655Z</time></trkpt><trkpt lat="42.077982" lon="13.5388298"><ele>732.0</ele><time>2026-05-01T13:07:13.647Z</time></trkpt><trkpt lat="42.0780259" lon="13.5389114"><ele>732.3333333333334</ele><time>2026-05-01T13:07:19.657Z</time></trkpt><trkpt lat="42.0781362" lon="13.5389762"><ele>732.6666666666667</ele><time>2026-05-01T13:07:21.647Z</time></trkpt><trkpt lat="42.0782128" lon="13.5389893"><ele>733.0</ele><time>2026-05-01T13:07:22.656Z</time></trkpt><trkpt lat="42.0782865" lon="13.5389828"><ele>733.6666666666667</ele><time>2026-05-01T13:07:23.651Z</time></trkpt><trkpt lat="42.0783652" lon="13.5389763"><ele>734.3333333333334</ele><time>2026-05-01T13:07:24.696Z</time></trkpt><trkpt lat="42.0784385" lon="13.5389772"><ele>735.0</ele><time>2026-05-01T13:07:25.659Z</time></trkpt><trkpt lat="42.0785174" lon="13.5389788"><ele>735.6666666666666</ele><time>2026-05-01T13:07:26.667Z</time></trkpt><trkpt lat="42.078595" lon="13.5389841"><ele>736.3333333333333</ele><time>2026-05-01T13:07:27.652Z</time></trkpt><trkpt lat="42.0786718" lon="13.5389863"><ele>737.0</ele><time>2026-05-01T13:07:28.653Z</time></trkpt><trkpt lat="42.078749" lon="13.539004"><ele>737.0</ele><time>2026-05-01T13:07:29.649Z</time></trkpt><trkpt lat="42.0788304" lon="13.5390294"><ele>737.0</ele><time>2026-05-01T13:07:30.648Z</time></trkpt><trkpt lat="42.0789135" lon="13.5390568"><ele>737.0</ele><time>2026-05-01T13:07:31.645Z</time></trkpt><trkpt lat="42.078988" lon="13.5390999"><ele>737.0</ele><time>2026-05-01T13:07:32.651Z</time></trkpt><trkpt lat="42.0790606" lon="13.5391619"><ele>737.0</ele><time>2026-05-01T13:07:33.644Z</time></trkpt><trkpt lat="42.0791309" lon="13.5392262"><ele>737.0</ele><time>2026-05-01T13:07:34.658Z</time></trkpt><trkpt lat="42.0791888" lon="13.5393104"><ele>737.5</ele><time>2026-05-01T13:07:35.649Z</time></trkpt><trkpt lat="42.0792385" lon="13.5393988"><ele>738.0</ele><time>2026-05-01T13:07:36.654Z</time></trkpt><trkpt lat="42.0792861" lon="13.5394848"><ele>738.5</ele><time>2026-05-01T13:07:37.651Z</time></trkpt><trkpt lat="42.0793402" lon="13.5395759"><ele>739.0</ele><time>2026-05-01T13:07:38.636Z</time></trkpt><trkpt lat="42.0793888" lon="13.5396692"><ele>739.5</ele><time>2026-05-01T13:07:39.683Z</time></trkpt><trkpt lat="42.0794341" lon="13.5397645"><ele>740.0</ele><time>2026-05-01T13:07:40.648Z</time></trkpt><trkpt lat="42.0794772" lon="13.5398629"><ele>740.5</ele><time>2026-05-01T13:07:41.645Z</time></trkpt><trkpt lat="42.0795154" lon="13.5399656"><ele>741.0</ele><time>2026-05-01T13:07:42.651Z</time></trkpt><trkpt lat="42.0795435" lon="13.5400692"><ele>741.5</ele><time>2026-05-01T13:07:43.653Z</time></trkpt><trkpt lat="42.0795627" lon="13.5401805"><ele>742.0</ele><time>2026-05-01T13:07:44.653Z</time></trkpt><trkpt lat="42.079577" lon="13.5402944"><ele>742.5</ele><time>2026-05-01T13:07:45.675Z</time></trkpt><trkpt lat="42.0795922" lon="13.540407"><ele>743.0</ele><time>2026-05-01T13:07:46.646Z</time></trkpt><trkpt lat="42.0796174" lon="13.5405177"><ele>743.0</ele><time>2026-05-01T13:07:47.653Z</time></trkpt><trkpt lat="42.0796428" lon="13.5406254"><ele>743.0</ele><time>2026-05-01T13:07:48.65Z</time></trkpt><trkpt lat="42.0796771" lon="13.5407285"><ele>743.0</ele><time>2026-05-01T13:07:49.653Z</time></trkpt><trkpt lat="42.0797236" lon="13.5408242"><ele>743.0</ele><time>2026-05-01T13:07:50.655Z</time></trkpt><trkpt lat="42.0797886" lon="13.5409022"><ele>743.0</ele><time>2026-05-01T13:07:51.653Z</time></trkpt><trkpt lat="42.079862" lon="13.5409641"><ele>743.0</ele><time>2026-05-01T13:07:52.68Z</time></trkpt><trkpt lat="42.079937" lon="13.5410121"><ele>743.1666666666666</ele><time>2026-05-01T13:07:53.659Z</time></trkpt><trkpt lat="42.0800203" lon="13.5410468"><ele>743.3333333333333</ele><time>2026-05-01T13:07:54.66Z</time></trkpt><trkpt lat="42.0801033" lon="13.541072"><ele>743.5</ele><time>2026-05-01T13:07:55.661Z</time></trkpt><trkpt lat="42.0801899" lon="13.5410862"><ele>743.6666666666666</ele><time>2026-05-01T13:07:56.649Z</time></trkpt><trkpt lat="42.0802787" lon="13.5410919"><ele>743.8333333333334</ele><time>2026-05-01T13:07:57.679Z</time></trkpt><trkpt lat="42.0803674" lon="13.5410882"><ele>744.0</ele><time>2026-05-01T13:07:58.652Z</time></trkpt><trkpt lat="42.0804542" lon="13.541085"><ele>744.0</ele><time>2026-05-01T13:07:59.656Z</time></trkpt><trkpt lat="42.0805385" lon="13.5410782"><ele>744.0</ele><time>2026-05-01T13:08:00.65Z</time></trkpt><trkpt lat="42.0806233" lon="13.5410736"><ele>744.0</ele><time>2026-05-01T13:08:01.647Z</time></trkpt><trkpt lat="42.0807099" lon="13.5410657"><ele>744.0</ele><time>2026-05-01T13:08:02.651Z</time></trkpt><trkpt lat="42.0807965" lon="13.5410574"><ele>744.0</ele><time>2026-05-01T13:08:03.634Z</time></trkpt><trkpt lat="42.0808892" lon="13.5410589"><ele>744.0</ele><time>2026-05-01T13:08:04.655Z</time></trkpt><trkpt lat="42.0809808" lon="13.5410496"><ele>744.2</ele><time>2026-05-01T13:08:05.646Z</time></trkpt><trkpt lat="42.0810723" lon="13.5410562"><ele>744.4000000000001</ele><time>2026-05-01T13:08:06.647Z</time></trkpt><trkpt lat="42.0811668" lon="13.5410547"><ele>744.6</ele><time>2026-05-01T13:08:07.647Z</time></trkpt><trkpt lat="42.0812619" lon="13.54106"><ele>744.8</ele><time>2026-05-01T13:08:08.653Z</time></trkpt><trkpt lat="42.0813634" lon="13.5410626"><ele>745.0</ele><time>2026-05-01T13:08:09.648Z</time></trkpt><trkpt lat="42.0814708" lon="13.5410809"><ele>745.0</ele><time>2026-05-01T13:08:10.649Z</time></trkpt><trkpt lat="42.0815816" lon="13.5411112"><ele>745.0</ele><time>2026-05-01T13:08:11.683Z</time></trkpt><trkpt lat="42.0816968" lon="13.5411493"><ele>745.0</ele><time>2026-05-01T13:08:12.645Z</time></trkpt><trkpt lat="42.0818059" lon="13.5412015"><ele>745.0</ele><time>2026-05-01T13:08:13.655Z</time></trkpt><trkpt lat="42.0818979" lon="13.5412812"><ele>745.25</ele><time>2026-05-01T13:08:14.656Z</time></trkpt><trkpt lat="42.0819788" lon="13.5413922"><ele>745.5</ele><time>2026-05-01T13:08:15.656Z</time></trkpt><trkpt lat="42.082061" lon="13.5415266"><ele>745.75</ele><time>2026-05-01T13:08:16.646Z</time></trkpt><trkpt lat="42.0821452" lon="13.5416772"><ele>746.0</ele><time>2026-05-01T13:08:17.646Z</time></trkpt><trkpt lat="42.0822204" lon="13.5418386"><ele>746.0</ele><time>2026-05-01T13:08:18.653Z</time></trkpt><trkpt lat="42.0822893" lon="13.5419978"><ele>746.0</ele><time>2026-05-01T13:08:19.662Z</time></trkpt><trkpt lat="42.0823444" lon="13.5421477"><ele>746.0</ele><time>2026-05-01T13:08:20.652Z</time></trkpt><trkpt lat="42.0823963" lon="13.5422759"><ele>746.0</ele><time>2026-05-01T13:08:21.659Z</time></trkpt><trkpt lat="42.0824411" lon="13.5423861"><ele>746.1999999999999</ele><time>2026-05-01T13:08:22.647Z</time></trkpt><trkpt lat="42.0824811" lon="13.5424778"><ele>746.4</ele><time>2026-05-01T13:08:23.658Z</time></trkpt><trkpt lat="42.0825197" lon="13.5426078"><ele>746.6</ele><time>2026-05-01T13:08:25.645Z</time></trkpt><trkpt lat="42.0824884" lon="13.5427073"><ele>746.8</ele><time>2026-05-01T13:08:27.651Z</time></trkpt><trkpt lat="42.0823955" lon="13.5428261"><ele>747.0</ele><time>2026-05-01T13:08:29.649Z</time></trkpt><trkpt lat="42.0823601" lon="13.5428992"><ele>747.6666666666666</ele><time>2026-05-01T13:08:30.645Z</time></trkpt><trkpt lat="42.0823235" lon="13.5429793"><ele>748.3333333333334</ele><time>2026-05-01T13:08:31.646Z</time></trkpt><trkpt lat="42.0822938" lon="13.5430698"><ele>749.0</ele><time>2026-05-01T13:08:32.652Z</time></trkpt><trkpt lat="42.0822836" lon="13.5431614"><ele>749.6666666666667</ele><time>2026-05-01T13:08:33.678Z</time></trkpt><trkpt lat="42.0822868" lon="13.5432465"><ele>750.3333333333334</ele><time>2026-05-01T13:08:34.647Z</time></trkpt><trkpt lat="42.0822997" lon="13.5434004"><ele>751.0</ele><time>2026-05-01T13:08:36.657Z</time></trkpt><trkpt lat="42.0823152" lon="13.5435336"><ele>751.0</ele><time>2026-05-01T13:08:38.641Z</time></trkpt><trkpt lat="42.0823391" lon="13.5437008"><ele>751.0</ele><time>2026-05-01T13:08:40.65Z</time></trkpt><trkpt lat="42.0823581" lon="13.543791"><ele>751.0</ele><time>2026-05-01T13:08:41.639Z</time></trkpt><trkpt lat="42.0823701" lon="13.5438882"><ele>751.0</ele><time>2026-05-01T13:08:42.653Z</time></trkpt><trkpt lat="42.0823712" lon="13.5439768"><ele>751.0</ele><time>2026-05-01T13:08:43.646Z</time></trkpt><trkpt lat="42.0823711" lon="13.5440689"><ele>751.0</ele><time>2026-05-01T13:08:44.666Z</time></trkpt><trkpt lat="42.0823705" lon="13.5441654"><ele>751.5</ele><time>2026-05-01T13:08:45.651Z</time></trkpt><trkpt lat="42.0823721" lon="13.5442611"><ele>752.0</ele><time>2026-05-01T13:08:46.644Z</time></trkpt><trkpt lat="42.082376" lon="13.5443644"><ele>752.5</ele><time>2026-05-01T13:08:47.646Z</time></trkpt><trkpt lat="42.082392" lon="13.5444685"><ele>753.0</ele><time>2026-05-01T13:08:48.647Z</time></trkpt><trkpt lat="42.0824056" lon="13.5445696"><ele>753.5</ele><time>2026-05-01T13:08:49.651Z</time></trkpt><trkpt lat="42.0824248" lon="13.5446708"><ele>754.0</ele><time>2026-05-01T13:08:50.658Z</time></trkpt><trkpt lat="42.0824445" lon="13.5447755"><ele>756.3333333333334</ele><time>2026-05-01T13:08:51.653Z</time></trkpt><trkpt lat="42.0824648" lon="13.5448778"><ele>758.6666666666667</ele><time>2026-05-01T13:08:52.648Z</time></trkpt><trkpt lat="42.0824884" lon="13.5449799"><ele>761.0</ele><time>2026-05-01T13:08:53.67Z</time></trkpt><trkpt lat="42.0825119" lon="13.5450827"><ele>763.3333333333334</ele><time>2026-05-01T13:08:54.643Z</time></trkpt><trkpt lat="42.0825372" lon="13.5451929"><ele>765.6666666666666</ele><time>2026-05-01T13:08:55.647Z</time></trkpt><trkpt lat="42.082553" lon="13.5453104"><ele>768.0</ele><time>2026-05-01T13:08:56.64Z</time></trkpt><trkpt lat="42.0825675" lon="13.5454382"><ele>768.4</ele><time>2026-05-01T13:08:57.648Z</time></trkpt><trkpt lat="42.0825775" lon="13.545562"><ele>768.8</ele><time>2026-05-01T13:08:58.636Z</time></trkpt><trkpt lat="42.0825798" lon="13.5456824"><ele>769.2</ele><time>2026-05-01T13:08:59.645Z</time></trkpt><trkpt lat="42.0825742" lon="13.5458029"><ele>769.6</ele><time>2026-05-01T13:09:00.649Z</time></trkpt><trkpt lat="42.0825714" lon="13.5459189"><ele>770.0</ele><time>2026-05-01T13:09:01.642Z</time></trkpt><trkpt lat="42.0825621" lon="13.5460426"><ele>770.0</ele><time>2026-05-01T13:09:02.647Z</time></trkpt><trkpt lat="42.0825482" lon="13.5461699"><ele>770.0</ele><time>2026-05-01T13:09:03.653Z</time></trkpt><trkpt lat="42.0825284" lon="13.5463047"><ele>770.0</ele><time>2026-05-01T13:09:04.656Z</time></trkpt><trkpt lat="42.082505" lon="13.5464438"><ele>770.0</ele><time>2026-05-01T13:09:05.642Z</time></trkpt><trkpt lat="42.0824751" lon="13.5465778"><ele>770.0</ele><time>2026-05-01T13:09:06.656Z</time></trkpt><trkpt lat="42.0824408" lon="13.5467021"><ele>770.6</ele><time>2026-05-01T13:09:07.634Z</time></trkpt><trkpt lat="42.0824081" lon="13.5468217"><ele>771.2</ele><time>2026-05-01T13:09:08.645Z</time></trkpt><trkpt lat="42.082368" lon="13.5469307"><ele>771.8</ele><time>2026-05-01T13:09:09.649Z</time></trkpt><trkpt lat="42.0823178" lon="13.5470351"><ele>772.4</ele><time>2026-05-01T13:09:10.649Z</time></trkpt><trkpt lat="42.0822572" lon="13.5471269"><ele>773.0</ele><time>2026-05-01T13:09:11.664Z</time></trkpt><trkpt lat="42.0821831" lon="13.5471988"><ele>773.0</ele><time>2026-05-01T13:09:12.651Z</time></trkpt><trkpt lat="42.0820987" lon="13.5472609"><ele>773.0</ele><time>2026-05-01T13:09:13.65Z</time></trkpt><trkpt lat="42.0820125" lon="13.5473006"><ele>773.0</ele><time>2026-05-01T13:09:14.651Z</time></trkpt><trkpt lat="42.0819236" lon="13.5473397"><ele>773.0</ele><time>2026-05-01T13:09:15.65Z</time></trkpt><trkpt lat="42.0818323" lon="13.5473772"><ele>773.0</ele><time>2026-05-01T13:09:16.659Z</time></trkpt><trkpt lat="42.0817406" lon="13.5474215"><ele>773.0</ele><time>2026-05-01T13:09:17.651Z</time></trkpt><trkpt lat="42.0816586" lon="13.5474719"><ele>773.0</ele><time>2026-05-01T13:09:18.644Z</time></trkpt><trkpt lat="42.0815751" lon="13.5475269"><ele>773.0</ele><time>2026-05-01T13:09:19.658Z</time></trkpt><trkpt lat="42.0814994" lon="13.5475869"><ele>773.0</ele><time>2026-05-01T13:09:20.649Z</time></trkpt><trkpt lat="42.0814213" lon="13.5476526"><ele>773.0</ele><time>2026-05-01T13:09:21.652Z</time></trkpt><trkpt lat="42.0813449" lon="13.5477298"><ele>772.6666666666667</ele><time>2026-05-01T13:09:22.661Z</time></trkpt><trkpt lat="42.0812689" lon="13.5478103"><ele>772.3333333333334</ele><time>2026-05-01T13:09:23.654Z</time></trkpt><trkpt lat="42.081195" lon="13.5478949"><ele>772.0</ele><time>2026-05-01T13:09:24.649Z</time></trkpt><trkpt lat="42.0811209" lon="13.5479729"><ele>771.6666666666667</ele><time>2026-05-01T13:09:25.643Z</time></trkpt><trkpt lat="42.081052" lon="13.5480415"><ele>771.3333333333334</ele><time>2026-05-01T13:09:26.645Z</time></trkpt><trkpt lat="42.080993" lon="13.5481051"><ele>771.0</ele><time>2026-05-01T13:09:27.651Z</time></trkpt><trkpt lat="42.0808963" lon="13.5481878"><ele>772.3333333333334</ele><time>2026-05-01T13:09:29.648Z</time></trkpt><trkpt lat="42.0808372" lon="13.5482409"><ele>773.6666666666667</ele><time>2026-05-01T13:09:31.656Z</time></trkpt><trkpt lat="42.0807691" lon="13.5482862"><ele>775.0</ele><time>2026-05-01T13:09:44.644Z</time></trkpt><trkpt lat="42.0806989" lon="13.548352"><ele>776.3333333333334</ele><time>2026-05-01T13:09:46.647Z</time></trkpt><trkpt lat="42.080633" lon="13.5483931"><ele>777.6666666666667</ele><time>2026-05-01T13:09:48.641Z</time></trkpt><trkpt lat="42.0805359" lon="13.5482828"><ele>779.0</ele><time>2026-05-01T13:09:50.649Z</time></trkpt><trkpt lat="42.0804691" lon="13.5482194"><ele>779.0</ele><time>2026-05-01T13:09:51.646Z</time></trkpt><trkpt lat="42.0803761" lon="13.5481816"><ele>779.0</ele><time>2026-05-01T13:09:52.645Z</time></trkpt><trkpt lat="42.0802655" lon="13.5481736"><ele>779.0</ele><time>2026-05-01T13:09:53.645Z</time></trkpt><trkpt lat="42.0801567" lon="13.5482081"><ele>779.0</ele><time>2026-05-01T13:09:54.651Z</time></trkpt><trkpt lat="42.080042" lon="13.5482308"><ele>779.0</ele><time>2026-05-01T13:09:55.637Z</time></trkpt><trkpt lat="42.0799278" lon="13.5482598"><ele>778.0</ele><time>2026-05-01T13:09:56.659Z</time></trkpt><trkpt lat="42.0798104" lon="13.5482845"><ele>777.0</ele><time>2026-05-01T13:09:57.648Z</time></trkpt><trkpt lat="42.0796932" lon="13.5483108"><ele>776.0</ele><time>2026-05-01T13:09:58.659Z</time></trkpt><trkpt lat="42.0795699" lon="13.5483355"><ele>775.0</ele><time>2026-05-01T13:09:59.651Z</time></trkpt><trkpt lat="42.0794455" lon="13.5483636"><ele>775.0</ele><time>2026-05-01T13:10:00.648Z</time></trkpt><trkpt lat="42.0793231" lon="13.5483866"><ele>775.0</ele><time>2026-05-01T13:10:01.651Z</time></trkpt><trkpt lat="42.0791978" lon="13.5484112"><ele>775.0</ele><time>2026-05-01T13:10:02.652Z</time></trkpt><trkpt lat="42.0790744" lon="13.548434"><ele>775.0</ele><time>2026-05-01T13:10:03.667Z</time></trkpt><trkpt lat="42.0789554" lon="13.548455"><ele>772.4</ele><time>2026-05-01T13:10:04.643Z</time></trkpt><trkpt lat="42.0788435" lon="13.5484779"><ele>769.8</ele><time>2026-05-01T13:10:05.642Z</time></trkpt><trkpt lat="42.0787321" lon="13.5484957"><ele>767.2</ele><time>2026-05-01T13:10:06.647Z</time></trkpt><trkpt lat="42.07863" lon="13.5485177"><ele>764.6</ele><time>2026-05-01T13:10:07.638Z</time></trkpt><trkpt lat="42.0785334" lon="13.5485494"><ele>762.0</ele><time>2026-05-01T13:10:08.644Z</time></trkpt><trkpt lat="42.0784384" lon="13.5485914"><ele>762.0</ele><time>2026-05-01T13:10:09.629Z</time></trkpt><trkpt lat="42.0783449" lon="13.548646"><ele>762.0</ele><time>2026-05-01T13:10:10.635Z</time></trkpt><trkpt lat="42.0782641" lon="13.5487258"><ele>762.0</ele><time>2026-05-01T13:10:11.641Z</time></trkpt><trkpt lat="42.0781987" lon="13.5488269"><ele>762.0</ele><time>2026-05-01T13:10:12.646Z</time></trkpt><trkpt lat="42.0781549" lon="13.5489536"><ele>762.0</ele><time>2026-05-01T13:10:13.648Z</time></trkpt><trkpt lat="42.0781253" lon="13.5490861"><ele>762.2</ele><time>2026-05-01T13:10:14.645Z</time></trkpt><trkpt lat="42.0780988" lon="13.5492244"><ele>762.4000000000001</ele><time>2026-05-01T13:10:15.657Z</time></trkpt><trkpt lat="42.0780715" lon="13.5493599"><ele>762.5999999999999</ele><time>2026-05-01T13:10:16.647Z</time></trkpt><trkpt lat="42.0780368" lon="13.549497"><ele>762.8</ele><time>2026-05-01T13:10:17.655Z</time></trkpt><trkpt lat="42.0779992" lon="13.5496273"><ele>763.0</ele><time>2026-05-01T13:10:18.652Z</time></trkpt><trkpt lat="42.07795" lon="13.5497504"><ele>763.0</ele><time>2026-05-01T13:10:19.647Z</time></trkpt><trkpt lat="42.0778909" lon="13.5498527"><ele>763.0</ele><time>2026-05-01T13:10:20.652Z</time></trkpt><trkpt lat="42.0778132" lon="13.5499332"><ele>763.0</ele><time>2026-05-01T13:10:21.651Z</time></trkpt><trkpt lat="42.0777281" lon="13.5499928"><ele>763.0</ele><time>2026-05-01T13:10:22.656Z</time></trkpt><trkpt lat="42.0776516" lon="13.5500361"><ele>763.0</ele><time>2026-05-01T13:10:23.639Z</time></trkpt><trkpt lat="42.077571" lon="13.550078"><ele>763.0</ele><time>2026-05-01T13:10:24.652Z</time></trkpt><trkpt lat="42.0774867" lon="13.5501008"><ele>763.0</ele><time>2026-05-01T13:10:25.637Z</time></trkpt><trkpt lat="42.0774085" lon="13.5501168"><ele>763.0</ele><time>2026-05-01T13:10:26.642Z</time></trkpt><trkpt lat="42.0773258" lon="13.5501389"><ele>763.0</ele><time>2026-05-01T13:10:27.65Z</time></trkpt><trkpt lat="42.0772316" lon="13.5501708"><ele>763.0</ele><time>2026-05-01T13:10:28.644Z</time></trkpt><trkpt lat="42.077139" lon="13.5502096"><ele>763.0</ele><time>2026-05-01T13:10:29.648Z</time></trkpt><trkpt lat="42.077044" lon="13.5502451"><ele>761.6666666666667</ele><time>2026-05-01T13:10:30.647Z</time></trkpt><trkpt lat="42.0769534" lon="13.550278"><ele>760.3333333333334</ele><time>2026-05-01T13:10:31.657Z</time></trkpt><trkpt lat="42.0768673" lon="13.5503142"><ele>759.0</ele><time>2026-05-01T13:10:32.646Z</time></trkpt><trkpt lat="42.0767831" lon="13.5503453"><ele>757.6666666666666</ele><time>2026-05-01T13:10:33.655Z</time></trkpt><trkpt lat="42.0767044" lon="13.5503808"><ele>756.3333333333333</ele><time>2026-05-01T13:10:34.641Z</time></trkpt><trkpt lat="42.0766358" lon="13.5504359"><ele>755.0</ele><time>2026-05-01T13:10:35.644Z</time></trkpt><trkpt lat="42.0765785" lon="13.5505185"><ele>755.0</ele><time>2026-05-01T13:10:36.64Z</time></trkpt><trkpt lat="42.0765493" lon="13.5506147"><ele>755.0</ele><time>2026-05-01T13:10:37.655Z</time></trkpt><trkpt lat="42.0765438" lon="13.5507241"><ele>755.0</ele><time>2026-05-01T13:10:38.647Z</time></trkpt><trkpt lat="42.0765597" lon="13.5508272"><ele>755.0</ele><time>2026-05-01T13:10:39.645Z</time></trkpt><trkpt lat="42.0766074" lon="13.5509237"><ele>755.0</ele><time>2026-05-01T13:10:40.641Z</time></trkpt><trkpt lat="42.0766696" lon="13.551012"><ele>755.0</ele><time>2026-05-01T13:10:41.647Z</time></trkpt><trkpt lat="42.0767523" lon="13.5510841"><ele>755.0</ele><time>2026-05-01T13:10:42.647Z</time></trkpt><trkpt lat="42.0768441" lon="13.5511467"><ele>755.0</ele><time>2026-05-01T13:10:43.649Z</time></trkpt><trkpt lat="42.0769317" lon="13.5512152"><ele>755.0</ele><time>2026-05-01T13:10:44.647Z</time></trkpt><trkpt lat="42.0770218" lon="13.5512989"><ele>755.0</ele><time>2026-05-01T13:10:45.649Z</time></trkpt><trkpt lat="42.0770997" lon="13.5513998"><ele>755.0</ele><time>2026-05-01T13:10:46.657Z</time></trkpt><trkpt lat="42.0771752" lon="13.5515175"><ele>753.4</ele><time>2026-05-01T13:10:47.646Z</time></trkpt><trkpt lat="42.0772354" lon="13.5516416"><ele>751.8</ele><time>2026-05-01T13:10:48.649Z</time></trkpt><trkpt lat="42.0772921" lon="13.5517678"><ele>750.2</ele><time>2026-05-01T13:10:49.643Z</time></trkpt><trkpt lat="42.0773408" lon="13.5519006"><ele>748.6</ele><time>2026-05-01T13:10:50.651Z</time></trkpt><trkpt lat="42.0773778" lon="13.5520438"><ele>747.0</ele><time>2026-05-01T13:10:51.65Z</time></trkpt><trkpt lat="42.0774164" lon="13.5521828"><ele>748.4000000000001</ele><time>2026-05-01T13:10:52.678Z</time></trkpt><trkpt lat="42.0774529" lon="13.5523169"><ele>749.8000000000001</ele><time>2026-05-01T13:10:53.643Z</time></trkpt><trkpt lat="42.0774884" lon="13.5524562"><ele>751.2</ele><time>2026-05-01T13:10:54.647Z</time></trkpt><trkpt lat="42.077516" lon="13.5525857"><ele>752.6</ele><time>2026-05-01T13:10:55.654Z</time></trkpt><trkpt lat="42.0775447" lon="13.5526969"><ele>754.0</ele><time>2026-05-01T13:10:56.65Z</time></trkpt><trkpt lat="42.0775579" lon="13.5528059"><ele>752.8333333333334</ele><time>2026-05-01T13:10:57.661Z</time></trkpt><trkpt lat="42.0775648" lon="13.5529096"><ele>751.6666666666667</ele><time>2026-05-01T13:10:58.653Z</time></trkpt><trkpt lat="42.0775545" lon="13.5530235"><ele>750.5</ele><time>2026-05-01T13:10:59.646Z</time></trkpt><trkpt lat="42.0775119" lon="13.5531289"><ele>749.3333333333334</ele><time>2026-05-01T13:11:00.651Z</time></trkpt><trkpt lat="42.0774495" lon="13.5532126"><ele>748.1666666666666</ele><time>2026-05-01T13:11:01.644Z</time></trkpt><trkpt lat="42.0773709" lon="13.5532661"><ele>747.0</ele><time>2026-05-01T13:11:02.654Z</time></trkpt><trkpt lat="42.0772913" lon="13.5533063"><ele>746.6</ele><time>2026-05-01T13:11:03.645Z</time></trkpt><trkpt lat="42.077202" lon="13.5533385"><ele>746.2</ele><time>2026-05-01T13:11:04.639Z</time></trkpt><trkpt lat="42.07711" lon="13.5533685"><ele>745.8</ele><time>2026-05-01T13:11:05.64Z</time></trkpt><trkpt lat="42.0770202" lon="13.5534001"><ele>745.4</ele><time>2026-05-01T13:11:06.647Z</time></trkpt><trkpt lat="42.0769309" lon="13.5534305"><ele>745.0</ele><time>2026-05-01T13:11:07.644Z</time></trkpt><trkpt lat="42.0768345" lon="13.5534584"><ele>745.0</ele><time>2026-05-01T13:11:08.647Z</time></trkpt><trkpt lat="42.076734" lon="13.553479"><ele>745.0</ele><time>2026-05-01T13:11:09.647Z</time></trkpt><trkpt lat="42.0766313" lon="13.5534967"><ele>745.0</ele><time>2026-05-01T13:11:10.659Z</time></trkpt><trkpt lat="42.0765279" lon="13.5535062"><ele>745.0</ele><time>2026-05-01T13:11:11.647Z</time></trkpt><trkpt lat="42.0764227" lon="13.5534976"><ele>745.0</ele><time>2026-05-01T13:11:12.651Z</time></trkpt><trkpt lat="42.0763087" lon="13.553458"><ele>746.0</ele><time>2026-05-01T13:11:13.65Z</time></trkpt><trkpt lat="42.0762046" lon="13.5533929"><ele>747.0</ele><time>2026-05-01T13:11:14.645Z</time></trkpt><trkpt lat="42.0761045" lon="13.5533187"><ele>748.0</ele><time>2026-05-01T13:11:15.641Z</time></trkpt><trkpt lat="42.0760072" lon="13.5532292"><ele>749.0</ele><time>2026-05-01T13:11:16.65Z</time></trkpt><trkpt lat="42.0759158" lon="13.553126"><ele>749.0</ele><time>2026-05-01T13:11:17.644Z</time></trkpt><trkpt lat="42.0758273" lon="13.5530305"><ele>749.0</ele><time>2026-05-01T13:11:18.653Z</time></trkpt><trkpt lat="42.0757337" lon="13.5529353"><ele>749.0</ele><time>2026-05-01T13:11:19.645Z</time></trkpt><trkpt lat="42.0756334" lon="13.5528438"><ele>749.0</ele><time>2026-05-01T13:11:20.649Z</time></trkpt><trkpt lat="42.0755298" lon="13.5527608"><ele>747.5</ele><time>2026-05-01T13:11:21.647Z</time></trkpt><trkpt lat="42.0754273" lon="13.552675"><ele>746.0</ele><time>2026-05-01T13:11:22.654Z</time></trkpt><trkpt lat="42.075323" lon="13.5525953"><ele>744.5</ele><time>2026-05-01T13:11:23.653Z</time></trkpt><trkpt lat="42.075214" lon="13.552517"><ele>743.0</ele><time>2026-05-01T13:11:24.64Z</time></trkpt><trkpt lat="42.0751047" lon="13.552447"><ele>743.0</ele><time>2026-05-01T13:11:25.647Z</time></trkpt><trkpt lat="42.0749868" lon="13.5523864"><ele>743.0</ele><time>2026-05-01T13:11:26.647Z</time></trkpt><trkpt lat="42.074867" lon="13.5523319"><ele>743.0</ele><time>2026-05-01T13:11:27.655Z</time></trkpt><trkpt lat="42.0747433" lon="13.5522837"><ele>743.0</ele><time>2026-05-01T13:11:28.649Z</time></trkpt><trkpt lat="42.0746195" lon="13.5522395"><ele>743.25</ele><time>2026-05-01T13:11:29.658Z</time></trkpt><trkpt lat="42.0744933" lon="13.5522012"><ele>743.5</ele><time>2026-05-01T13:11:30.65Z</time></trkpt><trkpt lat="42.074363" lon="13.5521663"><ele>743.75</ele><time>2026-05-01T13:11:31.642Z</time></trkpt><trkpt lat="42.0742331" lon="13.5521438"><ele>744.0</ele><time>2026-05-01T13:11:32.646Z</time></trkpt><trkpt lat="42.074102" lon="13.5521367"><ele>742.5</ele><time>2026-05-01T13:11:33.642Z</time></trkpt><trkpt lat="42.0739678" lon="13.5521472"><ele>741.0</ele><time>2026-05-01T13:11:34.642Z</time></trkpt><trkpt lat="42.0738374" lon="13.5521615"><ele>739.5</ele><time>2026-05-01T13:11:35.645Z</time></trkpt><trkpt lat="42.0737091" lon="13.5521933"><ele>738.0</ele><time>2026-05-01T13:11:36.65Z</time></trkpt><trkpt lat="42.0735829" lon="13.5522313"><ele>738.0</ele><time>2026-05-01T13:11:37.646Z</time></trkpt><trkpt lat="42.0734614" lon="13.5522809"><ele>738.0</ele><time>2026-05-01T13:11:38.673Z</time></trkpt><trkpt lat="42.0733421" lon="13.5523351"><ele>738.0</ele><time>2026-05-01T13:11:39.646Z</time></trkpt><trkpt lat="42.0732244" lon="13.5523915"><ele>738.0</ele><time>2026-05-01T13:11:40.652Z</time></trkpt><trkpt lat="42.0731072" lon="13.5524439"><ele>736.25</ele><time>2026-05-01T13:11:41.652Z</time></trkpt><trkpt lat="42.0729915" lon="13.5524912"><ele>734.5</ele><time>2026-05-01T13:11:42.641Z</time></trkpt><trkpt lat="42.0728754" lon="13.5525396"><ele>732.75</ele><time>2026-05-01T13:11:43.647Z</time></trkpt><trkpt lat="42.0727614" lon="13.5525917"><ele>731.0</ele><time>2026-05-01T13:11:44.656Z</time></trkpt><trkpt lat="42.0726498" lon="13.5526376"><ele>731.0</ele><time>2026-05-01T13:11:45.646Z</time></trkpt><trkpt lat="42.0725431" lon="13.5526844"><ele>731.0</ele><time>2026-05-01T13:11:46.642Z</time></trkpt><trkpt lat="42.0724374" lon="13.5527204"><ele>731.0</ele><time>2026-05-01T13:11:47.651Z</time></trkpt><trkpt lat="42.0723328" lon="13.5527308"><ele>731.0</ele><time>2026-05-01T13:11:48.648Z</time></trkpt><trkpt lat="42.0722246" lon="13.5527144"><ele>731.0</ele><time>2026-05-01T13:11:49.649Z</time></trkpt><trkpt lat="42.0721155" lon="13.5526772"><ele>729.75</ele><time>2026-05-01T13:11:50.637Z</time></trkpt><trkpt lat="42.0720111" lon="13.5526348"><ele>728.5</ele><time>2026-05-01T13:11:51.65Z</time></trkpt><trkpt lat="42.0719011" lon="13.5526417"><ele>727.25</ele><time>2026-05-01T13:11:52.641Z</time></trkpt><trkpt lat="42.0717724" lon="13.5526993"><ele>726.0</ele><time>2026-05-01T13:11:53.647Z</time></trkpt><trkpt lat="42.0716284" lon="13.5528075"><ele>727.3333333333334</ele><time>2026-05-01T13:11:54.648Z</time></trkpt><trkpt lat="42.0714642" lon="13.5529442"><ele>728.6666666666667</ele><time>2026-05-01T13:11:55.648Z</time></trkpt><trkpt lat="42.0712991" lon="13.5530691"><ele>730.0</ele><time>2026-05-01T13:11:56.65Z</time></trkpt><trkpt lat="42.0711153" lon="13.5531689"><ele>730.0</ele><time>2026-05-01T13:11:57.652Z</time></trkpt><trkpt lat="42.0709048" lon="13.5532447"><ele>730.0</ele><time>2026-05-01T13:11:58.645Z</time></trkpt><trkpt lat="42.0706808" lon="13.5533058"><ele>730.0</ele><time>2026-05-01T13:11:59.655Z</time></trkpt><trkpt lat="42.0704796" lon="13.5533695"><ele>727.3333333333334</ele><time>2026-05-01T13:12:00.653Z</time></trkpt><trkpt lat="42.0702867" lon="13.5534216"><ele>724.6666666666666</ele><time>2026-05-01T13:12:01.647Z</time></trkpt><trkpt lat="42.0701051" lon="13.5534662"><ele>722.0</ele><time>2026-05-01T13:12:02.65Z</time></trkpt><trkpt lat="42.0699352" lon="13.5535223"><ele>722.0</ele><time>2026-05-01T13:12:03.65Z</time></trkpt><trkpt lat="42.0697876" lon="13.5536081"><ele>722.0</ele><time>2026-05-01T13:12:04.652Z</time></trkpt><trkpt lat="42.0696571" lon="13.5537131"><ele>722.0</ele><time>2026-05-01T13:12:05.689Z</time></trkpt><trkpt lat="42.0695334" lon="13.5538399"><ele>722.0</ele><time>2026-05-01T13:12:06.646Z</time></trkpt><trkpt lat="42.069419" lon="13.5539754"><ele>722.0</ele><time>2026-05-01T13:12:07.645Z</time></trkpt><trkpt lat="42.069307" lon="13.5540995"><ele>722.0</ele><time>2026-05-01T13:12:08.646Z</time></trkpt><trkpt lat="42.0691922" lon="13.5542231"><ele>722.0</ele><time>2026-05-01T13:12:09.649Z</time></trkpt><trkpt lat="42.0690806" lon="13.554335"><ele>720.5</ele><time>2026-05-01T13:12:10.643Z</time></trkpt><trkpt lat="42.0689773" lon="13.5544449"><ele>719.0</ele><time>2026-05-01T13:12:11.668Z</time></trkpt><trkpt lat="42.0688779" lon="13.5545452"><ele>717.5</ele><time>2026-05-01T13:12:12.646Z</time></trkpt><trkpt lat="42.0687792" lon="13.5546326"><ele>716.0</ele><time>2026-05-01T13:12:13.649Z</time></trkpt><trkpt lat="42.0686733" lon="13.5546992"><ele>716.0</ele><time>2026-05-01T13:12:14.647Z</time></trkpt><trkpt lat="42.0685581" lon="13.5547411"><ele>716.0</ele><time>2026-05-01T13:12:15.648Z</time></trkpt><trkpt lat="42.06844" lon="13.5547513"><ele>716.0</ele><time>2026-05-01T13:12:16.649Z</time></trkpt><trkpt lat="42.0683094" lon="13.5547344"><ele>716.0</ele><time>2026-05-01T13:12:17.642Z</time></trkpt><trkpt lat="42.0681789" lon="13.5546846"><ele>716.0</ele><time>2026-05-01T13:12:18.669Z</time></trkpt><trkpt lat="42.0680508" lon="13.5546153"><ele>716.0</ele><time>2026-05-01T13:12:19.654Z</time></trkpt><trkpt lat="42.0679252" lon="13.5545368"><ele>716.0</ele><time>2026-05-01T13:12:20.65Z</time></trkpt><trkpt lat="42.0678018" lon="13.554459"><ele>716.0</ele><time>2026-05-01T13:12:21.652Z</time></trkpt><trkpt lat="42.0676797" lon="13.5543933"><ele>716.0</ele><time>2026-05-01T13:12:22.651Z</time></trkpt><trkpt lat="42.0675488" lon="13.5543309"><ele>716.0</ele><time>2026-05-01T13:12:23.652Z</time></trkpt><trkpt lat="42.0674171" lon="13.5542758"><ele>716.0</ele><time>2026-05-01T13:12:24.649Z</time></trkpt><trkpt lat="42.0672867" lon="13.5542304"><ele>716.0</ele><time>2026-05-01T13:12:25.65Z</time></trkpt><trkpt lat="42.0671542" lon="13.5541983"><ele>715.0</ele><time>2026-05-01T13:12:26.65Z</time></trkpt><trkpt lat="42.0670163" lon="13.5541878"><ele>714.0</ele><time>2026-05-01T13:12:27.656Z</time></trkpt><trkpt lat="42.0668792" lon="13.5541993"><ele>713.0</ele><time>2026-05-01T13:12:28.653Z</time></trkpt><trkpt lat="42.0667446" lon="13.5542221"><ele>712.0</ele><time>2026-05-01T13:12:29.685Z</time></trkpt><trkpt lat="42.0665995" lon="13.5542509"><ele>711.25</ele><time>2026-05-01T13:12:30.651Z</time></trkpt><trkpt lat="42.0664584" lon="13.5542882"><ele>710.5</ele><time>2026-05-01T13:12:31.648Z</time></trkpt><trkpt lat="42.066313" lon="13.5543306"><ele>709.75</ele><time>2026-05-01T13:12:32.657Z</time></trkpt><trkpt lat="42.0661633" lon="13.554376"><ele>709.0</ele><time>2026-05-01T13:12:33.654Z</time></trkpt><trkpt lat="42.0659959" lon="13.5544329"><ele>709.0</ele><time>2026-05-01T13:12:34.659Z</time></trkpt><trkpt lat="42.0658102" lon="13.5544919"><ele>709.0</ele><time>2026-05-01T13:12:35.65Z</time></trkpt><trkpt lat="42.0656273" lon="13.5545541"><ele>709.0</ele><time>2026-05-01T13:12:36.646Z</time></trkpt><trkpt lat="42.0654488" lon="13.5546191"><ele>708.3333333333334</ele><time>2026-05-01T13:12:37.687Z</time></trkpt><trkpt lat="42.0652779" lon="13.5546733"><ele>707.6666666666666</ele><time>2026-05-01T13:12:38.642Z</time></trkpt><trkpt lat="42.0651272" lon="13.5547202"><ele>707.0</ele><time>2026-05-01T13:12:39.648Z</time></trkpt><trkpt lat="42.0649961" lon="13.5547676"><ele>705.75</ele><time>2026-05-01T13:12:40.658Z</time></trkpt><trkpt lat="42.0648673" lon="13.5548074"><ele>704.5</ele><time>2026-05-01T13:12:41.653Z</time></trkpt><trkpt lat="42.0647448" lon="13.5548461"><ele>703.25</ele><time>2026-05-01T13:12:42.661Z</time></trkpt><trkpt lat="42.0646217" lon="13.5548872"><ele>702.0</ele><time>2026-05-01T13:12:43.65Z</time></trkpt><trkpt lat="42.0644946" lon="13.5549256"><ele>702.0</ele><time>2026-05-01T13:12:44.649Z</time></trkpt><trkpt lat="42.0643701" lon="13.5549695"><ele>702.0</ele><time>2026-05-01T13:12:45.648Z</time></trkpt><trkpt lat="42.0642475" lon="13.5550174"><ele>702.0</ele><time>2026-05-01T13:12:46.653Z</time></trkpt><trkpt lat="42.0641274" lon="13.5550682"><ele>702.0</ele><time>2026-05-01T13:12:47.649Z</time></trkpt><trkpt lat="42.0640099" lon="13.5551197"><ele>702.3333333333334</ele><time>2026-05-01T13:12:48.646Z</time></trkpt><trkpt lat="42.0638756" lon="13.5551886"><ele>702.6666666666667</ele><time>2026-05-01T13:12:49.648Z</time></trkpt><trkpt lat="42.0637187" lon="13.5552695"><ele>703.0</ele><time>2026-05-01T13:12:50.645Z</time></trkpt><trkpt lat="42.0635399" lon="13.5553694"><ele>702.5</ele><time>2026-05-01T13:12:51.685Z</time></trkpt><trkpt lat="42.0633341" lon="13.5554962"><ele>702.0</ele><time>2026-05-01T13:12:52.654Z</time></trkpt><trkpt lat="42.0631074" lon="13.5556376"><ele>701.5</ele><time>2026-05-01T13:12:53.647Z</time></trkpt><trkpt lat="42.0628663" lon="13.5558105"><ele>701.0</ele><time>2026-05-01T13:12:54.647Z</time></trkpt><trkpt lat="42.0626269" lon="13.5559828"><ele>700.0</ele><time>2026-05-01T13:12:55.651Z</time></trkpt><trkpt lat="42.0624066" lon="13.5561419"><ele>699.0</ele><time>2026-05-01T13:12:56.651Z</time></trkpt><trkpt lat="42.0621976" lon="13.5562911"><ele>698.6666666666666</ele><time>2026-05-01T13:12:57.654Z</time></trkpt><trkpt lat="42.0620015" lon="13.5564263"><ele>698.3333333333333</ele><time>2026-05-01T13:12:58.685Z</time></trkpt><trkpt lat="42.061817" lon="13.5565558"><ele>698.0</ele><time>2026-05-01T13:12:59.647Z</time></trkpt><trkpt lat="42.0616309" lon="13.5566936"><ele>698.0</ele><time>2026-05-01T13:13:00.65Z</time></trkpt><trkpt lat="42.0614389" lon="13.5568376"><ele>698.0</ele><time>2026-05-01T13:13:01.635Z</time></trkpt><trkpt lat="42.061239" lon="13.5569769"><ele>698.0</ele><time>2026-05-01T13:13:02.646Z</time></trkpt><trkpt lat="42.0610221" lon="13.5571112"><ele>697.0</ele><time>2026-05-01T13:13:03.638Z</time></trkpt><trkpt lat="42.0607934" lon="13.557244"><ele>696.0</ele><time>2026-05-01T13:13:04.652Z</time></trkpt><trkpt lat="42.0605576" lon="13.5573798"><ele>695.0</ele><time>2026-05-01T13:13:05.654Z</time></trkpt><trkpt lat="42.0603034" lon="13.5575206"><ele>694.0</ele><time>2026-05-01T13:13:06.653Z</time></trkpt><trkpt lat="42.0600424" lon="13.5576899"><ele>694.0</ele><time>2026-05-01T13:13:07.635Z</time></trkpt><trkpt lat="42.0597928" lon="13.5578509"><ele>694.0</ele><time>2026-05-01T13:13:08.653Z</time></trkpt><trkpt lat="42.0595645" lon="13.5579944"><ele>694.0</ele><time>2026-05-01T13:13:09.647Z</time></trkpt><trkpt lat="42.0593556" lon="13.5581255"><ele>694.0</ele><time>2026-05-01T13:13:10.66Z</time></trkpt><trkpt lat="42.0591648" lon="13.5582539"><ele>694.0</ele><time>2026-05-01T13:13:11.653Z</time></trkpt><trkpt lat="42.0589951" lon="13.5583791"><ele>694.0</ele><time>2026-05-01T13:13:12.65Z</time></trkpt><trkpt lat="42.058839" lon="13.5585072"><ele>694.0</ele><time>2026-05-01T13:13:13.64Z</time></trkpt><trkpt lat="42.0587039" lon="13.5586247"><ele>694.0</ele><time>2026-05-01T13:13:14.687Z</time></trkpt><trkpt lat="42.0585931" lon="13.5587248"><ele>693.8000000000001</ele><time>2026-05-01T13:13:15.649Z</time></trkpt><trkpt lat="42.0585153" lon="13.5588038"><ele>693.6</ele><time>2026-05-01T13:13:16.645Z</time></trkpt><trkpt lat="42.0584556" lon="13.5588444"><ele>693.4</ele><time>2026-05-01T13:13:17.651Z</time></trkpt><trkpt lat="42.0583635" lon="13.5588884"><ele>693.2</ele><time>2026-05-01T13:13:19.645Z</time></trkpt><trkpt lat="42.0582371" lon="13.558935"><ele>693.0</ele><time>2026-05-01T13:13:21.65Z</time></trkpt><trkpt lat="42.0581476" lon="13.5589795"><ele>693.0</ele><time>2026-05-01T13:13:22.649Z</time></trkpt><trkpt lat="42.0580811" lon="13.559036"><ele>693.0</ele><time>2026-05-01T13:13:23.651Z</time></trkpt><trkpt lat="42.0580387" lon="13.5591535"><ele>693.0</ele><time>2026-05-01T13:13:24.668Z</time></trkpt><trkpt lat="42.0580327" lon="13.5592889"><ele>693.0</ele><time>2026-05-01T13:13:25.65Z</time></trkpt><trkpt lat="42.0580675" lon="13.5594485"><ele>693.0</ele><time>2026-05-01T13:13:26.641Z</time></trkpt><trkpt lat="42.0581072" lon="13.5596234"><ele>693.0</ele><time>2026-05-01T13:13:27.645Z</time></trkpt><trkpt lat="42.0581089" lon="13.5598167"><ele>693.0</ele><time>2026-05-01T13:13:28.647Z</time></trkpt><trkpt lat="42.0580689" lon="13.5600259"><ele>693.0</ele><time>2026-05-01T13:13:29.655Z</time></trkpt><trkpt lat="42.0580178" lon="13.5602474"><ele>693.0</ele><time>2026-05-01T13:13:30.639Z</time></trkpt><trkpt lat="42.0579816" lon="13.5604791"><ele>693.0</ele><time>2026-05-01T13:13:31.651Z</time></trkpt><trkpt lat="42.0579585" lon="13.5607158"><ele>693.0</ele><time>2026-05-01T13:13:32.66Z</time></trkpt><trkpt lat="42.0579381" lon="13.5609589"><ele>693.3333333333334</ele><time>2026-05-01T13:13:33.654Z</time></trkpt><trkpt lat="42.0579227" lon="13.561207"><ele>693.6666666666667</ele><time>2026-05-01T13:13:34.647Z</time></trkpt><trkpt lat="42.0579097" lon="13.5614566"><ele>694.0</ele><time>2026-05-01T13:13:35.658Z</time></trkpt><trkpt lat="42.0578964" lon="13.5617058"><ele>694.0</ele><time>2026-05-01T13:13:36.648Z</time></trkpt><trkpt lat="42.0578815" lon="13.5619516"><ele>694.0</ele><time>2026-05-01T13:13:37.685Z</time></trkpt><trkpt lat="42.0578666" lon="13.562195"><ele>694.0</ele><time>2026-05-01T13:13:38.655Z</time></trkpt><trkpt lat="42.0578492" lon="13.5624429"><ele>693.6666666666667</ele><time>2026-05-01T13:13:39.648Z</time></trkpt><trkpt lat="42.0578344" lon="13.5626936"><ele>693.3333333333334</ele><time>2026-05-01T13:13:40.648Z</time></trkpt><trkpt lat="42.0578211" lon="13.5629476"><ele>693.0</ele><time>2026-05-01T13:13:41.656Z</time></trkpt><trkpt lat="42.0578075" lon="13.5632037"><ele>692.6666666666666</ele><time>2026-05-01T13:13:42.652Z</time></trkpt><trkpt lat="42.0577927" lon="13.5634627"><ele>692.3333333333333</ele><time>2026-05-01T13:13:43.65Z</time></trkpt><trkpt lat="42.0577779" lon="13.5637225"><ele>692.0</ele><time>2026-05-01T13:13:44.651Z</time></trkpt><trkpt lat="42.0577617" lon="13.5639845"><ele>692.0</ele><time>2026-05-01T13:13:45.659Z</time></trkpt><trkpt lat="42.0577443" lon="13.5642473"><ele>692.0</ele><time>2026-05-01T13:13:46.646Z</time></trkpt><trkpt lat="42.0577254" lon="13.5645114"><ele>692.0</ele><time>2026-05-01T13:13:47.652Z</time></trkpt><trkpt lat="42.057707" lon="13.564772"><ele>691.3333333333333</ele><time>2026-05-01T13:13:48.645Z</time></trkpt><trkpt lat="42.0576921" lon="13.5650304"><ele>690.6666666666666</ele><time>2026-05-01T13:13:49.647Z</time></trkpt><trkpt lat="42.057679" lon="13.5652909"><ele>690.0</ele><time>2026-05-01T13:13:50.644Z</time></trkpt><trkpt lat="42.0576675" lon="13.5655527"><ele>689.6666666666666</ele><time>2026-05-01T13:13:51.659Z</time></trkpt><trkpt lat="42.0576564" lon="13.5658086"><ele>689.3333333333333</ele><time>2026-05-01T13:13:52.653Z</time></trkpt><trkpt lat="42.0576469" lon="13.5660579"><ele>689.0</ele><time>2026-05-01T13:13:53.655Z</time></trkpt><trkpt lat="42.0576404" lon="13.5663004"><ele>689.0</ele><time>2026-05-01T13:13:54.654Z</time></trkpt><trkpt lat="42.0576327" lon="13.5665406"><ele>689.0</ele><time>2026-05-01T13:13:55.647Z</time></trkpt><trkpt lat="42.057628" lon="13.566776"><ele>689.0</ele><time>2026-05-01T13:13:56.667Z</time></trkpt><trkpt lat="42.0576213" lon="13.5670089"><ele>689.0</ele><time>2026-05-01T13:13:57.65Z</time></trkpt><trkpt lat="42.0576047" lon="13.5672385"><ele>689.0</ele><time>2026-05-01T13:13:58.646Z</time></trkpt><trkpt lat="42.0575818" lon="13.5674698"><ele>689.0</ele><time>2026-05-01T13:13:59.652Z</time></trkpt><trkpt lat="42.0575574" lon="13.5677094"><ele>688.6666666666666</ele><time>2026-05-01T13:14:00.652Z</time></trkpt><trkpt lat="42.0575354" lon="13.5679543"><ele>688.3333333333334</ele><time>2026-05-01T13:14:01.656Z</time></trkpt><trkpt lat="42.0575191" lon="13.5682052"><ele>688.0</ele><time>2026-05-01T13:14:02.648Z</time></trkpt><trkpt lat="42.0575035" lon="13.5684655"><ele>688.0</ele><time>2026-05-01T13:14:03.671Z</time></trkpt><trkpt lat="42.0574882" lon="13.568728"><ele>688.0</ele><time>2026-05-01T13:14:04.652Z</time></trkpt><trkpt lat="42.0574699" lon="13.5689946"><ele>688.0</ele><time>2026-05-01T13:14:05.648Z</time></trkpt><trkpt lat="42.0574553" lon="13.5692608"><ele>687.0</ele><time>2026-05-01T13:14:06.651Z</time></trkpt><trkpt lat="42.0574366" lon="13.5695293"><ele>686.0</ele><time>2026-05-01T13:14:07.639Z</time></trkpt><trkpt lat="42.0574223" lon="13.5698022"><ele>685.0</ele><time>2026-05-01T13:14:08.691Z</time></trkpt><trkpt lat="42.0574086" lon="13.5700757"><ele>685.0</ele><time>2026-05-01T13:14:09.645Z</time></trkpt><trkpt lat="42.0573947" lon="13.5703504"><ele>685.0</ele><time>2026-05-01T13:14:10.644Z</time></trkpt><trkpt lat="42.0573787" lon="13.5706239"><ele>685.0</ele><time>2026-05-01T13:14:11.652Z</time></trkpt><trkpt lat="42.0573627" lon="13.5708978"><ele>684.6666666666667</ele><time>2026-05-01T13:14:12.644Z</time></trkpt><trkpt lat="42.0573474" lon="13.5711707"><ele>684.3333333333334</ele><time>2026-05-01T13:14:13.684Z</time></trkpt><trkpt lat="42.0573319" lon="13.5714449"><ele>684.0</ele><time>2026-05-01T13:14:14.653Z</time></trkpt><trkpt lat="42.0573137" lon="13.5717174"><ele>683.6666666666666</ele><time>2026-05-01T13:14:15.651Z</time></trkpt><trkpt lat="42.0572974" lon="13.5719887"><ele>683.3333333333333</ele><time>2026-05-01T13:14:16.653Z</time></trkpt><trkpt lat="42.0572855" lon="13.5722621"><ele>683.0</ele><time>2026-05-01T13:14:17.633Z</time></trkpt><trkpt lat="42.0572708" lon="13.5725353"><ele>683.0</ele><time>2026-05-01T13:14:18.647Z</time></trkpt><trkpt lat="42.0572572" lon="13.5728103"><ele>683.0</ele><time>2026-05-01T13:14:19.651Z</time></trkpt><trkpt lat="42.0572443" lon="13.5730831"><ele>683.0</ele><time>2026-05-01T13:14:20.677Z</time></trkpt><trkpt lat="42.0572315" lon="13.5733506"><ele>684.3333333333333</ele><time>2026-05-01T13:14:21.651Z</time></trkpt><trkpt lat="42.0572131" lon="13.5736226"><ele>685.6666666666666</ele><time>2026-05-01T13:14:22.651Z</time></trkpt><trkpt lat="42.0572011" lon="13.5738961"><ele>687.0</ele><time>2026-05-01T13:14:23.646Z</time></trkpt><trkpt lat="42.0571879" lon="13.5741722"><ele>687.0</ele><time>2026-05-01T13:14:24.653Z</time></trkpt><trkpt lat="42.0571687" lon="13.5744427"><ele>687.0</ele><time>2026-05-01T13:14:25.646Z</time></trkpt><trkpt lat="42.0571487" lon="13.5747183"><ele>687.0</ele><time>2026-05-01T13:14:26.654Z</time></trkpt><trkpt lat="42.0571322" lon="13.5749936"><ele>687.0</ele><time>2026-05-01T13:14:27.652Z</time></trkpt><trkpt lat="42.0571093" lon="13.5752707"><ele>687.0</ele><time>2026-05-01T13:14:28.656Z</time></trkpt><trkpt lat="42.0570878" lon="13.5755522"><ele>687.0</ele><time>2026-05-01T13:14:29.652Z</time></trkpt><trkpt lat="42.0570689" lon="13.5758366"><ele>687.0</ele><time>2026-05-01T13:14:30.653Z</time></trkpt><trkpt lat="42.0570527" lon="13.5761242"><ele>687.0</ele><time>2026-05-01T13:14:31.686Z</time></trkpt><trkpt lat="42.0570395" lon="13.5764109"><ele>687.0</ele><time>2026-05-01T13:14:32.647Z</time></trkpt><trkpt lat="42.0570248" lon="13.5766966"><ele>687.0</ele><time>2026-05-01T13:14:33.646Z</time></trkpt><trkpt lat="42.057011" lon="13.5769759"><ele>687.0</ele><time>2026-05-01T13:14:34.65Z</time></trkpt><trkpt lat="42.0569956" lon="13.5772435"><ele>687.0</ele><time>2026-05-01T13:14:35.653Z</time></trkpt><trkpt lat="42.0569806" lon="13.5775023"><ele>687.0</ele><time>2026-05-01T13:14:36.644Z</time></trkpt><trkpt lat="42.0569624" lon="13.5777566"><ele>687.0</ele><time>2026-05-01T13:14:37.648Z</time></trkpt><trkpt lat="42.0569485" lon="13.5780116"><ele>687.0</ele><time>2026-05-01T13:14:38.648Z</time></trkpt><trkpt lat="42.056934" lon="13.5782662"><ele>687.0</ele><time>2026-05-01T13:14:39.652Z</time></trkpt><trkpt lat="42.0569181" lon="13.5785199"><ele>687.0</ele><time>2026-05-01T13:14:40.671Z</time></trkpt><trkpt lat="42.0569055" lon="13.5787647"><ele>687.0</ele><time>2026-05-01T13:14:41.651Z</time></trkpt><trkpt lat="42.0568897" lon="13.5790032"><ele>687.6666666666666</ele><time>2026-05-01T13:14:42.649Z</time></trkpt><trkpt lat="42.0568676" lon="13.579227"><ele>688.3333333333333</ele><time>2026-05-01T13:14:43.65Z</time></trkpt><trkpt lat="42.0568346" lon="13.579437"><ele>689.0</ele><time>2026-05-01T13:14:44.651Z</time></trkpt><trkpt lat="42.0567915" lon="13.5796376"><ele>689.6666666666666</ele><time>2026-05-01T13:14:45.647Z</time></trkpt><trkpt lat="42.0567329" lon="13.5798265"><ele>690.3333333333334</ele><time>2026-05-01T13:14:46.646Z</time></trkpt><trkpt lat="42.056661" lon="13.5800114"><ele>691.0</ele><time>2026-05-01T13:14:47.646Z</time></trkpt><trkpt lat="42.0565867" lon="13.5801812"><ele>690.5</ele><time>2026-05-01T13:14:48.646Z</time></trkpt><trkpt lat="42.0565129" lon="13.5803399"><ele>690.0</ele><time>2026-05-01T13:14:49.646Z</time></trkpt><trkpt lat="42.0564422" lon="13.5804796"><ele>689.5</ele><time>2026-05-01T13:14:50.65Z</time></trkpt><trkpt lat="42.0563803" lon="13.5806052"><ele>689.0</ele><time>2026-05-01T13:14:51.648Z</time></trkpt><trkpt lat="42.0563211" lon="13.5807143"><ele>689.0</ele><time>2026-05-01T13:14:52.651Z</time></trkpt><trkpt lat="42.0562536" lon="13.5808035"><ele>689.0</ele><time>2026-05-01T13:14:53.656Z</time></trkpt><trkpt lat="42.0561724" lon="13.5808685"><ele>689.0</ele><time>2026-05-01T13:14:54.652Z</time></trkpt><trkpt lat="42.0560811" lon="13.5809183"><ele>689.0</ele><time>2026-05-01T13:14:55.659Z</time></trkpt><trkpt lat="42.0559973" lon="13.580978"><ele>689.0</ele><time>2026-05-01T13:14:56.65Z</time></trkpt><trkpt lat="42.0559366" lon="13.5810615"><ele>689.0</ele><time>2026-05-01T13:14:57.667Z</time></trkpt><trkpt lat="42.0558968" lon="13.5811634"><ele>689.0</ele><time>2026-05-01T13:14:58.641Z</time></trkpt><trkpt lat="42.0558866" lon="13.5812721"><ele>689.0</ele><time>2026-05-01T13:14:59.655Z</time></trkpt><trkpt lat="42.0559063" lon="13.5813819"><ele>689.0</ele><time>2026-05-01T13:15:00.651Z</time></trkpt><trkpt lat="42.0559519" lon="13.5814757"><ele>689.0</ele><time>2026-05-01T13:15:01.647Z</time></trkpt><trkpt lat="42.0560132" lon="13.5815337"><ele>689.0</ele><time>2026-05-01T13:15:02.647Z</time></trkpt><trkpt lat="42.0560822" lon="13.5815564"><ele>689.0</ele><time>2026-05-01T13:15:03.644Z</time></trkpt><trkpt lat="42.0561552" lon="13.5815434"><ele>689.0</ele><time>2026-05-01T13:15:04.651Z</time></trkpt><trkpt lat="42.0562245" lon="13.581502"><ele>689.0</ele><time>2026-05-01T13:15:05.651Z</time></trkpt><trkpt lat="42.056277" lon="13.5814221"><ele>689.0</ele><time>2026-05-01T13:15:06.651Z</time></trkpt><trkpt lat="42.0563103" lon="13.5813288"><ele>689.0</ele><time>2026-05-01T13:15:07.672Z</time></trkpt><trkpt lat="42.0563194" lon="13.5812275"><ele>689.0</ele><time>2026-05-01T13:15:08.65Z</time></trkpt><trkpt lat="42.0563017" lon="13.5811203"><ele>689.0</ele><time>2026-05-01T13:15:09.662Z</time></trkpt><trkpt lat="42.0562508" lon="13.5810443"><ele>689.0</ele><time>2026-05-01T13:15:10.647Z</time></trkpt><trkpt lat="42.0561853" lon="13.5809887"><ele>689.0</ele><time>2026-05-01T13:15:11.655Z</time></trkpt><trkpt lat="42.056108" lon="13.580957"><ele>689.0</ele><time>2026-05-01T13:15:12.638Z</time></trkpt><trkpt lat="42.0560193" lon="13.5809578"><ele>689.0</ele><time>2026-05-01T13:15:13.649Z</time></trkpt><trkpt lat="42.0559296" lon="13.5809713"><ele>689.0</ele><time>2026-05-01T13:15:14.659Z</time></trkpt><trkpt lat="42.0558338" lon="13.5809639"><ele>688.6</ele><time>2026-05-01T13:15:15.657Z</time></trkpt><trkpt lat="42.055746" lon="13.5809243"><ele>688.2</ele><time>2026-05-01T13:15:16.65Z</time></trkpt><trkpt lat="42.0556696" lon="13.5808654"><ele>687.8000000000001</ele><time>2026-05-01T13:15:17.652Z</time></trkpt><trkpt lat="42.0555894" lon="13.5807932"><ele>687.4000000000001</ele><time>2026-05-01T13:15:18.65Z</time></trkpt><trkpt lat="42.055513" lon="13.580731"><ele>687.0</ele><time>2026-05-01T13:15:19.652Z</time></trkpt><trkpt lat="42.0554393" lon="13.5806665"><ele>687.0</ele><time>2026-05-01T13:15:20.65Z</time></trkpt><trkpt lat="42.0553665" lon="13.5806156"><ele>687.0</ele><time>2026-05-01T13:15:21.65Z</time></trkpt><trkpt lat="42.0553005" lon="13.5805717"><ele>687.0</ele><time>2026-05-01T13:15:22.65Z</time></trkpt><trkpt lat="42.0552075" lon="13.5805225"><ele>687.0</ele><time>2026-05-01T13:15:24.648Z</time></trkpt><trkpt lat="42.0551261" lon="13.5805435"><ele>687.0</ele><time>2026-05-01T13:15:26.644Z</time></trkpt><trkpt lat="42.0552394" lon="13.5805857"><ele>687.0</ele><time>2026-05-01T13:20:50.656Z</time></trkpt><trkpt lat="42.0553033" lon="13.5806059"><ele>687.0</ele><time>2026-05-01T13:20:51.654Z</time></trkpt><trkpt lat="42.0553841" lon="13.5806499"><ele>687.0</ele><time>2026-05-01T13:20:52.645Z</time></trkpt><trkpt lat="42.055471" lon="13.580719"><ele>687.0</ele><time>2026-05-01T13:20:53.654Z</time></trkpt><trkpt lat="42.0555604" lon="13.5807945"><ele>687.0</ele><time>2026-05-01T13:20:54.658Z</time></trkpt><trkpt lat="42.0556489" lon="13.5808804"><ele>687.0</ele><time>2026-05-01T13:20:55.664Z</time></trkpt><trkpt lat="42.055737" lon="13.5809716"><ele>687.0</ele><time>2026-05-01T13:20:56.649Z</time></trkpt><trkpt lat="42.0558048" lon="13.5810788"><ele>687.0</ele><time>2026-05-01T13:20:57.65Z</time></trkpt><trkpt lat="42.0558487" lon="13.5812081"><ele>687.0</ele><time>2026-05-01T13:20:58.646Z</time></trkpt><trkpt lat="42.0558993" lon="13.5813481"><ele>687.0</ele><time>2026-05-01T13:20:59.649Z</time></trkpt><trkpt lat="42.0559493" lon="13.5814865"><ele>688.25</ele><time>2026-05-01T13:21:00.645Z</time></trkpt><trkpt lat="42.0559995" lon="13.5816213"><ele>689.5</ele><time>2026-05-01T13:21:01.651Z</time></trkpt><trkpt lat="42.0560256" lon="13.5817709"><ele>690.75</ele><time>2026-05-01T13:21:02.648Z</time></trkpt><trkpt lat="42.0560389" lon="13.5819366"><ele>692.0</ele><time>2026-05-01T13:21:03.651Z</time></trkpt><trkpt lat="42.0560344" lon="13.5821182"><ele>692.75</ele><time>2026-05-01T13:21:04.649Z</time></trkpt><trkpt lat="42.0560277" lon="13.5823039"><ele>693.5</ele><time>2026-05-01T13:21:05.648Z</time></trkpt><trkpt lat="42.0560302" lon="13.5824963"><ele>694.25</ele><time>2026-05-01T13:21:06.646Z</time></trkpt><trkpt lat="42.0560573" lon="13.5826945"><ele>695.0</ele><time>2026-05-01T13:21:07.649Z</time></trkpt><trkpt lat="42.0561065" lon="13.582904"><ele>695.3333333333333</ele><time>2026-05-01T13:21:08.658Z</time></trkpt><trkpt lat="42.0561721" lon="13.5831122"><ele>695.6666666666666</ele><time>2026-05-01T13:21:09.649Z</time></trkpt><trkpt lat="42.05624" lon="13.5833213"><ele>696.0</ele><time>2026-05-01T13:21:10.648Z</time></trkpt><trkpt lat="42.0563038" lon="13.5835285"><ele>696.6666666666666</ele><time>2026-05-01T13:21:11.649Z</time></trkpt><trkpt lat="42.0563699" lon="13.5837326"><ele>697.3333333333333</ele><time>2026-05-01T13:21:12.643Z</time></trkpt><trkpt lat="42.0564298" lon="13.583944"><ele>698.0</ele><time>2026-05-01T13:21:13.643Z</time></trkpt><trkpt lat="42.0564863" lon="13.5841605"><ele>698.0</ele><time>2026-05-01T13:21:14.652Z</time></trkpt><trkpt lat="42.0565212" lon="13.5843813"><ele>698.0</ele><time>2026-05-01T13:21:15.655Z</time></trkpt><trkpt lat="42.0565313" lon="13.5846102"><ele>698.0</ele><time>2026-05-01T13:21:16.648Z</time></trkpt><trkpt lat="42.0565288" lon="13.5848416"><ele>699.3333333333333</ele><time>2026-05-01T13:21:17.653Z</time></trkpt><trkpt lat="42.0565164" lon="13.5850742"><ele>700.6666666666666</ele><time>2026-05-01T13:21:18.66Z</time></trkpt><trkpt lat="42.0564981" lon="13.5853136"><ele>702.0</ele><time>2026-05-01T13:21:19.641Z</time></trkpt><trkpt lat="42.0564781" lon="13.5855576"><ele>702.6666666666666</ele><time>2026-05-01T13:21:20.64Z</time></trkpt><trkpt lat="42.0564626" lon="13.5858073"><ele>703.3333333333333</ele><time>2026-05-01T13:21:21.668Z</time></trkpt><trkpt lat="42.0564484" lon="13.5860696"><ele>704.0</ele><time>2026-05-01T13:21:22.662Z</time></trkpt><trkpt lat="42.0564344" lon="13.5863688"><ele>705.5</ele><time>2026-05-01T13:21:23.653Z</time></trkpt><trkpt lat="42.0564165" lon="13.5867098"><ele>707.0</ele><time>2026-05-01T13:21:24.65Z</time></trkpt><trkpt lat="42.0563963" lon="13.5870728"><ele>708.5</ele><time>2026-05-01T13:21:25.68Z</time></trkpt><trkpt lat="42.0563735" lon="13.5874643"><ele>710.0</ele><time>2026-05-01T13:21:26.663Z</time></trkpt><trkpt lat="42.0563489" lon="13.5878737"><ele>711.0</ele><time>2026-05-01T13:21:27.639Z</time></trkpt><trkpt lat="42.0563239" lon="13.5882917"><ele>712.0</ele><time>2026-05-01T13:21:28.649Z</time></trkpt><trkpt lat="42.0563024" lon="13.5886959"><ele>713.0</ele><time>2026-05-01T13:21:29.655Z</time></trkpt><trkpt lat="42.0562811" lon="13.5890634"><ele>714.0</ele><time>2026-05-01T13:21:30.669Z</time></trkpt><trkpt lat="42.0562609" lon="13.5894009"><ele>714.0</ele><time>2026-05-01T13:21:31.651Z</time></trkpt><trkpt lat="42.0562477" lon="13.5897234"><ele>714.0</ele><time>2026-05-01T13:21:32.659Z</time></trkpt><trkpt lat="42.0562315" lon="13.5900425"><ele>715.0</ele><time>2026-05-01T13:21:33.652Z</time></trkpt><trkpt lat="42.0562156" lon="13.5903538"><ele>716.0</ele><time>2026-05-01T13:21:34.646Z</time></trkpt><trkpt lat="42.0561969" lon="13.590654"><ele>716.0</ele><time>2026-05-01T13:21:35.656Z</time></trkpt><trkpt lat="42.0561752" lon="13.5909503"><ele>716.0</ele><time>2026-05-01T13:21:36.65Z</time></trkpt><trkpt lat="42.0561545" lon="13.5912431"><ele>716.0</ele><time>2026-05-01T13:21:37.654Z</time></trkpt><trkpt lat="42.056135" lon="13.5915344"><ele>716.0</ele><time>2026-05-01T13:21:38.644Z</time></trkpt><trkpt lat="42.0561177" lon="13.591823"><ele>716.0</ele><time>2026-05-01T13:21:39.648Z</time></trkpt><trkpt lat="42.0560982" lon="13.5921142"><ele>716.0</ele><time>2026-05-01T13:21:40.657Z</time></trkpt><trkpt lat="42.0560819" lon="13.5924083"><ele>716.6666666666666</ele><time>2026-05-01T13:21:41.65Z</time></trkpt><trkpt lat="42.056069" lon="13.5927002"><ele>717.3333333333334</ele><time>2026-05-01T13:21:42.648Z</time></trkpt><trkpt lat="42.056063" lon="13.5929922"><ele>718.0</ele><time>2026-05-01T13:21:43.655Z</time></trkpt><trkpt lat="42.0560649" lon="13.5932872"><ele>718.3333333333334</ele><time>2026-05-01T13:21:44.65Z</time></trkpt><trkpt lat="42.0560739" lon="13.5935779"><ele>718.6666666666666</ele><time>2026-05-01T13:21:45.661Z</time></trkpt><trkpt lat="42.0560945" lon="13.5938665"><ele>719.0</ele><time>2026-05-01T13:21:46.653Z</time></trkpt><trkpt lat="42.0561218" lon="13.5941559"><ele>719.3333333333333</ele><time>2026-05-01T13:21:47.648Z</time></trkpt><trkpt lat="42.0561529" lon="13.5944454"><ele>719.6666666666666</ele><time>2026-05-01T13:21:48.652Z</time></trkpt><trkpt lat="42.0561828" lon="13.5947342"><ele>720.0</ele><time>2026-05-01T13:21:49.649Z</time></trkpt><trkpt lat="42.0562168" lon="13.5950214"><ele>720.0</ele><time>2026-05-01T13:21:50.64Z</time></trkpt><trkpt lat="42.0562462" lon="13.5953091"><ele>720.0</ele><time>2026-05-01T13:21:51.686Z</time></trkpt><trkpt lat="42.0562701" lon="13.5955967"><ele>720.0</ele><time>2026-05-01T13:21:52.648Z</time></trkpt><trkpt lat="42.0562984" lon="13.5958798"><ele>720.0</ele><time>2026-05-01T13:21:53.658Z</time></trkpt><trkpt lat="42.0563248" lon="13.5961581"><ele>720.0</ele><time>2026-05-01T13:21:54.65Z</time></trkpt><trkpt lat="42.0563552" lon="13.596435"><ele>720.0</ele><time>2026-05-01T13:21:55.657Z</time></trkpt><trkpt lat="42.0563852" lon="13.596708"><ele>720.0</ele><time>2026-05-01T13:21:56.658Z</time></trkpt><trkpt lat="42.0564119" lon="13.5969808"><ele>720.0</ele><time>2026-05-01T13:21:57.654Z</time></trkpt><trkpt lat="42.0564417" lon="13.5972501"><ele>720.0</ele><time>2026-05-01T13:21:58.643Z</time></trkpt><trkpt lat="42.0564701" lon="13.5975193"><ele>720.3333333333334</ele><time>2026-05-01T13:21:59.649Z</time></trkpt><trkpt lat="42.0564958" lon="13.5977867"><ele>720.6666666666667</ele><time>2026-05-01T13:22:00.643Z</time></trkpt><trkpt lat="42.056523" lon="13.5980545"><ele>721.0</ele><time>2026-05-01T13:22:01.668Z</time></trkpt><trkpt lat="42.0565499" lon="13.5983224"><ele>721.6666666666667</ele><time>2026-05-01T13:22:02.65Z</time></trkpt><trkpt lat="42.0565751" lon="13.5985851"><ele>722.3333333333334</ele><time>2026-05-01T13:22:03.645Z</time></trkpt><trkpt lat="42.0566049" lon="13.5988524"><ele>723.0</ele><time>2026-05-01T13:22:04.654Z</time></trkpt><trkpt lat="42.0566331" lon="13.5991181"><ele>723.6666666666666</ele><time>2026-05-01T13:22:05.651Z</time></trkpt><trkpt lat="42.0566612" lon="13.599383"><ele>724.3333333333333</ele><time>2026-05-01T13:22:06.66Z</time></trkpt><trkpt lat="42.05669" lon="13.5996442"><ele>725.0</ele><time>2026-05-01T13:22:07.667Z</time></trkpt><trkpt lat="42.0567201" lon="13.5999051"><ele>726.3333333333333</ele><time>2026-05-01T13:22:08.654Z</time></trkpt><trkpt lat="42.0567473" lon="13.6001633"><ele>727.6666666666666</ele><time>2026-05-01T13:22:09.648Z</time></trkpt><trkpt lat="42.0567775" lon="13.6004243"><ele>729.0</ele><time>2026-05-01T13:22:10.657Z</time></trkpt><trkpt lat="42.0568058" lon="13.6006798"><ele>729.3333333333334</ele><time>2026-05-01T13:22:11.656Z</time></trkpt><trkpt lat="42.0568345" lon="13.6009332"><ele>729.6666666666667</ele><time>2026-05-01T13:22:12.647Z</time></trkpt><trkpt lat="42.0568608" lon="13.6011818"><ele>730.0</ele><time>2026-05-01T13:22:13.643Z</time></trkpt><trkpt lat="42.0568885" lon="13.6014242"><ele>730.6666666666667</ele><time>2026-05-01T13:22:14.655Z</time></trkpt><trkpt lat="42.0569143" lon="13.6016573"><ele>731.3333333333334</ele><time>2026-05-01T13:22:15.648Z</time></trkpt><trkpt lat="42.0569373" lon="13.6018935"><ele>732.0</ele><time>2026-05-01T13:22:16.642Z</time></trkpt><trkpt lat="42.0569606" lon="13.6021155"><ele>732.5</ele><time>2026-05-01T13:22:17.652Z</time></trkpt><trkpt lat="42.0569773" lon="13.6023201"><ele>733.0</ele><time>2026-05-01T13:22:18.655Z</time></trkpt><trkpt lat="42.0569898" lon="13.6025204"><ele>733.5</ele><time>2026-05-01T13:22:19.657Z</time></trkpt><trkpt lat="42.0569879" lon="13.6027106"><ele>734.0</ele><time>2026-05-01T13:22:20.66Z</time></trkpt><trkpt lat="42.0569667" lon="13.6028925"><ele>735.25</ele><time>2026-05-01T13:22:21.673Z</time></trkpt><trkpt lat="42.0569196" lon="13.6030592"><ele>736.5</ele><time>2026-05-01T13:22:22.648Z</time></trkpt><trkpt lat="42.0568503" lon="13.6032169"><ele>737.75</ele><time>2026-05-01T13:22:23.658Z</time></trkpt><trkpt lat="42.056769" lon="13.6033661"><ele>739.0</ele><time>2026-05-01T13:22:24.654Z</time></trkpt><trkpt lat="42.0566825" lon="13.6035174"><ele>738.5</ele><time>2026-05-01T13:22:25.655Z</time></trkpt><trkpt lat="42.0566017" lon="13.6036674"><ele>738.0</ele><time>2026-05-01T13:22:26.653Z</time></trkpt><trkpt lat="42.0565277" lon="13.6038041"><ele>737.5</ele><time>2026-05-01T13:22:27.653Z</time></trkpt><trkpt lat="42.056459" lon="13.603926"><ele>737.0</ele><time>2026-05-01T13:22:28.664Z</time></trkpt><trkpt lat="42.0563853" lon="13.6040321"><ele>737.0</ele><time>2026-05-01T13:22:29.654Z</time></trkpt><trkpt lat="42.0562974" lon="13.6041116"><ele>737.0</ele><time>2026-05-01T13:22:30.656Z</time></trkpt><trkpt lat="42.0561981" lon="13.6041716"><ele>737.0</ele><time>2026-05-01T13:22:31.649Z</time></trkpt><trkpt lat="42.0560847" lon="13.6042183"><ele>737.0</ele><time>2026-05-01T13:22:32.655Z</time></trkpt><trkpt lat="42.0559619" lon="13.6042485"><ele>737.0</ele><time>2026-05-01T13:22:33.645Z</time></trkpt><trkpt lat="42.0558337" lon="13.6042764"><ele>737.0</ele><time>2026-05-01T13:22:34.648Z</time></trkpt><trkpt lat="42.0557004" lon="13.6043071"><ele>737.0</ele><time>2026-05-01T13:22:35.645Z</time></trkpt><trkpt lat="42.0555619" lon="13.604351"><ele>737.0</ele><time>2026-05-01T13:22:36.646Z</time></trkpt><trkpt lat="42.055419" lon="13.6044124"><ele>736.3333333333333</ele><time>2026-05-01T13:22:37.643Z</time></trkpt><trkpt lat="42.0552787" lon="13.604495"><ele>735.6666666666666</ele><time>2026-05-01T13:22:38.651Z</time></trkpt><trkpt lat="42.0551374" lon="13.6045878"><ele>735.0</ele><time>2026-05-01T13:22:39.65Z</time></trkpt><trkpt lat="42.0549928" lon="13.6046887"><ele>731.3333333333334</ele><time>2026-05-01T13:22:40.652Z</time></trkpt><trkpt lat="42.0548471" lon="13.6047975"><ele>727.6666666666667</ele><time>2026-05-01T13:22:41.658Z</time></trkpt><trkpt lat="42.0547015" lon="13.6049123"><ele>724.0</ele><time>2026-05-01T13:22:42.646Z</time></trkpt><trkpt lat="42.0545553" lon="13.6050459"><ele>724.0</ele><time>2026-05-01T13:22:43.649Z</time></trkpt><trkpt lat="42.0544049" lon="13.6051852"><ele>724.0</ele><time>2026-05-01T13:22:44.655Z</time></trkpt><trkpt lat="42.0542475" lon="13.6053286"><ele>724.0</ele><time>2026-05-01T13:22:45.652Z</time></trkpt><trkpt lat="42.0540829" lon="13.6054708"><ele>723.3333333333334</ele><time>2026-05-01T13:22:46.655Z</time></trkpt><trkpt lat="42.0539046" lon="13.6056134"><ele>722.6666666666666</ele><time>2026-05-01T13:22:47.645Z</time></trkpt><trkpt lat="42.0537187" lon="13.6057553"><ele>722.0</ele><time>2026-05-01T13:22:48.652Z</time></trkpt><trkpt lat="42.0535361" lon="13.60589"><ele>722.0</ele><time>2026-05-01T13:22:49.643Z</time></trkpt><trkpt lat="42.0533645" lon="13.6060211"><ele>722.0</ele><time>2026-05-01T13:22:50.644Z</time></trkpt><trkpt lat="42.0531932" lon="13.606179"><ele>722.0</ele><time>2026-05-01T13:22:51.638Z</time></trkpt><trkpt lat="42.0530291" lon="13.6063361"><ele>721.0</ele><time>2026-05-01T13:22:52.651Z</time></trkpt><trkpt lat="42.0528649" lon="13.6064935"><ele>720.0</ele><time>2026-05-01T13:22:53.644Z</time></trkpt><trkpt lat="42.0527164" lon="13.6066375"><ele>719.0</ele><time>2026-05-01T13:22:54.652Z</time></trkpt><trkpt lat="42.0525756" lon="13.6067877"><ele>718.3333333333333</ele><time>2026-05-01T13:22:55.646Z</time></trkpt><trkpt lat="42.0524525" lon="13.6069574"><ele>717.6666666666666</ele><time>2026-05-01T13:22:56.663Z</time></trkpt><trkpt lat="42.0523488" lon="13.607157"><ele>717.0</ele><time>2026-05-01T13:22:57.647Z</time></trkpt><trkpt lat="42.0522513" lon="13.607375"><ele>717.0</ele><time>2026-05-01T13:22:58.642Z</time></trkpt><trkpt lat="42.0521585" lon="13.6076001"><ele>717.0</ele><time>2026-05-01T13:22:59.65Z</time></trkpt><trkpt lat="42.0520727" lon="13.6078256"><ele>717.0</ele><time>2026-05-01T13:23:00.644Z</time></trkpt><trkpt lat="42.0519891" lon="13.6080488"><ele>717.3333333333334</ele><time>2026-05-01T13:23:01.703Z</time></trkpt><trkpt lat="42.0519092" lon="13.6082743"><ele>717.6666666666667</ele><time>2026-05-01T13:23:02.638Z</time></trkpt><trkpt lat="42.0518263" lon="13.6085072"><ele>718.0</ele><time>2026-05-01T13:23:03.654Z</time></trkpt><trkpt lat="42.0517475" lon="13.6087428"><ele>718.6666666666667</ele><time>2026-05-01T13:23:04.646Z</time></trkpt><trkpt lat="42.0516701" lon="13.6089805"><ele>719.3333333333334</ele><time>2026-05-01T13:23:05.649Z</time></trkpt><trkpt lat="42.0515927" lon="13.6092157"><ele>720.0</ele><time>2026-05-01T13:23:06.649Z</time></trkpt><trkpt lat="42.0515136" lon="13.6094551"><ele>719.0</ele><time>2026-05-01T13:23:07.656Z</time></trkpt><trkpt lat="42.0514372" lon="13.6096968"><ele>718.0</ele><time>2026-05-01T13:23:08.649Z</time></trkpt><trkpt lat="42.0513608" lon="13.6099411"><ele>717.0</ele><time>2026-05-01T13:23:09.658Z</time></trkpt><trkpt lat="42.0512803" lon="13.610185"><ele>717.0</ele><time>2026-05-01T13:23:10.647Z</time></trkpt><trkpt lat="42.0511961" lon="13.6104275"><ele>717.0</ele><time>2026-05-01T13:23:11.647Z</time></trkpt><trkpt lat="42.0511092" lon="13.6106684"><ele>717.0</ele><time>2026-05-01T13:23:12.644Z</time></trkpt><trkpt lat="42.0510207" lon="13.6109032"><ele>717.0</ele><time>2026-05-01T13:23:13.649Z</time></trkpt><trkpt lat="42.0509398" lon="13.6111403"><ele>717.0</ele><time>2026-05-01T13:23:14.649Z</time></trkpt><trkpt lat="42.0508652" lon="13.6113856"><ele>717.0</ele><time>2026-05-01T13:23:15.656Z</time></trkpt><trkpt lat="42.050793" lon="13.6116297"><ele>716.6666666666666</ele><time>2026-05-01T13:23:16.645Z</time></trkpt><trkpt lat="42.0507274" lon="13.6118746"><ele>716.3333333333333</ele><time>2026-05-01T13:23:17.652Z</time></trkpt><trkpt lat="42.0506631" lon="13.6121268"><ele>716.0</ele><time>2026-05-01T13:23:18.647Z</time></trkpt><trkpt lat="42.0505997" lon="13.6123774"><ele>716.0</ele><time>2026-05-01T13:23:19.658Z</time></trkpt><trkpt lat="42.0505229" lon="13.6126193"><ele>716.0</ele><time>2026-05-01T13:23:20.646Z</time></trkpt><trkpt lat="42.0504295" lon="13.6128534"><ele>716.0</ele><time>2026-05-01T13:23:21.643Z</time></trkpt><trkpt lat="42.0503239" lon="13.6130731"><ele>716.6666666666666</ele><time>2026-05-01T13:23:22.657Z</time></trkpt><trkpt lat="42.05021" lon="13.613293"><ele>717.3333333333334</ele><time>2026-05-01T13:23:23.661Z</time></trkpt><trkpt lat="42.050102" lon="13.6135156"><ele>718.0</ele><time>2026-05-01T13:23:24.657Z</time></trkpt><trkpt lat="42.0500011" lon="13.613743"><ele>717.0</ele><time>2026-05-01T13:23:25.659Z</time></trkpt><trkpt lat="42.0499087" lon="13.6139727"><ele>716.0</ele><time>2026-05-01T13:23:26.655Z</time></trkpt><trkpt lat="42.049818" lon="13.6142106"><ele>715.0</ele><time>2026-05-01T13:23:27.654Z</time></trkpt><trkpt lat="42.0497428" lon="13.6144558"><ele>715.3333333333334</ele><time>2026-05-01T13:23:28.642Z</time></trkpt><trkpt lat="42.0496802" lon="13.6147069"><ele>715.6666666666666</ele><time>2026-05-01T13:23:29.649Z</time></trkpt><trkpt lat="42.0496213" lon="13.614962"><ele>716.0</ele><time>2026-05-01T13:23:30.658Z</time></trkpt><trkpt lat="42.0495713" lon="13.615222"><ele>716.3333333333333</ele><time>2026-05-01T13:23:31.654Z</time></trkpt><trkpt lat="42.0495233" lon="13.6154851"><ele>716.6666666666666</ele><time>2026-05-01T13:23:32.647Z</time></trkpt><trkpt lat="42.0494729" lon="13.6157532"><ele>717.0</ele><time>2026-05-01T13:23:33.646Z</time></trkpt><trkpt lat="42.0494234" lon="13.6160192"><ele>717.3333333333334</ele><time>2026-05-01T13:23:34.642Z</time></trkpt><trkpt lat="42.049372" lon="13.6162892"><ele>717.6666666666667</ele><time>2026-05-01T13:23:35.651Z</time></trkpt><trkpt lat="42.0493256" lon="13.6165576"><ele>718.0</ele><time>2026-05-01T13:23:36.655Z</time></trkpt><trkpt lat="42.049279" lon="13.616827"><ele>718.3333333333334</ele><time>2026-05-01T13:23:37.644Z</time></trkpt><trkpt lat="42.0492302" lon="13.617093"><ele>718.6666666666666</ele><time>2026-05-01T13:23:38.653Z</time></trkpt><trkpt lat="42.0491833" lon="13.6173629"><ele>719.0</ele><time>2026-05-01T13:23:39.65Z</time></trkpt><trkpt lat="42.0491328" lon="13.6176351"><ele>717.3333333333333</ele><time>2026-05-01T13:23:40.655Z</time></trkpt><trkpt lat="42.0490864" lon="13.6179061"><ele>715.6666666666666</ele><time>2026-05-01T13:23:41.644Z</time></trkpt><trkpt lat="42.049037" lon="13.6181683"><ele>714.0</ele><time>2026-05-01T13:23:42.65Z</time></trkpt><trkpt lat="42.0489787" lon="13.6184262"><ele>715.0</ele><time>2026-05-01T13:23:43.647Z</time></trkpt><trkpt lat="42.048909" lon="13.6186695"><ele>716.0</ele><time>2026-05-01T13:23:44.647Z</time></trkpt><trkpt lat="42.0488261" lon="13.6189033"><ele>717.0</ele><time>2026-05-01T13:23:45.649Z</time></trkpt><trkpt lat="42.0487277" lon="13.6191221"><ele>717.0</ele><time>2026-05-01T13:23:46.639Z</time></trkpt><trkpt lat="42.0486262" lon="13.6193447"><ele>717.0</ele><time>2026-05-01T13:23:47.656Z</time></trkpt><trkpt lat="42.048528" lon="13.6195668"><ele>717.0</ele><time>2026-05-01T13:23:48.652Z</time></trkpt><trkpt lat="42.0484256" lon="13.619797"><ele>717.0</ele><time>2026-05-01T13:23:49.65Z</time></trkpt><trkpt lat="42.0483254" lon="13.6200278"><ele>717.0</ele><time>2026-05-01T13:23:50.649Z</time></trkpt><trkpt lat="42.0482242" lon="13.6202501"><ele>717.0</ele><time>2026-05-01T13:23:51.647Z</time></trkpt><trkpt lat="42.0481327" lon="13.6204651"><ele>717.0</ele><time>2026-05-01T13:23:52.651Z</time></trkpt><trkpt lat="42.0480401" lon="13.6206678"><ele>717.0</ele><time>2026-05-01T13:23:53.64Z</time></trkpt><trkpt lat="42.0479502" lon="13.6208605"><ele>717.0</ele><time>2026-05-01T13:23:54.667Z</time></trkpt><trkpt lat="42.0478382" lon="13.6210261"><ele>716.6666666666666</ele><time>2026-05-01T13:23:55.65Z</time></trkpt><trkpt lat="42.047714" lon="13.6211843"><ele>716.3333333333333</ele><time>2026-05-01T13:23:56.64Z</time></trkpt><trkpt lat="42.0475726" lon="13.6213368"><ele>716.0</ele><time>2026-05-01T13:23:57.648Z</time></trkpt><trkpt lat="42.0474273" lon="13.6214869"><ele>716.0</ele><time>2026-05-01T13:23:58.652Z</time></trkpt><trkpt lat="42.0472886" lon="13.621641"><ele>716.0</ele><time>2026-05-01T13:23:59.648Z</time></trkpt><trkpt lat="42.0471615" lon="13.6217996"><ele>716.0</ele><time>2026-05-01T13:24:00.653Z</time></trkpt><trkpt lat="42.0470379" lon="13.6219634"><ele>716.6666666666666</ele><time>2026-05-01T13:24:01.653Z</time></trkpt><trkpt lat="42.0469031" lon="13.6221198"><ele>717.3333333333334</ele><time>2026-05-01T13:24:02.649Z</time></trkpt><trkpt lat="42.0467632" lon="13.6222617"><ele>718.0</ele><time>2026-05-01T13:24:03.647Z</time></trkpt><trkpt lat="42.0466103" lon="13.6223902"><ele>716.6666666666667</ele><time>2026-05-01T13:24:04.64Z</time></trkpt><trkpt lat="42.0464508" lon="13.6225034"><ele>715.3333333333334</ele><time>2026-05-01T13:24:05.643Z</time></trkpt><trkpt lat="42.046286" lon="13.6226173"><ele>714.0</ele><time>2026-05-01T13:24:06.64Z</time></trkpt><trkpt lat="42.0461242" lon="13.6227374"><ele>714.3333333333334</ele><time>2026-05-01T13:24:07.649Z</time></trkpt><trkpt lat="42.045969" lon="13.6228675"><ele>714.6666666666667</ele><time>2026-05-01T13:24:08.655Z</time></trkpt><trkpt lat="42.0458225" lon="13.6230089"><ele>715.0</ele><time>2026-05-01T13:24:09.657Z</time></trkpt><trkpt lat="42.0456785" lon="13.6231522"><ele>714.0</ele><time>2026-05-01T13:24:10.647Z</time></trkpt><trkpt lat="42.0455373" lon="13.6232992"><ele>713.0</ele><time>2026-05-01T13:24:11.641Z</time></trkpt><trkpt lat="42.0453975" lon="13.6234427"><ele>712.0</ele><time>2026-05-01T13:24:12.652Z</time></trkpt><trkpt lat="42.0452647" lon="13.6235863"><ele>712.3333333333334</ele><time>2026-05-01T13:24:13.638Z</time></trkpt><trkpt lat="42.0451341" lon="13.6237261"><ele>712.6666666666666</ele><time>2026-05-01T13:24:14.645Z</time></trkpt><trkpt lat="42.0450035" lon="13.6238738"><ele>713.0</ele><time>2026-05-01T13:24:15.643Z</time></trkpt><trkpt lat="42.0448809" lon="13.6240286"><ele>712.6666666666666</ele><time>2026-05-01T13:24:16.646Z</time></trkpt><trkpt lat="42.0447609" lon="13.6241871"><ele>712.3333333333334</ele><time>2026-05-01T13:24:17.657Z</time></trkpt><trkpt lat="42.0446489" lon="13.6243489"><ele>712.0</ele><time>2026-05-01T13:24:18.652Z</time></trkpt><trkpt lat="42.0445434" lon="13.6245086"><ele>712.0</ele><time>2026-05-01T13:24:19.65Z</time></trkpt><trkpt lat="42.0444464" lon="13.6246616"><ele>712.0</ele><time>2026-05-01T13:24:20.642Z</time></trkpt><trkpt lat="42.0443536" lon="13.6248143"><ele>712.0</ele><time>2026-05-01T13:24:21.649Z</time></trkpt><trkpt lat="42.0442633" lon="13.6249565"><ele>712.0</ele><time>2026-05-01T13:24:22.648Z</time></trkpt><trkpt lat="42.0441786" lon="13.6250911"><ele>712.0</ele><time>2026-05-01T13:24:23.657Z</time></trkpt><trkpt lat="42.0440928" lon="13.6252198"><ele>712.0</ele><time>2026-05-01T13:24:24.657Z</time></trkpt><trkpt lat="42.0440112" lon="13.6253442"><ele>712.0</ele><time>2026-05-01T13:24:25.653Z</time></trkpt><trkpt lat="42.0439302" lon="13.6254734"><ele>712.0</ele><time>2026-05-01T13:24:26.648Z</time></trkpt><trkpt lat="42.0438541" lon="13.6255938"><ele>712.0</ele><time>2026-05-01T13:24:27.652Z</time></trkpt><trkpt lat="42.0437804" lon="13.6257065"><ele>712.0</ele><time>2026-05-01T13:24:28.651Z</time></trkpt><trkpt lat="42.0437168" lon="13.6258117"><ele>712.0</ele><time>2026-05-01T13:24:29.656Z</time></trkpt><trkpt lat="42.043658" lon="13.6258966"><ele>712.0</ele><time>2026-05-01T13:24:30.652Z</time></trkpt><trkpt lat="42.0436061" lon="13.6259541"><ele>712.0</ele><time>2026-05-01T13:24:31.647Z</time></trkpt><trkpt lat="42.0435018" lon="13.6260002"><ele>712.0</ele><time>2026-05-01T13:24:33.649Z</time></trkpt><trkpt lat="42.0433986" lon="13.6260147"><ele>712.0</ele><time>2026-05-01T13:24:35.65Z</time></trkpt><trkpt lat="42.0433271" lon="13.6260432"><ele>712.0</ele><time>2026-05-01T13:24:37.653Z</time></trkpt><trkpt lat="42.0432733" lon="13.6260925"><ele>712.0</ele><time>2026-05-01T13:24:45.645Z</time></trkpt><trkpt lat="42.0432148" lon="13.6261417"><ele>712.0</ele><time>2026-05-01T13:31:02.649Z</time></trkpt><trkpt lat="42.0432159" lon="13.6262861"><ele>712.0</ele><time>2026-05-01T13:31:05.643Z</time></trkpt><trkpt lat="42.0432179" lon="13.6264312"><ele>712.1666666666667</ele><time>2026-05-01T13:31:07.664Z</time></trkpt><trkpt lat="42.0432158" lon="13.6265518"><ele>712.3333333333334</ele><time>2026-05-01T13:31:09.653Z</time></trkpt><trkpt lat="42.043185" lon="13.6266301"><ele>712.5</ele><time>2026-05-01T13:31:10.653Z</time></trkpt><trkpt lat="42.0431324" lon="13.626723"><ele>712.6666666666666</ele><time>2026-05-01T13:31:11.655Z</time></trkpt><trkpt lat="42.0430725" lon="13.6268185"><ele>712.8333333333333</ele><time>2026-05-01T13:31:12.647Z</time></trkpt><trkpt lat="42.0430045" lon="13.6269196"><ele>713.0</ele><time>2026-05-01T13:31:13.653Z</time></trkpt><trkpt lat="42.0429336" lon="13.6270363"><ele>713.0</ele><time>2026-05-01T13:31:14.647Z</time></trkpt><trkpt lat="42.0428587" lon="13.627159"><ele>713.0</ele><time>2026-05-01T13:31:15.648Z</time></trkpt><trkpt lat="42.0427763" lon="13.6272838"><ele>713.0</ele><time>2026-05-01T13:31:16.656Z</time></trkpt><trkpt lat="42.0426864" lon="13.6274206"><ele>713.0</ele><time>2026-05-01T13:31:17.667Z</time></trkpt><trkpt lat="42.0425915" lon="13.6275716"><ele>713.0</ele><time>2026-05-01T13:31:18.656Z</time></trkpt><trkpt lat="42.0424943" lon="13.6277279"><ele>713.0</ele><time>2026-05-01T13:31:19.642Z</time></trkpt><trkpt lat="42.0423911" lon="13.6278844"><ele>713.0</ele><time>2026-05-01T13:31:20.649Z</time></trkpt><trkpt lat="42.0422874" lon="13.6280456"><ele>713.3333333333333</ele><time>2026-05-01T13:31:21.649Z</time></trkpt><trkpt lat="42.0421792" lon="13.6282124"><ele>713.6666666666666</ele><time>2026-05-01T13:31:22.66Z</time></trkpt><trkpt lat="42.0420731" lon="13.6283734"><ele>714.0</ele><time>2026-05-01T13:31:23.648Z</time></trkpt><trkpt lat="42.0419642" lon="13.6285369"><ele>715.6666666666666</ele><time>2026-05-01T13:31:24.658Z</time></trkpt><trkpt lat="42.0418599" lon="13.628699"><ele>717.3333333333333</ele><time>2026-05-01T13:31:25.651Z</time></trkpt><trkpt lat="42.0417541" lon="13.6288674"><ele>719.0</ele><time>2026-05-01T13:31:26.647Z</time></trkpt><trkpt lat="42.041652" lon="13.6290378"><ele>717.6666666666666</ele><time>2026-05-01T13:31:27.648Z</time></trkpt><trkpt lat="42.0415467" lon="13.6292116"><ele>716.3333333333334</ele><time>2026-05-01T13:31:28.645Z</time></trkpt><trkpt lat="42.0414376" lon="13.6293847"><ele>715.0</ele><time>2026-05-01T13:31:29.647Z</time></trkpt><trkpt lat="42.0413296" lon="13.6295634"><ele>715.0</ele><time>2026-05-01T13:31:30.654Z</time></trkpt><trkpt lat="42.0412229" lon="13.6297428"><ele>715.0</ele><time>2026-05-01T13:31:31.66Z</time></trkpt><trkpt lat="42.0411151" lon="13.629928"><ele>715.0</ele><time>2026-05-01T13:31:32.667Z</time></trkpt><trkpt lat="42.041005" lon="13.6301142"><ele>715.0</ele><time>2026-05-01T13:31:33.656Z</time></trkpt><trkpt lat="42.0408932" lon="13.6302986"><ele>715.0</ele><time>2026-05-01T13:31:34.651Z</time></trkpt><trkpt lat="42.0407781" lon="13.6304806"><ele>715.0</ele><time>2026-05-01T13:31:35.658Z</time></trkpt><trkpt lat="42.0406658" lon="13.6306623"><ele>714.6666666666667</ele><time>2026-05-01T13:31:36.664Z</time></trkpt><trkpt lat="42.0405527" lon="13.6308469"><ele>714.3333333333334</ele><time>2026-05-01T13:31:37.656Z</time></trkpt><trkpt lat="42.0404436" lon="13.6310353"><ele>714.0</ele><time>2026-05-01T13:31:38.666Z</time></trkpt><trkpt lat="42.040333" lon="13.6312253"><ele>714.6666666666666</ele><time>2026-05-01T13:31:39.658Z</time></trkpt><trkpt lat="42.0402204" lon="13.6314209"><ele>715.3333333333333</ele><time>2026-05-01T13:31:40.647Z</time></trkpt><trkpt lat="42.0401061" lon="13.6316178"><ele>716.0</ele><time>2026-05-01T13:31:41.666Z</time></trkpt><trkpt lat="42.0399897" lon="13.6318104"><ele>715.3333333333333</ele><time>2026-05-01T13:31:42.677Z</time></trkpt><trkpt lat="42.0398712" lon="13.6320035"><ele>714.6666666666666</ele><time>2026-05-01T13:31:43.666Z</time></trkpt><trkpt lat="42.0397607" lon="13.6321987"><ele>714.0</ele><time>2026-05-01T13:31:44.647Z</time></trkpt><trkpt lat="42.0396508" lon="13.6323995"><ele>714.0</ele><time>2026-05-01T13:31:45.667Z</time></trkpt><trkpt lat="42.0395389" lon="13.6326058"><ele>714.0</ele><time>2026-05-01T13:31:46.651Z</time></trkpt><trkpt lat="42.0394315" lon="13.6328212"><ele>714.0</ele><time>2026-05-01T13:31:47.653Z</time></trkpt><trkpt lat="42.0393268" lon="13.6330508"><ele>714.0</ele><time>2026-05-01T13:31:48.659Z</time></trkpt><trkpt lat="42.0392241" lon="13.633287"><ele>714.0</ele><time>2026-05-01T13:31:49.652Z</time></trkpt><trkpt lat="42.0391242" lon="13.6335284"><ele>714.0</ele><time>2026-05-01T13:31:50.651Z</time></trkpt><trkpt lat="42.039018" lon="13.6337683"><ele>715.0</ele><time>2026-05-01T13:31:51.65Z</time></trkpt><trkpt lat="42.0389182" lon="13.6340133"><ele>716.0</ele><time>2026-05-01T13:31:52.652Z</time></trkpt><trkpt lat="42.0388162" lon="13.6342542"><ele>717.0</ele><time>2026-05-01T13:31:53.652Z</time></trkpt><trkpt lat="42.0387136" lon="13.6344966"><ele>718.0</ele><time>2026-05-01T13:31:54.656Z</time></trkpt><trkpt lat="42.038612" lon="13.6347375"><ele>719.0</ele><time>2026-05-01T13:31:55.655Z</time></trkpt><trkpt lat="42.0385136" lon="13.634981"><ele>720.0</ele><time>2026-05-01T13:31:56.664Z</time></trkpt><trkpt lat="42.0384099" lon="13.6352243"><ele>720.6666666666666</ele><time>2026-05-01T13:31:57.652Z</time></trkpt><trkpt lat="42.0383057" lon="13.6354568"><ele>721.3333333333333</ele><time>2026-05-01T13:31:58.655Z</time></trkpt><trkpt lat="42.0381898" lon="13.6356819"><ele>722.0</ele><time>2026-05-01T13:31:59.655Z</time></trkpt><trkpt lat="42.0380718" lon="13.6358945"><ele>722.0</ele><time>2026-05-01T13:32:00.655Z</time></trkpt><trkpt lat="42.0379532" lon="13.636091"><ele>722.0</ele><time>2026-05-01T13:32:01.648Z</time></trkpt><trkpt lat="42.0378304" lon="13.6362868"><ele>722.0</ele><time>2026-05-01T13:32:02.653Z</time></trkpt><trkpt lat="42.0377119" lon="13.6364739"><ele>722.0</ele><time>2026-05-01T13:32:03.648Z</time></trkpt><trkpt lat="42.0375939" lon="13.6366501"><ele>722.0</ele><time>2026-05-01T13:32:04.651Z</time></trkpt><trkpt lat="42.0374708" lon="13.6368102"><ele>722.0</ele><time>2026-05-01T13:32:05.656Z</time></trkpt><trkpt lat="42.0373402" lon="13.6369592"><ele>724.0</ele><time>2026-05-01T13:32:06.658Z</time></trkpt><trkpt lat="42.0372008" lon="13.6370926"><ele>726.0</ele><time>2026-05-01T13:32:07.669Z</time></trkpt><trkpt lat="42.0370607" lon="13.6372227"><ele>728.0</ele><time>2026-05-01T13:32:08.647Z</time></trkpt><trkpt lat="42.0369299" lon="13.6373459"><ele>728.0</ele><time>2026-05-01T13:32:09.655Z</time></trkpt><trkpt lat="42.0368034" lon="13.6374768"><ele>728.0</ele><time>2026-05-01T13:32:10.651Z</time></trkpt><trkpt lat="42.0366838" lon="13.6376145"><ele>728.0</ele><time>2026-05-01T13:32:11.651Z</time></trkpt><trkpt lat="42.0365734" lon="13.6377664"><ele>727.0</ele><time>2026-05-01T13:32:12.648Z</time></trkpt><trkpt lat="42.0364732" lon="13.6379398"><ele>726.0</ele><time>2026-05-01T13:32:13.661Z</time></trkpt><trkpt lat="42.0363719" lon="13.6381231"><ele>725.0</ele><time>2026-05-01T13:32:14.651Z</time></trkpt><trkpt lat="42.036267" lon="13.6383089"><ele>725.0</ele><time>2026-05-01T13:32:15.656Z</time></trkpt><trkpt lat="42.0361662" lon="13.6384835"><ele>725.0</ele><time>2026-05-01T13:32:16.654Z</time></trkpt><trkpt lat="42.0360611" lon="13.63865"><ele>725.0</ele><time>2026-05-01T13:32:17.656Z</time></trkpt><trkpt lat="42.0359608" lon="13.6388108"><ele>724.3333333333333</ele><time>2026-05-01T13:32:18.65Z</time></trkpt><trkpt lat="42.0358626" lon="13.6389722"><ele>723.6666666666666</ele><time>2026-05-01T13:32:19.652Z</time></trkpt><trkpt lat="42.0357617" lon="13.6391322"><ele>723.0</ele><time>2026-05-01T13:32:20.655Z</time></trkpt><trkpt lat="42.0356545" lon="13.6392958"><ele>723.0</ele><time>2026-05-01T13:32:21.646Z</time></trkpt><trkpt lat="42.035537" lon="13.6394513"><ele>723.0</ele><time>2026-05-01T13:32:22.67Z</time></trkpt><trkpt lat="42.0354076" lon="13.6395969"><ele>723.0</ele><time>2026-05-01T13:32:23.644Z</time></trkpt><trkpt lat="42.0352725" lon="13.639729"><ele>723.0</ele><time>2026-05-01T13:32:24.652Z</time></trkpt><trkpt lat="42.035137" lon="13.6398629"><ele>723.0</ele><time>2026-05-01T13:32:25.648Z</time></trkpt><trkpt lat="42.0349946" lon="13.6399907"><ele>723.0</ele><time>2026-05-01T13:32:26.647Z</time></trkpt><trkpt lat="42.034851" lon="13.6401194"><ele>723.0</ele><time>2026-05-01T13:32:27.649Z</time></trkpt><trkpt lat="42.0347057" lon="13.6402449"><ele>723.0</ele><time>2026-05-01T13:32:28.649Z</time></trkpt><trkpt lat="42.0345617" lon="13.640368"><ele>723.0</ele><time>2026-05-01T13:32:29.658Z</time></trkpt><trkpt lat="42.0344162" lon="13.6404918"><ele>723.3333333333334</ele><time>2026-05-01T13:32:30.643Z</time></trkpt><trkpt lat="42.0342721" lon="13.6406101"><ele>723.6666666666667</ele><time>2026-05-01T13:32:31.653Z</time></trkpt><trkpt lat="42.0341266" lon="13.6407348"><ele>724.0</ele><time>2026-05-01T13:32:32.66Z</time></trkpt><trkpt lat="42.0339798" lon="13.6408603"><ele>724.0</ele><time>2026-05-01T13:32:33.654Z</time></trkpt><trkpt lat="42.0338305" lon="13.6409881"><ele>724.0</ele><time>2026-05-01T13:32:34.649Z</time></trkpt><trkpt lat="42.0336808" lon="13.6411153"><ele>724.0</ele><time>2026-05-01T13:32:35.652Z</time></trkpt><trkpt lat="42.0335359" lon="13.641239"><ele>723.6666666666667</ele><time>2026-05-01T13:32:36.654Z</time></trkpt><trkpt lat="42.0333914" lon="13.6413578"><ele>723.3333333333334</ele><time>2026-05-01T13:32:37.654Z</time></trkpt><trkpt lat="42.0332478" lon="13.6414806"><ele>723.0</ele><time>2026-05-01T13:32:38.641Z</time></trkpt><trkpt lat="42.0331108" lon="13.6416077"><ele>723.0</ele><time>2026-05-01T13:32:39.646Z</time></trkpt><trkpt lat="42.0329692" lon="13.6417301"><ele>723.0</ele><time>2026-05-01T13:32:40.652Z</time></trkpt><trkpt lat="42.0328286" lon="13.6418487"><ele>723.0</ele><time>2026-05-01T13:32:41.659Z</time></trkpt><trkpt lat="42.0326868" lon="13.6419673"><ele>723.3333333333334</ele><time>2026-05-01T13:32:42.65Z</time></trkpt><trkpt lat="42.0325476" lon="13.6420864"><ele>723.6666666666667</ele><time>2026-05-01T13:32:43.65Z</time></trkpt><trkpt lat="42.0324165" lon="13.6422141"><ele>724.0</ele><time>2026-05-01T13:32:44.647Z</time></trkpt><trkpt lat="42.0322882" lon="13.6423405"><ele>724.0</ele><time>2026-05-01T13:32:45.641Z</time></trkpt><trkpt lat="42.0321633" lon="13.6424676"><ele>724.0</ele><time>2026-05-01T13:32:46.647Z</time></trkpt><trkpt lat="42.0320411" lon="13.6426055"><ele>724.0</ele><time>2026-05-01T13:32:47.65Z</time></trkpt><trkpt lat="42.0319335" lon="13.6427535"><ele>725.3333333333334</ele><time>2026-05-01T13:32:48.65Z</time></trkpt><trkpt lat="42.0318304" lon="13.6429117"><ele>726.6666666666666</ele><time>2026-05-01T13:32:49.654Z</time></trkpt><trkpt lat="42.0317429" lon="13.6430902"><ele>728.0</ele><time>2026-05-01T13:32:50.658Z</time></trkpt><trkpt lat="42.031659" lon="13.6432799"><ele>727.0</ele><time>2026-05-01T13:32:51.646Z</time></trkpt><trkpt lat="42.0315728" lon="13.6434778"><ele>726.0</ele><time>2026-05-01T13:32:52.66Z</time></trkpt><trkpt lat="42.0314778" lon="13.6436759"><ele>725.0</ele><time>2026-05-01T13:32:53.646Z</time></trkpt><trkpt lat="42.0313756" lon="13.6438681"><ele>725.0</ele><time>2026-05-01T13:32:54.652Z</time></trkpt><trkpt lat="42.0312648" lon="13.6440494"><ele>725.0</ele><time>2026-05-01T13:32:55.648Z</time></trkpt><trkpt lat="42.0311468" lon="13.6442226"><ele>725.0</ele><time>2026-05-01T13:32:56.659Z</time></trkpt><trkpt lat="42.0310254" lon="13.6443776"><ele>726.0</ele><time>2026-05-01T13:32:57.649Z</time></trkpt><trkpt lat="42.0309117" lon="13.6445268"><ele>727.0</ele><time>2026-05-01T13:32:58.651Z</time></trkpt><trkpt lat="42.0307866" lon="13.6446667"><ele>728.0</ele><time>2026-05-01T13:32:59.651Z</time></trkpt><trkpt lat="42.0306479" lon="13.6448081"><ele>728.0</ele><time>2026-05-01T13:33:00.644Z</time></trkpt><trkpt lat="42.0304853" lon="13.6449562"><ele>728.0</ele><time>2026-05-01T13:33:01.649Z</time></trkpt><trkpt lat="42.0303008" lon="13.6451046"><ele>728.0</ele><time>2026-05-01T13:33:02.662Z</time></trkpt><trkpt lat="42.0300977" lon="13.6452265"><ele>728.3333333333333</ele><time>2026-05-01T13:33:03.649Z</time></trkpt><trkpt lat="42.0298875" lon="13.6453077"><ele>728.6666666666666</ele><time>2026-05-01T13:33:04.643Z</time></trkpt><trkpt lat="42.0296901" lon="13.6453769"><ele>729.0</ele><time>2026-05-01T13:33:05.653Z</time></trkpt><trkpt lat="42.0295153" lon="13.6454498"><ele>729.0</ele><time>2026-05-01T13:33:06.646Z</time></trkpt><trkpt lat="42.0293514" lon="13.6455183"><ele>729.0</ele><time>2026-05-01T13:33:07.652Z</time></trkpt><trkpt lat="42.029198" lon="13.6455847"><ele>729.0</ele><time>2026-05-01T13:33:08.647Z</time></trkpt><trkpt lat="42.0290561" lon="13.6456736"><ele>727.0</ele><time>2026-05-01T13:33:09.659Z</time></trkpt><trkpt lat="42.028936" lon="13.6457959"><ele>725.0</ele><time>2026-05-01T13:33:10.644Z</time></trkpt><trkpt lat="42.0288271" lon="13.6459436"><ele>723.0</ele><time>2026-05-01T13:33:11.647Z</time></trkpt><trkpt lat="42.0287293" lon="13.6461047"><ele>724.0</ele><time>2026-05-01T13:33:12.659Z</time></trkpt><trkpt lat="42.0286301" lon="13.6462699"><ele>725.0</ele><time>2026-05-01T13:33:13.65Z</time></trkpt><trkpt lat="42.0285192" lon="13.6464218"><ele>726.0</ele><time>2026-05-01T13:33:14.65Z</time></trkpt><trkpt lat="42.0284016" lon="13.6465651"><ele>726.6666666666666</ele><time>2026-05-01T13:33:15.653Z</time></trkpt><trkpt lat="42.0282806" lon="13.6467007"><ele>727.3333333333333</ele><time>2026-05-01T13:33:16.652Z</time></trkpt><trkpt lat="42.0281564" lon="13.6468381"><ele>728.0</ele><time>2026-05-01T13:33:17.652Z</time></trkpt><trkpt lat="42.0280394" lon="13.6469838"><ele>728.0</ele><time>2026-05-01T13:33:18.657Z</time></trkpt><trkpt lat="42.0279246" lon="13.6471323"><ele>728.0</ele><time>2026-05-01T13:33:19.659Z</time></trkpt><trkpt lat="42.0278188" lon="13.6472693"><ele>728.0</ele><time>2026-05-01T13:33:20.649Z</time></trkpt><trkpt lat="42.0277183" lon="13.6474024"><ele>728.0</ele><time>2026-05-01T13:33:21.648Z</time></trkpt><trkpt lat="42.0276253" lon="13.6475404"><ele>728.0</ele><time>2026-05-01T13:33:22.651Z</time></trkpt><trkpt lat="42.0275326" lon="13.6476663"><ele>728.0</ele><time>2026-05-01T13:33:23.652Z</time></trkpt><trkpt lat="42.0274497" lon="13.6477872"><ele>728.0</ele><time>2026-05-01T13:33:24.653Z</time></trkpt><trkpt lat="42.0273728" lon="13.6479027"><ele>728.0</ele><time>2026-05-01T13:33:25.662Z</time></trkpt><trkpt lat="42.027289" lon="13.6480176"><ele>727.75</ele><time>2026-05-01T13:33:26.649Z</time></trkpt><trkpt lat="42.0272077" lon="13.6481327"><ele>727.5</ele><time>2026-05-01T13:33:27.659Z</time></trkpt><trkpt lat="42.0271258" lon="13.6482508"><ele>727.25</ele><time>2026-05-01T13:33:28.643Z</time></trkpt><trkpt lat="42.0270335" lon="13.6483625"><ele>727.0</ele><time>2026-05-01T13:33:29.643Z</time></trkpt><trkpt lat="42.026935" lon="13.6484656"><ele>727.0</ele><time>2026-05-01T13:33:30.652Z</time></trkpt><trkpt lat="42.0268327" lon="13.6485757"><ele>727.0</ele><time>2026-05-01T13:33:31.648Z</time></trkpt><trkpt lat="42.0267299" lon="13.6486847"><ele>727.0</ele><time>2026-05-01T13:33:32.656Z</time></trkpt><trkpt lat="42.0266239" lon="13.6487968"><ele>727.0</ele><time>2026-05-01T13:33:33.646Z</time></trkpt><trkpt lat="42.0265189" lon="13.6489149"><ele>726.25</ele><time>2026-05-01T13:33:34.642Z</time></trkpt><trkpt lat="42.0264168" lon="13.6490361"><ele>725.5</ele><time>2026-05-01T13:33:35.658Z</time></trkpt><trkpt lat="42.0263215" lon="13.6491737"><ele>724.75</ele><time>2026-05-01T13:33:36.647Z</time></trkpt><trkpt lat="42.0262289" lon="13.6493196"><ele>724.0</ele><time>2026-05-01T13:33:37.652Z</time></trkpt><trkpt lat="42.0261394" lon="13.6494702"><ele>723.75</ele><time>2026-05-01T13:33:38.653Z</time></trkpt><trkpt lat="42.0260476" lon="13.6496169"><ele>723.5</ele><time>2026-05-01T13:33:39.651Z</time></trkpt><trkpt lat="42.0259532" lon="13.6497659"><ele>723.25</ele><time>2026-05-01T13:33:40.66Z</time></trkpt><trkpt lat="42.0258545" lon="13.6499164"><ele>723.0</ele><time>2026-05-01T13:33:41.649Z</time></trkpt><trkpt lat="42.025766" lon="13.6500633"><ele>723.0</ele><time>2026-05-01T13:33:42.653Z</time></trkpt><trkpt lat="42.0256848" lon="13.6502058"><ele>723.0</ele><time>2026-05-01T13:33:43.645Z</time></trkpt><trkpt lat="42.02561" lon="13.6503453"><ele>723.0</ele><time>2026-05-01T13:33:44.653Z</time></trkpt><trkpt lat="42.0255333" lon="13.6504752"><ele>723.0</ele><time>2026-05-01T13:33:45.644Z</time></trkpt><trkpt lat="42.0254538" lon="13.6506057"><ele>724.75</ele><time>2026-05-01T13:33:46.648Z</time></trkpt><trkpt lat="42.0253665" lon="13.6507331"><ele>726.5</ele><time>2026-05-01T13:33:47.645Z</time></trkpt><trkpt lat="42.0252787" lon="13.650861"><ele>728.25</ele><time>2026-05-01T13:33:48.642Z</time></trkpt><trkpt lat="42.0251884" lon="13.6509879"><ele>730.0</ele><time>2026-05-01T13:33:49.649Z</time></trkpt><trkpt lat="42.0250899" lon="13.6511159"><ele>729.75</ele><time>2026-05-01T13:33:50.653Z</time></trkpt><trkpt lat="42.0249912" lon="13.6512367"><ele>729.5</ele><time>2026-05-01T13:33:51.66Z</time></trkpt><trkpt lat="42.0248901" lon="13.6513447"><ele>729.25</ele><time>2026-05-01T13:33:52.644Z</time></trkpt><trkpt lat="42.0247884" lon="13.6514546"><ele>729.0</ele><time>2026-05-01T13:33:53.651Z</time></trkpt><trkpt lat="42.0246942" lon="13.6515681"><ele>729.0</ele><time>2026-05-01T13:33:54.647Z</time></trkpt><trkpt lat="42.0246028" lon="13.6516795"><ele>729.0</ele><time>2026-05-01T13:33:55.646Z</time></trkpt><trkpt lat="42.0245203" lon="13.6518012"><ele>729.0</ele><time>2026-05-01T13:33:56.653Z</time></trkpt><trkpt lat="42.0244478" lon="13.6519291"><ele>729.0</ele><time>2026-05-01T13:33:57.651Z</time></trkpt><trkpt lat="42.0243803" lon="13.6520557"><ele>730.4000000000001</ele><time>2026-05-01T13:33:58.648Z</time></trkpt><trkpt lat="42.0243141" lon="13.6521848"><ele>731.8</ele><time>2026-05-01T13:33:59.643Z</time></trkpt><trkpt lat="42.0242585" lon="13.6523082"><ele>733.2</ele><time>2026-05-01T13:34:00.656Z</time></trkpt><trkpt lat="42.0242196" lon="13.6524357"><ele>734.5999999999999</ele><time>2026-05-01T13:34:01.65Z</time></trkpt><trkpt lat="42.0241967" lon="13.6525646"><ele>736.0</ele><time>2026-05-01T13:34:02.65Z</time></trkpt><trkpt lat="42.0241995" lon="13.6527044"><ele>735.5</ele><time>2026-05-01T13:34:03.643Z</time></trkpt><trkpt lat="42.0242209" lon="13.6528546"><ele>735.0</ele><time>2026-05-01T13:34:04.63Z</time></trkpt><trkpt lat="42.0242464" lon="13.6530117"><ele>734.5</ele><time>2026-05-01T13:34:05.641Z</time></trkpt><trkpt lat="42.0242743" lon="13.6531776"><ele>734.0</ele><time>2026-05-01T13:34:06.643Z</time></trkpt><trkpt lat="42.024303" lon="13.6533473"><ele>734.0</ele><time>2026-05-01T13:34:07.632Z</time></trkpt><trkpt lat="42.0243317" lon="13.6535105"><ele>734.0</ele><time>2026-05-01T13:34:08.668Z</time></trkpt><trkpt lat="42.0243709" lon="13.6536759"><ele>734.0</ele><time>2026-05-01T13:34:09.642Z</time></trkpt><trkpt lat="42.0244095" lon="13.653844"><ele>734.0</ele><time>2026-05-01T13:34:10.648Z</time></trkpt><trkpt lat="42.0244584" lon="13.6540101"><ele>733.0</ele><time>2026-05-01T13:34:11.638Z</time></trkpt><trkpt lat="42.0245016" lon="13.6541781"><ele>732.0</ele><time>2026-05-01T13:34:12.645Z</time></trkpt><trkpt lat="42.0245405" lon="13.6543449"><ele>731.0</ele><time>2026-05-01T13:34:13.653Z</time></trkpt><trkpt lat="42.0245667" lon="13.6545103"><ele>730.0</ele><time>2026-05-01T13:34:14.646Z</time></trkpt><trkpt lat="42.0245957" lon="13.6546775"><ele>729.0</ele><time>2026-05-01T13:34:15.669Z</time></trkpt><trkpt lat="42.0246202" lon="13.6548345"><ele>728.0</ele><time>2026-05-01T13:34:16.648Z</time></trkpt><trkpt lat="42.0246513" lon="13.6549754"><ele>727.0</ele><time>2026-05-01T13:34:17.642Z</time></trkpt><trkpt lat="42.0247006" lon="13.655117"><ele>726.0</ele><time>2026-05-01T13:34:18.634Z</time></trkpt><trkpt lat="42.0247661" lon="13.6552584"><ele>725.25</ele><time>2026-05-01T13:34:19.64Z</time></trkpt><trkpt lat="42.0248428" lon="13.6553928"><ele>724.5</ele><time>2026-05-01T13:34:20.636Z</time></trkpt><trkpt lat="42.0249157" lon="13.6555309"><ele>723.75</ele><time>2026-05-01T13:34:21.641Z</time></trkpt><trkpt lat="42.024984" lon="13.6556747"><ele>723.0</ele><time>2026-05-01T13:34:22.644Z</time></trkpt><trkpt lat="42.0250449" lon="13.6558168"><ele>724.5</ele><time>2026-05-01T13:34:23.64Z</time></trkpt><trkpt lat="42.0251163" lon="13.6559565"><ele>726.0</ele><time>2026-05-01T13:34:24.643Z</time></trkpt><trkpt lat="42.0251875" lon="13.6560969"><ele>727.5</ele><time>2026-05-01T13:34:25.651Z</time></trkpt><trkpt lat="42.0252478" lon="13.6562386"><ele>729.0</ele><time>2026-05-01T13:34:26.647Z</time></trkpt><trkpt lat="42.025293" lon="13.6563928"><ele>729.0</ele><time>2026-05-01T13:34:27.638Z</time></trkpt><trkpt lat="42.0253279" lon="13.6565519"><ele>729.0</ele><time>2026-05-01T13:34:28.638Z</time></trkpt><trkpt lat="42.0253556" lon="13.6566934"><ele>729.0</ele><time>2026-05-01T13:34:29.653Z</time></trkpt><trkpt lat="42.0253895" lon="13.6568161"><ele>729.0</ele><time>2026-05-01T13:34:30.642Z</time></trkpt><trkpt lat="42.0254243" lon="13.6569332"><ele>729.0</ele><time>2026-05-01T13:34:31.639Z</time></trkpt><trkpt lat="42.0254736" lon="13.6570476"><ele>729.8000000000001</ele><time>2026-05-01T13:34:32.641Z</time></trkpt><trkpt lat="42.0255462" lon="13.6571542"><ele>730.6</ele><time>2026-05-01T13:34:33.648Z</time></trkpt><trkpt lat="42.0256264" lon="13.657246"><ele>731.4</ele><time>2026-05-01T13:34:34.65Z</time></trkpt><trkpt lat="42.025714" lon="13.657332"><ele>732.2</ele><time>2026-05-01T13:34:35.649Z</time></trkpt><trkpt lat="42.0258088" lon="13.6574197"><ele>733.0</ele><time>2026-05-01T13:34:36.645Z</time></trkpt><trkpt lat="42.0259024" lon="13.6575318"><ele>733.0</ele><time>2026-05-01T13:34:37.649Z</time></trkpt><trkpt lat="42.0259849" lon="13.6576487"><ele>733.0</ele><time>2026-05-01T13:34:38.633Z</time></trkpt><trkpt lat="42.026057" lon="13.6577645"><ele>733.0</ele><time>2026-05-01T13:34:39.648Z</time></trkpt><trkpt lat="42.0261306" lon="13.657874"><ele>733.0</ele><time>2026-05-01T13:34:40.648Z</time></trkpt><trkpt lat="42.0261969" lon="13.6579763"><ele>733.0</ele><time>2026-05-01T13:34:41.642Z</time></trkpt><trkpt lat="42.0262543" lon="13.6580794"><ele>732.0</ele><time>2026-05-01T13:34:42.639Z</time></trkpt><trkpt lat="42.0262971" lon="13.6581899"><ele>731.0</ele><time>2026-05-01T13:34:43.663Z</time></trkpt><trkpt lat="42.0263265" lon="13.6582927"><ele>730.0</ele><time>2026-05-01T13:34:44.64Z</time></trkpt><trkpt lat="42.0263508" lon="13.6584115"><ele>729.0</ele><time>2026-05-01T13:34:45.646Z</time></trkpt><trkpt lat="42.0263515" lon="13.6585283"><ele>728.0</ele><time>2026-05-01T13:34:46.643Z</time></trkpt><trkpt lat="42.0263394" lon="13.6586436"><ele>727.0</ele><time>2026-05-01T13:34:47.648Z</time></trkpt><trkpt lat="42.0263178" lon="13.658752"><ele>726.5</ele><time>2026-05-01T13:34:48.644Z</time></trkpt><trkpt lat="42.0262897" lon="13.6588566"><ele>726.0</ele><time>2026-05-01T13:34:49.637Z</time></trkpt><trkpt lat="42.0262649" lon="13.6589566"><ele>725.5</ele><time>2026-05-01T13:34:50.646Z</time></trkpt><trkpt lat="42.0262449" lon="13.6590592"><ele>725.0</ele><time>2026-05-01T13:34:51.638Z</time></trkpt><trkpt lat="42.0262328" lon="13.6591668"><ele>724.5</ele><time>2026-05-01T13:34:52.633Z</time></trkpt><trkpt lat="42.0262361" lon="13.6592746"><ele>724.0</ele><time>2026-05-01T13:34:53.651Z</time></trkpt><trkpt lat="42.0262521" lon="13.659375"><ele>724.8000000000001</ele><time>2026-05-01T13:34:54.654Z</time></trkpt><trkpt lat="42.0262669" lon="13.6594657"><ele>725.6</ele><time>2026-05-01T13:34:55.647Z</time></trkpt><trkpt lat="42.0262731" lon="13.6596164"><ele>726.4</ele><time>2026-05-01T13:34:57.639Z</time></trkpt><trkpt lat="42.0262626" lon="13.6597572"><ele>727.2</ele><time>2026-05-01T13:34:59.65Z</time></trkpt><trkpt lat="42.0262061" lon="13.6598977"><ele>728.0</ele><time>2026-05-01T13:35:01.656Z</time></trkpt><trkpt lat="42.0261619" lon="13.6599607"><ele>728.0</ele><time>2026-05-01T13:35:02.646Z</time></trkpt><trkpt lat="42.0261067" lon="13.6600153"><ele>728.0</ele><time>2026-05-01T13:35:03.657Z</time></trkpt><trkpt lat="42.0260399" lon="13.6600465"><ele>728.0</ele><time>2026-05-01T13:35:04.648Z</time></trkpt><trkpt lat="42.0259718" lon="13.6600562"><ele>728.0</ele><time>2026-05-01T13:35:05.641Z</time></trkpt><trkpt lat="42.025902" lon="13.6600522"><ele>728.0</ele><time>2026-05-01T13:35:06.66Z</time></trkpt><trkpt lat="42.0257918" lon="13.6600179"><ele>728.0</ele><time>2026-05-01T13:35:08.651Z</time></trkpt><trkpt lat="42.025728" lon="13.6599837"><ele>728.6666666666666</ele><time>2026-05-01T13:35:13.638Z</time></trkpt><trkpt lat="42.0256473" lon="13.6599464"><ele>729.3333333333333</ele><time>2026-05-01T13:35:15.644Z</time></trkpt><trkpt lat="42.0255834" lon="13.6599112"><ele>730.0</ele><time>2026-05-01T13:35:16.648Z</time></trkpt><trkpt lat="42.0255134" lon="13.659865"><ele>730.6666666666666</ele><time>2026-05-01T13:35:17.645Z</time></trkpt><trkpt lat="42.0254366" lon="13.659814"><ele>731.3333333333334</ele><time>2026-05-01T13:35:18.638Z</time></trkpt><trkpt lat="42.0253535" lon="13.6597574"><ele>732.0</ele><time>2026-05-01T13:35:19.639Z</time></trkpt><trkpt lat="42.0252671" lon="13.6596977"><ele>732.0</ele><time>2026-05-01T13:35:20.648Z</time></trkpt><trkpt lat="42.0251807" lon="13.6596366"><ele>732.0</ele><time>2026-05-01T13:35:21.637Z</time></trkpt><trkpt lat="42.0250938" lon="13.6595702"><ele>732.0</ele><time>2026-05-01T13:35:22.641Z</time></trkpt><trkpt lat="42.0250161" lon="13.6595002"><ele>732.0</ele><time>2026-05-01T13:35:23.644Z</time></trkpt><trkpt lat="42.0249421" lon="13.6594294"><ele>732.0</ele><time>2026-05-01T13:35:24.638Z</time></trkpt><trkpt lat="42.0248658" lon="13.659359"><ele>732.0</ele><time>2026-05-01T13:35:25.631Z</time></trkpt><trkpt lat="42.024788" lon="13.6592968"><ele>732.0</ele><time>2026-05-01T13:35:26.637Z</time></trkpt><trkpt lat="42.0247199" lon="13.6592249"><ele>732.0</ele><time>2026-05-01T13:35:27.642Z</time></trkpt><trkpt lat="42.0246468" lon="13.6591371"><ele>732.0</ele><time>2026-05-01T13:35:28.647Z</time></trkpt><trkpt lat="42.0245829" lon="13.6590425"><ele>732.0</ele><time>2026-05-01T13:35:29.634Z</time></trkpt><trkpt lat="42.0245278" lon="13.6589434"><ele>732.0</ele><time>2026-05-01T13:35:30.646Z</time></trkpt><trkpt lat="42.0244676" lon="13.6588578"><ele>732.0</ele><time>2026-05-01T13:35:31.645Z</time></trkpt><trkpt lat="42.0244076" lon="13.6587664"><ele>732.0</ele><time>2026-05-01T13:35:32.642Z</time></trkpt><trkpt lat="42.0243452" lon="13.6586901"><ele>732.0</ele><time>2026-05-01T13:35:33.646Z</time></trkpt><trkpt lat="42.0242889" lon="13.6586143"><ele>732.0</ele><time>2026-05-01T13:35:34.647Z</time></trkpt><trkpt lat="42.0242302" lon="13.6585416"><ele>732.0</ele><time>2026-05-01T13:35:35.641Z</time></trkpt><trkpt lat="42.0241687" lon="13.6584725"><ele>732.6</ele><time>2026-05-01T13:35:36.649Z</time></trkpt><trkpt lat="42.0241117" lon="13.6583907"><ele>733.2</ele><time>2026-05-01T13:35:37.654Z</time></trkpt><trkpt lat="42.024047" lon="13.658307"><ele>733.8</ele><time>2026-05-01T13:35:38.648Z</time></trkpt><trkpt lat="42.0239777" lon="13.6582064"><ele>734.4</ele><time>2026-05-01T13:35:39.664Z</time></trkpt><trkpt lat="42.0238971" lon="13.6580918"><ele>735.0</ele><time>2026-05-01T13:35:40.649Z</time></trkpt><trkpt lat="42.0238163" lon="13.6579586"><ele>735.0</ele><time>2026-05-01T13:35:41.647Z</time></trkpt><trkpt lat="42.0237349" lon="13.6578055"><ele>735.0</ele><time>2026-05-01T13:35:42.646Z</time></trkpt><trkpt lat="42.0236526" lon="13.6576583"><ele>735.0</ele><time>2026-05-01T13:35:43.644Z</time></trkpt><trkpt lat="42.0235683" lon="13.6575075"><ele>735.0</ele><time>2026-05-01T13:35:44.646Z</time></trkpt><trkpt lat="42.023484" lon="13.6573676"><ele>735.75</ele><time>2026-05-01T13:35:45.65Z</time></trkpt><trkpt lat="42.0234009" lon="13.6572361"><ele>736.5</ele><time>2026-05-01T13:35:46.636Z</time></trkpt><trkpt lat="42.0233093" lon="13.6570937"><ele>737.25</ele><time>2026-05-01T13:35:47.654Z</time></trkpt><trkpt lat="42.0232139" lon="13.656919"><ele>738.0</ele><time>2026-05-01T13:35:48.648Z</time></trkpt><trkpt lat="42.023121" lon="13.656732"><ele>736.5</ele><time>2026-05-01T13:35:49.651Z</time></trkpt><trkpt lat="42.0230393" lon="13.6565488"><ele>735.0</ele><time>2026-05-01T13:35:50.654Z</time></trkpt><trkpt lat="42.0229829" lon="13.6563743"><ele>733.5</ele><time>2026-05-01T13:35:51.662Z</time></trkpt><trkpt lat="42.0229235" lon="13.6562174"><ele>732.0</ele><time>2026-05-01T13:35:52.648Z</time></trkpt><trkpt lat="42.0228615" lon="13.6560645"><ele>730.5</ele><time>2026-05-01T13:35:53.644Z</time></trkpt><trkpt lat="42.0228007" lon="13.6559086"><ele>729.0</ele><time>2026-05-01T13:35:54.642Z</time></trkpt><trkpt lat="42.0227272" lon="13.6557629"><ele>727.5</ele><time>2026-05-01T13:35:55.656Z</time></trkpt><trkpt lat="42.0226404" lon="13.6556392"><ele>726.0</ele><time>2026-05-01T13:35:56.647Z</time></trkpt><trkpt lat="42.0225465" lon="13.6555138"><ele>725.5</ele><time>2026-05-01T13:35:57.639Z</time></trkpt><trkpt lat="42.0224429" lon="13.6553965"><ele>725.0</ele><time>2026-05-01T13:35:58.637Z</time></trkpt><trkpt lat="42.0223274" lon="13.6552865"><ele>724.5</ele><time>2026-05-01T13:35:59.643Z</time></trkpt><trkpt lat="42.0222098" lon="13.6551885"><ele>724.0</ele><time>2026-05-01T13:36:00.655Z</time></trkpt><trkpt lat="42.0220885" lon="13.6550873"><ele>724.0</ele><time>2026-05-01T13:36:01.647Z</time></trkpt><trkpt lat="42.0219733" lon="13.6549829"><ele>724.0</ele><time>2026-05-01T13:36:02.64Z</time></trkpt><trkpt lat="42.0218575" lon="13.6548818"><ele>724.0</ele><time>2026-05-01T13:36:03.651Z</time></trkpt><trkpt lat="42.0217408" lon="13.6547843"><ele>724.0</ele><time>2026-05-01T13:36:04.645Z</time></trkpt><trkpt lat="42.02163" lon="13.654685"><ele>724.0</ele><time>2026-05-01T13:36:05.663Z</time></trkpt><trkpt lat="42.0215178" lon="13.6545925"><ele>724.0</ele><time>2026-05-01T13:36:06.65Z</time></trkpt><trkpt lat="42.0214027" lon="13.6545001"><ele>724.0</ele><time>2026-05-01T13:36:07.648Z</time></trkpt><trkpt lat="42.0212868" lon="13.654403"><ele>724.0</ele><time>2026-05-01T13:36:08.647Z</time></trkpt><trkpt lat="42.0211726" lon="13.6543059"><ele>722.5</ele><time>2026-05-01T13:36:09.642Z</time></trkpt><trkpt lat="42.0210474" lon="13.6542275"><ele>721.0</ele><time>2026-05-01T13:36:10.647Z</time></trkpt><trkpt lat="42.0209148" lon="13.6541669"><ele>719.5</ele><time>2026-05-01T13:36:11.651Z</time></trkpt><trkpt lat="42.020771" lon="13.6541309"><ele>718.0</ele><time>2026-05-01T13:36:12.651Z</time></trkpt><trkpt lat="42.0206211" lon="13.6541255"><ele>716.3333333333334</ele><time>2026-05-01T13:36:13.642Z</time></trkpt><trkpt lat="42.0204671" lon="13.6541405"><ele>714.6666666666666</ele><time>2026-05-01T13:36:14.658Z</time></trkpt><trkpt lat="42.0203125" lon="13.6541711"><ele>713.0</ele><time>2026-05-01T13:36:15.649Z</time></trkpt><trkpt lat="42.0201574" lon="13.6542009"><ele>713.0</ele><time>2026-05-01T13:36:16.643Z</time></trkpt><trkpt lat="42.0200078" lon="13.6542079"><ele>713.0</ele><time>2026-05-01T13:36:17.643Z</time></trkpt><trkpt lat="42.0198603" lon="13.6542032"><ele>713.0</ele><time>2026-05-01T13:36:18.655Z</time></trkpt><trkpt lat="42.019716" lon="13.6541646"><ele>713.0</ele><time>2026-05-01T13:36:19.645Z</time></trkpt><trkpt lat="42.0195696" lon="13.6541297"><ele>712.75</ele><time>2026-05-01T13:36:20.645Z</time></trkpt><trkpt lat="42.0194204" lon="13.6540857"><ele>712.5</ele><time>2026-05-01T13:36:21.656Z</time></trkpt><trkpt lat="42.0192772" lon="13.6540301"><ele>712.25</ele><time>2026-05-01T13:36:22.65Z</time></trkpt><trkpt lat="42.019141" lon="13.6539645"><ele>712.0</ele><time>2026-05-01T13:36:23.65Z</time></trkpt><trkpt lat="42.0190112" lon="13.6538848"><ele>711.3333333333334</ele><time>2026-05-01T13:36:24.647Z</time></trkpt><trkpt lat="42.0188758" lon="13.6537982"><ele>710.6666666666666</ele><time>2026-05-01T13:36:25.658Z</time></trkpt><trkpt lat="42.0187347" lon="13.6537049"><ele>710.0</ele><time>2026-05-01T13:36:26.646Z</time></trkpt><trkpt lat="42.0185939" lon="13.6536132"><ele>708.6666666666666</ele><time>2026-05-01T13:36:27.645Z</time></trkpt><trkpt lat="42.0184523" lon="13.653518"><ele>707.3333333333334</ele><time>2026-05-01T13:36:28.639Z</time></trkpt><trkpt lat="42.0183104" lon="13.6534231"><ele>706.0</ele><time>2026-05-01T13:36:29.645Z</time></trkpt><trkpt lat="42.01817" lon="13.6533278"><ele>706.0</ele><time>2026-05-01T13:36:30.659Z</time></trkpt><trkpt lat="42.0180332" lon="13.6532287"><ele>706.0</ele><time>2026-05-01T13:36:31.66Z</time></trkpt><trkpt lat="42.0179009" lon="13.6531342"><ele>706.0</ele><time>2026-05-01T13:36:32.665Z</time></trkpt><trkpt lat="42.0177719" lon="13.6530487"><ele>706.0</ele><time>2026-05-01T13:36:33.658Z</time></trkpt><trkpt lat="42.0176378" lon="13.6529658"><ele>706.0</ele><time>2026-05-01T13:36:34.65Z</time></trkpt><trkpt lat="42.0175043" lon="13.6529048"><ele>706.0</ele><time>2026-05-01T13:36:35.654Z</time></trkpt><trkpt lat="42.0173594" lon="13.6528644"><ele>706.0</ele><time>2026-05-01T13:36:36.658Z</time></trkpt><trkpt lat="42.0172081" lon="13.6528281"><ele>706.0</ele><time>2026-05-01T13:36:37.658Z</time></trkpt><trkpt lat="42.0170532" lon="13.6528005"><ele>705.6666666666667</ele><time>2026-05-01T13:36:38.643Z</time></trkpt><trkpt lat="42.0168943" lon="13.6527652"><ele>705.3333333333334</ele><time>2026-05-01T13:36:39.649Z</time></trkpt><trkpt lat="42.0167375" lon="13.6527229"><ele>705.0</ele><time>2026-05-01T13:36:40.65Z</time></trkpt><trkpt lat="42.01658" lon="13.6526689"><ele>705.0</ele><time>2026-05-01T13:36:41.646Z</time></trkpt><trkpt lat="42.0164219" lon="13.6526104"><ele>705.0</ele><time>2026-05-01T13:36:42.664Z</time></trkpt><trkpt lat="42.0162619" lon="13.652547"><ele>705.0</ele><time>2026-05-01T13:36:43.652Z</time></trkpt><trkpt lat="42.0160989" lon="13.6524826"><ele>705.0</ele><time>2026-05-01T13:36:44.649Z</time></trkpt><trkpt lat="42.0159375" lon="13.652414"><ele>705.0</ele><time>2026-05-01T13:36:45.656Z</time></trkpt><trkpt lat="42.0157755" lon="13.6523425"><ele>705.0</ele><time>2026-05-01T13:36:46.653Z</time></trkpt><trkpt lat="42.0156172" lon="13.6522694"><ele>705.0</ele><time>2026-05-01T13:36:47.647Z</time></trkpt><trkpt lat="42.0154569" lon="13.6521987"><ele>705.0</ele><time>2026-05-01T13:36:48.646Z</time></trkpt><trkpt lat="42.0153013" lon="13.6521195"><ele>705.0</ele><time>2026-05-01T13:36:49.649Z</time></trkpt><trkpt lat="42.015141" lon="13.652039"><ele>704.0</ele><time>2026-05-01T13:36:50.648Z</time></trkpt><trkpt lat="42.0149842" lon="13.6519529"><ele>703.0</ele><time>2026-05-01T13:36:51.654Z</time></trkpt><trkpt lat="42.0148268" lon="13.6518738"><ele>702.0</ele><time>2026-05-01T13:36:52.647Z</time></trkpt><trkpt lat="42.0146701" lon="13.6517926"><ele>702.0</ele><time>2026-05-01T13:36:53.65Z</time></trkpt><trkpt lat="42.0145081" lon="13.6517044"><ele>702.0</ele><time>2026-05-01T13:36:54.65Z</time></trkpt><trkpt lat="42.0143438" lon="13.6516201"><ele>702.0</ele><time>2026-05-01T13:36:55.647Z</time></trkpt><trkpt lat="42.0141724" lon="13.6515365"><ele>702.3333333333334</ele><time>2026-05-01T13:36:56.652Z</time></trkpt><trkpt lat="42.0140021" lon="13.6514581"><ele>702.6666666666667</ele><time>2026-05-01T13:36:57.645Z</time></trkpt><trkpt lat="42.0138283" lon="13.6513755"><ele>703.0</ele><time>2026-05-01T13:36:58.662Z</time></trkpt><trkpt lat="42.0136224" lon="13.6513029"><ele>703.0</ele><time>2026-05-01T13:36:59.641Z</time></trkpt><trkpt lat="42.0133968" lon="13.6512256"><ele>703.0</ele><time>2026-05-01T13:37:00.651Z</time></trkpt><trkpt lat="42.0131701" lon="13.6511335"><ele>703.0</ele><time>2026-05-01T13:37:01.655Z</time></trkpt><trkpt lat="42.0129552" lon="13.651075"><ele>703.0</ele><time>2026-05-01T13:37:02.651Z</time></trkpt><trkpt lat="42.0127375" lon="13.6510216"><ele>703.0</ele><time>2026-05-01T13:37:03.655Z</time></trkpt><trkpt lat="42.012525" lon="13.6510003"><ele>702.6666666666667</ele><time>2026-05-01T13:37:04.648Z</time></trkpt><trkpt lat="42.0123149" lon="13.6509934"><ele>702.3333333333334</ele><time>2026-05-01T13:37:05.665Z</time></trkpt><trkpt lat="42.0120985" lon="13.6509688"><ele>702.0</ele><time>2026-05-01T13:37:06.648Z</time></trkpt><trkpt lat="42.0118713" lon="13.6509185"><ele>702.5</ele><time>2026-05-01T13:37:07.654Z</time></trkpt><trkpt lat="42.0116369" lon="13.6508593"><ele>703.0</ele><time>2026-05-01T13:37:08.65Z</time></trkpt><trkpt lat="42.0113994" lon="13.6508088"><ele>703.0</ele><time>2026-05-01T13:37:09.655Z</time></trkpt><trkpt lat="42.0111728" lon="13.6507638"><ele>703.0</ele><time>2026-05-01T13:37:10.65Z</time></trkpt><trkpt lat="42.0109542" lon="13.6507249"><ele>702.3333333333334</ele><time>2026-05-01T13:37:11.648Z</time></trkpt><trkpt lat="42.0107331" lon="13.6506964"><ele>701.6666666666666</ele><time>2026-05-01T13:37:12.651Z</time></trkpt><trkpt lat="42.0105273" lon="13.6506751"><ele>701.0</ele><time>2026-05-01T13:37:13.654Z</time></trkpt><trkpt lat="42.0103266" lon="13.6506594"><ele>701.0</ele><time>2026-05-01T13:37:14.652Z</time></trkpt><trkpt lat="42.0101266" lon="13.6506409"><ele>701.0</ele><time>2026-05-01T13:37:15.653Z</time></trkpt><trkpt lat="42.0099327" lon="13.6506044"><ele>701.0</ele><time>2026-05-01T13:37:16.649Z</time></trkpt><trkpt lat="42.0097372" lon="13.6505374"><ele>701.3333333333333</ele><time>2026-05-01T13:37:17.665Z</time></trkpt><trkpt lat="42.0095462" lon="13.6504355"><ele>701.6666666666666</ele><time>2026-05-01T13:37:18.652Z</time></trkpt><trkpt lat="42.0093533" lon="13.6503165"><ele>702.0</ele><time>2026-05-01T13:37:19.657Z</time></trkpt><trkpt lat="42.0091596" lon="13.6502021"><ele>702.6666666666666</ele><time>2026-05-01T13:37:20.642Z</time></trkpt><trkpt lat="42.0089699" lon="13.650087"><ele>703.3333333333333</ele><time>2026-05-01T13:37:21.646Z</time></trkpt><trkpt lat="42.0087887" lon="13.6499734"><ele>704.0</ele><time>2026-05-01T13:37:22.64Z</time></trkpt><trkpt lat="42.0086179" lon="13.6498707"><ele>704.0</ele><time>2026-05-01T13:37:23.655Z</time></trkpt><trkpt lat="42.0084456" lon="13.6497748"><ele>704.0</ele><time>2026-05-01T13:37:24.65Z</time></trkpt><trkpt lat="42.0082819" lon="13.6496795"><ele>704.0</ele><time>2026-05-01T13:37:25.658Z</time></trkpt><trkpt lat="42.0081159" lon="13.649584"><ele>704.3333333333333</ele><time>2026-05-01T13:37:26.641Z</time></trkpt><trkpt lat="42.0079523" lon="13.6494722"><ele>704.6666666666666</ele><time>2026-05-01T13:37:27.645Z</time></trkpt><trkpt lat="42.0077941" lon="13.6493522"><ele>705.0</ele><time>2026-05-01T13:37:28.645Z</time></trkpt><trkpt lat="42.0076318" lon="13.6492329"><ele>704.6666666666666</ele><time>2026-05-01T13:37:29.649Z</time></trkpt><trkpt lat="42.0074654" lon="13.6491081"><ele>704.3333333333333</ele><time>2026-05-01T13:37:30.648Z</time></trkpt><trkpt lat="42.0072911" lon="13.6489673"><ele>704.0</ele><time>2026-05-01T13:37:31.652Z</time></trkpt><trkpt lat="42.0071123" lon="13.6488112"><ele>704.0</ele><time>2026-05-01T13:37:32.646Z</time></trkpt><trkpt lat="42.006932" lon="13.6486415"><ele>704.0</ele><time>2026-05-01T13:37:33.65Z</time></trkpt><trkpt lat="42.0067496" lon="13.6484663"><ele>704.0</ele><time>2026-05-01T13:37:34.647Z</time></trkpt><trkpt lat="42.0065625" lon="13.6483031"><ele>704.6666666666666</ele><time>2026-05-01T13:37:35.65Z</time></trkpt><trkpt lat="42.0063703" lon="13.6481464"><ele>705.3333333333334</ele><time>2026-05-01T13:37:36.663Z</time></trkpt><trkpt lat="42.0061836" lon="13.6479939"><ele>706.0</ele><time>2026-05-01T13:37:37.634Z</time></trkpt><trkpt lat="42.0059989" lon="13.6478474"><ele>705.6666666666667</ele><time>2026-05-01T13:37:38.651Z</time></trkpt><trkpt lat="42.0058213" lon="13.6477024"><ele>705.3333333333334</ele><time>2026-05-01T13:37:39.649Z</time></trkpt><trkpt lat="42.0056449" lon="13.6475588"><ele>705.0</ele><time>2026-05-01T13:37:40.656Z</time></trkpt><trkpt lat="42.0054716" lon="13.6474106"><ele>705.0</ele><time>2026-05-01T13:37:41.649Z</time></trkpt><trkpt lat="42.0052974" lon="13.6472693"><ele>705.0</ele><time>2026-05-01T13:37:42.648Z</time></trkpt><trkpt lat="42.0051222" lon="13.6471268"><ele>705.0</ele><time>2026-05-01T13:37:43.648Z</time></trkpt><trkpt lat="42.0049499" lon="13.6469839"><ele>704.6666666666666</ele><time>2026-05-01T13:37:44.646Z</time></trkpt><trkpt lat="42.0047772" lon="13.6468408"><ele>704.3333333333333</ele><time>2026-05-01T13:37:45.652Z</time></trkpt><trkpt lat="42.0046097" lon="13.6466939"><ele>704.0</ele><time>2026-05-01T13:37:46.648Z</time></trkpt><trkpt lat="42.0044423" lon="13.6465429"><ele>704.0</ele><time>2026-05-01T13:37:47.645Z</time></trkpt><trkpt lat="42.0042772" lon="13.6464"><ele>704.0</ele><time>2026-05-01T13:37:48.64Z</time></trkpt><trkpt lat="42.0041118" lon="13.6462674"><ele>704.0</ele><time>2026-05-01T13:37:49.647Z</time></trkpt><trkpt lat="42.003942" lon="13.6461499"><ele>702.6666666666666</ele><time>2026-05-01T13:37:50.647Z</time></trkpt><trkpt lat="42.0037681" lon="13.6460456"><ele>701.3333333333334</ele><time>2026-05-01T13:37:51.648Z</time></trkpt><trkpt lat="42.0035956" lon="13.6459512"><ele>700.0</ele><time>2026-05-01T13:37:52.648Z</time></trkpt><trkpt lat="42.0034168" lon="13.6458685"><ele>700.0</ele><time>2026-05-01T13:37:53.646Z</time></trkpt><trkpt lat="42.0032403" lon="13.6457924"><ele>700.0</ele><time>2026-05-01T13:37:54.651Z</time></trkpt><trkpt lat="42.0030633" lon="13.6457298"><ele>700.0</ele><time>2026-05-01T13:37:55.644Z</time></trkpt><trkpt lat="42.0028834" lon="13.6456722"><ele>700.0</ele><time>2026-05-01T13:37:56.647Z</time></trkpt><trkpt lat="42.0026991" lon="13.6456151"><ele>700.0</ele><time>2026-05-01T13:37:57.641Z</time></trkpt><trkpt lat="42.0025091" lon="13.6455603"><ele>700.0</ele><time>2026-05-01T13:37:58.649Z</time></trkpt><trkpt lat="42.0023171" lon="13.6455076"><ele>699.6666666666667</ele><time>2026-05-01T13:37:59.645Z</time></trkpt><trkpt lat="42.0021232" lon="13.6454579"><ele>699.3333333333334</ele><time>2026-05-01T13:38:00.643Z</time></trkpt><trkpt lat="42.0019315" lon="13.6454069"><ele>699.0</ele><time>2026-05-01T13:38:01.659Z</time></trkpt><trkpt lat="42.0017491" lon="13.6453534"><ele>698.6666666666666</ele><time>2026-05-01T13:38:02.64Z</time></trkpt><trkpt lat="42.0015722" lon="13.6452925"><ele>698.3333333333333</ele><time>2026-05-01T13:38:03.647Z</time></trkpt><trkpt lat="42.0013952" lon="13.6452274"><ele>698.0</ele><time>2026-05-01T13:38:04.649Z</time></trkpt><trkpt lat="42.0012237" lon="13.6451485"><ele>698.0</ele><time>2026-05-01T13:38:05.644Z</time></trkpt><trkpt lat="42.0010489" lon="13.6450586"><ele>698.0</ele><time>2026-05-01T13:38:06.647Z</time></trkpt><trkpt lat="42.0008778" lon="13.6449722"><ele>698.0</ele><time>2026-05-01T13:38:07.641Z</time></trkpt><trkpt lat="42.000706" lon="13.6448863"><ele>698.0</ele><time>2026-05-01T13:38:08.646Z</time></trkpt><trkpt lat="42.0005339" lon="13.6448049"><ele>698.0</ele><time>2026-05-01T13:38:09.652Z</time></trkpt><trkpt lat="42.0003674" lon="13.6447211"><ele>698.0</ele><time>2026-05-01T13:38:10.648Z</time></trkpt><trkpt lat="42.0002068" lon="13.6446463"><ele>698.0</ele><time>2026-05-01T13:38:11.651Z</time></trkpt><trkpt lat="42.0000532" lon="13.64459"><ele>698.0</ele><time>2026-05-01T13:38:12.643Z</time></trkpt><trkpt lat="41.9998977" lon="13.6445498"><ele>698.0</ele><time>2026-05-01T13:38:13.646Z</time></trkpt><trkpt lat="41.9997344" lon="13.6445272"><ele>698.0</ele><time>2026-05-01T13:38:14.653Z</time></trkpt><trkpt lat="41.9995642" lon="13.6445403"><ele>698.0</ele><time>2026-05-01T13:38:15.652Z</time></trkpt><trkpt lat="41.9993924" lon="13.6445832"><ele>698.0</ele><time>2026-05-01T13:38:16.648Z</time></trkpt><trkpt lat="41.999224" lon="13.6446244"><ele>698.0</ele><time>2026-05-01T13:38:17.666Z</time></trkpt><trkpt lat="41.9990521" lon="13.6446425"><ele>698.0</ele><time>2026-05-01T13:38:18.654Z</time></trkpt><trkpt lat="41.9988771" lon="13.6446335"><ele>698.0</ele><time>2026-05-01T13:38:19.654Z</time></trkpt><trkpt lat="41.9986952" lon="13.6445988"><ele>698.0</ele><time>2026-05-01T13:38:20.649Z</time></trkpt><trkpt lat="41.9985134" lon="13.6445497"><ele>698.0</ele><time>2026-05-01T13:38:21.65Z</time></trkpt><trkpt lat="41.9983283" lon="13.6445038"><ele>698.0</ele><time>2026-05-01T13:38:22.656Z</time></trkpt><trkpt lat="41.9981436" lon="13.6444625"><ele>695.3333333333333</ele><time>2026-05-01T13:38:23.648Z</time></trkpt><trkpt lat="41.9979566" lon="13.6444222"><ele>692.6666666666666</ele><time>2026-05-01T13:38:24.666Z</time></trkpt><trkpt lat="41.9977703" lon="13.6443839"><ele>690.0</ele><time>2026-05-01T13:38:25.642Z</time></trkpt><trkpt lat="41.9975821" lon="13.6443568"><ele>689.3333333333334</ele><time>2026-05-01T13:38:26.651Z</time></trkpt><trkpt lat="41.9973956" lon="13.6443398"><ele>688.6666666666667</ele><time>2026-05-01T13:38:27.655Z</time></trkpt><trkpt lat="41.9972028" lon="13.6443254"><ele>688.0</ele><time>2026-05-01T13:38:28.649Z</time></trkpt><trkpt lat="41.997007" lon="13.644317"><ele>688.0</ele><time>2026-05-01T13:38:29.665Z</time></trkpt><trkpt lat="41.9968172" lon="13.6443044"><ele>688.0</ele><time>2026-05-01T13:38:30.645Z</time></trkpt><trkpt lat="41.9966283" lon="13.6442915"><ele>688.0</ele><time>2026-05-01T13:38:31.649Z</time></trkpt><trkpt lat="41.9964455" lon="13.6442813"><ele>688.3333333333334</ele><time>2026-05-01T13:38:32.644Z</time></trkpt><trkpt lat="41.9962652" lon="13.6442682"><ele>688.6666666666666</ele><time>2026-05-01T13:38:33.646Z</time></trkpt><trkpt lat="41.9960912" lon="13.6442565"><ele>689.0</ele><time>2026-05-01T13:38:34.643Z</time></trkpt><trkpt lat="41.9959238" lon="13.6442476"><ele>689.3333333333333</ele><time>2026-05-01T13:38:35.646Z</time></trkpt><trkpt lat="41.9957621" lon="13.6442514"><ele>689.6666666666666</ele><time>2026-05-01T13:38:36.66Z</time></trkpt><trkpt lat="41.9956006" lon="13.6442742"><ele>690.0</ele><time>2026-05-01T13:38:37.653Z</time></trkpt><trkpt lat="41.9954418" lon="13.6443248"><ele>690.0</ele><time>2026-05-01T13:38:38.643Z</time></trkpt><trkpt lat="41.9952838" lon="13.6444014"><ele>690.0</ele><time>2026-05-01T13:38:39.646Z</time></trkpt><trkpt lat="41.9951243" lon="13.6445031"><ele>690.0</ele><time>2026-05-01T13:38:40.644Z</time></trkpt><trkpt lat="41.9949712" lon="13.6446253"><ele>692.0</ele><time>2026-05-01T13:38:41.643Z</time></trkpt><trkpt lat="41.9948169" lon="13.6447613"><ele>694.0</ele><time>2026-05-01T13:38:42.652Z</time></trkpt><trkpt lat="41.994659" lon="13.6448915"><ele>696.0</ele><time>2026-05-01T13:38:43.641Z</time></trkpt><trkpt lat="41.9944965" lon="13.644999"><ele>696.0</ele><time>2026-05-01T13:38:44.665Z</time></trkpt><trkpt lat="41.9943323" lon="13.6450894"><ele>696.0</ele><time>2026-05-01T13:38:45.645Z</time></trkpt><trkpt lat="41.9941691" lon="13.6451699"><ele>696.0</ele><time>2026-05-01T13:38:46.646Z</time></trkpt><trkpt lat="41.9940001" lon="13.6452545"><ele>696.6666666666666</ele><time>2026-05-01T13:38:47.656Z</time></trkpt><trkpt lat="41.9938384" lon="13.6453572"><ele>697.3333333333333</ele><time>2026-05-01T13:38:48.646Z</time></trkpt><trkpt lat="41.9936902" lon="13.6454682"><ele>698.0</ele><time>2026-05-01T13:38:49.641Z</time></trkpt><trkpt lat="41.9935475" lon="13.645573"><ele>698.0</ele><time>2026-05-01T13:38:50.639Z</time></trkpt><trkpt lat="41.9934052" lon="13.6456622"><ele>698.0</ele><time>2026-05-01T13:38:51.649Z</time></trkpt><trkpt lat="41.9932564" lon="13.6457304"><ele>698.0</ele><time>2026-05-01T13:38:52.652Z</time></trkpt><trkpt lat="41.9931024" lon="13.6457623"><ele>695.6666666666666</ele><time>2026-05-01T13:38:53.645Z</time></trkpt><trkpt lat="41.9929414" lon="13.6457659"><ele>693.3333333333334</ele><time>2026-05-01T13:38:54.661Z</time></trkpt><trkpt lat="41.9927775" lon="13.64575"><ele>691.0</ele><time>2026-05-01T13:38:55.653Z</time></trkpt><trkpt lat="41.992627" lon="13.645708"><ele>690.75</ele><time>2026-05-01T13:38:56.644Z</time></trkpt><trkpt lat="41.992478" lon="13.6456564"><ele>690.5</ele><time>2026-05-01T13:38:57.644Z</time></trkpt><trkpt lat="41.9923356" lon="13.6456259"><ele>690.25</ele><time>2026-05-01T13:38:58.642Z</time></trkpt><trkpt lat="41.9921899" lon="13.6456167"><ele>690.0</ele><time>2026-05-01T13:38:59.647Z</time></trkpt><trkpt lat="41.9920364" lon="13.6456334"><ele>690.0</ele><time>2026-05-01T13:39:00.652Z</time></trkpt><trkpt lat="41.9918904" lon="13.6456618"><ele>690.0</ele><time>2026-05-01T13:39:01.634Z</time></trkpt><trkpt lat="41.9917567" lon="13.6457052"><ele>690.0</ele><time>2026-05-01T13:39:02.653Z</time></trkpt><trkpt lat="41.9916272" lon="13.6457481"><ele>690.0</ele><time>2026-05-01T13:39:03.643Z</time></trkpt><trkpt lat="41.9915045" lon="13.6457668"><ele>690.0</ele><time>2026-05-01T13:39:04.642Z</time></trkpt><trkpt lat="41.9913824" lon="13.645754"><ele>690.0</ele><time>2026-05-01T13:39:05.648Z</time></trkpt><trkpt lat="41.9912606" lon="13.6457188"><ele>690.0</ele><time>2026-05-01T13:39:06.644Z</time></trkpt><trkpt lat="41.991149" lon="13.6456716"><ele>690.0</ele><time>2026-05-01T13:39:07.642Z</time></trkpt><trkpt lat="41.9910424" lon="13.6456266"><ele>690.0</ele><time>2026-05-01T13:39:08.648Z</time></trkpt><trkpt lat="41.9909441" lon="13.6455964"><ele>690.0</ele><time>2026-05-01T13:39:09.648Z</time></trkpt><trkpt lat="41.9908522" lon="13.6455796"><ele>690.0</ele><time>2026-05-01T13:39:10.661Z</time></trkpt><trkpt lat="41.9907637" lon="13.6455829"><ele>690.0</ele><time>2026-05-01T13:39:11.65Z</time></trkpt><trkpt lat="41.9906639" lon="13.6456212"><ele>690.0</ele><time>2026-05-01T13:39:12.647Z</time></trkpt><trkpt lat="41.9905604" lon="13.6456921"><ele>690.25</ele><time>2026-05-01T13:39:13.643Z</time></trkpt><trkpt lat="41.9904539" lon="13.6457764"><ele>690.5</ele><time>2026-05-01T13:39:14.651Z</time></trkpt><trkpt lat="41.9903412" lon="13.6458534"><ele>690.75</ele><time>2026-05-01T13:39:15.642Z</time></trkpt><trkpt lat="41.9902227" lon="13.645928"><ele>691.0</ele><time>2026-05-01T13:39:16.649Z</time></trkpt><trkpt lat="41.9900947" lon="13.6459942"><ele>689.75</ele><time>2026-05-01T13:39:17.642Z</time></trkpt><trkpt lat="41.989961" lon="13.6460547"><ele>688.5</ele><time>2026-05-01T13:39:18.644Z</time></trkpt><trkpt lat="41.9898213" lon="13.6461066"><ele>687.25</ele><time>2026-05-01T13:39:19.65Z</time></trkpt><trkpt lat="41.9896702" lon="13.6461518"><ele>686.0</ele><time>2026-05-01T13:39:20.643Z</time></trkpt><trkpt lat="41.9895144" lon="13.6461905"><ele>688.3333333333333</ele><time>2026-05-01T13:39:21.644Z</time></trkpt><trkpt lat="41.9893484" lon="13.6462189"><ele>690.6666666666666</ele><time>2026-05-01T13:39:22.657Z</time></trkpt><trkpt lat="41.9891933" lon="13.6462415"><ele>693.0</ele><time>2026-05-01T13:39:23.641Z</time></trkpt><trkpt lat="41.9890476" lon="13.6462636"><ele>693.0</ele><time>2026-05-01T13:39:24.645Z</time></trkpt><trkpt lat="41.9889027" lon="13.6462777"><ele>693.0</ele><time>2026-05-01T13:39:25.644Z</time></trkpt><trkpt lat="41.9887735" lon="13.6462918"><ele>693.0</ele><time>2026-05-01T13:39:26.646Z</time></trkpt><trkpt lat="41.9886472" lon="13.646307"><ele>693.0</ele><time>2026-05-01T13:39:27.645Z</time></trkpt><trkpt lat="41.988516" lon="13.6463296"><ele>693.0</ele><time>2026-05-01T13:39:28.646Z</time></trkpt><trkpt lat="41.9883887" lon="13.6463397"><ele>693.0</ele><time>2026-05-01T13:39:29.642Z</time></trkpt><trkpt lat="41.9882576" lon="13.646358"><ele>693.0</ele><time>2026-05-01T13:39:30.641Z</time></trkpt><trkpt lat="41.9881289" lon="13.6463787"><ele>693.0</ele><time>2026-05-01T13:39:31.642Z</time></trkpt><trkpt lat="41.987995" lon="13.6464017"><ele>692.5</ele><time>2026-05-01T13:39:32.639Z</time></trkpt><trkpt lat="41.9878605" lon="13.6464163"><ele>692.0</ele><time>2026-05-01T13:39:33.639Z</time></trkpt><trkpt lat="41.9877248" lon="13.6464206"><ele>691.5</ele><time>2026-05-01T13:39:34.642Z</time></trkpt><trkpt lat="41.9875876" lon="13.6464219"><ele>691.0</ele><time>2026-05-01T13:39:35.634Z</time></trkpt><trkpt lat="41.9874531" lon="13.6464253"><ele>689.75</ele><time>2026-05-01T13:39:36.655Z</time></trkpt><trkpt lat="41.9873173" lon="13.6464551"><ele>688.5</ele><time>2026-05-01T13:39:37.638Z</time></trkpt><trkpt lat="41.9871834" lon="13.6465064"><ele>687.25</ele><time>2026-05-01T13:39:38.647Z</time></trkpt><trkpt lat="41.9870504" lon="13.6465691"><ele>686.0</ele><time>2026-05-01T13:39:39.643Z</time></trkpt><trkpt lat="41.9869149" lon="13.6466422"><ele>686.0</ele><time>2026-05-01T13:39:40.639Z</time></trkpt><trkpt lat="41.9867742" lon="13.6467152"><ele>686.0</ele><time>2026-05-01T13:39:41.654Z</time></trkpt><trkpt lat="41.9866329" lon="13.6467896"><ele>686.0</ele><time>2026-05-01T13:39:42.642Z</time></trkpt><trkpt lat="41.986485" lon="13.6468763"><ele>689.6666666666666</ele><time>2026-05-01T13:39:43.638Z</time></trkpt><trkpt lat="41.9863396" lon="13.6469733"><ele>693.3333333333334</ele><time>2026-05-01T13:39:44.644Z</time></trkpt><trkpt lat="41.986206" lon="13.6470808"><ele>697.0</ele><time>2026-05-01T13:39:45.634Z</time></trkpt><trkpt lat="41.98608" lon="13.6471838"><ele>697.0</ele><time>2026-05-01T13:39:46.655Z</time></trkpt><trkpt lat="41.9859556" lon="13.647288"><ele>697.0</ele><time>2026-05-01T13:39:47.643Z</time></trkpt><trkpt lat="41.9858393" lon="13.6473898"><ele>697.0</ele><time>2026-05-01T13:39:48.644Z</time></trkpt><trkpt lat="41.985729" lon="13.6474748"><ele>697.0</ele><time>2026-05-01T13:39:49.643Z</time></trkpt><trkpt lat="41.9856133" lon="13.6475499"><ele>693.75</ele><time>2026-05-01T13:39:50.641Z</time></trkpt><trkpt lat="41.9854942" lon="13.6476141"><ele>690.5</ele><time>2026-05-01T13:39:51.667Z</time></trkpt><trkpt lat="41.9853672" lon="13.6476554"><ele>687.25</ele><time>2026-05-01T13:39:52.637Z</time></trkpt><trkpt lat="41.9852353" lon="13.6476757"><ele>684.0</ele><time>2026-05-01T13:39:53.643Z</time></trkpt><trkpt lat="41.9851025" lon="13.6476721"><ele>683.5</ele><time>2026-05-01T13:39:54.64Z</time></trkpt><trkpt lat="41.9849693" lon="13.6476737"><ele>683.0</ele><time>2026-05-01T13:39:55.64Z</time></trkpt><trkpt lat="41.9848323" lon="13.6476876"><ele>682.5</ele><time>2026-05-01T13:39:56.638Z</time></trkpt><trkpt lat="41.9846977" lon="13.647719"><ele>682.0</ele><time>2026-05-01T13:39:57.638Z</time></trkpt><trkpt lat="41.9845644" lon="13.6477618"><ele>683.25</ele><time>2026-05-01T13:39:58.637Z</time></trkpt><trkpt lat="41.9844354" lon="13.64781"><ele>684.5</ele><time>2026-05-01T13:39:59.653Z</time></trkpt><trkpt lat="41.9843121" lon="13.647874"><ele>685.75</ele><time>2026-05-01T13:40:00.646Z</time></trkpt><trkpt lat="41.9841848" lon="13.6479515"><ele>687.0</ele><time>2026-05-01T13:40:01.649Z</time></trkpt><trkpt lat="41.984066" lon="13.6480355"><ele>687.0</ele><time>2026-05-01T13:40:02.651Z</time></trkpt><trkpt lat="41.9839527" lon="13.6481284"><ele>687.0</ele><time>2026-05-01T13:40:03.652Z</time></trkpt><trkpt lat="41.9838384" lon="13.6482326"><ele>687.0</ele><time>2026-05-01T13:40:04.649Z</time></trkpt><trkpt lat="41.9837243" lon="13.6483456"><ele>687.0</ele><time>2026-05-01T13:40:05.659Z</time></trkpt><trkpt lat="41.9836144" lon="13.6484553"><ele>687.0</ele><time>2026-05-01T13:40:06.644Z</time></trkpt><trkpt lat="41.9835115" lon="13.6485738"><ele>687.0</ele><time>2026-05-01T13:40:07.652Z</time></trkpt><trkpt lat="41.9834233" lon="13.648686"><ele>687.0</ele><time>2026-05-01T13:40:08.648Z</time></trkpt><trkpt lat="41.9833657" lon="13.6487912"><ele>687.0</ele><time>2026-05-01T13:40:09.653Z</time></trkpt><trkpt lat="41.9833263" lon="13.6489133"><ele>686.5</ele><time>2026-05-01T13:40:10.645Z</time></trkpt><trkpt lat="41.9832964" lon="13.6490524"><ele>686.0</ele><time>2026-05-01T13:40:11.642Z</time></trkpt><trkpt lat="41.9832651" lon="13.649205"><ele>685.5</ele><time>2026-05-01T13:40:12.644Z</time></trkpt><trkpt lat="41.9832326" lon="13.6493643"><ele>685.0</ele><time>2026-05-01T13:40:13.647Z</time></trkpt><trkpt lat="41.9831929" lon="13.6495298"><ele>685.0</ele><time>2026-05-01T13:40:14.642Z</time></trkpt><trkpt lat="41.9831568" lon="13.6496913"><ele>685.0</ele><time>2026-05-01T13:40:15.654Z</time></trkpt><trkpt lat="41.9831168" lon="13.6498514"><ele>685.0</ele><time>2026-05-01T13:40:16.651Z</time></trkpt><trkpt lat="41.9830782" lon="13.6500084"><ele>685.0</ele><time>2026-05-01T13:40:17.655Z</time></trkpt><trkpt lat="41.9830327" lon="13.650169"><ele>688.6666666666667</ele><time>2026-05-01T13:40:18.652Z</time></trkpt><trkpt lat="41.9829623" lon="13.6503389"><ele>692.3333333333334</ele><time>2026-05-01T13:40:19.644Z</time></trkpt><trkpt lat="41.9828609" lon="13.6505088"><ele>696.0</ele><time>2026-05-01T13:40:20.655Z</time></trkpt><trkpt lat="41.9827454" lon="13.6506662"><ele>696.0</ele><time>2026-05-01T13:40:21.646Z</time></trkpt><trkpt lat="41.9826027" lon="13.6508247"><ele>696.0</ele><time>2026-05-01T13:40:22.649Z</time></trkpt><trkpt lat="41.9824398" lon="13.6509984"><ele>696.0</ele><time>2026-05-01T13:40:23.655Z</time></trkpt><trkpt lat="41.9822602" lon="13.6511768"><ele>694.0</ele><time>2026-05-01T13:40:24.645Z</time></trkpt><trkpt lat="41.9820928" lon="13.6513423"><ele>692.0</ele><time>2026-05-01T13:40:25.651Z</time></trkpt><trkpt lat="41.981948" lon="13.6515003"><ele>690.0</ele><time>2026-05-01T13:40:26.639Z</time></trkpt><trkpt lat="41.9818029" lon="13.6516467"><ele>688.3333333333334</ele><time>2026-05-01T13:40:27.637Z</time></trkpt><trkpt lat="41.9816553" lon="13.6517714"><ele>686.6666666666667</ele><time>2026-05-01T13:40:28.639Z</time></trkpt><trkpt lat="41.9814825" lon="13.6518894"><ele>685.0</ele><time>2026-05-01T13:40:29.646Z</time></trkpt><trkpt lat="41.9812847" lon="13.6520005"><ele>685.0</ele><time>2026-05-01T13:40:30.638Z</time></trkpt><trkpt lat="41.9810471" lon="13.6521035"><ele>685.0</ele><time>2026-05-01T13:40:31.642Z</time></trkpt><trkpt lat="41.9807842" lon="13.6522193"><ele>683.0</ele><time>2026-05-01T13:40:32.643Z</time></trkpt><trkpt lat="41.9805103" lon="13.6523573"><ele>681.0</ele><time>2026-05-01T13:40:33.651Z</time></trkpt><trkpt lat="41.9802192" lon="13.6525026"><ele>680.0</ele><time>2026-05-01T13:40:34.639Z</time></trkpt><trkpt lat="41.9799068" lon="13.6526493"><ele>679.0</ele><time>2026-05-01T13:40:35.647Z</time></trkpt><trkpt lat="41.9795899" lon="13.6528031"><ele>680.5</ele><time>2026-05-01T13:40:36.647Z</time></trkpt><trkpt lat="41.9792874" lon="13.6529462"><ele>682.0</ele><time>2026-05-01T13:40:37.648Z</time></trkpt><trkpt lat="41.9790036" lon="13.6530759"><ele>682.0</ele><time>2026-05-01T13:40:38.646Z</time></trkpt><trkpt lat="41.9787395" lon="13.653215"><ele>682.0</ele><time>2026-05-01T13:40:39.648Z</time></trkpt><trkpt lat="41.9784934" lon="13.6533414"><ele>680.5</ele><time>2026-05-01T13:40:40.656Z</time></trkpt><trkpt lat="41.9782583" lon="13.6534564"><ele>679.0</ele><time>2026-05-01T13:40:41.64Z</time></trkpt><trkpt lat="41.9780374" lon="13.653565"><ele>680.0</ele><time>2026-05-01T13:40:42.638Z</time></trkpt><trkpt lat="41.9778322" lon="13.6536646"><ele>681.0</ele><time>2026-05-01T13:40:43.634Z</time></trkpt><trkpt lat="41.9776334" lon="13.6537695"><ele>682.0</ele><time>2026-05-01T13:40:44.646Z</time></trkpt><trkpt lat="41.9774425" lon="13.6538882"><ele>682.0</ele><time>2026-05-01T13:40:45.648Z</time></trkpt><trkpt lat="41.9772504" lon="13.6540095"><ele>682.0</ele><time>2026-05-01T13:40:46.642Z</time></trkpt><trkpt lat="41.9770688" lon="13.6541447"><ele>682.0</ele><time>2026-05-01T13:40:47.642Z</time></trkpt><trkpt lat="41.9768973" lon="13.6542849"><ele>682.0</ele><time>2026-05-01T13:40:48.647Z</time></trkpt><trkpt lat="41.9767277" lon="13.6544313"><ele>682.0</ele><time>2026-05-01T13:40:49.636Z</time></trkpt><trkpt lat="41.9765518" lon="13.6545793"><ele>682.0</ele><time>2026-05-01T13:40:50.643Z</time></trkpt><trkpt lat="41.9763668" lon="13.65474"><ele>685.5</ele><time>2026-05-01T13:40:51.651Z</time></trkpt><trkpt lat="41.9761755" lon="13.6549093"><ele>689.0</ele><time>2026-05-01T13:40:52.643Z</time></trkpt><trkpt lat="41.9759815" lon="13.6550808"><ele>690.5</ele><time>2026-05-01T13:40:53.635Z</time></trkpt><trkpt lat="41.9757786" lon="13.6552703"><ele>692.0</ele><time>2026-05-01T13:40:54.635Z</time></trkpt><trkpt lat="41.9755762" lon="13.6554589"><ele>692.0</ele><time>2026-05-01T13:40:55.642Z</time></trkpt><trkpt lat="41.9753732" lon="13.6556595"><ele>692.0</ele><time>2026-05-01T13:40:56.64Z</time></trkpt><trkpt lat="41.9751701" lon="13.6558614"><ele>693.0</ele><time>2026-05-01T13:40:57.638Z</time></trkpt><trkpt lat="41.9749671" lon="13.6560643"><ele>694.0</ele><time>2026-05-01T13:40:58.637Z</time></trkpt><trkpt lat="41.9747688" lon="13.6562504"><ele>694.0</ele><time>2026-05-01T13:40:59.639Z</time></trkpt><trkpt lat="41.9745779" lon="13.6564174"><ele>694.0</ele><time>2026-05-01T13:41:00.665Z</time></trkpt><trkpt lat="41.9743895" lon="13.6565677"><ele>694.0</ele><time>2026-05-01T13:41:01.645Z</time></trkpt><trkpt lat="41.9742034" lon="13.6567182"><ele>692.3333333333334</ele><time>2026-05-01T13:41:02.654Z</time></trkpt><trkpt lat="41.9740221" lon="13.656881"><ele>690.6666666666666</ele><time>2026-05-01T13:41:03.641Z</time></trkpt><trkpt lat="41.9738405" lon="13.6570517"><ele>689.0</ele><time>2026-05-01T13:41:04.637Z</time></trkpt><trkpt lat="41.9736631" lon="13.6572213"><ele>689.0</ele><time>2026-05-01T13:41:05.643Z</time></trkpt><trkpt lat="41.9734921" lon="13.6573915"><ele>689.0</ele><time>2026-05-01T13:41:06.646Z</time></trkpt><trkpt lat="41.973327" lon="13.6575606"><ele>689.0</ele><time>2026-05-01T13:41:07.64Z</time></trkpt><trkpt lat="41.9731663" lon="13.6577177"><ele>688.0</ele><time>2026-05-01T13:41:08.641Z</time></trkpt><trkpt lat="41.9730164" lon="13.6578749"><ele>687.0</ele><time>2026-05-01T13:41:09.654Z</time></trkpt><trkpt lat="41.9728767" lon="13.6580361"><ele>686.0</ele><time>2026-05-01T13:41:10.648Z</time></trkpt><trkpt lat="41.972747" lon="13.6582176"><ele>686.0</ele><time>2026-05-01T13:41:11.635Z</time></trkpt><trkpt lat="41.9726285" lon="13.6584219"><ele>686.0</ele><time>2026-05-01T13:41:12.645Z</time></trkpt><trkpt lat="41.9725196" lon="13.6586423"><ele>686.0</ele><time>2026-05-01T13:41:13.646Z</time></trkpt><trkpt lat="41.9724105" lon="13.6588598"><ele>684.6666666666666</ele><time>2026-05-01T13:41:14.645Z</time></trkpt><trkpt lat="41.9722898" lon="13.65906"><ele>683.3333333333334</ele><time>2026-05-01T13:41:15.643Z</time></trkpt><trkpt lat="41.9721473" lon="13.6592401"><ele>682.0</ele><time>2026-05-01T13:41:16.642Z</time></trkpt><trkpt lat="41.9719882" lon="13.6594129"><ele>680.3333333333334</ele><time>2026-05-01T13:41:17.656Z</time></trkpt><trkpt lat="41.9718156" lon="13.6595895"><ele>678.6666666666666</ele><time>2026-05-01T13:41:18.637Z</time></trkpt><trkpt lat="41.9716326" lon="13.6597824"><ele>677.0</ele><time>2026-05-01T13:41:19.646Z</time></trkpt><trkpt lat="41.9714387" lon="13.659987"><ele>677.0</ele><time>2026-05-01T13:41:20.646Z</time></trkpt><trkpt lat="41.9712387" lon="13.6601987"><ele>677.0</ele><time>2026-05-01T13:41:21.645Z</time></trkpt><trkpt lat="41.9710375" lon="13.6604084"><ele>677.5</ele><time>2026-05-01T13:41:22.645Z</time></trkpt><trkpt lat="41.9708379" lon="13.660616"><ele>678.0</ele><time>2026-05-01T13:41:23.64Z</time></trkpt><trkpt lat="41.9706383" lon="13.6608186"><ele>678.0</ele><time>2026-05-01T13:41:24.647Z</time></trkpt><trkpt lat="41.9704478" lon="13.6610151"><ele>678.0</ele><time>2026-05-01T13:41:25.641Z</time></trkpt><trkpt lat="41.9702671" lon="13.661203"><ele>678.0</ele><time>2026-05-01T13:41:26.636Z</time></trkpt><trkpt lat="41.9700928" lon="13.6613844"><ele>678.0</ele><time>2026-05-01T13:41:27.633Z</time></trkpt><trkpt lat="41.9699296" lon="13.6615681"><ele>678.0</ele><time>2026-05-01T13:41:28.637Z</time></trkpt><trkpt lat="41.9697786" lon="13.6617613"><ele>680.0</ele><time>2026-05-01T13:41:29.653Z</time></trkpt><trkpt lat="41.9696339" lon="13.6619699"><ele>682.0</ele><time>2026-05-01T13:41:30.646Z</time></trkpt><trkpt lat="41.9694912" lon="13.6621847"><ele>684.0</ele><time>2026-05-01T13:41:31.646Z</time></trkpt><trkpt lat="41.9693462" lon="13.6624025"><ele>684.0</ele><time>2026-05-01T13:41:32.64Z</time></trkpt><trkpt lat="41.9691948" lon="13.6626237"><ele>684.0</ele><time>2026-05-01T13:41:33.644Z</time></trkpt><trkpt lat="41.9690414" lon="13.6628439"><ele>684.0</ele><time>2026-05-01T13:41:34.643Z</time></trkpt><trkpt lat="41.9688924" lon="13.6630641"><ele>680.5</ele><time>2026-05-01T13:41:35.646Z</time></trkpt><trkpt lat="41.96874" lon="13.6632912"><ele>677.0</ele><time>2026-05-01T13:41:36.642Z</time></trkpt><trkpt lat="41.9685933" lon="13.6635273"><ele>678.0</ele><time>2026-05-01T13:41:37.65Z</time></trkpt><trkpt lat="41.9684524" lon="13.6637726"><ele>679.0</ele><time>2026-05-01T13:41:38.64Z</time></trkpt><trkpt lat="41.9683108" lon="13.6640161"><ele>679.0</ele><time>2026-05-01T13:41:39.65Z</time></trkpt><trkpt lat="41.9681716" lon="13.6642626"><ele>679.0</ele><time>2026-05-01T13:41:40.648Z</time></trkpt><trkpt lat="41.9680348" lon="13.6645111"><ele>679.0</ele><time>2026-05-01T13:41:41.643Z</time></trkpt><trkpt lat="41.9678986" lon="13.6647592"><ele>679.0</ele><time>2026-05-01T13:41:42.652Z</time></trkpt><trkpt lat="41.967765" lon="13.6650027"><ele>679.0</ele><time>2026-05-01T13:41:43.647Z</time></trkpt><trkpt lat="41.9676275" lon="13.6652439"><ele>679.0</ele><time>2026-05-01T13:41:44.65Z</time></trkpt><trkpt lat="41.9674903" lon="13.6654777"><ele>679.0</ele><time>2026-05-01T13:41:45.648Z</time></trkpt><trkpt lat="41.9673476" lon="13.6657036"><ele>679.0</ele><time>2026-05-01T13:41:46.646Z</time></trkpt><trkpt lat="41.9671987" lon="13.6659198"><ele>679.0</ele><time>2026-05-01T13:41:47.645Z</time></trkpt><trkpt lat="41.9670476" lon="13.6661322"><ele>679.0</ele><time>2026-05-01T13:41:48.636Z</time></trkpt><trkpt lat="41.966892" lon="13.6663409"><ele>678.6666666666667</ele><time>2026-05-01T13:41:49.651Z</time></trkpt><trkpt lat="41.9667359" lon="13.6665411"><ele>678.3333333333334</ele><time>2026-05-01T13:41:50.638Z</time></trkpt><trkpt lat="41.9665754" lon="13.6667308"><ele>678.0</ele><time>2026-05-01T13:41:51.65Z</time></trkpt><trkpt lat="41.9664091" lon="13.6669064"><ele>679.0</ele><time>2026-05-01T13:41:52.644Z</time></trkpt><trkpt lat="41.9662366" lon="13.6670786"><ele>680.0</ele><time>2026-05-01T13:41:53.639Z</time></trkpt><trkpt lat="41.9660614" lon="13.6672441"><ele>681.0</ele><time>2026-05-01T13:41:54.64Z</time></trkpt><trkpt lat="41.9658838" lon="13.6674055"><ele>681.0</ele><time>2026-05-01T13:41:55.641Z</time></trkpt><trkpt lat="41.9657024" lon="13.6675685"><ele>681.0</ele><time>2026-05-01T13:41:56.655Z</time></trkpt><trkpt lat="41.9655278" lon="13.6677279"><ele>681.0</ele><time>2026-05-01T13:41:57.649Z</time></trkpt><trkpt lat="41.9653543" lon="13.6678901"><ele>681.0</ele><time>2026-05-01T13:41:58.65Z</time></trkpt><trkpt lat="41.9651828" lon="13.6680502"><ele>681.0</ele><time>2026-05-01T13:41:59.64Z</time></trkpt><trkpt lat="41.9650158" lon="13.6682081"><ele>681.0</ele><time>2026-05-01T13:42:00.64Z</time></trkpt><trkpt lat="41.9648496" lon="13.6683698"><ele>680.3333333333334</ele><time>2026-05-01T13:42:01.653Z</time></trkpt><trkpt lat="41.9646919" lon="13.6685385"><ele>679.6666666666667</ele><time>2026-05-01T13:42:02.652Z</time></trkpt><trkpt lat="41.9645441" lon="13.6687213"><ele>679.0</ele><time>2026-05-01T13:42:03.651Z</time></trkpt><trkpt lat="41.964409" lon="13.668919"><ele>679.0</ele><time>2026-05-01T13:42:04.644Z</time></trkpt><trkpt lat="41.9642734" lon="13.669126"><ele>679.0</ele><time>2026-05-01T13:42:05.638Z</time></trkpt><trkpt lat="41.9641393" lon="13.6693355"><ele>679.0</ele><time>2026-05-01T13:42:06.645Z</time></trkpt><trkpt lat="41.9639991" lon="13.6695441"><ele>678.0</ele><time>2026-05-01T13:42:07.645Z</time></trkpt><trkpt lat="41.96386" lon="13.6697502"><ele>677.0</ele><time>2026-05-01T13:42:08.642Z</time></trkpt><trkpt lat="41.9637171" lon="13.6699574"><ele>676.0</ele><time>2026-05-01T13:42:09.642Z</time></trkpt><trkpt lat="41.9635735" lon="13.6701679"><ele>676.0</ele><time>2026-05-01T13:42:10.646Z</time></trkpt><trkpt lat="41.9634312" lon="13.6703724"><ele>676.0</ele><time>2026-05-01T13:42:11.661Z</time></trkpt><trkpt lat="41.9632901" lon="13.6705802"><ele>676.0</ele><time>2026-05-01T13:42:12.662Z</time></trkpt><trkpt lat="41.9631514" lon="13.6707889"><ele>676.3333333333334</ele><time>2026-05-01T13:42:13.644Z</time></trkpt><trkpt lat="41.9630184" lon="13.6709949"><ele>676.6666666666666</ele><time>2026-05-01T13:42:14.647Z</time></trkpt><trkpt lat="41.9628861" lon="13.6711946"><ele>677.0</ele><time>2026-05-01T13:42:15.653Z</time></trkpt><trkpt lat="41.9627565" lon="13.6713855"><ele>677.0</ele><time>2026-05-01T13:42:16.642Z</time></trkpt><trkpt lat="41.9626258" lon="13.6715737"><ele>677.0</ele><time>2026-05-01T13:42:17.662Z</time></trkpt><trkpt lat="41.9624982" lon="13.6717672"><ele>677.0</ele><time>2026-05-01T13:42:18.646Z</time></trkpt><trkpt lat="41.9623747" lon="13.6719585"><ele>676.6666666666666</ele><time>2026-05-01T13:42:19.635Z</time></trkpt><trkpt lat="41.9622504" lon="13.6721472"><ele>676.3333333333334</ele><time>2026-05-01T13:42:20.641Z</time></trkpt><trkpt lat="41.9621253" lon="13.6723367"><ele>676.0</ele><time>2026-05-01T13:42:21.642Z</time></trkpt><trkpt lat="41.9619943" lon="13.6725303"><ele>676.0</ele><time>2026-05-01T13:42:22.658Z</time></trkpt><trkpt lat="41.961861" lon="13.6727264"><ele>676.0</ele><time>2026-05-01T13:42:23.642Z</time></trkpt><trkpt lat="41.961724" lon="13.6729268"><ele>676.0</ele><time>2026-05-01T13:42:24.649Z</time></trkpt><trkpt lat="41.9615822" lon="13.673131"><ele>675.6666666666667</ele><time>2026-05-01T13:42:25.648Z</time></trkpt><trkpt lat="41.961435" lon="13.6733365"><ele>675.3333333333334</ele><time>2026-05-01T13:42:26.655Z</time></trkpt><trkpt lat="41.9612896" lon="13.6735513"><ele>675.0</ele><time>2026-05-01T13:42:27.655Z</time></trkpt><trkpt lat="41.9611433" lon="13.673769"><ele>675.0</ele><time>2026-05-01T13:42:28.659Z</time></trkpt><trkpt lat="41.9609975" lon="13.6739888"><ele>675.0</ele><time>2026-05-01T13:42:29.648Z</time></trkpt><trkpt lat="41.9608518" lon="13.6742146"><ele>675.0</ele><time>2026-05-01T13:42:30.655Z</time></trkpt><trkpt lat="41.9607023" lon="13.6744349"><ele>674.6666666666666</ele><time>2026-05-01T13:42:31.646Z</time></trkpt><trkpt lat="41.9605538" lon="13.6746527"><ele>674.3333333333333</ele><time>2026-05-01T13:42:32.644Z</time></trkpt><trkpt lat="41.9604089" lon="13.6748703"><ele>674.0</ele><time>2026-05-01T13:42:33.648Z</time></trkpt><trkpt lat="41.9602637" lon="13.6750869"><ele>674.0</ele><time>2026-05-01T13:42:34.651Z</time></trkpt><trkpt lat="41.9601206" lon="13.675297"><ele>674.0</ele><time>2026-05-01T13:42:35.649Z</time></trkpt><trkpt lat="41.9599802" lon="13.6755048"><ele>674.0</ele><time>2026-05-01T13:42:36.654Z</time></trkpt><trkpt lat="41.9598373" lon="13.6757142"><ele>674.0</ele><time>2026-05-01T13:42:37.645Z</time></trkpt><trkpt lat="41.959699" lon="13.6759273"><ele>674.0</ele><time>2026-05-01T13:42:38.646Z</time></trkpt><trkpt lat="41.9595627" lon="13.6761461"><ele>674.0</ele><time>2026-05-01T13:42:39.648Z</time></trkpt><trkpt lat="41.9594275" lon="13.6763666"><ele>674.0</ele><time>2026-05-01T13:42:40.646Z</time></trkpt><trkpt lat="41.9592952" lon="13.6765855"><ele>674.0</ele><time>2026-05-01T13:42:41.664Z</time></trkpt><trkpt lat="41.9591644" lon="13.6768097"><ele>674.0</ele><time>2026-05-01T13:42:42.652Z</time></trkpt><trkpt lat="41.9590362" lon="13.6770342"><ele>674.3333333333333</ele><time>2026-05-01T13:42:43.653Z</time></trkpt><trkpt lat="41.9589089" lon="13.6772565"><ele>674.6666666666666</ele><time>2026-05-01T13:42:44.645Z</time></trkpt><trkpt lat="41.9587836" lon="13.677479"><ele>675.0</ele><time>2026-05-01T13:42:45.653Z</time></trkpt><trkpt lat="41.9586582" lon="13.6777005"><ele>675.0</ele><time>2026-05-01T13:42:46.643Z</time></trkpt><trkpt lat="41.9585349" lon="13.6779205"><ele>675.0</ele><time>2026-05-01T13:42:47.64Z</time></trkpt><trkpt lat="41.9584162" lon="13.6781452"><ele>675.0</ele><time>2026-05-01T13:42:48.649Z</time></trkpt><trkpt lat="41.9583064" lon="13.6783718"><ele>675.3333333333334</ele><time>2026-05-01T13:42:49.648Z</time></trkpt><trkpt lat="41.9582004" lon="13.6786021"><ele>675.6666666666667</ele><time>2026-05-01T13:42:50.648Z</time></trkpt><trkpt lat="41.9581047" lon="13.6788313"><ele>676.0</ele><time>2026-05-01T13:42:51.645Z</time></trkpt><trkpt lat="41.9580079" lon="13.6790577"><ele>676.0</ele><time>2026-05-01T13:42:52.663Z</time></trkpt><trkpt lat="41.9579067" lon="13.6792887"><ele>676.0</ele><time>2026-05-01T13:42:53.641Z</time></trkpt><trkpt lat="41.9578099" lon="13.6795208"><ele>676.0</ele><time>2026-05-01T13:42:54.642Z</time></trkpt><trkpt lat="41.9577156" lon="13.6797546"><ele>676.0</ele><time>2026-05-01T13:42:55.651Z</time></trkpt><trkpt lat="41.9576258" lon="13.6799913"><ele>676.0</ele><time>2026-05-01T13:42:56.65Z</time></trkpt><trkpt lat="41.9575445" lon="13.6802373"><ele>676.0</ele><time>2026-05-01T13:42:57.66Z</time></trkpt><trkpt lat="41.9574721" lon="13.6804923"><ele>676.0</ele><time>2026-05-01T13:42:58.644Z</time></trkpt><trkpt lat="41.9574064" lon="13.6807521"><ele>676.0</ele><time>2026-05-01T13:42:59.648Z</time></trkpt><trkpt lat="41.9573441" lon="13.6810206"><ele>676.0</ele><time>2026-05-01T13:43:00.647Z</time></trkpt><trkpt lat="41.9572842" lon="13.6812879"><ele>676.0</ele><time>2026-05-01T13:43:01.642Z</time></trkpt><trkpt lat="41.9572212" lon="13.6815502"><ele>676.0</ele><time>2026-05-01T13:43:02.637Z</time></trkpt><trkpt lat="41.9571427" lon="13.6818083"><ele>676.0</ele><time>2026-05-01T13:43:03.65Z</time></trkpt><trkpt lat="41.9570468" lon="13.6820579"><ele>676.0</ele><time>2026-05-01T13:43:04.65Z</time></trkpt><trkpt lat="41.9569387" lon="13.6823065"><ele>676.0</ele><time>2026-05-01T13:43:05.666Z</time></trkpt><trkpt lat="41.956826" lon="13.6825565"><ele>676.0</ele><time>2026-05-01T13:43:06.646Z</time></trkpt><trkpt lat="41.9567177" lon="13.6828018"><ele>676.3333333333334</ele><time>2026-05-01T13:43:07.652Z</time></trkpt><trkpt lat="41.9566127" lon="13.6830445"><ele>676.6666666666666</ele><time>2026-05-01T13:43:08.651Z</time></trkpt><trkpt lat="41.9565113" lon="13.6832765"><ele>677.0</ele><time>2026-05-01T13:43:09.657Z</time></trkpt><trkpt lat="41.956417" lon="13.6834991"><ele>677.0</ele><time>2026-05-01T13:43:10.648Z</time></trkpt><trkpt lat="41.9563301" lon="13.6837078"><ele>677.0</ele><time>2026-05-01T13:43:11.672Z</time></trkpt><trkpt lat="41.9562502" lon="13.6839058"><ele>677.0</ele><time>2026-05-01T13:43:12.647Z</time></trkpt><trkpt lat="41.9561802" lon="13.6841038"><ele>677.0</ele><time>2026-05-01T13:43:13.65Z</time></trkpt><trkpt lat="41.9561122" lon="13.6843099"><ele>677.0</ele><time>2026-05-01T13:43:14.645Z</time></trkpt><trkpt lat="41.9560475" lon="13.6845329"><ele>677.0</ele><time>2026-05-01T13:43:15.652Z</time></trkpt><trkpt lat="41.9559866" lon="13.6847587"><ele>676.6666666666666</ele><time>2026-05-01T13:43:16.649Z</time></trkpt><trkpt lat="41.9559183" lon="13.6849892"><ele>676.3333333333334</ele><time>2026-05-01T13:43:17.64Z</time></trkpt><trkpt lat="41.9558475" lon="13.6852234"><ele>676.0</ele><time>2026-05-01T13:43:18.652Z</time></trkpt><trkpt lat="41.955777" lon="13.6854644"><ele>677.0</ele><time>2026-05-01T13:43:19.647Z</time></trkpt><trkpt lat="41.9557097" lon="13.6857111"><ele>678.0</ele><time>2026-05-01T13:43:20.647Z</time></trkpt><trkpt lat="41.955644" lon="13.6859585"><ele>679.0</ele><time>2026-05-01T13:43:21.648Z</time></trkpt><trkpt lat="41.95558" lon="13.6862079"><ele>680.0</ele><time>2026-05-01T13:43:22.641Z</time></trkpt><trkpt lat="41.955524" lon="13.686457"><ele>681.0</ele><time>2026-05-01T13:43:23.661Z</time></trkpt><trkpt lat="41.9554718" lon="13.6867057"><ele>682.0</ele><time>2026-05-01T13:43:24.65Z</time></trkpt><trkpt lat="41.9554226" lon="13.6869524"><ele>682.6666666666667</ele><time>2026-05-01T13:43:25.643Z</time></trkpt><trkpt lat="41.9553763" lon="13.6871939"><ele>683.3333333333334</ele><time>2026-05-01T13:43:26.647Z</time></trkpt><trkpt lat="41.9553338" lon="13.6874284"><ele>684.0</ele><time>2026-05-01T13:43:27.647Z</time></trkpt><trkpt lat="41.9552921" lon="13.6876521"><ele>684.6666666666666</ele><time>2026-05-01T13:43:28.65Z</time></trkpt><trkpt lat="41.9552567" lon="13.687867"><ele>685.3333333333333</ele><time>2026-05-01T13:43:29.642Z</time></trkpt><trkpt lat="41.9552299" lon="13.6880791"><ele>686.0</ele><time>2026-05-01T13:43:30.645Z</time></trkpt><trkpt lat="41.955211" lon="13.6882862"><ele>686.0</ele><time>2026-05-01T13:43:31.647Z</time></trkpt><trkpt lat="41.9551967" lon="13.6884933"><ele>686.0</ele><time>2026-05-01T13:43:32.652Z</time></trkpt><trkpt lat="41.9551869" lon="13.6887022"><ele>686.0</ele><time>2026-05-01T13:43:33.648Z</time></trkpt><trkpt lat="41.9551786" lon="13.6889087"><ele>687.6666666666666</ele><time>2026-05-01T13:43:34.663Z</time></trkpt><trkpt lat="41.9551736" lon="13.6891149"><ele>689.3333333333334</ele><time>2026-05-01T13:43:35.659Z</time></trkpt><trkpt lat="41.9551739" lon="13.6893196"><ele>691.0</ele><time>2026-05-01T13:43:36.648Z</time></trkpt><trkpt lat="41.9551759" lon="13.6895241"><ele>692.25</ele><time>2026-05-01T13:43:37.646Z</time></trkpt><trkpt lat="41.9551803" lon="13.6897245"><ele>693.5</ele><time>2026-05-01T13:43:38.646Z</time></trkpt><trkpt lat="41.9551826" lon="13.6899225"><ele>694.75</ele><time>2026-05-01T13:43:39.646Z</time></trkpt><trkpt lat="41.9551873" lon="13.6901163"><ele>696.0</ele><time>2026-05-01T13:43:40.656Z</time></trkpt><trkpt lat="41.9551875" lon="13.6903064"><ele>697.0</ele><time>2026-05-01T13:43:41.655Z</time></trkpt><trkpt lat="41.9551925" lon="13.6904923"><ele>698.0</ele><time>2026-05-01T13:43:42.646Z</time></trkpt><trkpt lat="41.9551975" lon="13.6906744"><ele>699.0</ele><time>2026-05-01T13:43:43.675Z</time></trkpt><trkpt lat="41.9552039" lon="13.6908558"><ele>700.0</ele><time>2026-05-01T13:43:44.64Z</time></trkpt><trkpt lat="41.9551984" lon="13.6910362"><ele>700.5</ele><time>2026-05-01T13:43:45.642Z</time></trkpt><trkpt lat="41.9551808" lon="13.6912219"><ele>701.0</ele><time>2026-05-01T13:43:46.65Z</time></trkpt><trkpt lat="41.9551499" lon="13.6914087"><ele>701.5</ele><time>2026-05-01T13:43:47.647Z</time></trkpt><trkpt lat="41.9551132" lon="13.6915985"><ele>702.0</ele><time>2026-05-01T13:43:48.66Z</time></trkpt><trkpt lat="41.9550813" lon="13.6917874"><ele>703.25</ele><time>2026-05-01T13:43:49.647Z</time></trkpt><trkpt lat="41.9550521" lon="13.6919706"><ele>704.5</ele><time>2026-05-01T13:43:50.651Z</time></trkpt><trkpt lat="41.9550203" lon="13.6921516"><ele>705.75</ele><time>2026-05-01T13:43:51.649Z</time></trkpt><trkpt lat="41.9549902" lon="13.6923155"><ele>707.0</ele><time>2026-05-01T13:43:52.638Z</time></trkpt><trkpt lat="41.9549614" lon="13.6924588"><ele>707.5</ele><time>2026-05-01T13:43:53.65Z</time></trkpt><trkpt lat="41.9549364" lon="13.6925924"><ele>708.0</ele><time>2026-05-01T13:43:54.652Z</time></trkpt><trkpt lat="41.9549144" lon="13.6927101"><ele>708.5</ele><time>2026-05-01T13:43:55.649Z</time></trkpt><trkpt lat="41.9548924" lon="13.6928188"><ele>709.0</ele><time>2026-05-01T13:43:56.646Z</time></trkpt><trkpt lat="41.9548719" lon="13.6929149"><ele>709.5</ele><time>2026-05-01T13:43:57.659Z</time></trkpt><trkpt lat="41.9548542" lon="13.6929995"><ele>710.0</ele><time>2026-05-01T13:43:58.648Z</time></trkpt><trkpt lat="41.9548372" lon="13.6931232"><ele>710.6</ele><time>2026-05-01T13:44:00.645Z</time></trkpt><trkpt lat="41.9548252" lon="13.6932412"><ele>711.2</ele><time>2026-05-01T13:44:02.656Z</time></trkpt><trkpt lat="41.9548176" lon="13.6933754"><ele>711.8</ele><time>2026-05-01T13:44:04.645Z</time></trkpt><trkpt lat="41.9548291" lon="13.6935095"><ele>712.4</ele><time>2026-05-01T13:44:06.635Z</time></trkpt><trkpt lat="41.9548544" lon="13.6936642"><ele>713.0</ele><time>2026-05-01T13:44:08.64Z</time></trkpt><trkpt lat="41.9548716" lon="13.6937527"><ele>713.1666666666666</ele><time>2026-05-01T13:44:09.665Z</time></trkpt><trkpt lat="41.9548879" lon="13.6938555"><ele>713.3333333333333</ele><time>2026-05-01T13:44:10.645Z</time></trkpt><trkpt lat="41.9549086" lon="13.6939725"><ele>713.5</ele><time>2026-05-01T13:44:11.647Z</time></trkpt><trkpt lat="41.9549296" lon="13.6940913"><ele>713.6666666666666</ele><time>2026-05-01T13:44:12.644Z</time></trkpt><trkpt lat="41.9549465" lon="13.6942113"><ele>713.8333333333334</ele><time>2026-05-01T13:44:13.648Z</time></trkpt><trkpt lat="41.9549651" lon="13.6943335"><ele>714.0</ele><time>2026-05-01T13:44:14.653Z</time></trkpt><trkpt lat="41.9549765" lon="13.6944631"><ele>714.0</ele><time>2026-05-01T13:44:15.644Z</time></trkpt><trkpt lat="41.9549672" lon="13.6945889"><ele>714.0</ele><time>2026-05-01T13:44:16.658Z</time></trkpt><trkpt lat="41.9549378" lon="13.6947121"><ele>714.0</ele><time>2026-05-01T13:44:17.647Z</time></trkpt><trkpt lat="41.9548945" lon="13.6948298"><ele>714.0</ele><time>2026-05-01T13:44:18.65Z</time></trkpt><trkpt lat="41.9548258" lon="13.6949437"><ele>714.0</ele><time>2026-05-01T13:44:19.64Z</time></trkpt><trkpt lat="41.9547489" lon="13.6950589"><ele>714.0</ele><time>2026-05-01T13:44:20.644Z</time></trkpt><trkpt lat="41.9546636" lon="13.6951855"><ele>714.0</ele><time>2026-05-01T13:44:21.642Z</time></trkpt><trkpt lat="41.9545705" lon="13.6953234"><ele>714.0</ele><time>2026-05-01T13:44:22.645Z</time></trkpt><trkpt lat="41.9544711" lon="13.6954691"><ele>714.0</ele><time>2026-05-01T13:44:23.647Z</time></trkpt><trkpt lat="41.9543681" lon="13.6956236"><ele>714.0</ele><time>2026-05-01T13:44:24.648Z</time></trkpt><trkpt lat="41.9542593" lon="13.6957828"><ele>714.0</ele><time>2026-05-01T13:44:25.647Z</time></trkpt><trkpt lat="41.9541513" lon="13.6959525"><ele>714.0</ele><time>2026-05-01T13:44:26.647Z</time></trkpt><trkpt lat="41.9540389" lon="13.6961308"><ele>716.0</ele><time>2026-05-01T13:44:27.663Z</time></trkpt><trkpt lat="41.9539245" lon="13.6963082"><ele>718.0</ele><time>2026-05-01T13:44:28.644Z</time></trkpt><trkpt lat="41.9538121" lon="13.6964916"><ele>720.0</ele><time>2026-05-01T13:44:29.652Z</time></trkpt><trkpt lat="41.9536964" lon="13.6966692"><ele>720.0</ele><time>2026-05-01T13:44:30.647Z</time></trkpt><trkpt lat="41.9535768" lon="13.6968459"><ele>720.0</ele><time>2026-05-01T13:44:31.648Z</time></trkpt><trkpt lat="41.9534529" lon="13.6970245"><ele>720.0</ele><time>2026-05-01T13:44:32.642Z</time></trkpt><trkpt lat="41.9533335" lon="13.697205"><ele>720.0</ele><time>2026-05-01T13:44:33.645Z</time></trkpt><trkpt lat="41.9532105" lon="13.6973805"><ele>720.0</ele><time>2026-05-01T13:44:34.657Z</time></trkpt><trkpt lat="41.9530899" lon="13.6975505"><ele>720.0</ele><time>2026-05-01T13:44:35.652Z</time></trkpt><trkpt lat="41.952974" lon="13.6977202"><ele>722.0</ele><time>2026-05-01T13:44:36.651Z</time></trkpt><trkpt lat="41.9528632" lon="13.697886"><ele>724.0</ele><time>2026-05-01T13:44:37.645Z</time></trkpt><trkpt lat="41.9527508" lon="13.6980498"><ele>726.0</ele><time>2026-05-01T13:44:38.643Z</time></trkpt><trkpt lat="41.95264" lon="13.6982159"><ele>725.0</ele><time>2026-05-01T13:44:39.643Z</time></trkpt><trkpt lat="41.9525314" lon="13.6983847"><ele>724.0</ele><time>2026-05-01T13:44:40.648Z</time></trkpt><trkpt lat="41.9524206" lon="13.6985618"><ele>723.0</ele><time>2026-05-01T13:44:41.64Z</time></trkpt><trkpt lat="41.952302" lon="13.6987391"><ele>723.0</ele><time>2026-05-01T13:44:42.642Z</time></trkpt><trkpt lat="41.9521799" lon="13.6989144"><ele>723.0</ele><time>2026-05-01T13:44:43.641Z</time></trkpt><trkpt lat="41.9520558" lon="13.6990944"><ele>723.0</ele><time>2026-05-01T13:44:44.645Z</time></trkpt><trkpt lat="41.9519322" lon="13.6992768"><ele>722.3333333333334</ele><time>2026-05-01T13:44:45.646Z</time></trkpt><trkpt lat="41.9518098" lon="13.6994611"><ele>721.6666666666667</ele><time>2026-05-01T13:44:46.637Z</time></trkpt><trkpt lat="41.9516871" lon="13.699647"><ele>721.0</ele><time>2026-05-01T13:44:47.664Z</time></trkpt><trkpt lat="41.951563" lon="13.6998364"><ele>721.0</ele><time>2026-05-01T13:44:48.65Z</time></trkpt><trkpt lat="41.9514346" lon="13.7000268"><ele>721.0</ele><time>2026-05-01T13:44:49.65Z</time></trkpt><trkpt lat="41.9513073" lon="13.7002175"><ele>721.0</ele><time>2026-05-01T13:44:50.641Z</time></trkpt><trkpt lat="41.951178" lon="13.7004113"><ele>721.6666666666667</ele><time>2026-05-01T13:44:51.656Z</time></trkpt><trkpt lat="41.9510467" lon="13.7006006"><ele>722.3333333333334</ele><time>2026-05-01T13:44:52.648Z</time></trkpt><trkpt lat="41.9509188" lon="13.7007905"><ele>723.0</ele><time>2026-05-01T13:44:53.639Z</time></trkpt><trkpt lat="41.9507939" lon="13.7009829"><ele>724.3333333333334</ele><time>2026-05-01T13:44:54.647Z</time></trkpt><trkpt lat="41.9506682" lon="13.7011716"><ele>725.6666666666667</ele><time>2026-05-01T13:44:55.643Z</time></trkpt><trkpt lat="41.9505436" lon="13.701358"><ele>727.0</ele><time>2026-05-01T13:44:56.657Z</time></trkpt><trkpt lat="41.9504235" lon="13.7015404"><ele>727.0</ele><time>2026-05-01T13:44:57.643Z</time></trkpt><trkpt lat="41.9503056" lon="13.7017207"><ele>727.0</ele><time>2026-05-01T13:44:58.647Z</time></trkpt><trkpt lat="41.9501849" lon="13.7018977"><ele>727.0</ele><time>2026-05-01T13:44:59.65Z</time></trkpt><trkpt lat="41.9500721" lon="13.7020684"><ele>728.3333333333334</ele><time>2026-05-01T13:45:00.643Z</time></trkpt><trkpt lat="41.9499627" lon="13.7022354"><ele>729.6666666666666</ele><time>2026-05-01T13:45:01.666Z</time></trkpt><trkpt lat="41.9498563" lon="13.7023942"><ele>731.0</ele><time>2026-05-01T13:45:02.641Z</time></trkpt><trkpt lat="41.9497573" lon="13.7025399"><ele>731.0</ele><time>2026-05-01T13:45:03.65Z</time></trkpt><trkpt lat="41.9496653" lon="13.7026718"><ele>731.0</ele><time>2026-05-01T13:45:04.639Z</time></trkpt><trkpt lat="41.9495645" lon="13.7027912"><ele>731.0</ele><time>2026-05-01T13:45:05.644Z</time></trkpt><trkpt lat="41.9494476" lon="13.7028845"><ele>731.0</ele><time>2026-05-01T13:45:06.64Z</time></trkpt><trkpt lat="41.9493217" lon="13.7029487"><ele>731.0</ele><time>2026-05-01T13:45:07.646Z</time></trkpt><trkpt lat="41.9491899" lon="13.7029595"><ele>731.0</ele><time>2026-05-01T13:45:08.646Z</time></trkpt><trkpt lat="41.9490617" lon="13.7029354"><ele>731.0</ele><time>2026-05-01T13:45:09.648Z</time></trkpt><trkpt lat="41.9489382" lon="13.7028532"><ele>731.0</ele><time>2026-05-01T13:45:10.643Z</time></trkpt><trkpt lat="41.9488143" lon="13.7027358"><ele>731.0</ele><time>2026-05-01T13:45:11.648Z</time></trkpt><trkpt lat="41.9486913" lon="13.7025899"><ele>731.0</ele><time>2026-05-01T13:45:12.642Z</time></trkpt><trkpt lat="41.9485715" lon="13.7024353"><ele>731.0</ele><time>2026-05-01T13:45:13.642Z</time></trkpt><trkpt lat="41.9484431" lon="13.7022989"><ele>732.6666666666666</ele><time>2026-05-01T13:45:14.639Z</time></trkpt><trkpt lat="41.948287" lon="13.7021953"><ele>734.3333333333334</ele><time>2026-05-01T13:45:15.637Z</time></trkpt><trkpt lat="41.9481162" lon="13.7021083"><ele>736.0</ele><time>2026-05-01T13:45:16.647Z</time></trkpt><trkpt lat="41.9479361" lon="13.7020425"><ele>736.0</ele><time>2026-05-01T13:45:17.641Z</time></trkpt><trkpt lat="41.9477646" lon="13.7019588"><ele>736.0</ele><time>2026-05-01T13:45:18.65Z</time></trkpt><trkpt lat="41.9475938" lon="13.7018779"><ele>736.0</ele><time>2026-05-01T13:45:19.639Z</time></trkpt><trkpt lat="41.9474209" lon="13.7017929"><ele>735.6666666666667</ele><time>2026-05-01T13:45:20.656Z</time></trkpt><trkpt lat="41.9472352" lon="13.7017013"><ele>735.3333333333334</ele><time>2026-05-01T13:45:21.645Z</time></trkpt><trkpt lat="41.947046" lon="13.7016132"><ele>735.0</ele><time>2026-05-01T13:45:22.643Z</time></trkpt><trkpt lat="41.9468554" lon="13.7015244"><ele>735.3333333333334</ele><time>2026-05-01T13:45:23.65Z</time></trkpt><trkpt lat="41.9466604" lon="13.7014366"><ele>735.6666666666667</ele><time>2026-05-01T13:45:24.655Z</time></trkpt><trkpt lat="41.9464614" lon="13.7013519"><ele>736.0</ele><time>2026-05-01T13:45:25.657Z</time></trkpt><trkpt lat="41.9462676" lon="13.7012663"><ele>736.0</ele><time>2026-05-01T13:45:26.639Z</time></trkpt><trkpt lat="41.946073" lon="13.7011904"><ele>736.0</ele><time>2026-05-01T13:45:27.653Z</time></trkpt><trkpt lat="41.9458813" lon="13.7011147"><ele>736.0</ele><time>2026-05-01T13:45:28.647Z</time></trkpt><trkpt lat="41.9456968" lon="13.7010399"><ele>735.6666666666667</ele><time>2026-05-01T13:45:29.645Z</time></trkpt><trkpt lat="41.9455182" lon="13.7009699"><ele>735.3333333333334</ele><time>2026-05-01T13:45:30.644Z</time></trkpt><trkpt lat="41.94534" lon="13.7009159"><ele>735.0</ele><time>2026-05-01T13:45:31.644Z</time></trkpt><trkpt lat="41.945155" lon="13.7008811"><ele>737.3333333333334</ele><time>2026-05-01T13:45:32.659Z</time></trkpt><trkpt lat="41.9449588" lon="13.7008731"><ele>739.6666666666667</ele><time>2026-05-01T13:45:33.647Z</time></trkpt><trkpt lat="41.9447615" lon="13.7008668"><ele>742.0</ele><time>2026-05-01T13:45:34.643Z</time></trkpt><trkpt lat="41.9445667" lon="13.7008526"><ele>742.0</ele><time>2026-05-01T13:45:35.64Z</time></trkpt><trkpt lat="41.9443672" lon="13.7008218"><ele>742.0</ele><time>2026-05-01T13:45:36.644Z</time></trkpt><trkpt lat="41.9441791" lon="13.7008066"><ele>742.0</ele><time>2026-05-01T13:45:37.648Z</time></trkpt><trkpt lat="41.944" lon="13.7008145"><ele>744.6666666666667</ele><time>2026-05-01T13:45:38.647Z</time></trkpt><trkpt lat="41.9438283" lon="13.7008407"><ele>747.3333333333334</ele><time>2026-05-01T13:45:39.651Z</time></trkpt><trkpt lat="41.9436601" lon="13.7008848"><ele>750.0</ele><time>2026-05-01T13:45:40.649Z</time></trkpt><trkpt lat="41.9435002" lon="13.7009402"><ele>751.0</ele><time>2026-05-01T13:45:41.647Z</time></trkpt><trkpt lat="41.9433483" lon="13.7010119"><ele>752.0</ele><time>2026-05-01T13:45:42.651Z</time></trkpt><trkpt lat="41.943196" lon="13.7011017"><ele>753.0</ele><time>2026-05-01T13:45:43.656Z</time></trkpt><trkpt lat="41.9430612" lon="13.7012178"><ele>759.0</ele><time>2026-05-01T13:45:44.652Z</time></trkpt><trkpt lat="41.9429475" lon="13.7013591"><ele>765.0</ele><time>2026-05-01T13:45:45.662Z</time></trkpt><trkpt lat="41.9428496" lon="13.7015231"><ele>771.0</ele><time>2026-05-01T13:45:46.641Z</time></trkpt><trkpt lat="41.9427654" lon="13.7017109"><ele>776.0</ele><time>2026-05-01T13:45:47.647Z</time></trkpt><trkpt lat="41.9426874" lon="13.7019178"><ele>781.0</ele><time>2026-05-01T13:45:48.646Z</time></trkpt><trkpt lat="41.9426314" lon="13.7021429"><ele>786.0</ele><time>2026-05-01T13:45:49.648Z</time></trkpt><trkpt lat="41.9425831" lon="13.7023884"><ele>783.0</ele><time>2026-05-01T13:45:50.651Z</time></trkpt><trkpt lat="41.9425454" lon="13.7026392"><ele>780.0</ele><time>2026-05-01T13:45:51.643Z</time></trkpt><trkpt lat="41.942501" lon="13.7028865"><ele>777.0</ele><time>2026-05-01T13:45:52.639Z</time></trkpt><trkpt lat="41.9424581" lon="13.7031159"><ele>777.0</ele><time>2026-05-01T13:45:53.64Z</time></trkpt><trkpt lat="41.9424074" lon="13.703315"><ele>777.0</ele><time>2026-05-01T13:45:54.64Z</time></trkpt><trkpt lat="41.9423533" lon="13.7034833"><ele>777.0</ele><time>2026-05-01T13:45:55.654Z</time></trkpt><trkpt lat="41.9423119" lon="13.7036321"><ele>777.0</ele><time>2026-05-01T13:45:56.646Z</time></trkpt><trkpt lat="41.9422887" lon="13.7037758"><ele>777.75</ele><time>2026-05-01T13:45:57.652Z</time></trkpt><trkpt lat="41.9422901" lon="13.7039284"><ele>778.5</ele><time>2026-05-01T13:45:58.65Z</time></trkpt><trkpt lat="41.9423172" lon="13.7040944"><ele>779.25</ele><time>2026-05-01T13:45:59.648Z</time></trkpt><trkpt lat="41.9423545" lon="13.7042651"><ele>780.0</ele><time>2026-05-01T13:46:00.65Z</time></trkpt><trkpt lat="41.9424251" lon="13.7044292"><ele>780.0</ele><time>2026-05-01T13:46:01.646Z</time></trkpt><trkpt lat="41.9425264" lon="13.704573"><ele>780.0</ele><time>2026-05-01T13:46:02.641Z</time></trkpt><trkpt lat="41.9426429" lon="13.7046836"><ele>780.0</ele><time>2026-05-01T13:46:03.636Z</time></trkpt><trkpt lat="41.9427178" lon="13.7048064"><ele>780.0</ele><time>2026-05-01T13:46:04.644Z</time></trkpt><trkpt lat="41.942731" lon="13.7049758"><ele>784.3333333333333</ele><time>2026-05-01T13:46:05.641Z</time></trkpt><trkpt lat="41.9427027" lon="13.7051637"><ele>788.6666666666666</ele><time>2026-05-01T13:46:06.642Z</time></trkpt><trkpt lat="41.9426508" lon="13.7053547"><ele>793.0</ele><time>2026-05-01T13:46:07.643Z</time></trkpt><trkpt lat="41.9425759" lon="13.7055441"><ele>791.0</ele><time>2026-05-01T13:46:08.641Z</time></trkpt><trkpt lat="41.9424811" lon="13.7057284"><ele>789.0</ele><time>2026-05-01T13:46:09.651Z</time></trkpt><trkpt lat="41.9423995" lon="13.7059062"><ele>787.0</ele><time>2026-05-01T13:46:10.652Z</time></trkpt><trkpt lat="41.9423313" lon="13.7060648"><ele>789.5</ele><time>2026-05-01T13:46:11.659Z</time></trkpt><trkpt lat="41.9422609" lon="13.7061965"><ele>792.0</ele><time>2026-05-01T13:46:12.639Z</time></trkpt><trkpt lat="41.9421681" lon="13.7062964"><ele>794.5</ele><time>2026-05-01T13:46:13.647Z</time></trkpt><trkpt lat="41.9420532" lon="13.7063575"><ele>797.0</ele><time>2026-05-01T13:46:14.639Z</time></trkpt><trkpt lat="41.9419326" lon="13.7063741"><ele>797.0</ele><time>2026-05-01T13:46:15.637Z</time></trkpt><trkpt lat="41.9418092" lon="13.7063472"><ele>797.0</ele><time>2026-05-01T13:46:16.642Z</time></trkpt><trkpt lat="41.9416815" lon="13.706269"><ele>797.0</ele><time>2026-05-01T13:46:17.638Z</time></trkpt><trkpt lat="41.9415435" lon="13.7061488"><ele>797.0</ele><time>2026-05-01T13:46:18.641Z</time></trkpt><trkpt lat="41.9413988" lon="13.7060194"><ele>795.25</ele><time>2026-05-01T13:46:19.641Z</time></trkpt><trkpt lat="41.9412601" lon="13.7058928"><ele>793.5</ele><time>2026-05-01T13:46:20.635Z</time></trkpt><trkpt lat="41.9411373" lon="13.7057938"><ele>791.75</ele><time>2026-05-01T13:46:21.641Z</time></trkpt><trkpt lat="41.941023" lon="13.7057132"><ele>790.0</ele><time>2026-05-01T13:46:22.652Z</time></trkpt><trkpt lat="41.9408905" lon="13.7056984"><ele>793.6666666666666</ele><time>2026-05-01T13:46:23.64Z</time></trkpt><trkpt lat="41.9407289" lon="13.7057507"><ele>797.3333333333333</ele><time>2026-05-01T13:46:24.64Z</time></trkpt><trkpt lat="41.9405762" lon="13.705861"><ele>801.0</ele><time>2026-05-01T13:46:25.639Z</time></trkpt><trkpt lat="41.9404476" lon="13.7059795"><ele>801.75</ele><time>2026-05-01T13:46:26.648Z</time></trkpt><trkpt lat="41.9403283" lon="13.7060805"><ele>802.5</ele><time>2026-05-01T13:46:27.643Z</time></trkpt><trkpt lat="41.9402023" lon="13.7061265"><ele>803.25</ele><time>2026-05-01T13:46:28.637Z</time></trkpt><trkpt lat="41.9400693" lon="13.7061141"><ele>804.0</ele><time>2026-05-01T13:46:29.649Z</time></trkpt><trkpt lat="41.9399372" lon="13.7060377"><ele>804.0</ele><time>2026-05-01T13:46:30.654Z</time></trkpt><trkpt lat="41.9398029" lon="13.7059428"><ele>804.0</ele><time>2026-05-01T13:46:31.65Z</time></trkpt><trkpt lat="41.9396842" lon="13.7058676"><ele>804.0</ele><time>2026-05-01T13:46:32.645Z</time></trkpt><trkpt lat="41.939584" lon="13.7058166"><ele>804.0</ele><time>2026-05-01T13:46:33.643Z</time></trkpt><trkpt lat="41.9394788" lon="13.705836"><ele>804.0</ele><time>2026-05-01T13:46:34.646Z</time></trkpt><trkpt lat="41.9393681" lon="13.7059259"><ele>804.0</ele><time>2026-05-01T13:46:35.637Z</time></trkpt><trkpt lat="41.9392676" lon="13.7060657"><ele>804.0</ele><time>2026-05-01T13:46:36.641Z</time></trkpt><trkpt lat="41.9391884" lon="13.7062063"><ele>804.0</ele><time>2026-05-01T13:46:37.647Z</time></trkpt><trkpt lat="41.9391026" lon="13.7063311"><ele>810.25</ele><time>2026-05-01T13:46:38.647Z</time></trkpt><trkpt lat="41.9389908" lon="13.7064036"><ele>816.5</ele><time>2026-05-01T13:46:39.638Z</time></trkpt><trkpt lat="41.9388581" lon="13.7064076"><ele>822.75</ele><time>2026-05-01T13:46:40.643Z</time></trkpt><trkpt lat="41.9387091" lon="13.7063892"><ele>829.0</ele><time>2026-05-01T13:46:41.641Z</time></trkpt><trkpt lat="41.9385513" lon="13.7064108"><ele>828.6666666666666</ele><time>2026-05-01T13:46:42.648Z</time></trkpt><trkpt lat="41.9383756" lon="13.7064954"><ele>828.3333333333333</ele><time>2026-05-01T13:46:43.634Z</time></trkpt><trkpt lat="41.9382087" lon="13.7065758"><ele>828.0</ele><time>2026-05-01T13:46:44.645Z</time></trkpt><trkpt lat="41.9380527" lon="13.7066166"><ele>828.0</ele><time>2026-05-01T13:46:45.637Z</time></trkpt><trkpt lat="41.9379161" lon="13.7066481"><ele>828.0</ele><time>2026-05-01T13:46:46.633Z</time></trkpt><trkpt lat="41.9377969" lon="13.7066634"><ele>828.0</ele><time>2026-05-01T13:46:47.639Z</time></trkpt><trkpt lat="41.9376946" lon="13.706661"><ele>828.0</ele><time>2026-05-01T13:46:48.63Z</time></trkpt><trkpt lat="41.9376076" lon="13.7065984"><ele>828.0</ele><time>2026-05-01T13:46:49.641Z</time></trkpt><trkpt lat="41.9375588" lon="13.7064832"><ele>828.0</ele><time>2026-05-01T13:46:50.639Z</time></trkpt><trkpt lat="41.9375553" lon="13.7063319"><ele>828.0</ele><time>2026-05-01T13:46:51.656Z</time></trkpt><trkpt lat="41.9376016" lon="13.7061921"><ele>828.0</ele><time>2026-05-01T13:46:52.638Z</time></trkpt><trkpt lat="41.9376548" lon="13.7060308"><ele>825.3333333333333</ele><time>2026-05-01T13:46:53.654Z</time></trkpt><trkpt lat="41.9376763" lon="13.7058468"><ele>822.6666666666666</ele><time>2026-05-01T13:46:54.64Z</time></trkpt><trkpt lat="41.9376493" lon="13.7056357"><ele>820.0</ele><time>2026-05-01T13:46:55.646Z</time></trkpt><trkpt lat="41.9375907" lon="13.705417"><ele>825.6666666666666</ele><time>2026-05-01T13:46:56.65Z</time></trkpt><trkpt lat="41.9375203" lon="13.7051987"><ele>831.3333333333333</ele><time>2026-05-01T13:46:57.657Z</time></trkpt><trkpt lat="41.9374488" lon="13.704974"><ele>837.0</ele><time>2026-05-01T13:46:58.643Z</time></trkpt><trkpt lat="41.937398" lon="13.704756"><ele>837.0</ele><time>2026-05-01T13:46:59.646Z</time></trkpt><trkpt lat="41.9373734" lon="13.7045256"><ele>837.0</ele><time>2026-05-01T13:47:00.648Z</time></trkpt><trkpt lat="41.9373682" lon="13.704294"><ele>837.0</ele><time>2026-05-01T13:47:01.645Z</time></trkpt><trkpt lat="41.9373683" lon="13.7040704"><ele>837.5</ele><time>2026-05-01T13:47:02.642Z</time></trkpt><trkpt lat="41.9373595" lon="13.7038773"><ele>838.0</ele><time>2026-05-01T13:47:03.642Z</time></trkpt><trkpt lat="41.9373332" lon="13.703707"><ele>838.5</ele><time>2026-05-01T13:47:04.647Z</time></trkpt><trkpt lat="41.9372766" lon="13.7035463"><ele>839.0</ele><time>2026-05-01T13:47:05.651Z</time></trkpt><trkpt lat="41.9371818" lon="13.7033944"><ele>839.3333333333334</ele><time>2026-05-01T13:47:06.637Z</time></trkpt><trkpt lat="41.9370605" lon="13.7032524"><ele>839.6666666666667</ele><time>2026-05-01T13:47:07.656Z</time></trkpt><trkpt lat="41.9369129" lon="13.7031334"><ele>840.0</ele><time>2026-05-01T13:47:08.651Z</time></trkpt><trkpt lat="41.9367549" lon="13.7030203"><ele>842.6666666666667</ele><time>2026-05-01T13:47:09.655Z</time></trkpt><trkpt lat="41.9366037" lon="13.7028908"><ele>845.3333333333334</ele><time>2026-05-01T13:47:10.656Z</time></trkpt><trkpt lat="41.9364494" lon="13.7027508"><ele>848.0</ele><time>2026-05-01T13:47:11.653Z</time></trkpt><trkpt lat="41.9363169" lon="13.7026074"><ele>848.0</ele><time>2026-05-01T13:47:12.652Z</time></trkpt><trkpt lat="41.9362083" lon="13.7024736"><ele>848.0</ele><time>2026-05-01T13:47:13.652Z</time></trkpt><trkpt lat="41.9361191" lon="13.7023559"><ele>848.0</ele><time>2026-05-01T13:47:14.65Z</time></trkpt><trkpt lat="41.9360498" lon="13.7022544"><ele>848.0</ele><time>2026-05-01T13:47:15.645Z</time></trkpt><trkpt lat="41.9359795" lon="13.7021813"><ele>848.0</ele><time>2026-05-01T13:47:16.638Z</time></trkpt><trkpt lat="41.9358953" lon="13.7021504"><ele>848.0</ele><time>2026-05-01T13:47:17.64Z</time></trkpt><trkpt lat="41.9358129" lon="13.7021767"><ele>848.0</ele><time>2026-05-01T13:47:18.642Z</time></trkpt><trkpt lat="41.9357552" lon="13.7022626"><ele>848.0</ele><time>2026-05-01T13:47:19.665Z</time></trkpt><trkpt lat="41.9357537" lon="13.7023747"><ele>848.0</ele><time>2026-05-01T13:47:20.645Z</time></trkpt><trkpt lat="41.9358181" lon="13.7025233"><ele>848.0</ele><time>2026-05-01T13:47:21.658Z</time></trkpt><trkpt lat="41.9359236" lon="13.702604"><ele>848.0</ele><time>2026-05-01T13:47:22.649Z</time></trkpt><trkpt lat="41.9360369" lon="13.7026865"><ele>848.0</ele><time>2026-05-01T13:47:23.643Z</time></trkpt><trkpt lat="41.936121" lon="13.7028113"><ele>848.0</ele><time>2026-05-01T13:47:24.646Z</time></trkpt><trkpt lat="41.9361614" lon="13.7029689"><ele>849.5</ele><time>2026-05-01T13:47:25.655Z</time></trkpt><trkpt lat="41.9361499" lon="13.7031641"><ele>851.0</ele><time>2026-05-01T13:47:26.648Z</time></trkpt><trkpt lat="41.9361305" lon="13.7033667"><ele>852.5</ele><time>2026-05-01T13:47:27.649Z</time></trkpt><trkpt lat="41.9361046" lon="13.7035529"><ele>854.0</ele><time>2026-05-01T13:47:28.649Z</time></trkpt><trkpt lat="41.9360637" lon="13.7037233"><ele>854.75</ele><time>2026-05-01T13:47:29.644Z</time></trkpt><trkpt lat="41.9359882" lon="13.7038797"><ele>855.5</ele><time>2026-05-01T13:47:30.656Z</time></trkpt><trkpt lat="41.935906" lon="13.7040256"><ele>856.25</ele><time>2026-05-01T13:47:31.65Z</time></trkpt><trkpt lat="41.9358575" lon="13.7041891"><ele>857.0</ele><time>2026-05-01T13:47:32.642Z</time></trkpt><trkpt lat="41.9358531" lon="13.7043852"><ele>857.3333333333334</ele><time>2026-05-01T13:47:33.641Z</time></trkpt><trkpt lat="41.9359155" lon="13.7045699"><ele>857.6666666666667</ele><time>2026-05-01T13:47:34.643Z</time></trkpt><trkpt lat="41.93599" lon="13.7047623"><ele>858.0</ele><time>2026-05-01T13:47:35.664Z</time></trkpt><trkpt lat="41.9360649" lon="13.7049475"><ele>858.0</ele><time>2026-05-01T13:47:36.654Z</time></trkpt><trkpt lat="41.9361188" lon="13.7051183"><ele>858.0</ele><time>2026-05-01T13:47:37.649Z</time></trkpt><trkpt lat="41.9361326" lon="13.7052854"><ele>858.0</ele><time>2026-05-01T13:47:38.649Z</time></trkpt><trkpt lat="41.9361043" lon="13.7054779"><ele>858.0</ele><time>2026-05-01T13:47:39.649Z</time></trkpt><trkpt lat="41.9360651" lon="13.7056881"><ele>858.0</ele><time>2026-05-01T13:47:40.647Z</time></trkpt><trkpt lat="41.9360284" lon="13.7059136"><ele>858.0</ele><time>2026-05-01T13:47:41.647Z</time></trkpt><trkpt lat="41.9359931" lon="13.7061486"><ele>858.0</ele><time>2026-05-01T13:47:42.637Z</time></trkpt><trkpt lat="41.9359709" lon="13.7063892"><ele>858.0</ele><time>2026-05-01T13:47:43.647Z</time></trkpt><trkpt lat="41.9359693" lon="13.7066087"><ele>858.0</ele><time>2026-05-01T13:47:44.64Z</time></trkpt><trkpt lat="41.9359738" lon="13.7068027"><ele>858.0</ele><time>2026-05-01T13:47:45.64Z</time></trkpt><trkpt lat="41.9359669" lon="13.7069905"><ele>858.0</ele><time>2026-05-01T13:47:46.646Z</time></trkpt><trkpt lat="41.9359367" lon="13.7071796"><ele>867.0</ele><time>2026-05-01T13:47:47.641Z</time></trkpt><trkpt lat="41.9358851" lon="13.7073737"><ele>876.0</ele><time>2026-05-01T13:47:48.638Z</time></trkpt><trkpt lat="41.9357939" lon="13.7075676"><ele>885.0</ele><time>2026-05-01T13:47:49.651Z</time></trkpt><trkpt lat="41.9356821" lon="13.7077644"><ele>885.0</ele><time>2026-05-01T13:47:50.644Z</time></trkpt><trkpt lat="41.9355718" lon="13.7079547"><ele>885.0</ele><time>2026-05-01T13:47:51.642Z</time></trkpt><trkpt lat="41.9354611" lon="13.7081192"><ele>885.0</ele><time>2026-05-01T13:47:52.645Z</time></trkpt><trkpt lat="41.935354" lon="13.708256"><ele>885.0</ele><time>2026-05-01T13:47:53.647Z</time></trkpt><trkpt lat="41.9352586" lon="13.7083546"><ele>885.0</ele><time>2026-05-01T13:47:54.641Z</time></trkpt><trkpt lat="41.9351722" lon="13.7084324"><ele>885.0</ele><time>2026-05-01T13:47:55.638Z</time></trkpt><trkpt lat="41.9351141" lon="13.7085205"><ele>885.0</ele><time>2026-05-01T13:47:56.642Z</time></trkpt><trkpt lat="41.9350963" lon="13.7086347"><ele>885.0</ele><time>2026-05-01T13:47:57.641Z</time></trkpt><trkpt lat="41.9351298" lon="13.7087563"><ele>892.25</ele><time>2026-05-01T13:47:58.633Z</time></trkpt><trkpt lat="41.9351834" lon="13.7088436"><ele>899.5</ele><time>2026-05-01T13:47:59.634Z</time></trkpt><trkpt lat="41.9353016" lon="13.7088935"><ele>906.75</ele><time>2026-05-01T13:48:00.643Z</time></trkpt><trkpt lat="41.9354741" lon="13.7089007"><ele>914.0</ele><time>2026-05-01T13:48:01.632Z</time></trkpt><trkpt lat="41.935669" lon="13.7089096"><ele>914.0</ele><time>2026-05-01T13:48:02.635Z</time></trkpt><trkpt lat="41.9358683" lon="13.7089084"><ele>914.0</ele><time>2026-05-01T13:48:03.637Z</time></trkpt><trkpt lat="41.9360766" lon="13.7088875"><ele>914.0</ele><time>2026-05-01T13:48:04.636Z</time></trkpt><trkpt lat="41.9362913" lon="13.7088403"><ele>914.3333333333334</ele><time>2026-05-01T13:48:05.658Z</time></trkpt><trkpt lat="41.9365084" lon="13.7087616"><ele>914.6666666666667</ele><time>2026-05-01T13:48:06.64Z</time></trkpt><trkpt lat="41.9367122" lon="13.7086708"><ele>915.0</ele><time>2026-05-01T13:48:07.63Z</time></trkpt><trkpt lat="41.936887" lon="13.7085897"><ele>909.25</ele><time>2026-05-01T13:48:08.635Z</time></trkpt><trkpt lat="41.9370236" lon="13.7085302"><ele>903.5</ele><time>2026-05-01T13:48:09.642Z</time></trkpt><trkpt lat="41.937139" lon="13.7085012"><ele>897.75</ele><time>2026-05-01T13:48:10.645Z</time></trkpt><trkpt lat="41.9372471" lon="13.7084935"><ele>892.0</ele><time>2026-05-01T13:48:11.642Z</time></trkpt><trkpt lat="41.9373558" lon="13.7085373"><ele>889.5</ele><time>2026-05-01T13:48:12.638Z</time></trkpt><trkpt lat="41.9374537" lon="13.7086487"><ele>887.0</ele><time>2026-05-01T13:48:13.634Z</time></trkpt><trkpt lat="41.9375408" lon="13.7088035"><ele>884.5</ele><time>2026-05-01T13:48:14.639Z</time></trkpt><trkpt lat="41.9376276" lon="13.7089854"><ele>882.0</ele><time>2026-05-01T13:48:15.649Z</time></trkpt><trkpt lat="41.9376975" lon="13.7091915"><ele>887.6666666666667</ele><time>2026-05-01T13:48:16.639Z</time></trkpt><trkpt lat="41.93774" lon="13.709437"><ele>893.3333333333334</ele><time>2026-05-01T13:48:17.643Z</time></trkpt><trkpt lat="41.9377634" lon="13.7096769"><ele>899.0</ele><time>2026-05-01T13:48:18.647Z</time></trkpt><trkpt lat="41.9378197" lon="13.7098881"><ele>899.0</ele><time>2026-05-01T13:48:19.653Z</time></trkpt><trkpt lat="41.937905" lon="13.7100724"><ele>899.0</ele><time>2026-05-01T13:48:20.648Z</time></trkpt><trkpt lat="41.9379719" lon="13.7102631"><ele>899.0</ele><time>2026-05-01T13:48:21.644Z</time></trkpt><trkpt lat="41.9379951" lon="13.7104854"><ele>904.3333333333334</ele><time>2026-05-01T13:48:22.649Z</time></trkpt><trkpt lat="41.9379974" lon="13.7107301"><ele>909.6666666666667</ele><time>2026-05-01T13:48:23.642Z</time></trkpt><trkpt lat="41.9380105" lon="13.7109823"><ele>915.0</ele><time>2026-05-01T13:48:24.645Z</time></trkpt><trkpt lat="41.9380275" lon="13.7111941"><ele>918.8</ele><time>2026-05-01T13:48:25.636Z</time></trkpt><trkpt lat="41.9380383" lon="13.711355"><ele>922.6</ele><time>2026-05-01T13:48:26.639Z</time></trkpt><trkpt lat="41.9380537" lon="13.7114812"><ele>926.4000000000001</ele><time>2026-05-01T13:48:27.658Z</time></trkpt><trkpt lat="41.9380882" lon="13.7115744"><ele>930.2</ele><time>2026-05-01T13:48:28.636Z</time></trkpt><trkpt lat="41.9381694" lon="13.7116221"><ele>934.0</ele><time>2026-05-01T13:48:29.644Z</time></trkpt><trkpt lat="41.938295" lon="13.7116085"><ele>941.0</ele><time>2026-05-01T13:48:30.637Z</time></trkpt><trkpt lat="41.938423" lon="13.7115204"><ele>948.0</ele><time>2026-05-01T13:48:31.642Z</time></trkpt><trkpt lat="41.9385432" lon="13.7113717"><ele>955.0</ele><time>2026-05-01T13:48:32.643Z</time></trkpt><trkpt lat="41.9386698" lon="13.7111885"><ele>948.3333333333333</ele><time>2026-05-01T13:48:33.635Z</time></trkpt><trkpt lat="41.9387859" lon="13.7110025"><ele>941.6666666666667</ele><time>2026-05-01T13:48:34.641Z</time></trkpt><trkpt lat="41.9388987" lon="13.7108392"><ele>935.0</ele><time>2026-05-01T13:48:35.647Z</time></trkpt><trkpt lat="41.9390227" lon="13.7106907"><ele>935.0</ele><time>2026-05-01T13:48:36.628Z</time></trkpt><trkpt lat="41.9391803" lon="13.7105512"><ele>935.0</ele><time>2026-05-01T13:48:37.649Z</time></trkpt><trkpt lat="41.9393496" lon="13.71044"><ele>935.0</ele><time>2026-05-01T13:48:38.645Z</time></trkpt><trkpt lat="41.9395021" lon="13.7103472"><ele>936.5</ele><time>2026-05-01T13:48:39.642Z</time></trkpt><trkpt lat="41.9396379" lon="13.7102684"><ele>938.0</ele><time>2026-05-01T13:48:40.638Z</time></trkpt><trkpt lat="41.9397572" lon="13.7102019"><ele>939.5</ele><time>2026-05-01T13:48:41.647Z</time></trkpt><trkpt lat="41.9398611" lon="13.7101575"><ele>941.0</ele><time>2026-05-01T13:48:42.64Z</time></trkpt><trkpt lat="41.9399525" lon="13.7101271"><ele>941.0000000000001</ele><time>2026-05-01T13:48:43.651Z</time></trkpt><trkpt lat="41.9400195" lon="13.710128"><ele>941.0</ele><time>2026-05-01T13:48:44.649Z</time></trkpt><trkpt lat="41.9400622" lon="13.7102559"><ele>941.0</ele><time>2026-05-01T13:48:46.647Z</time></trkpt><trkpt lat="41.9400124" lon="13.7103214"><ele>941.0</ele><time>2026-05-01T13:48:47.651Z</time></trkpt><trkpt lat="41.9399256" lon="13.7103638"><ele>941.0000000000001</ele><time>2026-05-01T13:48:48.648Z</time></trkpt><trkpt lat="41.9398125" lon="13.7103737"><ele>941.0</ele><time>2026-05-01T13:48:49.651Z</time></trkpt><trkpt lat="41.9396688" lon="13.7104016"><ele>941.0</ele><time>2026-05-01T13:48:50.644Z</time></trkpt><trkpt lat="41.9395102" lon="13.710496"><ele>941.0</ele><time>2026-05-01T13:48:51.644Z</time></trkpt><trkpt lat="41.9393435" lon="13.710639"><ele>941.0</ele><time>2026-05-01T13:48:52.655Z</time></trkpt><trkpt lat="41.9391838" lon="13.7108071"><ele>939.0</ele><time>2026-05-01T13:48:53.646Z</time></trkpt><trkpt lat="41.9390409" lon="13.7109828"><ele>937.0</ele><time>2026-05-01T13:48:54.652Z</time></trkpt><trkpt lat="41.9389189" lon="13.7111984"><ele>935.0</ele><time>2026-05-01T13:48:55.637Z</time></trkpt><trkpt lat="41.9388089" lon="13.7114335"><ele>941.6666666666667</ele><time>2026-05-01T13:48:56.644Z</time></trkpt><trkpt lat="41.9387182" lon="13.7116464"><ele>948.3333333333333</ele><time>2026-05-01T13:48:57.64Z</time></trkpt><trkpt lat="41.9386281" lon="13.7118321"><ele>955.0</ele><time>2026-05-01T13:48:58.644Z</time></trkpt><trkpt lat="41.9385198" lon="13.7119947"><ele>958.3333333333333</ele><time>2026-05-01T13:48:59.645Z</time></trkpt><trkpt lat="41.938396" lon="13.7121352"><ele>961.6666666666667</ele><time>2026-05-01T13:49:00.641Z</time></trkpt><trkpt lat="41.9382463" lon="13.7122426"><ele>965.0</ele><time>2026-05-01T13:49:01.655Z</time></trkpt><trkpt lat="41.9380859" lon="13.7123419"><ele>965.0</ele><time>2026-05-01T13:49:02.646Z</time></trkpt><trkpt lat="41.9379339" lon="13.712436"><ele>965.0</ele><time>2026-05-01T13:49:03.647Z</time></trkpt><trkpt lat="41.9378076" lon="13.7125178"><ele>965.0</ele><time>2026-05-01T13:49:04.647Z</time></trkpt><trkpt lat="41.9377071" lon="13.7125762"><ele>965.0</ele><time>2026-05-01T13:49:05.637Z</time></trkpt><trkpt lat="41.9376217" lon="13.71261"><ele>965.4</ele><time>2026-05-01T13:49:06.65Z</time></trkpt><trkpt lat="41.9375382" lon="13.7126135"><ele>965.8</ele><time>2026-05-01T13:49:07.63Z</time></trkpt><trkpt lat="41.9374616" lon="13.7125537"><ele>966.2</ele><time>2026-05-01T13:49:08.64Z</time></trkpt><trkpt lat="41.9374171" lon="13.7124307"><ele>966.6</ele><time>2026-05-01T13:49:09.641Z</time></trkpt><trkpt lat="41.9374157" lon="13.7122792"><ele>967.0</ele><time>2026-05-01T13:49:10.64Z</time></trkpt><trkpt lat="41.9374279" lon="13.7121147"><ele>967.0</ele><time>2026-05-01T13:49:11.642Z</time></trkpt><trkpt lat="41.9374406" lon="13.7119209"><ele>967.0</ele><time>2026-05-01T13:49:12.634Z</time></trkpt><trkpt lat="41.9374511" lon="13.7117171"><ele>967.0</ele><time>2026-05-01T13:49:13.637Z</time></trkpt><trkpt lat="41.9374512" lon="13.7115062"><ele>962.3333333333333</ele><time>2026-05-01T13:49:14.64Z</time></trkpt><trkpt lat="41.9374298" lon="13.7113027"><ele>957.6666666666667</ele><time>2026-05-01T13:49:15.64Z</time></trkpt><trkpt lat="41.9373937" lon="13.7111082"><ele>953.0</ele><time>2026-05-01T13:49:16.628Z</time></trkpt><trkpt lat="41.9373439" lon="13.7109196"><ele>950.6666666666667</ele><time>2026-05-01T13:49:17.642Z</time></trkpt><trkpt lat="41.9372672" lon="13.7107507"><ele>948.3333333333333</ele><time>2026-05-01T13:49:18.643Z</time></trkpt><trkpt lat="41.9371621" lon="13.7106014"><ele>946.0</ele><time>2026-05-01T13:49:19.636Z</time></trkpt><trkpt lat="41.9370344" lon="13.710484"><ele>946.0</ele><time>2026-05-01T13:49:20.635Z</time></trkpt><trkpt lat="41.9368976" lon="13.7104077"><ele>946.0</ele><time>2026-05-01T13:49:21.644Z</time></trkpt><trkpt lat="41.9367676" lon="13.710364"><ele>946.0</ele><time>2026-05-01T13:49:22.643Z</time></trkpt><trkpt lat="41.9366368" lon="13.7103589"><ele>946.0</ele><time>2026-05-01T13:49:23.633Z</time></trkpt><trkpt lat="41.9364987" lon="13.7103927"><ele>954.3333333333333</ele><time>2026-05-01T13:49:24.652Z</time></trkpt><trkpt lat="41.9363641" lon="13.7104632"><ele>962.6666666666667</ele><time>2026-05-01T13:49:25.637Z</time></trkpt><trkpt lat="41.9362434" lon="13.7105829"><ele>971.0</ele><time>2026-05-01T13:49:26.64Z</time></trkpt><trkpt lat="41.9361344" lon="13.7107449"><ele>971.0</ele><time>2026-05-01T13:49:27.643Z</time></trkpt><trkpt lat="41.9360262" lon="13.7109379"><ele>971.0</ele><time>2026-05-01T13:49:28.639Z</time></trkpt><trkpt lat="41.9359116" lon="13.7111289"><ele>971.0</ele><time>2026-05-01T13:49:29.649Z</time></trkpt><trkpt lat="41.9357811" lon="13.7113103"><ele>974.0</ele><time>2026-05-01T13:49:30.643Z</time></trkpt><trkpt lat="41.9356396" lon="13.7114755"><ele>977.0</ele><time>2026-05-01T13:49:31.647Z</time></trkpt><trkpt lat="41.9354923" lon="13.7116285"><ele>980.0</ele><time>2026-05-01T13:49:32.64Z</time></trkpt><trkpt lat="41.9353392" lon="13.7117808"><ele>984.6666666666667</ele><time>2026-05-01T13:49:33.633Z</time></trkpt><trkpt lat="41.9351696" lon="13.7119169"><ele>989.3333333333333</ele><time>2026-05-01T13:49:34.645Z</time></trkpt><trkpt lat="41.9349847" lon="13.7120358"><ele>994.0</ele><time>2026-05-01T13:49:35.648Z</time></trkpt><trkpt lat="41.9348027" lon="13.7121345"><ele>994.0</ele><time>2026-05-01T13:49:36.646Z</time></trkpt><trkpt lat="41.9346329" lon="13.7122198"><ele>994.0</ele><time>2026-05-01T13:49:37.636Z</time></trkpt><trkpt lat="41.9344728" lon="13.7123028"><ele>994.0</ele><time>2026-05-01T13:49:38.644Z</time></trkpt><trkpt lat="41.9343143" lon="13.7123732"><ele>991.6666666666666</ele><time>2026-05-01T13:49:39.645Z</time></trkpt><trkpt lat="41.9341447" lon="13.712406"><ele>989.3333333333333</ele><time>2026-05-01T13:49:40.649Z</time></trkpt><trkpt lat="41.9339713" lon="13.7124046"><ele>987.0</ele><time>2026-05-01T13:49:41.642Z</time></trkpt><trkpt lat="41.9338034" lon="13.7123898"><ele>987.0</ele><time>2026-05-01T13:49:42.644Z</time></trkpt><trkpt lat="41.9336476" lon="13.712377"><ele>987.0</ele><time>2026-05-01T13:49:43.64Z</time></trkpt><trkpt lat="41.9335046" lon="13.7123623"><ele>987.0</ele><time>2026-05-01T13:49:44.645Z</time></trkpt><trkpt lat="41.9333828" lon="13.7123371"><ele>987.0</ele><time>2026-05-01T13:49:45.641Z</time></trkpt><trkpt lat="41.9332732" lon="13.7122882"><ele>987.0</ele><time>2026-05-01T13:49:46.644Z</time></trkpt><trkpt lat="41.9331775" lon="13.7122105"><ele>987.0</ele><time>2026-05-01T13:49:47.638Z</time></trkpt><trkpt lat="41.9331037" lon="13.7120975"><ele>987.0</ele><time>2026-05-01T13:49:48.636Z</time></trkpt><trkpt lat="41.9330593" lon="13.7119428"><ele>987.0</ele><time>2026-05-01T13:49:49.641Z</time></trkpt><trkpt lat="41.9330512" lon="13.7117578"><ele>987.0</ele><time>2026-05-01T13:49:50.645Z</time></trkpt><trkpt lat="41.9330754" lon="13.7115631"><ele>987.0</ele><time>2026-05-01T13:49:51.644Z</time></trkpt><trkpt lat="41.9331289" lon="13.7113668"><ele>987.0</ele><time>2026-05-01T13:49:52.638Z</time></trkpt><trkpt lat="41.9331936" lon="13.7111938"><ele>987.0</ele><time>2026-05-01T13:49:53.647Z</time></trkpt><trkpt lat="41.9332324" lon="13.71104"><ele>987.0</ele><time>2026-05-01T13:49:54.643Z</time></trkpt><trkpt lat="41.9332213" lon="13.7108979"><ele>987.0</ele><time>2026-05-01T13:49:55.653Z</time></trkpt><trkpt lat="41.9331686" lon="13.7107556"><ele>987.0</ele><time>2026-05-01T13:49:56.641Z</time></trkpt><trkpt lat="41.9330679" lon="13.710615"><ele>987.0</ele><time>2026-05-01T13:49:57.645Z</time></trkpt><trkpt lat="41.9329478" lon="13.7104828"><ele>987.0</ele><time>2026-05-01T13:49:58.645Z</time></trkpt><trkpt lat="41.9328258" lon="13.7103411"><ele>987.0</ele><time>2026-05-01T13:49:59.647Z</time></trkpt><trkpt lat="41.9327212" lon="13.7101686"><ele>987.0</ele><time>2026-05-01T13:50:00.651Z</time></trkpt><trkpt lat="41.9326524" lon="13.709968"><ele>988.3333333333333</ele><time>2026-05-01T13:50:01.649Z</time></trkpt><trkpt lat="41.9325966" lon="13.709748"><ele>989.6666666666666</ele><time>2026-05-01T13:50:02.642Z</time></trkpt><trkpt lat="41.9325295" lon="13.7095501"><ele>991.0</ele><time>2026-05-01T13:50:03.651Z</time></trkpt><trkpt lat="41.9324338" lon="13.7093813"><ele>991.0</ele><time>2026-05-01T13:50:04.643Z</time></trkpt><trkpt lat="41.9323111" lon="13.7092344"><ele>991.0</ele><time>2026-05-01T13:50:05.642Z</time></trkpt><trkpt lat="41.9321643" lon="13.7091152"><ele>991.0</ele><time>2026-05-01T13:50:06.654Z</time></trkpt><trkpt lat="41.9320117" lon="13.7090266"><ele>991.0</ele><time>2026-05-01T13:50:07.66Z</time></trkpt><trkpt lat="41.9318735" lon="13.7089443"><ele>991.0</ele><time>2026-05-01T13:50:08.646Z</time></trkpt><trkpt lat="41.9317618" lon="13.7088388"><ele>991.0</ele><time>2026-05-01T13:50:09.656Z</time></trkpt><trkpt lat="41.9316769" lon="13.7087083"><ele>991.0</ele><time>2026-05-01T13:50:10.644Z</time></trkpt><trkpt lat="41.9316155" lon="13.708573"><ele>992.75</ele><time>2026-05-01T13:50:11.644Z</time></trkpt><trkpt lat="41.9315524" lon="13.7084649"><ele>994.5</ele><time>2026-05-01T13:50:12.65Z</time></trkpt><trkpt lat="41.9314519" lon="13.7084372"><ele>996.25</ele><time>2026-05-01T13:50:13.649Z</time></trkpt><trkpt lat="41.9313358" lon="13.7084703"><ele>998.0</ele><time>2026-05-01T13:50:14.645Z</time></trkpt><trkpt lat="41.9312043" lon="13.7085458"><ele>1001.75</ele><time>2026-05-01T13:50:15.68Z</time></trkpt><trkpt lat="41.9310792" lon="13.7086346"><ele>1005.5</ele><time>2026-05-01T13:50:16.63Z</time></trkpt><trkpt lat="41.9309762" lon="13.7087673"><ele>1009.25</ele><time>2026-05-01T13:50:17.643Z</time></trkpt><trkpt lat="41.9308823" lon="13.7089298"><ele>1013.0</ele><time>2026-05-01T13:50:18.638Z</time></trkpt><trkpt lat="41.930776" lon="13.7090716"><ele>1013.8</ele><time>2026-05-01T13:50:19.643Z</time></trkpt><trkpt lat="41.9306542" lon="13.7091755"><ele>1014.5999999999999</ele><time>2026-05-01T13:50:20.645Z</time></trkpt><trkpt lat="41.9305411" lon="13.7092346"><ele>1015.4000000000001</ele><time>2026-05-01T13:50:21.644Z</time></trkpt><trkpt lat="41.9304495" lon="13.7092264"><ele>1016.2</ele><time>2026-05-01T13:50:22.63Z</time></trkpt><trkpt lat="41.9303775" lon="13.7091624"><ele>1017.0</ele><time>2026-05-01T13:50:23.643Z</time></trkpt><trkpt lat="41.930334" lon="13.7090387"><ele>1017.0</ele><time>2026-05-01T13:50:24.644Z</time></trkpt><trkpt lat="41.9303027" lon="13.7088907"><ele>1017.0</ele><time>2026-05-01T13:50:25.638Z</time></trkpt><trkpt lat="41.9302392" lon="13.7087652"><ele>1017.0</ele><time>2026-05-01T13:50:26.641Z</time></trkpt><trkpt lat="41.930132" lon="13.7086791"><ele>1017.0</ele><time>2026-05-01T13:50:27.637Z</time></trkpt><trkpt lat="41.9299883" lon="13.7086089"><ele>1016.6666666666667</ele><time>2026-05-01T13:50:28.638Z</time></trkpt><trkpt lat="41.9298288" lon="13.7085499"><ele>1016.3333333333334</ele><time>2026-05-01T13:50:29.636Z</time></trkpt><trkpt lat="41.9296509" lon="13.7084822"><ele>1016.0</ele><time>2026-05-01T13:50:30.642Z</time></trkpt><trkpt lat="41.9294706" lon="13.7084358"><ele>1016.0</ele><time>2026-05-01T13:50:31.635Z</time></trkpt><trkpt lat="41.9293013" lon="13.7084042"><ele>1016.0</ele><time>2026-05-01T13:50:32.642Z</time></trkpt><trkpt lat="41.9291489" lon="13.708382"><ele>1016.0</ele><time>2026-05-01T13:50:33.631Z</time></trkpt><trkpt lat="41.9290162" lon="13.7083569"><ele>1018.5999999999999</ele><time>2026-05-01T13:50:34.641Z</time></trkpt><trkpt lat="41.9289027" lon="13.7083234"><ele>1021.1999999999999</ele><time>2026-05-01T13:50:35.64Z</time></trkpt><trkpt lat="41.9288167" lon="13.7082618"><ele>1023.8000000000001</ele><time>2026-05-01T13:50:36.644Z</time></trkpt><trkpt lat="41.9287701" lon="13.7081608"><ele>1026.4</ele><time>2026-05-01T13:50:37.638Z</time></trkpt><trkpt lat="41.9287908" lon="13.7080291"><ele>1029.0</ele><time>2026-05-01T13:50:38.644Z</time></trkpt><trkpt lat="41.928856" lon="13.7079074"><ele>1029.0</ele><time>2026-05-01T13:50:39.644Z</time></trkpt><trkpt lat="41.9289382" lon="13.7077982"><ele>1029.0</ele><time>2026-05-01T13:50:40.642Z</time></trkpt><trkpt lat="41.9289967" lon="13.7076589"><ele>1029.0</ele><time>2026-05-01T13:50:41.642Z</time></trkpt><trkpt lat="41.9290053" lon="13.7075075"><ele>1029.0</ele><time>2026-05-01T13:50:42.64Z</time></trkpt><trkpt lat="41.9289567" lon="13.7073467"><ele>1028.75</ele><time>2026-05-01T13:50:43.641Z</time></trkpt><trkpt lat="41.9288643" lon="13.7071861"><ele>1028.5</ele><time>2026-05-01T13:50:44.636Z</time></trkpt><trkpt lat="41.9287711" lon="13.7070422"><ele>1028.25</ele><time>2026-05-01T13:50:45.635Z</time></trkpt><trkpt lat="41.9286986" lon="13.7069106"><ele>1028.0</ele><time>2026-05-01T13:50:46.638Z</time></trkpt><trkpt lat="41.9286718" lon="13.7067753"><ele>1030.0</ele><time>2026-05-01T13:50:47.637Z</time></trkpt><trkpt lat="41.9287069" lon="13.7066555"><ele>1032.0</ele><time>2026-05-01T13:50:48.643Z</time></trkpt><trkpt lat="41.9287931" lon="13.7065729"><ele>1034.0</ele><time>2026-05-01T13:50:49.63Z</time></trkpt><trkpt lat="41.9289202" lon="13.7065479"><ele>1036.0</ele><time>2026-05-01T13:50:50.629Z</time></trkpt><trkpt lat="41.9290714" lon="13.706522"><ele>1036.0</ele><time>2026-05-01T13:50:51.637Z</time></trkpt><trkpt lat="41.9292237" lon="13.7064911"><ele>1036.0</ele><time>2026-05-01T13:50:52.638Z</time></trkpt><trkpt lat="41.9293492" lon="13.7064352"><ele>1036.0</ele><time>2026-05-01T13:50:53.642Z</time></trkpt><trkpt lat="41.9294484" lon="13.7063207"><ele>1036.0</ele><time>2026-05-01T13:50:54.643Z</time></trkpt><trkpt lat="41.929529" lon="13.7061539"><ele>1035.75</ele><time>2026-05-01T13:50:55.629Z</time></trkpt><trkpt lat="41.9296078" lon="13.7059775"><ele>1035.5</ele><time>2026-05-01T13:50:56.64Z</time></trkpt><trkpt lat="41.9297036" lon="13.7058311"><ele>1035.25</ele><time>2026-05-01T13:50:57.644Z</time></trkpt><trkpt lat="41.9297978" lon="13.7057179"><ele>1035.0</ele><time>2026-05-01T13:50:58.643Z</time></trkpt><trkpt lat="41.929845" lon="13.7055865"><ele>1035.0</ele><time>2026-05-01T13:50:59.653Z</time></trkpt><trkpt lat="41.9298348" lon="13.7054286"><ele>1035.0</ele><time>2026-05-01T13:51:00.648Z</time></trkpt><trkpt lat="41.9297746" lon="13.7052504"><ele>1035.0</ele><time>2026-05-01T13:51:01.639Z</time></trkpt><trkpt lat="41.9296666" lon="13.7050885"><ele>1035.0</ele><time>2026-05-01T13:51:02.639Z</time></trkpt><trkpt lat="41.9295212" lon="13.7049712"><ele>1034.5</ele><time>2026-05-01T13:51:03.643Z</time></trkpt><trkpt lat="41.9293777" lon="13.7048588"><ele>1034.0</ele><time>2026-05-01T13:51:04.641Z</time></trkpt><trkpt lat="41.929251" lon="13.7047552"><ele>1033.5</ele><time>2026-05-01T13:51:05.648Z</time></trkpt><trkpt lat="41.929136" lon="13.7046706"><ele>1033.0</ele><time>2026-05-01T13:51:06.639Z</time></trkpt><trkpt lat="41.9290141" lon="13.7046229"><ele>1037.75</ele><time>2026-05-01T13:51:07.65Z</time></trkpt><trkpt lat="41.9288826" lon="13.7045987"><ele>1042.5</ele><time>2026-05-01T13:51:08.643Z</time></trkpt><trkpt lat="41.9287546" lon="13.7045834"><ele>1047.25</ele><time>2026-05-01T13:51:09.645Z</time></trkpt><trkpt lat="41.9286234" lon="13.7045373"><ele>1052.0</ele><time>2026-05-01T13:51:10.64Z</time></trkpt><trkpt lat="41.9284704" lon="13.7044588"><ele>1051.6666666666667</ele><time>2026-05-01T13:51:11.642Z</time></trkpt><trkpt lat="41.9283102" lon="13.7043529"><ele>1051.3333333333333</ele><time>2026-05-01T13:51:12.645Z</time></trkpt><trkpt lat="41.9281565" lon="13.7042452"><ele>1051.0</ele><time>2026-05-01T13:51:13.637Z</time></trkpt><trkpt lat="41.9280182" lon="13.7041633"><ele>1051.0</ele><time>2026-05-01T13:51:14.651Z</time></trkpt><trkpt lat="41.9278988" lon="13.7040586"><ele>1051.0</ele><time>2026-05-01T13:51:15.633Z</time></trkpt><trkpt lat="41.9277944" lon="13.7039031"><ele>1051.0</ele><time>2026-05-01T13:51:16.638Z</time></trkpt><trkpt lat="41.9277322" lon="13.7036888"><ele>1045.6666666666665</ele><time>2026-05-01T13:51:17.635Z</time></trkpt><trkpt lat="41.9276978" lon="13.7034654"><ele>1040.3333333333333</ele><time>2026-05-01T13:51:18.632Z</time></trkpt><trkpt lat="41.927662" lon="13.7032681"><ele>1035.0</ele><time>2026-05-01T13:51:19.641Z</time></trkpt><trkpt lat="41.9276014" lon="13.7030908"><ele>1044.0</ele><time>2026-05-01T13:51:20.638Z</time></trkpt><trkpt lat="41.9274913" lon="13.7029493"><ele>1053.0</ele><time>2026-05-01T13:51:21.641Z</time></trkpt><trkpt lat="41.9273367" lon="13.7028576"><ele>1062.0</ele><time>2026-05-01T13:51:22.632Z</time></trkpt><trkpt lat="41.9271443" lon="13.7027959"><ele>1062.0</ele><time>2026-05-01T13:51:23.643Z</time></trkpt><trkpt lat="41.926965" lon="13.7027601"><ele>1062.0</ele><time>2026-05-01T13:51:24.633Z</time></trkpt><trkpt lat="41.9268103" lon="13.7027323"><ele>1062.0</ele><time>2026-05-01T13:51:25.635Z</time></trkpt><trkpt lat="41.9266636" lon="13.7027331"><ele>1066.3333333333333</ele><time>2026-05-01T13:51:26.641Z</time></trkpt><trkpt lat="41.9265057" lon="13.7027731"><ele>1070.6666666666665</ele><time>2026-05-01T13:51:27.646Z</time></trkpt><trkpt lat="41.9263191" lon="13.7028768"><ele>1075.0</ele><time>2026-05-01T13:51:28.637Z</time></trkpt><trkpt lat="41.9261262" lon="13.7030235"><ele>1075.0</ele><time>2026-05-01T13:51:29.675Z</time></trkpt><trkpt lat="41.9259362" lon="13.7031536"><ele>1075.0</ele><time>2026-05-01T13:51:30.644Z</time></trkpt><trkpt lat="41.9257555" lon="13.7032957"><ele>1075.0</ele><time>2026-05-01T13:51:31.651Z</time></trkpt><trkpt lat="41.9255782" lon="13.7034735"><ele>1081.3333333333333</ele><time>2026-05-01T13:51:32.644Z</time></trkpt><trkpt lat="41.9254105" lon="13.7036633"><ele>1087.6666666666667</ele><time>2026-05-01T13:51:33.643Z</time></trkpt><trkpt lat="41.9252512" lon="13.7038447"><ele>1094.0</ele><time>2026-05-01T13:51:34.646Z</time></trkpt><trkpt lat="41.9250741" lon="13.7039981"><ele>1090.3333333333335</ele><time>2026-05-01T13:51:35.643Z</time></trkpt><trkpt lat="41.9248889" lon="13.7041231"><ele>1086.6666666666667</ele><time>2026-05-01T13:51:36.636Z</time></trkpt><trkpt lat="41.9247081" lon="13.7042275"><ele>1083.0</ele><time>2026-05-01T13:51:37.65Z</time></trkpt><trkpt lat="41.9245429" lon="13.7043231"><ele>1085.0</ele><time>2026-05-01T13:51:38.644Z</time></trkpt><trkpt lat="41.9243821" lon="13.7044261"><ele>1087.0</ele><time>2026-05-01T13:51:39.636Z</time></trkpt><trkpt lat="41.9242256" lon="13.7045481"><ele>1089.0</ele><time>2026-05-01T13:51:40.638Z</time></trkpt><trkpt lat="41.9240767" lon="13.704701"><ele>1089.0</ele><time>2026-05-01T13:51:41.634Z</time></trkpt><trkpt lat="41.9239231" lon="13.7048768"><ele>1089.0</ele><time>2026-05-01T13:51:42.639Z</time></trkpt><trkpt lat="41.9237666" lon="13.7050615"><ele>1089.0</ele><time>2026-05-01T13:51:43.639Z</time></trkpt><trkpt lat="41.9236112" lon="13.7052341"><ele>1088.6666666666667</ele><time>2026-05-01T13:51:44.642Z</time></trkpt><trkpt lat="41.9234684" lon="13.7053893"><ele>1088.3333333333335</ele><time>2026-05-01T13:51:45.647Z</time></trkpt><trkpt lat="41.923342" lon="13.7055275"><ele>1088.0</ele><time>2026-05-01T13:51:46.638Z</time></trkpt><trkpt lat="41.923234" lon="13.7056558"><ele>1088.0</ele><time>2026-05-01T13:51:47.66Z</time></trkpt><trkpt lat="41.9231467" lon="13.705812"><ele>1088.0</ele><time>2026-05-01T13:51:48.643Z</time></trkpt><trkpt lat="41.9230851" lon="13.706008"><ele>1088.0</ele><time>2026-05-01T13:51:49.645Z</time></trkpt><trkpt lat="41.9230391" lon="13.7062371"><ele>1092.0</ele><time>2026-05-01T13:51:50.632Z</time></trkpt><trkpt lat="41.9229816" lon="13.7064821"><ele>1096.0</ele><time>2026-05-01T13:51:51.633Z</time></trkpt><trkpt lat="41.9229222" lon="13.7067502"><ele>1100.0</ele><time>2026-05-01T13:51:52.64Z</time></trkpt><trkpt lat="41.922858" lon="13.7070352"><ele>1104.3333333333335</ele><time>2026-05-01T13:51:53.644Z</time></trkpt><trkpt lat="41.9227891" lon="13.7073272"><ele>1108.6666666666667</ele><time>2026-05-01T13:51:54.646Z</time></trkpt><trkpt lat="41.9227214" lon="13.7075999"><ele>1113.0</ele><time>2026-05-01T13:51:55.656Z</time></trkpt><trkpt lat="41.9226622" lon="13.7078424"><ele>1116.6666666666667</ele><time>2026-05-01T13:51:56.641Z</time></trkpt><trkpt lat="41.9226105" lon="13.7080493"><ele>1120.3333333333335</ele><time>2026-05-01T13:51:57.643Z</time></trkpt><trkpt lat="41.922579" lon="13.7082481"><ele>1124.0</ele><time>2026-05-01T13:51:58.645Z</time></trkpt><trkpt lat="41.9225715" lon="13.7084678"><ele>1126.0</ele><time>2026-05-01T13:51:59.638Z</time></trkpt><trkpt lat="41.9225936" lon="13.7087127"><ele>1128.0</ele><time>2026-05-01T13:52:00.65Z</time></trkpt><trkpt lat="41.9226183" lon="13.7089662"><ele>1130.0</ele><time>2026-05-01T13:52:01.633Z</time></trkpt><trkpt lat="41.9226319" lon="13.7092003"><ele>1130.5</ele><time>2026-05-01T13:52:02.641Z</time></trkpt><trkpt lat="41.9226311" lon="13.7094097"><ele>1131.0</ele><time>2026-05-01T13:52:03.638Z</time></trkpt><trkpt lat="41.9226107" lon="13.7096017"><ele>1131.5</ele><time>2026-05-01T13:52:04.637Z</time></trkpt><trkpt lat="41.9225599" lon="13.7097794"><ele>1132.0</ele><time>2026-05-01T13:52:05.641Z</time></trkpt><trkpt lat="41.922486" lon="13.7099494"><ele>1129.0</ele><time>2026-05-01T13:52:06.643Z</time></trkpt><trkpt lat="41.9224364" lon="13.7101429"><ele>1126.0</ele><time>2026-05-01T13:52:07.653Z</time></trkpt><trkpt lat="41.9224111" lon="13.7103608"><ele>1123.0</ele><time>2026-05-01T13:52:08.644Z</time></trkpt><trkpt lat="41.9223596" lon="13.7105761"><ele>1123.0</ele><time>2026-05-01T13:52:09.65Z</time></trkpt><trkpt lat="41.9222706" lon="13.7107814"><ele>1123.0</ele><time>2026-05-01T13:52:10.642Z</time></trkpt><trkpt lat="41.9221605" lon="13.71099"><ele>1123.0</ele><time>2026-05-01T13:52:11.637Z</time></trkpt><trkpt lat="41.9220592" lon="13.7111905"><ele>1127.0</ele><time>2026-05-01T13:52:12.635Z</time></trkpt><trkpt lat="41.921967" lon="13.7113749"><ele>1131.0</ele><time>2026-05-01T13:52:13.64Z</time></trkpt><trkpt lat="41.9218826" lon="13.7115391"><ele>1135.0</ele><time>2026-05-01T13:52:14.639Z</time></trkpt><trkpt lat="41.9218122" lon="13.7116992"><ele>1135.0</ele><time>2026-05-01T13:52:15.639Z</time></trkpt><trkpt lat="41.9217637" lon="13.7118738"><ele>1135.0</ele><time>2026-05-01T13:52:16.66Z</time></trkpt><trkpt lat="41.9217418" lon="13.7120656"><ele>1135.0</ele><time>2026-05-01T13:52:17.649Z</time></trkpt><trkpt lat="41.9217475" lon="13.7122799"><ele>1135.0</ele><time>2026-05-01T13:52:18.638Z</time></trkpt><trkpt lat="41.9217724" lon="13.712507"><ele>1135.3333333333333</ele><time>2026-05-01T13:52:19.638Z</time></trkpt><trkpt lat="41.921806" lon="13.7127416"><ele>1135.6666666666667</ele><time>2026-05-01T13:52:20.639Z</time></trkpt><trkpt lat="41.9218541" lon="13.7129831"><ele>1136.0</ele><time>2026-05-01T13:52:21.644Z</time></trkpt><trkpt lat="41.9219072" lon="13.7132305"><ele>1136.0</ele><time>2026-05-01T13:52:22.646Z</time></trkpt><trkpt lat="41.9219499" lon="13.7134778"><ele>1136.0</ele><time>2026-05-01T13:52:23.646Z</time></trkpt><trkpt lat="41.9219917" lon="13.7137235"><ele>1136.0</ele><time>2026-05-01T13:52:24.645Z</time></trkpt><trkpt lat="41.9220299" lon="13.7139578"><ele>1134.6666666666667</ele><time>2026-05-01T13:52:25.643Z</time></trkpt><trkpt lat="41.9220619" lon="13.7141777"><ele>1133.3333333333333</ele><time>2026-05-01T13:52:26.646Z</time></trkpt><trkpt lat="41.9220918" lon="13.7143814"><ele>1132.0</ele><time>2026-05-01T13:52:27.637Z</time></trkpt><trkpt lat="41.9221151" lon="13.7145582"><ele>1131.2</ele><time>2026-05-01T13:52:28.646Z</time></trkpt><trkpt lat="41.9221366" lon="13.7146975"><ele>1130.4</ele><time>2026-05-01T13:52:29.642Z</time></trkpt><trkpt lat="41.9221715" lon="13.7148053"><ele>1129.6</ele><time>2026-05-01T13:52:30.652Z</time></trkpt><trkpt lat="41.9222313" lon="13.7148819"><ele>1128.8</ele><time>2026-05-01T13:52:31.644Z</time></trkpt><trkpt lat="41.9223275" lon="13.7148979"><ele>1128.0</ele><time>2026-05-01T13:52:32.652Z</time></trkpt><trkpt lat="41.9224345" lon="13.714863"><ele>1128.0</ele><time>2026-05-01T13:52:33.649Z</time></trkpt><trkpt lat="41.9225514" lon="13.714787"><ele>1128.0</ele><time>2026-05-01T13:52:34.638Z</time></trkpt><trkpt lat="41.922673" lon="13.7147076"><ele>1128.0</ele><time>2026-05-01T13:52:35.634Z</time></trkpt><trkpt lat="41.9227799" lon="13.714622"><ele>1128.0</ele><time>2026-05-01T13:52:36.639Z</time></trkpt><trkpt lat="41.9228685" lon="13.7144975"><ele>1129.6666666666667</ele><time>2026-05-01T13:52:37.642Z</time></trkpt><trkpt lat="41.92292" lon="13.7143169"><ele>1131.3333333333335</ele><time>2026-05-01T13:52:38.645Z</time></trkpt><trkpt lat="41.9229516" lon="13.7140913"><ele>1133.0</ele><time>2026-05-01T13:52:39.646Z</time></trkpt><trkpt lat="41.922988" lon="13.7138526"><ele>1133.0</ele><time>2026-05-01T13:52:40.641Z</time></trkpt><trkpt lat="41.9230257" lon="13.7136139"><ele>1133.0</ele><time>2026-05-01T13:52:41.641Z</time></trkpt><trkpt lat="41.9230559" lon="13.7133895"><ele>1133.0</ele><time>2026-05-01T13:52:42.648Z</time></trkpt><trkpt lat="41.9230798" lon="13.713187"><ele>1133.75</ele><time>2026-05-01T13:52:43.654Z</time></trkpt><trkpt lat="41.9230992" lon="13.7130093"><ele>1134.5</ele><time>2026-05-01T13:52:44.644Z</time></trkpt><trkpt lat="41.9231245" lon="13.7128582"><ele>1135.25</ele><time>2026-05-01T13:52:45.643Z</time></trkpt><trkpt lat="41.9231753" lon="13.7127415"><ele>1136.0</ele><time>2026-05-01T13:52:46.645Z</time></trkpt><trkpt lat="41.9232635" lon="13.7126559"><ele>1136.75</ele><time>2026-05-01T13:52:47.647Z</time></trkpt><trkpt lat="41.9233868" lon="13.7126067"><ele>1137.5</ele><time>2026-05-01T13:52:48.64Z</time></trkpt><trkpt lat="41.9235353" lon="13.7125842"><ele>1138.25</ele><time>2026-05-01T13:52:49.638Z</time></trkpt><trkpt lat="41.9237033" lon="13.7125714"><ele>1139.0</ele><time>2026-05-01T13:52:50.64Z</time></trkpt><trkpt lat="41.9238856" lon="13.7125152"><ele>1140.6666666666667</ele><time>2026-05-01T13:52:51.653Z</time></trkpt><trkpt lat="41.9240817" lon="13.712427"><ele>1142.3333333333333</ele><time>2026-05-01T13:52:52.644Z</time></trkpt><trkpt lat="41.9242936" lon="13.7123327"><ele>1144.0</ele><time>2026-05-01T13:52:53.642Z</time></trkpt><trkpt lat="41.9245145" lon="13.7122358"><ele>1147.3333333333333</ele><time>2026-05-01T13:52:54.64Z</time></trkpt><trkpt lat="41.9247252" lon="13.7121489"><ele>1150.6666666666667</ele><time>2026-05-01T13:52:55.641Z</time></trkpt><trkpt lat="41.9249135" lon="13.7120714"><ele>1154.0</ele><time>2026-05-01T13:52:56.642Z</time></trkpt><trkpt lat="41.9250862" lon="13.7120112"><ele>1154.0</ele><time>2026-05-01T13:52:57.65Z</time></trkpt><trkpt lat="41.9252484" lon="13.7119828"><ele>1154.0</ele><time>2026-05-01T13:52:58.645Z</time></trkpt><trkpt lat="41.925385" lon="13.711971"><ele>1154.0</ele><time>2026-05-01T13:52:59.645Z</time></trkpt><trkpt lat="41.9255051" lon="13.7119866"><ele>1154.0</ele><time>2026-05-01T13:53:00.649Z</time></trkpt><trkpt lat="41.9256122" lon="13.7120339"><ele>1154.0</ele><time>2026-05-01T13:53:01.634Z</time></trkpt><trkpt lat="41.9257054" lon="13.7121318"><ele>1154.0</ele><time>2026-05-01T13:53:02.656Z</time></trkpt><trkpt lat="41.9257571" lon="13.7122659"><ele>1154.0</ele><time>2026-05-01T13:53:03.643Z</time></trkpt><trkpt lat="41.9257852" lon="13.7124289"><ele>1154.0</ele><time>2026-05-01T13:53:04.65Z</time></trkpt><trkpt lat="41.9257989" lon="13.7126203"><ele>1151.0</ele><time>2026-05-01T13:53:05.642Z</time></trkpt><trkpt lat="41.925825" lon="13.7128243"><ele>1148.0</ele><time>2026-05-01T13:53:06.648Z</time></trkpt><trkpt lat="41.9258892" lon="13.7130174"><ele>1145.0</ele><time>2026-05-01T13:53:07.647Z</time></trkpt><trkpt lat="41.9259736" lon="13.713193"><ele>1145.0</ele><time>2026-05-01T13:53:08.641Z</time></trkpt><trkpt lat="41.9260457" lon="13.7133595"><ele>1145.0</ele><time>2026-05-01T13:53:09.64Z</time></trkpt><trkpt lat="41.9260756" lon="13.7135372"><ele>1145.0</ele><time>2026-05-01T13:53:10.646Z</time></trkpt><trkpt lat="41.9260839" lon="13.7137375"><ele>1145.0</ele><time>2026-05-01T13:53:11.643Z</time></trkpt><trkpt lat="41.9261155" lon="13.7139535"><ele>1145.6666666666667</ele><time>2026-05-01T13:53:12.643Z</time></trkpt><trkpt lat="41.9261762" lon="13.71418"><ele>1146.3333333333333</ele><time>2026-05-01T13:53:13.649Z</time></trkpt><trkpt lat="41.9262264" lon="13.7144281"><ele>1147.0</ele><time>2026-05-01T13:53:14.638Z</time></trkpt><trkpt lat="41.9262512" lon="13.7146876"><ele>1149.3333333333333</ele><time>2026-05-01T13:53:15.654Z</time></trkpt><trkpt lat="41.9262753" lon="13.7149273"><ele>1151.6666666666667</ele><time>2026-05-01T13:53:16.636Z</time></trkpt><trkpt lat="41.9263117" lon="13.7151401"><ele>1154.0</ele><time>2026-05-01T13:53:17.639Z</time></trkpt><trkpt lat="41.9263509" lon="13.7153303"><ele>1155.75</ele><time>2026-05-01T13:53:18.64Z</time></trkpt><trkpt lat="41.9263766" lon="13.7155079"><ele>1157.5</ele><time>2026-05-01T13:53:19.65Z</time></trkpt><trkpt lat="41.926385" lon="13.715688"><ele>1159.25</ele><time>2026-05-01T13:53:20.64Z</time></trkpt><trkpt lat="41.9263738" lon="13.7158772"><ele>1161.0</ele><time>2026-05-01T13:53:21.657Z</time></trkpt><trkpt lat="41.9263494" lon="13.7160642"><ele>1164.0</ele><time>2026-05-01T13:53:22.635Z</time></trkpt><trkpt lat="41.9263188" lon="13.7162388"><ele>1167.0</ele><time>2026-05-01T13:53:23.646Z</time></trkpt><trkpt lat="41.9262691" lon="13.7163914"><ele>1170.0</ele><time>2026-05-01T13:53:24.645Z</time></trkpt><trkpt lat="41.9261855" lon="13.7165188"><ele>1173.0</ele><time>2026-05-01T13:53:25.645Z</time></trkpt><trkpt lat="41.9260723" lon="13.7166278"><ele>1173.0</ele><time>2026-05-01T13:53:26.649Z</time></trkpt><trkpt lat="41.92594" lon="13.7167341"><ele>1173.0</ele><time>2026-05-01T13:53:27.644Z</time></trkpt><trkpt lat="41.9257985" lon="13.7168443"><ele>1173.0</ele><time>2026-05-01T13:53:28.645Z</time></trkpt><trkpt lat="41.9256641" lon="13.7169406"><ele>1181.25</ele><time>2026-05-01T13:53:29.647Z</time></trkpt><trkpt lat="41.9255372" lon="13.7170083"><ele>1189.5</ele><time>2026-05-01T13:53:30.656Z</time></trkpt><trkpt lat="41.925416" lon="13.7170264"><ele>1197.75</ele><time>2026-05-01T13:53:31.644Z</time></trkpt><trkpt lat="41.9252982" lon="13.7169923"><ele>1206.0</ele><time>2026-05-01T13:53:32.653Z</time></trkpt><trkpt lat="41.9251879" lon="13.7169128"><ele>1205.0</ele><time>2026-05-01T13:53:33.642Z</time></trkpt><trkpt lat="41.9250779" lon="13.7168302"><ele>1204.0</ele><time>2026-05-01T13:53:34.635Z</time></trkpt><trkpt lat="41.9249708" lon="13.7167968"><ele>1203.0</ele><time>2026-05-01T13:53:35.654Z</time></trkpt><trkpt lat="41.9248765" lon="13.7168544"><ele>1202.0</ele><time>2026-05-01T13:53:36.637Z</time></trkpt><trkpt lat="41.924783" lon="13.7169737"><ele>1202.0</ele><time>2026-05-01T13:53:37.637Z</time></trkpt><trkpt lat="41.9247022" lon="13.7171308"><ele>1202.0</ele><time>2026-05-01T13:53:38.64Z</time></trkpt><trkpt lat="41.9246077" lon="13.7173015"><ele>1202.0</ele><time>2026-05-01T13:53:39.641Z</time></trkpt><trkpt lat="41.9244949" lon="13.7174832"><ele>1202.0</ele><time>2026-05-01T13:53:40.64Z</time></trkpt><trkpt lat="41.9243607" lon="13.717663"><ele>1202.0</ele><time>2026-05-01T13:53:41.646Z</time></trkpt><trkpt lat="41.924206" lon="13.717834"><ele>1202.0</ele><time>2026-05-01T13:53:42.644Z</time></trkpt><trkpt lat="41.9240308" lon="13.7179892"><ele>1207.0</ele><time>2026-05-01T13:53:43.638Z</time></trkpt><trkpt lat="41.923844" lon="13.7181459"><ele>1212.0</ele><time>2026-05-01T13:53:44.644Z</time></trkpt><trkpt lat="41.9236412" lon="13.7183123"><ele>1212.0</ele><time>2026-05-01T13:53:45.646Z</time></trkpt><trkpt lat="41.9234258" lon="13.7184842"><ele>1212.0</ele><time>2026-05-01T13:53:46.636Z</time></trkpt><trkpt lat="41.9232164" lon="13.7186515"><ele>1217.0</ele><time>2026-05-01T13:53:47.649Z</time></trkpt><trkpt lat="41.9230134" lon="13.7187974"><ele>1222.0</ele><time>2026-05-01T13:53:48.641Z</time></trkpt><trkpt lat="41.9228231" lon="13.7189289"><ele>1227.0</ele><time>2026-05-01T13:53:49.642Z</time></trkpt><trkpt lat="41.9226297" lon="13.7190548"><ele>1232.0</ele><time>2026-05-01T13:53:50.636Z</time></trkpt><trkpt lat="41.922437" lon="13.7191788"><ele>1237.0</ele><time>2026-05-01T13:53:51.646Z</time></trkpt><trkpt lat="41.9222369" lon="13.7192933"><ele>1242.0</ele><time>2026-05-01T13:53:52.646Z</time></trkpt><trkpt lat="41.9220445" lon="13.7194146"><ele>1242.0</ele><time>2026-05-01T13:53:53.631Z</time></trkpt><trkpt lat="41.9218667" lon="13.71953"><ele>1242.0</ele><time>2026-05-01T13:53:54.659Z</time></trkpt><trkpt lat="41.9217038" lon="13.7196439"><ele>1242.0</ele><time>2026-05-01T13:53:55.643Z</time></trkpt><trkpt lat="41.9215469" lon="13.7197617"><ele>1245.3333333333333</ele><time>2026-05-01T13:53:56.635Z</time></trkpt><trkpt lat="41.9213941" lon="13.7199014"><ele>1248.6666666666665</ele><time>2026-05-01T13:53:57.637Z</time></trkpt><trkpt lat="41.921248" lon="13.7200659"><ele>1252.0</ele><time>2026-05-01T13:53:58.626Z</time></trkpt><trkpt lat="41.9211086" lon="13.7202573"><ele>1252.0</ele><time>2026-05-01T13:53:59.653Z</time></trkpt><trkpt lat="41.9209653" lon="13.7204582"><ele>1252.0</ele><time>2026-05-01T13:54:00.636Z</time></trkpt><trkpt lat="41.9208186" lon="13.7206587"><ele>1252.0</ele><time>2026-05-01T13:54:01.636Z</time></trkpt><trkpt lat="41.9206728" lon="13.7208548"><ele>1251.6666666666665</ele><time>2026-05-01T13:54:02.643Z</time></trkpt><trkpt lat="41.9205375" lon="13.7210383"><ele>1251.3333333333333</ele><time>2026-05-01T13:54:03.637Z</time></trkpt><trkpt lat="41.9204097" lon="13.7212136"><ele>1251.0</ele><time>2026-05-01T13:54:04.64Z</time></trkpt><trkpt lat="41.9202875" lon="13.7213811"><ele>1251.0</ele><time>2026-05-01T13:54:05.644Z</time></trkpt><trkpt lat="41.9201841" lon="13.7215445"><ele>1251.0</ele><time>2026-05-01T13:54:06.65Z</time></trkpt><trkpt lat="41.9200995" lon="13.7217196"><ele>1251.0</ele><time>2026-05-01T13:54:07.642Z</time></trkpt><trkpt lat="41.9200337" lon="13.7219183"><ele>1249.25</ele><time>2026-05-01T13:54:08.63Z</time></trkpt><trkpt lat="41.9199864" lon="13.7221138"><ele>1247.5</ele><time>2026-05-01T13:54:09.665Z</time></trkpt><trkpt lat="41.9199349" lon="13.7222697"><ele>1245.75</ele><time>2026-05-01T13:54:10.636Z</time></trkpt><trkpt lat="41.9198858" lon="13.7223835"><ele>1244.0</ele><time>2026-05-01T13:54:11.645Z</time></trkpt><trkpt lat="41.9198252" lon="13.7224599"><ele>1244.0</ele><time>2026-05-01T13:54:12.636Z</time></trkpt><trkpt lat="41.9197463" lon="13.7224885"><ele>1244.0</ele><time>2026-05-01T13:54:13.632Z</time></trkpt><trkpt lat="41.9196637" lon="13.7224697"><ele>1244.0</ele><time>2026-05-01T13:54:14.659Z</time></trkpt><trkpt lat="41.919585" lon="13.7223861"><ele>1244.0</ele><time>2026-05-01T13:54:15.633Z</time></trkpt><trkpt lat="41.9194995" lon="13.7222791"><ele>1244.0</ele><time>2026-05-01T13:54:16.635Z</time></trkpt><trkpt lat="41.919391" lon="13.7221805"><ele>1244.0</ele><time>2026-05-01T13:54:17.635Z</time></trkpt><trkpt lat="41.9192675" lon="13.7221118"><ele>1244.0</ele><time>2026-05-01T13:54:18.642Z</time></trkpt><trkpt lat="41.9191279" lon="13.7220804"><ele>1244.0</ele><time>2026-05-01T13:54:19.653Z</time></trkpt><trkpt lat="41.9189887" lon="13.7220984"><ele>1244.0</ele><time>2026-05-01T13:54:20.631Z</time></trkpt><trkpt lat="41.918841" lon="13.7221861"><ele>1244.3333333333335</ele><time>2026-05-01T13:54:21.637Z</time></trkpt><trkpt lat="41.9186887" lon="13.7222999"><ele>1244.6666666666667</ele><time>2026-05-01T13:54:22.631Z</time></trkpt><trkpt lat="41.9185278" lon="13.7224181"><ele>1245.0</ele><time>2026-05-01T13:54:23.64Z</time></trkpt><trkpt lat="41.9183577" lon="13.7225195"><ele>1242.3333333333333</ele><time>2026-05-01T13:54:24.633Z</time></trkpt><trkpt lat="41.9181842" lon="13.7226069"><ele>1239.6666666666665</ele><time>2026-05-01T13:54:25.633Z</time></trkpt><trkpt lat="41.9180265" lon="13.7226877"><ele>1237.0</ele><time>2026-05-01T13:54:26.636Z</time></trkpt><trkpt lat="41.9178788" lon="13.7227767"><ele>1241.3333333333333</ele><time>2026-05-01T13:54:27.639Z</time></trkpt><trkpt lat="41.9177349" lon="13.7228929"><ele>1245.6666666666667</ele><time>2026-05-01T13:54:28.637Z</time></trkpt><trkpt lat="41.917589" lon="13.7230405"><ele>1250.0</ele><time>2026-05-01T13:54:29.648Z</time></trkpt><trkpt lat="41.9174631" lon="13.7231924"><ele>1250.0</ele><time>2026-05-01T13:54:30.641Z</time></trkpt><trkpt lat="41.9173487" lon="13.7233246"><ele>1250.0</ele><time>2026-05-01T13:54:31.631Z</time></trkpt><trkpt lat="41.9172225" lon="13.7234169"><ele>1250.0</ele><time>2026-05-01T13:54:32.64Z</time></trkpt><trkpt lat="41.9170741" lon="13.7234829"><ele>1250.0</ele><time>2026-05-01T13:54:33.629Z</time></trkpt><trkpt lat="41.9169155" lon="13.7235447"><ele>1250.0</ele><time>2026-05-01T13:54:34.648Z</time></trkpt><trkpt lat="41.9167554" lon="13.7236276"><ele>1250.0</ele><time>2026-05-01T13:54:35.638Z</time></trkpt><trkpt lat="41.9165864" lon="13.7237067"><ele>1255.6666666666667</ele><time>2026-05-01T13:54:36.642Z</time></trkpt><trkpt lat="41.9164023" lon="13.7237528"><ele>1261.3333333333333</ele><time>2026-05-01T13:54:37.644Z</time></trkpt><trkpt lat="41.9162303" lon="13.7237901"><ele>1267.0</ele><time>2026-05-01T13:54:38.638Z</time></trkpt><trkpt lat="41.9160664" lon="13.7238553"><ele>1267.0</ele><time>2026-05-01T13:54:39.635Z</time></trkpt><trkpt lat="41.9159086" lon="13.7239454"><ele>1267.0</ele><time>2026-05-01T13:54:40.632Z</time></trkpt><trkpt lat="41.9157566" lon="13.7240033"><ele>1267.0</ele><time>2026-05-01T13:54:41.643Z</time></trkpt><trkpt lat="41.9156104" lon="13.7240275"><ele>1266.0</ele><time>2026-05-01T13:54:42.634Z</time></trkpt><trkpt lat="41.9154758" lon="13.7240168"><ele>1265.0</ele><time>2026-05-01T13:54:43.637Z</time></trkpt><trkpt lat="41.9153562" lon="13.7239864"><ele>1264.0</ele><time>2026-05-01T13:54:44.638Z</time></trkpt><trkpt lat="41.915254" lon="13.7239194"><ele>1263.0</ele><time>2026-05-01T13:54:45.634Z</time></trkpt><trkpt lat="41.9151623" lon="13.7238231"><ele>1263.0</ele><time>2026-05-01T13:54:46.631Z</time></trkpt><trkpt lat="41.9150883" lon="13.7236707"><ele>1263.0</ele><time>2026-05-01T13:54:47.634Z</time></trkpt><trkpt lat="41.9150469" lon="13.7234964"><ele>1263.0</ele><time>2026-05-01T13:54:48.648Z</time></trkpt><trkpt lat="41.9150342" lon="13.7233099"><ele>1263.0</ele><time>2026-05-01T13:54:49.648Z</time></trkpt><trkpt lat="41.915056" lon="13.7231319"><ele>1261.0</ele><time>2026-05-01T13:54:50.64Z</time></trkpt><trkpt lat="41.9151111" lon="13.7229759"><ele>1259.0</ele><time>2026-05-01T13:54:51.64Z</time></trkpt><trkpt lat="41.9151949" lon="13.722862"><ele>1257.0</ele><time>2026-05-01T13:54:52.63Z</time></trkpt><trkpt lat="41.9153066" lon="13.7228067"><ele>1255.0</ele><time>2026-05-01T13:54:53.634Z</time></trkpt><trkpt lat="41.9154228" lon="13.7228103"><ele>1255.0</ele><time>2026-05-01T13:54:54.638Z</time></trkpt><trkpt lat="41.915523" lon="13.7228311"><ele>1255.0</ele><time>2026-05-01T13:54:55.643Z</time></trkpt><trkpt lat="41.915602" lon="13.7228119"><ele>1255.0</ele><time>2026-05-01T13:54:56.646Z</time></trkpt><trkpt lat="41.9156571" lon="13.7226919"><ele>1255.0</ele><time>2026-05-01T13:54:57.643Z</time></trkpt><trkpt lat="41.9156758" lon="13.7225349"><ele>1255.0</ele><time>2026-05-01T13:54:58.66Z</time></trkpt><trkpt lat="41.9156644" lon="13.7223462"><ele>1256.3333333333333</ele><time>2026-05-01T13:54:59.643Z</time></trkpt><trkpt lat="41.9156449" lon="13.7221423"><ele>1257.6666666666667</ele><time>2026-05-01T13:55:00.643Z</time></trkpt><trkpt lat="41.9156317" lon="13.7219276"><ele>1259.0</ele><time>2026-05-01T13:55:01.644Z</time></trkpt><trkpt lat="41.9156055" lon="13.7216945"><ele>1260.6666666666667</ele><time>2026-05-01T13:55:02.649Z</time></trkpt><trkpt lat="41.9155645" lon="13.7214766"><ele>1262.3333333333333</ele><time>2026-05-01T13:55:03.641Z</time></trkpt><trkpt lat="41.915509" lon="13.7212871"><ele>1264.0</ele><time>2026-05-01T13:55:04.639Z</time></trkpt><trkpt lat="41.9154676" lon="13.7211154"><ele>1265.8</ele><time>2026-05-01T13:55:05.641Z</time></trkpt><trkpt lat="41.9154702" lon="13.7209626"><ele>1267.6000000000001</ele><time>2026-05-01T13:55:06.64Z</time></trkpt><trkpt lat="41.9155142" lon="13.7208347"><ele>1269.4</ele><time>2026-05-01T13:55:07.678Z</time></trkpt><trkpt lat="41.9155948" lon="13.7207561"><ele>1271.2</ele><time>2026-05-01T13:55:08.646Z</time></trkpt><trkpt lat="41.9157031" lon="13.7207499"><ele>1273.0</ele><time>2026-05-01T13:55:09.644Z</time></trkpt><trkpt lat="41.9158184" lon="13.7207703"><ele>1267.25</ele><time>2026-05-01T13:55:10.642Z</time></trkpt><trkpt lat="41.9159372" lon="13.7207866"><ele>1261.5</ele><time>2026-05-01T13:55:11.646Z</time></trkpt><trkpt lat="41.9160426" lon="13.7207364"><ele>1255.75</ele><time>2026-05-01T13:55:12.642Z</time></trkpt><trkpt lat="41.916108" lon="13.7206206"><ele>1250.0</ele><time>2026-05-01T13:55:13.648Z</time></trkpt><trkpt lat="41.9161496" lon="13.7204624"><ele>1250.0</ele><time>2026-05-01T13:55:14.632Z</time></trkpt><trkpt lat="41.9161683" lon="13.7202753"><ele>1250.0</ele><time>2026-05-01T13:55:15.643Z</time></trkpt><trkpt lat="41.9161852" lon="13.7200611"><ele>1250.0</ele><time>2026-05-01T13:55:16.633Z</time></trkpt><trkpt lat="41.9161987" lon="13.7198449"><ele>1251.0</ele><time>2026-05-01T13:55:17.646Z</time></trkpt><trkpt lat="41.9161885" lon="13.7196234"><ele>1252.0</ele><time>2026-05-01T13:55:18.647Z</time></trkpt><trkpt lat="41.9161456" lon="13.7193963"><ele>1253.0</ele><time>2026-05-01T13:55:19.645Z</time></trkpt><trkpt lat="41.9160803" lon="13.7191605"><ele>1253.0</ele><time>2026-05-01T13:55:20.638Z</time></trkpt><trkpt lat="41.9160168" lon="13.7189189"><ele>1253.0</ele><time>2026-05-01T13:55:21.651Z</time></trkpt><trkpt lat="41.9159688" lon="13.7186913"><ele>1253.0</ele><time>2026-05-01T13:55:22.635Z</time></trkpt><trkpt lat="41.9159208" lon="13.7184744"><ele>1263.3333333333335</ele><time>2026-05-01T13:55:23.633Z</time></trkpt><trkpt lat="41.9158645" lon="13.7182635"><ele>1273.6666666666667</ele><time>2026-05-01T13:55:24.651Z</time></trkpt><trkpt lat="41.9157814" lon="13.7180624"><ele>1284.0</ele><time>2026-05-01T13:55:25.64Z</time></trkpt><trkpt lat="41.9156871" lon="13.7178749"><ele>1282.25</ele><time>2026-05-01T13:55:26.639Z</time></trkpt><trkpt lat="41.9156056" lon="13.717708"><ele>1280.5</ele><time>2026-05-01T13:55:27.651Z</time></trkpt><trkpt lat="41.9155452" lon="13.7175388"><ele>1278.75</ele><time>2026-05-01T13:55:28.645Z</time></trkpt><trkpt lat="41.9155119" lon="13.7173512"><ele>1277.0</ele><time>2026-05-01T13:55:29.678Z</time></trkpt><trkpt lat="41.9155096" lon="13.7171603"><ele>1277.0</ele><time>2026-05-01T13:55:30.64Z</time></trkpt><trkpt lat="41.9155205" lon="13.7169853"><ele>1277.0</ele><time>2026-05-01T13:55:31.648Z</time></trkpt><trkpt lat="41.9155317" lon="13.7168272"><ele>1277.0</ele><time>2026-05-01T13:55:32.641Z</time></trkpt><trkpt lat="41.9155302" lon="13.7166918"><ele>1277.0</ele><time>2026-05-01T13:55:33.651Z</time></trkpt><trkpt lat="41.9154938" lon="13.716577"><ele>1277.0</ele><time>2026-05-01T13:55:34.651Z</time></trkpt><trkpt lat="41.9154237" lon="13.7164799"><ele>1276.75</ele><time>2026-05-01T13:55:35.649Z</time></trkpt><trkpt lat="41.915315" lon="13.7164114"><ele>1276.5</ele><time>2026-05-01T13:55:36.638Z</time></trkpt><trkpt lat="41.915179" lon="13.7163977"><ele>1276.25</ele><time>2026-05-01T13:55:37.637Z</time></trkpt><trkpt lat="41.9150322" lon="13.7164094"><ele>1276.0</ele><time>2026-05-01T13:55:38.639Z</time></trkpt><trkpt lat="41.9148753" lon="13.7164192"><ele>1280.25</ele><time>2026-05-01T13:55:39.644Z</time></trkpt><trkpt lat="41.9147146" lon="13.7164181"><ele>1284.5</ele><time>2026-05-01T13:55:40.639Z</time></trkpt><trkpt lat="41.9145622" lon="13.7164174"><ele>1288.75</ele><time>2026-05-01T13:55:41.645Z</time></trkpt><trkpt lat="41.91443" lon="13.7164307"><ele>1293.0</ele><time>2026-05-01T13:55:42.654Z</time></trkpt><trkpt lat="41.9143082" lon="13.7164683"><ele>1294.0</ele><time>2026-05-01T13:55:43.661Z</time></trkpt><trkpt lat="41.9141983" lon="13.7165484"><ele>1295.0</ele><time>2026-05-01T13:55:44.644Z</time></trkpt><trkpt lat="41.9140904" lon="13.7166759"><ele>1296.0</ele><time>2026-05-01T13:55:45.646Z</time></trkpt><trkpt lat="41.9139879" lon="13.7168262"><ele>1297.0</ele><time>2026-05-01T13:55:46.637Z</time></trkpt><trkpt lat="41.9138867" lon="13.716995"><ele>1299.5</ele><time>2026-05-01T13:55:47.651Z</time></trkpt><trkpt lat="41.913798" lon="13.7171377"><ele>1302.0</ele><time>2026-05-01T13:55:48.643Z</time></trkpt><trkpt lat="41.9137044" lon="13.7172618"><ele>1304.5</ele><time>2026-05-01T13:55:49.648Z</time></trkpt><trkpt lat="41.9135926" lon="13.7173631"><ele>1307.0</ele><time>2026-05-01T13:55:50.644Z</time></trkpt><trkpt lat="41.913458" lon="13.7174344"><ele>1306.3333333333335</ele><time>2026-05-01T13:55:51.649Z</time></trkpt><trkpt lat="41.9133085" lon="13.7174745"><ele>1305.6666666666667</ele><time>2026-05-01T13:55:52.64Z</time></trkpt><trkpt lat="41.9131536" lon="13.7174782"><ele>1305.0</ele><time>2026-05-01T13:55:53.642Z</time></trkpt><trkpt lat="41.9130025" lon="13.7174535"><ele>1305.0</ele><time>2026-05-01T13:55:54.649Z</time></trkpt><trkpt lat="41.9128683" lon="13.7174321"><ele>1305.0</ele><time>2026-05-01T13:55:55.648Z</time></trkpt><trkpt lat="41.9127509" lon="13.7174342"><ele>1305.0</ele><time>2026-05-01T13:55:56.647Z</time></trkpt><trkpt lat="41.9126428" lon="13.7174793"><ele>1305.0</ele><time>2026-05-01T13:55:57.644Z</time></trkpt><trkpt lat="41.9125497" lon="13.7175707"><ele>1306.75</ele><time>2026-05-01T13:55:58.648Z</time></trkpt><trkpt lat="41.9124723" lon="13.717716"><ele>1308.5</ele><time>2026-05-01T13:55:59.643Z</time></trkpt><trkpt lat="41.9124278" lon="13.717901"><ele>1310.25</ele><time>2026-05-01T13:56:00.64Z</time></trkpt><trkpt lat="41.9124089" lon="13.7181011"><ele>1312.0</ele><time>2026-05-01T13:56:01.646Z</time></trkpt><trkpt lat="41.9123787" lon="13.7183065"><ele>1312.75</ele><time>2026-05-01T13:56:02.641Z</time></trkpt><trkpt lat="41.9123186" lon="13.7184992"><ele>1313.5</ele><time>2026-05-01T13:56:03.634Z</time></trkpt><trkpt lat="41.9122536" lon="13.7186709"><ele>1314.25</ele><time>2026-05-01T13:56:04.638Z</time></trkpt><trkpt lat="41.9122057" lon="13.7188229"><ele>1315.0</ele><time>2026-05-01T13:56:05.635Z</time></trkpt><trkpt lat="41.9121651" lon="13.7189696"><ele>1317.0</ele><time>2026-05-01T13:56:06.648Z</time></trkpt><trkpt lat="41.9121324" lon="13.719107"><ele>1319.0</ele><time>2026-05-01T13:56:07.631Z</time></trkpt><trkpt lat="41.9120906" lon="13.7192368"><ele>1321.0</ele><time>2026-05-01T13:56:08.651Z</time></trkpt><trkpt lat="41.912033" lon="13.7193479"><ele>1323.0</ele><time>2026-05-01T13:56:09.636Z</time></trkpt><trkpt lat="41.9119387" lon="13.7194135"><ele>1325.0</ele><time>2026-05-01T13:56:10.647Z</time></trkpt><trkpt lat="41.9118274" lon="13.7194398"><ele>1323.5</ele><time>2026-05-01T13:56:11.65Z</time></trkpt><trkpt lat="41.9117095" lon="13.7194135"><ele>1322.0</ele><time>2026-05-01T13:56:12.642Z</time></trkpt><trkpt lat="41.9115972" lon="13.7193402"><ele>1320.5</ele><time>2026-05-01T13:56:13.656Z</time></trkpt><trkpt lat="41.9114926" lon="13.7192601"><ele>1319.0</ele><time>2026-05-01T13:56:14.637Z</time></trkpt><trkpt lat="41.911395" lon="13.7192142"><ele>1319.0</ele><time>2026-05-01T13:56:15.653Z</time></trkpt><trkpt lat="41.9113026" lon="13.7192219"><ele>1319.0</ele><time>2026-05-01T13:56:16.643Z</time></trkpt><trkpt lat="41.9112058" lon="13.7192764"><ele>1319.0</ele><time>2026-05-01T13:56:17.638Z</time></trkpt><trkpt lat="41.911107" lon="13.7193821"><ele>1319.0</ele><time>2026-05-01T13:56:18.645Z</time></trkpt><trkpt lat="41.9109982" lon="13.719534"><ele>1321.3333333333335</ele><time>2026-05-01T13:56:19.648Z</time></trkpt><trkpt lat="41.9108792" lon="13.7197065"><ele>1323.6666666666667</ele><time>2026-05-01T13:56:20.65Z</time></trkpt><trkpt lat="41.910747" lon="13.7198862"><ele>1326.0</ele><time>2026-05-01T13:56:21.647Z</time></trkpt><trkpt lat="41.910614" lon="13.7200719"><ele>1329.0</ele><time>2026-05-01T13:56:22.65Z</time></trkpt><trkpt lat="41.910476" lon="13.7202675"><ele>1332.0</ele><time>2026-05-01T13:56:23.644Z</time></trkpt><trkpt lat="41.910343" lon="13.7204694"><ele>1335.0</ele><time>2026-05-01T13:56:24.649Z</time></trkpt><trkpt lat="41.9102181" lon="13.7206771"><ele>1335.0</ele><time>2026-05-01T13:56:25.643Z</time></trkpt><trkpt lat="41.9100993" lon="13.7208989"><ele>1335.0</ele><time>2026-05-01T13:56:26.642Z</time></trkpt><trkpt lat="41.9099852" lon="13.7211463"><ele>1335.0</ele><time>2026-05-01T13:56:27.645Z</time></trkpt><trkpt lat="41.9098785" lon="13.7214087"><ele>1334.5</ele><time>2026-05-01T13:56:28.644Z</time></trkpt><trkpt lat="41.9097765" lon="13.7216812"><ele>1334.0</ele><time>2026-05-01T13:56:29.66Z</time></trkpt><trkpt lat="41.9096689" lon="13.7219528"><ele>1334.0</ele><time>2026-05-01T13:56:30.641Z</time></trkpt><trkpt lat="41.9095646" lon="13.7222204"><ele>1334.0</ele><time>2026-05-01T13:56:31.643Z</time></trkpt><trkpt lat="41.9094578" lon="13.7224791"><ele>1334.0</ele><time>2026-05-01T13:56:32.647Z</time></trkpt><trkpt lat="41.9093601" lon="13.7227295"><ele>1334.3333333333335</ele><time>2026-05-01T13:56:33.639Z</time></trkpt><trkpt lat="41.9092821" lon="13.7229688"><ele>1334.6666666666667</ele><time>2026-05-01T13:56:34.652Z</time></trkpt><trkpt lat="41.9092199" lon="13.7231859"><ele>1335.0</ele><time>2026-05-01T13:56:35.64Z</time></trkpt><trkpt lat="41.9091785" lon="13.7233694"><ele>1333.75</ele><time>2026-05-01T13:56:36.645Z</time></trkpt><trkpt lat="41.9091429" lon="13.7235301"><ele>1332.5</ele><time>2026-05-01T13:56:37.65Z</time></trkpt><trkpt lat="41.9091406" lon="13.7237035"><ele>1331.25</ele><time>2026-05-01T13:56:38.641Z</time></trkpt><trkpt lat="41.9091791" lon="13.7238942"><ele>1330.0</ele><time>2026-05-01T13:56:39.663Z</time></trkpt><trkpt lat="41.9092153" lon="13.7241013"><ele>1330.0</ele><time>2026-05-01T13:56:40.637Z</time></trkpt><trkpt lat="41.9092248" lon="13.7243002"><ele>1330.0</ele><time>2026-05-01T13:56:41.642Z</time></trkpt><trkpt lat="41.9091913" lon="13.7244728"><ele>1330.0</ele><time>2026-05-01T13:56:42.643Z</time></trkpt><trkpt lat="41.909111" lon="13.7246224"><ele>1330.0</ele><time>2026-05-01T13:56:43.643Z</time></trkpt><trkpt lat="41.9090044" lon="13.7247681"><ele>1333.3333333333333</ele><time>2026-05-01T13:56:44.637Z</time></trkpt><trkpt lat="41.9088963" lon="13.7249345"><ele>1336.6666666666667</ele><time>2026-05-01T13:56:45.644Z</time></trkpt><trkpt lat="41.9088003" lon="13.7251465"><ele>1340.0</ele><time>2026-05-01T13:56:46.644Z</time></trkpt><trkpt lat="41.9087102" lon="13.7253847"><ele>1344.3333333333335</ele><time>2026-05-01T13:56:47.659Z</time></trkpt><trkpt lat="41.908611" lon="13.7256336"><ele>1348.6666666666667</ele><time>2026-05-01T13:56:48.64Z</time></trkpt><trkpt lat="41.9085119" lon="13.7258764"><ele>1353.0</ele><time>2026-05-01T13:56:49.636Z</time></trkpt><trkpt lat="41.908419" lon="13.7260965"><ele>1351.3333333333333</ele><time>2026-05-01T13:56:50.65Z</time></trkpt><trkpt lat="41.9083206" lon="13.7263044"><ele>1349.6666666666665</ele><time>2026-05-01T13:56:51.641Z</time></trkpt><trkpt lat="41.9082079" lon="13.7264969"><ele>1348.0</ele><time>2026-05-01T13:56:52.646Z</time></trkpt><trkpt lat="41.9080806" lon="13.7266838"><ele>1348.0</ele><time>2026-05-01T13:56:53.657Z</time></trkpt><trkpt lat="41.9079593" lon="13.7268818"><ele>1348.0</ele><time>2026-05-01T13:56:54.64Z</time></trkpt><trkpt lat="41.9078525" lon="13.7270949"><ele>1348.0</ele><time>2026-05-01T13:56:55.642Z</time></trkpt><trkpt lat="41.9077462" lon="13.7273131"><ele>1350.6666666666665</ele><time>2026-05-01T13:56:56.635Z</time></trkpt><trkpt lat="41.9076359" lon="13.7275286"><ele>1353.3333333333333</ele><time>2026-05-01T13:56:57.632Z</time></trkpt><trkpt lat="41.9075315" lon="13.7277468"><ele>1356.0</ele><time>2026-05-01T13:56:58.635Z</time></trkpt><trkpt lat="41.9074286" lon="13.7279609"><ele>1356.0</ele><time>2026-05-01T13:56:59.637Z</time></trkpt><trkpt lat="41.9073312" lon="13.7281714"><ele>1356.0</ele><time>2026-05-01T13:57:00.651Z</time></trkpt><trkpt lat="41.9072367" lon="13.7283795"><ele>1356.0</ele><time>2026-05-01T13:57:01.639Z</time></trkpt><trkpt lat="41.9071536" lon="13.7285724"><ele>1358.75</ele><time>2026-05-01T13:57:02.646Z</time></trkpt><trkpt lat="41.9070755" lon="13.7287489"><ele>1361.5</ele><time>2026-05-01T13:57:03.638Z</time></trkpt><trkpt lat="41.9070089" lon="13.7289057"><ele>1364.25</ele><time>2026-05-01T13:57:04.636Z</time></trkpt><trkpt lat="41.9069584" lon="13.7290759"><ele>1367.0</ele><time>2026-05-01T13:57:05.642Z</time></trkpt><trkpt lat="41.9069354" lon="13.7292675"><ele>1370.6666666666667</ele><time>2026-05-01T13:57:06.64Z</time></trkpt><trkpt lat="41.906916" lon="13.7294685"><ele>1374.3333333333333</ele><time>2026-05-01T13:57:07.656Z</time></trkpt><trkpt lat="41.9068643" lon="13.7296657"><ele>1378.0</ele><time>2026-05-01T13:57:08.645Z</time></trkpt><trkpt lat="41.9067819" lon="13.7298576"><ele>1375.6666666666665</ele><time>2026-05-01T13:57:09.646Z</time></trkpt><trkpt lat="41.9067047" lon="13.7300487"><ele>1373.3333333333333</ele><time>2026-05-01T13:57:10.643Z</time></trkpt><trkpt lat="41.9066299" lon="13.7302212"><ele>1371.0</ele><time>2026-05-01T13:57:11.64Z</time></trkpt><trkpt lat="41.9065398" lon="13.7303802"><ele>1371.0</ele><time>2026-05-01T13:57:12.65Z</time></trkpt><trkpt lat="41.9064252" lon="13.7305102"><ele>1371.0</ele><time>2026-05-01T13:57:13.645Z</time></trkpt><trkpt lat="41.9062966" lon="13.7306316"><ele>1371.0</ele><time>2026-05-01T13:57:14.638Z</time></trkpt><trkpt lat="41.9061858" lon="13.7307781"><ele>1371.0</ele><time>2026-05-01T13:57:15.642Z</time></trkpt><trkpt lat="41.9061009" lon="13.7309601"><ele>1371.0</ele><time>2026-05-01T13:57:16.636Z</time></trkpt><trkpt lat="41.906025" lon="13.7311572"><ele>1371.0</ele><time>2026-05-01T13:57:17.632Z</time></trkpt><trkpt lat="41.9059548" lon="13.7313348"><ele>1370.5</ele><time>2026-05-01T13:57:18.646Z</time></trkpt><trkpt lat="41.9058732" lon="13.7314851"><ele>1370.0</ele><time>2026-05-01T13:57:19.64Z</time></trkpt><trkpt lat="41.9057678" lon="13.7316064"><ele>1369.5</ele><time>2026-05-01T13:57:20.654Z</time></trkpt><trkpt lat="41.9056404" lon="13.7316951"><ele>1369.0</ele><time>2026-05-01T13:57:21.644Z</time></trkpt><trkpt lat="41.905491" lon="13.7317611"><ele>1369.0</ele><time>2026-05-01T13:57:22.647Z</time></trkpt><trkpt lat="41.9053361" lon="13.7318289"><ele>1369.0</ele><time>2026-05-01T13:57:23.646Z</time></trkpt><trkpt lat="41.9051695" lon="13.7318941"><ele>1369.0</ele><time>2026-05-01T13:57:24.651Z</time></trkpt><trkpt lat="41.9050004" lon="13.7319509"><ele>1374.3333333333333</ele><time>2026-05-01T13:57:25.64Z</time></trkpt><trkpt lat="41.9048256" lon="13.7319996"><ele>1379.6666666666667</ele><time>2026-05-01T13:57:26.641Z</time></trkpt><trkpt lat="41.9046621" lon="13.7320481"><ele>1385.0</ele><time>2026-05-01T13:57:27.636Z</time></trkpt><trkpt lat="41.9045167" lon="13.7320876"><ele>1385.0</ele><time>2026-05-01T13:57:28.633Z</time></trkpt><trkpt lat="41.9043996" lon="13.7321399"><ele>1385.0</ele><time>2026-05-01T13:57:29.644Z</time></trkpt><trkpt lat="41.9042989" lon="13.7322185"><ele>1385.0</ele><time>2026-05-01T13:57:30.638Z</time></trkpt><trkpt lat="41.9042154" lon="13.7323465"><ele>1385.0</ele><time>2026-05-01T13:57:31.637Z</time></trkpt><trkpt lat="41.9041472" lon="13.7325195"><ele>1383.3333333333335</ele><time>2026-05-01T13:57:32.639Z</time></trkpt><trkpt lat="41.9040854" lon="13.7327159"><ele>1381.6666666666667</ele><time>2026-05-01T13:57:33.631Z</time></trkpt><trkpt lat="41.9040102" lon="13.73292"><ele>1380.0</ele><time>2026-05-01T13:57:34.641Z</time></trkpt><trkpt lat="41.9039418" lon="13.7331169"><ele>1380.0</ele><time>2026-05-01T13:57:35.64Z</time></trkpt><trkpt lat="41.9038783" lon="13.7332974"><ele>1380.0</ele><time>2026-05-01T13:57:36.654Z</time></trkpt><trkpt lat="41.9038145" lon="13.7334669"><ele>1380.0</ele><time>2026-05-01T13:57:37.635Z</time></trkpt><trkpt lat="41.9037281" lon="13.7336039"><ele>1380.0</ele><time>2026-05-01T13:57:38.645Z</time></trkpt><trkpt lat="41.9036321" lon="13.733694"><ele>1382.5</ele><time>2026-05-01T13:57:39.647Z</time></trkpt><trkpt lat="41.9035226" lon="13.7337245"><ele>1385.0</ele><time>2026-05-01T13:57:40.64Z</time></trkpt><trkpt lat="41.9033987" lon="13.733711"><ele>1387.5</ele><time>2026-05-01T13:57:41.64Z</time></trkpt><trkpt lat="41.9032658" lon="13.7336356"><ele>1390.0</ele><time>2026-05-01T13:57:42.637Z</time></trkpt><trkpt lat="41.9031227" lon="13.7335422"><ele>1383.3333333333333</ele><time>2026-05-01T13:57:43.633Z</time></trkpt><trkpt lat="41.9029754" lon="13.733469"><ele>1376.6666666666667</ele><time>2026-05-01T13:57:44.633Z</time></trkpt><trkpt lat="41.9028091" lon="13.7334281"><ele>1370.0</ele><time>2026-05-01T13:57:45.639Z</time></trkpt><trkpt lat="41.9026257" lon="13.7334149"><ele>1373.6666666666667</ele><time>2026-05-01T13:57:46.63Z</time></trkpt><trkpt lat="41.9024354" lon="13.7334163"><ele>1377.3333333333333</ele><time>2026-05-01T13:57:47.634Z</time></trkpt><trkpt lat="41.9022369" lon="13.7334308"><ele>1381.0</ele><time>2026-05-01T13:57:48.644Z</time></trkpt><trkpt lat="41.9020421" lon="13.7334417"><ele>1381.0</ele><time>2026-05-01T13:57:49.64Z</time></trkpt><trkpt lat="41.9018445" lon="13.7334544"><ele>1381.0</ele><time>2026-05-01T13:57:50.636Z</time></trkpt><trkpt lat="41.9016589" lon="13.7334668"><ele>1381.0</ele><time>2026-05-01T13:57:51.628Z</time></trkpt><trkpt lat="41.9014904" lon="13.733493"><ele>1381.3333333333333</ele><time>2026-05-01T13:57:52.626Z</time></trkpt><trkpt lat="41.9013307" lon="13.7335204"><ele>1381.6666666666667</ele><time>2026-05-01T13:57:53.636Z</time></trkpt><trkpt lat="41.9011666" lon="13.7335473"><ele>1382.0</ele><time>2026-05-01T13:57:54.635Z</time></trkpt><trkpt lat="41.9010068" lon="13.7335739"><ele>1387.3333333333335</ele><time>2026-05-01T13:57:55.634Z</time></trkpt><trkpt lat="41.9008449" lon="13.7335928"><ele>1392.6666666666667</ele><time>2026-05-01T13:57:56.638Z</time></trkpt><trkpt lat="41.9006924" lon="13.733627"><ele>1398.0</ele><time>2026-05-01T13:57:57.627Z</time></trkpt><trkpt lat="41.9005533" lon="13.7336598"><ele>1398.0</ele><time>2026-05-01T13:57:58.627Z</time></trkpt><trkpt lat="41.9004222" lon="13.7337017"><ele>1398.0</ele><time>2026-05-01T13:57:59.633Z</time></trkpt><trkpt lat="41.9002971" lon="13.7337595"><ele>1398.0</ele><time>2026-05-01T13:58:00.635Z</time></trkpt><trkpt lat="41.9001674" lon="13.7338267"><ele>1398.0</ele><time>2026-05-01T13:58:01.648Z</time></trkpt><trkpt lat="41.9000327" lon="13.7339094"><ele>1395.0</ele><time>2026-05-01T13:58:02.634Z</time></trkpt><trkpt lat="41.8998888" lon="13.7340016"><ele>1392.0</ele><time>2026-05-01T13:58:03.638Z</time></trkpt><trkpt lat="41.8997351" lon="13.7340978"><ele>1389.0</ele><time>2026-05-01T13:58:04.643Z</time></trkpt><trkpt lat="41.8995748" lon="13.7342008"><ele>1389.0</ele><time>2026-05-01T13:58:05.646Z</time></trkpt><trkpt lat="41.8994005" lon="13.7343157"><ele>1389.0</ele><time>2026-05-01T13:58:06.643Z</time></trkpt><trkpt lat="41.8992232" lon="13.7344245"><ele>1389.0</ele><time>2026-05-01T13:58:07.649Z</time></trkpt><trkpt lat="41.8990528" lon="13.7345233"><ele>1391.0</ele><time>2026-05-01T13:58:08.642Z</time></trkpt><trkpt lat="41.8988931" lon="13.7346206"><ele>1393.0</ele><time>2026-05-01T13:58:09.65Z</time></trkpt><trkpt lat="41.8987431" lon="13.7347175"><ele>1395.0</ele><time>2026-05-01T13:58:10.645Z</time></trkpt><trkpt lat="41.89861" lon="13.7348294"><ele>1395.0</ele><time>2026-05-01T13:58:11.639Z</time></trkpt><trkpt lat="41.8984963" lon="13.7349604"><ele>1395.0</ele><time>2026-05-01T13:58:12.645Z</time></trkpt><trkpt lat="41.8983969" lon="13.7351036"><ele>1395.0</ele><time>2026-05-01T13:58:13.631Z</time></trkpt><trkpt lat="41.8983072" lon="13.7352428"><ele>1395.0</ele><time>2026-05-01T13:58:14.643Z</time></trkpt><trkpt lat="41.8981984" lon="13.7353523"><ele>1399.0</ele><time>2026-05-01T13:58:15.635Z</time></trkpt><trkpt lat="41.8980784" lon="13.7354241"><ele>1403.0</ele><time>2026-05-01T13:58:16.636Z</time></trkpt><trkpt lat="41.8979441" lon="13.7354501"><ele>1407.0</ele><time>2026-05-01T13:58:17.635Z</time></trkpt><trkpt lat="41.8978051" lon="13.7354612"><ele>1411.0</ele><time>2026-05-01T13:58:18.628Z</time></trkpt><trkpt lat="41.8976565" lon="13.7354861"><ele>1406.0</ele><time>2026-05-01T13:58:19.636Z</time></trkpt><trkpt lat="41.8974969" lon="13.7355512"><ele>1401.0</ele><time>2026-05-01T13:58:20.641Z</time></trkpt><trkpt lat="41.8973375" lon="13.7356505"><ele>1396.0</ele><time>2026-05-01T13:58:21.648Z</time></trkpt><trkpt lat="41.8971705" lon="13.7357392"><ele>1396.0</ele><time>2026-05-01T13:58:22.636Z</time></trkpt><trkpt lat="41.8969912" lon="13.7358052"><ele>1396.0</ele><time>2026-05-01T13:58:23.642Z</time></trkpt><trkpt lat="41.8968067" lon="13.7358546"><ele>1396.0</ele><time>2026-05-01T13:58:24.633Z</time></trkpt><trkpt lat="41.8966204" lon="13.7358996"><ele>1391.6666666666665</ele><time>2026-05-01T13:58:25.636Z</time></trkpt><trkpt lat="41.8964348" lon="13.7359353"><ele>1387.3333333333333</ele><time>2026-05-01T13:58:26.635Z</time></trkpt><trkpt lat="41.8962568" lon="13.7359582"><ele>1383.0</ele><time>2026-05-01T13:58:27.626Z</time></trkpt><trkpt lat="41.8960787" lon="13.7359751"><ele>1378.3333333333333</ele><time>2026-05-01T13:58:28.63Z</time></trkpt><trkpt lat="41.8959039" lon="13.7359945"><ele>1373.6666666666665</ele><time>2026-05-01T13:58:29.634Z</time></trkpt><trkpt lat="41.8957315" lon="13.7360217"><ele>1369.0</ele><time>2026-05-01T13:58:30.638Z</time></trkpt><trkpt lat="41.8955629" lon="13.7360508"><ele>1382.3333333333333</ele><time>2026-05-01T13:58:31.643Z</time></trkpt><trkpt lat="41.8954032" lon="13.7360883"><ele>1395.6666666666667</ele><time>2026-05-01T13:58:32.632Z</time></trkpt><trkpt lat="41.8952468" lon="13.7361605"><ele>1409.0</ele><time>2026-05-01T13:58:33.629Z</time></trkpt><trkpt lat="41.8950953" lon="13.7362579"><ele>1403.3333333333335</ele><time>2026-05-01T13:58:34.632Z</time></trkpt><trkpt lat="41.8949419" lon="13.7363703"><ele>1397.6666666666667</ele><time>2026-05-01T13:58:35.632Z</time></trkpt><trkpt lat="41.8947858" lon="13.7364831"><ele>1392.0</ele><time>2026-05-01T13:58:36.637Z</time></trkpt><trkpt lat="41.8946408" lon="13.7365938"><ele>1392.0</ele><time>2026-05-01T13:58:37.644Z</time></trkpt><trkpt lat="41.8945002" lon="13.7366914"><ele>1392.0</ele><time>2026-05-01T13:58:38.635Z</time></trkpt><trkpt lat="41.8943569" lon="13.736759"><ele>1392.0</ele><time>2026-05-01T13:58:39.65Z</time></trkpt><trkpt lat="41.8942077" lon="13.7367979"><ele>1386.6666666666667</ele><time>2026-05-01T13:58:40.634Z</time></trkpt><trkpt lat="41.8940558" lon="13.7368269"><ele>1381.3333333333335</ele><time>2026-05-01T13:58:41.642Z</time></trkpt><trkpt lat="41.8939068" lon="13.7368592"><ele>1376.0</ele><time>2026-05-01T13:58:42.638Z</time></trkpt><trkpt lat="41.8937612" lon="13.7369185"><ele>1380.0</ele><time>2026-05-01T13:58:43.63Z</time></trkpt><trkpt lat="41.8936146" lon="13.7370023"><ele>1384.0</ele><time>2026-05-01T13:58:44.632Z</time></trkpt><trkpt lat="41.8934659" lon="13.7370944"><ele>1388.0</ele><time>2026-05-01T13:58:45.633Z</time></trkpt><trkpt lat="41.8933073" lon="13.7371641"><ele>1388.0</ele><time>2026-05-01T13:58:46.64Z</time></trkpt><trkpt lat="41.8931472" lon="13.7372182"><ele>1388.0</ele><time>2026-05-01T13:58:47.636Z</time></trkpt><trkpt lat="41.8929948" lon="13.7372651"><ele>1388.0</ele><time>2026-05-01T13:58:48.632Z</time></trkpt><trkpt lat="41.8928465" lon="13.7373233"><ele>1388.0</ele><time>2026-05-01T13:58:49.639Z</time></trkpt><trkpt lat="41.8926974" lon="13.7374147"><ele>1388.0</ele><time>2026-05-01T13:58:50.642Z</time></trkpt><trkpt lat="41.89254" lon="13.7375322"><ele>1388.0</ele><time>2026-05-01T13:58:51.634Z</time></trkpt><trkpt lat="41.8923881" lon="13.7376528"><ele>1390.0</ele><time>2026-05-01T13:58:52.633Z</time></trkpt><trkpt lat="41.8922439" lon="13.7377696"><ele>1392.0</ele><time>2026-05-01T13:58:53.628Z</time></trkpt><trkpt lat="41.8921082" lon="13.7378784"><ele>1394.0</ele><time>2026-05-01T13:58:54.635Z</time></trkpt><trkpt lat="41.8919796" lon="13.7379986"><ele>1394.0</ele><time>2026-05-01T13:58:55.64Z</time></trkpt><trkpt lat="41.8918629" lon="13.738139"><ele>1394.0</ele><time>2026-05-01T13:58:56.634Z</time></trkpt><trkpt lat="41.8917627" lon="13.738291"><ele>1394.0</ele><time>2026-05-01T13:58:57.637Z</time></trkpt><trkpt lat="41.8916667" lon="13.7384249"><ele>1394.0</ele><time>2026-05-01T13:58:58.631Z</time></trkpt><trkpt lat="41.8915583" lon="13.7385327"><ele>1395.75</ele><time>2026-05-01T13:58:59.642Z</time></trkpt><trkpt lat="41.8914321" lon="13.7386173"><ele>1397.5</ele><time>2026-05-01T13:59:00.638Z</time></trkpt><trkpt lat="41.8912918" lon="13.7386932"><ele>1399.25</ele><time>2026-05-01T13:59:01.646Z</time></trkpt><trkpt lat="41.8911469" lon="13.7387667"><ele>1401.0</ele><time>2026-05-01T13:59:02.631Z</time></trkpt><trkpt lat="41.8909921" lon="13.7388191"><ele>1396.6666666666667</ele><time>2026-05-01T13:59:03.643Z</time></trkpt><trkpt lat="41.8908232" lon="13.7388435"><ele>1392.3333333333335</ele><time>2026-05-01T13:59:04.632Z</time></trkpt><trkpt lat="41.8906562" lon="13.738857"><ele>1388.0</ele><time>2026-05-01T13:59:05.629Z</time></trkpt><trkpt lat="41.8904851" lon="13.7388759"><ele>1388.0</ele><time>2026-05-01T13:59:06.634Z</time></trkpt><trkpt lat="41.8903104" lon="13.7389079"><ele>1388.0</ele><time>2026-05-01T13:59:07.632Z</time></trkpt><trkpt lat="41.8901322" lon="13.7389442"><ele>1388.0</ele><time>2026-05-01T13:59:08.632Z</time></trkpt><trkpt lat="41.8899518" lon="13.7389895"><ele>1385.0</ele><time>2026-05-01T13:59:09.645Z</time></trkpt><trkpt lat="41.889766" lon="13.7390362"><ele>1382.0</ele><time>2026-05-01T13:59:10.633Z</time></trkpt><trkpt lat="41.8895864" lon="13.7390831"><ele>1379.0</ele><time>2026-05-01T13:59:11.644Z</time></trkpt><trkpt lat="41.8894208" lon="13.7391155"><ele>1379.0</ele><time>2026-05-01T13:59:12.633Z</time></trkpt><trkpt lat="41.8892679" lon="13.7391395"><ele>1379.0</ele><time>2026-05-01T13:59:13.633Z</time></trkpt><trkpt lat="41.889134" lon="13.7391647"><ele>1379.0</ele><time>2026-05-01T13:59:14.633Z</time></trkpt><trkpt lat="41.8890056" lon="13.7392255"><ele>1379.0</ele><time>2026-05-01T13:59:15.627Z</time></trkpt><trkpt lat="41.8888847" lon="13.7393304"><ele>1385.3333333333335</ele><time>2026-05-01T13:59:16.635Z</time></trkpt><trkpt lat="41.8887612" lon="13.7394665"><ele>1391.6666666666667</ele><time>2026-05-01T13:59:17.631Z</time></trkpt><trkpt lat="41.8886326" lon="13.7396046"><ele>1398.0</ele><time>2026-05-01T13:59:18.629Z</time></trkpt><trkpt lat="41.888484" lon="13.7397246"><ele>1391.3333333333333</ele><time>2026-05-01T13:59:19.639Z</time></trkpt><trkpt lat="41.8883378" lon="13.7398561"><ele>1384.6666666666665</ele><time>2026-05-01T13:59:20.635Z</time></trkpt><trkpt lat="41.8882" lon="13.7399996"><ele>1378.0</ele><time>2026-05-01T13:59:21.639Z</time></trkpt><trkpt lat="41.8880639" lon="13.7401534"><ele>1385.6666666666665</ele><time>2026-05-01T13:59:22.64Z</time></trkpt><trkpt lat="41.8879298" lon="13.7403188"><ele>1393.3333333333333</ele><time>2026-05-01T13:59:23.644Z</time></trkpt><trkpt lat="41.8878076" lon="13.7404988"><ele>1401.0</ele><time>2026-05-01T13:59:24.634Z</time></trkpt><trkpt lat="41.8876975" lon="13.7406976"><ele>1401.0</ele><time>2026-05-01T13:59:25.641Z</time></trkpt><trkpt lat="41.8875942" lon="13.7409083"><ele>1401.0</ele><time>2026-05-01T13:59:26.654Z</time></trkpt><trkpt lat="41.887486" lon="13.7411283"><ele>1401.0</ele><time>2026-05-01T13:59:27.644Z</time></trkpt><trkpt lat="41.8873658" lon="13.7413397"><ele>1403.6666666666667</ele><time>2026-05-01T13:59:28.64Z</time></trkpt><trkpt lat="41.8872349" lon="13.7415369"><ele>1406.3333333333335</ele><time>2026-05-01T13:59:29.632Z</time></trkpt><trkpt lat="41.8870998" lon="13.7417212"><ele>1409.0</ele><time>2026-05-01T13:59:30.642Z</time></trkpt><trkpt lat="41.886975" lon="13.7418954"><ele>1409.0</ele><time>2026-05-01T13:59:31.646Z</time></trkpt><trkpt lat="41.8868527" lon="13.7420557"><ele>1409.0</ele><time>2026-05-01T13:59:32.639Z</time></trkpt><trkpt lat="41.8867287" lon="13.7422069"><ele>1409.0</ele><time>2026-05-01T13:59:33.636Z</time></trkpt><trkpt lat="41.8865858" lon="13.7423468"><ele>1400.6666666666667</ele><time>2026-05-01T13:59:34.629Z</time></trkpt><trkpt lat="41.8864226" lon="13.7424571"><ele>1392.3333333333333</ele><time>2026-05-01T13:59:35.64Z</time></trkpt><trkpt lat="41.8862472" lon="13.7425509"><ele>1384.0</ele><time>2026-05-01T13:59:36.642Z</time></trkpt><trkpt lat="41.8860652" lon="13.7426324"><ele>1386.3333333333333</ele><time>2026-05-01T13:59:37.635Z</time></trkpt><trkpt lat="41.8858758" lon="13.7427239"><ele>1388.6666666666667</ele><time>2026-05-01T13:59:38.632Z</time></trkpt><trkpt lat="41.8856849" lon="13.7428313"><ele>1391.0</ele><time>2026-05-01T13:59:39.641Z</time></trkpt><trkpt lat="41.8855012" lon="13.7429478"><ele>1391.0</ele><time>2026-05-01T13:59:40.63Z</time></trkpt><trkpt lat="41.8853196" lon="13.7430787"><ele>1391.0</ele><time>2026-05-01T13:59:41.653Z</time></trkpt><trkpt lat="41.8851423" lon="13.7432368"><ele>1391.0</ele><time>2026-05-01T13:59:42.635Z</time></trkpt><trkpt lat="41.8849683" lon="13.7434081"><ele>1393.3333333333335</ele><time>2026-05-01T13:59:43.634Z</time></trkpt><trkpt lat="41.8847934" lon="13.7435746"><ele>1395.6666666666667</ele><time>2026-05-01T13:59:44.64Z</time></trkpt><trkpt lat="41.8846256" lon="13.7437367"><ele>1398.0</ele><time>2026-05-01T13:59:45.64Z</time></trkpt><trkpt lat="41.884476" lon="13.7439031"><ele>1398.0</ele><time>2026-05-01T13:59:46.64Z</time></trkpt><trkpt lat="41.8843465" lon="13.7440799"><ele>1398.0</ele><time>2026-05-01T13:59:47.632Z</time></trkpt><trkpt lat="41.8842282" lon="13.7442641"><ele>1398.0</ele><time>2026-05-01T13:59:48.636Z</time></trkpt><trkpt lat="41.8841163" lon="13.744431"><ele>1396.3333333333333</ele><time>2026-05-01T13:59:49.636Z</time></trkpt><trkpt lat="41.8839991" lon="13.7445764"><ele>1394.6666666666665</ele><time>2026-05-01T13:59:50.636Z</time></trkpt><trkpt lat="41.8838749" lon="13.7446901"><ele>1393.0</ele><time>2026-05-01T13:59:51.651Z</time></trkpt><trkpt lat="41.8837433" lon="13.7447648"><ele>1393.0</ele><time>2026-05-01T13:59:52.644Z</time></trkpt><trkpt lat="41.8836015" lon="13.7448149"><ele>1393.0</ele><time>2026-05-01T13:59:53.636Z</time></trkpt><trkpt lat="41.883447" lon="13.744837"><ele>1393.0</ele><time>2026-05-01T13:59:54.642Z</time></trkpt><trkpt lat="41.8832841" lon="13.7448477"><ele>1390.0</ele><time>2026-05-01T13:59:55.661Z</time></trkpt><trkpt lat="41.8831134" lon="13.7448546"><ele>1387.0</ele><time>2026-05-01T13:59:56.64Z</time></trkpt><trkpt lat="41.8829498" lon="13.7448589"><ele>1384.0</ele><time>2026-05-01T13:59:57.634Z</time></trkpt><trkpt lat="41.8827967" lon="13.7448674"><ele>1384.0</ele><time>2026-05-01T13:59:58.639Z</time></trkpt><trkpt lat="41.8826547" lon="13.7449031"><ele>1384.0</ele><time>2026-05-01T13:59:59.641Z</time></trkpt><trkpt lat="41.8825309" lon="13.7449796"><ele>1384.0</ele><time>2026-05-01T14:00:00.641Z</time></trkpt><trkpt lat="41.8824197" lon="13.7450833"><ele>1384.0</ele><time>2026-05-01T14:00:01.633Z</time></trkpt><trkpt lat="41.8823151" lon="13.7452176"><ele>1386.75</ele><time>2026-05-01T14:00:02.643Z</time></trkpt><trkpt lat="41.8822067" lon="13.745356"><ele>1389.5</ele><time>2026-05-01T14:00:03.628Z</time></trkpt><trkpt lat="41.8820976" lon="13.745466"><ele>1392.25</ele><time>2026-05-01T14:00:04.641Z</time></trkpt><trkpt lat="41.8819722" lon="13.7455405"><ele>1395.0</ele><time>2026-05-01T14:00:05.641Z</time></trkpt><trkpt lat="41.8818254" lon="13.745568"><ele>1393.3333333333333</ele><time>2026-05-01T14:00:06.635Z</time></trkpt><trkpt lat="41.8816709" lon="13.7455808"><ele>1391.6666666666665</ele><time>2026-05-01T14:00:07.636Z</time></trkpt><trkpt lat="41.8815086" lon="13.745609"><ele>1390.0</ele><time>2026-05-01T14:00:08.639Z</time></trkpt><trkpt lat="41.8813399" lon="13.7456626"><ele>1390.0</ele><time>2026-05-01T14:00:09.644Z</time></trkpt><trkpt lat="41.8811713" lon="13.7457413"><ele>1390.0</ele><time>2026-05-01T14:00:10.638Z</time></trkpt><trkpt lat="41.8809987" lon="13.7458207"><ele>1390.0</ele><time>2026-05-01T14:00:11.635Z</time></trkpt><trkpt lat="41.8808301" lon="13.7458901"><ele>1389.6666666666665</ele><time>2026-05-01T14:00:12.643Z</time></trkpt><trkpt lat="41.8806762" lon="13.7459507"><ele>1389.3333333333333</ele><time>2026-05-01T14:00:13.632Z</time></trkpt><trkpt lat="41.8805197" lon="13.7459897"><ele>1389.0</ele><time>2026-05-01T14:00:14.632Z</time></trkpt><trkpt lat="41.8803697" lon="13.745991"><ele>1389.0</ele><time>2026-05-01T14:00:15.633Z</time></trkpt><trkpt lat="41.8802193" lon="13.745976"><ele>1389.0</ele><time>2026-05-01T14:00:16.639Z</time></trkpt><trkpt lat="41.8800748" lon="13.7459749"><ele>1389.0</ele><time>2026-05-01T14:00:17.643Z</time></trkpt><trkpt lat="41.8799295" lon="13.7460117"><ele>1389.0</ele><time>2026-05-01T14:00:18.639Z</time></trkpt><trkpt lat="41.8797793" lon="13.7460917"><ele>1393.3333333333333</ele><time>2026-05-01T14:00:19.635Z</time></trkpt><trkpt lat="41.8796412" lon="13.7462045"><ele>1397.6666666666665</ele><time>2026-05-01T14:00:20.639Z</time></trkpt><trkpt lat="41.8794956" lon="13.7463375"><ele>1402.0</ele><time>2026-05-01T14:00:21.634Z</time></trkpt><trkpt lat="41.8793457" lon="13.7464648"><ele>1400.0</ele><time>2026-05-01T14:00:22.636Z</time></trkpt><trkpt lat="41.8791998" lon="13.7465825"><ele>1398.0</ele><time>2026-05-01T14:00:23.646Z</time></trkpt><trkpt lat="41.8790536" lon="13.7466759"><ele>1396.0</ele><time>2026-05-01T14:00:24.633Z</time></trkpt><trkpt lat="41.8788976" lon="13.7467286"><ele>1396.0</ele><time>2026-05-01T14:00:25.645Z</time></trkpt><trkpt lat="41.8787354" lon="13.7467493"><ele>1396.0</ele><time>2026-05-01T14:00:26.639Z</time></trkpt><trkpt lat="41.878575" lon="13.7467667"><ele>1396.0</ele><time>2026-05-01T14:00:27.645Z</time></trkpt><trkpt lat="41.8784205" lon="13.7468079"><ele>1398.0</ele><time>2026-05-01T14:00:28.644Z</time></trkpt><trkpt lat="41.8782777" lon="13.7468812"><ele>1400.0</ele><time>2026-05-01T14:00:29.64Z</time></trkpt><trkpt lat="41.8781439" lon="13.7469568"><ele>1402.0</ele><time>2026-05-01T14:00:30.643Z</time></trkpt><trkpt lat="41.8780112" lon="13.7470036"><ele>1404.0</ele><time>2026-05-01T14:00:31.636Z</time></trkpt><trkpt lat="41.8778816" lon="13.7470089"><ele>1404.0</ele><time>2026-05-01T14:00:32.645Z</time></trkpt><trkpt lat="41.8777571" lon="13.7469657"><ele>1404.0</ele><time>2026-05-01T14:00:33.633Z</time></trkpt><trkpt lat="41.8776285" lon="13.7468933"><ele>1404.0</ele><time>2026-05-01T14:00:34.648Z</time></trkpt><trkpt lat="41.8774938" lon="13.7468094"><ele>1404.0</ele><time>2026-05-01T14:00:35.63Z</time></trkpt><trkpt lat="41.877357" lon="13.7467255"><ele>1402.0</ele><time>2026-05-01T14:00:36.649Z</time></trkpt><trkpt lat="41.8772173" lon="13.7466385"><ele>1400.0</ele><time>2026-05-01T14:00:37.627Z</time></trkpt><trkpt lat="41.877082" lon="13.7465316"><ele>1398.0</ele><time>2026-05-01T14:00:38.634Z</time></trkpt><trkpt lat="41.8769603" lon="13.7464223"><ele>1398.0</ele><time>2026-05-01T14:00:39.636Z</time></trkpt><trkpt lat="41.8768481" lon="13.7463229"><ele>1398.0</ele><time>2026-05-01T14:00:40.641Z</time></trkpt><trkpt lat="41.8767384" lon="13.7462387"><ele>1398.0</ele><time>2026-05-01T14:00:41.638Z</time></trkpt><trkpt lat="41.8766246" lon="13.746175"><ele>1398.0</ele><time>2026-05-01T14:00:42.642Z</time></trkpt><trkpt lat="41.8765106" lon="13.7461298"><ele>1400.5</ele><time>2026-05-01T14:00:43.639Z</time></trkpt><trkpt lat="41.8763871" lon="13.7461154"><ele>1403.0</ele><time>2026-05-01T14:00:44.638Z</time></trkpt><trkpt lat="41.8762714" lon="13.7461107"><ele>1405.5</ele><time>2026-05-01T14:00:45.634Z</time></trkpt><trkpt lat="41.8761556" lon="13.7461057"><ele>1408.0</ele><time>2026-05-01T14:00:46.634Z</time></trkpt><trkpt lat="41.8760371" lon="13.7461123"><ele>1407.25</ele><time>2026-05-01T14:00:47.627Z</time></trkpt><trkpt lat="41.8759171" lon="13.7461281"><ele>1406.5</ele><time>2026-05-01T14:00:48.643Z</time></trkpt><trkpt lat="41.8757994" lon="13.7461657"><ele>1405.75</ele><time>2026-05-01T14:00:49.634Z</time></trkpt><trkpt lat="41.8756799" lon="13.7462258"><ele>1405.0</ele><time>2026-05-01T14:00:50.634Z</time></trkpt><trkpt lat="41.875555" lon="13.7462972"><ele>1405.0</ele><time>2026-05-01T14:00:51.645Z</time></trkpt><trkpt lat="41.8754238" lon="13.7463688"><ele>1405.0</ele><time>2026-05-01T14:00:52.639Z</time></trkpt><trkpt lat="41.8752863" lon="13.7464471"><ele>1405.0</ele><time>2026-05-01T14:00:53.651Z</time></trkpt><trkpt lat="41.8751401" lon="13.7465256"><ele>1405.0</ele><time>2026-05-01T14:00:54.639Z</time></trkpt><trkpt lat="41.8749936" lon="13.7466059"><ele>1401.3333333333333</ele><time>2026-05-01T14:00:55.648Z</time></trkpt><trkpt lat="41.8748351" lon="13.7466889"><ele>1397.6666666666667</ele><time>2026-05-01T14:00:56.641Z</time></trkpt><trkpt lat="41.8746754" lon="13.74677"><ele>1394.0</ele><time>2026-05-01T14:00:57.645Z</time></trkpt><trkpt lat="41.8745084" lon="13.7468517"><ele>1395.3333333333335</ele><time>2026-05-01T14:00:58.641Z</time></trkpt><trkpt lat="41.8743402" lon="13.7469358"><ele>1396.6666666666667</ele><time>2026-05-01T14:00:59.642Z</time></trkpt><trkpt lat="41.8741755" lon="13.7470211"><ele>1398.0</ele><time>2026-05-01T14:01:00.66Z</time></trkpt><trkpt lat="41.8740161" lon="13.7471016"><ele>1395.3333333333333</ele><time>2026-05-01T14:01:01.644Z</time></trkpt><trkpt lat="41.8738614" lon="13.747185"><ele>1392.6666666666665</ele><time>2026-05-01T14:01:02.644Z</time></trkpt><trkpt lat="41.8737112" lon="13.7472684"><ele>1390.0</ele><time>2026-05-01T14:01:03.648Z</time></trkpt><trkpt lat="41.8735634" lon="13.7473438"><ele>1388.25</ele><time>2026-05-01T14:01:04.642Z</time></trkpt><trkpt lat="41.8734233" lon="13.7474098"><ele>1386.5</ele><time>2026-05-01T14:01:05.644Z</time></trkpt><trkpt lat="41.8732839" lon="13.7474687"><ele>1384.75</ele><time>2026-05-01T14:01:06.642Z</time></trkpt><trkpt lat="41.8731531" lon="13.7475151"><ele>1383.0</ele><time>2026-05-01T14:01:07.645Z</time></trkpt><trkpt lat="41.8730249" lon="13.7475437"><ele>1383.0</ele><time>2026-05-01T14:01:08.639Z</time></trkpt><trkpt lat="41.8729046" lon="13.7475732"><ele>1383.0</ele><time>2026-05-01T14:01:09.642Z</time></trkpt><trkpt lat="41.8727902" lon="13.7476094"><ele>1383.0</ele><time>2026-05-01T14:01:10.635Z</time></trkpt><trkpt lat="41.8726854" lon="13.7476551"><ele>1383.0</ele><time>2026-05-01T14:01:11.65Z</time></trkpt><trkpt lat="41.8725929" lon="13.7477239"><ele>1382.2</ele><time>2026-05-01T14:01:12.651Z</time></trkpt><trkpt lat="41.8725146" lon="13.7478151"><ele>1381.4</ele><time>2026-05-01T14:01:13.643Z</time></trkpt><trkpt lat="41.872459" lon="13.7479365"><ele>1380.6000000000001</ele><time>2026-05-01T14:01:14.635Z</time></trkpt><trkpt lat="41.8724173" lon="13.7480778"><ele>1379.8000000000002</ele><time>2026-05-01T14:01:15.638Z</time></trkpt><trkpt lat="41.8723754" lon="13.7482155"><ele>1379.0</ele><time>2026-05-01T14:01:16.644Z</time></trkpt><trkpt lat="41.8723238" lon="13.7483513"><ele>1379.0</ele><time>2026-05-01T14:01:17.647Z</time></trkpt><trkpt lat="41.8722495" lon="13.7484842"><ele>1379.0</ele><time>2026-05-01T14:01:18.645Z</time></trkpt><trkpt lat="41.8721515" lon="13.7486012"><ele>1379.0</ele><time>2026-05-01T14:01:19.644Z</time></trkpt><trkpt lat="41.8720395" lon="13.7487089"><ele>1379.0</ele><time>2026-05-01T14:01:20.64Z</time></trkpt><trkpt lat="41.8719396" lon="13.7488303"><ele>1378.75</ele><time>2026-05-01T14:01:21.64Z</time></trkpt><trkpt lat="41.8718594" lon="13.7489726"><ele>1378.5</ele><time>2026-05-01T14:01:22.647Z</time></trkpt><trkpt lat="41.8717935" lon="13.7491389"><ele>1378.25</ele><time>2026-05-01T14:01:23.644Z</time></trkpt><trkpt lat="41.8717358" lon="13.7493142"><ele>1378.0</ele><time>2026-05-01T14:01:24.641Z</time></trkpt><trkpt lat="41.8716748" lon="13.7494945"><ele>1378.0</ele><time>2026-05-01T14:01:25.662Z</time></trkpt><trkpt lat="41.871605" lon="13.7496704"><ele>1378.0</ele><time>2026-05-01T14:01:26.644Z</time></trkpt><trkpt lat="41.8715188" lon="13.7498305"><ele>1378.0</ele><time>2026-05-01T14:01:27.643Z</time></trkpt><trkpt lat="41.8714192" lon="13.7499664"><ele>1378.0</ele><time>2026-05-01T14:01:28.647Z</time></trkpt><trkpt lat="41.8712985" lon="13.750085"><ele>1378.0</ele><time>2026-05-01T14:01:29.635Z</time></trkpt><trkpt lat="41.8711661" lon="13.7501799"><ele>1378.0</ele><time>2026-05-01T14:01:30.657Z</time></trkpt><trkpt lat="41.8710263" lon="13.7502745"><ele>1378.0</ele><time>2026-05-01T14:01:31.638Z</time></trkpt><trkpt lat="41.8708773" lon="13.7503749"><ele>1376.3333333333333</ele><time>2026-05-01T14:01:32.645Z</time></trkpt><trkpt lat="41.8707281" lon="13.7504819"><ele>1374.6666666666667</ele><time>2026-05-01T14:01:33.64Z</time></trkpt><trkpt lat="41.870572" lon="13.7505936"><ele>1373.0</ele><time>2026-05-01T14:01:34.642Z</time></trkpt><trkpt lat="41.870414" lon="13.7507093"><ele>1373.0</ele><time>2026-05-01T14:01:35.652Z</time></trkpt><trkpt lat="41.8702567" lon="13.7508236"><ele>1373.0</ele><time>2026-05-01T14:01:36.637Z</time></trkpt><trkpt lat="41.8701042" lon="13.7509343"><ele>1373.0</ele><time>2026-05-01T14:01:37.632Z</time></trkpt><trkpt lat="41.8699553" lon="13.7510408"><ele>1370.6666666666667</ele><time>2026-05-01T14:01:38.641Z</time></trkpt><trkpt lat="41.8698098" lon="13.7511425"><ele>1368.3333333333333</ele><time>2026-05-01T14:01:39.636Z</time></trkpt><trkpt lat="41.8696709" lon="13.7512446"><ele>1366.0</ele><time>2026-05-01T14:01:40.641Z</time></trkpt><trkpt lat="41.8695353" lon="13.751346"><ele>1366.0</ele><time>2026-05-01T14:01:41.639Z</time></trkpt><trkpt lat="41.8694004" lon="13.7514425"><ele>1366.0</ele><time>2026-05-01T14:01:42.634Z</time></trkpt><trkpt lat="41.8692714" lon="13.7515351"><ele>1366.0</ele><time>2026-05-01T14:01:43.643Z</time></trkpt><trkpt lat="41.869143" lon="13.7516264"><ele>1366.0</ele><time>2026-05-01T14:01:44.64Z</time></trkpt><trkpt lat="41.8690192" lon="13.7517234"><ele>1365.75</ele><time>2026-05-01T14:01:45.627Z</time></trkpt><trkpt lat="41.8688999" lon="13.751824"><ele>1365.5</ele><time>2026-05-01T14:01:46.633Z</time></trkpt><trkpt lat="41.8687843" lon="13.7519362"><ele>1365.25</ele><time>2026-05-01T14:01:47.638Z</time></trkpt><trkpt lat="41.8686728" lon="13.7520611"><ele>1365.0</ele><time>2026-05-01T14:01:48.64Z</time></trkpt><trkpt lat="41.8685669" lon="13.7522003"><ele>1365.0</ele><time>2026-05-01T14:01:49.642Z</time></trkpt><trkpt lat="41.8684572" lon="13.7523402"><ele>1365.0</ele><time>2026-05-01T14:01:50.641Z</time></trkpt><trkpt lat="41.8683375" lon="13.752475"><ele>1365.0</ele><time>2026-05-01T14:01:51.647Z</time></trkpt><trkpt lat="41.8682133" lon="13.7526127"><ele>1363.0</ele><time>2026-05-01T14:01:52.639Z</time></trkpt><trkpt lat="41.8680903" lon="13.7527536"><ele>1361.0</ele><time>2026-05-01T14:01:53.647Z</time></trkpt><trkpt lat="41.8679649" lon="13.7528981"><ele>1359.0</ele><time>2026-05-01T14:01:54.636Z</time></trkpt><trkpt lat="41.867837" lon="13.7530458"><ele>1359.0</ele><time>2026-05-01T14:01:55.637Z</time></trkpt><trkpt lat="41.8677135" lon="13.7531891"><ele>1359.0</ele><time>2026-05-01T14:01:56.64Z</time></trkpt><trkpt lat="41.8675926" lon="13.7533287"><ele>1359.0</ele><time>2026-05-01T14:01:57.647Z</time></trkpt><trkpt lat="41.8674776" lon="13.7534658"><ele>1357.0</ele><time>2026-05-01T14:01:58.643Z</time></trkpt><trkpt lat="41.867364" lon="13.7536082"><ele>1355.0</ele><time>2026-05-01T14:01:59.648Z</time></trkpt><trkpt lat="41.8672585" lon="13.7537681"><ele>1353.0</ele><time>2026-05-01T14:02:00.637Z</time></trkpt><trkpt lat="41.8671688" lon="13.7539367"><ele>1353.0</ele><time>2026-05-01T14:02:01.633Z</time></trkpt><trkpt lat="41.867088" lon="13.7541207"><ele>1353.0</ele><time>2026-05-01T14:02:02.64Z</time></trkpt><trkpt lat="41.8670076" lon="13.7543123"><ele>1353.0</ele><time>2026-05-01T14:02:03.638Z</time></trkpt><trkpt lat="41.8669247" lon="13.7544993"><ele>1354.6666666666667</ele><time>2026-05-01T14:02:04.645Z</time></trkpt><trkpt lat="41.8668217" lon="13.7546819"><ele>1356.3333333333335</ele><time>2026-05-01T14:02:05.64Z</time></trkpt><trkpt lat="41.8667075" lon="13.7548481"><ele>1358.0</ele><time>2026-05-01T14:02:06.656Z</time></trkpt><trkpt lat="41.8665809" lon="13.7549948"><ele>1354.0</ele><time>2026-05-01T14:02:07.633Z</time></trkpt><trkpt lat="41.8664506" lon="13.7551283"><ele>1350.0</ele><time>2026-05-01T14:02:08.633Z</time></trkpt><trkpt lat="41.8663299" lon="13.7552603"><ele>1346.0</ele><time>2026-05-01T14:02:09.639Z</time></trkpt><trkpt lat="41.8662185" lon="13.7554109"><ele>1346.0</ele><time>2026-05-01T14:02:10.643Z</time></trkpt><trkpt lat="41.8661217" lon="13.7555791"><ele>1346.0</ele><time>2026-05-01T14:02:11.642Z</time></trkpt><trkpt lat="41.8660314" lon="13.7557742"><ele>1346.0</ele><time>2026-05-01T14:02:12.65Z</time></trkpt><trkpt lat="41.8659432" lon="13.7559852"><ele>1340.3333333333335</ele><time>2026-05-01T14:02:13.633Z</time></trkpt><trkpt lat="41.8658557" lon="13.7562034"><ele>1334.6666666666667</ele><time>2026-05-01T14:02:14.643Z</time></trkpt><trkpt lat="41.8657643" lon="13.7564185"><ele>1329.0</ele><time>2026-05-01T14:02:15.648Z</time></trkpt><trkpt lat="41.865683" lon="13.7566273"><ele>1329.0</ele><time>2026-05-01T14:02:16.637Z</time></trkpt><trkpt lat="41.8656018" lon="13.7568242"><ele>1329.0</ele><time>2026-05-01T14:02:17.639Z</time></trkpt><trkpt lat="41.865509" lon="13.7569965"><ele>1329.0</ele><time>2026-05-01T14:02:18.646Z</time></trkpt><trkpt lat="41.8654064" lon="13.7571373"><ele>1329.5</ele><time>2026-05-01T14:02:19.646Z</time></trkpt><trkpt lat="41.8653059" lon="13.7572717"><ele>1330.0</ele><time>2026-05-01T14:02:20.641Z</time></trkpt><trkpt lat="41.865219" lon="13.7574207"><ele>1330.5</ele><time>2026-05-01T14:02:21.644Z</time></trkpt><trkpt lat="41.8651436" lon="13.7575711"><ele>1331.0</ele><time>2026-05-01T14:02:22.653Z</time></trkpt><trkpt lat="41.8650848" lon="13.7577171"><ele>1332.25</ele><time>2026-05-01T14:02:23.633Z</time></trkpt><trkpt lat="41.86505" lon="13.7578669"><ele>1333.5</ele><time>2026-05-01T14:02:24.641Z</time></trkpt><trkpt lat="41.8650516" lon="13.7580339"><ele>1334.75</ele><time>2026-05-01T14:02:25.645Z</time></trkpt><trkpt lat="41.8650802" lon="13.7582101"><ele>1336.0</ele><time>2026-05-01T14:02:26.637Z</time></trkpt><trkpt lat="41.8651195" lon="13.7583899"><ele>1336.5</ele><time>2026-05-01T14:02:27.659Z</time></trkpt><trkpt lat="41.8651548" lon="13.7585691"><ele>1337.0</ele><time>2026-05-01T14:02:28.639Z</time></trkpt><trkpt lat="41.8651748" lon="13.7587475"><ele>1337.5</ele><time>2026-05-01T14:02:29.647Z</time></trkpt><trkpt lat="41.8651691" lon="13.7589271"><ele>1338.0</ele><time>2026-05-01T14:02:30.643Z</time></trkpt><trkpt lat="41.8651375" lon="13.7591009"><ele>1333.0</ele><time>2026-05-01T14:02:31.638Z</time></trkpt><trkpt lat="41.8650776" lon="13.7592716"><ele>1328.0</ele><time>2026-05-01T14:02:32.638Z</time></trkpt><trkpt lat="41.8649927" lon="13.7594208"><ele>1323.0</ele><time>2026-05-01T14:02:33.655Z</time></trkpt><trkpt lat="41.8648934" lon="13.7595281"><ele>1318.0</ele><time>2026-05-01T14:02:34.64Z</time></trkpt><trkpt lat="41.864789" lon="13.7596045"><ele>1318.0</ele><time>2026-05-01T14:02:35.636Z</time></trkpt><trkpt lat="41.8646977" lon="13.7596719"><ele>1318.0</ele><time>2026-05-01T14:02:36.639Z</time></trkpt><trkpt lat="41.8646291" lon="13.7597583"><ele>1318.0</ele><time>2026-05-01T14:02:37.634Z</time></trkpt><trkpt lat="41.8645878" lon="13.7598774"><ele>1318.0</ele><time>2026-05-01T14:02:38.632Z</time></trkpt><trkpt lat="41.8645718" lon="13.7600265"><ele>1318.0</ele><time>2026-05-01T14:02:39.641Z</time></trkpt><trkpt lat="41.864563" lon="13.7601877"><ele>1318.5</ele><time>2026-05-01T14:02:40.634Z</time></trkpt><trkpt lat="41.8645328" lon="13.7603479"><ele>1319.0</ele><time>2026-05-01T14:02:41.647Z</time></trkpt><trkpt lat="41.8644788" lon="13.7604953"><ele>1319.5</ele><time>2026-05-01T14:02:42.64Z</time></trkpt><trkpt lat="41.8644043" lon="13.7606291"><ele>1320.0</ele><time>2026-05-01T14:02:43.636Z</time></trkpt><trkpt lat="41.8643294" lon="13.7607496"><ele>1316.0</ele><time>2026-05-01T14:02:44.64Z</time></trkpt><trkpt lat="41.864266" lon="13.7608827"><ele>1312.0</ele><time>2026-05-01T14:02:45.645Z</time></trkpt><trkpt lat="41.8642405" lon="13.7610409"><ele>1308.0</ele><time>2026-05-01T14:02:46.646Z</time></trkpt><trkpt lat="41.8642594" lon="13.7612223"><ele>1304.0</ele><time>2026-05-01T14:02:47.657Z</time></trkpt><trkpt lat="41.8642794" lon="13.7614098"><ele>1304.0</ele><time>2026-05-01T14:02:48.637Z</time></trkpt><trkpt lat="41.8642617" lon="13.7616097"><ele>1304.0</ele><time>2026-05-01T14:02:49.634Z</time></trkpt><trkpt lat="41.8642149" lon="13.7618091"><ele>1304.0</ele><time>2026-05-01T14:02:50.644Z</time></trkpt><trkpt lat="41.8641475" lon="13.7620162"><ele>1305.0</ele><time>2026-05-01T14:02:51.645Z</time></trkpt><trkpt lat="41.8640736" lon="13.7622317"><ele>1306.0</ele><time>2026-05-01T14:02:52.644Z</time></trkpt><trkpt lat="41.8639947" lon="13.7624438"><ele>1307.0</ele><time>2026-05-01T14:02:53.65Z</time></trkpt><trkpt lat="41.8639261" lon="13.7626568"><ele>1306.6666666666667</ele><time>2026-05-01T14:02:54.643Z</time></trkpt><trkpt lat="41.8638665" lon="13.7628637"><ele>1306.3333333333333</ele><time>2026-05-01T14:02:55.647Z</time></trkpt><trkpt lat="41.8638333" lon="13.7630699"><ele>1306.0</ele><time>2026-05-01T14:02:56.634Z</time></trkpt><trkpt lat="41.8638355" lon="13.7632766"><ele>1306.0</ele><time>2026-05-01T14:02:57.635Z</time></trkpt><trkpt lat="41.8638506" lon="13.7634883"><ele>1306.0</ele><time>2026-05-01T14:02:58.641Z</time></trkpt><trkpt lat="41.8638652" lon="13.763699"><ele>1306.0</ele><time>2026-05-01T14:02:59.64Z</time></trkpt><trkpt lat="41.8638779" lon="13.763904"><ele>1307.0</ele><time>2026-05-01T14:03:00.657Z</time></trkpt><trkpt lat="41.8638804" lon="13.7641003"><ele>1308.0</ele><time>2026-05-01T14:03:01.643Z</time></trkpt><trkpt lat="41.863871" lon="13.7642938"><ele>1309.0</ele><time>2026-05-01T14:03:02.64Z</time></trkpt><trkpt lat="41.8638381" lon="13.7644618"><ele>1310.0</ele><time>2026-05-01T14:03:03.64Z</time></trkpt><trkpt lat="41.8637935" lon="13.7645958"><ele>1311.0</ele><time>2026-05-01T14:03:04.64Z</time></trkpt><trkpt lat="41.863745" lon="13.7646902"><ele>1312.0</ele><time>2026-05-01T14:03:05.639Z</time></trkpt><trkpt lat="41.8636999" lon="13.7647942"><ele>1313.0</ele><time>2026-05-01T14:03:07.638Z</time></trkpt><trkpt lat="41.8636684" lon="13.7649143"><ele>1314.0</ele><time>2026-05-01T14:06:55.64Z</time></trkpt><trkpt lat="41.8636609" lon="13.7650667"><ele>1315.0</ele><time>2026-05-01T14:06:57.648Z</time></trkpt><trkpt lat="41.8636478" lon="13.7651746"><ele>1315.4</ele><time>2026-05-01T14:06:58.662Z</time></trkpt><trkpt lat="41.8636124" lon="13.7652971"><ele>1315.8</ele><time>2026-05-01T14:06:59.638Z</time></trkpt><trkpt lat="41.8635577" lon="13.7654285"><ele>1316.1999999999998</ele><time>2026-05-01T14:07:00.641Z</time></trkpt><trkpt lat="41.8634887" lon="13.7655548"><ele>1316.6</ele><time>2026-05-01T14:07:01.646Z</time></trkpt><trkpt lat="41.8634084" lon="13.7656741"><ele>1317.0</ele><time>2026-05-01T14:07:02.639Z</time></trkpt><trkpt lat="41.863329" lon="13.7658038"><ele>1312.0</ele><time>2026-05-01T14:07:03.64Z</time></trkpt><trkpt lat="41.863247" lon="13.7659323"><ele>1307.0</ele><time>2026-05-01T14:07:04.645Z</time></trkpt><trkpt lat="41.8631524" lon="13.7660498"><ele>1302.0</ele><time>2026-05-01T14:07:05.638Z</time></trkpt><trkpt lat="41.8630425" lon="13.7661444"><ele>1297.0</ele><time>2026-05-01T14:07:06.641Z</time></trkpt><trkpt lat="41.8629208" lon="13.7662353"><ele>1297.0</ele><time>2026-05-01T14:07:07.637Z</time></trkpt><trkpt lat="41.8628051" lon="13.7663374"><ele>1297.0</ele><time>2026-05-01T14:07:08.635Z</time></trkpt><trkpt lat="41.8626956" lon="13.7664802"><ele>1297.0</ele><time>2026-05-01T14:07:09.641Z</time></trkpt><trkpt lat="41.8625912" lon="13.7666515"><ele>1294.0</ele><time>2026-05-01T14:07:10.634Z</time></trkpt><trkpt lat="41.8624941" lon="13.766844"><ele>1291.0</ele><time>2026-05-01T14:07:11.641Z</time></trkpt><trkpt lat="41.8623883" lon="13.7670126"><ele>1288.0</ele><time>2026-05-01T14:07:12.661Z</time></trkpt><trkpt lat="41.8622692" lon="13.7671564"><ele>1288.0</ele><time>2026-05-01T14:07:13.637Z</time></trkpt><trkpt lat="41.8621508" lon="13.7672818"><ele>1288.0</ele><time>2026-05-01T14:07:14.636Z</time></trkpt><trkpt lat="41.8620477" lon="13.7674131"><ele>1288.0</ele><time>2026-05-01T14:07:15.634Z</time></trkpt><trkpt lat="41.8619653" lon="13.7675711"><ele>1288.0</ele><time>2026-05-01T14:07:16.636Z</time></trkpt><trkpt lat="41.8619013" lon="13.7677533"><ele>1291.6666666666665</ele><time>2026-05-01T14:07:17.638Z</time></trkpt><trkpt lat="41.8618499" lon="13.7679497"><ele>1295.3333333333333</ele><time>2026-05-01T14:07:18.664Z</time></trkpt><trkpt lat="41.8618041" lon="13.7681507"><ele>1299.0</ele><time>2026-05-01T14:07:19.64Z</time></trkpt><trkpt lat="41.8617538" lon="13.7683377"><ele>1295.3333333333333</ele><time>2026-05-01T14:07:20.636Z</time></trkpt><trkpt lat="41.8616821" lon="13.7685156"><ele>1291.6666666666665</ele><time>2026-05-01T14:07:21.645Z</time></trkpt><trkpt lat="41.8615877" lon="13.7686745"><ele>1288.0</ele><time>2026-05-01T14:07:22.638Z</time></trkpt><trkpt lat="41.8614858" lon="13.7688235"><ele>1288.0</ele><time>2026-05-01T14:07:23.635Z</time></trkpt><trkpt lat="41.8613794" lon="13.7689713"><ele>1288.0</ele><time>2026-05-01T14:07:24.638Z</time></trkpt><trkpt lat="41.8612738" lon="13.7690999"><ele>1288.0</ele><time>2026-05-01T14:07:25.635Z</time></trkpt><trkpt lat="41.8611617" lon="13.7692049"><ele>1288.0</ele><time>2026-05-01T14:07:26.651Z</time></trkpt><trkpt lat="41.8610546" lon="13.7692694"><ele>1283.0</ele><time>2026-05-01T14:07:27.635Z</time></trkpt><trkpt lat="41.8609321" lon="13.7692981"><ele>1278.0</ele><time>2026-05-01T14:07:28.639Z</time></trkpt><trkpt lat="41.860798" lon="13.7692941"><ele>1273.0</ele><time>2026-05-01T14:07:29.631Z</time></trkpt><trkpt lat="41.8606605" lon="13.7692869"><ele>1268.0</ele><time>2026-05-01T14:07:30.642Z</time></trkpt><trkpt lat="41.8605341" lon="13.7692987"><ele>1268.0</ele><time>2026-05-01T14:07:31.64Z</time></trkpt><trkpt lat="41.8604161" lon="13.7693319"><ele>1268.0</ele><time>2026-05-01T14:07:32.631Z</time></trkpt><trkpt lat="41.8603141" lon="13.7693932"><ele>1268.0</ele><time>2026-05-01T14:07:33.633Z</time></trkpt><trkpt lat="41.8602197" lon="13.7695007"><ele>1268.0</ele><time>2026-05-01T14:07:34.635Z</time></trkpt><trkpt lat="41.860147" lon="13.7696529"><ele>1268.5</ele><time>2026-05-01T14:07:35.636Z</time></trkpt><trkpt lat="41.8600924" lon="13.7698268"><ele>1269.0</ele><time>2026-05-01T14:07:36.622Z</time></trkpt><trkpt lat="41.8600388" lon="13.7700024"><ele>1269.5</ele><time>2026-05-01T14:07:37.642Z</time></trkpt><trkpt lat="41.8599647" lon="13.7701522"><ele>1270.0</ele><time>2026-05-01T14:07:38.638Z</time></trkpt><trkpt lat="41.859871" lon="13.770281"><ele>1270.0</ele><time>2026-05-01T14:07:39.646Z</time></trkpt><trkpt lat="41.8597612" lon="13.7704058"><ele>1270.0</ele><time>2026-05-01T14:07:40.652Z</time></trkpt><trkpt lat="41.8596469" lon="13.7705231"><ele>1270.0</ele><time>2026-05-01T14:07:41.647Z</time></trkpt><trkpt lat="41.8595294" lon="13.7706441"><ele>1270.0</ele><time>2026-05-01T14:07:42.636Z</time></trkpt><trkpt lat="41.8594066" lon="13.770768"><ele>1270.0</ele><time>2026-05-01T14:07:43.642Z</time></trkpt><trkpt lat="41.8592952" lon="13.7709004"><ele>1270.0</ele><time>2026-05-01T14:07:44.651Z</time></trkpt><trkpt lat="41.8591853" lon="13.7710416"><ele>1270.0</ele><time>2026-05-01T14:07:45.638Z</time></trkpt><trkpt lat="41.859084" lon="13.7711935"><ele>1267.0</ele><time>2026-05-01T14:07:46.635Z</time></trkpt><trkpt lat="41.8589928" lon="13.7713393"><ele>1264.0</ele><time>2026-05-01T14:07:47.647Z</time></trkpt><trkpt lat="41.8589002" lon="13.7714758"><ele>1261.0</ele><time>2026-05-01T14:07:48.647Z</time></trkpt><trkpt lat="41.8588066" lon="13.7716001"><ele>1258.0</ele><time>2026-05-01T14:07:49.638Z</time></trkpt><trkpt lat="41.8587099" lon="13.7716998"><ele>1258.0</ele><time>2026-05-01T14:07:50.645Z</time></trkpt><trkpt lat="41.8586189" lon="13.7717682"><ele>1258.0</ele><time>2026-05-01T14:07:51.646Z</time></trkpt><trkpt lat="41.8585184" lon="13.7717922"><ele>1258.0</ele><time>2026-05-01T14:07:52.635Z</time></trkpt><trkpt lat="41.8584091" lon="13.7717791"><ele>1258.0</ele><time>2026-05-01T14:07:53.633Z</time></trkpt><trkpt lat="41.8582947" lon="13.7717422"><ele>1258.0</ele><time>2026-05-01T14:07:54.637Z</time></trkpt><trkpt lat="41.8581769" lon="13.7716775"><ele>1256.25</ele><time>2026-05-01T14:07:55.63Z</time></trkpt><trkpt lat="41.8580641" lon="13.7716143"><ele>1254.5</ele><time>2026-05-01T14:07:56.638Z</time></trkpt><trkpt lat="41.8579443" lon="13.7715768"><ele>1252.75</ele><time>2026-05-01T14:07:57.64Z</time></trkpt><trkpt lat="41.8578204" lon="13.7715604"><ele>1251.0</ele><time>2026-05-01T14:07:58.636Z</time></trkpt><trkpt lat="41.8576852" lon="13.7715708"><ele>1250.0</ele><time>2026-05-01T14:07:59.637Z</time></trkpt><trkpt lat="41.8575493" lon="13.7716136"><ele>1249.0</ele><time>2026-05-01T14:08:00.633Z</time></trkpt><trkpt lat="41.857401" lon="13.7716765"><ele>1248.0</ele><time>2026-05-01T14:08:01.635Z</time></trkpt><trkpt lat="41.8572612" lon="13.7717755"><ele>1253.6666666666667</ele><time>2026-05-01T14:08:02.64Z</time></trkpt><trkpt lat="41.8571334" lon="13.7719031"><ele>1259.3333333333335</ele><time>2026-05-01T14:08:03.635Z</time></trkpt><trkpt lat="41.8570116" lon="13.7720625"><ele>1265.0</ele><time>2026-05-01T14:08:04.64Z</time></trkpt><trkpt lat="41.8568876" lon="13.7722032"><ele>1261.25</ele><time>2026-05-01T14:08:05.639Z</time></trkpt><trkpt lat="41.8567772" lon="13.7723433"><ele>1257.5</ele><time>2026-05-01T14:08:06.645Z</time></trkpt><trkpt lat="41.8566622" lon="13.7724724"><ele>1253.75</ele><time>2026-05-01T14:08:07.66Z</time></trkpt><trkpt lat="41.8565382" lon="13.7725797"><ele>1250.0</ele><time>2026-05-01T14:08:08.638Z</time></trkpt><trkpt lat="41.8564139" lon="13.7726525"><ele>1250.0</ele><time>2026-05-01T14:08:09.647Z</time></trkpt><trkpt lat="41.8562949" lon="13.772682"><ele>1250.0</ele><time>2026-05-01T14:08:10.633Z</time></trkpt><trkpt lat="41.8561802" lon="13.7726719"><ele>1250.0</ele><time>2026-05-01T14:08:11.63Z</time></trkpt><trkpt lat="41.8560747" lon="13.7726272"><ele>1250.0</ele><time>2026-05-01T14:08:12.643Z</time></trkpt><trkpt lat="41.8559691" lon="13.7725943"><ele>1248.0</ele><time>2026-05-01T14:08:13.641Z</time></trkpt><trkpt lat="41.855871" lon="13.7726109"><ele>1246.0</ele><time>2026-05-01T14:08:14.642Z</time></trkpt><trkpt lat="41.8557638" lon="13.7726662"><ele>1244.0</ele><time>2026-05-01T14:08:15.638Z</time></trkpt><trkpt lat="41.8556435" lon="13.772752"><ele>1242.0</ele><time>2026-05-01T14:08:16.631Z</time></trkpt><trkpt lat="41.8555147" lon="13.7728588"><ele>1242.3333333333333</ele><time>2026-05-01T14:08:17.641Z</time></trkpt><trkpt lat="41.8553792" lon="13.7729715"><ele>1242.6666666666665</ele><time>2026-05-01T14:08:18.637Z</time></trkpt><trkpt lat="41.8552282" lon="13.7730993"><ele>1243.0</ele><time>2026-05-01T14:08:19.648Z</time></trkpt><trkpt lat="41.8550681" lon="13.7732362"><ele>1243.0</ele><time>2026-05-01T14:08:20.639Z</time></trkpt><trkpt lat="41.8549045" lon="13.7733711"><ele>1243.0</ele><time>2026-05-01T14:08:21.641Z</time></trkpt><trkpt lat="41.8547517" lon="13.7734965"><ele>1243.0</ele><time>2026-05-01T14:08:22.639Z</time></trkpt><trkpt lat="41.8546018" lon="13.7736139"><ele>1242.6666666666665</ele><time>2026-05-01T14:08:23.644Z</time></trkpt><trkpt lat="41.8544491" lon="13.7737169"><ele>1242.3333333333333</ele><time>2026-05-01T14:08:24.639Z</time></trkpt><trkpt lat="41.8543112" lon="13.7738293"><ele>1242.0</ele><time>2026-05-01T14:08:25.656Z</time></trkpt><trkpt lat="41.8541786" lon="13.7739473"><ele>1242.0</ele><time>2026-05-01T14:08:26.642Z</time></trkpt><trkpt lat="41.8540604" lon="13.7740764"><ele>1242.0</ele><time>2026-05-01T14:08:27.641Z</time></trkpt><trkpt lat="41.8539609" lon="13.7742167"><ele>1242.0</ele><time>2026-05-01T14:08:28.639Z</time></trkpt><trkpt lat="41.8538672" lon="13.7743681"><ele>1242.0</ele><time>2026-05-01T14:08:29.64Z</time></trkpt><trkpt lat="41.8537654" lon="13.7745142"><ele>1241.3333333333333</ele><time>2026-05-01T14:08:30.647Z</time></trkpt><trkpt lat="41.8536543" lon="13.7746529"><ele>1240.6666666666665</ele><time>2026-05-01T14:08:31.634Z</time></trkpt><trkpt lat="41.8535401" lon="13.7747897"><ele>1240.0</ele><time>2026-05-01T14:08:32.637Z</time></trkpt><trkpt lat="41.8534181" lon="13.7749317"><ele>1240.0</ele><time>2026-05-01T14:08:33.641Z</time></trkpt><trkpt lat="41.8532917" lon="13.7750701"><ele>1240.0</ele><time>2026-05-01T14:08:34.632Z</time></trkpt><trkpt lat="41.8531568" lon="13.7752052"><ele>1240.0</ele><time>2026-05-01T14:08:35.639Z</time></trkpt><trkpt lat="41.8530168" lon="13.7753285"><ele>1244.0</ele><time>2026-05-01T14:08:36.629Z</time></trkpt><trkpt lat="41.8528859" lon="13.7754591"><ele>1248.0</ele><time>2026-05-01T14:08:37.647Z</time></trkpt><trkpt lat="41.8527657" lon="13.7755953"><ele>1252.0</ele><time>2026-05-01T14:08:38.637Z</time></trkpt><trkpt lat="41.8526562" lon="13.7757478"><ele>1247.3333333333333</ele><time>2026-05-01T14:08:39.644Z</time></trkpt><trkpt lat="41.8525455" lon="13.77592"><ele>1242.6666666666667</ele><time>2026-05-01T14:08:40.644Z</time></trkpt><trkpt lat="41.8524565" lon="13.7761332"><ele>1238.0</ele><time>2026-05-01T14:08:41.637Z</time></trkpt><trkpt lat="41.8523791" lon="13.7763821"><ele>1238.0</ele><time>2026-05-01T14:08:42.642Z</time></trkpt><trkpt lat="41.8523001" lon="13.7766005"><ele>1238.0</ele><time>2026-05-01T14:08:43.636Z</time></trkpt><trkpt lat="41.852224" lon="13.7767814"><ele>1238.0</ele><time>2026-05-01T14:08:44.635Z</time></trkpt><trkpt lat="41.8521244" lon="13.7769333"><ele>1239.0</ele><time>2026-05-01T14:08:45.638Z</time></trkpt><trkpt lat="41.8519948" lon="13.777063"><ele>1240.0</ele><time>2026-05-01T14:08:46.629Z</time></trkpt><trkpt lat="41.8518446" lon="13.7771813"><ele>1241.0</ele><time>2026-05-01T14:08:47.633Z</time></trkpt><trkpt lat="41.8516733" lon="13.7772894"><ele>1235.6666666666667</ele><time>2026-05-01T14:08:48.635Z</time></trkpt><trkpt lat="41.8514968" lon="13.7774043"><ele>1230.3333333333333</ele><time>2026-05-01T14:08:49.636Z</time></trkpt><trkpt lat="41.8513089" lon="13.7775168"><ele>1225.0</ele><time>2026-05-01T14:08:50.632Z</time></trkpt><trkpt lat="41.8511112" lon="13.7776393"><ele>1224.0</ele><time>2026-05-01T14:08:51.637Z</time></trkpt><trkpt lat="41.8509157" lon="13.777761"><ele>1223.0</ele><time>2026-05-01T14:08:52.645Z</time></trkpt><trkpt lat="41.8507166" lon="13.7778835"><ele>1222.0</ele><time>2026-05-01T14:08:53.632Z</time></trkpt><trkpt lat="41.8505267" lon="13.7780015"><ele>1222.0</ele><time>2026-05-01T14:08:54.633Z</time></trkpt><trkpt lat="41.8503469" lon="13.7781186"><ele>1222.0</ele><time>2026-05-01T14:08:55.636Z</time></trkpt><trkpt lat="41.8501767" lon="13.7782368"><ele>1222.0</ele><time>2026-05-01T14:08:56.627Z</time></trkpt><trkpt lat="41.8500126" lon="13.7783489"><ele>1222.6666666666665</ele><time>2026-05-01T14:08:57.645Z</time></trkpt><trkpt lat="41.84985" lon="13.7784662"><ele>1223.3333333333333</ele><time>2026-05-01T14:08:58.644Z</time></trkpt><trkpt lat="41.849693" lon="13.7786064"><ele>1224.0</ele><time>2026-05-01T14:08:59.635Z</time></trkpt><trkpt lat="41.8495407" lon="13.7787698"><ele>1224.6666666666667</ele><time>2026-05-01T14:09:00.636Z</time></trkpt><trkpt lat="41.8493944" lon="13.7789487"><ele>1225.3333333333335</ele><time>2026-05-01T14:09:01.642Z</time></trkpt><trkpt lat="41.8492553" lon="13.7791239"><ele>1226.0</ele><time>2026-05-01T14:09:02.643Z</time></trkpt><trkpt lat="41.849122" lon="13.7792918"><ele>1223.3333333333335</ele><time>2026-05-01T14:09:03.633Z</time></trkpt><trkpt lat="41.848988" lon="13.7794462"><ele>1220.6666666666667</ele><time>2026-05-01T14:09:04.643Z</time></trkpt><trkpt lat="41.8488417" lon="13.7795801"><ele>1218.0</ele><time>2026-05-01T14:09:05.653Z</time></trkpt><trkpt lat="41.8486806" lon="13.779708"><ele>1218.0</ele><time>2026-05-01T14:09:06.642Z</time></trkpt><trkpt lat="41.8485004" lon="13.7798218"><ele>1218.0</ele><time>2026-05-01T14:09:07.644Z</time></trkpt><trkpt lat="41.8483119" lon="13.779929"><ele>1218.0</ele><time>2026-05-01T14:09:08.647Z</time></trkpt><trkpt lat="41.8481155" lon="13.7800267"><ele>1217.6666666666667</ele><time>2026-05-01T14:09:09.634Z</time></trkpt><trkpt lat="41.8479177" lon="13.7801289"><ele>1217.3333333333335</ele><time>2026-05-01T14:09:10.659Z</time></trkpt><trkpt lat="41.8477205" lon="13.7802237"><ele>1217.0</ele><time>2026-05-01T14:09:11.645Z</time></trkpt><trkpt lat="41.8475276" lon="13.7803215"><ele>1217.0</ele><time>2026-05-01T14:09:12.637Z</time></trkpt><trkpt lat="41.8473373" lon="13.7804169"><ele>1217.0</ele><time>2026-05-01T14:09:13.631Z</time></trkpt><trkpt lat="41.8471449" lon="13.7805158"><ele>1217.0</ele><time>2026-05-01T14:09:14.635Z</time></trkpt><trkpt lat="41.846956" lon="13.7806155"><ele>1217.6666666666667</ele><time>2026-05-01T14:09:15.646Z</time></trkpt><trkpt lat="41.8467676" lon="13.7807406"><ele>1218.3333333333333</ele><time>2026-05-01T14:09:16.638Z</time></trkpt><trkpt lat="41.8465844" lon="13.78088"><ele>1219.0</ele><time>2026-05-01T14:09:17.634Z</time></trkpt><trkpt lat="41.8464098" lon="13.7810409"><ele>1218.6666666666665</ele><time>2026-05-01T14:09:18.637Z</time></trkpt><trkpt lat="41.8462291" lon="13.7811998"><ele>1218.3333333333333</ele><time>2026-05-01T14:09:19.635Z</time></trkpt><trkpt lat="41.8460436" lon="13.7813572"><ele>1218.0</ele><time>2026-05-01T14:09:20.642Z</time></trkpt><trkpt lat="41.8458619" lon="13.7815132"><ele>1218.0</ele><time>2026-05-01T14:09:21.64Z</time></trkpt><trkpt lat="41.8456811" lon="13.7816715"><ele>1218.0</ele><time>2026-05-01T14:09:22.643Z</time></trkpt><trkpt lat="41.8454965" lon="13.7818288"><ele>1218.0</ele><time>2026-05-01T14:09:23.636Z</time></trkpt><trkpt lat="41.8453113" lon="13.7819906"><ele>1217.6666666666667</ele><time>2026-05-01T14:09:24.642Z</time></trkpt><trkpt lat="41.8451271" lon="13.7821494"><ele>1217.3333333333335</ele><time>2026-05-01T14:09:25.637Z</time></trkpt><trkpt lat="41.8449457" lon="13.7823057"><ele>1217.0</ele><time>2026-05-01T14:09:26.639Z</time></trkpt><trkpt lat="41.8447651" lon="13.7824647"><ele>1217.0</ele><time>2026-05-01T14:09:27.636Z</time></trkpt><trkpt lat="41.8445924" lon="13.7826221"><ele>1217.0</ele><time>2026-05-01T14:09:28.64Z</time></trkpt><trkpt lat="41.8444201" lon="13.7827847"><ele>1217.0</ele><time>2026-05-01T14:09:29.65Z</time></trkpt><trkpt lat="41.8442575" lon="13.78296"><ele>1217.3333333333335</ele><time>2026-05-01T14:09:30.634Z</time></trkpt><trkpt lat="41.844095" lon="13.7831451"><ele>1217.6666666666667</ele><time>2026-05-01T14:09:31.645Z</time></trkpt><trkpt lat="41.8439343" lon="13.7833296"><ele>1218.0</ele><time>2026-05-01T14:09:32.639Z</time></trkpt><trkpt lat="41.8437792" lon="13.7835064"><ele>1217.6666666666667</ele><time>2026-05-01T14:09:33.641Z</time></trkpt><trkpt lat="41.8436293" lon="13.7836775"><ele>1217.3333333333335</ele><time>2026-05-01T14:09:34.643Z</time></trkpt><trkpt lat="41.8434873" lon="13.7838363"><ele>1217.0</ele><time>2026-05-01T14:09:35.65Z</time></trkpt><trkpt lat="41.8433515" lon="13.7839857"><ele>1217.0</ele><time>2026-05-01T14:09:36.633Z</time></trkpt><trkpt lat="41.8432156" lon="13.7841254"><ele>1217.0</ele><time>2026-05-01T14:09:37.637Z</time></trkpt><trkpt lat="41.8430766" lon="13.7842535"><ele>1217.0</ele><time>2026-05-01T14:09:38.645Z</time></trkpt><trkpt lat="41.8429277" lon="13.7843634"><ele>1215.6666666666667</ele><time>2026-05-01T14:09:39.654Z</time></trkpt><trkpt lat="41.842767" lon="13.7844694"><ele>1214.3333333333333</ele><time>2026-05-01T14:09:40.638Z</time></trkpt><trkpt lat="41.8425963" lon="13.7845729"><ele>1213.0</ele><time>2026-05-01T14:09:41.639Z</time></trkpt><trkpt lat="41.8424229" lon="13.7846723"><ele>1213.0</ele><time>2026-05-01T14:09:42.639Z</time></trkpt><trkpt lat="41.8422484" lon="13.7847695"><ele>1213.0</ele><time>2026-05-01T14:09:43.634Z</time></trkpt><trkpt lat="41.8420676" lon="13.784863"><ele>1213.0</ele><time>2026-05-01T14:09:44.639Z</time></trkpt><trkpt lat="41.841883" lon="13.7849619"><ele>1213.3333333333333</ele><time>2026-05-01T14:09:45.635Z</time></trkpt><trkpt lat="41.8416967" lon="13.7850655"><ele>1213.6666666666667</ele><time>2026-05-01T14:09:46.647Z</time></trkpt><trkpt lat="41.841512" lon="13.7851664"><ele>1214.0</ele><time>2026-05-01T14:09:47.641Z</time></trkpt><trkpt lat="41.8413325" lon="13.7852629"><ele>1212.3333333333335</ele><time>2026-05-01T14:09:48.637Z</time></trkpt><trkpt lat="41.8411487" lon="13.7853613"><ele>1210.6666666666667</ele><time>2026-05-01T14:09:49.635Z</time></trkpt><trkpt lat="41.840959" lon="13.7854644"><ele>1209.0</ele><time>2026-05-01T14:09:50.642Z</time></trkpt><trkpt lat="41.8407547" lon="13.7855369"><ele>1209.0</ele><time>2026-05-01T14:09:51.633Z</time></trkpt><trkpt lat="41.8405418" lon="13.7855778"><ele>1209.0</ele><time>2026-05-01T14:09:52.641Z</time></trkpt><trkpt lat="41.8403305" lon="13.7855897"><ele>1209.0</ele><time>2026-05-01T14:09:53.636Z</time></trkpt><trkpt lat="41.8401156" lon="13.7856079"><ele>1207.3333333333333</ele><time>2026-05-01T14:09:54.631Z</time></trkpt><trkpt lat="41.8398997" lon="13.785655"><ele>1205.6666666666665</ele><time>2026-05-01T14:09:55.635Z</time></trkpt><trkpt lat="41.8396784" lon="13.7857119"><ele>1204.0</ele><time>2026-05-01T14:09:56.642Z</time></trkpt><trkpt lat="41.8394564" lon="13.7857742"><ele>1204.0</ele><time>2026-05-01T14:09:57.633Z</time></trkpt><trkpt lat="41.839237" lon="13.7858291"><ele>1204.0</ele><time>2026-05-01T14:09:58.649Z</time></trkpt><trkpt lat="41.8390136" lon="13.7858906"><ele>1204.0</ele><time>2026-05-01T14:09:59.638Z</time></trkpt><trkpt lat="41.8387869" lon="13.7859513"><ele>1204.0</ele><time>2026-05-01T14:10:00.64Z</time></trkpt><trkpt lat="41.8385611" lon="13.786016"><ele>1202.5</ele><time>2026-05-01T14:10:01.639Z</time></trkpt><trkpt lat="41.8383333" lon="13.786083"><ele>1201.0</ele><time>2026-05-01T14:10:02.641Z</time></trkpt><trkpt lat="41.8381054" lon="13.7861514"><ele>1201.0</ele><time>2026-05-01T14:10:03.631Z</time></trkpt><trkpt lat="41.8378726" lon="13.7862265"><ele>1201.0</ele><time>2026-05-01T14:10:04.634Z</time></trkpt><trkpt lat="41.8376405" lon="13.7863081"><ele>1201.0</ele><time>2026-05-01T14:10:05.638Z</time></trkpt><trkpt lat="41.8374058" lon="13.7863881"><ele>1201.0</ele><time>2026-05-01T14:10:06.635Z</time></trkpt><trkpt lat="41.837171" lon="13.7864647"><ele>1201.0</ele><time>2026-05-01T14:10:07.632Z</time></trkpt><trkpt lat="41.8369354" lon="13.7865381"><ele>1201.0</ele><time>2026-05-01T14:10:08.633Z</time></trkpt><trkpt lat="41.836699" lon="13.7866157"><ele>1201.0</ele><time>2026-05-01T14:10:09.635Z</time></trkpt><trkpt lat="41.8364684" lon="13.7866927"><ele>1201.0</ele><time>2026-05-01T14:10:10.639Z</time></trkpt><trkpt lat="41.8362362" lon="13.7867704"><ele>1198.5</ele><time>2026-05-01T14:10:11.633Z</time></trkpt><trkpt lat="41.8360137" lon="13.7868451"><ele>1196.0</ele><time>2026-05-01T14:10:12.638Z</time></trkpt><trkpt lat="41.8357866" lon="13.7869207"><ele>1196.0</ele><time>2026-05-01T14:10:13.636Z</time></trkpt><trkpt lat="41.8355523" lon="13.7869791"><ele>1196.0</ele><time>2026-05-01T14:10:14.639Z</time></trkpt><trkpt lat="41.8353142" lon="13.7870331"><ele>1195.5</ele><time>2026-05-01T14:10:15.654Z</time></trkpt><trkpt lat="41.8350762" lon="13.7870873"><ele>1195.0</ele><time>2026-05-01T14:10:16.643Z</time></trkpt><trkpt lat="41.8348374" lon="13.7871382"><ele>1195.0</ele><time>2026-05-01T14:10:17.642Z</time></trkpt><trkpt lat="41.8345979" lon="13.787188"><ele>1195.0</ele><time>2026-05-01T14:10:18.639Z</time></trkpt><trkpt lat="41.8343564" lon="13.7872338"><ele>1194.0</ele><time>2026-05-01T14:10:19.639Z</time></trkpt><trkpt lat="41.8341185" lon="13.7872877"><ele>1193.0</ele><time>2026-05-01T14:10:20.641Z</time></trkpt><trkpt lat="41.8338789" lon="13.7873375"><ele>1193.0</ele><time>2026-05-01T14:10:21.633Z</time></trkpt><trkpt lat="41.8336442" lon="13.787393"><ele>1193.0</ele><time>2026-05-01T14:10:22.647Z</time></trkpt><trkpt lat="41.8334157" lon="13.7874445"><ele>1193.0</ele><time>2026-05-01T14:10:23.64Z</time></trkpt><trkpt lat="41.8331918" lon="13.7874973"><ele>1193.0</ele><time>2026-05-01T14:10:24.632Z</time></trkpt><trkpt lat="41.8329719" lon="13.7875438"><ele>1193.0</ele><time>2026-05-01T14:10:25.645Z</time></trkpt><trkpt lat="41.8327567" lon="13.7875872"><ele>1193.0</ele><time>2026-05-01T14:10:26.638Z</time></trkpt><trkpt lat="41.8325392" lon="13.7876405"><ele>1193.0</ele><time>2026-05-01T14:10:27.647Z</time></trkpt><trkpt lat="41.8323195" lon="13.7876934"><ele>1191.6666666666667</ele><time>2026-05-01T14:10:28.639Z</time></trkpt><trkpt lat="41.8321025" lon="13.7877477"><ele>1190.3333333333333</ele><time>2026-05-01T14:10:29.643Z</time></trkpt><trkpt lat="41.8318856" lon="13.7878077"><ele>1189.0</ele><time>2026-05-01T14:10:30.633Z</time></trkpt><trkpt lat="41.8316687" lon="13.7878729"><ele>1189.0</ele><time>2026-05-01T14:10:31.641Z</time></trkpt><trkpt lat="41.8314488" lon="13.7879377"><ele>1189.0</ele><time>2026-05-01T14:10:32.638Z</time></trkpt><trkpt lat="41.8312285" lon="13.7879969"><ele>1189.0</ele><time>2026-05-01T14:10:33.644Z</time></trkpt><trkpt lat="41.8310085" lon="13.7880555"><ele>1189.0</ele><time>2026-05-01T14:10:34.644Z</time></trkpt><trkpt lat="41.8307881" lon="13.7881149"><ele>1189.0</ele><time>2026-05-01T14:10:35.656Z</time></trkpt><trkpt lat="41.8305622" lon="13.7881753"><ele>1189.0</ele><time>2026-05-01T14:10:36.633Z</time></trkpt><trkpt lat="41.830339" lon="13.7882365"><ele>1189.0</ele><time>2026-05-01T14:10:37.64Z</time></trkpt><trkpt lat="41.8301137" lon="13.7882981"><ele>1188.5</ele><time>2026-05-01T14:10:38.641Z</time></trkpt><trkpt lat="41.8298928" lon="13.7883611"><ele>1188.0</ele><time>2026-05-01T14:10:39.639Z</time></trkpt><trkpt lat="41.8296669" lon="13.7884272"><ele>1188.0</ele><time>2026-05-01T14:10:40.647Z</time></trkpt><trkpt lat="41.8294376" lon="13.7884885"><ele>1188.0</ele><time>2026-05-01T14:10:41.647Z</time></trkpt><trkpt lat="41.8292109" lon="13.7885532"><ele>1186.5</ele><time>2026-05-01T14:10:42.641Z</time></trkpt><trkpt lat="41.8289825" lon="13.7886167"><ele>1185.0</ele><time>2026-05-01T14:10:43.642Z</time></trkpt><trkpt lat="41.828763" lon="13.7886779"><ele>1185.0</ele><time>2026-05-01T14:10:44.644Z</time></trkpt><trkpt lat="41.8285457" lon="13.7887475"><ele>1185.0</ele><time>2026-05-01T14:10:45.639Z</time></trkpt><trkpt lat="41.8283312" lon="13.7888063"><ele>1185.0</ele><time>2026-05-01T14:10:46.65Z</time></trkpt><trkpt lat="41.8281085" lon="13.7888629"><ele>1186.0</ele><time>2026-05-01T14:10:47.644Z</time></trkpt><trkpt lat="41.8278866" lon="13.7889179"><ele>1187.0</ele><time>2026-05-01T14:10:48.631Z</time></trkpt><trkpt lat="41.8276642" lon="13.7889754"><ele>1187.6666666666667</ele><time>2026-05-01T14:10:49.634Z</time></trkpt><trkpt lat="41.8274436" lon="13.7890312"><ele>1188.3333333333333</ele><time>2026-05-01T14:10:50.646Z</time></trkpt><trkpt lat="41.8272243" lon="13.7890827"><ele>1189.0</ele><time>2026-05-01T14:10:51.642Z</time></trkpt><trkpt lat="41.827005" lon="13.7891409"><ele>1188.3333333333333</ele><time>2026-05-01T14:10:52.645Z</time></trkpt><trkpt lat="41.8267884" lon="13.7892044"><ele>1187.6666666666667</ele><time>2026-05-01T14:10:53.643Z</time></trkpt><trkpt lat="41.8265689" lon="13.7892623"><ele>1187.0</ele><time>2026-05-01T14:10:54.634Z</time></trkpt><trkpt lat="41.8263518" lon="13.7893189"><ele>1185.0</ele><time>2026-05-01T14:10:55.642Z</time></trkpt><trkpt lat="41.8261375" lon="13.7893787"><ele>1183.0</ele><time>2026-05-01T14:10:56.639Z</time></trkpt><trkpt lat="41.8259264" lon="13.7894322"><ele>1181.0</ele><time>2026-05-01T14:10:57.658Z</time></trkpt><trkpt lat="41.8257244" lon="13.7894775"><ele>1181.0</ele><time>2026-05-01T14:10:58.637Z</time></trkpt><trkpt lat="41.8255306" lon="13.7895259"><ele>1181.0</ele><time>2026-05-01T14:10:59.641Z</time></trkpt><trkpt lat="41.8253467" lon="13.7895748"><ele>1181.0</ele><time>2026-05-01T14:11:00.64Z</time></trkpt><trkpt lat="41.8251704" lon="13.7896235"><ele>1180.6666666666667</ele><time>2026-05-01T14:11:01.643Z</time></trkpt><trkpt lat="41.8249997" lon="13.7896646"><ele>1180.3333333333333</ele><time>2026-05-01T14:11:02.637Z</time></trkpt><trkpt lat="41.8248363" lon="13.7896975"><ele>1180.0</ele><time>2026-05-01T14:11:03.641Z</time></trkpt><trkpt lat="41.8246797" lon="13.7897105"><ele>1180.0</ele><time>2026-05-01T14:11:04.64Z</time></trkpt><trkpt lat="41.8245268" lon="13.789689"><ele>1180.0</ele><time>2026-05-01T14:11:05.645Z</time></trkpt><trkpt lat="41.824371" lon="13.7896425"><ele>1180.0</ele><time>2026-05-01T14:11:06.637Z</time></trkpt><trkpt lat="41.824211" lon="13.7895965"><ele>1179.0</ele><time>2026-05-01T14:11:07.637Z</time></trkpt><trkpt lat="41.8240485" lon="13.7895718"><ele>1178.0</ele><time>2026-05-01T14:11:08.637Z</time></trkpt><trkpt lat="41.823874" lon="13.7895768"><ele>1177.0</ele><time>2026-05-01T14:11:09.64Z</time></trkpt><trkpt lat="41.8236968" lon="13.7896052"><ele>1177.0</ele><time>2026-05-01T14:11:10.651Z</time></trkpt><trkpt lat="41.8235171" lon="13.7896355"><ele>1177.0</ele><time>2026-05-01T14:11:11.628Z</time></trkpt><trkpt lat="41.8233433" lon="13.7896583"><ele>1177.0</ele><time>2026-05-01T14:11:12.635Z</time></trkpt><trkpt lat="41.823183" lon="13.7896903"><ele>1177.3333333333333</ele><time>2026-05-01T14:11:13.635Z</time></trkpt><trkpt lat="41.8230222" lon="13.7897302"><ele>1177.6666666666667</ele><time>2026-05-01T14:11:14.633Z</time></trkpt><trkpt lat="41.8228741" lon="13.7897939"><ele>1178.0</ele><time>2026-05-01T14:11:15.644Z</time></trkpt><trkpt lat="41.8227338" lon="13.7898718"><ele>1177.6666666666667</ele><time>2026-05-01T14:11:16.635Z</time></trkpt><trkpt lat="41.8225907" lon="13.789933"><ele>1177.3333333333333</ele><time>2026-05-01T14:11:17.631Z</time></trkpt><trkpt lat="41.8224345" lon="13.7899423"><ele>1177.0</ele><time>2026-05-01T14:11:18.634Z</time></trkpt><trkpt lat="41.8222737" lon="13.7898985"><ele>1177.0</ele><time>2026-05-01T14:11:19.631Z</time></trkpt><trkpt lat="41.8221023" lon="13.7898557"><ele>1177.0</ele><time>2026-05-01T14:11:20.642Z</time></trkpt><trkpt lat="41.8219209" lon="13.789842"><ele>1177.0</ele><time>2026-05-01T14:11:21.637Z</time></trkpt><trkpt lat="41.8217382" lon="13.789873"><ele>1177.3333333333333</ele><time>2026-05-01T14:11:22.645Z</time></trkpt><trkpt lat="41.8215535" lon="13.7899275"><ele>1177.6666666666667</ele><time>2026-05-01T14:11:23.638Z</time></trkpt><trkpt lat="41.8213769" lon="13.789985"><ele>1178.0</ele><time>2026-05-01T14:11:24.635Z</time></trkpt><trkpt lat="41.821214" lon="13.7900267"><ele>1178.0</ele><time>2026-05-01T14:11:25.637Z</time></trkpt><trkpt lat="41.821064" lon="13.7900666"><ele>1178.0</ele><time>2026-05-01T14:11:26.646Z</time></trkpt><trkpt lat="41.820921" lon="13.7901032"><ele>1178.0</ele><time>2026-05-01T14:11:27.633Z</time></trkpt><trkpt lat="41.8207852" lon="13.7901114"><ele>1178.0</ele><time>2026-05-01T14:11:28.641Z</time></trkpt><trkpt lat="41.8206467" lon="13.7900886"><ele>1178.25</ele><time>2026-05-01T14:11:29.634Z</time></trkpt><trkpt lat="41.8205095" lon="13.7900218"><ele>1178.5</ele><time>2026-05-01T14:11:30.641Z</time></trkpt><trkpt lat="41.8203774" lon="13.7899211"><ele>1178.75</ele><time>2026-05-01T14:11:31.636Z</time></trkpt><trkpt lat="41.8202587" lon="13.7898035"><ele>1179.0</ele><time>2026-05-01T14:11:32.628Z</time></trkpt><trkpt lat="41.8201377" lon="13.7897222"><ele>1178.0</ele><time>2026-05-01T14:11:33.637Z</time></trkpt><trkpt lat="41.8199908" lon="13.7896944"><ele>1177.0</ele><time>2026-05-01T14:11:34.653Z</time></trkpt><trkpt lat="41.8198341" lon="13.7897064"><ele>1176.0</ele><time>2026-05-01T14:11:35.633Z</time></trkpt><trkpt lat="41.8196684" lon="13.7897274"><ele>1176.0</ele><time>2026-05-01T14:11:36.631Z</time></trkpt><trkpt lat="41.8194924" lon="13.7897426"><ele>1176.0</ele><time>2026-05-01T14:11:37.639Z</time></trkpt><trkpt lat="41.8193153" lon="13.7897349"><ele>1176.0</ele><time>2026-05-01T14:11:38.628Z</time></trkpt><trkpt lat="41.8191382" lon="13.789719"><ele>1174.3333333333333</ele><time>2026-05-01T14:11:39.636Z</time></trkpt><trkpt lat="41.818977" lon="13.7896978"><ele>1172.6666666666665</ele><time>2026-05-01T14:11:40.628Z</time></trkpt><trkpt lat="41.8188254" lon="13.7896879"><ele>1171.0</ele><time>2026-05-01T14:11:41.632Z</time></trkpt><trkpt lat="41.8186818" lon="13.7896855"><ele>1171.0</ele><time>2026-05-01T14:11:42.628Z</time></trkpt><trkpt lat="41.8185447" lon="13.7897027"><ele>1171.0</ele><time>2026-05-01T14:11:43.638Z</time></trkpt><trkpt lat="41.8184169" lon="13.7897506"><ele>1171.0</ele><time>2026-05-01T14:11:44.631Z</time></trkpt><trkpt lat="41.8182961" lon="13.78984"><ele>1171.0</ele><time>2026-05-01T14:11:45.627Z</time></trkpt><trkpt lat="41.8181767" lon="13.7899517"><ele>1171.0</ele><time>2026-05-01T14:11:46.619Z</time></trkpt><trkpt lat="41.8180605" lon="13.7900643"><ele>1171.0</ele><time>2026-05-01T14:11:47.626Z</time></trkpt><trkpt lat="41.8179386" lon="13.7901536"><ele>1171.0</ele><time>2026-05-01T14:11:48.634Z</time></trkpt><trkpt lat="41.8177988" lon="13.7902032"><ele>1171.0</ele><time>2026-05-01T14:11:49.631Z</time></trkpt><trkpt lat="41.8176361" lon="13.7902311"><ele>1170.6666666666665</ele><time>2026-05-01T14:11:50.642Z</time></trkpt><trkpt lat="41.81746" lon="13.7902611"><ele>1170.3333333333333</ele><time>2026-05-01T14:11:51.635Z</time></trkpt><trkpt lat="41.8172723" lon="13.7903043"><ele>1170.0</ele><time>2026-05-01T14:11:52.636Z</time></trkpt><trkpt lat="41.8170854" lon="13.7903316"><ele>1170.0</ele><time>2026-05-01T14:11:53.632Z</time></trkpt><trkpt lat="41.8168872" lon="13.7903629"><ele>1170.0</ele><time>2026-05-01T14:11:54.629Z</time></trkpt><trkpt lat="41.8166885" lon="13.7903985"><ele>1170.0</ele><time>2026-05-01T14:11:55.628Z</time></trkpt><trkpt lat="41.8164886" lon="13.790424"><ele>1168.3333333333333</ele><time>2026-05-01T14:11:56.633Z</time></trkpt><trkpt lat="41.8162806" lon="13.7904611"><ele>1166.6666666666665</ele><time>2026-05-01T14:11:57.629Z</time></trkpt><trkpt lat="41.8160777" lon="13.7904944"><ele>1165.0</ele><time>2026-05-01T14:11:58.63Z</time></trkpt><trkpt lat="41.8158802" lon="13.7905286"><ele>1165.0</ele><time>2026-05-01T14:11:59.633Z</time></trkpt><trkpt lat="41.8156846" lon="13.7905622"><ele>1165.0</ele><time>2026-05-01T14:12:00.633Z</time></trkpt><trkpt lat="41.8154853" lon="13.7906007"><ele>1165.0</ele><time>2026-05-01T14:12:01.636Z</time></trkpt><trkpt lat="41.8152875" lon="13.7906474"><ele>1166.0</ele><time>2026-05-01T14:12:02.625Z</time></trkpt><trkpt lat="41.815085" lon="13.79068"><ele>1167.0</ele><time>2026-05-01T14:12:03.639Z</time></trkpt><trkpt lat="41.814884" lon="13.7907169"><ele>1168.0</ele><time>2026-05-01T14:12:04.632Z</time></trkpt><trkpt lat="41.8146864" lon="13.7907478"><ele>1168.0</ele><time>2026-05-01T14:12:05.638Z</time></trkpt><trkpt lat="41.8144943" lon="13.7907866"><ele>1168.0</ele><time>2026-05-01T14:12:06.634Z</time></trkpt><trkpt lat="41.8143006" lon="13.7908187"><ele>1168.0</ele><time>2026-05-01T14:12:07.634Z</time></trkpt><trkpt lat="41.8141106" lon="13.7908525"><ele>1169.3333333333333</ele><time>2026-05-01T14:12:08.627Z</time></trkpt><trkpt lat="41.813928" lon="13.7908827"><ele>1170.6666666666667</ele><time>2026-05-01T14:12:09.636Z</time></trkpt><trkpt lat="41.8137464" lon="13.7909091"><ele>1172.0</ele><time>2026-05-01T14:12:10.63Z</time></trkpt><trkpt lat="41.8135693" lon="13.7909381"><ele>1173.6666666666667</ele><time>2026-05-01T14:12:11.633Z</time></trkpt><trkpt lat="41.8133997" lon="13.7909689"><ele>1175.3333333333333</ele><time>2026-05-01T14:12:12.632Z</time></trkpt><trkpt lat="41.8132412" lon="13.7910045"><ele>1177.0</ele><time>2026-05-01T14:12:13.626Z</time></trkpt><trkpt lat="41.8130896" lon="13.791034"><ele>1172.75</ele><time>2026-05-01T14:12:14.627Z</time></trkpt><trkpt lat="41.8129445" lon="13.7910572"><ele>1168.5</ele><time>2026-05-01T14:12:15.63Z</time></trkpt><trkpt lat="41.8127983" lon="13.7910852"><ele>1164.25</ele><time>2026-05-01T14:12:16.633Z</time></trkpt><trkpt lat="41.8126584" lon="13.7911145"><ele>1160.0</ele><time>2026-05-01T14:12:17.629Z</time></trkpt><trkpt lat="41.8125224" lon="13.7911412"><ele>1160.0</ele><time>2026-05-01T14:12:18.627Z</time></trkpt><trkpt lat="41.8123866" lon="13.7911624"><ele>1160.0</ele><time>2026-05-01T14:12:19.632Z</time></trkpt><trkpt lat="41.8122559" lon="13.7911925"><ele>1160.0</ele><time>2026-05-01T14:12:20.624Z</time></trkpt><trkpt lat="41.8121233" lon="13.7912144"><ele>1160.0</ele><time>2026-05-01T14:12:21.634Z</time></trkpt><trkpt lat="41.8119921" lon="13.7912185"><ele>1160.0</ele><time>2026-05-01T14:12:22.629Z</time></trkpt><trkpt lat="41.8118678" lon="13.7912254"><ele>1160.0</ele><time>2026-05-01T14:12:23.636Z</time></trkpt><trkpt lat="41.8117481" lon="13.7912216"><ele>1160.0</ele><time>2026-05-01T14:12:24.636Z</time></trkpt><trkpt lat="41.8116275" lon="13.7912288"><ele>1160.0</ele><time>2026-05-01T14:12:25.629Z</time></trkpt><trkpt lat="41.8115082" lon="13.7912326"><ele>1160.0</ele><time>2026-05-01T14:12:26.625Z</time></trkpt><trkpt lat="41.8113893" lon="13.7912244"><ele>1160.0</ele><time>2026-05-01T14:12:27.639Z</time></trkpt><trkpt lat="41.8112658" lon="13.7912105"><ele>1160.0</ele><time>2026-05-01T14:12:28.632Z</time></trkpt><trkpt lat="41.8111455" lon="13.7911889"><ele>1160.0</ele><time>2026-05-01T14:12:29.634Z</time></trkpt><trkpt lat="41.8110248" lon="13.7911672"><ele>1159.25</ele><time>2026-05-01T14:12:30.632Z</time></trkpt><trkpt lat="41.8109018" lon="13.7911362"><ele>1158.5</ele><time>2026-05-01T14:12:31.651Z</time></trkpt><trkpt lat="41.8107761" lon="13.7911109"><ele>1157.75</ele><time>2026-05-01T14:12:32.642Z</time></trkpt><trkpt lat="41.8106527" lon="13.7910877"><ele>1157.0</ele><time>2026-05-01T14:12:33.648Z</time></trkpt><trkpt lat="41.8105326" lon="13.7910618"><ele>1157.0</ele><time>2026-05-01T14:12:34.641Z</time></trkpt><trkpt lat="41.8104146" lon="13.7910288"><ele>1157.0</ele><time>2026-05-01T14:12:35.633Z</time></trkpt><trkpt lat="41.8103026" lon="13.7909988"><ele>1157.0</ele><time>2026-05-01T14:12:36.637Z</time></trkpt><trkpt lat="41.8101921" lon="13.7909726"><ele>1157.0</ele><time>2026-05-01T14:12:37.63Z</time></trkpt><trkpt lat="41.8100841" lon="13.7909392"><ele>1156.8</ele><time>2026-05-01T14:12:38.648Z</time></trkpt><trkpt lat="41.8099798" lon="13.7909192"><ele>1156.6</ele><time>2026-05-01T14:12:39.633Z</time></trkpt><trkpt lat="41.8098725" lon="13.7908942"><ele>1156.3999999999999</ele><time>2026-05-01T14:12:40.632Z</time></trkpt><trkpt lat="41.809768" lon="13.7908692"><ele>1156.2</ele><time>2026-05-01T14:12:41.642Z</time></trkpt><trkpt lat="41.8096645" lon="13.7908432"><ele>1156.0</ele><time>2026-05-01T14:12:42.635Z</time></trkpt><trkpt lat="41.8095637" lon="13.7908178"><ele>1156.0</ele><time>2026-05-01T14:12:43.633Z</time></trkpt><trkpt lat="41.8094654" lon="13.7907925"><ele>1156.0</ele><time>2026-05-01T14:12:44.64Z</time></trkpt><trkpt lat="41.809377" lon="13.7907637"><ele>1156.0</ele><time>2026-05-01T14:12:45.634Z</time></trkpt><trkpt lat="41.8093006" lon="13.7907355"><ele>1156.0</ele><time>2026-05-01T14:12:46.644Z</time></trkpt><trkpt lat="41.8092324" lon="13.7907078"><ele>1156.0</ele><time>2026-05-01T14:12:47.637Z</time></trkpt><trkpt lat="41.8091779" lon="13.790664"><ele>1156.0</ele><time>2026-05-01T14:12:48.639Z</time></trkpt><trkpt lat="41.8090921" lon="13.7905519"><ele>1156.0</ele><time>2026-05-01T14:12:50.637Z</time></trkpt><trkpt lat="41.8090181" lon="13.7904031"><ele>1156.0</ele><time>2026-05-01T14:12:52.636Z</time></trkpt><trkpt lat="41.8089888" lon="13.7903248"><ele>1156.0</ele><time>2026-05-01T14:12:53.642Z</time></trkpt><trkpt lat="41.8089272" lon="13.7901829"><ele>1156.0</ele><time>2026-05-01T14:12:55.644Z</time></trkpt><trkpt lat="41.8088645" lon="13.7900686"><ele>1156.0</ele><time>2026-05-01T14:12:57.638Z</time></trkpt><trkpt lat="41.8088091" lon="13.7899488"><ele>1156.0</ele><time>2026-05-01T14:12:59.641Z</time></trkpt><trkpt lat="41.8087587" lon="13.7898391"><ele>1156.0</ele><time>2026-05-01T14:13:01.632Z</time></trkpt><trkpt lat="41.8087119" lon="13.7897227"><ele>1156.0</ele><time>2026-05-01T14:13:03.642Z</time></trkpt><trkpt lat="41.8086726" lon="13.7896162"><ele>1156.0</ele><time>2026-05-01T14:13:05.628Z</time></trkpt><trkpt lat="41.8086352" lon="13.789529"><ele>1156.0</ele><time>2026-05-01T14:13:07.631Z</time></trkpt><trkpt lat="41.8086025" lon="13.7894396"><ele>1156.0</ele><time>2026-05-01T14:13:09.626Z</time></trkpt><trkpt lat="41.8085579" lon="13.7893671"><ele>1156.0</ele><time>2026-05-01T14:13:11.63Z</time></trkpt><trkpt lat="41.8085167" lon="13.7892883"><ele>1156.0</ele><time>2026-05-01T14:13:13.641Z</time></trkpt><trkpt lat="41.8084713" lon="13.789215"><ele>1156.0</ele><time>2026-05-01T14:13:15.643Z</time></trkpt><trkpt lat="41.8084064" lon="13.7891296"><ele>1156.0</ele><time>2026-05-01T14:13:17.64Z</time></trkpt><trkpt lat="41.8083198" lon="13.7890434"><ele>1156.0</ele><time>2026-05-01T14:13:19.654Z</time></trkpt><trkpt lat="41.8082165" lon="13.78898"><ele>1155.6</ele><time>2026-05-01T14:13:21.643Z</time></trkpt><trkpt lat="41.8081222" lon="13.7889516"><ele>1155.1999999999998</ele><time>2026-05-01T14:13:23.643Z</time></trkpt><trkpt lat="41.80804" lon="13.7889218"><ele>1154.8000000000002</ele><time>2026-05-01T14:13:25.644Z</time></trkpt><trkpt lat="41.8079523" lon="13.7888937"><ele>1154.4</ele><time>2026-05-01T14:13:27.643Z</time></trkpt><trkpt lat="41.8078601" lon="13.7888544"><ele>1154.0</ele><time>2026-05-01T14:13:29.652Z</time></trkpt><trkpt lat="41.8077678" lon="13.7888071"><ele>1154.0</ele><time>2026-05-01T14:13:31.638Z</time></trkpt><trkpt lat="41.8076729" lon="13.7887696"><ele>1154.0</ele><time>2026-05-01T14:13:33.644Z</time></trkpt><trkpt lat="41.8075765" lon="13.7887268"><ele>1154.0</ele><time>2026-05-01T14:13:35.654Z</time></trkpt><trkpt lat="41.8074881" lon="13.7886854"><ele>1154.0</ele><time>2026-05-01T14:13:37.642Z</time></trkpt><trkpt lat="41.8073987" lon="13.7886466"><ele>1154.0</ele><time>2026-05-01T14:13:39.637Z</time></trkpt><trkpt lat="41.8072955" lon="13.7886048"><ele>1153.8</ele><time>2026-05-01T14:13:41.633Z</time></trkpt><trkpt lat="41.8071745" lon="13.788561"><ele>1153.6000000000001</ele><time>2026-05-01T14:13:43.648Z</time></trkpt><trkpt lat="41.8071009" lon="13.78853"><ele>1153.4</ele><time>2026-05-01T14:13:44.663Z</time></trkpt><trkpt lat="41.8070317" lon="13.7885025"><ele>1153.2</ele><time>2026-05-01T14:13:45.648Z</time></trkpt><trkpt lat="41.8069165" lon="13.7884559"><ele>1153.0</ele><time>2026-05-01T14:13:47.642Z</time></trkpt><trkpt lat="41.8067945" lon="13.7884041"><ele>1153.0</ele><time>2026-05-01T14:13:49.64Z</time></trkpt><trkpt lat="41.8067316" lon="13.7883785"><ele>1153.0</ele><time>2026-05-01T14:13:50.647Z</time></trkpt><trkpt lat="41.8066695" lon="13.7883505"><ele>1153.0</ele><time>2026-05-01T14:13:51.643Z</time></trkpt><trkpt lat="41.8066054" lon="13.7883244"><ele>1153.0</ele><time>2026-05-01T14:13:52.643Z</time></trkpt><trkpt lat="41.8064937" lon="13.788269"><ele>1153.0</ele><time>2026-05-01T14:13:54.643Z</time></trkpt><trkpt lat="41.8063802" lon="13.7882243"><ele>1153.0</ele><time>2026-05-01T14:13:56.645Z</time></trkpt><trkpt lat="41.8063173" lon="13.7881988"><ele>1153.0</ele><time>2026-05-01T14:13:57.648Z</time></trkpt><trkpt lat="41.8061962" lon="13.7881632"><ele>1153.0</ele><time>2026-05-01T14:13:59.662Z</time></trkpt><trkpt lat="41.80613" lon="13.7881437"><ele>1153.0</ele><time>2026-05-01T14:14:00.644Z</time></trkpt><trkpt lat="41.8060589" lon="13.7881227"><ele>1153.0</ele><time>2026-05-01T14:14:01.643Z</time></trkpt><trkpt lat="41.8059829" lon="13.7880948"><ele>1153.0</ele><time>2026-05-01T14:14:02.643Z</time></trkpt><trkpt lat="41.8059058" lon="13.7880746"><ele>1153.0</ele><time>2026-05-01T14:14:03.644Z</time></trkpt><trkpt lat="41.8058233" lon="13.7880544"><ele>1152.8333333333333</ele><time>2026-05-01T14:14:04.637Z</time></trkpt><trkpt lat="41.8057403" lon="13.7880285"><ele>1152.6666666666665</ele><time>2026-05-01T14:14:05.666Z</time></trkpt><trkpt lat="41.8056566" lon="13.7880009"><ele>1152.5</ele><time>2026-05-01T14:14:06.642Z</time></trkpt><trkpt lat="41.8055711" lon="13.7879778"><ele>1152.3333333333333</ele><time>2026-05-01T14:14:07.642Z</time></trkpt><trkpt lat="41.8054844" lon="13.7879598"><ele>1152.1666666666667</ele><time>2026-05-01T14:14:08.644Z</time></trkpt><trkpt lat="41.8054014" lon="13.7879381"><ele>1152.0</ele><time>2026-05-01T14:14:09.64Z</time></trkpt><trkpt lat="41.8053135" lon="13.7879129"><ele>1152.0</ele><time>2026-05-01T14:14:10.629Z</time></trkpt><trkpt lat="41.8052238" lon="13.7878871"><ele>1152.0</ele><time>2026-05-01T14:14:11.647Z</time></trkpt><trkpt lat="41.8051342" lon="13.7878638"><ele>1152.0</ele><time>2026-05-01T14:14:12.636Z</time></trkpt><trkpt lat="41.8050474" lon="13.787837"><ele>1152.0</ele><time>2026-05-01T14:14:13.653Z</time></trkpt><trkpt lat="41.8049574" lon="13.787811"><ele>1152.0</ele><time>2026-05-01T14:14:14.637Z</time></trkpt><trkpt lat="41.8048672" lon="13.7877848"><ele>1152.0</ele><time>2026-05-01T14:14:15.644Z</time></trkpt><trkpt lat="41.8047778" lon="13.787759"><ele>1152.0</ele><time>2026-05-01T14:14:16.641Z</time></trkpt><trkpt lat="41.8046928" lon="13.787734"><ele>1152.0</ele><time>2026-05-01T14:14:17.642Z</time></trkpt><trkpt lat="41.8046076" lon="13.7877156"><ele>1152.0</ele><time>2026-05-01T14:14:18.639Z</time></trkpt><trkpt lat="41.8045202" lon="13.7876917"><ele>1152.0</ele><time>2026-05-01T14:14:19.643Z</time></trkpt><trkpt lat="41.8044356" lon="13.7876598"><ele>1152.0</ele><time>2026-05-01T14:14:20.643Z</time></trkpt><trkpt lat="41.8043507" lon="13.7876373"><ele>1152.0</ele><time>2026-05-01T14:14:21.647Z</time></trkpt><trkpt lat="41.8042501" lon="13.7876105"><ele>1152.0</ele><time>2026-05-01T14:14:22.636Z</time></trkpt><trkpt lat="41.804147" lon="13.7875847"><ele>1152.0</ele><time>2026-05-01T14:14:23.658Z</time></trkpt><trkpt lat="41.8040563" lon="13.7875628"><ele>1152.0</ele><time>2026-05-01T14:14:24.642Z</time></trkpt><trkpt lat="41.803976" lon="13.7875423"><ele>1152.0</ele><time>2026-05-01T14:14:25.655Z</time></trkpt><trkpt lat="41.8038942" lon="13.7875196"><ele>1152.0</ele><time>2026-05-01T14:14:26.643Z</time></trkpt><trkpt lat="41.8038196" lon="13.787494"><ele>1152.0</ele><time>2026-05-01T14:14:27.648Z</time></trkpt><trkpt lat="41.8037531" lon="13.7874774"><ele>1152.0</ele><time>2026-05-01T14:14:28.641Z</time></trkpt><trkpt lat="41.8036341" lon="13.7874488"><ele>1152.0</ele><time>2026-05-01T14:14:30.636Z</time></trkpt><trkpt lat="41.8035261" lon="13.7874247"><ele>1152.0</ele><time>2026-05-01T14:14:32.639Z</time></trkpt><trkpt lat="41.8034362" lon="13.7873736"><ele>1151.8</ele><time>2026-05-01T14:14:34.65Z</time></trkpt><trkpt lat="41.8033244" lon="13.7873709"><ele>1151.6</ele><time>2026-05-01T14:14:36.658Z</time></trkpt><trkpt lat="41.8032661" lon="13.7874259"><ele>1151.3999999999999</ele><time>2026-05-01T14:14:37.651Z</time></trkpt><trkpt lat="41.8032176" lon="13.7875106"><ele>1151.2</ele><time>2026-05-01T14:14:38.643Z</time></trkpt><trkpt lat="41.8031555" lon="13.7876153"><ele>1151.0</ele><time>2026-05-01T14:14:39.643Z</time></trkpt><trkpt lat="41.803072" lon="13.7877211"><ele>1150.0</ele><time>2026-05-01T14:14:40.651Z</time></trkpt><trkpt lat="41.8029684" lon="13.7878413"><ele>1149.0</ele><time>2026-05-01T14:14:41.639Z</time></trkpt><trkpt lat="41.8028463" lon="13.7879931"><ele>1148.0</ele><time>2026-05-01T14:14:42.651Z</time></trkpt><trkpt lat="41.8027069" lon="13.788151"><ele>1148.0</ele><time>2026-05-01T14:14:43.643Z</time></trkpt><trkpt lat="41.8025679" lon="13.7882995"><ele>1148.0</ele><time>2026-05-01T14:14:44.64Z</time></trkpt><trkpt lat="41.8024425" lon="13.7884386"><ele>1148.0</ele><time>2026-05-01T14:14:45.642Z</time></trkpt><trkpt lat="41.8023373" lon="13.7885641"><ele>1147.0</ele><time>2026-05-01T14:14:46.641Z</time></trkpt><trkpt lat="41.8022392" lon="13.7886761"><ele>1146.0</ele><time>2026-05-01T14:14:47.64Z</time></trkpt><trkpt lat="41.8021401" lon="13.7888028"><ele>1145.0</ele><time>2026-05-01T14:14:48.643Z</time></trkpt><trkpt lat="41.802024" lon="13.7889601"><ele>1144.0</ele><time>2026-05-01T14:14:49.635Z</time></trkpt><trkpt lat="41.8018865" lon="13.7891249"><ele>1144.0</ele><time>2026-05-01T14:14:50.651Z</time></trkpt><trkpt lat="41.8017459" lon="13.7892785"><ele>1144.0</ele><time>2026-05-01T14:14:51.645Z</time></trkpt><trkpt lat="41.8016056" lon="13.789438"><ele>1144.0</ele><time>2026-05-01T14:14:52.637Z</time></trkpt><trkpt lat="41.8014781" lon="13.7896302"><ele>1144.0</ele><time>2026-05-01T14:14:53.643Z</time></trkpt><trkpt lat="41.8013611" lon="13.7898333"><ele>1144.0</ele><time>2026-05-01T14:14:54.64Z</time></trkpt><trkpt lat="41.8012523" lon="13.7900263"><ele>1144.0</ele><time>2026-05-01T14:14:55.643Z</time></trkpt><trkpt lat="41.8011518" lon="13.7902109"><ele>1144.0</ele><time>2026-05-01T14:14:56.637Z</time></trkpt><trkpt lat="41.8010713" lon="13.7903815"><ele>1144.0</ele><time>2026-05-01T14:14:57.645Z</time></trkpt><trkpt lat="41.8009959" lon="13.7905331"><ele>1144.0</ele><time>2026-05-01T14:14:58.643Z</time></trkpt><trkpt lat="41.8009235" lon="13.7906666"><ele>1144.0</ele><time>2026-05-01T14:14:59.644Z</time></trkpt><trkpt lat="41.8008507" lon="13.7908025"><ele>1144.0</ele><time>2026-05-01T14:15:00.631Z</time></trkpt><trkpt lat="41.8007755" lon="13.7909446"><ele>1144.0</ele><time>2026-05-01T14:15:01.636Z</time></trkpt><trkpt lat="41.8006953" lon="13.7910887"><ele>1144.0</ele><time>2026-05-01T14:15:02.637Z</time></trkpt><trkpt lat="41.8006088" lon="13.7912324"><ele>1144.0</ele><time>2026-05-01T14:15:03.642Z</time></trkpt><trkpt lat="41.8005089" lon="13.7913661"><ele>1144.0</ele><time>2026-05-01T14:15:04.645Z</time></trkpt><trkpt lat="41.8003951" lon="13.7914827"><ele>1144.0</ele><time>2026-05-01T14:15:05.64Z</time></trkpt><trkpt lat="41.800267" lon="13.7915867"><ele>1144.0</ele><time>2026-05-01T14:15:06.637Z</time></trkpt><trkpt lat="41.8001179" lon="13.7916957"><ele>1143.0</ele><time>2026-05-01T14:15:07.644Z</time></trkpt><trkpt lat="41.7999265" lon="13.7918135"><ele>1142.0</ele><time>2026-05-01T14:15:08.64Z</time></trkpt><trkpt lat="41.7996955" lon="13.7919371"><ele>1140.5</ele><time>2026-05-01T14:15:09.65Z</time></trkpt><trkpt lat="41.7994446" lon="13.7920757"><ele>1139.0</ele><time>2026-05-01T14:15:10.649Z</time></trkpt><trkpt lat="41.799178" lon="13.7922147"><ele>1139.0</ele><time>2026-05-01T14:15:11.642Z</time></trkpt><trkpt lat="41.7989017" lon="13.7923449"><ele>1139.0</ele><time>2026-05-01T14:15:12.635Z</time></trkpt><trkpt lat="41.7986346" lon="13.7924574"><ele>1139.5</ele><time>2026-05-01T14:15:13.629Z</time></trkpt><trkpt lat="41.7983923" lon="13.7925864"><ele>1140.0</ele><time>2026-05-01T14:15:14.638Z</time></trkpt><trkpt lat="41.7981652" lon="13.7927082"><ele>1140.0</ele><time>2026-05-01T14:15:15.631Z</time></trkpt><trkpt lat="41.7979492" lon="13.7928241"><ele>1140.0</ele><time>2026-05-01T14:15:16.642Z</time></trkpt><trkpt lat="41.7977428" lon="13.7929333"><ele>1139.3333333333333</ele><time>2026-05-01T14:15:17.651Z</time></trkpt><trkpt lat="41.7975475" lon="13.7930325"><ele>1138.6666666666665</ele><time>2026-05-01T14:15:18.64Z</time></trkpt><trkpt lat="41.7973591" lon="13.7931254"><ele>1138.0</ele><time>2026-05-01T14:15:19.64Z</time></trkpt><trkpt lat="41.7971774" lon="13.79323"><ele>1138.0</ele><time>2026-05-01T14:15:20.643Z</time></trkpt><trkpt lat="41.7970056" lon="13.7933527"><ele>1138.0</ele><time>2026-05-01T14:15:21.642Z</time></trkpt><trkpt lat="41.7968397" lon="13.7934783"><ele>1138.0</ele><time>2026-05-01T14:15:22.652Z</time></trkpt><trkpt lat="41.7966764" lon="13.7936075"><ele>1138.6666666666665</ele><time>2026-05-01T14:15:23.64Z</time></trkpt><trkpt lat="41.7965178" lon="13.7937303"><ele>1139.3333333333333</ele><time>2026-05-01T14:15:24.641Z</time></trkpt><trkpt lat="41.796367" lon="13.7938515"><ele>1140.0</ele><time>2026-05-01T14:15:25.637Z</time></trkpt><trkpt lat="41.7962152" lon="13.7939672"><ele>1140.0</ele><time>2026-05-01T14:15:26.634Z</time></trkpt><trkpt lat="41.7960619" lon="13.7940773"><ele>1140.0</ele><time>2026-05-01T14:15:27.638Z</time></trkpt><trkpt lat="41.7959122" lon="13.7941893"><ele>1140.0</ele><time>2026-05-01T14:15:28.629Z</time></trkpt><trkpt lat="41.7957637" lon="13.7942975"><ele>1142.0</ele><time>2026-05-01T14:15:29.636Z</time></trkpt><trkpt lat="41.7956151" lon="13.7944114"><ele>1144.0</ele><time>2026-05-01T14:15:30.642Z</time></trkpt><trkpt lat="41.7954602" lon="13.7945275"><ele>1146.0</ele><time>2026-05-01T14:15:31.637Z</time></trkpt><trkpt lat="41.7953066" lon="13.7946531"><ele>1142.6666666666667</ele><time>2026-05-01T14:15:32.64Z</time></trkpt><trkpt lat="41.7951497" lon="13.7947776"><ele>1139.3333333333335</ele><time>2026-05-01T14:15:33.638Z</time></trkpt><trkpt lat="41.7949886" lon="13.7949031"><ele>1136.0</ele><time>2026-05-01T14:15:34.641Z</time></trkpt><trkpt lat="41.7948229" lon="13.7950263"><ele>1136.0</ele><time>2026-05-01T14:15:35.636Z</time></trkpt><trkpt lat="41.7946632" lon="13.7951556"><ele>1136.0</ele><time>2026-05-01T14:15:36.649Z</time></trkpt><trkpt lat="41.7945058" lon="13.7952979"><ele>1136.0</ele><time>2026-05-01T14:15:37.642Z</time></trkpt><trkpt lat="41.7943598" lon="13.7954405"><ele>1137.6666666666667</ele><time>2026-05-01T14:15:38.632Z</time></trkpt><trkpt lat="41.7942305" lon="13.7955947"><ele>1139.3333333333333</ele><time>2026-05-01T14:15:39.632Z</time></trkpt><trkpt lat="41.7941085" lon="13.7957572"><ele>1141.0</ele><time>2026-05-01T14:15:40.637Z</time></trkpt><trkpt lat="41.7939994" lon="13.7959244"><ele>1145.0</ele><time>2026-05-01T14:15:41.639Z</time></trkpt><trkpt lat="41.7939015" lon="13.796099"><ele>1149.0</ele><time>2026-05-01T14:15:42.637Z</time></trkpt><trkpt lat="41.7938199" lon="13.7962774"><ele>1153.0</ele><time>2026-05-01T14:15:43.64Z</time></trkpt><trkpt lat="41.7937514" lon="13.7964665"><ele>1153.0</ele><time>2026-05-01T14:15:44.634Z</time></trkpt><trkpt lat="41.7936871" lon="13.7966727"><ele>1153.0</ele><time>2026-05-01T14:15:45.632Z</time></trkpt><trkpt lat="41.7936295" lon="13.796887"><ele>1153.0</ele><time>2026-05-01T14:15:46.64Z</time></trkpt><trkpt lat="41.7935745" lon="13.7971073"><ele>1156.6666666666665</ele><time>2026-05-01T14:15:47.638Z</time></trkpt><trkpt lat="41.7935298" lon="13.7973268"><ele>1160.3333333333333</ele><time>2026-05-01T14:15:48.636Z</time></trkpt><trkpt lat="41.7934855" lon="13.7975552"><ele>1164.0</ele><time>2026-05-01T14:15:49.635Z</time></trkpt><trkpt lat="41.7934341" lon="13.7977876"><ele>1155.6666666666667</ele><time>2026-05-01T14:15:50.637Z</time></trkpt><trkpt lat="41.7933779" lon="13.7980291"><ele>1147.3333333333335</ele><time>2026-05-01T14:15:51.642Z</time></trkpt><trkpt lat="41.7933239" lon="13.7982669"><ele>1139.0</ele><time>2026-05-01T14:15:52.649Z</time></trkpt><trkpt lat="41.7932714" lon="13.7985054"><ele>1139.0</ele><time>2026-05-01T14:15:53.645Z</time></trkpt><trkpt lat="41.7932206" lon="13.7987486"><ele>1139.0</ele><time>2026-05-01T14:15:54.659Z</time></trkpt><trkpt lat="41.793168" lon="13.7989984"><ele>1139.0</ele><time>2026-05-01T14:15:55.645Z</time></trkpt><trkpt lat="41.7931151" lon="13.7992418"><ele>1140.0</ele><time>2026-05-01T14:15:56.651Z</time></trkpt><trkpt lat="41.7930616" lon="13.7994847"><ele>1141.0</ele><time>2026-05-01T14:15:57.636Z</time></trkpt><trkpt lat="41.7930124" lon="13.7997287"><ele>1142.0</ele><time>2026-05-01T14:15:58.638Z</time></trkpt><trkpt lat="41.7929611" lon="13.7999863"><ele>1141.0</ele><time>2026-05-01T14:15:59.642Z</time></trkpt><trkpt lat="41.7929087" lon="13.8002535"><ele>1140.0</ele><time>2026-05-01T14:16:00.648Z</time></trkpt><trkpt lat="41.7928477" lon="13.8005251"><ele>1139.0</ele><time>2026-05-01T14:16:01.642Z</time></trkpt><trkpt lat="41.7927818" lon="13.8008003"><ele>1141.0</ele><time>2026-05-01T14:16:02.638Z</time></trkpt><trkpt lat="41.7927176" lon="13.8010832"><ele>1143.0</ele><time>2026-05-01T14:16:03.643Z</time></trkpt><trkpt lat="41.7926524" lon="13.8013744"><ele>1145.0</ele><time>2026-05-01T14:16:04.644Z</time></trkpt><trkpt lat="41.7925847" lon="13.8016695"><ele>1139.0</ele><time>2026-05-01T14:16:05.64Z</time></trkpt><trkpt lat="41.7925076" lon="13.8019629"><ele>1133.0</ele><time>2026-05-01T14:16:06.657Z</time></trkpt><trkpt lat="41.7924265" lon="13.8022539"><ele>1133.0</ele><time>2026-05-01T14:16:07.644Z</time></trkpt><trkpt lat="41.7923491" lon="13.8025445"><ele>1133.0</ele><time>2026-05-01T14:16:08.648Z</time></trkpt><trkpt lat="41.792267" lon="13.8028288"><ele>1136.6666666666667</ele><time>2026-05-01T14:16:09.641Z</time></trkpt><trkpt lat="41.7921826" lon="13.8031065"><ele>1140.3333333333333</ele><time>2026-05-01T14:16:10.642Z</time></trkpt><trkpt lat="41.7920978" lon="13.8033824"><ele>1144.0</ele><time>2026-05-01T14:16:11.645Z</time></trkpt><trkpt lat="41.7920151" lon="13.8036486"><ele>1146.3333333333333</ele><time>2026-05-01T14:16:12.642Z</time></trkpt><trkpt lat="41.7919367" lon="13.8039064"><ele>1148.6666666666667</ele><time>2026-05-01T14:16:13.645Z</time></trkpt><trkpt lat="41.7918609" lon="13.8041578"><ele>1151.0</ele><time>2026-05-01T14:16:14.638Z</time></trkpt><trkpt lat="41.7917831" lon="13.8044049"><ele>1143.6666666666667</ele><time>2026-05-01T14:16:15.654Z</time></trkpt><trkpt lat="41.7917038" lon="13.8046484"><ele>1136.3333333333333</ele><time>2026-05-01T14:16:16.643Z</time></trkpt><trkpt lat="41.7916225" lon="13.804882"><ele>1129.0</ele><time>2026-05-01T14:16:17.645Z</time></trkpt><trkpt lat="41.7915334" lon="13.8051109"><ele>1132.0</ele><time>2026-05-01T14:16:18.645Z</time></trkpt><trkpt lat="41.791441" lon="13.8053402"><ele>1135.0</ele><time>2026-05-01T14:16:19.631Z</time></trkpt><trkpt lat="41.7913385" lon="13.8055702"><ele>1138.0</ele><time>2026-05-01T14:16:20.646Z</time></trkpt><trkpt lat="41.7912329" lon="13.8057976"><ele>1135.0</ele><time>2026-05-01T14:16:21.642Z</time></trkpt><trkpt lat="41.79112" lon="13.8060143"><ele>1132.0</ele><time>2026-05-01T14:16:22.639Z</time></trkpt><trkpt lat="41.7910093" lon="13.8062392"><ele>1129.0</ele><time>2026-05-01T14:16:23.648Z</time></trkpt><trkpt lat="41.7909035" lon="13.8064683"><ele>1129.0</ele><time>2026-05-01T14:16:24.646Z</time></trkpt><trkpt lat="41.7907957" lon="13.8066967"><ele>1129.0</ele><time>2026-05-01T14:16:25.656Z</time></trkpt><trkpt lat="41.7906882" lon="13.806923"><ele>1129.0</ele><time>2026-05-01T14:16:26.645Z</time></trkpt><trkpt lat="41.7905893" lon="13.8071405"><ele>1132.0</ele><time>2026-05-01T14:16:27.645Z</time></trkpt><trkpt lat="41.7904909" lon="13.8073485"><ele>1135.0</ele><time>2026-05-01T14:16:28.641Z</time></trkpt><trkpt lat="41.7903894" lon="13.8075576"><ele>1138.0</ele><time>2026-05-01T14:16:29.648Z</time></trkpt><trkpt lat="41.7902966" lon="13.8077745"><ele>1141.0</ele><time>2026-05-01T14:16:30.643Z</time></trkpt><trkpt lat="41.7902125" lon="13.8080064"><ele>1144.0</ele><time>2026-05-01T14:16:31.639Z</time></trkpt><trkpt lat="41.7901331" lon="13.8082447"><ele>1147.0</ele><time>2026-05-01T14:16:32.636Z</time></trkpt><trkpt lat="41.7900574" lon="13.8084906"><ele>1140.3333333333333</ele><time>2026-05-01T14:16:33.644Z</time></trkpt><trkpt lat="41.7899842" lon="13.808738"><ele>1133.6666666666667</ele><time>2026-05-01T14:16:34.641Z</time></trkpt><trkpt lat="41.7899029" lon="13.8089906"><ele>1127.0</ele><time>2026-05-01T14:16:35.64Z</time></trkpt><trkpt lat="41.7898166" lon="13.8092369"><ele>1128.3333333333335</ele><time>2026-05-01T14:16:36.641Z</time></trkpt><trkpt lat="41.7897298" lon="13.8094843"><ele>1129.6666666666667</ele><time>2026-05-01T14:16:37.638Z</time></trkpt><trkpt lat="41.789644" lon="13.8097273"><ele>1131.0</ele><time>2026-05-01T14:16:38.64Z</time></trkpt><trkpt lat="41.7895647" lon="13.8099677"><ele>1133.6666666666667</ele><time>2026-05-01T14:16:39.643Z</time></trkpt><trkpt lat="41.7894903" lon="13.8102"><ele>1136.3333333333335</ele><time>2026-05-01T14:16:40.652Z</time></trkpt><trkpt lat="41.7894199" lon="13.8104293"><ele>1139.0</ele><time>2026-05-01T14:16:41.642Z</time></trkpt><trkpt lat="41.7893545" lon="13.8106557"><ele>1133.6666666666667</ele><time>2026-05-01T14:16:42.671Z</time></trkpt><trkpt lat="41.7892994" lon="13.8108757"><ele>1128.3333333333333</ele><time>2026-05-01T14:16:43.639Z</time></trkpt><trkpt lat="41.7892541" lon="13.811099"><ele>1123.0</ele><time>2026-05-01T14:16:44.639Z</time></trkpt><trkpt lat="41.7892182" lon="13.8113326"><ele>1123.0</ele><time>2026-05-01T14:16:45.653Z</time></trkpt><trkpt lat="41.7891862" lon="13.8115737"><ele>1123.0</ele><time>2026-05-01T14:16:46.644Z</time></trkpt><trkpt lat="41.7891493" lon="13.8118233"><ele>1123.0</ele><time>2026-05-01T14:16:47.651Z</time></trkpt><trkpt lat="41.7891091" lon="13.8120714"><ele>1124.3333333333333</ele><time>2026-05-01T14:16:48.636Z</time></trkpt><trkpt lat="41.7890689" lon="13.8123204"><ele>1125.6666666666667</ele><time>2026-05-01T14:16:49.634Z</time></trkpt><trkpt lat="41.7890261" lon="13.8125658"><ele>1127.0</ele><time>2026-05-01T14:16:50.644Z</time></trkpt><trkpt lat="41.788984" lon="13.8128017"><ele>1127.6666666666667</ele><time>2026-05-01T14:16:51.64Z</time></trkpt><trkpt lat="41.7889465" lon="13.8130225"><ele>1128.3333333333333</ele><time>2026-05-01T14:16:52.646Z</time></trkpt><trkpt lat="41.7889142" lon="13.8132364"><ele>1129.0</ele><time>2026-05-01T14:16:53.63Z</time></trkpt><trkpt lat="41.7888859" lon="13.8134445"><ele>1128.6666666666665</ele><time>2026-05-01T14:16:54.642Z</time></trkpt><trkpt lat="41.7888735" lon="13.8136531"><ele>1128.3333333333333</ele><time>2026-05-01T14:16:55.637Z</time></trkpt><trkpt lat="41.788883" lon="13.8138684"><ele>1128.0</ele><time>2026-05-01T14:16:56.658Z</time></trkpt><trkpt lat="41.7889066" lon="13.8140844"><ele>1128.0</ele><time>2026-05-01T14:16:57.637Z</time></trkpt><trkpt lat="41.7889323" lon="13.8142927"><ele>1128.0</ele><time>2026-05-01T14:16:58.637Z</time></trkpt><trkpt lat="41.7889417" lon="13.8145043"><ele>1128.0</ele><time>2026-05-01T14:16:59.645Z</time></trkpt><trkpt lat="41.7889301" lon="13.8147217"><ele>1126.3333333333333</ele><time>2026-05-01T14:17:00.643Z</time></trkpt><trkpt lat="41.7888939" lon="13.8149386"><ele>1124.6666666666665</ele><time>2026-05-01T14:17:01.657Z</time></trkpt><trkpt lat="41.7888343" lon="13.8151419"><ele>1123.0</ele><time>2026-05-01T14:17:02.64Z</time></trkpt><trkpt lat="41.7887501" lon="13.8153372"><ele>1122.3333333333333</ele><time>2026-05-01T14:17:03.636Z</time></trkpt><trkpt lat="41.78866" lon="13.8155384"><ele>1121.6666666666667</ele><time>2026-05-01T14:17:04.64Z</time></trkpt><trkpt lat="41.7885698" lon="13.8157458"><ele>1121.0</ele><time>2026-05-01T14:17:05.645Z</time></trkpt><trkpt lat="41.7884794" lon="13.815953"><ele>1121.0</ele><time>2026-05-01T14:17:06.643Z</time></trkpt><trkpt lat="41.788385" lon="13.8161459"><ele>1121.0</ele><time>2026-05-01T14:17:07.644Z</time></trkpt><trkpt lat="41.7882818" lon="13.8163298"><ele>1121.0</ele><time>2026-05-01T14:17:08.642Z</time></trkpt><trkpt lat="41.7881652" lon="13.8165134"><ele>1121.0</ele><time>2026-05-01T14:17:09.633Z</time></trkpt><trkpt lat="41.788039" lon="13.8166982"><ele>1121.0</ele><time>2026-05-01T14:17:10.64Z</time></trkpt><trkpt lat="41.7879096" lon="13.8168853"><ele>1121.0</ele><time>2026-05-01T14:17:11.647Z</time></trkpt><trkpt lat="41.787776" lon="13.8170687"><ele>1120.6666666666667</ele><time>2026-05-01T14:17:12.64Z</time></trkpt><trkpt lat="41.7876359" lon="13.8172499"><ele>1120.3333333333333</ele><time>2026-05-01T14:17:13.66Z</time></trkpt><trkpt lat="41.7874969" lon="13.817433"><ele>1120.0</ele><time>2026-05-01T14:17:14.654Z</time></trkpt><trkpt lat="41.7873599" lon="13.8176171"><ele>1125.0</ele><time>2026-05-01T14:17:15.632Z</time></trkpt><trkpt lat="41.7872208" lon="13.8177969"><ele>1130.0</ele><time>2026-05-01T14:17:16.634Z</time></trkpt><trkpt lat="41.7870827" lon="13.8179767"><ele>1135.0</ele><time>2026-05-01T14:17:17.639Z</time></trkpt><trkpt lat="41.7869482" lon="13.8181537"><ele>1133.6666666666665</ele><time>2026-05-01T14:17:18.644Z</time></trkpt><trkpt lat="41.7868135" lon="13.8183289"><ele>1132.3333333333333</ele><time>2026-05-01T14:17:19.636Z</time></trkpt><trkpt lat="41.7866813" lon="13.818501"><ele>1131.0</ele><time>2026-05-01T14:17:20.646Z</time></trkpt><trkpt lat="41.7865492" lon="13.8186731"><ele>1131.0</ele><time>2026-05-01T14:17:21.642Z</time></trkpt><trkpt lat="41.7864155" lon="13.8188414"><ele>1131.0</ele><time>2026-05-01T14:17:22.643Z</time></trkpt><trkpt lat="41.7862849" lon="13.8190108"><ele>1131.0</ele><time>2026-05-01T14:17:23.641Z</time></trkpt><trkpt lat="41.7861635" lon="13.8191773"><ele>1127.0</ele><time>2026-05-01T14:17:24.646Z</time></trkpt><trkpt lat="41.7860438" lon="13.8193388"><ele>1123.0</ele><time>2026-05-01T14:17:25.64Z</time></trkpt><trkpt lat="41.7859337" lon="13.8195069"><ele>1119.0</ele><time>2026-05-01T14:17:26.634Z</time></trkpt><trkpt lat="41.785829" lon="13.8196809"><ele>1119.0</ele><time>2026-05-01T14:17:27.638Z</time></trkpt><trkpt lat="41.7857315" lon="13.8198669"><ele>1119.0</ele><time>2026-05-01T14:17:28.635Z</time></trkpt><trkpt lat="41.7856455" lon="13.8200729"><ele>1119.0</ele><time>2026-05-01T14:17:29.644Z</time></trkpt><trkpt lat="41.7855701" lon="13.8202966"><ele>1123.0</ele><time>2026-05-01T14:17:30.641Z</time></trkpt><trkpt lat="41.7854922" lon="13.8205264"><ele>1127.0</ele><time>2026-05-01T14:17:31.647Z</time></trkpt><trkpt lat="41.7854133" lon="13.8207569"><ele>1131.0</ele><time>2026-05-01T14:17:32.637Z</time></trkpt><trkpt lat="41.7853272" lon="13.8209855"><ele>1125.6666666666667</ele><time>2026-05-01T14:17:33.656Z</time></trkpt><trkpt lat="41.7852308" lon="13.8212174"><ele>1120.3333333333335</ele><time>2026-05-01T14:17:34.644Z</time></trkpt><trkpt lat="41.7851241" lon="13.82145"><ele>1115.0</ele><time>2026-05-01T14:17:35.637Z</time></trkpt><trkpt lat="41.7850109" lon="13.8216848"><ele>1120.3333333333335</ele><time>2026-05-01T14:17:36.645Z</time></trkpt><trkpt lat="41.7848945" lon="13.8219253"><ele>1125.6666666666667</ele><time>2026-05-01T14:17:37.637Z</time></trkpt><trkpt lat="41.7847781" lon="13.8221604"><ele>1131.0</ele><time>2026-05-01T14:17:38.644Z</time></trkpt><trkpt lat="41.784671" lon="13.8223852"><ele>1131.0</ele><time>2026-05-01T14:17:39.636Z</time></trkpt><trkpt lat="41.784568" lon="13.822601"><ele>1131.0</ele><time>2026-05-01T14:17:40.647Z</time></trkpt><trkpt lat="41.7844667" lon="13.8228185"><ele>1131.0</ele><time>2026-05-01T14:17:41.644Z</time></trkpt><trkpt lat="41.7843604" lon="13.8230429"><ele>1130.6666666666667</ele><time>2026-05-01T14:17:42.671Z</time></trkpt><trkpt lat="41.7842509" lon="13.8232678"><ele>1130.3333333333335</ele><time>2026-05-01T14:17:43.643Z</time></trkpt><trkpt lat="41.7841449" lon="13.8234971"><ele>1130.0</ele><time>2026-05-01T14:17:44.645Z</time></trkpt><trkpt lat="41.7840425" lon="13.8237284"><ele>1130.0</ele><time>2026-05-01T14:17:45.636Z</time></trkpt><trkpt lat="41.7839461" lon="13.8239473"><ele>1130.0</ele><time>2026-05-01T14:17:46.647Z</time></trkpt><trkpt lat="41.783857" lon="13.8241542"><ele>1130.0</ele><time>2026-05-01T14:17:47.638Z</time></trkpt><trkpt lat="41.7837713" lon="13.8243524"><ele>1137.6666666666667</ele><time>2026-05-01T14:17:48.639Z</time></trkpt><trkpt lat="41.7836888" lon="13.8245445"><ele>1145.3333333333333</ele><time>2026-05-01T14:17:49.644Z</time></trkpt><trkpt lat="41.7836066" lon="13.8247357"><ele>1153.0</ele><time>2026-05-01T14:17:50.642Z</time></trkpt><trkpt lat="41.7835294" lon="13.8249272"><ele>1143.3333333333333</ele><time>2026-05-01T14:17:51.659Z</time></trkpt><trkpt lat="41.783454" lon="13.825125"><ele>1133.6666666666667</ele><time>2026-05-01T14:17:52.638Z</time></trkpt><trkpt lat="41.7833837" lon="13.8253266"><ele>1124.0</ele><time>2026-05-01T14:17:53.642Z</time></trkpt><trkpt lat="41.7833223" lon="13.8255205"><ele>1124.0</ele><time>2026-05-01T14:17:54.647Z</time></trkpt><trkpt lat="41.7832651" lon="13.8257043"><ele>1124.0</ele><time>2026-05-01T14:17:55.662Z</time></trkpt><trkpt lat="41.783206" lon="13.8258764"><ele>1124.0</ele><time>2026-05-01T14:17:56.639Z</time></trkpt><trkpt lat="41.7831467" lon="13.8260348"><ele>1124.0</ele><time>2026-05-01T14:17:57.672Z</time></trkpt><trkpt lat="41.783079" lon="13.8261749"><ele>1122.75</ele><time>2026-05-01T14:17:58.646Z</time></trkpt><trkpt lat="41.783003" lon="13.8262916"><ele>1121.5</ele><time>2026-05-01T14:17:59.653Z</time></trkpt><trkpt lat="41.7829071" lon="13.8263786"><ele>1120.25</ele><time>2026-05-01T14:18:00.643Z</time></trkpt><trkpt lat="41.7827926" lon="13.8264287"><ele>1119.0</ele><time>2026-05-01T14:18:01.638Z</time></trkpt><trkpt lat="41.7826611" lon="13.8264481"><ele>1119.0</ele><time>2026-05-01T14:18:02.636Z</time></trkpt><trkpt lat="41.7825144" lon="13.8264659"><ele>1119.0</ele><time>2026-05-01T14:18:03.634Z</time></trkpt><trkpt lat="41.782361" lon="13.8264889"><ele>1119.0</ele><time>2026-05-01T14:18:04.629Z</time></trkpt><trkpt lat="41.7821987" lon="13.8265135"><ele>1119.0</ele><time>2026-05-01T14:18:05.638Z</time></trkpt><trkpt lat="41.7820285" lon="13.8265384"><ele>1119.0</ele><time>2026-05-01T14:18:06.643Z</time></trkpt><trkpt lat="41.7818541" lon="13.8265698"><ele>1119.0</ele><time>2026-05-01T14:18:07.644Z</time></trkpt><trkpt lat="41.7816731" lon="13.8266045"><ele>1119.0</ele><time>2026-05-01T14:18:08.63Z</time></trkpt><trkpt lat="41.7814939" lon="13.8266511"><ele>1119.0</ele><time>2026-05-01T14:18:09.63Z</time></trkpt><trkpt lat="41.7813143" lon="13.8267071"><ele>1119.0</ele><time>2026-05-01T14:18:10.636Z</time></trkpt><trkpt lat="41.7811404" lon="13.8267728"><ele>1128.3333333333333</ele><time>2026-05-01T14:18:11.64Z</time></trkpt><trkpt lat="41.7809761" lon="13.8268353"><ele>1137.6666666666665</ele><time>2026-05-01T14:18:12.639Z</time></trkpt><trkpt lat="41.780827" lon="13.8268931"><ele>1147.0</ele><time>2026-05-01T14:18:13.634Z</time></trkpt><trkpt lat="41.7806847" lon="13.8269525"><ele>1147.0</ele><time>2026-05-01T14:18:14.644Z</time></trkpt><trkpt lat="41.7805508" lon="13.8270188"><ele>1147.0</ele><time>2026-05-01T14:18:15.635Z</time></trkpt><trkpt lat="41.7804203" lon="13.8270937"><ele>1147.0</ele><time>2026-05-01T14:18:16.635Z</time></trkpt><trkpt lat="41.780291" lon="13.8271839"><ele>1147.0</ele><time>2026-05-01T14:18:17.629Z</time></trkpt><trkpt lat="41.7801659" lon="13.8272802"><ele>1143.25</ele><time>2026-05-01T14:18:18.637Z</time></trkpt><trkpt lat="41.7800411" lon="13.8273718"><ele>1139.5</ele><time>2026-05-01T14:18:19.626Z</time></trkpt><trkpt lat="41.7799176" lon="13.8274583"><ele>1135.75</ele><time>2026-05-01T14:18:20.638Z</time></trkpt><trkpt lat="41.7797911" lon="13.8275472"><ele>1132.0</ele><time>2026-05-01T14:18:21.635Z</time></trkpt><trkpt lat="41.7796655" lon="13.8276402"><ele>1133.0</ele><time>2026-05-01T14:18:22.628Z</time></trkpt><trkpt lat="41.7795411" lon="13.8277308"><ele>1134.0</ele><time>2026-05-01T14:18:23.638Z</time></trkpt><trkpt lat="41.7794205" lon="13.8278226"><ele>1135.0</ele><time>2026-05-01T14:18:24.638Z</time></trkpt><trkpt lat="41.7792997" lon="13.8279128"><ele>1136.0</ele><time>2026-05-01T14:18:25.664Z</time></trkpt><trkpt lat="41.7791776" lon="13.8279994"><ele>1136.0</ele><time>2026-05-01T14:18:26.636Z</time></trkpt><trkpt lat="41.7790557" lon="13.8280838"><ele>1136.0</ele><time>2026-05-01T14:18:27.648Z</time></trkpt><trkpt lat="41.7789311" lon="13.828158"><ele>1136.0</ele><time>2026-05-01T14:18:28.633Z</time></trkpt><trkpt lat="41.7788106" lon="13.8282333"><ele>1136.0</ele><time>2026-05-01T14:18:29.642Z</time></trkpt><trkpt lat="41.7786897" lon="13.8283072"><ele>1136.0</ele><time>2026-05-01T14:18:30.641Z</time></trkpt><trkpt lat="41.7785702" lon="13.8283803"><ele>1136.0</ele><time>2026-05-01T14:18:31.642Z</time></trkpt><trkpt lat="41.778448" lon="13.8284536"><ele>1136.0</ele><time>2026-05-01T14:18:32.638Z</time></trkpt><trkpt lat="41.778321" lon="13.8285313"><ele>1136.0</ele><time>2026-05-01T14:18:33.638Z</time></trkpt><trkpt lat="41.7781885" lon="13.8286092"><ele>1136.25</ele><time>2026-05-01T14:18:34.635Z</time></trkpt><trkpt lat="41.7780545" lon="13.8286928"><ele>1136.5</ele><time>2026-05-01T14:18:35.645Z</time></trkpt><trkpt lat="41.7779174" lon="13.8287758"><ele>1136.75</ele><time>2026-05-01T14:18:36.635Z</time></trkpt><trkpt lat="41.7777804" lon="13.8288593"><ele>1137.0</ele><time>2026-05-01T14:18:37.637Z</time></trkpt><trkpt lat="41.77764" lon="13.8289444"><ele>1137.0</ele><time>2026-05-01T14:18:38.644Z</time></trkpt><trkpt lat="41.777505" lon="13.8290215"><ele>1137.0</ele><time>2026-05-01T14:18:39.643Z</time></trkpt><trkpt lat="41.7773705" lon="13.8290908"><ele>1137.0</ele><time>2026-05-01T14:18:40.638Z</time></trkpt><trkpt lat="41.7772384" lon="13.8291568"><ele>1137.0</ele><time>2026-05-01T14:18:41.635Z</time></trkpt><trkpt lat="41.77711" lon="13.8292184"><ele>1137.0</ele><time>2026-05-01T14:18:42.636Z</time></trkpt><trkpt lat="41.7769838" lon="13.8292783"><ele>1137.0</ele><time>2026-05-01T14:18:43.642Z</time></trkpt><trkpt lat="41.7768569" lon="13.8293368"><ele>1137.0</ele><time>2026-05-01T14:18:44.658Z</time></trkpt><trkpt lat="41.776729" lon="13.8293952"><ele>1137.0</ele><time>2026-05-01T14:18:45.644Z</time></trkpt><trkpt lat="41.7766" lon="13.8294448"><ele>1139.25</ele><time>2026-05-01T14:18:46.642Z</time></trkpt><trkpt lat="41.7764719" lon="13.829492"><ele>1141.5</ele><time>2026-05-01T14:18:47.638Z</time></trkpt><trkpt lat="41.7763435" lon="13.8295376"><ele>1143.75</ele><time>2026-05-01T14:18:48.64Z</time></trkpt><trkpt lat="41.7762193" lon="13.8295834"><ele>1146.0</ele><time>2026-05-01T14:18:49.659Z</time></trkpt><trkpt lat="41.7760997" lon="13.8296286"><ele>1145.0</ele><time>2026-05-01T14:18:50.643Z</time></trkpt><trkpt lat="41.7759809" lon="13.8296714"><ele>1144.0</ele><time>2026-05-01T14:18:51.64Z</time></trkpt><trkpt lat="41.7758679" lon="13.829719"><ele>1143.0</ele><time>2026-05-01T14:18:52.635Z</time></trkpt><trkpt lat="41.7757661" lon="13.8297619"><ele>1142.0</ele><time>2026-05-01T14:18:53.64Z</time></trkpt><trkpt lat="41.7756701" lon="13.8297972"><ele>1141.0</ele><time>2026-05-01T14:18:54.64Z</time></trkpt><trkpt lat="41.775573" lon="13.8298115"><ele>1141.0</ele><time>2026-05-01T14:18:55.639Z</time></trkpt><trkpt lat="41.7754741" lon="13.8297864"><ele>1141.0</ele><time>2026-05-01T14:18:56.636Z</time></trkpt><trkpt lat="41.7753836" lon="13.8297254"><ele>1141.0</ele><time>2026-05-01T14:18:57.628Z</time></trkpt><trkpt lat="41.7753071" lon="13.8296316"><ele>1141.0</ele><time>2026-05-01T14:18:58.647Z</time></trkpt><trkpt lat="41.7752449" lon="13.8294958"><ele>1141.0</ele><time>2026-05-01T14:18:59.641Z</time></trkpt><trkpt lat="41.775207" lon="13.8293207"><ele>1141.25</ele><time>2026-05-01T14:19:00.647Z</time></trkpt><trkpt lat="41.7751765" lon="13.829132"><ele>1141.5</ele><time>2026-05-01T14:19:01.641Z</time></trkpt><trkpt lat="41.775144" lon="13.8289464"><ele>1141.75</ele><time>2026-05-01T14:19:02.638Z</time></trkpt><trkpt lat="41.7751495" lon="13.8287711"><ele>1142.0</ele><time>2026-05-01T14:19:03.65Z</time></trkpt><trkpt lat="41.7751882" lon="13.8285988"><ele>1139.0</ele><time>2026-05-01T14:19:04.633Z</time></trkpt><trkpt lat="41.7752578" lon="13.8284219"><ele>1136.0</ele><time>2026-05-01T14:19:05.632Z</time></trkpt><trkpt lat="41.7753444" lon="13.8282424"><ele>1133.0</ele><time>2026-05-01T14:19:06.634Z</time></trkpt><trkpt lat="41.7754326" lon="13.8280533"><ele>1133.0</ele><time>2026-05-01T14:19:07.634Z</time></trkpt><trkpt lat="41.775524" lon="13.8278527"><ele>1133.0</ele><time>2026-05-01T14:19:08.635Z</time></trkpt><trkpt lat="41.7756209" lon="13.8276402"><ele>1133.0</ele><time>2026-05-01T14:19:09.635Z</time></trkpt><trkpt lat="41.7757188" lon="13.8274139"><ele>1133.3333333333335</ele><time>2026-05-01T14:19:10.634Z</time></trkpt><trkpt lat="41.7758209" lon="13.8271813"><ele>1133.6666666666667</ele><time>2026-05-01T14:19:11.636Z</time></trkpt><trkpt lat="41.7759277" lon="13.8269498"><ele>1134.0</ele><time>2026-05-01T14:19:12.658Z</time></trkpt><trkpt lat="41.7760361" lon="13.8267142"><ele>1134.0</ele><time>2026-05-01T14:19:13.639Z</time></trkpt><trkpt lat="41.7761399" lon="13.8264971"><ele>1134.0</ele><time>2026-05-01T14:19:14.636Z</time></trkpt><trkpt lat="41.7762336" lon="13.8262808"><ele>1134.0</ele><time>2026-05-01T14:19:15.636Z</time></trkpt><trkpt lat="41.776329" lon="13.8260668"><ele>1139.0</ele><time>2026-05-01T14:19:16.636Z</time></trkpt><trkpt lat="41.7764311" lon="13.8258591"><ele>1144.0</ele><time>2026-05-01T14:19:17.672Z</time></trkpt><trkpt lat="41.7765404" lon="13.8256512"><ele>1149.0</ele><time>2026-05-01T14:19:18.627Z</time></trkpt><trkpt lat="41.7766631" lon="13.8254532"><ele>1149.0</ele><time>2026-05-01T14:19:19.642Z</time></trkpt><trkpt lat="41.7767861" lon="13.8252627"><ele>1149.0</ele><time>2026-05-01T14:19:20.629Z</time></trkpt><trkpt lat="41.7769096" lon="13.8250891"><ele>1149.0</ele><time>2026-05-01T14:19:21.644Z</time></trkpt><trkpt lat="41.7770352" lon="13.8249132"><ele>1147.3333333333333</ele><time>2026-05-01T14:19:22.638Z</time></trkpt><trkpt lat="41.7771545" lon="13.8247188"><ele>1145.6666666666665</ele><time>2026-05-01T14:19:23.64Z</time></trkpt><trkpt lat="41.7772654" lon="13.8245086"><ele>1144.0</ele><time>2026-05-01T14:19:24.637Z</time></trkpt><trkpt lat="41.777371" lon="13.8242947"><ele>1151.6666666666665</ele><time>2026-05-01T14:19:25.642Z</time></trkpt><trkpt lat="41.7774626" lon="13.8240939"><ele>1159.3333333333333</ele><time>2026-05-01T14:19:26.641Z</time></trkpt><trkpt lat="41.7775493" lon="13.8239094"><ele>1167.0</ele><time>2026-05-01T14:19:27.63Z</time></trkpt><trkpt lat="41.777639" lon="13.8237277"><ele>1164.3333333333333</ele><time>2026-05-01T14:19:28.634Z</time></trkpt><trkpt lat="41.7777414" lon="13.8235523"><ele>1161.6666666666665</ele><time>2026-05-01T14:19:29.636Z</time></trkpt><trkpt lat="41.7778571" lon="13.823378"><ele>1159.0</ele><time>2026-05-01T14:19:30.632Z</time></trkpt><trkpt lat="41.7779852" lon="13.8231963"><ele>1159.0</ele><time>2026-05-01T14:19:31.647Z</time></trkpt><trkpt lat="41.7781211" lon="13.8230041"><ele>1159.0</ele><time>2026-05-01T14:19:32.635Z</time></trkpt><trkpt lat="41.7782624" lon="13.8228138"><ele>1159.0</ele><time>2026-05-01T14:19:33.63Z</time></trkpt><trkpt lat="41.7784062" lon="13.8226209"><ele>1155.6666666666665</ele><time>2026-05-01T14:19:34.633Z</time></trkpt><trkpt lat="41.7785425" lon="13.8224246"><ele>1152.3333333333333</ele><time>2026-05-01T14:19:35.646Z</time></trkpt><trkpt lat="41.7786738" lon="13.8222158"><ele>1149.0</ele><time>2026-05-01T14:19:36.654Z</time></trkpt><trkpt lat="41.7787882" lon="13.8220078"><ele>1149.0</ele><time>2026-05-01T14:19:37.639Z</time></trkpt><trkpt lat="41.7788834" lon="13.8218187"><ele>1149.0</ele><time>2026-05-01T14:19:38.643Z</time></trkpt><trkpt lat="41.7789734" lon="13.8216427"><ele>1149.0</ele><time>2026-05-01T14:19:39.636Z</time></trkpt><trkpt lat="41.7790597" lon="13.8214835"><ele>1147.5</ele><time>2026-05-01T14:19:40.636Z</time></trkpt><trkpt lat="41.7791539" lon="13.8213527"><ele>1146.0</ele><time>2026-05-01T14:19:41.631Z</time></trkpt><trkpt lat="41.7792434" lon="13.82125"><ele>1144.5</ele><time>2026-05-01T14:19:42.647Z</time></trkpt><trkpt lat="41.7793307" lon="13.8211594"><ele>1143.0</ele><time>2026-05-01T14:19:43.642Z</time></trkpt><trkpt lat="41.7793957" lon="13.8210656"><ele>1145.1666666666667</ele><time>2026-05-01T14:19:44.638Z</time></trkpt><trkpt lat="41.7794142" lon="13.8209566"><ele>1147.3333333333333</ele><time>2026-05-01T14:19:45.651Z</time></trkpt><trkpt lat="41.7794061" lon="13.8208481"><ele>1149.5</ele><time>2026-05-01T14:19:46.642Z</time></trkpt><trkpt lat="41.7793522" lon="13.820775"><ele>1151.6666666666665</ele><time>2026-05-01T14:19:47.65Z</time></trkpt><trkpt lat="41.7792705" lon="13.8207426"><ele>1153.8333333333333</ele><time>2026-05-01T14:19:48.631Z</time></trkpt><trkpt lat="41.7791947" lon="13.8207837"><ele>1156.0</ele><time>2026-05-01T14:19:49.632Z</time></trkpt><trkpt lat="41.7791323" lon="13.820888"><ele>1159.75</ele><time>2026-05-01T14:19:50.632Z</time></trkpt><trkpt lat="41.7790786" lon="13.8210308"><ele>1163.5</ele><time>2026-05-01T14:19:51.635Z</time></trkpt><trkpt lat="41.7790237" lon="13.821195"><ele>1167.25</ele><time>2026-05-01T14:19:52.643Z</time></trkpt><trkpt lat="41.7789492" lon="13.8213828"><ele>1171.0</ele><time>2026-05-01T14:19:53.637Z</time></trkpt><trkpt lat="41.7788452" lon="13.8215929"><ele>1171.0</ele><time>2026-05-01T14:19:54.641Z</time></trkpt><trkpt lat="41.7787314" lon="13.8218076"><ele>1171.0</ele><time>2026-05-01T14:19:55.634Z</time></trkpt><trkpt lat="41.7785944" lon="13.8220126"><ele>1171.0</ele><time>2026-05-01T14:19:56.626Z</time></trkpt><trkpt lat="41.7784387" lon="13.8221925"><ele>1167.0</ele><time>2026-05-01T14:19:57.63Z</time></trkpt><trkpt lat="41.778296" lon="13.822358"><ele>1163.0</ele><time>2026-05-01T14:19:58.639Z</time></trkpt><trkpt lat="41.7781673" lon="13.8225228"><ele>1159.0</ele><time>2026-05-01T14:19:59.644Z</time></trkpt><trkpt lat="41.7780373" lon="13.8226849"><ele>1159.0</ele><time>2026-05-01T14:20:00.631Z</time></trkpt><trkpt lat="41.7778989" lon="13.8228357"><ele>1159.0</ele><time>2026-05-01T14:20:01.638Z</time></trkpt><trkpt lat="41.7777489" lon="13.8229756"><ele>1159.0</ele><time>2026-05-01T14:20:02.632Z</time></trkpt><trkpt lat="41.7776094" lon="13.8230968"><ele>1167.75</ele><time>2026-05-01T14:20:03.625Z</time></trkpt><trkpt lat="41.7774816" lon="13.8232054"><ele>1176.5</ele><time>2026-05-01T14:20:04.628Z</time></trkpt><trkpt lat="41.7773601" lon="13.8233104"><ele>1185.25</ele><time>2026-05-01T14:20:05.619Z</time></trkpt><trkpt lat="41.7772423" lon="13.8234041"><ele>1194.0</ele><time>2026-05-01T14:20:06.64Z</time></trkpt><trkpt lat="41.7771343" lon="13.8234792"><ele>1197.75</ele><time>2026-05-01T14:20:07.641Z</time></trkpt><trkpt lat="41.7770318" lon="13.8235458"><ele>1201.5</ele><time>2026-05-01T14:20:08.637Z</time></trkpt><trkpt lat="41.776936" lon="13.8236181"><ele>1205.25</ele><time>2026-05-01T14:20:09.632Z</time></trkpt><trkpt lat="41.7768517" lon="13.8237174"><ele>1209.0</ele><time>2026-05-01T14:20:10.636Z</time></trkpt><trkpt lat="41.7767869" lon="13.8238463"><ele>1209.0</ele><time>2026-05-01T14:20:11.624Z</time></trkpt><trkpt lat="41.7767259" lon="13.8239938"><ele>1209.0</ele><time>2026-05-01T14:20:12.626Z</time></trkpt><trkpt lat="41.7766567" lon="13.8241499"><ele>1209.0</ele><time>2026-05-01T14:20:13.63Z</time></trkpt><trkpt lat="41.7765775" lon="13.8243041"><ele>1209.0</ele><time>2026-05-01T14:20:14.625Z</time></trkpt><trkpt lat="41.7764897" lon="13.8244404"><ele>1200.75</ele><time>2026-05-01T14:20:15.627Z</time></trkpt><trkpt lat="41.7763891" lon="13.8245675"><ele>1192.5</ele><time>2026-05-01T14:20:16.632Z</time></trkpt><trkpt lat="41.7762779" lon="13.8246792"><ele>1184.25</ele><time>2026-05-01T14:20:17.637Z</time></trkpt><trkpt lat="41.7761556" lon="13.8247709"><ele>1176.0</ele><time>2026-05-01T14:20:18.635Z</time></trkpt><trkpt lat="41.7760341" lon="13.8248617"><ele>1176.75</ele><time>2026-05-01T14:20:19.631Z</time></trkpt><trkpt lat="41.7759086" lon="13.8249405"><ele>1177.5</ele><time>2026-05-01T14:20:20.628Z</time></trkpt><trkpt lat="41.7757809" lon="13.8250286"><ele>1178.25</ele><time>2026-05-01T14:20:21.627Z</time></trkpt><trkpt lat="41.7756594" lon="13.8251347"><ele>1179.0</ele><time>2026-05-01T14:20:22.632Z</time></trkpt><trkpt lat="41.7755404" lon="13.8252532"><ele>1179.0</ele><time>2026-05-01T14:20:23.636Z</time></trkpt><trkpt lat="41.7754182" lon="13.8253656"><ele>1179.0</ele><time>2026-05-01T14:20:24.629Z</time></trkpt><trkpt lat="41.7752887" lon="13.8254585"><ele>1179.0</ele><time>2026-05-01T14:20:25.624Z</time></trkpt><trkpt lat="41.7751574" lon="13.8255221"><ele>1179.0</ele><time>2026-05-01T14:20:26.646Z</time></trkpt><trkpt lat="41.7750337" lon="13.8255741"><ele>1180.5</ele><time>2026-05-01T14:20:27.626Z</time></trkpt><trkpt lat="41.7749172" lon="13.8256381"><ele>1182.0</ele><time>2026-05-01T14:20:28.635Z</time></trkpt><trkpt lat="41.7748105" lon="13.8257352"><ele>1183.5</ele><time>2026-05-01T14:20:29.632Z</time></trkpt><trkpt lat="41.7747173" lon="13.825849"><ele>1185.0</ele><time>2026-05-01T14:20:30.637Z</time></trkpt><trkpt lat="41.7746374" lon="13.8259807"><ele>1185.0</ele><time>2026-05-01T14:20:31.631Z</time></trkpt><trkpt lat="41.7745696" lon="13.8261282"><ele>1185.0</ele><time>2026-05-01T14:20:32.632Z</time></trkpt><trkpt lat="41.7745116" lon="13.8262897"><ele>1185.0</ele><time>2026-05-01T14:20:33.632Z</time></trkpt><trkpt lat="41.7744548" lon="13.8264498"><ele>1185.0</ele><time>2026-05-01T14:20:34.632Z</time></trkpt><trkpt lat="41.774392" lon="13.8266023"><ele>1188.75</ele><time>2026-05-01T14:20:35.633Z</time></trkpt><trkpt lat="41.7743168" lon="13.8267289"><ele>1192.5</ele><time>2026-05-01T14:20:36.642Z</time></trkpt><trkpt lat="41.7742208" lon="13.8268512"><ele>1196.25</ele><time>2026-05-01T14:20:37.631Z</time></trkpt><trkpt lat="41.774107" lon="13.8269582"><ele>1200.0</ele><time>2026-05-01T14:20:38.627Z</time></trkpt><trkpt lat="41.7739827" lon="13.827058"><ele>1200.0</ele><time>2026-05-01T14:20:39.643Z</time></trkpt><trkpt lat="41.7738616" lon="13.827146"><ele>1200.0</ele><time>2026-05-01T14:20:40.637Z</time></trkpt><trkpt lat="41.7737402" lon="13.8272336"><ele>1200.0</ele><time>2026-05-01T14:20:41.657Z</time></trkpt><trkpt lat="41.7736248" lon="13.8273191"><ele>1200.0</ele><time>2026-05-01T14:20:42.64Z</time></trkpt><trkpt lat="41.7735165" lon="13.8274172"><ele>1204.0</ele><time>2026-05-01T14:20:43.636Z</time></trkpt><trkpt lat="41.7734119" lon="13.8275265"><ele>1208.0</ele><time>2026-05-01T14:20:44.637Z</time></trkpt><trkpt lat="41.7733128" lon="13.8276485"><ele>1212.0</ele><time>2026-05-01T14:20:45.643Z</time></trkpt><trkpt lat="41.7732153" lon="13.8277652"><ele>1216.0</ele><time>2026-05-01T14:20:46.642Z</time></trkpt><trkpt lat="41.7731178" lon="13.8278784"><ele>1216.0</ele><time>2026-05-01T14:20:47.64Z</time></trkpt><trkpt lat="41.7730251" lon="13.8279869"><ele>1216.0</ele><time>2026-05-01T14:20:48.634Z</time></trkpt><trkpt lat="41.7729441" lon="13.8281018"><ele>1216.0</ele><time>2026-05-01T14:20:49.633Z</time></trkpt><trkpt lat="41.7728774" lon="13.8282332"><ele>1216.0</ele><time>2026-05-01T14:20:50.631Z</time></trkpt><trkpt lat="41.7728278" lon="13.8283851"><ele>1213.0</ele><time>2026-05-01T14:20:51.635Z</time></trkpt><trkpt lat="41.7728123" lon="13.828569"><ele>1210.0</ele><time>2026-05-01T14:20:52.644Z</time></trkpt><trkpt lat="41.7728234" lon="13.8287931"><ele>1207.0</ele><time>2026-05-01T14:20:53.631Z</time></trkpt><trkpt lat="41.7728395" lon="13.8290612"><ele>1205.3333333333333</ele><time>2026-05-01T14:20:54.643Z</time></trkpt><trkpt lat="41.7728449" lon="13.829343"><ele>1203.6666666666667</ele><time>2026-05-01T14:20:55.635Z</time></trkpt><trkpt lat="41.7728263" lon="13.8296033"><ele>1202.0</ele><time>2026-05-01T14:20:56.634Z</time></trkpt><trkpt lat="41.7728278" lon="13.8298398"><ele>1202.0</ele><time>2026-05-01T14:20:57.632Z</time></trkpt><trkpt lat="41.7728304" lon="13.8300703"><ele>1202.0</ele><time>2026-05-01T14:20:58.636Z</time></trkpt><trkpt lat="41.77283" lon="13.8303095"><ele>1202.0</ele><time>2026-05-01T14:20:59.645Z</time></trkpt><trkpt lat="41.7728191" lon="13.830556"><ele>1201.6666666666667</ele><time>2026-05-01T14:21:00.646Z</time></trkpt><trkpt lat="41.7727851" lon="13.8307845"><ele>1201.3333333333333</ele><time>2026-05-01T14:21:01.63Z</time></trkpt><trkpt lat="41.7727317" lon="13.8309718"><ele>1201.0</ele><time>2026-05-01T14:21:02.636Z</time></trkpt><trkpt lat="41.7726771" lon="13.8311409"><ele>1208.25</ele><time>2026-05-01T14:21:03.637Z</time></trkpt><trkpt lat="41.7726206" lon="13.8313099"><ele>1215.5</ele><time>2026-05-01T14:21:04.63Z</time></trkpt><trkpt lat="41.7725377" lon="13.8314603"><ele>1222.75</ele><time>2026-05-01T14:21:05.633Z</time></trkpt><trkpt lat="41.7724445" lon="13.8315843"><ele>1230.0</ele><time>2026-05-01T14:21:06.638Z</time></trkpt><trkpt lat="41.7723232" lon="13.8316658"><ele>1230.0</ele><time>2026-05-01T14:21:07.643Z</time></trkpt><trkpt lat="41.7721772" lon="13.8316976"><ele>1230.0</ele><time>2026-05-01T14:21:08.635Z</time></trkpt><trkpt lat="41.772022" lon="13.8317168"><ele>1230.0</ele><time>2026-05-01T14:21:09.63Z</time></trkpt><trkpt lat="41.7718729" lon="13.8317219"><ele>1234.5</ele><time>2026-05-01T14:21:10.636Z</time></trkpt><trkpt lat="41.7717286" lon="13.831733"><ele>1239.0</ele><time>2026-05-01T14:21:11.638Z</time></trkpt><trkpt lat="41.7715925" lon="13.8317453"><ele>1243.5</ele><time>2026-05-01T14:21:12.64Z</time></trkpt><trkpt lat="41.7714707" lon="13.8317466"><ele>1248.0</ele><time>2026-05-01T14:21:13.628Z</time></trkpt><trkpt lat="41.7713559" lon="13.8317334"><ele>1248.0</ele><time>2026-05-01T14:21:14.65Z</time></trkpt><trkpt lat="41.7712441" lon="13.8317146"><ele>1248.0</ele><time>2026-05-01T14:21:15.631Z</time></trkpt><trkpt lat="41.7711312" lon="13.8317002"><ele>1248.0</ele><time>2026-05-01T14:21:16.637Z</time></trkpt><trkpt lat="41.7710168" lon="13.8316855"><ele>1248.0</ele><time>2026-05-01T14:21:17.631Z</time></trkpt><trkpt lat="41.7709111" lon="13.8316859"><ele>1248.0</ele><time>2026-05-01T14:21:18.633Z</time></trkpt><trkpt lat="41.7708175" lon="13.8317131"><ele>1249.6</ele><time>2026-05-01T14:21:19.633Z</time></trkpt><trkpt lat="41.7707407" lon="13.8317843"><ele>1251.1999999999998</ele><time>2026-05-01T14:21:20.634Z</time></trkpt><trkpt lat="41.7706878" lon="13.8319085"><ele>1252.8</ele><time>2026-05-01T14:21:21.626Z</time></trkpt><trkpt lat="41.7706673" lon="13.8320585"><ele>1254.3999999999999</ele><time>2026-05-01T14:21:22.641Z</time></trkpt><trkpt lat="41.7706778" lon="13.8322288"><ele>1256.0</ele><time>2026-05-01T14:21:23.631Z</time></trkpt><trkpt lat="41.7707136" lon="13.8324422"><ele>1258.3333333333335</ele><time>2026-05-01T14:21:24.623Z</time></trkpt><trkpt lat="41.7707403" lon="13.8326825"><ele>1260.6666666666667</ele><time>2026-05-01T14:21:25.637Z</time></trkpt><trkpt lat="41.7707358" lon="13.8329269"><ele>1263.0</ele><time>2026-05-01T14:21:26.626Z</time></trkpt><trkpt lat="41.7707179" lon="13.833149"><ele>1263.0</ele><time>2026-05-01T14:21:27.641Z</time></trkpt><trkpt lat="41.770704" lon="13.8333524"><ele>1263.0</ele><time>2026-05-01T14:21:28.641Z</time></trkpt><trkpt lat="41.770705" lon="13.8335377"><ele>1263.0</ele><time>2026-05-01T14:21:29.63Z</time></trkpt><trkpt lat="41.7707283" lon="13.8337098"><ele>1263.0</ele><time>2026-05-01T14:21:30.639Z</time></trkpt><trkpt lat="41.7707735" lon="13.8338949"><ele>1261.3333333333333</ele><time>2026-05-01T14:21:31.633Z</time></trkpt><trkpt lat="41.770858" lon="13.8340976"><ele>1259.6666666666665</ele><time>2026-05-01T14:21:32.637Z</time></trkpt><trkpt lat="41.7709659" lon="13.8343402"><ele>1258.0</ele><time>2026-05-01T14:21:33.641Z</time></trkpt><trkpt lat="41.7710901" lon="13.8346033"><ele>1258.0</ele><time>2026-05-01T14:21:34.64Z</time></trkpt><trkpt lat="41.7712261" lon="13.8349072"><ele>1258.0</ele><time>2026-05-01T14:21:35.64Z</time></trkpt><trkpt lat="41.7713731" lon="13.8352358"><ele>1271.5</ele><time>2026-05-01T14:21:36.639Z</time></trkpt><trkpt lat="41.7715115" lon="13.8355646"><ele>1285.0</ele><time>2026-05-01T14:21:37.643Z</time></trkpt><trkpt lat="41.771638" lon="13.8358756"><ele>1294.0</ele><time>2026-05-01T14:21:38.64Z</time></trkpt><trkpt lat="41.7717457" lon="13.8361613"><ele>1303.0</ele><time>2026-05-01T14:21:39.636Z</time></trkpt><trkpt lat="41.7718429" lon="13.8364352"><ele>1292.5</ele><time>2026-05-01T14:21:40.635Z</time></trkpt><trkpt lat="41.7719483" lon="13.8367172"><ele>1282.0</ele><time>2026-05-01T14:21:41.643Z</time></trkpt><trkpt lat="41.7720754" lon="13.8369973"><ele>1282.0</ele><time>2026-05-01T14:21:42.64Z</time></trkpt><trkpt lat="41.7722246" lon="13.8372574"><ele>1282.0</ele><time>2026-05-01T14:21:43.635Z</time></trkpt><trkpt lat="41.772358" lon="13.8374625"><ele>1282.0</ele><time>2026-05-01T14:21:44.631Z</time></trkpt><trkpt lat="41.7724655" lon="13.8376241"><ele>1284.5</ele><time>2026-05-01T14:21:45.634Z</time></trkpt><trkpt lat="41.772567" lon="13.8377676"><ele>1287.0</ele><time>2026-05-01T14:21:46.64Z</time></trkpt><trkpt lat="41.7726491" lon="13.8378981"><ele>1289.5</ele><time>2026-05-01T14:21:47.645Z</time></trkpt><trkpt lat="41.7726947" lon="13.8380495"><ele>1292.0</ele><time>2026-05-01T14:21:48.647Z</time></trkpt><trkpt lat="41.7726995" lon="13.8381981"><ele>1292.0</ele><time>2026-05-01T14:21:49.641Z</time></trkpt><trkpt lat="41.7726674" lon="13.8383458"><ele>1292.0</ele><time>2026-05-01T14:21:50.645Z</time></trkpt><trkpt lat="41.7725995" lon="13.8385098"><ele>1292.0</ele><time>2026-05-01T14:21:51.646Z</time></trkpt><trkpt lat="41.7725268" lon="13.8386967"><ele>1292.0</ele><time>2026-05-01T14:21:52.629Z</time></trkpt><trkpt lat="41.7724569" lon="13.8388888"><ele>1287.75</ele><time>2026-05-01T14:21:53.644Z</time></trkpt><trkpt lat="41.772392" lon="13.8390448"><ele>1283.5</ele><time>2026-05-01T14:21:54.638Z</time></trkpt><trkpt lat="41.7723089" lon="13.8391835"><ele>1279.25</ele><time>2026-05-01T14:21:55.634Z</time></trkpt><trkpt lat="41.7722056" lon="13.8393286"><ele>1275.0</ele><time>2026-05-01T14:21:56.636Z</time></trkpt><trkpt lat="41.7721176" lon="13.8394736"><ele>1277.0</ele><time>2026-05-01T14:21:57.633Z</time></trkpt><trkpt lat="41.7720225" lon="13.8395949"><ele>1279.0</ele><time>2026-05-01T14:21:58.636Z</time></trkpt><trkpt lat="41.7719139" lon="13.8396789"><ele>1281.0</ele><time>2026-05-01T14:21:59.634Z</time></trkpt><trkpt lat="41.771784" lon="13.8397125"><ele>1283.0</ele><time>2026-05-01T14:22:00.646Z</time></trkpt><trkpt lat="41.7716383" lon="13.8396965"><ele>1283.0</ele><time>2026-05-01T14:22:01.63Z</time></trkpt><trkpt lat="41.7715075" lon="13.8396498"><ele>1283.0</ele><time>2026-05-01T14:22:02.64Z</time></trkpt><trkpt lat="41.7713967" lon="13.8396145"><ele>1283.0</ele><time>2026-05-01T14:22:03.634Z</time></trkpt><trkpt lat="41.7713" lon="13.8396169"><ele>1283.0</ele><time>2026-05-01T14:22:04.637Z</time></trkpt><trkpt lat="41.7712202" lon="13.8396708"><ele>1283.0</ele><time>2026-05-01T14:22:05.632Z</time></trkpt><trkpt lat="41.7711507" lon="13.8397667"><ele>1283.0</ele><time>2026-05-01T14:22:06.634Z</time></trkpt><trkpt lat="41.7711314" lon="13.8399379"><ele>1283.0</ele><time>2026-05-01T14:22:07.641Z</time></trkpt><trkpt lat="41.7711458" lon="13.8401031"><ele>1283.0</ele><time>2026-05-01T14:22:08.644Z</time></trkpt><trkpt lat="41.7711584" lon="13.8402455"><ele>1283.0</ele><time>2026-05-01T14:22:09.645Z</time></trkpt><trkpt lat="41.7711238" lon="13.8403597"><ele>1281.75</ele><time>2026-05-01T14:22:10.641Z</time></trkpt><trkpt lat="41.7710349" lon="13.8404467"><ele>1280.5</ele><time>2026-05-01T14:22:11.64Z</time></trkpt><trkpt lat="41.7709323" lon="13.8404678"><ele>1279.25</ele><time>2026-05-01T14:22:12.64Z</time></trkpt><trkpt lat="41.7708181" lon="13.8404105"><ele>1278.0</ele><time>2026-05-01T14:22:13.647Z</time></trkpt><trkpt lat="41.7707025" lon="13.8403112"><ele>1278.0</ele><time>2026-05-01T14:22:14.64Z</time></trkpt><trkpt lat="41.7705642" lon="13.8402091"><ele>1278.0</ele><time>2026-05-01T14:22:15.639Z</time></trkpt><trkpt lat="41.7704102" lon="13.8401011"><ele>1278.0</ele><time>2026-05-01T14:22:16.633Z</time></trkpt><trkpt lat="41.7702381" lon="13.8399756"><ele>1284.3333333333333</ele><time>2026-05-01T14:22:17.629Z</time></trkpt><trkpt lat="41.7700588" lon="13.8398304"><ele>1290.6666666666665</ele><time>2026-05-01T14:22:18.641Z</time></trkpt><trkpt lat="41.7698592" lon="13.8396829"><ele>1297.0</ele><time>2026-05-01T14:22:19.635Z</time></trkpt><trkpt lat="41.7696483" lon="13.8395236"><ele>1297.0</ele><time>2026-05-01T14:22:20.633Z</time></trkpt><trkpt lat="41.7694303" lon="13.8393532"><ele>1297.0</ele><time>2026-05-01T14:22:21.64Z</time></trkpt><trkpt lat="41.769216" lon="13.8391862"><ele>1301.3333333333333</ele><time>2026-05-01T14:22:22.632Z</time></trkpt><trkpt lat="41.7690135" lon="13.8390421"><ele>1305.6666666666667</ele><time>2026-05-01T14:22:23.635Z</time></trkpt><trkpt lat="41.7688223" lon="13.8389227"><ele>1310.0</ele><time>2026-05-01T14:22:24.631Z</time></trkpt><trkpt lat="41.7686549" lon="13.8388122"><ele>1312.6666666666667</ele><time>2026-05-01T14:22:25.635Z</time></trkpt><trkpt lat="41.7685043" lon="13.8387049"><ele>1315.3333333333333</ele><time>2026-05-01T14:22:26.628Z</time></trkpt><trkpt lat="41.7683597" lon="13.8385903"><ele>1318.0</ele><time>2026-05-01T14:22:27.641Z</time></trkpt><trkpt lat="41.7682174" lon="13.8384279"><ele>1318.0</ele><time>2026-05-01T14:22:28.634Z</time></trkpt><trkpt lat="41.7680886" lon="13.8382212"><ele>1318.0</ele><time>2026-05-01T14:22:29.625Z</time></trkpt><trkpt lat="41.7679557" lon="13.8379996"><ele>1318.0</ele><time>2026-05-01T14:22:30.634Z</time></trkpt><trkpt lat="41.767821" lon="13.837796"><ele>1317.0</ele><time>2026-05-01T14:22:31.629Z</time></trkpt><trkpt lat="41.7676983" lon="13.8376036"><ele>1316.0</ele><time>2026-05-01T14:22:32.631Z</time></trkpt><trkpt lat="41.7675921" lon="13.8374136"><ele>1315.0</ele><time>2026-05-01T14:22:33.627Z</time></trkpt><trkpt lat="41.7674774" lon="13.8372426"><ele>1315.0</ele><time>2026-05-01T14:22:34.632Z</time></trkpt><trkpt lat="41.7673363" lon="13.83708"><ele>1315.0</ele><time>2026-05-01T14:22:35.631Z</time></trkpt><trkpt lat="41.7671702" lon="13.8369233"><ele>1315.0</ele><time>2026-05-01T14:22:36.635Z</time></trkpt><trkpt lat="41.7669981" lon="13.8367684"><ele>1316.6666666666665</ele><time>2026-05-01T14:22:37.625Z</time></trkpt><trkpt lat="41.7668325" lon="13.8366104"><ele>1318.3333333333333</ele><time>2026-05-01T14:22:38.633Z</time></trkpt><trkpt lat="41.7666728" lon="13.8364645"><ele>1320.0</ele><time>2026-05-01T14:22:39.626Z</time></trkpt><trkpt lat="41.7665099" lon="13.8363202"><ele>1320.0</ele><time>2026-05-01T14:22:40.631Z</time></trkpt><trkpt lat="41.7663363" lon="13.8361915"><ele>1320.0</ele><time>2026-05-01T14:22:41.623Z</time></trkpt><trkpt lat="41.7661546" lon="13.8360795"><ele>1320.0</ele><time>2026-05-01T14:22:42.634Z</time></trkpt><trkpt lat="41.7659732" lon="13.8359821"><ele>1326.3333333333333</ele><time>2026-05-01T14:22:43.63Z</time></trkpt><trkpt lat="41.7657929" lon="13.835913"><ele>1332.6666666666665</ele><time>2026-05-01T14:22:44.632Z</time></trkpt><trkpt lat="41.7656229" lon="13.8358497"><ele>1339.0</ele><time>2026-05-01T14:22:45.635Z</time></trkpt><trkpt lat="41.7654596" lon="13.8357813"><ele>1339.0</ele><time>2026-05-01T14:22:46.634Z</time></trkpt><trkpt lat="41.7653055" lon="13.8356962"><ele>1339.0</ele><time>2026-05-01T14:22:47.64Z</time></trkpt><trkpt lat="41.7651659" lon="13.8356233"><ele>1339.0</ele><time>2026-05-01T14:22:48.629Z</time></trkpt><trkpt lat="41.7650174" lon="13.8355758"><ele>1337.0</ele><time>2026-05-01T14:22:49.632Z</time></trkpt><trkpt lat="41.7648622" lon="13.8355603"><ele>1335.0</ele><time>2026-05-01T14:22:50.635Z</time></trkpt><trkpt lat="41.764689" lon="13.8355533"><ele>1333.0</ele><time>2026-05-01T14:22:51.637Z</time></trkpt><trkpt lat="41.7644928" lon="13.8355374"><ele>1331.3333333333333</ele><time>2026-05-01T14:22:52.626Z</time></trkpt><trkpt lat="41.7642833" lon="13.8355189"><ele>1329.6666666666667</ele><time>2026-05-01T14:22:53.638Z</time></trkpt><trkpt lat="41.7640834" lon="13.8355029"><ele>1328.0</ele><time>2026-05-01T14:22:54.636Z</time></trkpt><trkpt lat="41.7639074" lon="13.8354879"><ele>1328.0</ele><time>2026-05-01T14:22:55.638Z</time></trkpt><trkpt lat="41.763732" lon="13.8354755"><ele>1328.0</ele><time>2026-05-01T14:22:56.642Z</time></trkpt><trkpt lat="41.7635495" lon="13.8354388"><ele>1328.0</ele><time>2026-05-01T14:22:57.64Z</time></trkpt><trkpt lat="41.7633566" lon="13.835373"><ele>1328.6666666666667</ele><time>2026-05-01T14:22:58.631Z</time></trkpt><trkpt lat="41.7631565" lon="13.8352902"><ele>1329.3333333333333</ele><time>2026-05-01T14:22:59.634Z</time></trkpt><trkpt lat="41.7629478" lon="13.8352185"><ele>1330.0</ele><time>2026-05-01T14:23:00.635Z</time></trkpt><trkpt lat="41.7627367" lon="13.8351876"><ele>1330.0</ele><time>2026-05-01T14:23:01.647Z</time></trkpt><trkpt lat="41.7625352" lon="13.8351633"><ele>1330.0</ele><time>2026-05-01T14:23:02.629Z</time></trkpt><trkpt lat="41.7623251" lon="13.8351274"><ele>1330.0</ele><time>2026-05-01T14:23:03.636Z</time></trkpt><trkpt lat="41.762101" lon="13.8350846"><ele>1345.5</ele><time>2026-05-01T14:23:04.631Z</time></trkpt><trkpt lat="41.7618741" lon="13.8350339"><ele>1361.0</ele><time>2026-05-01T14:23:05.634Z</time></trkpt><trkpt lat="41.7616545" lon="13.8349759"><ele>1361.0</ele><time>2026-05-01T14:23:06.626Z</time></trkpt><trkpt lat="41.7614364" lon="13.8349214"><ele>1361.0</ele><time>2026-05-01T14:23:07.628Z</time></trkpt><trkpt lat="41.7612134" lon="13.8348712"><ele>1361.0</ele><time>2026-05-01T14:23:08.635Z</time></trkpt><trkpt lat="41.7609994" lon="13.8348267"><ele>1359.6666666666667</ele><time>2026-05-01T14:23:09.629Z</time></trkpt><trkpt lat="41.7607929" lon="13.834787"><ele>1358.3333333333333</ele><time>2026-05-01T14:23:10.646Z</time></trkpt><trkpt lat="41.7605854" lon="13.834752"><ele>1357.0</ele><time>2026-05-01T14:23:11.63Z</time></trkpt><trkpt lat="41.7603745" lon="13.8347297"><ele>1357.6666666666665</ele><time>2026-05-01T14:23:12.639Z</time></trkpt><trkpt lat="41.7601607" lon="13.8347282"><ele>1358.3333333333333</ele><time>2026-05-01T14:23:13.627Z</time></trkpt><trkpt lat="41.759951" lon="13.8347509"><ele>1359.0</ele><time>2026-05-01T14:23:14.633Z</time></trkpt><trkpt lat="41.7597534" lon="13.8347744"><ele>1359.0</ele><time>2026-05-01T14:23:15.633Z</time></trkpt><trkpt lat="41.7595733" lon="13.8347946"><ele>1359.0</ele><time>2026-05-01T14:23:16.625Z</time></trkpt><trkpt lat="41.7593984" lon="13.8348134"><ele>1359.0</ele><time>2026-05-01T14:23:17.642Z</time></trkpt><trkpt lat="41.7592216" lon="13.8348161"><ele>1359.3333333333333</ele><time>2026-05-01T14:23:18.62Z</time></trkpt><trkpt lat="41.759035" lon="13.8347993"><ele>1359.6666666666665</ele><time>2026-05-01T14:23:19.631Z</time></trkpt><trkpt lat="41.7588437" lon="13.8347577"><ele>1360.0</ele><time>2026-05-01T14:23:20.628Z</time></trkpt><trkpt lat="41.7586532" lon="13.8346977"><ele>1362.3333333333333</ele><time>2026-05-01T14:23:21.638Z</time></trkpt><trkpt lat="41.758468" lon="13.8346325"><ele>1364.6666666666667</ele><time>2026-05-01T14:23:22.633Z</time></trkpt><trkpt lat="41.7583028" lon="13.8345703"><ele>1367.0</ele><time>2026-05-01T14:23:23.627Z</time></trkpt><trkpt lat="41.7581549" lon="13.8345138"><ele>1367.0</ele><time>2026-05-01T14:23:24.627Z</time></trkpt><trkpt lat="41.7580208" lon="13.8344672"><ele>1367.0</ele><time>2026-05-01T14:23:25.626Z</time></trkpt><trkpt lat="41.7578891" lon="13.8344396"><ele>1367.0</ele><time>2026-05-01T14:23:26.63Z</time></trkpt><trkpt lat="41.7577543" lon="13.8344294"><ele>1367.0</ele><time>2026-05-01T14:23:27.628Z</time></trkpt><trkpt lat="41.7575667" lon="13.8345141"><ele>1370.0</ele><time>2026-05-01T14:23:28.634Z</time></trkpt><trkpt lat="41.7573767" lon="13.8345919"><ele>1373.0</ele><time>2026-05-01T14:23:29.63Z</time></trkpt><trkpt lat="41.7571813" lon="13.8346524"><ele>1376.0</ele><time>2026-05-01T14:23:30.63Z</time></trkpt><trkpt lat="41.7569544" lon="13.834681"><ele>1378.0</ele><time>2026-05-01T14:23:31.634Z</time></trkpt><trkpt lat="41.7567164" lon="13.8346913"><ele>1380.0</ele><time>2026-05-01T14:23:32.629Z</time></trkpt><trkpt lat="41.7564881" lon="13.8346979"><ele>1380.0</ele><time>2026-05-01T14:23:33.624Z</time></trkpt><trkpt lat="41.7562805" lon="13.8347067"><ele>1380.0</ele><time>2026-05-01T14:23:34.618Z</time></trkpt><trkpt lat="41.756085" lon="13.8347176"><ele>1380.0</ele><time>2026-05-01T14:23:35.631Z</time></trkpt><trkpt lat="41.7558885" lon="13.8347216"><ele>1381.3333333333333</ele><time>2026-05-01T14:23:36.625Z</time></trkpt><trkpt lat="41.7556931" lon="13.8347152"><ele>1382.6666666666665</ele><time>2026-05-01T14:23:37.629Z</time></trkpt><trkpt lat="41.7554942" lon="13.834751"><ele>1384.0</ele><time>2026-05-01T14:23:38.625Z</time></trkpt><trkpt lat="41.7552997" lon="13.8348085"><ele>1388.0</ele><time>2026-05-01T14:23:39.639Z</time></trkpt><trkpt lat="41.7551266" lon="13.8348463"><ele>1392.0</ele><time>2026-05-01T14:23:40.634Z</time></trkpt><trkpt lat="41.7549793" lon="13.8349061"><ele>1396.0</ele><time>2026-05-01T14:23:41.63Z</time></trkpt><trkpt lat="41.7548631" lon="13.8349685"><ele>1396.0</ele><time>2026-05-01T14:23:42.629Z</time></trkpt><trkpt lat="41.7547751" lon="13.8350214"><ele>1396.0</ele><time>2026-05-01T14:23:43.643Z</time></trkpt><trkpt lat="41.7546962" lon="13.8350292"><ele>1396.0</ele><time>2026-05-01T14:23:44.627Z</time></trkpt><trkpt lat="41.7546374" lon="13.8349778"><ele>1396.0</ele><time>2026-05-01T14:23:45.637Z</time></trkpt><trkpt lat="41.754619" lon="13.8348934"><ele>1396.0</ele><time>2026-05-01T14:23:46.644Z</time></trkpt><trkpt lat="41.7546489" lon="13.8348093"><ele>1396.0</ele><time>2026-05-01T14:23:47.641Z</time></trkpt><trkpt lat="41.7547209" lon="13.8347653"><ele>1396.0</ele><time>2026-05-01T14:23:48.641Z</time></trkpt><trkpt lat="41.7548241" lon="13.8347506"><ele>1396.0</ele><time>2026-05-01T14:23:49.637Z</time></trkpt><trkpt lat="41.7549488" lon="13.8347469"><ele>1396.0</ele><time>2026-05-01T14:23:50.638Z</time></trkpt><trkpt lat="41.7550883" lon="13.8347082"><ele>1396.0</ele><time>2026-05-01T14:23:51.641Z</time></trkpt><trkpt lat="41.7552515" lon="13.8346417"><ele>1392.0</ele><time>2026-05-01T14:23:52.629Z</time></trkpt><trkpt lat="41.755424" lon="13.834538"><ele>1388.0</ele><time>2026-05-01T14:23:53.656Z</time></trkpt><trkpt lat="41.7556003" lon="13.8344524"><ele>1384.0</ele><time>2026-05-01T14:23:54.639Z</time></trkpt><trkpt lat="41.755763" lon="13.834401"><ele>1384.0</ele><time>2026-05-01T14:23:55.638Z</time></trkpt><trkpt lat="41.755912" lon="13.8343923"><ele>1384.0</ele><time>2026-05-01T14:23:56.64Z</time></trkpt><trkpt lat="41.7560785" lon="13.8343704"><ele>1384.0</ele><time>2026-05-01T14:23:57.639Z</time></trkpt><trkpt lat="41.7562722" lon="13.8343071"><ele>1396.0</ele><time>2026-05-01T14:23:58.631Z</time></trkpt><trkpt lat="41.7564839" lon="13.8342039"><ele>1408.0</ele><time>2026-05-01T14:23:59.629Z</time></trkpt><trkpt lat="41.7566971" lon="13.8340908"><ele>1405.3333333333333</ele><time>2026-05-01T14:24:00.628Z</time></trkpt><trkpt lat="41.7568955" lon="13.8339946"><ele>1402.6666666666667</ele><time>2026-05-01T14:24:01.629Z</time></trkpt><trkpt lat="41.7570762" lon="13.8339191"><ele>1400.0</ele><time>2026-05-01T14:24:02.64Z</time></trkpt><trkpt lat="41.7572616" lon="13.8338525"><ele>1400.0</ele><time>2026-05-01T14:24:03.639Z</time></trkpt><trkpt lat="41.7574484" lon="13.8337888"><ele>1400.0</ele><time>2026-05-01T14:24:04.639Z</time></trkpt><trkpt lat="41.757625" lon="13.8337275"><ele>1400.0</ele><time>2026-05-01T14:24:05.626Z</time></trkpt><trkpt lat="41.7577947" lon="13.8336823"><ele>1398.3333333333335</ele><time>2026-05-01T14:24:06.629Z</time></trkpt><trkpt lat="41.7579651" lon="13.8336481"><ele>1396.6666666666667</ele><time>2026-05-01T14:24:07.631Z</time></trkpt><trkpt lat="41.7581368" lon="13.8336314"><ele>1395.0</ele><time>2026-05-01T14:24:08.632Z</time></trkpt><trkpt lat="41.7582997" lon="13.8336315"><ele>1395.0</ele><time>2026-05-01T14:24:09.63Z</time></trkpt><trkpt lat="41.7584538" lon="13.8336483"><ele>1395.0</ele><time>2026-05-01T14:24:10.63Z</time></trkpt><trkpt lat="41.7585854" lon="13.8336844"><ele>1395.0</ele><time>2026-05-01T14:24:11.634Z</time></trkpt><trkpt lat="41.7587085" lon="13.8337432"><ele>1395.0</ele><time>2026-05-01T14:24:12.63Z</time></trkpt><trkpt lat="41.7588383" lon="13.8338001"><ele>1397.0</ele><time>2026-05-01T14:24:13.629Z</time></trkpt><trkpt lat="41.7589792" lon="13.8338141"><ele>1399.0</ele><time>2026-05-01T14:24:14.63Z</time></trkpt><trkpt lat="41.7591415" lon="13.8337756"><ele>1401.0</ele><time>2026-05-01T14:24:15.626Z</time></trkpt><trkpt lat="41.7593212" lon="13.8337139"><ele>1399.3333333333333</ele><time>2026-05-01T14:24:16.63Z</time></trkpt><trkpt lat="41.7595164" lon="13.8336396"><ele>1397.6666666666665</ele><time>2026-05-01T14:24:17.631Z</time></trkpt><trkpt lat="41.7597299" lon="13.8335528"><ele>1396.0</ele><time>2026-05-01T14:24:18.637Z</time></trkpt><trkpt lat="41.7599493" lon="13.8334791"><ele>1405.3333333333333</ele><time>2026-05-01T14:24:19.637Z</time></trkpt><trkpt lat="41.7601622" lon="13.8334202"><ele>1414.6666666666667</ele><time>2026-05-01T14:24:20.633Z</time></trkpt><trkpt lat="41.7603636" lon="13.8333615"><ele>1424.0</ele><time>2026-05-01T14:24:21.638Z</time></trkpt><trkpt lat="41.7605619" lon="13.8333005"><ele>1426.0</ele><time>2026-05-01T14:24:22.633Z</time></trkpt><trkpt lat="41.760763" lon="13.833257"><ele>1428.0</ele><time>2026-05-01T14:24:23.631Z</time></trkpt><trkpt lat="41.7609684" lon="13.8332425"><ele>1430.0</ele><time>2026-05-01T14:24:24.631Z</time></trkpt><trkpt lat="41.7611796" lon="13.833233"><ele>1430.6666666666667</ele><time>2026-05-01T14:24:25.626Z</time></trkpt><trkpt lat="41.7613893" lon="13.8332082"><ele>1431.3333333333333</ele><time>2026-05-01T14:24:26.639Z</time></trkpt><trkpt lat="41.7615766" lon="13.8331629"><ele>1432.0</ele><time>2026-05-01T14:24:27.633Z</time></trkpt><trkpt lat="41.7617488" lon="13.8331154"><ele>1431.3333333333333</ele><time>2026-05-01T14:24:28.633Z</time></trkpt><trkpt lat="41.761917" lon="13.8330803"><ele>1430.6666666666667</ele><time>2026-05-01T14:24:29.643Z</time></trkpt><trkpt lat="41.7620887" lon="13.8330757"><ele>1430.0</ele><time>2026-05-01T14:24:30.622Z</time></trkpt><trkpt lat="41.7622591" lon="13.8330834"><ele>1430.0</ele><time>2026-05-01T14:24:31.629Z</time></trkpt><trkpt lat="41.7624227" lon="13.8330782"><ele>1430.0</ele><time>2026-05-01T14:24:32.627Z</time></trkpt><trkpt lat="41.7625856" lon="13.8330507"><ele>1430.0</ele><time>2026-05-01T14:24:33.631Z</time></trkpt><trkpt lat="41.762744" lon="13.8330226"><ele>1430.75</ele><time>2026-05-01T14:24:34.638Z</time></trkpt><trkpt lat="41.7628919" lon="13.8330275"><ele>1431.5</ele><time>2026-05-01T14:24:35.634Z</time></trkpt><trkpt lat="41.7630199" lon="13.8330679"><ele>1432.25</ele><time>2026-05-01T14:24:36.644Z</time></trkpt><trkpt lat="41.7631449" lon="13.8331057"><ele>1433.0</ele><time>2026-05-01T14:24:37.635Z</time></trkpt><trkpt lat="41.7632828" lon="13.8331093"><ele>1433.0</ele><time>2026-05-01T14:24:38.64Z</time></trkpt><trkpt lat="41.7634289" lon="13.8330633"><ele>1433.0</ele><time>2026-05-01T14:24:39.635Z</time></trkpt><trkpt lat="41.7635791" lon="13.8330016"><ele>1433.0</ele><time>2026-05-01T14:24:40.632Z</time></trkpt><trkpt lat="41.7637332" lon="13.8329609"><ele>1433.0</ele><time>2026-05-01T14:24:41.65Z</time></trkpt><trkpt lat="41.7638867" lon="13.8329669"><ele>1433.0</ele><time>2026-05-01T14:24:42.645Z</time></trkpt><trkpt lat="41.7640179" lon="13.8330125"><ele>1433.0</ele><time>2026-05-01T14:24:43.637Z</time></trkpt><trkpt lat="41.7641379" lon="13.8330505"><ele>1433.0</ele><time>2026-05-01T14:24:44.635Z</time></trkpt><trkpt lat="41.7642648" lon="13.8330625"><ele>1434.0</ele><time>2026-05-01T14:24:45.647Z</time></trkpt><trkpt lat="41.764397" lon="13.8330394"><ele>1435.0</ele><time>2026-05-01T14:24:46.639Z</time></trkpt><trkpt lat="41.7645297" lon="13.832979"><ele>1436.0</ele><time>2026-05-01T14:24:47.634Z</time></trkpt><trkpt lat="41.7646525" lon="13.8329351"><ele>1437.0</ele><time>2026-05-01T14:24:48.64Z</time></trkpt><trkpt lat="41.7647682" lon="13.8329397"><ele>1437.0</ele><time>2026-05-01T14:24:49.634Z</time></trkpt><trkpt lat="41.7648782" lon="13.8329902"><ele>1437.0</ele><time>2026-05-01T14:24:50.643Z</time></trkpt><trkpt lat="41.7649772" lon="13.8330528"><ele>1437.0</ele><time>2026-05-01T14:24:51.638Z</time></trkpt><trkpt lat="41.7650716" lon="13.833106"><ele>1437.0</ele><time>2026-05-01T14:24:52.641Z</time></trkpt><trkpt lat="41.7651668" lon="13.8331334"><ele>1437.0</ele><time>2026-05-01T14:24:53.646Z</time></trkpt><trkpt lat="41.7652677" lon="13.8331339"><ele>1436.75</ele><time>2026-05-01T14:24:54.638Z</time></trkpt><trkpt lat="41.7653878" lon="13.8330942"><ele>1436.5</ele><time>2026-05-01T14:24:55.643Z</time></trkpt><trkpt lat="41.7655056" lon="13.83302"><ele>1436.25</ele><time>2026-05-01T14:24:56.635Z</time></trkpt><trkpt lat="41.7656118" lon="13.8329198"><ele>1436.0</ele><time>2026-05-01T14:24:57.641Z</time></trkpt><trkpt lat="41.7657023" lon="13.8328223"><ele>1436.0</ele><time>2026-05-01T14:24:58.627Z</time></trkpt><trkpt lat="41.7657958" lon="13.832746"><ele>1436.0</ele><time>2026-05-01T14:24:59.636Z</time></trkpt><trkpt lat="41.7658969" lon="13.8326898"><ele>1436.0</ele><time>2026-05-01T14:25:00.641Z</time></trkpt><trkpt lat="41.7660037" lon="13.8326456"><ele>1436.0</ele><time>2026-05-01T14:25:01.635Z</time></trkpt><trkpt lat="41.7661121" lon="13.8326186"><ele>1436.0</ele><time>2026-05-01T14:25:02.651Z</time></trkpt><trkpt lat="41.7662131" lon="13.8325986"><ele>1438.1999999999998</ele><time>2026-05-01T14:25:03.638Z</time></trkpt><trkpt lat="41.7663094" lon="13.8325827"><ele>1440.3999999999999</ele><time>2026-05-01T14:25:04.644Z</time></trkpt><trkpt lat="41.7664033" lon="13.8325872"><ele>1442.6</ele><time>2026-05-01T14:25:05.637Z</time></trkpt><trkpt lat="41.7664933" lon="13.8326262"><ele>1444.8</ele><time>2026-05-01T14:25:06.636Z</time></trkpt><trkpt lat="41.7665787" lon="13.8327091"><ele>1447.0</ele><time>2026-05-01T14:25:07.654Z</time></trkpt><trkpt lat="41.7666644" lon="13.8328149"><ele>1447.0</ele><time>2026-05-01T14:25:08.636Z</time></trkpt><trkpt lat="41.7667583" lon="13.8329229"><ele>1447.0</ele><time>2026-05-01T14:25:09.646Z</time></trkpt><trkpt lat="41.7668591" lon="13.8330034"><ele>1447.0</ele><time>2026-05-01T14:25:10.637Z</time></trkpt><trkpt lat="41.7669549" lon="13.8330653"><ele>1447.0</ele><time>2026-05-01T14:25:11.642Z</time></trkpt><trkpt lat="41.7670506" lon="13.8331111"><ele>1447.0</ele><time>2026-05-01T14:25:12.64Z</time></trkpt><trkpt lat="41.7671386" lon="13.8331618"><ele>1448.142857142857</ele><time>2026-05-01T14:25:13.629Z</time></trkpt><trkpt lat="41.7672153" lon="13.8332136"><ele>1449.2857142857144</ele><time>2026-05-01T14:25:14.635Z</time></trkpt><trkpt lat="41.767279" lon="13.833257"><ele>1450.4285714285716</ele><time>2026-05-01T14:25:15.644Z</time></trkpt><trkpt lat="41.7673435" lon="13.833307"><ele>1451.5714285714284</ele><time>2026-05-01T14:25:16.643Z</time></trkpt><trkpt lat="41.7674109" lon="13.8333463"><ele>1452.7142857142858</ele><time>2026-05-01T14:25:17.641Z</time></trkpt><trkpt lat="41.7674739" lon="13.8333635"><ele>1453.857142857143</ele><time>2026-05-01T14:25:18.642Z</time></trkpt><trkpt lat="41.7675424" lon="13.8333285"><ele>1455.0</ele><time>2026-05-01T14:25:19.641Z</time></trkpt><trkpt lat="41.767585" lon="13.8332424"><ele>1455.0</ele><time>2026-05-01T14:25:20.641Z</time></trkpt><trkpt lat="41.7675853" lon="13.8331423"><ele>1455.0</ele><time>2026-05-01T14:25:21.637Z</time></trkpt><trkpt lat="41.7675535" lon="13.8330447"><ele>1455.0</ele><time>2026-05-01T14:25:22.64Z</time></trkpt><trkpt lat="41.7674791" lon="13.8329694"><ele>1455.0</ele><time>2026-05-01T14:25:23.641Z</time></trkpt><trkpt lat="41.7673666" lon="13.8329502"><ele>1455.0</ele><time>2026-05-01T14:25:24.635Z</time></trkpt><trkpt lat="41.7672558" lon="13.8329436"><ele>1455.0</ele><time>2026-05-01T14:25:25.636Z</time></trkpt><trkpt lat="41.7671373" lon="13.8329182"><ele>1455.0</ele><time>2026-05-01T14:25:26.631Z</time></trkpt><trkpt lat="41.7670284" lon="13.8328554"><ele>1455.0</ele><time>2026-05-01T14:25:27.652Z</time></trkpt><trkpt lat="41.7669398" lon="13.8327531"><ele>1455.0</ele><time>2026-05-01T14:25:28.646Z</time></trkpt><trkpt lat="41.7668706" lon="13.832642"><ele>1458.75</ele><time>2026-05-01T14:25:29.631Z</time></trkpt><trkpt lat="41.7668029" lon="13.832519"><ele>1462.5</ele><time>2026-05-01T14:25:30.641Z</time></trkpt><trkpt lat="41.7667211" lon="13.832403"><ele>1466.25</ele><time>2026-05-01T14:25:31.633Z</time></trkpt><trkpt lat="41.7666351" lon="13.8322945"><ele>1470.0</ele><time>2026-05-01T14:25:32.633Z</time></trkpt><trkpt lat="41.7665381" lon="13.832213"><ele>1470.0</ele><time>2026-05-01T14:25:33.634Z</time></trkpt><trkpt lat="41.7664187" lon="13.8321866"><ele>1470.0</ele><time>2026-05-01T14:25:34.641Z</time></trkpt><trkpt lat="41.7662881" lon="13.8321856"><ele>1470.0</ele><time>2026-05-01T14:25:35.628Z</time></trkpt><trkpt lat="41.7661514" lon="13.8321948"><ele>1470.0</ele><time>2026-05-01T14:25:36.634Z</time></trkpt><trkpt lat="41.766013" lon="13.8322062"><ele>1470.5</ele><time>2026-05-01T14:25:37.639Z</time></trkpt><trkpt lat="41.7658826" lon="13.8322179"><ele>1471.0</ele><time>2026-05-01T14:25:38.63Z</time></trkpt><trkpt lat="41.7657601" lon="13.832251"><ele>1471.5</ele><time>2026-05-01T14:25:39.641Z</time></trkpt><trkpt lat="41.7656535" lon="13.8323173"><ele>1472.0</ele><time>2026-05-01T14:25:40.642Z</time></trkpt><trkpt lat="41.7655633" lon="13.8323976"><ele>1472.0</ele><time>2026-05-01T14:25:41.641Z</time></trkpt><trkpt lat="41.7654763" lon="13.8324605"><ele>1472.0</ele><time>2026-05-01T14:25:42.643Z</time></trkpt><trkpt lat="41.7653836" lon="13.8324963"><ele>1472.0</ele><time>2026-05-01T14:25:43.636Z</time></trkpt><trkpt lat="41.7652906" lon="13.8325035"><ele>1472.0</ele><time>2026-05-01T14:25:44.637Z</time></trkpt><trkpt lat="41.7652027" lon="13.8324468"><ele>1472.0</ele><time>2026-05-01T14:25:45.638Z</time></trkpt><trkpt lat="41.7651204" lon="13.8323592"><ele>1474.0</ele><time>2026-05-01T14:25:46.658Z</time></trkpt><trkpt lat="41.7650401" lon="13.8322666"><ele>1476.0</ele><time>2026-05-01T14:25:47.634Z</time></trkpt><trkpt lat="41.7649491" lon="13.8321892"><ele>1478.0</ele><time>2026-05-01T14:25:48.65Z</time></trkpt><trkpt lat="41.7648455" lon="13.8321138"><ele>1480.0</ele><time>2026-05-01T14:25:49.639Z</time></trkpt><trkpt lat="41.764702" lon="13.8321067"><ele>1480.0</ele><time>2026-05-01T14:25:50.643Z</time></trkpt><trkpt lat="41.7645256" lon="13.8321296"><ele>1480.0</ele><time>2026-05-01T14:25:51.64Z</time></trkpt><trkpt lat="41.7643257" lon="13.8321659"><ele>1480.0</ele><time>2026-05-01T14:25:52.639Z</time></trkpt><trkpt lat="41.7641255" lon="13.8322035"><ele>1478.5</ele><time>2026-05-01T14:25:53.644Z</time></trkpt><trkpt lat="41.7639673" lon="13.8322026"><ele>1477.0</ele><time>2026-05-01T14:25:54.647Z</time></trkpt><trkpt lat="41.7638564" lon="13.8321858"><ele>1475.5</ele><time>2026-05-01T14:25:55.648Z</time></trkpt><trkpt lat="41.7637781" lon="13.8321396"><ele>1474.0</ele><time>2026-05-01T14:25:56.643Z</time></trkpt><trkpt lat="41.76369" lon="13.83199"><ele>1478.6666666666665</ele><time>2026-05-01T14:25:57.645Z</time></trkpt><trkpt lat="41.7635969" lon="13.8318045"><ele>1483.3333333333333</ele><time>2026-05-01T14:25:58.634Z</time></trkpt><trkpt lat="41.7634876" lon="13.8316013"><ele>1488.0</ele><time>2026-05-01T14:25:59.633Z</time></trkpt><trkpt lat="41.7633795" lon="13.8314026"><ele>1488.0</ele><time>2026-05-01T14:26:00.65Z</time></trkpt><trkpt lat="41.7632903" lon="13.8312094"><ele>1488.0</ele><time>2026-05-01T14:26:01.65Z</time></trkpt><trkpt lat="41.763232" lon="13.8310255"><ele>1488.0</ele><time>2026-05-01T14:26:02.637Z</time></trkpt><trkpt lat="41.7632008" lon="13.8308519"><ele>1491.75</ele><time>2026-05-01T14:26:03.643Z</time></trkpt><trkpt lat="41.763177" lon="13.8307072"><ele>1495.5</ele><time>2026-05-01T14:26:04.646Z</time></trkpt><trkpt lat="41.7631546" lon="13.8305536"><ele>1499.25</ele><time>2026-05-01T14:26:05.639Z</time></trkpt><trkpt lat="41.7630945" lon="13.8304447"><ele>1503.0</ele><time>2026-05-01T14:26:06.628Z</time></trkpt><trkpt lat="41.7629754" lon="13.8303921"><ele>1503.0</ele><time>2026-05-01T14:26:07.632Z</time></trkpt><trkpt lat="41.7628288" lon="13.8303801"><ele>1503.0</ele><time>2026-05-01T14:26:08.644Z</time></trkpt><trkpt lat="41.7626626" lon="13.8303695"><ele>1503.0</ele><time>2026-05-01T14:26:09.642Z</time></trkpt><trkpt lat="41.7624676" lon="13.8303601"><ele>1500.0</ele><time>2026-05-01T14:26:10.645Z</time></trkpt><trkpt lat="41.7622635" lon="13.8303257"><ele>1497.0</ele><time>2026-05-01T14:26:11.637Z</time></trkpt><trkpt lat="41.7620434" lon="13.8302901"><ele>1494.0</ele><time>2026-05-01T14:26:12.635Z</time></trkpt><trkpt lat="41.7618329" lon="13.8302656"><ele>1494.0</ele><time>2026-05-01T14:26:13.629Z</time></trkpt><trkpt lat="41.7616401" lon="13.8302464"><ele>1494.0</ele><time>2026-05-01T14:26:14.64Z</time></trkpt><trkpt lat="41.761469" lon="13.8302455"><ele>1494.0</ele><time>2026-05-01T14:26:15.643Z</time></trkpt><trkpt lat="41.7613033" lon="13.8302642"><ele>1494.0</ele><time>2026-05-01T14:26:16.635Z</time></trkpt><trkpt lat="41.7611485" lon="13.8302868"><ele>1494.0</ele><time>2026-05-01T14:26:17.644Z</time></trkpt><trkpt lat="41.7610115" lon="13.8303089"><ele>1494.0</ele><time>2026-05-01T14:26:18.636Z</time></trkpt><trkpt lat="41.7608837" lon="13.8303273"><ele>1494.0</ele><time>2026-05-01T14:26:19.645Z</time></trkpt><trkpt lat="41.7607665" lon="13.8303203"><ele>1492.5</ele><time>2026-05-01T14:26:20.649Z</time></trkpt><trkpt lat="41.760659" lon="13.8302614"><ele>1491.0</ele><time>2026-05-01T14:26:21.656Z</time></trkpt><trkpt lat="41.7605803" lon="13.830141"><ele>1489.5</ele><time>2026-05-01T14:26:22.643Z</time></trkpt><trkpt lat="41.7605235" lon="13.829967"><ele>1488.0</ele><time>2026-05-01T14:26:23.646Z</time></trkpt><trkpt lat="41.7604632" lon="13.8297735"><ele>1492.0</ele><time>2026-05-01T14:26:24.635Z</time></trkpt><trkpt lat="41.7603722" lon="13.8295847"><ele>1496.0</ele><time>2026-05-01T14:26:25.638Z</time></trkpt><trkpt lat="41.7602609" lon="13.8293885"><ele>1500.0</ele><time>2026-05-01T14:26:26.628Z</time></trkpt><trkpt lat="41.7601378" lon="13.8291855"><ele>1500.0</ele><time>2026-05-01T14:26:27.644Z</time></trkpt><trkpt lat="41.7600183" lon="13.8289625"><ele>1500.0</ele><time>2026-05-01T14:26:28.633Z</time></trkpt><trkpt lat="41.7599231" lon="13.8287344"><ele>1500.0</ele><time>2026-05-01T14:26:29.634Z</time></trkpt><trkpt lat="41.7598455" lon="13.8285206"><ele>1504.75</ele><time>2026-05-01T14:26:30.631Z</time></trkpt><trkpt lat="41.7597704" lon="13.8283333"><ele>1509.5</ele><time>2026-05-01T14:26:31.645Z</time></trkpt><trkpt lat="41.7597002" lon="13.8281834"><ele>1514.25</ele><time>2026-05-01T14:26:32.635Z</time></trkpt><trkpt lat="41.7596197" lon="13.8280583"><ele>1519.0</ele><time>2026-05-01T14:26:33.631Z</time></trkpt><trkpt lat="41.7595236" lon="13.8279326"><ele>1519.0</ele><time>2026-05-01T14:26:34.623Z</time></trkpt><trkpt lat="41.7594075" lon="13.8278202"><ele>1519.0</ele><time>2026-05-01T14:26:35.635Z</time></trkpt><trkpt lat="41.7592652" lon="13.8277312"><ele>1519.0</ele><time>2026-05-01T14:26:36.641Z</time></trkpt><trkpt lat="41.759109" lon="13.8276616"><ele>1517.0</ele><time>2026-05-01T14:26:37.628Z</time></trkpt><trkpt lat="41.7589615" lon="13.8275928"><ele>1515.0</ele><time>2026-05-01T14:26:38.657Z</time></trkpt><trkpt lat="41.7588235" lon="13.8275368"><ele>1513.0</ele><time>2026-05-01T14:26:39.632Z</time></trkpt><trkpt lat="41.7587022" lon="13.8274927"><ele>1511.0</ele><time>2026-05-01T14:26:40.63Z</time></trkpt><trkpt lat="41.7585971" lon="13.8274517"><ele>1515.0</ele><time>2026-05-01T14:26:41.632Z</time></trkpt><trkpt lat="41.7585188" lon="13.8274025"><ele>1519.0</ele><time>2026-05-01T14:26:42.636Z</time></trkpt><trkpt lat="41.7584717" lon="13.8272878"><ele>1523.0</ele><time>2026-05-01T14:26:43.663Z</time></trkpt><trkpt lat="41.7584591" lon="13.827165"><ele>1527.0</ele><time>2026-05-01T14:26:44.634Z</time></trkpt><trkpt lat="41.7584619" lon="13.8270267"><ele>1531.0</ele><time>2026-05-01T14:26:45.637Z</time></trkpt><trkpt lat="41.7584777" lon="13.826853"><ele>1529.5</ele><time>2026-05-01T14:26:46.64Z</time></trkpt><trkpt lat="41.7584425" lon="13.8266949"><ele>1528.0</ele><time>2026-05-01T14:26:47.641Z</time></trkpt><trkpt lat="41.7583953" lon="13.8265384"><ele>1526.5</ele><time>2026-05-01T14:26:48.636Z</time></trkpt><trkpt lat="41.758345" lon="13.8263633"><ele>1525.0</ele><time>2026-05-01T14:26:49.645Z</time></trkpt><trkpt lat="41.7582706" lon="13.8262052"><ele>1523.6666666666665</ele><time>2026-05-01T14:26:50.637Z</time></trkpt><trkpt lat="41.7582272" lon="13.8259774"><ele>1522.3333333333333</ele><time>2026-05-01T14:26:51.637Z</time></trkpt><trkpt lat="41.7581795" lon="13.825726"><ele>1521.0</ele><time>2026-05-01T14:26:52.63Z</time></trkpt><trkpt lat="41.7581072" lon="13.8254853"><ele>1521.0</ele><time>2026-05-01T14:26:53.635Z</time></trkpt><trkpt lat="41.7580529" lon="13.8252633"><ele>1521.0</ele><time>2026-05-01T14:26:54.638Z</time></trkpt><trkpt lat="41.758005" lon="13.8250723"><ele>1521.0</ele><time>2026-05-01T14:26:55.635Z</time></trkpt><trkpt lat="41.7579684" lon="13.8249314"><ele>1521.0</ele><time>2026-05-01T14:26:56.64Z</time></trkpt><trkpt lat="41.7579219" lon="13.8248502"><ele>1519.8333333333333</ele><time>2026-05-01T14:26:57.632Z</time></trkpt><trkpt lat="41.7578581" lon="13.8248066"><ele>1518.6666666666667</ele><time>2026-05-01T14:26:58.637Z</time></trkpt><trkpt lat="41.7577719" lon="13.8247901"><ele>1517.5</ele><time>2026-05-01T14:26:59.632Z</time></trkpt><trkpt lat="41.7576899" lon="13.8247904"><ele>1516.3333333333335</ele><time>2026-05-01T14:27:00.63Z</time></trkpt><trkpt lat="41.7576138" lon="13.8247715"><ele>1515.1666666666667</ele><time>2026-05-01T14:27:01.628Z</time></trkpt><trkpt lat="41.7575549" lon="13.8247238"><ele>1514.0</ele><time>2026-05-01T14:27:02.633Z</time></trkpt><trkpt lat="41.757516" lon="13.824647"><ele>1513.5</ele><time>2026-05-01T14:27:03.646Z</time></trkpt><trkpt lat="41.7575043" lon="13.8245539"><ele>1513.0</ele><time>2026-05-01T14:27:04.634Z</time></trkpt><trkpt lat="41.7575217" lon="13.8244575"><ele>1512.5</ele><time>2026-05-01T14:27:05.632Z</time></trkpt><trkpt lat="41.7575469" lon="13.8243738"><ele>1512.0</ele><time>2026-05-01T14:27:06.631Z</time></trkpt><trkpt lat="41.7575878" lon="13.8242764"><ele>1511.5</ele><time>2026-05-01T14:27:07.627Z</time></trkpt><trkpt lat="41.7576411" lon="13.8241776"><ele>1511.0</ele><time>2026-05-01T14:27:08.639Z</time></trkpt><trkpt lat="41.757705" lon="13.8240953"><ele>1511.0</ele><time>2026-05-01T14:27:09.635Z</time></trkpt><trkpt lat="41.757774" lon="13.8240128"><ele>1511.0</ele><time>2026-05-01T14:27:10.64Z</time></trkpt><trkpt lat="41.757837" lon="13.8239216"><ele>1511.0</ele><time>2026-05-01T14:27:11.635Z</time></trkpt><trkpt lat="41.7578833" lon="13.8238051"><ele>1511.0</ele><time>2026-05-01T14:27:12.639Z</time></trkpt><trkpt lat="41.7578981" lon="13.8236751"><ele>1511.0</ele><time>2026-05-01T14:27:13.643Z</time></trkpt><trkpt lat="41.7578943" lon="13.8235108"><ele>1511.5</ele><time>2026-05-01T14:27:14.623Z</time></trkpt><trkpt lat="41.7579032" lon="13.8233528"><ele>1512.0</ele><time>2026-05-01T14:27:15.63Z</time></trkpt><trkpt lat="41.7579066" lon="13.8231705"><ele>1512.5</ele><time>2026-05-01T14:27:16.638Z</time></trkpt><trkpt lat="41.7579094" lon="13.8229474"><ele>1513.0</ele><time>2026-05-01T14:27:17.638Z</time></trkpt><trkpt lat="41.7579011" lon="13.8227088"><ele>1514.0</ele><time>2026-05-01T14:27:18.638Z</time></trkpt><trkpt lat="41.757931" lon="13.8224791"><ele>1515.0</ele><time>2026-05-01T14:27:19.657Z</time></trkpt><trkpt lat="41.7579593" lon="13.8222656"><ele>1516.0</ele><time>2026-05-01T14:27:20.635Z</time></trkpt><trkpt lat="41.7579723" lon="13.8220774"><ele>1516.0</ele><time>2026-05-01T14:27:21.63Z</time></trkpt><trkpt lat="41.7579418" lon="13.8219392"><ele>1516.0</ele><time>2026-05-01T14:27:22.631Z</time></trkpt><trkpt lat="41.7578864" lon="13.821839"><ele>1516.0</ele><time>2026-05-01T14:27:23.645Z</time></trkpt><trkpt lat="41.757793" lon="13.8218054"><ele>1516.0</ele><time>2026-05-01T14:27:24.643Z</time></trkpt><trkpt lat="41.7576871" lon="13.8218323"><ele>1516.0</ele><time>2026-05-01T14:27:25.651Z</time></trkpt><trkpt lat="41.7575749" lon="13.8219112"><ele>1520.5</ele><time>2026-05-01T14:27:26.632Z</time></trkpt><trkpt lat="41.7574893" lon="13.8220281"><ele>1525.0</ele><time>2026-05-01T14:27:27.636Z</time></trkpt><trkpt lat="41.7573913" lon="13.8221185"><ele>1529.5</ele><time>2026-05-01T14:27:28.639Z</time></trkpt><trkpt lat="41.7572864" lon="13.8221769"><ele>1534.0</ele><time>2026-05-01T14:27:29.635Z</time></trkpt><trkpt lat="41.7571661" lon="13.8221775"><ele>1534.0</ele><time>2026-05-01T14:27:30.625Z</time></trkpt><trkpt lat="41.7570601" lon="13.8221281"><ele>1534.0</ele><time>2026-05-01T14:27:31.641Z</time></trkpt><trkpt lat="41.7569579" lon="13.8220473"><ele>1534.0</ele><time>2026-05-01T14:27:32.637Z</time></trkpt><trkpt lat="41.7568733" lon="13.8219703"><ele>1534.0</ele><time>2026-05-01T14:27:33.621Z</time></trkpt><trkpt lat="41.756816" lon="13.821886"><ele>1534.0</ele><time>2026-05-01T14:27:34.637Z</time></trkpt><trkpt lat="41.7567431" lon="13.8217685"><ele>1535.0</ele><time>2026-05-01T14:27:35.623Z</time></trkpt><trkpt lat="41.7566689" lon="13.8216511"><ele>1536.0</ele><time>2026-05-01T14:27:36.641Z</time></trkpt><trkpt lat="41.756587" lon="13.8215497"><ele>1537.0</ele><time>2026-05-01T14:27:37.634Z</time></trkpt><trkpt lat="41.7565178" lon="13.8214358"><ele>1538.0</ele><time>2026-05-01T14:27:38.627Z</time></trkpt><trkpt lat="41.7564591" lon="13.8212925"><ele>1538.0</ele><time>2026-05-01T14:27:39.637Z</time></trkpt><trkpt lat="41.7564167" lon="13.8211467"><ele>1538.0</ele><time>2026-05-01T14:27:40.641Z</time></trkpt><trkpt lat="41.7564102" lon="13.8210197"><ele>1538.0</ele><time>2026-05-01T14:27:41.643Z</time></trkpt><trkpt lat="41.7563968" lon="13.820915"><ele>1538.0</ele><time>2026-05-01T14:27:42.633Z</time></trkpt><trkpt lat="41.7563667" lon="13.8208129"><ele>1538.0</ele><time>2026-05-01T14:27:43.635Z</time></trkpt><trkpt lat="41.7563033" lon="13.8207485"><ele>1538.4</ele><time>2026-05-01T14:27:44.641Z</time></trkpt><trkpt lat="41.7562228" lon="13.8207181"><ele>1538.8000000000002</ele><time>2026-05-01T14:27:45.641Z</time></trkpt><trkpt lat="41.7561254" lon="13.8206984"><ele>1539.2</ele><time>2026-05-01T14:27:46.644Z</time></trkpt><trkpt lat="41.7560478" lon="13.8206617"><ele>1539.6</ele><time>2026-05-01T14:27:47.636Z</time></trkpt><trkpt lat="41.7559935" lon="13.8206084"><ele>1540.0</ele><time>2026-05-01T14:27:48.638Z</time></trkpt><trkpt lat="41.7559319" lon="13.8204586"><ele>1540.0</ele><time>2026-05-01T14:27:50.639Z</time></trkpt><trkpt lat="41.7558782" lon="13.8203609"><ele>1540.0</ele><time>2026-05-01T14:27:51.637Z</time></trkpt><trkpt lat="41.7557966" lon="13.8202703"><ele>1540.0</ele><time>2026-05-01T14:27:52.628Z</time></trkpt><trkpt lat="41.7557017" lon="13.8201894"><ele>1540.0</ele><time>2026-05-01T14:27:53.645Z</time></trkpt><trkpt lat="41.7555966" lon="13.8201394"><ele>1540.0</ele><time>2026-05-01T14:27:54.63Z</time></trkpt><trkpt lat="41.7554751" lon="13.8201133"><ele>1540.0</ele><time>2026-05-01T14:27:55.641Z</time></trkpt><trkpt lat="41.7553598" lon="13.8201255"><ele>1540.0</ele><time>2026-05-01T14:27:56.641Z</time></trkpt><trkpt lat="41.7552484" lon="13.8201682"><ele>1540.0</ele><time>2026-05-01T14:27:57.641Z</time></trkpt><trkpt lat="41.7551427" lon="13.8202143"><ele>1540.0</ele><time>2026-05-01T14:27:58.645Z</time></trkpt><trkpt lat="41.7550357" lon="13.8202359"><ele>1541.75</ele><time>2026-05-01T14:27:59.637Z</time></trkpt><trkpt lat="41.7549133" lon="13.8202204"><ele>1543.5</ele><time>2026-05-01T14:28:00.631Z</time></trkpt><trkpt lat="41.7547965" lon="13.8201707"><ele>1545.25</ele><time>2026-05-01T14:28:01.633Z</time></trkpt><trkpt lat="41.7546749" lon="13.8200912"><ele>1547.0</ele><time>2026-05-01T14:28:02.635Z</time></trkpt><trkpt lat="41.7545431" lon="13.8199791"><ele>1549.6666666666665</ele><time>2026-05-01T14:28:03.658Z</time></trkpt><trkpt lat="41.7544135" lon="13.8198286"><ele>1552.3333333333335</ele><time>2026-05-01T14:28:04.641Z</time></trkpt><trkpt lat="41.7542887" lon="13.8196853"><ele>1555.0</ele><time>2026-05-01T14:28:05.634Z</time></trkpt><trkpt lat="41.7541638" lon="13.8195584"><ele>1555.0</ele><time>2026-05-01T14:28:06.632Z</time></trkpt><trkpt lat="41.754058" lon="13.8194554"><ele>1555.0</ele><time>2026-05-01T14:28:07.635Z</time></trkpt><trkpt lat="41.7539652" lon="13.8193558"><ele>1555.0</ele><time>2026-05-01T14:28:08.634Z</time></trkpt><trkpt lat="41.7539067" lon="13.8192515"><ele>1555.0</ele><time>2026-05-01T14:28:09.634Z</time></trkpt><trkpt lat="41.7538635" lon="13.819132"><ele>1555.0</ele><time>2026-05-01T14:28:10.639Z</time></trkpt><trkpt lat="41.7538377" lon="13.8190208"><ele>1550.8</ele><time>2026-05-01T14:28:11.643Z</time></trkpt><trkpt lat="41.7538227" lon="13.8189055"><ele>1546.6</ele><time>2026-05-01T14:28:12.648Z</time></trkpt><trkpt lat="41.753783" lon="13.8188144"><ele>1542.4</ele><time>2026-05-01T14:28:13.643Z</time></trkpt><trkpt lat="41.7537196" lon="13.8187336"><ele>1538.2</ele><time>2026-05-01T14:28:14.637Z</time></trkpt><trkpt lat="41.7536309" lon="13.8186656"><ele>1534.0</ele><time>2026-05-01T14:28:15.633Z</time></trkpt><trkpt lat="41.7535421" lon="13.8186089"><ele>1534.4</ele><time>2026-05-01T14:28:16.633Z</time></trkpt><trkpt lat="41.7534459" lon="13.8185498"><ele>1534.8000000000002</ele><time>2026-05-01T14:28:17.625Z</time></trkpt><trkpt lat="41.7533429" lon="13.8185033"><ele>1535.1999999999998</ele><time>2026-05-01T14:28:18.638Z</time></trkpt><trkpt lat="41.7532411" lon="13.8184447"><ele>1535.6</ele><time>2026-05-01T14:28:19.64Z</time></trkpt><trkpt lat="41.7531447" lon="13.8183725"><ele>1536.0</ele><time>2026-05-01T14:28:20.64Z</time></trkpt><trkpt lat="41.753059" lon="13.8182926"><ele>1536.0</ele><time>2026-05-01T14:28:21.636Z</time></trkpt><trkpt lat="41.7530029" lon="13.8182024"><ele>1536.0</ele><time>2026-05-01T14:28:22.627Z</time></trkpt><trkpt lat="41.7529544" lon="13.8181083"><ele>1536.0</ele><time>2026-05-01T14:28:23.637Z</time></trkpt><trkpt lat="41.7529087" lon="13.8180223"><ele>1536.0</ele><time>2026-05-01T14:28:24.641Z</time></trkpt><trkpt lat="41.7528507" lon="13.8179446"><ele>1536.0</ele><time>2026-05-01T14:28:25.63Z</time></trkpt><trkpt lat="41.7527869" lon="13.817882"><ele>1536.0</ele><time>2026-05-01T14:28:26.65Z</time></trkpt><trkpt lat="41.7527118" lon="13.8178326"><ele>1535.8</ele><time>2026-05-01T14:28:27.644Z</time></trkpt><trkpt lat="41.752616" lon="13.8177992"><ele>1535.6</ele><time>2026-05-01T14:28:28.646Z</time></trkpt><trkpt lat="41.7525309" lon="13.8177251"><ele>1535.4</ele><time>2026-05-01T14:28:29.634Z</time></trkpt><trkpt lat="41.7524539" lon="13.8176016"><ele>1535.2</ele><time>2026-05-01T14:28:30.637Z</time></trkpt><trkpt lat="41.752398" lon="13.8174694"><ele>1535.0</ele><time>2026-05-01T14:28:31.634Z</time></trkpt><trkpt lat="41.7523439" lon="13.8173275"><ele>1535.0</ele><time>2026-05-01T14:28:32.642Z</time></trkpt><trkpt lat="41.7522828" lon="13.8171811"><ele>1535.0</ele><time>2026-05-01T14:28:33.642Z</time></trkpt><trkpt lat="41.7521818" lon="13.8170142"><ele>1535.0</ele><time>2026-05-01T14:28:34.667Z</time></trkpt><trkpt lat="41.7520795" lon="13.8168395"><ele>1533.25</ele><time>2026-05-01T14:28:35.636Z</time></trkpt><trkpt lat="41.751992" lon="13.816683"><ele>1531.5</ele><time>2026-05-01T14:28:36.637Z</time></trkpt><trkpt lat="41.7519196" lon="13.8165547"><ele>1529.75</ele><time>2026-05-01T14:28:37.639Z</time></trkpt><trkpt lat="41.7518757" lon="13.8164173"><ele>1528.0</ele><time>2026-05-01T14:28:38.642Z</time></trkpt><trkpt lat="41.7518632" lon="13.8162587"><ele>1529.8000000000002</ele><time>2026-05-01T14:28:39.625Z</time></trkpt><trkpt lat="41.7518606" lon="13.8161303"><ele>1531.6</ele><time>2026-05-01T14:28:40.641Z</time></trkpt><trkpt lat="41.7518565" lon="13.8160304"><ele>1533.4</ele><time>2026-05-01T14:28:41.642Z</time></trkpt><trkpt lat="41.7518221" lon="13.8158847"><ele>1535.1999999999998</ele><time>2026-05-01T14:28:43.633Z</time></trkpt><trkpt lat="41.7517688" lon="13.8157574"><ele>1537.0</ele><time>2026-05-01T14:28:45.644Z</time></trkpt><trkpt lat="41.7516329" lon="13.8156742"><ele>1537.0</ele><time>2026-05-01T14:28:47.652Z</time></trkpt><trkpt lat="41.7515083" lon="13.8156267"><ele>1537.0</ele><time>2026-05-01T14:28:48.636Z</time></trkpt><trkpt lat="41.7513529" lon="13.8155677"><ele>1537.0</ele><time>2026-05-01T14:28:49.636Z</time></trkpt><trkpt lat="41.7511711" lon="13.8155141"><ele>1540.3333333333335</ele><time>2026-05-01T14:28:50.643Z</time></trkpt><trkpt lat="41.7510011" lon="13.8154497"><ele>1543.6666666666665</ele><time>2026-05-01T14:28:51.644Z</time></trkpt><trkpt lat="41.7508498" lon="13.8153729"><ele>1547.0</ele><time>2026-05-01T14:28:52.638Z</time></trkpt><trkpt lat="41.7507195" lon="13.8152923"><ele>1547.0</ele><time>2026-05-01T14:28:53.653Z</time></trkpt><trkpt lat="41.7505966" lon="13.8152262"><ele>1547.0</ele><time>2026-05-01T14:28:54.638Z</time></trkpt><trkpt lat="41.7504661" lon="13.8151953"><ele>1547.0</ele><time>2026-05-01T14:28:55.646Z</time></trkpt><trkpt lat="41.750317" lon="13.8151965"><ele>1547.0</ele><time>2026-05-01T14:28:56.642Z</time></trkpt><trkpt lat="41.7501634" lon="13.8152105"><ele>1548.0</ele><time>2026-05-01T14:28:57.649Z</time></trkpt><trkpt lat="41.7500105" lon="13.8152023"><ele>1549.0</ele><time>2026-05-01T14:28:58.64Z</time></trkpt><trkpt lat="41.7498507" lon="13.8151426"><ele>1550.0</ele><time>2026-05-01T14:28:59.631Z</time></trkpt><trkpt lat="41.7496991" lon="13.8150349"><ele>1543.3333333333333</ele><time>2026-05-01T14:29:00.64Z</time></trkpt><trkpt lat="41.7495358" lon="13.81487"><ele>1536.6666666666665</ele><time>2026-05-01T14:29:01.629Z</time></trkpt><trkpt lat="41.749378" lon="13.8146935"><ele>1530.0</ele><time>2026-05-01T14:29:02.649Z</time></trkpt><trkpt lat="41.7492368" lon="13.814547"><ele>1530.0</ele><time>2026-05-01T14:29:03.63Z</time></trkpt><trkpt lat="41.7491248" lon="13.8144251"><ele>1530.0</ele><time>2026-05-01T14:29:04.635Z</time></trkpt><trkpt lat="41.7490366" lon="13.8143269"><ele>1530.0</ele><time>2026-05-01T14:29:05.639Z</time></trkpt><trkpt lat="41.7489621" lon="13.8142583"><ele>1530.0</ele><time>2026-05-01T14:29:06.633Z</time></trkpt><trkpt lat="41.7488813" lon="13.8142528"><ele>1530.0</ele><time>2026-05-01T14:29:07.636Z</time></trkpt><trkpt lat="41.7487769" lon="13.8143112"><ele>1530.0</ele><time>2026-05-01T14:29:08.628Z</time></trkpt><trkpt lat="41.7486586" lon="13.8144212"><ele>1530.0</ele><time>2026-05-01T14:29:09.645Z</time></trkpt><trkpt lat="41.7485391" lon="13.8145327"><ele>1530.0</ele><time>2026-05-01T14:29:10.634Z</time></trkpt><trkpt lat="41.7484272" lon="13.8146307"><ele>1530.0</ele><time>2026-05-01T14:29:11.634Z</time></trkpt><trkpt lat="41.7483133" lon="13.8147082"><ele>1528.0</ele><time>2026-05-01T14:29:12.642Z</time></trkpt><trkpt lat="41.7481876" lon="13.8147739"><ele>1526.0</ele><time>2026-05-01T14:29:13.63Z</time></trkpt><trkpt lat="41.7480333" lon="13.8147728"><ele>1524.0</ele><time>2026-05-01T14:29:14.634Z</time></trkpt><trkpt lat="41.7478613" lon="13.8147229"><ele>1525.0</ele><time>2026-05-01T14:29:15.629Z</time></trkpt><trkpt lat="41.7476981" lon="13.8146674"><ele>1526.0</ele><time>2026-05-01T14:29:16.63Z</time></trkpt><trkpt lat="41.7475441" lon="13.814609"><ele>1527.0</ele><time>2026-05-01T14:29:17.631Z</time></trkpt><trkpt lat="41.7473995" lon="13.8145557"><ele>1527.0</ele><time>2026-05-01T14:29:18.631Z</time></trkpt><trkpt lat="41.7472596" lon="13.8144869"><ele>1527.0</ele><time>2026-05-01T14:29:19.642Z</time></trkpt><trkpt lat="41.7471277" lon="13.8143911"><ele>1527.0</ele><time>2026-05-01T14:29:20.629Z</time></trkpt><trkpt lat="41.7470114" lon="13.8142745"><ele>1527.0</ele><time>2026-05-01T14:29:21.634Z</time></trkpt><trkpt lat="41.7469108" lon="13.8141481"><ele>1525.0</ele><time>2026-05-01T14:29:22.629Z</time></trkpt><trkpt lat="41.7468159" lon="13.8140149"><ele>1523.0</ele><time>2026-05-01T14:29:23.637Z</time></trkpt><trkpt lat="41.7467364" lon="13.8138752"><ele>1521.0</ele><time>2026-05-01T14:29:24.631Z</time></trkpt><trkpt lat="41.7466608" lon="13.813734"><ele>1519.0</ele><time>2026-05-01T14:29:25.635Z</time></trkpt><trkpt lat="41.7465846" lon="13.8136089"><ele>1519.0</ele><time>2026-05-01T14:29:26.653Z</time></trkpt><trkpt lat="41.7464803" lon="13.8135103"><ele>1519.0</ele><time>2026-05-01T14:29:27.644Z</time></trkpt><trkpt lat="41.7463395" lon="13.8134476"><ele>1519.0</ele><time>2026-05-01T14:29:28.639Z</time></trkpt><trkpt lat="41.7461721" lon="13.8134145"><ele>1519.0</ele><time>2026-05-01T14:29:29.641Z</time></trkpt><trkpt lat="41.7459774" lon="13.8133918"><ele>1511.6666666666665</ele><time>2026-05-01T14:29:30.642Z</time></trkpt><trkpt lat="41.7457697" lon="13.8133505"><ele>1504.3333333333333</ele><time>2026-05-01T14:29:31.643Z</time></trkpt><trkpt lat="41.7455803" lon="13.8133172"><ele>1497.0</ele><time>2026-05-01T14:29:32.654Z</time></trkpt><trkpt lat="41.7454118" lon="13.8132858"><ele>1497.0</ele><time>2026-05-01T14:29:33.646Z</time></trkpt><trkpt lat="41.7452676" lon="13.813256"><ele>1497.0</ele><time>2026-05-01T14:29:34.631Z</time></trkpt><trkpt lat="41.7451318" lon="13.8132284"><ele>1497.0</ele><time>2026-05-01T14:29:35.647Z</time></trkpt><trkpt lat="41.7450016" lon="13.8131882"><ele>1497.0</ele><time>2026-05-01T14:29:36.64Z</time></trkpt><trkpt lat="41.7448804" lon="13.8131558"><ele>1498.25</ele><time>2026-05-01T14:29:37.638Z</time></trkpt><trkpt lat="41.7447675" lon="13.8131085"><ele>1499.5</ele><time>2026-05-01T14:29:38.663Z</time></trkpt><trkpt lat="41.7446591" lon="13.8130454"><ele>1500.75</ele><time>2026-05-01T14:29:39.636Z</time></trkpt><trkpt lat="41.7445541" lon="13.8129568"><ele>1502.0</ele><time>2026-05-01T14:29:40.644Z</time></trkpt><trkpt lat="41.7444636" lon="13.8128779"><ele>1502.0</ele><time>2026-05-01T14:29:41.637Z</time></trkpt><trkpt lat="41.7443778" lon="13.8128128"><ele>1502.0</ele><time>2026-05-01T14:29:42.638Z</time></trkpt><trkpt lat="41.7442745" lon="13.8127852"><ele>1502.0</ele><time>2026-05-01T14:29:43.642Z</time></trkpt><trkpt lat="41.7441566" lon="13.8128037"><ele>1502.0</ele><time>2026-05-01T14:29:44.628Z</time></trkpt><trkpt lat="41.7440477" lon="13.8128553"><ele>1502.0</ele><time>2026-05-01T14:29:45.636Z</time></trkpt><trkpt lat="41.7439448" lon="13.8129316"><ele>1502.0</ele><time>2026-05-01T14:29:46.636Z</time></trkpt><trkpt lat="41.7438467" lon="13.8130307"><ele>1502.0</ele><time>2026-05-01T14:29:47.649Z</time></trkpt><trkpt lat="41.7437483" lon="13.8131402"><ele>1502.0</ele><time>2026-05-01T14:29:48.634Z</time></trkpt><trkpt lat="41.7436539" lon="13.8132401"><ele>1502.0</ele><time>2026-05-01T14:29:49.631Z</time></trkpt><trkpt lat="41.7435531" lon="13.8133145"><ele>1499.0</ele><time>2026-05-01T14:29:50.632Z</time></trkpt><trkpt lat="41.7434466" lon="13.8133486"><ele>1496.0</ele><time>2026-05-01T14:29:51.636Z</time></trkpt><trkpt lat="41.7433416" lon="13.8133304"><ele>1493.0</ele><time>2026-05-01T14:29:52.642Z</time></trkpt><trkpt lat="41.7432406" lon="13.8132888"><ele>1490.0</ele><time>2026-05-01T14:29:53.652Z</time></trkpt><trkpt lat="41.7431337" lon="13.8132442"><ele>1487.0</ele><time>2026-05-01T14:29:54.629Z</time></trkpt><trkpt lat="41.7430225" lon="13.8132285"><ele>1487.0</ele><time>2026-05-01T14:29:55.634Z</time></trkpt><trkpt lat="41.7429041" lon="13.8132372"><ele>1487.0</ele><time>2026-05-01T14:29:56.641Z</time></trkpt><trkpt lat="41.7427827" lon="13.8132714"><ele>1487.0</ele><time>2026-05-01T14:29:57.647Z</time></trkpt><trkpt lat="41.7426607" lon="13.8133351"><ele>1487.0</ele><time>2026-05-01T14:29:58.632Z</time></trkpt><trkpt lat="41.7425185" lon="13.8134463"><ele>1491.6666666666667</ele><time>2026-05-01T14:29:59.635Z</time></trkpt><trkpt lat="41.7423445" lon="13.8135813"><ele>1496.3333333333333</ele><time>2026-05-01T14:30:00.64Z</time></trkpt><trkpt lat="41.7421616" lon="13.8137008"><ele>1501.0</ele><time>2026-05-01T14:30:01.641Z</time></trkpt><trkpt lat="41.7420099" lon="13.813827"><ele>1494.0</ele><time>2026-05-01T14:30:02.637Z</time></trkpt><trkpt lat="41.7418613" lon="13.8139308"><ele>1487.0</ele><time>2026-05-01T14:30:03.638Z</time></trkpt><trkpt lat="41.7417145" lon="13.8140005"><ele>1480.0</ele><time>2026-05-01T14:30:04.634Z</time></trkpt><trkpt lat="41.74158" lon="13.814052"><ele>1480.0</ele><time>2026-05-01T14:30:05.636Z</time></trkpt><trkpt lat="41.7414481" lon="13.8140901"><ele>1480.0</ele><time>2026-05-01T14:30:06.635Z</time></trkpt><trkpt lat="41.7413163" lon="13.8141092"><ele>1480.0</ele><time>2026-05-01T14:30:07.631Z</time></trkpt><trkpt lat="41.7411936" lon="13.8141091"><ele>1480.0</ele><time>2026-05-01T14:30:08.64Z</time></trkpt><trkpt lat="41.7410709" lon="13.8140874"><ele>1476.5</ele><time>2026-05-01T14:30:09.633Z</time></trkpt><trkpt lat="41.7409537" lon="13.8140604"><ele>1473.0</ele><time>2026-05-01T14:30:10.646Z</time></trkpt><trkpt lat="41.7408417" lon="13.8140511"><ele>1469.5</ele><time>2026-05-01T14:30:11.639Z</time></trkpt><trkpt lat="41.7407205" lon="13.8140717"><ele>1466.0</ele><time>2026-05-01T14:30:12.644Z</time></trkpt><trkpt lat="41.7405923" lon="13.8140909"><ele>1466.0</ele><time>2026-05-01T14:30:13.658Z</time></trkpt><trkpt lat="41.7404659" lon="13.8141287"><ele>1466.0</ele><time>2026-05-01T14:30:14.642Z</time></trkpt><trkpt lat="41.7403361" lon="13.8141984"><ele>1466.0</ele><time>2026-05-01T14:30:15.644Z</time></trkpt><trkpt lat="41.7402061" lon="13.8143238"><ele>1466.0</ele><time>2026-05-01T14:30:16.645Z</time></trkpt><trkpt lat="41.7400736" lon="13.8144776"><ele>1469.6666666666667</ele><time>2026-05-01T14:30:17.636Z</time></trkpt><trkpt lat="41.7399347" lon="13.8146016"><ele>1473.3333333333333</ele><time>2026-05-01T14:30:18.639Z</time></trkpt><trkpt lat="41.7397889" lon="13.8146662"><ele>1477.0</ele><time>2026-05-01T14:30:19.641Z</time></trkpt><trkpt lat="41.7396405" lon="13.814706"><ele>1477.0</ele><time>2026-05-01T14:30:20.637Z</time></trkpt><trkpt lat="41.7395096" lon="13.8147423"><ele>1477.0</ele><time>2026-05-01T14:30:21.647Z</time></trkpt><trkpt lat="41.7393834" lon="13.814805"><ele>1477.0</ele><time>2026-05-01T14:30:22.639Z</time></trkpt><trkpt lat="41.7392638" lon="13.8148727"><ele>1477.0</ele><time>2026-05-01T14:30:23.647Z</time></trkpt><trkpt lat="41.7391454" lon="13.8149188"><ele>1473.0</ele><time>2026-05-01T14:30:24.642Z</time></trkpt><trkpt lat="41.7390144" lon="13.8149348"><ele>1469.0</ele><time>2026-05-01T14:30:25.633Z</time></trkpt><trkpt lat="41.738881" lon="13.814913"><ele>1465.0</ele><time>2026-05-01T14:30:26.64Z</time></trkpt><trkpt lat="41.7387574" lon="13.8148668"><ele>1461.0</ele><time>2026-05-01T14:30:27.645Z</time></trkpt><trkpt lat="41.7386438" lon="13.8148104"><ele>1458.75</ele><time>2026-05-01T14:30:28.652Z</time></trkpt><trkpt lat="41.7385235" lon="13.8147877"><ele>1456.5</ele><time>2026-05-01T14:30:29.645Z</time></trkpt><trkpt lat="41.7383896" lon="13.8148112"><ele>1454.25</ele><time>2026-05-01T14:30:30.635Z</time></trkpt><trkpt lat="41.738245" lon="13.814873"><ele>1452.0</ele><time>2026-05-01T14:30:31.644Z</time></trkpt><trkpt lat="41.7381108" lon="13.8149324"><ele>1452.0</ele><time>2026-05-01T14:30:32.647Z</time></trkpt><trkpt lat="41.7379894" lon="13.8149787"><ele>1452.0</ele><time>2026-05-01T14:30:33.662Z</time></trkpt><trkpt lat="41.7378735" lon="13.8150145"><ele>1452.0</ele><time>2026-05-01T14:30:34.64Z</time></trkpt><trkpt lat="41.7377598" lon="13.8150438"><ele>1452.0</ele><time>2026-05-01T14:30:35.641Z</time></trkpt><trkpt lat="41.7376492" lon="13.8150997"><ele>1456.6666666666667</ele><time>2026-05-01T14:30:36.643Z</time></trkpt><trkpt lat="41.7375327" lon="13.8152042"><ele>1461.3333333333335</ele><time>2026-05-01T14:30:37.649Z</time></trkpt><trkpt lat="41.7374166" lon="13.8153579"><ele>1466.0</ele><time>2026-05-01T14:30:38.639Z</time></trkpt><trkpt lat="41.7372878" lon="13.8155195"><ele>1466.0</ele><time>2026-05-01T14:30:39.642Z</time></trkpt><trkpt lat="41.7371518" lon="13.8156271"><ele>1466.0</ele><time>2026-05-01T14:30:40.644Z</time></trkpt><trkpt lat="41.7370002" lon="13.815695"><ele>1466.0</ele><time>2026-05-01T14:30:41.642Z</time></trkpt><trkpt lat="41.7368414" lon="13.8157233"><ele>1459.75</ele><time>2026-05-01T14:30:42.639Z</time></trkpt><trkpt lat="41.7366932" lon="13.8157307"><ele>1453.5</ele><time>2026-05-01T14:30:43.638Z</time></trkpt><trkpt lat="41.7365686" lon="13.8157465"><ele>1447.25</ele><time>2026-05-01T14:30:44.633Z</time></trkpt><trkpt lat="41.7364559" lon="13.8157958"><ele>1441.0</ele><time>2026-05-01T14:30:45.641Z</time></trkpt><trkpt lat="41.7363354" lon="13.8159076"><ele>1440.3333333333333</ele><time>2026-05-01T14:30:46.633Z</time></trkpt><trkpt lat="41.7362159" lon="13.8160964"><ele>1439.6666666666667</ele><time>2026-05-01T14:30:47.647Z</time></trkpt><trkpt lat="41.7360753" lon="13.8163034"><ele>1439.0</ele><time>2026-05-01T14:30:48.635Z</time></trkpt><trkpt lat="41.7359068" lon="13.8164984"><ele>1439.0</ele><time>2026-05-01T14:30:49.636Z</time></trkpt><trkpt lat="41.7357329" lon="13.8166626"><ele>1439.0</ele><time>2026-05-01T14:30:50.642Z</time></trkpt><trkpt lat="41.7355733" lon="13.8167977"><ele>1439.0</ele><time>2026-05-01T14:30:51.647Z</time></trkpt><trkpt lat="41.7354224" lon="13.8169095"><ele>1439.25</ele><time>2026-05-01T14:30:52.64Z</time></trkpt><trkpt lat="41.7352747" lon="13.8170001"><ele>1439.5</ele><time>2026-05-01T14:30:53.648Z</time></trkpt><trkpt lat="41.7351351" lon="13.8170619"><ele>1439.75</ele><time>2026-05-01T14:30:54.63Z</time></trkpt><trkpt lat="41.7350051" lon="13.8171179"><ele>1440.0</ele><time>2026-05-01T14:30:55.643Z</time></trkpt><trkpt lat="41.7348819" lon="13.8171925"><ele>1440.0</ele><time>2026-05-01T14:30:56.637Z</time></trkpt><trkpt lat="41.7347682" lon="13.8173008"><ele>1440.0</ele><time>2026-05-01T14:30:57.639Z</time></trkpt><trkpt lat="41.7346662" lon="13.8174598"><ele>1440.0</ele><time>2026-05-01T14:30:58.638Z</time></trkpt><trkpt lat="41.7345652" lon="13.8176311"><ele>1438.25</ele><time>2026-05-01T14:30:59.642Z</time></trkpt><trkpt lat="41.7344688" lon="13.8177971"><ele>1436.5</ele><time>2026-05-01T14:31:00.639Z</time></trkpt><trkpt lat="41.7343717" lon="13.8179341"><ele>1434.75</ele><time>2026-05-01T14:31:01.642Z</time></trkpt><trkpt lat="41.7342627" lon="13.8180514"><ele>1433.0</ele><time>2026-05-01T14:31:02.643Z</time></trkpt><trkpt lat="41.7341501" lon="13.8181503"><ele>1433.0</ele><time>2026-05-01T14:31:03.654Z</time></trkpt><trkpt lat="41.7340352" lon="13.8182266"><ele>1433.0</ele><time>2026-05-01T14:31:04.643Z</time></trkpt><trkpt lat="41.7339214" lon="13.8182875"><ele>1433.0</ele><time>2026-05-01T14:31:05.65Z</time></trkpt><trkpt lat="41.7338082" lon="13.8183362"><ele>1433.0</ele><time>2026-05-01T14:31:06.635Z</time></trkpt><trkpt lat="41.733708" lon="13.8183844"><ele>1433.0</ele><time>2026-05-01T14:31:07.637Z</time></trkpt><trkpt lat="41.7336233" lon="13.8184549"><ele>1433.0</ele><time>2026-05-01T14:31:08.64Z</time></trkpt><trkpt lat="41.7335549" lon="13.8185457"><ele>1433.0</ele><time>2026-05-01T14:31:09.639Z</time></trkpt><trkpt lat="41.7334977" lon="13.8186561"><ele>1433.0</ele><time>2026-05-01T14:31:10.652Z</time></trkpt><trkpt lat="41.7334478" lon="13.8187808"><ele>1433.0</ele><time>2026-05-01T14:31:11.633Z</time></trkpt><trkpt lat="41.7334069" lon="13.8189185"><ele>1434.0</ele><time>2026-05-01T14:31:12.645Z</time></trkpt><trkpt lat="41.7333667" lon="13.8190449"><ele>1435.0</ele><time>2026-05-01T14:31:13.647Z</time></trkpt><trkpt lat="41.7333273" lon="13.8191668"><ele>1436.0</ele><time>2026-05-01T14:31:14.64Z</time></trkpt><trkpt lat="41.7332902" lon="13.8192832"><ele>1437.0</ele><time>2026-05-01T14:31:15.649Z</time></trkpt><trkpt lat="41.7332552" lon="13.819394"><ele>1438.0</ele><time>2026-05-01T14:31:16.632Z</time></trkpt><trkpt lat="41.7332227" lon="13.819483"><ele>1438.0</ele><time>2026-05-01T14:31:17.64Z</time></trkpt><trkpt lat="41.7331878" lon="13.8195556"><ele>1438.0</ele><time>2026-05-01T14:31:18.641Z</time></trkpt><trkpt lat="41.7331053" lon="13.8196649"><ele>1438.0</ele><time>2026-05-01T14:31:20.647Z</time></trkpt><trkpt lat="41.7330033" lon="13.8196649"><ele>1438.0</ele><time>2026-05-01T14:31:22.639Z</time></trkpt><trkpt lat="41.7329795" lon="13.819529"><ele>1438.0</ele><time>2026-05-01T14:31:24.641Z</time></trkpt><trkpt lat="41.7330527" lon="13.8193956"><ele>1438.0</ele><time>2026-05-01T14:31:26.643Z</time></trkpt><trkpt lat="41.7330988" lon="13.8193279"><ele>1438.0</ele><time>2026-05-01T14:31:27.635Z</time></trkpt><trkpt lat="41.7331442" lon="13.8192454"><ele>1438.0</ele><time>2026-05-01T14:31:28.643Z</time></trkpt><trkpt lat="41.7331891" lon="13.8191414"><ele>1438.0</ele><time>2026-05-01T14:31:29.648Z</time></trkpt><trkpt lat="41.7332361" lon="13.8190099"><ele>1438.0</ele><time>2026-05-01T14:31:30.639Z</time></trkpt><trkpt lat="41.7332793" lon="13.8188649"><ele>1434.4</ele><time>2026-05-01T14:31:31.643Z</time></trkpt><trkpt lat="41.7333187" lon="13.8187268"><ele>1430.8000000000002</ele><time>2026-05-01T14:31:32.635Z</time></trkpt><trkpt lat="41.7333565" lon="13.8185854"><ele>1427.2</ele><time>2026-05-01T14:31:33.618Z</time></trkpt><trkpt lat="41.7333997" lon="13.8184494"><ele>1423.6</ele><time>2026-05-01T14:31:34.641Z</time></trkpt><trkpt lat="41.7334544" lon="13.8183201"><ele>1420.0</ele><time>2026-05-01T14:31:35.642Z</time></trkpt><trkpt lat="41.7335335" lon="13.8181953"><ele>1423.25</ele><time>2026-05-01T14:31:36.633Z</time></trkpt><trkpt lat="41.7336307" lon="13.818087"><ele>1426.5</ele><time>2026-05-01T14:31:37.639Z</time></trkpt><trkpt lat="41.7337404" lon="13.817996"><ele>1429.75</ele><time>2026-05-01T14:31:38.629Z</time></trkpt><trkpt lat="41.7338558" lon="13.8179214"><ele>1433.0</ele><time>2026-05-01T14:31:39.646Z</time></trkpt><trkpt lat="41.733963" lon="13.8178386"><ele>1433.0</ele><time>2026-05-01T14:31:40.642Z</time></trkpt><trkpt lat="41.7340611" lon="13.8177079"><ele>1433.0</ele><time>2026-05-01T14:31:41.631Z</time></trkpt><trkpt lat="41.7341586" lon="13.8175171"><ele>1433.0</ele><time>2026-05-01T14:31:42.631Z</time></trkpt><trkpt lat="41.7342498" lon="13.8172742"><ele>1426.3333333333335</ele><time>2026-05-01T14:31:43.637Z</time></trkpt><trkpt lat="41.7343336" lon="13.8170215"><ele>1419.6666666666667</ele><time>2026-05-01T14:31:44.633Z</time></trkpt><trkpt lat="41.734414" lon="13.81681"><ele>1413.0</ele><time>2026-05-01T14:31:45.638Z</time></trkpt><trkpt lat="41.7344959" lon="13.816622"><ele>1413.0</ele><time>2026-05-01T14:31:46.637Z</time></trkpt><trkpt lat="41.7345903" lon="13.8164683"><ele>1413.0</ele><time>2026-05-01T14:31:47.636Z</time></trkpt><trkpt lat="41.7347046" lon="13.8163401"><ele>1413.0</ele><time>2026-05-01T14:31:48.641Z</time></trkpt><trkpt lat="41.7348453" lon="13.8162386"><ele>1413.0</ele><time>2026-05-01T14:31:49.633Z</time></trkpt><trkpt lat="41.7349885" lon="13.8161599"><ele>1413.0</ele><time>2026-05-01T14:31:50.627Z</time></trkpt><trkpt lat="41.7351157" lon="13.8160462"><ele>1413.0</ele><time>2026-05-01T14:31:51.641Z</time></trkpt><trkpt lat="41.7352422" lon="13.8158843"><ele>1413.0</ele><time>2026-05-01T14:31:52.635Z</time></trkpt><trkpt lat="41.7353734" lon="13.8157113"><ele>1413.0</ele><time>2026-05-01T14:31:53.641Z</time></trkpt><trkpt lat="41.7354975" lon="13.8155518"><ele>1413.0</ele><time>2026-05-01T14:31:54.637Z</time></trkpt><trkpt lat="41.7355974" lon="13.8154012"><ele>1413.0</ele><time>2026-05-01T14:31:55.632Z</time></trkpt><trkpt lat="41.7356736" lon="13.8152542"><ele>1413.0</ele><time>2026-05-01T14:31:56.646Z</time></trkpt><trkpt lat="41.7357382" lon="13.8151074"><ele>1413.0</ele><time>2026-05-01T14:31:57.644Z</time></trkpt><trkpt lat="41.7357852" lon="13.8149687"><ele>1413.0</ele><time>2026-05-01T14:31:58.66Z</time></trkpt><trkpt lat="41.7358247" lon="13.8148577"><ele>1412.5</ele><time>2026-05-01T14:31:59.651Z</time></trkpt><trkpt lat="41.7358661" lon="13.8147498"><ele>1412.0</ele><time>2026-05-01T14:32:00.641Z</time></trkpt><trkpt lat="41.7359244" lon="13.8146412"><ele>1411.5</ele><time>2026-05-01T14:32:01.647Z</time></trkpt><trkpt lat="41.7360251" lon="13.8145437"><ele>1411.0</ele><time>2026-05-01T14:32:02.633Z</time></trkpt><trkpt lat="41.736165" lon="13.8144465"><ele>1411.0</ele><time>2026-05-01T14:32:03.655Z</time></trkpt><trkpt lat="41.7363264" lon="13.8143286"><ele>1411.0</ele><time>2026-05-01T14:32:04.643Z</time></trkpt><trkpt lat="41.7364907" lon="13.814206"><ele>1411.0</ele><time>2026-05-01T14:32:05.642Z</time></trkpt><trkpt lat="41.7366527" lon="13.8140894"><ele>1410.3333333333333</ele><time>2026-05-01T14:32:06.651Z</time></trkpt><trkpt lat="41.7368104" lon="13.8139507"><ele>1409.6666666666667</ele><time>2026-05-01T14:32:07.643Z</time></trkpt><trkpt lat="41.736941" lon="13.8137669"><ele>1409.0</ele><time>2026-05-01T14:32:08.651Z</time></trkpt><trkpt lat="41.73704" lon="13.813569"><ele>1402.75</ele><time>2026-05-01T14:32:09.645Z</time></trkpt><trkpt lat="41.7371184" lon="13.8133958"><ele>1396.5</ele><time>2026-05-01T14:32:10.64Z</time></trkpt><trkpt lat="41.7371829" lon="13.8132458"><ele>1390.25</ele><time>2026-05-01T14:32:11.645Z</time></trkpt><trkpt lat="41.7372429" lon="13.8131116"><ele>1384.0</ele><time>2026-05-01T14:32:12.635Z</time></trkpt><trkpt lat="41.7373026" lon="13.8129874"><ele>1384.0</ele><time>2026-05-01T14:32:13.637Z</time></trkpt><trkpt lat="41.7373757" lon="13.8128551"><ele>1384.0</ele><time>2026-05-01T14:32:14.639Z</time></trkpt><trkpt lat="41.7374823" lon="13.8127127"><ele>1384.0</ele><time>2026-05-01T14:32:15.636Z</time></trkpt><trkpt lat="41.7376319" lon="13.8125683"><ele>1381.3333333333333</ele><time>2026-05-01T14:32:16.655Z</time></trkpt><trkpt lat="41.7378013" lon="13.8124459"><ele>1378.6666666666667</ele><time>2026-05-01T14:32:17.64Z</time></trkpt><trkpt lat="41.7379508" lon="13.8123258"><ele>1376.0</ele><time>2026-05-01T14:32:18.638Z</time></trkpt><trkpt lat="41.7380823" lon="13.8122046"><ele>1376.0</ele><time>2026-05-01T14:32:19.635Z</time></trkpt><trkpt lat="41.7381897" lon="13.8120812"><ele>1376.0</ele><time>2026-05-01T14:32:20.632Z</time></trkpt><trkpt lat="41.7382744" lon="13.8119234"><ele>1376.0</ele><time>2026-05-01T14:32:21.635Z</time></trkpt><trkpt lat="41.7383296" lon="13.8117363"><ele>1376.0</ele><time>2026-05-01T14:32:22.631Z</time></trkpt><trkpt lat="41.7383515" lon="13.8115461"><ele>1375.5</ele><time>2026-05-01T14:32:23.647Z</time></trkpt><trkpt lat="41.7383338" lon="13.8113475"><ele>1375.0</ele><time>2026-05-01T14:32:24.636Z</time></trkpt><trkpt lat="41.7382874" lon="13.8111648"><ele>1374.5</ele><time>2026-05-01T14:32:25.64Z</time></trkpt><trkpt lat="41.738204" lon="13.8110033"><ele>1374.0</ele><time>2026-05-01T14:32:26.631Z</time></trkpt><trkpt lat="41.7380835" lon="13.8108824"><ele>1374.0</ele><time>2026-05-01T14:32:27.634Z</time></trkpt><trkpt lat="41.7379284" lon="13.8108057"><ele>1374.0</ele><time>2026-05-01T14:32:28.635Z</time></trkpt><trkpt lat="41.7377497" lon="13.8107711"><ele>1374.0</ele><time>2026-05-01T14:32:29.638Z</time></trkpt><trkpt lat="41.7375513" lon="13.8107657"><ele>1369.0</ele><time>2026-05-01T14:32:30.638Z</time></trkpt><trkpt lat="41.737334" lon="13.8107823"><ele>1364.0</ele><time>2026-05-01T14:32:31.64Z</time></trkpt><trkpt lat="41.7370997" lon="13.8108167"><ele>1363.0</ele><time>2026-05-01T14:32:32.638Z</time></trkpt><trkpt lat="41.7368698" lon="13.8108575"><ele>1362.0</ele><time>2026-05-01T14:32:33.637Z</time></trkpt><trkpt lat="41.7366454" lon="13.8109122"><ele>1353.5</ele><time>2026-05-01T14:32:34.632Z</time></trkpt><trkpt lat="41.7364128" lon="13.8110038"><ele>1345.0</ele><time>2026-05-01T14:32:35.654Z</time></trkpt><trkpt lat="41.7361687" lon="13.8111359"><ele>1343.0</ele><time>2026-05-01T14:32:36.633Z</time></trkpt><trkpt lat="41.7359132" lon="13.8112938"><ele>1341.0</ele><time>2026-05-01T14:32:37.629Z</time></trkpt><trkpt lat="41.7356502" lon="13.8114325"><ele>1341.0</ele><time>2026-05-01T14:32:38.632Z</time></trkpt><trkpt lat="41.7354004" lon="13.8115565"><ele>1341.0</ele><time>2026-05-01T14:32:39.633Z</time></trkpt><trkpt lat="41.7351639" lon="13.8116766"><ele>1344.0</ele><time>2026-05-01T14:32:40.649Z</time></trkpt><trkpt lat="41.7349336" lon="13.8117824"><ele>1347.0</ele><time>2026-05-01T14:32:41.632Z</time></trkpt><trkpt lat="41.7347046" lon="13.8118761"><ele>1338.0</ele><time>2026-05-01T14:32:42.635Z</time></trkpt><trkpt lat="41.7344774" lon="13.8119533"><ele>1329.0</ele><time>2026-05-01T14:32:43.633Z</time></trkpt><trkpt lat="41.734258" lon="13.8120111"><ele>1327.3333333333333</ele><time>2026-05-01T14:32:44.641Z</time></trkpt><trkpt lat="41.7340438" lon="13.8120581"><ele>1325.6666666666665</ele><time>2026-05-01T14:32:45.627Z</time></trkpt><trkpt lat="41.7338285" lon="13.8121087"><ele>1324.0</ele><time>2026-05-01T14:32:46.637Z</time></trkpt><trkpt lat="41.7336168" lon="13.8121884"><ele>1332.5</ele><time>2026-05-01T14:32:47.629Z</time></trkpt><trkpt lat="41.7334059" lon="13.81229"><ele>1341.0</ele><time>2026-05-01T14:32:48.635Z</time></trkpt><trkpt lat="41.7331939" lon="13.8124006"><ele>1341.0</ele><time>2026-05-01T14:32:49.632Z</time></trkpt><trkpt lat="41.7329843" lon="13.812496"><ele>1341.0</ele><time>2026-05-01T14:32:50.638Z</time></trkpt><trkpt lat="41.7327759" lon="13.8125751"><ele>1341.0</ele><time>2026-05-01T14:32:51.625Z</time></trkpt><trkpt lat="41.7325695" lon="13.8126524"><ele>1334.0</ele><time>2026-05-01T14:32:52.652Z</time></trkpt><trkpt lat="41.7323688" lon="13.812731"><ele>1327.0</ele><time>2026-05-01T14:32:53.632Z</time></trkpt><trkpt lat="41.7321656" lon="13.8128033"><ele>1320.0</ele><time>2026-05-01T14:32:54.633Z</time></trkpt><trkpt lat="41.731953" lon="13.812859"><ele>1318.5</ele><time>2026-05-01T14:32:55.633Z</time></trkpt><trkpt lat="41.7317343" lon="13.8129012"><ele>1317.0</ele><time>2026-05-01T14:32:56.634Z</time></trkpt><trkpt lat="41.7315042" lon="13.8129329"><ele>1317.0</ele><time>2026-05-01T14:32:57.628Z</time></trkpt><trkpt lat="41.7312765" lon="13.8129774"><ele>1317.0</ele><time>2026-05-01T14:32:58.628Z</time></trkpt><trkpt lat="41.7310461" lon="13.8130301"><ele>1317.6666666666667</ele><time>2026-05-01T14:32:59.629Z</time></trkpt><trkpt lat="41.7308252" lon="13.813081"><ele>1318.3333333333335</ele><time>2026-05-01T14:33:00.631Z</time></trkpt><trkpt lat="41.730628" lon="13.8131303"><ele>1319.0</ele><time>2026-05-01T14:33:01.64Z</time></trkpt><trkpt lat="41.7304489" lon="13.8131681"><ele>1319.0</ele><time>2026-05-01T14:33:02.638Z</time></trkpt><trkpt lat="41.7302915" lon="13.813195"><ele>1319.0</ele><time>2026-05-01T14:33:03.635Z</time></trkpt><trkpt lat="41.7301412" lon="13.8132239"><ele>1319.0</ele><time>2026-05-01T14:33:04.633Z</time></trkpt><trkpt lat="41.7299793" lon="13.8132437"><ele>1319.6666666666667</ele><time>2026-05-01T14:33:05.627Z</time></trkpt><trkpt lat="41.7298004" lon="13.8132867"><ele>1320.3333333333333</ele><time>2026-05-01T14:33:06.64Z</time></trkpt><trkpt lat="41.7296237" lon="13.8133611"><ele>1321.0</ele><time>2026-05-01T14:33:07.634Z</time></trkpt><trkpt lat="41.7294647" lon="13.8134522"><ele>1312.6666666666665</ele><time>2026-05-01T14:33:08.628Z</time></trkpt><trkpt lat="41.7293138" lon="13.8135347"><ele>1304.3333333333333</ele><time>2026-05-01T14:33:09.642Z</time></trkpt><trkpt lat="41.7291583" lon="13.813582"><ele>1296.0</ele><time>2026-05-01T14:33:10.635Z</time></trkpt><trkpt lat="41.7289876" lon="13.8135851"><ele>1296.0</ele><time>2026-05-01T14:33:11.631Z</time></trkpt><trkpt lat="41.728814" lon="13.8135764"><ele>1296.0</ele><time>2026-05-01T14:33:12.635Z</time></trkpt><trkpt lat="41.7286494" lon="13.8135659"><ele>1296.0</ele><time>2026-05-01T14:33:13.636Z</time></trkpt><trkpt lat="41.728497" lon="13.8135421"><ele>1293.5</ele><time>2026-05-01T14:33:14.648Z</time></trkpt><trkpt lat="41.7283512" lon="13.8134975"><ele>1291.0</ele><time>2026-05-01T14:33:15.642Z</time></trkpt><trkpt lat="41.7282228" lon="13.8134268"><ele>1288.5</ele><time>2026-05-01T14:33:16.635Z</time></trkpt><trkpt lat="41.7280977" lon="13.8133319"><ele>1286.0</ele><time>2026-05-01T14:33:17.637Z</time></trkpt><trkpt lat="41.7279703" lon="13.8132104"><ele>1289.3333333333335</ele><time>2026-05-01T14:33:18.629Z</time></trkpt><trkpt lat="41.7278366" lon="13.8130831"><ele>1292.6666666666667</ele><time>2026-05-01T14:33:19.638Z</time></trkpt><trkpt lat="41.7276861" lon="13.8129833"><ele>1296.0</ele><time>2026-05-01T14:33:20.639Z</time></trkpt><trkpt lat="41.7275369" lon="13.8129004"><ele>1296.0</ele><time>2026-05-01T14:33:21.629Z</time></trkpt><trkpt lat="41.7273949" lon="13.8128308"><ele>1296.0</ele><time>2026-05-01T14:33:22.63Z</time></trkpt><trkpt lat="41.7272734" lon="13.8127716"><ele>1296.0</ele><time>2026-05-01T14:33:23.633Z</time></trkpt><trkpt lat="41.7271663" lon="13.8127531"><ele>1296.0</ele><time>2026-05-01T14:33:24.633Z</time></trkpt><trkpt lat="41.7270572" lon="13.8127785"><ele>1296.0</ele><time>2026-05-01T14:33:25.64Z</time></trkpt><trkpt lat="41.7269335" lon="13.8128712"><ele>1296.0</ele><time>2026-05-01T14:33:26.627Z</time></trkpt><trkpt lat="41.7267979" lon="13.8129981"><ele>1296.0</ele><time>2026-05-01T14:33:27.627Z</time></trkpt><trkpt lat="41.7266695" lon="13.8131141"><ele>1294.0</ele><time>2026-05-01T14:33:28.618Z</time></trkpt><trkpt lat="41.7265378" lon="13.8132061"><ele>1292.0</ele><time>2026-05-01T14:33:29.63Z</time></trkpt><trkpt lat="41.7264107" lon="13.8132481"><ele>1290.0</ele><time>2026-05-01T14:33:30.629Z</time></trkpt><trkpt lat="41.7262818" lon="13.813279"><ele>1288.0</ele><time>2026-05-01T14:33:31.64Z</time></trkpt><trkpt lat="41.7261523" lon="13.8132832"><ele>1288.25</ele><time>2026-05-01T14:33:32.636Z</time></trkpt><trkpt lat="41.7260238" lon="13.8132494"><ele>1288.5</ele><time>2026-05-01T14:33:33.645Z</time></trkpt><trkpt lat="41.7259004" lon="13.8131665"><ele>1288.75</ele><time>2026-05-01T14:33:34.632Z</time></trkpt><trkpt lat="41.7257797" lon="13.8130559"><ele>1289.0</ele><time>2026-05-01T14:33:35.623Z</time></trkpt><trkpt lat="41.7256653" lon="13.8129453"><ele>1289.0</ele><time>2026-05-01T14:33:36.629Z</time></trkpt><trkpt lat="41.7255492" lon="13.8128688"><ele>1289.0</ele><time>2026-05-01T14:33:37.631Z</time></trkpt><trkpt lat="41.725418" lon="13.8128433"><ele>1289.0</ele><time>2026-05-01T14:33:38.634Z</time></trkpt><trkpt lat="41.7252608" lon="13.8128588"><ele>1289.0</ele><time>2026-05-01T14:33:39.638Z</time></trkpt><trkpt lat="41.7250909" lon="13.8129003"><ele>1284.6666666666667</ele><time>2026-05-01T14:33:40.635Z</time></trkpt><trkpt lat="41.7249165" lon="13.8129507"><ele>1280.3333333333333</ele><time>2026-05-01T14:33:41.629Z</time></trkpt><trkpt lat="41.7247497" lon="13.8130018"><ele>1276.0</ele><time>2026-05-01T14:33:42.655Z</time></trkpt><trkpt lat="41.7246011" lon="13.8130564"><ele>1276.0</ele><time>2026-05-01T14:33:43.637Z</time></trkpt><trkpt lat="41.7244713" lon="13.813101"><ele>1276.0</ele><time>2026-05-01T14:33:44.64Z</time></trkpt><trkpt lat="41.7243454" lon="13.81312"><ele>1276.0</ele><time>2026-05-01T14:33:45.639Z</time></trkpt><trkpt lat="41.724227" lon="13.8130941"><ele>1276.0</ele><time>2026-05-01T14:33:46.634Z</time></trkpt><trkpt lat="41.7241082" lon="13.8130182"><ele>1276.0</ele><time>2026-05-01T14:33:47.647Z</time></trkpt><trkpt lat="41.7239898" lon="13.8128886"><ele>1276.0</ele><time>2026-05-01T14:33:48.628Z</time></trkpt><trkpt lat="41.7238749" lon="13.8127247"><ele>1276.0</ele><time>2026-05-01T14:33:49.641Z</time></trkpt><trkpt lat="41.7237595" lon="13.8125387"><ele>1271.3333333333333</ele><time>2026-05-01T14:33:50.639Z</time></trkpt><trkpt lat="41.7236466" lon="13.8123558"><ele>1266.6666666666667</ele><time>2026-05-01T14:33:51.641Z</time></trkpt><trkpt lat="41.7235508" lon="13.8121666"><ele>1262.0</ele><time>2026-05-01T14:33:52.632Z</time></trkpt><trkpt lat="41.7234537" lon="13.8119834"><ele>1273.3333333333335</ele><time>2026-05-01T14:33:53.639Z</time></trkpt><trkpt lat="41.7233418" lon="13.8118229"><ele>1284.6666666666667</ele><time>2026-05-01T14:33:54.635Z</time></trkpt><trkpt lat="41.7232191" lon="13.8116861"><ele>1296.0</ele><time>2026-05-01T14:33:55.632Z</time></trkpt><trkpt lat="41.7230794" lon="13.8115728"><ele>1296.0</ele><time>2026-05-01T14:33:56.636Z</time></trkpt><trkpt lat="41.722938" lon="13.8114403"><ele>1296.0</ele><time>2026-05-01T14:33:57.637Z</time></trkpt><trkpt lat="41.7228094" lon="13.8112931"><ele>1296.0</ele><time>2026-05-01T14:33:58.65Z</time></trkpt><trkpt lat="41.7226776" lon="13.8111545"><ele>1295.0</ele><time>2026-05-01T14:33:59.631Z</time></trkpt><trkpt lat="41.7225334" lon="13.8110401"><ele>1294.0</ele><time>2026-05-01T14:34:00.639Z</time></trkpt><trkpt lat="41.7223818" lon="13.8109538"><ele>1293.0</ele><time>2026-05-01T14:34:01.632Z</time></trkpt><trkpt lat="41.7222343" lon="13.8108807"><ele>1293.0</ele><time>2026-05-01T14:34:02.632Z</time></trkpt><trkpt lat="41.7220995" lon="13.8108058"><ele>1293.0</ele><time>2026-05-01T14:34:03.65Z</time></trkpt><trkpt lat="41.7219758" lon="13.8107225"><ele>1293.0</ele><time>2026-05-01T14:34:04.632Z</time></trkpt><trkpt lat="41.7218657" lon="13.81061"><ele>1293.0</ele><time>2026-05-01T14:34:05.645Z</time></trkpt><trkpt lat="41.7217717" lon="13.8104606"><ele>1293.6666666666667</ele><time>2026-05-01T14:34:06.631Z</time></trkpt><trkpt lat="41.7216743" lon="13.8102973"><ele>1294.3333333333335</ele><time>2026-05-01T14:34:07.639Z</time></trkpt><trkpt lat="41.7215541" lon="13.8101442"><ele>1295.0</ele><time>2026-05-01T14:34:08.642Z</time></trkpt><trkpt lat="41.7214056" lon="13.8100046"><ele>1295.0</ele><time>2026-05-01T14:34:09.639Z</time></trkpt><trkpt lat="41.7212361" lon="13.8098808"><ele>1295.0</ele><time>2026-05-01T14:34:10.654Z</time></trkpt><trkpt lat="41.7210577" lon="13.8097648"><ele>1295.0</ele><time>2026-05-01T14:34:11.635Z</time></trkpt><trkpt lat="41.7208862" lon="13.8096592"><ele>1291.3333333333335</ele><time>2026-05-01T14:34:12.637Z</time></trkpt><trkpt lat="41.7207272" lon="13.8095478"><ele>1287.6666666666667</ele><time>2026-05-01T14:34:13.637Z</time></trkpt><trkpt lat="41.7205772" lon="13.8094321"><ele>1284.0</ele><time>2026-05-01T14:34:14.642Z</time></trkpt><trkpt lat="41.7204365" lon="13.8093104"><ele>1284.0</ele><time>2026-05-01T14:34:15.646Z</time></trkpt><trkpt lat="41.7202979" lon="13.8091923"><ele>1284.0</ele><time>2026-05-01T14:34:16.631Z</time></trkpt><trkpt lat="41.7201658" lon="13.8090871"><ele>1284.0</ele><time>2026-05-01T14:34:17.638Z</time></trkpt><trkpt lat="41.7200491" lon="13.8090039"><ele>1277.8333333333333</ele><time>2026-05-01T14:34:18.638Z</time></trkpt><trkpt lat="41.719952" lon="13.8089333"><ele>1271.6666666666667</ele><time>2026-05-01T14:34:19.632Z</time></trkpt><trkpt lat="41.7198815" lon="13.8088645"><ele>1265.5</ele><time>2026-05-01T14:34:20.646Z</time></trkpt><trkpt lat="41.719852" lon="13.808776"><ele>1259.3333333333335</ele><time>2026-05-01T14:34:21.64Z</time></trkpt><trkpt lat="41.7198688" lon="13.8086753"><ele>1253.1666666666667</ele><time>2026-05-01T14:34:22.648Z</time></trkpt><trkpt lat="41.7199255" lon="13.8085956"><ele>1247.0</ele><time>2026-05-01T14:34:23.629Z</time></trkpt><trkpt lat="41.7200113" lon="13.8085534"><ele>1247.0</ele><time>2026-05-01T14:34:24.643Z</time></trkpt><trkpt lat="41.7201221" lon="13.8085281"><ele>1247.0</ele><time>2026-05-01T14:34:25.641Z</time></trkpt><trkpt lat="41.7202381" lon="13.8084861"><ele>1247.0</ele><time>2026-05-01T14:34:26.641Z</time></trkpt><trkpt lat="41.7203648" lon="13.8084288"><ele>1247.0</ele><time>2026-05-01T14:34:27.638Z</time></trkpt><trkpt lat="41.7204918" lon="13.8083445"><ele>1251.0</ele><time>2026-05-01T14:34:28.627Z</time></trkpt><trkpt lat="41.7206144" lon="13.8082628"><ele>1255.0</ele><time>2026-05-01T14:34:29.661Z</time></trkpt><trkpt lat="41.720728" lon="13.8081582"><ele>1259.0</ele><time>2026-05-01T14:34:30.633Z</time></trkpt><trkpt lat="41.7208327" lon="13.8080056"><ele>1263.0</ele><time>2026-05-01T14:34:31.644Z</time></trkpt><trkpt lat="41.720935" lon="13.8078227"><ele>1266.0</ele><time>2026-05-01T14:34:32.63Z</time></trkpt><trkpt lat="41.7210395" lon="13.8076387"><ele>1269.0</ele><time>2026-05-01T14:34:33.646Z</time></trkpt><trkpt lat="41.7211429" lon="13.80747"><ele>1272.0</ele><time>2026-05-01T14:34:34.639Z</time></trkpt><trkpt lat="41.7212362" lon="13.8073073"><ele>1272.0</ele><time>2026-05-01T14:34:35.641Z</time></trkpt><trkpt lat="41.7213278" lon="13.8071582"><ele>1272.0</ele><time>2026-05-01T14:34:36.629Z</time></trkpt><trkpt lat="41.7214187" lon="13.8070228"><ele>1272.0</ele><time>2026-05-01T14:34:37.644Z</time></trkpt><trkpt lat="41.7215259" lon="13.8069043"><ele>1272.0</ele><time>2026-05-01T14:34:38.648Z</time></trkpt><trkpt lat="41.7216586" lon="13.8068061"><ele>1269.3333333333333</ele><time>2026-05-01T14:34:39.637Z</time></trkpt><trkpt lat="41.7218101" lon="13.8067156"><ele>1266.6666666666665</ele><time>2026-05-01T14:34:40.641Z</time></trkpt><trkpt lat="41.7219574" lon="13.8066337"><ele>1264.0</ele><time>2026-05-01T14:34:41.64Z</time></trkpt><trkpt lat="41.7220864" lon="13.8065474"><ele>1264.0</ele><time>2026-05-01T14:34:42.646Z</time></trkpt><trkpt lat="41.7221989" lon="13.8064364"><ele>1264.0</ele><time>2026-05-01T14:34:43.639Z</time></trkpt><trkpt lat="41.7223023" lon="13.8062795"><ele>1264.0</ele><time>2026-05-01T14:34:44.654Z</time></trkpt><trkpt lat="41.7224045" lon="13.8061086"><ele>1264.25</ele><time>2026-05-01T14:34:45.638Z</time></trkpt><trkpt lat="41.7225007" lon="13.8059492"><ele>1264.5</ele><time>2026-05-01T14:34:46.631Z</time></trkpt><trkpt lat="41.7225937" lon="13.8058094"><ele>1264.75</ele><time>2026-05-01T14:34:47.636Z</time></trkpt><trkpt lat="41.7226848" lon="13.8056825"><ele>1265.0</ele><time>2026-05-01T14:34:48.638Z</time></trkpt><trkpt lat="41.7227864" lon="13.8055791"><ele>1265.0</ele><time>2026-05-01T14:34:49.64Z</time></trkpt><trkpt lat="41.7229079" lon="13.8054947"><ele>1265.0</ele><time>2026-05-01T14:34:50.635Z</time></trkpt><trkpt lat="41.7230353" lon="13.8054019"><ele>1265.0</ele><time>2026-05-01T14:34:51.642Z</time></trkpt><trkpt lat="41.723153" lon="13.8052658"><ele>1265.0</ele><time>2026-05-01T14:34:52.635Z</time></trkpt><trkpt lat="41.7232528" lon="13.8051197"><ele>1255.3333333333335</ele><time>2026-05-01T14:34:53.635Z</time></trkpt><trkpt lat="41.7233283" lon="13.8049654"><ele>1245.6666666666667</ele><time>2026-05-01T14:34:54.632Z</time></trkpt><trkpt lat="41.7233764" lon="13.8047759"><ele>1236.0</ele><time>2026-05-01T14:34:55.636Z</time></trkpt><trkpt lat="41.7234054" lon="13.8045544"><ele>1229.3333333333333</ele><time>2026-05-01T14:34:56.642Z</time></trkpt><trkpt lat="41.723423" lon="13.804312"><ele>1222.6666666666665</ele><time>2026-05-01T14:34:57.635Z</time></trkpt><trkpt lat="41.7234407" lon="13.8040726"><ele>1216.0</ele><time>2026-05-01T14:34:58.625Z</time></trkpt><trkpt lat="41.7234625" lon="13.803833"><ele>1216.0</ele><time>2026-05-01T14:34:59.638Z</time></trkpt><trkpt lat="41.7234909" lon="13.8035906"><ele>1216.0</ele><time>2026-05-01T14:35:00.628Z</time></trkpt><trkpt lat="41.7235294" lon="13.8033499"><ele>1216.0</ele><time>2026-05-01T14:35:01.639Z</time></trkpt><trkpt lat="41.723574" lon="13.8031279"><ele>1229.0</ele><time>2026-05-01T14:35:02.635Z</time></trkpt><trkpt lat="41.7236016" lon="13.8029089"><ele>1242.0</ele><time>2026-05-01T14:35:03.637Z</time></trkpt><trkpt lat="41.723601" lon="13.8026877"><ele>1255.0</ele><time>2026-05-01T14:35:04.631Z</time></trkpt><trkpt lat="41.7235937" lon="13.8024808"><ele>1255.0</ele><time>2026-05-01T14:35:05.638Z</time></trkpt><trkpt lat="41.7235762" lon="13.8022937"><ele>1255.0</ele><time>2026-05-01T14:35:06.637Z</time></trkpt><trkpt lat="41.7235299" lon="13.8021073"><ele>1255.0</ele><time>2026-05-01T14:35:07.632Z</time></trkpt><trkpt lat="41.7234798" lon="13.8019376"><ele>1255.0</ele><time>2026-05-01T14:35:08.643Z</time></trkpt><trkpt lat="41.7234322" lon="13.8017837"><ele>1254.75</ele><time>2026-05-01T14:35:09.635Z</time></trkpt><trkpt lat="41.7234044" lon="13.801647"><ele>1254.5</ele><time>2026-05-01T14:35:10.638Z</time></trkpt><trkpt lat="41.7234265" lon="13.8015024"><ele>1254.25</ele><time>2026-05-01T14:35:11.642Z</time></trkpt><trkpt lat="41.7234989" lon="13.8013457"><ele>1254.0</ele><time>2026-05-01T14:35:12.628Z</time></trkpt><trkpt lat="41.7235856" lon="13.8011625"><ele>1249.6666666666667</ele><time>2026-05-01T14:35:13.638Z</time></trkpt><trkpt lat="41.7236683" lon="13.8009435"><ele>1245.3333333333335</ele><time>2026-05-01T14:35:14.631Z</time></trkpt><trkpt lat="41.7237485" lon="13.8007226"><ele>1241.0</ele><time>2026-05-01T14:35:15.634Z</time></trkpt><trkpt lat="41.7238171" lon="13.8005211"><ele>1241.0</ele><time>2026-05-01T14:35:16.635Z</time></trkpt><trkpt lat="41.7238699" lon="13.8003206"><ele>1241.0</ele><time>2026-05-01T14:35:17.626Z</time></trkpt><trkpt lat="41.7238954" lon="13.8001308"><ele>1241.0</ele><time>2026-05-01T14:35:18.624Z</time></trkpt><trkpt lat="41.7239116" lon="13.7999703"><ele>1241.0</ele><time>2026-05-01T14:35:19.636Z</time></trkpt><trkpt lat="41.7239052" lon="13.7998288"><ele>1238.3999999999999</ele><time>2026-05-01T14:35:20.639Z</time></trkpt><trkpt lat="41.7238684" lon="13.7996892"><ele>1235.8</ele><time>2026-05-01T14:35:21.636Z</time></trkpt><trkpt lat="41.7238097" lon="13.7995535"><ele>1233.1999999999998</ele><time>2026-05-01T14:35:22.639Z</time></trkpt><trkpt lat="41.7237534" lon="13.7994167"><ele>1230.6</ele><time>2026-05-01T14:35:23.637Z</time></trkpt><trkpt lat="41.7237313" lon="13.7992813"><ele>1228.0</ele><time>2026-05-01T14:35:24.633Z</time></trkpt><trkpt lat="41.7237546" lon="13.7991274"><ele>1228.0</ele><time>2026-05-01T14:35:25.651Z</time></trkpt><trkpt lat="41.7238025" lon="13.7989461"><ele>1228.0</ele><time>2026-05-01T14:35:26.642Z</time></trkpt><trkpt lat="41.7238545" lon="13.7987524"><ele>1228.0</ele><time>2026-05-01T14:35:27.642Z</time></trkpt><trkpt lat="41.7238859" lon="13.7985431"><ele>1226.3333333333333</ele><time>2026-05-01T14:35:28.642Z</time></trkpt><trkpt lat="41.7238962" lon="13.7983148"><ele>1224.6666666666667</ele><time>2026-05-01T14:35:29.64Z</time></trkpt><trkpt lat="41.7238924" lon="13.798047"><ele>1223.0</ele><time>2026-05-01T14:35:30.642Z</time></trkpt><trkpt lat="41.7238828" lon="13.7977472"><ele>1222.3333333333335</ele><time>2026-05-01T14:35:31.638Z</time></trkpt><trkpt lat="41.723872" lon="13.7974535"><ele>1221.6666666666667</ele><time>2026-05-01T14:35:32.639Z</time></trkpt><trkpt lat="41.7238664" lon="13.7971896"><ele>1221.0</ele><time>2026-05-01T14:35:33.64Z</time></trkpt><trkpt lat="41.7238668" lon="13.7969634"><ele>1221.25</ele><time>2026-05-01T14:35:34.647Z</time></trkpt><trkpt lat="41.7238592" lon="13.7967699"><ele>1221.5</ele><time>2026-05-01T14:35:35.637Z</time></trkpt><trkpt lat="41.7238272" lon="13.7965924"><ele>1221.75</ele><time>2026-05-01T14:35:36.642Z</time></trkpt><trkpt lat="41.7237654" lon="13.7964267"><ele>1222.0</ele><time>2026-05-01T14:35:37.64Z</time></trkpt><trkpt lat="41.723675" lon="13.7962464"><ele>1222.0</ele><time>2026-05-01T14:35:38.643Z</time></trkpt><trkpt lat="41.7235661" lon="13.7960454"><ele>1222.0</ele><time>2026-05-01T14:35:39.642Z</time></trkpt><trkpt lat="41.723456" lon="13.7958485"><ele>1222.0</ele><time>2026-05-01T14:35:40.646Z</time></trkpt><trkpt lat="41.7233554" lon="13.7956473"><ele>1214.3333333333333</ele><time>2026-05-01T14:35:41.647Z</time></trkpt><trkpt lat="41.7232674" lon="13.7954371"><ele>1206.6666666666667</ele><time>2026-05-01T14:35:42.65Z</time></trkpt><trkpt lat="41.7231932" lon="13.7952312"><ele>1199.0</ele><time>2026-05-01T14:35:43.642Z</time></trkpt><trkpt lat="41.723122" lon="13.7950429"><ele>1199.0</ele><time>2026-05-01T14:35:44.641Z</time></trkpt><trkpt lat="41.7230594" lon="13.7948802"><ele>1199.0</ele><time>2026-05-01T14:35:45.646Z</time></trkpt><trkpt lat="41.7230054" lon="13.7947339"><ele>1199.0</ele><time>2026-05-01T14:35:46.635Z</time></trkpt><trkpt lat="41.7229581" lon="13.7945988"><ele>1199.0</ele><time>2026-05-01T14:35:47.65Z</time></trkpt><trkpt lat="41.7229324" lon="13.7944581"><ele>1199.75</ele><time>2026-05-01T14:35:48.65Z</time></trkpt><trkpt lat="41.7229456" lon="13.7943084"><ele>1200.5</ele><time>2026-05-01T14:35:49.646Z</time></trkpt><trkpt lat="41.7230042" lon="13.7941384"><ele>1201.25</ele><time>2026-05-01T14:35:50.649Z</time></trkpt><trkpt lat="41.7230901" lon="13.7939689"><ele>1202.0</ele><time>2026-05-01T14:35:51.65Z</time></trkpt><trkpt lat="41.7231815" lon="13.7938085"><ele>1202.0</ele><time>2026-05-01T14:35:52.67Z</time></trkpt><trkpt lat="41.7232595" lon="13.793654"><ele>1202.0</ele><time>2026-05-01T14:35:53.642Z</time></trkpt><trkpt lat="41.7233108" lon="13.7934897"><ele>1202.0</ele><time>2026-05-01T14:35:54.653Z</time></trkpt><trkpt lat="41.7233375" lon="13.7933053"><ele>1202.0</ele><time>2026-05-01T14:35:55.637Z</time></trkpt><trkpt lat="41.7233676" lon="13.7931248"><ele>1196.0</ele><time>2026-05-01T14:35:56.636Z</time></trkpt><trkpt lat="41.7234003" lon="13.7929525"><ele>1190.0</ele><time>2026-05-01T14:35:57.639Z</time></trkpt><trkpt lat="41.7234338" lon="13.7927822"><ele>1184.0</ele><time>2026-05-01T14:35:58.652Z</time></trkpt><trkpt lat="41.7234715" lon="13.7926082"><ele>1178.0</ele><time>2026-05-01T14:35:59.646Z</time></trkpt><trkpt lat="41.7235206" lon="13.7924365"><ele>1183.25</ele><time>2026-05-01T14:36:00.643Z</time></trkpt><trkpt lat="41.723576" lon="13.7922684"><ele>1188.5</ele><time>2026-05-01T14:36:01.639Z</time></trkpt><trkpt lat="41.7236438" lon="13.7921001"><ele>1193.75</ele><time>2026-05-01T14:36:02.635Z</time></trkpt><trkpt lat="41.7237113" lon="13.7919299"><ele>1199.0</ele><time>2026-05-01T14:36:03.645Z</time></trkpt><trkpt lat="41.7237791" lon="13.7917592"><ele>1199.0</ele><time>2026-05-01T14:36:04.64Z</time></trkpt><trkpt lat="41.7238369" lon="13.7915753"><ele>1199.0</ele><time>2026-05-01T14:36:05.649Z</time></trkpt><trkpt lat="41.723879" lon="13.7913868"><ele>1199.0</ele><time>2026-05-01T14:36:06.646Z</time></trkpt><trkpt lat="41.7239057" lon="13.7911816"><ele>1195.3333333333335</ele><time>2026-05-01T14:36:07.662Z</time></trkpt><trkpt lat="41.7239228" lon="13.7909798"><ele>1191.6666666666667</ele><time>2026-05-01T14:36:08.637Z</time></trkpt><trkpt lat="41.72392" lon="13.790771"><ele>1188.0</ele><time>2026-05-01T14:36:09.642Z</time></trkpt><trkpt lat="41.7239053" lon="13.7905499"><ele>1188.0</ele><time>2026-05-01T14:36:10.639Z</time></trkpt><trkpt lat="41.7238882" lon="13.7903207"><ele>1188.0</ele><time>2026-05-01T14:36:11.639Z</time></trkpt><trkpt lat="41.7238675" lon="13.7900961"><ele>1188.0</ele><time>2026-05-01T14:36:12.636Z</time></trkpt><trkpt lat="41.7238505" lon="13.7898795"><ele>1186.25</ele><time>2026-05-01T14:36:13.638Z</time></trkpt><trkpt lat="41.7238361" lon="13.7896776"><ele>1184.5</ele><time>2026-05-01T14:36:14.649Z</time></trkpt><trkpt lat="41.7238062" lon="13.7894944"><ele>1182.75</ele><time>2026-05-01T14:36:15.639Z</time></trkpt><trkpt lat="41.7237683" lon="13.7893282"><ele>1181.0</ele><time>2026-05-01T14:36:16.643Z</time></trkpt><trkpt lat="41.7237332" lon="13.7891803"><ele>1179.6666666666667</ele><time>2026-05-01T14:36:17.65Z</time></trkpt><trkpt lat="41.7237139" lon="13.7890629"><ele>1178.3333333333335</ele><time>2026-05-01T14:36:18.648Z</time></trkpt><trkpt lat="41.7237242" lon="13.7889559"><ele>1177.0</ele><time>2026-05-01T14:36:19.645Z</time></trkpt><trkpt lat="41.7237686" lon="13.788872"><ele>1175.6666666666667</ele><time>2026-05-01T14:36:20.638Z</time></trkpt><trkpt lat="41.7238499" lon="13.7888214"><ele>1174.3333333333333</ele><time>2026-05-01T14:36:21.646Z</time></trkpt><trkpt lat="41.7239602" lon="13.7888311"><ele>1173.0</ele><time>2026-05-01T14:36:22.637Z</time></trkpt><trkpt lat="41.7240931" lon="13.7888636"><ele>1173.0</ele><time>2026-05-01T14:36:23.643Z</time></trkpt><trkpt lat="41.7242508" lon="13.7888987"><ele>1173.0</ele><time>2026-05-01T14:36:24.653Z</time></trkpt><trkpt lat="41.7244274" lon="13.7889453"><ele>1173.0</ele><time>2026-05-01T14:36:25.638Z</time></trkpt><trkpt lat="41.7246148" lon="13.7889861"><ele>1172.0</ele><time>2026-05-01T14:36:26.636Z</time></trkpt><trkpt lat="41.7248074" lon="13.7889967"><ele>1171.0</ele><time>2026-05-01T14:36:27.639Z</time></trkpt><trkpt lat="41.7249876" lon="13.7890039"><ele>1170.0</ele><time>2026-05-01T14:36:28.64Z</time></trkpt><trkpt lat="41.7251589" lon="13.7890173"><ele>1170.0</ele><time>2026-05-01T14:36:29.636Z</time></trkpt><trkpt lat="41.725317" lon="13.7890354"><ele>1170.0</ele><time>2026-05-01T14:36:30.648Z</time></trkpt><trkpt lat="41.7254553" lon="13.789045"><ele>1170.0</ele><time>2026-05-01T14:36:31.632Z</time></trkpt><trkpt lat="41.7255748" lon="13.7890501"><ele>1170.0</ele><time>2026-05-01T14:36:32.639Z</time></trkpt><trkpt lat="41.7256864" lon="13.7890497"><ele>1170.0</ele><time>2026-05-01T14:36:33.632Z</time></trkpt><trkpt lat="41.7257968" lon="13.7890236"><ele>1170.0</ele><time>2026-05-01T14:36:34.633Z</time></trkpt><trkpt lat="41.7259023" lon="13.7889555"><ele>1170.0</ele><time>2026-05-01T14:36:35.635Z</time></trkpt><trkpt lat="41.7259957" lon="13.7888553"><ele>1170.0</ele><time>2026-05-01T14:36:36.634Z</time></trkpt><trkpt lat="41.7260523" lon="13.7886528"><ele>1177.3333333333333</ele><time>2026-05-01T14:36:37.637Z</time></trkpt><trkpt lat="41.7261031" lon="13.7884328"><ele>1184.6666666666665</ele><time>2026-05-01T14:36:38.636Z</time></trkpt><trkpt lat="41.7261573" lon="13.7882038"><ele>1192.0</ele><time>2026-05-01T14:36:39.627Z</time></trkpt><trkpt lat="41.7262117" lon="13.7879386"><ele>1186.0</ele><time>2026-05-01T14:36:40.63Z</time></trkpt><trkpt lat="41.7262524" lon="13.7876151"><ele>1180.0</ele><time>2026-05-01T14:36:41.643Z</time></trkpt><trkpt lat="41.726292" lon="13.7872767"><ele>1180.0</ele><time>2026-05-01T14:36:42.635Z</time></trkpt><trkpt lat="41.7263299" lon="13.7869517"><ele>1180.0</ele><time>2026-05-01T14:36:43.645Z</time></trkpt><trkpt lat="41.7263722" lon="13.7866391"><ele>1173.3333333333333</ele><time>2026-05-01T14:36:44.631Z</time></trkpt><trkpt lat="41.7264163" lon="13.7863388"><ele>1166.6666666666667</ele><time>2026-05-01T14:36:45.628Z</time></trkpt><trkpt lat="41.726469" lon="13.7860623"><ele>1160.0</ele><time>2026-05-01T14:36:46.635Z</time></trkpt><trkpt lat="41.726532" lon="13.7858159"><ele>1155.6666666666667</ele><time>2026-05-01T14:36:47.637Z</time></trkpt><trkpt lat="41.726592" lon="13.7855953"><ele>1151.3333333333333</ele><time>2026-05-01T14:36:48.631Z</time></trkpt><trkpt lat="41.7266414" lon="13.7854"><ele>1147.0</ele><time>2026-05-01T14:36:49.633Z</time></trkpt><trkpt lat="41.7266666" lon="13.7852188"><ele>1146.3333333333333</ele><time>2026-05-01T14:36:50.636Z</time></trkpt><trkpt lat="41.7266662" lon="13.7850175"><ele>1145.6666666666667</ele><time>2026-05-01T14:36:51.637Z</time></trkpt><trkpt lat="41.7266314" lon="13.7847905"><ele>1145.0</ele><time>2026-05-01T14:36:52.638Z</time></trkpt><trkpt lat="41.726579" lon="13.7845487"><ele>1147.6666666666667</ele><time>2026-05-01T14:36:53.627Z</time></trkpt><trkpt lat="41.726526" lon="13.7843086"><ele>1150.3333333333333</ele><time>2026-05-01T14:36:54.651Z</time></trkpt><trkpt lat="41.7264559" lon="13.7840834"><ele>1153.0</ele><time>2026-05-01T14:36:55.632Z</time></trkpt><trkpt lat="41.7263557" lon="13.7838753"><ele>1153.0</ele><time>2026-05-01T14:36:56.631Z</time></trkpt><trkpt lat="41.7262579" lon="13.7836779"><ele>1153.0</ele><time>2026-05-01T14:36:57.647Z</time></trkpt><trkpt lat="41.7261905" lon="13.7834968"><ele>1153.0</ele><time>2026-05-01T14:36:58.639Z</time></trkpt><trkpt lat="41.7261634" lon="13.7833302"><ele>1155.3333333333333</ele><time>2026-05-01T14:36:59.644Z</time></trkpt><trkpt lat="41.7261883" lon="13.7831479"><ele>1157.6666666666667</ele><time>2026-05-01T14:37:00.64Z</time></trkpt><trkpt lat="41.7262508" lon="13.7829401"><ele>1160.0</ele><time>2026-05-01T14:37:01.644Z</time></trkpt><trkpt lat="41.7263352" lon="13.7827244"><ele>1156.6666666666667</ele><time>2026-05-01T14:37:02.637Z</time></trkpt><trkpt lat="41.7264069" lon="13.7825133"><ele>1153.3333333333333</ele><time>2026-05-01T14:37:03.633Z</time></trkpt><trkpt lat="41.7264523" lon="13.7822937"><ele>1150.0</ele><time>2026-05-01T14:37:04.634Z</time></trkpt><trkpt lat="41.7264582" lon="13.7820548"><ele>1150.0</ele><time>2026-05-01T14:37:05.645Z</time></trkpt><trkpt lat="41.7264305" lon="13.7818004"><ele>1150.0</ele><time>2026-05-01T14:37:06.637Z</time></trkpt><trkpt lat="41.7263782" lon="13.7815356"><ele>1150.0</ele><time>2026-05-01T14:37:07.634Z</time></trkpt><trkpt lat="41.7263038" lon="13.7812779"><ele>1150.0</ele><time>2026-05-01T14:37:08.633Z</time></trkpt><trkpt lat="41.7262247" lon="13.7810593"><ele>1150.0</ele><time>2026-05-01T14:37:09.637Z</time></trkpt><trkpt lat="41.7261333" lon="13.7808582"><ele>1150.0</ele><time>2026-05-01T14:37:10.634Z</time></trkpt><trkpt lat="41.7260421" lon="13.7806844"><ele>1141.0</ele><time>2026-05-01T14:37:11.639Z</time></trkpt><trkpt lat="41.7259606" lon="13.7805293"><ele>1132.0</ele><time>2026-05-01T14:37:12.64Z</time></trkpt><trkpt lat="41.7259115" lon="13.7803918"><ele>1123.0</ele><time>2026-05-01T14:37:13.65Z</time></trkpt><trkpt lat="41.7258986" lon="13.7802729"><ele>1114.0</ele><time>2026-05-01T14:37:14.639Z</time></trkpt><trkpt lat="41.7259347" lon="13.7801625"><ele>1105.0</ele><time>2026-05-01T14:37:15.644Z</time></trkpt><trkpt lat="41.7260039" lon="13.7800622"><ele>1110.25</ele><time>2026-05-01T14:37:16.642Z</time></trkpt><trkpt lat="41.7261141" lon="13.7799797"><ele>1115.5</ele><time>2026-05-01T14:37:17.646Z</time></trkpt><trkpt lat="41.7262576" lon="13.7799486"><ele>1120.75</ele><time>2026-05-01T14:37:18.642Z</time></trkpt><trkpt lat="41.7264128" lon="13.7799345"><ele>1126.0</ele><time>2026-05-01T14:37:19.638Z</time></trkpt><trkpt lat="41.7265599" lon="13.7799287"><ele>1126.0</ele><time>2026-05-01T14:37:20.636Z</time></trkpt><trkpt lat="41.7266867" lon="13.7799189"><ele>1126.0</ele><time>2026-05-01T14:37:21.637Z</time></trkpt><trkpt lat="41.7268003" lon="13.7799033"><ele>1126.0</ele><time>2026-05-01T14:37:22.636Z</time></trkpt><trkpt lat="41.7268989" lon="13.7798861"><ele>1126.0</ele><time>2026-05-01T14:37:23.634Z</time></trkpt><trkpt lat="41.7269886" lon="13.7798466"><ele>1126.0</ele><time>2026-05-01T14:37:24.636Z</time></trkpt><trkpt lat="41.7270557" lon="13.7797714"><ele>1129.0</ele><time>2026-05-01T14:37:25.637Z</time></trkpt><trkpt lat="41.7270979" lon="13.7796649"><ele>1132.0</ele><time>2026-05-01T14:37:26.645Z</time></trkpt><trkpt lat="41.7271342" lon="13.7795529"><ele>1135.0</ele><time>2026-05-01T14:37:27.635Z</time></trkpt><trkpt lat="41.7271858" lon="13.7794629"><ele>1138.0</ele><time>2026-05-01T14:37:28.628Z</time></trkpt><trkpt lat="41.7272682" lon="13.7794038"><ele>1141.0</ele><time>2026-05-01T14:37:29.644Z</time></trkpt><trkpt lat="41.727367" lon="13.7793821"><ele>1141.0</ele><time>2026-05-01T14:37:30.644Z</time></trkpt><trkpt lat="41.727474" lon="13.7793909"><ele>1141.0</ele><time>2026-05-01T14:37:31.641Z</time></trkpt><trkpt lat="41.7275928" lon="13.7793975"><ele>1141.0</ele><time>2026-05-01T14:37:32.645Z</time></trkpt><trkpt lat="41.7277395" lon="13.7793944"><ele>1141.0</ele><time>2026-05-01T14:37:33.639Z</time></trkpt><trkpt lat="41.7279127" lon="13.7793942"><ele>1143.6666666666665</ele><time>2026-05-01T14:37:34.646Z</time></trkpt><trkpt lat="41.7281028" lon="13.7793835"><ele>1146.3333333333333</ele><time>2026-05-01T14:37:35.635Z</time></trkpt><trkpt lat="41.7283184" lon="13.779349"><ele>1149.0</ele><time>2026-05-01T14:37:36.647Z</time></trkpt><trkpt lat="41.7285627" lon="13.7792827"><ele>1130.5</ele><time>2026-05-01T14:37:37.633Z</time></trkpt><trkpt lat="41.7288109" lon="13.7791843"><ele>1112.0</ele><time>2026-05-01T14:37:38.635Z</time></trkpt><trkpt lat="41.7290487" lon="13.7791042"><ele>1112.0</ele><time>2026-05-01T14:37:39.641Z</time></trkpt><trkpt lat="41.7292617" lon="13.7790318"><ele>1112.0</ele><time>2026-05-01T14:37:40.637Z</time></trkpt><trkpt lat="41.7294524" lon="13.7789623"><ele>1112.0</ele><time>2026-05-01T14:37:41.646Z</time></trkpt><trkpt lat="41.7296341" lon="13.7788925"><ele>1116.6666666666667</ele><time>2026-05-01T14:37:42.636Z</time></trkpt><trkpt lat="41.72981" lon="13.7787876"><ele>1121.3333333333333</ele><time>2026-05-01T14:37:43.645Z</time></trkpt><trkpt lat="41.7299845" lon="13.7786563"><ele>1126.0</ele><time>2026-05-01T14:37:44.636Z</time></trkpt><trkpt lat="41.7301446" lon="13.7785203"><ele>1124.0</ele><time>2026-05-01T14:37:45.637Z</time></trkpt><trkpt lat="41.7302857" lon="13.7783983"><ele>1122.0</ele><time>2026-05-01T14:37:46.632Z</time></trkpt><trkpt lat="41.730404" lon="13.7782878"><ele>1120.0</ele><time>2026-05-01T14:37:47.629Z</time></trkpt><trkpt lat="41.7305" lon="13.7781684"><ele>1118.0</ele><time>2026-05-01T14:37:48.635Z</time></trkpt><trkpt lat="41.730572" lon="13.7780345"><ele>1118.0</ele><time>2026-05-01T14:37:49.631Z</time></trkpt><trkpt lat="41.7306153" lon="13.7778593"><ele>1118.0</ele><time>2026-05-01T14:37:50.627Z</time></trkpt><trkpt lat="41.7306375" lon="13.7776575"><ele>1118.0</ele><time>2026-05-01T14:37:51.625Z</time></trkpt><trkpt lat="41.7306645" lon="13.7774704"><ele>1118.0</ele><time>2026-05-01T14:37:52.632Z</time></trkpt><trkpt lat="41.7306897" lon="13.7772955"><ele>1115.0</ele><time>2026-05-01T14:37:53.635Z</time></trkpt><trkpt lat="41.7307135" lon="13.7771296"><ele>1112.0</ele><time>2026-05-01T14:37:54.635Z</time></trkpt><trkpt lat="41.7307367" lon="13.7769855"><ele>1109.0</ele><time>2026-05-01T14:37:55.637Z</time></trkpt><trkpt lat="41.730723" lon="13.7768321"><ele>1106.0</ele><time>2026-05-01T14:37:56.63Z</time></trkpt><trkpt lat="41.7306801" lon="13.7766697"><ele>1106.0</ele><time>2026-05-01T14:37:57.626Z</time></trkpt><trkpt lat="41.7306142" lon="13.7765122"><ele>1106.0</ele><time>2026-05-01T14:37:58.638Z</time></trkpt><trkpt lat="41.7305292" lon="13.7763575"><ele>1106.0</ele><time>2026-05-01T14:37:59.638Z</time></trkpt><trkpt lat="41.7304078" lon="13.7762225"><ele>1106.0</ele><time>2026-05-01T14:38:00.634Z</time></trkpt><trkpt lat="41.7302828" lon="13.7761089"><ele>1101.75</ele><time>2026-05-01T14:38:01.646Z</time></trkpt><trkpt lat="41.7301645" lon="13.7759833"><ele>1097.5</ele><time>2026-05-01T14:38:02.636Z</time></trkpt><trkpt lat="41.730067" lon="13.775847"><ele>1093.25</ele><time>2026-05-01T14:38:03.631Z</time></trkpt><trkpt lat="41.7299835" lon="13.7757067"><ele>1089.0</ele><time>2026-05-01T14:38:04.641Z</time></trkpt><trkpt lat="41.7299148" lon="13.7755481"><ele>1089.0</ele><time>2026-05-01T14:38:05.638Z</time></trkpt><trkpt lat="41.7298582" lon="13.7753612"><ele>1089.0</ele><time>2026-05-01T14:38:06.651Z</time></trkpt><trkpt lat="41.7297983" lon="13.7751625"><ele>1089.0</ele><time>2026-05-01T14:38:07.634Z</time></trkpt><trkpt lat="41.7297287" lon="13.7749757"><ele>1095.5</ele><time>2026-05-01T14:38:08.636Z</time></trkpt><trkpt lat="41.7296531" lon="13.7748092"><ele>1102.0</ele><time>2026-05-01T14:38:09.635Z</time></trkpt><trkpt lat="41.7295737" lon="13.774665"><ele>1108.5</ele><time>2026-05-01T14:38:10.641Z</time></trkpt><trkpt lat="41.7294699" lon="13.7745355"><ele>1115.0</ele><time>2026-05-01T14:38:11.67Z</time></trkpt><trkpt lat="41.729325" lon="13.7743974"><ele>1104.0</ele><time>2026-05-01T14:38:12.632Z</time></trkpt><trkpt lat="41.72915" lon="13.7742461"><ele>1093.0</ele><time>2026-05-01T14:38:13.633Z</time></trkpt><trkpt lat="41.7289332" lon="13.7740759"><ele>1093.0</ele><time>2026-05-01T14:38:14.639Z</time></trkpt><trkpt lat="41.7286989" lon="13.7738946"><ele>1093.0</ele><time>2026-05-01T14:38:15.639Z</time></trkpt><trkpt lat="41.7284847" lon="13.7737128"><ele>1092.6666666666665</ele><time>2026-05-01T14:38:16.638Z</time></trkpt><trkpt lat="41.7282933" lon="13.7735486"><ele>1092.3333333333333</ele><time>2026-05-01T14:38:17.631Z</time></trkpt><trkpt lat="41.7281165" lon="13.773402"><ele>1092.0</ele><time>2026-05-01T14:38:18.654Z</time></trkpt><trkpt lat="41.7279555" lon="13.7732772"><ele>1092.0</ele><time>2026-05-01T14:38:19.638Z</time></trkpt><trkpt lat="41.7278248" lon="13.7731714"><ele>1092.0</ele><time>2026-05-01T14:38:20.639Z</time></trkpt><trkpt lat="41.7277108" lon="13.7730765"><ele>1092.0</ele><time>2026-05-01T14:38:21.634Z</time></trkpt><trkpt lat="41.7276154" lon="13.7729592"><ele>1092.0</ele><time>2026-05-01T14:38:22.639Z</time></trkpt><trkpt lat="41.7275473" lon="13.7728237"><ele>1085.25</ele><time>2026-05-01T14:38:23.631Z</time></trkpt><trkpt lat="41.7275113" lon="13.7726826"><ele>1078.5</ele><time>2026-05-01T14:38:24.637Z</time></trkpt><trkpt lat="41.7275127" lon="13.7725354"><ele>1071.75</ele><time>2026-05-01T14:38:25.641Z</time></trkpt><trkpt lat="41.7275539" lon="13.7723823"><ele>1065.0</ele><time>2026-05-01T14:38:26.639Z</time></trkpt><trkpt lat="41.7276361" lon="13.7722209"><ele>1068.3333333333333</ele><time>2026-05-01T14:38:27.652Z</time></trkpt><trkpt lat="41.727731" lon="13.7720657"><ele>1071.6666666666665</ele><time>2026-05-01T14:38:28.635Z</time></trkpt><trkpt lat="41.7278337" lon="13.7719149"><ele>1075.0</ele><time>2026-05-01T14:38:29.643Z</time></trkpt><trkpt lat="41.7279521" lon="13.7717665"><ele>1075.0</ele><time>2026-05-01T14:38:30.645Z</time></trkpt><trkpt lat="41.7280824" lon="13.7716309"><ele>1075.0</ele><time>2026-05-01T14:38:31.643Z</time></trkpt><trkpt lat="41.7282282" lon="13.7714981"><ele>1075.0</ele><time>2026-05-01T14:38:32.637Z</time></trkpt><trkpt lat="41.7283865" lon="13.7713667"><ele>1075.0</ele><time>2026-05-01T14:38:33.64Z</time></trkpt><trkpt lat="41.7285479" lon="13.7712374"><ele>1075.0</ele><time>2026-05-01T14:38:34.644Z</time></trkpt><trkpt lat="41.7287005" lon="13.7711108"><ele>1075.0</ele><time>2026-05-01T14:38:35.646Z</time></trkpt><trkpt lat="41.7288354" lon="13.770997"><ele>1074.75</ele><time>2026-05-01T14:38:36.64Z</time></trkpt><trkpt lat="41.7289456" lon="13.7708819"><ele>1074.5</ele><time>2026-05-01T14:38:37.657Z</time></trkpt><trkpt lat="41.7290305" lon="13.7707285"><ele>1074.25</ele><time>2026-05-01T14:38:38.647Z</time></trkpt><trkpt lat="41.7290981" lon="13.7705439"><ele>1074.0</ele><time>2026-05-01T14:38:39.645Z</time></trkpt><trkpt lat="41.7291482" lon="13.770326"><ele>1068.0</ele><time>2026-05-01T14:38:40.642Z</time></trkpt><trkpt lat="41.729186" lon="13.7700807"><ele>1062.0</ele><time>2026-05-01T14:38:41.641Z</time></trkpt><trkpt lat="41.7292072" lon="13.769841"><ele>1056.0</ele><time>2026-05-01T14:38:42.641Z</time></trkpt><trkpt lat="41.7292194" lon="13.7696123"><ele>1056.0</ele><time>2026-05-01T14:38:43.667Z</time></trkpt><trkpt lat="41.7292331" lon="13.7694056"><ele>1056.0</ele><time>2026-05-01T14:38:44.64Z</time></trkpt><trkpt lat="41.7292546" lon="13.7692099"><ele>1056.0</ele><time>2026-05-01T14:38:45.645Z</time></trkpt><trkpt lat="41.7292969" lon="13.7690206"><ele>1053.3333333333333</ele><time>2026-05-01T14:38:46.635Z</time></trkpt><trkpt lat="41.72936" lon="13.7688359"><ele>1050.6666666666665</ele><time>2026-05-01T14:38:47.645Z</time></trkpt><trkpt lat="41.7294365" lon="13.7686551"><ele>1048.0</ele><time>2026-05-01T14:38:48.639Z</time></trkpt><trkpt lat="41.729524" lon="13.7684931"><ele>1054.75</ele><time>2026-05-01T14:38:49.631Z</time></trkpt><trkpt lat="41.7295983" lon="13.7683467"><ele>1061.5</ele><time>2026-05-01T14:38:50.638Z</time></trkpt><trkpt lat="41.7296414" lon="13.7682034"><ele>1068.25</ele><time>2026-05-01T14:38:51.636Z</time></trkpt><trkpt lat="41.7296453" lon="13.7680592"><ele>1075.0</ele><time>2026-05-01T14:38:52.659Z</time></trkpt><trkpt lat="41.7296147" lon="13.7679179"><ele>1075.0</ele><time>2026-05-01T14:38:53.631Z</time></trkpt><trkpt lat="41.7295471" lon="13.7677553"><ele>1075.0</ele><time>2026-05-01T14:38:54.633Z</time></trkpt><trkpt lat="41.7294624" lon="13.7676078"><ele>1075.0</ele><time>2026-05-01T14:38:55.642Z</time></trkpt><trkpt lat="41.7294479" lon="13.7674014"><ele>1075.0</ele><time>2026-05-01T14:38:56.637Z</time></trkpt><trkpt lat="41.7294345" lon="13.7672019"><ele>1077.0</ele><time>2026-05-01T14:38:57.643Z</time></trkpt><trkpt lat="41.7294087" lon="13.7670229"><ele>1079.0</ele><time>2026-05-01T14:38:58.63Z</time></trkpt><trkpt lat="41.7293358" lon="13.7668506"><ele>1081.0</ele><time>2026-05-01T14:38:59.642Z</time></trkpt><trkpt lat="41.7292086" lon="13.7666767"><ele>1071.0</ele><time>2026-05-01T14:39:00.63Z</time></trkpt><trkpt lat="41.7290522" lon="13.7665077"><ele>1061.0</ele><time>2026-05-01T14:39:01.661Z</time></trkpt><trkpt lat="41.7288988" lon="13.766313"><ele>1051.0</ele><time>2026-05-01T14:39:02.638Z</time></trkpt><trkpt lat="41.7287604" lon="13.7661084"><ele>1045.6666666666665</ele><time>2026-05-01T14:39:03.635Z</time></trkpt><trkpt lat="41.7286325" lon="13.7659159"><ele>1040.3333333333333</ele><time>2026-05-01T14:39:04.64Z</time></trkpt><trkpt lat="41.7285004" lon="13.7657386"><ele>1035.0</ele><time>2026-05-01T14:39:05.634Z</time></trkpt><trkpt lat="41.7283723" lon="13.7655821"><ele>1035.0</ele><time>2026-05-01T14:39:06.647Z</time></trkpt><trkpt lat="41.7282538" lon="13.7654286"><ele>1035.0</ele><time>2026-05-01T14:39:07.644Z</time></trkpt><trkpt lat="41.7281518" lon="13.7652871"><ele>1035.0</ele><time>2026-05-01T14:39:08.643Z</time></trkpt><trkpt lat="41.7280612" lon="13.7651446"><ele>1041.3333333333333</ele><time>2026-05-01T14:39:09.644Z</time></trkpt><trkpt lat="41.7279854" lon="13.7649895"><ele>1047.6666666666665</ele><time>2026-05-01T14:39:10.64Z</time></trkpt><trkpt lat="41.727927" lon="13.7648081"><ele>1054.0</ele><time>2026-05-01T14:39:11.643Z</time></trkpt><trkpt lat="41.7278872" lon="13.7645928"><ele>1057.0</ele><time>2026-05-01T14:39:12.64Z</time></trkpt><trkpt lat="41.7278621" lon="13.7643583"><ele>1060.0</ele><time>2026-05-01T14:39:13.635Z</time></trkpt><trkpt lat="41.7278457" lon="13.7640829"><ele>1063.0</ele><time>2026-05-01T14:39:14.644Z</time></trkpt><trkpt lat="41.7278307" lon="13.7637914"><ele>1064.0</ele><time>2026-05-01T14:39:15.643Z</time></trkpt><trkpt lat="41.7278099" lon="13.763485"><ele>1065.0</ele><time>2026-05-01T14:39:16.638Z</time></trkpt><trkpt lat="41.7277881" lon="13.7631677"><ele>1065.0</ele><time>2026-05-01T14:39:17.652Z</time></trkpt><trkpt lat="41.7277682" lon="13.7628504"><ele>1065.0</ele><time>2026-05-01T14:39:18.634Z</time></trkpt><trkpt lat="41.7277525" lon="13.7625467"><ele>1064.3333333333333</ele><time>2026-05-01T14:39:19.639Z</time></trkpt><trkpt lat="41.7277376" lon="13.7622565"><ele>1063.6666666666665</ele><time>2026-05-01T14:39:20.641Z</time></trkpt><trkpt lat="41.7277254" lon="13.7619845"><ele>1063.0</ele><time>2026-05-01T14:39:21.643Z</time></trkpt><trkpt lat="41.7277222" lon="13.7617197"><ele>1061.3333333333333</ele><time>2026-05-01T14:39:22.645Z</time></trkpt><trkpt lat="41.7277195" lon="13.7614756"><ele>1059.6666666666667</ele><time>2026-05-01T14:39:23.636Z</time></trkpt><trkpt lat="41.7277187" lon="13.7612495"><ele>1058.0</ele><time>2026-05-01T14:39:24.64Z</time></trkpt><trkpt lat="41.7277317" lon="13.7610345"><ele>1055.5</ele><time>2026-05-01T14:39:25.646Z</time></trkpt><trkpt lat="41.7277608" lon="13.7608367"><ele>1053.0</ele><time>2026-05-01T14:39:26.642Z</time></trkpt><trkpt lat="41.7278007" lon="13.7606539"><ele>1050.5</ele><time>2026-05-01T14:39:27.637Z</time></trkpt><trkpt lat="41.7278513" lon="13.7604772"><ele>1048.0</ele><time>2026-05-01T14:39:28.649Z</time></trkpt><trkpt lat="41.7279243" lon="13.7603046"><ele>1039.3333333333333</ele><time>2026-05-01T14:39:29.642Z</time></trkpt><trkpt lat="41.7280174" lon="13.7601465"><ele>1030.6666666666667</ele><time>2026-05-01T14:39:30.643Z</time></trkpt><trkpt lat="41.7281202" lon="13.7599887"><ele>1022.0</ele><time>2026-05-01T14:39:31.643Z</time></trkpt><trkpt lat="41.7282254" lon="13.7598443"><ele>1022.0</ele><time>2026-05-01T14:39:32.649Z</time></trkpt><trkpt lat="41.7283446" lon="13.7597064"><ele>1022.0</ele><time>2026-05-01T14:39:33.643Z</time></trkpt><trkpt lat="41.7284844" lon="13.7595709"><ele>1022.0</ele><time>2026-05-01T14:39:34.64Z</time></trkpt><trkpt lat="41.7286325" lon="13.7594314"><ele>1022.0</ele><time>2026-05-01T14:39:35.642Z</time></trkpt><trkpt lat="41.7287719" lon="13.7592675"><ele>1022.0</ele><time>2026-05-01T14:39:36.636Z</time></trkpt><trkpt lat="41.7289204" lon="13.7590701"><ele>1022.0</ele><time>2026-05-01T14:39:37.661Z</time></trkpt><trkpt lat="41.7290793" lon="13.7588575"><ele>1022.0</ele><time>2026-05-01T14:39:38.639Z</time></trkpt><trkpt lat="41.7292364" lon="13.7586522"><ele>1022.0</ele><time>2026-05-01T14:39:39.643Z</time></trkpt><trkpt lat="41.7293762" lon="13.7584696"><ele>1022.0</ele><time>2026-05-01T14:39:40.642Z</time></trkpt><trkpt lat="41.7294997" lon="13.758301"><ele>1020.0</ele><time>2026-05-01T14:39:41.64Z</time></trkpt><trkpt lat="41.7296282" lon="13.7581448"><ele>1018.0</ele><time>2026-05-01T14:39:42.647Z</time></trkpt><trkpt lat="41.7297692" lon="13.7580026"><ele>1016.0</ele><time>2026-05-01T14:39:43.634Z</time></trkpt><trkpt lat="41.729916" lon="13.7578653"><ele>1016.0</ele><time>2026-05-01T14:39:44.639Z</time></trkpt><trkpt lat="41.7300587" lon="13.7577348"><ele>1016.0</ele><time>2026-05-01T14:39:45.639Z</time></trkpt><trkpt lat="41.7301852" lon="13.7576007"><ele>1016.0</ele><time>2026-05-01T14:39:46.638Z</time></trkpt><trkpt lat="41.7302934" lon="13.7574558"><ele>1016.75</ele><time>2026-05-01T14:39:47.639Z</time></trkpt><trkpt lat="41.7303818" lon="13.7572973"><ele>1017.5</ele><time>2026-05-01T14:39:48.64Z</time></trkpt><trkpt lat="41.7304445" lon="13.7571277"><ele>1018.25</ele><time>2026-05-01T14:39:49.644Z</time></trkpt><trkpt lat="41.7304895" lon="13.7569403"><ele>1019.0</ele><time>2026-05-01T14:39:50.634Z</time></trkpt><trkpt lat="41.7305204" lon="13.7567338"><ele>1014.0</ele><time>2026-05-01T14:39:51.636Z</time></trkpt><trkpt lat="41.7305233" lon="13.7565182"><ele>1009.0</ele><time>2026-05-01T14:39:52.642Z</time></trkpt><trkpt lat="41.7305131" lon="13.7563065"><ele>1004.0</ele><time>2026-05-01T14:39:53.651Z</time></trkpt><trkpt lat="41.7304811" lon="13.7561034"><ele>1006.0</ele><time>2026-05-01T14:39:54.638Z</time></trkpt><trkpt lat="41.7304248" lon="13.755914"><ele>1008.0</ele><time>2026-05-01T14:39:55.666Z</time></trkpt><trkpt lat="41.7303465" lon="13.7557335"><ele>1010.0</ele><time>2026-05-01T14:39:56.636Z</time></trkpt><trkpt lat="41.7302323" lon="13.7555468"><ele>1011.6666666666667</ele><time>2026-05-01T14:39:57.64Z</time></trkpt><trkpt lat="41.7300873" lon="13.7553743"><ele>1013.3333333333333</ele><time>2026-05-01T14:39:58.635Z</time></trkpt><trkpt lat="41.7299242" lon="13.7552287"><ele>1015.0</ele><time>2026-05-01T14:39:59.638Z</time></trkpt><trkpt lat="41.7297559" lon="13.7551103"><ele>1015.0</ele><time>2026-05-01T14:40:00.636Z</time></trkpt><trkpt lat="41.7296007" lon="13.7549945"><ele>1015.0</ele><time>2026-05-01T14:40:01.642Z</time></trkpt><trkpt lat="41.7294597" lon="13.7548739"><ele>1015.0</ele><time>2026-05-01T14:40:02.661Z</time></trkpt><trkpt lat="41.7293212" lon="13.7547324"><ele>1014.3333333333333</ele><time>2026-05-01T14:40:03.636Z</time></trkpt><trkpt lat="41.7291825" lon="13.7545718"><ele>1013.6666666666667</ele><time>2026-05-01T14:40:04.625Z</time></trkpt><trkpt lat="41.7290521" lon="13.7543913"><ele>1013.0</ele><time>2026-05-01T14:40:05.646Z</time></trkpt><trkpt lat="41.7289344" lon="13.7541871"><ele>1013.0</ele><time>2026-05-01T14:40:06.64Z</time></trkpt><trkpt lat="41.7288364" lon="13.7539628"><ele>1013.0</ele><time>2026-05-01T14:40:07.641Z</time></trkpt><trkpt lat="41.7287559" lon="13.7537213"><ele>1013.0</ele><time>2026-05-01T14:40:08.65Z</time></trkpt><trkpt lat="41.7286936" lon="13.7534517"><ele>1022.5</ele><time>2026-05-01T14:40:09.644Z</time></trkpt><trkpt lat="41.728647" lon="13.7531614"><ele>1032.0</ele><time>2026-05-01T14:40:10.639Z</time></trkpt><trkpt lat="41.7286117" lon="13.7528463"><ele>1038.0</ele><time>2026-05-01T14:40:11.638Z</time></trkpt><trkpt lat="41.7285759" lon="13.7524967"><ele>1044.0</ele><time>2026-05-01T14:40:12.638Z</time></trkpt><trkpt lat="41.7285357" lon="13.7521347"><ele>1020.0</ele><time>2026-05-01T14:40:13.64Z</time></trkpt><trkpt lat="41.7284933" lon="13.7517721"><ele>996.0</ele><time>2026-05-01T14:40:14.644Z</time></trkpt><trkpt lat="41.7284516" lon="13.7514351"><ele>996.0</ele><time>2026-05-01T14:40:15.633Z</time></trkpt><trkpt lat="41.7284151" lon="13.7511246"><ele>996.0</ele><time>2026-05-01T14:40:16.637Z</time></trkpt><trkpt lat="41.7283792" lon="13.75084"><ele>999.3333333333333</ele><time>2026-05-01T14:40:17.637Z</time></trkpt><trkpt lat="41.7283504" lon="13.7505847"><ele>1002.6666666666666</ele><time>2026-05-01T14:40:18.63Z</time></trkpt><trkpt lat="41.7283257" lon="13.7503446"><ele>1006.0</ele><time>2026-05-01T14:40:19.654Z</time></trkpt><trkpt lat="41.7283185" lon="13.7501252"><ele>1008.0</ele><time>2026-05-01T14:40:20.644Z</time></trkpt><trkpt lat="41.7283388" lon="13.7499136"><ele>1010.0</ele><time>2026-05-01T14:40:21.644Z</time></trkpt><trkpt lat="41.7283828" lon="13.7497067"><ele>1012.0</ele><time>2026-05-01T14:40:22.639Z</time></trkpt><trkpt lat="41.7284491" lon="13.749502"><ele>1008.6666666666666</ele><time>2026-05-01T14:40:23.649Z</time></trkpt><trkpt lat="41.728528" lon="13.7492858"><ele>1005.3333333333333</ele><time>2026-05-01T14:40:24.635Z</time></trkpt><trkpt lat="41.7286228" lon="13.749071"><ele>1002.0</ele><time>2026-05-01T14:40:25.642Z</time></trkpt><trkpt lat="41.7287201" lon="13.7488548"><ele>1008.0</ele><time>2026-05-01T14:40:26.643Z</time></trkpt><trkpt lat="41.7288234" lon="13.7486516"><ele>1014.0</ele><time>2026-05-01T14:40:27.628Z</time></trkpt><trkpt lat="41.728934" lon="13.7484588"><ele>1020.0</ele><time>2026-05-01T14:40:28.634Z</time></trkpt><trkpt lat="41.7290605" lon="13.7482834"><ele>1020.0</ele><time>2026-05-01T14:40:29.639Z</time></trkpt><trkpt lat="41.7292054" lon="13.7481294"><ele>1020.0</ele><time>2026-05-01T14:40:30.659Z</time></trkpt><trkpt lat="41.7293625" lon="13.7479864"><ele>1020.0</ele><time>2026-05-01T14:40:31.636Z</time></trkpt><trkpt lat="41.7295292" lon="13.7478631"><ele>1020.3333333333333</ele><time>2026-05-01T14:40:32.642Z</time></trkpt><trkpt lat="41.7297048" lon="13.7477511"><ele>1020.6666666666666</ele><time>2026-05-01T14:40:33.65Z</time></trkpt><trkpt lat="41.7298889" lon="13.7476582"><ele>1021.0</ele><time>2026-05-01T14:40:34.641Z</time></trkpt><trkpt lat="41.7300886" lon="13.7475912"><ele>1023.6666666666666</ele><time>2026-05-01T14:40:35.64Z</time></trkpt><trkpt lat="41.7302988" lon="13.7475366"><ele>1026.3333333333333</ele><time>2026-05-01T14:40:36.631Z</time></trkpt><trkpt lat="41.7305112" lon="13.747488"><ele>1029.0</ele><time>2026-05-01T14:40:37.639Z</time></trkpt><trkpt lat="41.730724" lon="13.7474386"><ele>1029.0</ele><time>2026-05-01T14:40:38.635Z</time></trkpt><trkpt lat="41.7309306" lon="13.7473835"><ele>1029.0</ele><time>2026-05-01T14:40:39.65Z</time></trkpt><trkpt lat="41.7311314" lon="13.7473204"><ele>1029.0</ele><time>2026-05-01T14:40:40.643Z</time></trkpt><trkpt lat="41.7313325" lon="13.7472395"><ele>1030.6666666666667</ele><time>2026-05-01T14:40:41.654Z</time></trkpt><trkpt lat="41.7315285" lon="13.7471245"><ele>1032.3333333333335</ele><time>2026-05-01T14:40:42.643Z</time></trkpt><trkpt lat="41.7317304" lon="13.7469848"><ele>1034.0</ele><time>2026-05-01T14:40:43.64Z</time></trkpt><trkpt lat="41.7319303" lon="13.7468379"><ele>1034.0</ele><time>2026-05-01T14:40:44.632Z</time></trkpt><trkpt lat="41.7321214" lon="13.7466918"><ele>1034.0</ele><time>2026-05-01T14:40:45.642Z</time></trkpt><trkpt lat="41.7323006" lon="13.746563"><ele>1034.0</ele><time>2026-05-01T14:40:46.647Z</time></trkpt><trkpt lat="41.732466" lon="13.7464368"><ele>1034.0</ele><time>2026-05-01T14:40:47.635Z</time></trkpt><trkpt lat="41.7326331" lon="13.7463324"><ele>1034.0</ele><time>2026-05-01T14:40:48.636Z</time></trkpt><trkpt lat="41.7327989" lon="13.7462446"><ele>1034.0</ele><time>2026-05-01T14:40:49.647Z</time></trkpt><trkpt lat="41.7329795" lon="13.746168"><ele>1041.0</ele><time>2026-05-01T14:40:50.638Z</time></trkpt><trkpt lat="41.7331669" lon="13.7461134"><ele>1048.0</ele><time>2026-05-01T14:40:51.644Z</time></trkpt><trkpt lat="41.7333622" lon="13.7460814"><ele>1055.0</ele><time>2026-05-01T14:40:52.645Z</time></trkpt><trkpt lat="41.7335595" lon="13.7460625"><ele>1056.3333333333335</ele><time>2026-05-01T14:40:53.635Z</time></trkpt><trkpt lat="41.7337605" lon="13.7460638"><ele>1057.6666666666667</ele><time>2026-05-01T14:40:54.641Z</time></trkpt><trkpt lat="41.733964" lon="13.7460761"><ele>1059.0</ele><time>2026-05-01T14:40:55.638Z</time></trkpt><trkpt lat="41.7341708" lon="13.7460898"><ele>1059.0</ele><time>2026-05-01T14:40:56.633Z</time></trkpt><trkpt lat="41.7343766" lon="13.7461065"><ele>1059.0</ele><time>2026-05-01T14:40:57.642Z</time></trkpt><trkpt lat="41.73457" lon="13.7461205"><ele>1059.0</ele><time>2026-05-01T14:40:58.628Z</time></trkpt><trkpt lat="41.7347507" lon="13.7461375"><ele>1058.3333333333333</ele><time>2026-05-01T14:40:59.634Z</time></trkpt><trkpt lat="41.7349184" lon="13.7461522"><ele>1057.6666666666665</ele><time>2026-05-01T14:41:00.633Z</time></trkpt><trkpt lat="41.7350772" lon="13.7461705"><ele>1057.0</ele><time>2026-05-01T14:41:01.634Z</time></trkpt><trkpt lat="41.735234" lon="13.7461889"><ele>1056.75</ele><time>2026-05-01T14:41:02.639Z</time></trkpt><trkpt lat="41.735385" lon="13.7461957"><ele>1056.5</ele><time>2026-05-01T14:41:03.643Z</time></trkpt><trkpt lat="41.7355322" lon="13.7461946"><ele>1056.25</ele><time>2026-05-01T14:41:04.643Z</time></trkpt><trkpt lat="41.7356771" lon="13.7461882"><ele>1056.0</ele><time>2026-05-01T14:41:05.638Z</time></trkpt><trkpt lat="41.7358123" lon="13.7461494"><ele>1056.0</ele><time>2026-05-01T14:41:06.642Z</time></trkpt><trkpt lat="41.7359382" lon="13.7460791"><ele>1056.0</ele><time>2026-05-01T14:41:07.632Z</time></trkpt><trkpt lat="41.7360585" lon="13.7459841"><ele>1056.0</ele><time>2026-05-01T14:41:08.634Z</time></trkpt><trkpt lat="41.7361668" lon="13.7458559"><ele>1056.0</ele><time>2026-05-01T14:41:09.636Z</time></trkpt><trkpt lat="41.7362649" lon="13.7457035"><ele>1049.0</ele><time>2026-05-01T14:41:10.638Z</time></trkpt><trkpt lat="41.7363544" lon="13.7455344"><ele>1042.0</ele><time>2026-05-01T14:41:11.636Z</time></trkpt><trkpt lat="41.7364283" lon="13.7453511"><ele>1035.0</ele><time>2026-05-01T14:41:12.641Z</time></trkpt><trkpt lat="41.736479" lon="13.745143"><ele>1034.6666666666667</ele><time>2026-05-01T14:41:13.644Z</time></trkpt><trkpt lat="41.736516" lon="13.7449225"><ele>1034.3333333333335</ele><time>2026-05-01T14:41:14.634Z</time></trkpt><trkpt lat="41.7365415" lon="13.7446807"><ele>1034.0</ele><time>2026-05-01T14:41:15.641Z</time></trkpt><trkpt lat="41.7365655" lon="13.7444216"><ele>1034.6666666666667</ele><time>2026-05-01T14:41:16.633Z</time></trkpt><trkpt lat="41.7366076" lon="13.744162"><ele>1035.3333333333333</ele><time>2026-05-01T14:41:17.64Z</time></trkpt><trkpt lat="41.7366586" lon="13.7439005"><ele>1036.0</ele><time>2026-05-01T14:41:18.633Z</time></trkpt><trkpt lat="41.7367238" lon="13.7436394"><ele>1035.0</ele><time>2026-05-01T14:41:19.643Z</time></trkpt><trkpt lat="41.7368063" lon="13.7433879"><ele>1034.0</ele><time>2026-05-01T14:41:20.637Z</time></trkpt><trkpt lat="41.7369003" lon="13.7431409"><ele>1033.0</ele><time>2026-05-01T14:41:21.636Z</time></trkpt><trkpt lat="41.7370039" lon="13.742929"><ele>1038.0</ele><time>2026-05-01T14:41:22.644Z</time></trkpt><trkpt lat="41.737109" lon="13.7427386"><ele>1043.0</ele><time>2026-05-01T14:41:23.644Z</time></trkpt><trkpt lat="41.7372192" lon="13.7425626"><ele>1048.0</ele><time>2026-05-01T14:41:24.639Z</time></trkpt><trkpt lat="41.7373312" lon="13.7423992"><ele>1048.0</ele><time>2026-05-01T14:41:25.636Z</time></trkpt><trkpt lat="41.7374477" lon="13.7422483"><ele>1048.0</ele><time>2026-05-01T14:41:26.64Z</time></trkpt><trkpt lat="41.7375656" lon="13.7421061"><ele>1048.0</ele><time>2026-05-01T14:41:27.645Z</time></trkpt><trkpt lat="41.7376992" lon="13.7419713"><ele>1048.0</ele><time>2026-05-01T14:41:28.639Z</time></trkpt><trkpt lat="41.7378429" lon="13.7418406"><ele>1048.0</ele><time>2026-05-01T14:41:29.633Z</time></trkpt><trkpt lat="41.737998" lon="13.7417081"><ele>1048.0</ele><time>2026-05-01T14:41:30.651Z</time></trkpt><trkpt lat="41.7381587" lon="13.741594"><ele>1048.0</ele><time>2026-05-01T14:41:31.636Z</time></trkpt><trkpt lat="41.7383161" lon="13.7414944"><ele>1048.0</ele><time>2026-05-01T14:41:32.644Z</time></trkpt><trkpt lat="41.7384775" lon="13.7414014"><ele>1048.0</ele><time>2026-05-01T14:41:33.642Z</time></trkpt><trkpt lat="41.7386373" lon="13.7413092"><ele>1047.3333333333333</ele><time>2026-05-01T14:41:34.645Z</time></trkpt><trkpt lat="41.7388015" lon="13.7412051"><ele>1046.6666666666667</ele><time>2026-05-01T14:41:35.636Z</time></trkpt><trkpt lat="41.738964" lon="13.7410885"><ele>1046.0</ele><time>2026-05-01T14:41:36.647Z</time></trkpt><trkpt lat="41.7391196" lon="13.7409535"><ele>1046.0</ele><time>2026-05-01T14:41:37.635Z</time></trkpt><trkpt lat="41.7392711" lon="13.740814"><ele>1046.0</ele><time>2026-05-01T14:41:38.658Z</time></trkpt><trkpt lat="41.7394119" lon="13.7406661"><ele>1046.0</ele><time>2026-05-01T14:41:39.653Z</time></trkpt><trkpt lat="41.7395497" lon="13.7404996"><ele>1045.6666666666667</ele><time>2026-05-01T14:41:40.651Z</time></trkpt><trkpt lat="41.739675" lon="13.7403037"><ele>1045.3333333333333</ele><time>2026-05-01T14:41:41.643Z</time></trkpt><trkpt lat="41.7397938" lon="13.7400655"><ele>1045.0</ele><time>2026-05-01T14:41:42.644Z</time></trkpt><trkpt lat="41.7399075" lon="13.7398001"><ele>1045.0</ele><time>2026-05-01T14:41:43.643Z</time></trkpt><trkpt lat="41.7400206" lon="13.7395147"><ele>1045.0</ele><time>2026-05-01T14:41:44.646Z</time></trkpt><trkpt lat="41.7401376" lon="13.739221"><ele>1057.0</ele><time>2026-05-01T14:41:45.65Z</time></trkpt><trkpt lat="41.7402508" lon="13.7389447"><ele>1069.0</ele><time>2026-05-01T14:41:46.645Z</time></trkpt><trkpt lat="41.7403577" lon="13.738678"><ele>1062.6666666666665</ele><time>2026-05-01T14:41:47.656Z</time></trkpt><trkpt lat="41.7404664" lon="13.7384193"><ele>1056.3333333333333</ele><time>2026-05-01T14:41:48.642Z</time></trkpt><trkpt lat="41.7405658" lon="13.738168"><ele>1050.0</ele><time>2026-05-01T14:41:49.651Z</time></trkpt><trkpt lat="41.7406463" lon="13.7379167"><ele>1043.6666666666667</ele><time>2026-05-01T14:41:50.636Z</time></trkpt><trkpt lat="41.7406976" lon="13.7376513"><ele>1037.3333333333335</ele><time>2026-05-01T14:41:51.641Z</time></trkpt><trkpt lat="41.7407314" lon="13.7373855"><ele>1031.0</ele><time>2026-05-01T14:41:52.638Z</time></trkpt><trkpt lat="41.7407593" lon="13.7371346"><ele>1031.0</ele><time>2026-05-01T14:41:53.643Z</time></trkpt><trkpt lat="41.7407903" lon="13.736912"><ele>1031.0</ele><time>2026-05-01T14:41:54.644Z</time></trkpt><trkpt lat="41.74084" lon="13.7367082"><ele>1031.0</ele><time>2026-05-01T14:41:55.65Z</time></trkpt><trkpt lat="41.7409075" lon="13.7365072"><ele>1033.0</ele><time>2026-05-01T14:41:56.637Z</time></trkpt><trkpt lat="41.7410018" lon="13.7363304"><ele>1035.0</ele><time>2026-05-01T14:41:57.643Z</time></trkpt><trkpt lat="41.7411233" lon="13.7361844"><ele>1037.0</ele><time>2026-05-01T14:41:58.64Z</time></trkpt><trkpt lat="41.741259" lon="13.7360713"><ele>1026.0</ele><time>2026-05-01T14:41:59.644Z</time></trkpt><trkpt lat="41.7414079" lon="13.735993"><ele>1015.0</ele><time>2026-05-01T14:42:00.635Z</time></trkpt><trkpt lat="41.7415803" lon="13.7359492"><ele>1004.0</ele><time>2026-05-01T14:42:01.648Z</time></trkpt><trkpt lat="41.7417689" lon="13.7359252"><ele>1007.6666666666667</ele><time>2026-05-01T14:42:02.633Z</time></trkpt><trkpt lat="41.7419675" lon="13.7358986"><ele>1011.3333333333333</ele><time>2026-05-01T14:42:03.63Z</time></trkpt><trkpt lat="41.7421675" lon="13.735852"><ele>1015.0</ele><time>2026-05-01T14:42:04.634Z</time></trkpt><trkpt lat="41.7423609" lon="13.7357907"><ele>1015.0</ele><time>2026-05-01T14:42:05.637Z</time></trkpt><trkpt lat="41.7425437" lon="13.7357104"><ele>1015.0</ele><time>2026-05-01T14:42:06.643Z</time></trkpt><trkpt lat="41.7427199" lon="13.7356208"><ele>1015.0</ele><time>2026-05-01T14:42:07.643Z</time></trkpt><trkpt lat="41.7428962" lon="13.7355085"><ele>1020.6666666666666</ele><time>2026-05-01T14:42:08.641Z</time></trkpt><trkpt lat="41.7430584" lon="13.7353727"><ele>1026.3333333333333</ele><time>2026-05-01T14:42:09.634Z</time></trkpt><trkpt lat="41.7432134" lon="13.7352231"><ele>1032.0</ele><time>2026-05-01T14:42:10.643Z</time></trkpt><trkpt lat="41.7433574" lon="13.7350401"><ele>1028.0</ele><time>2026-05-01T14:42:11.644Z</time></trkpt><trkpt lat="41.7434885" lon="13.7348412"><ele>1024.0</ele><time>2026-05-01T14:42:12.648Z</time></trkpt><trkpt lat="41.7436025" lon="13.7346487"><ele>1020.0</ele><time>2026-05-01T14:42:13.661Z</time></trkpt><trkpt lat="41.743714" lon="13.7344696"><ele>1010.3333333333333</ele><time>2026-05-01T14:42:14.637Z</time></trkpt><trkpt lat="41.7438413" lon="13.7343196"><ele>1000.6666666666666</ele><time>2026-05-01T14:42:15.636Z</time></trkpt><trkpt lat="41.7439742" lon="13.7341754"><ele>991.0</ele><time>2026-05-01T14:42:16.641Z</time></trkpt><trkpt lat="41.7441239" lon="13.7340493"><ele>991.0</ele><time>2026-05-01T14:42:17.629Z</time></trkpt><trkpt lat="41.7442891" lon="13.7339514"><ele>991.0</ele><time>2026-05-01T14:42:18.653Z</time></trkpt><trkpt lat="41.7444702" lon="13.7338853"><ele>991.0</ele><time>2026-05-01T14:42:19.628Z</time></trkpt><trkpt lat="41.7446688" lon="13.7338471"><ele>993.0</ele><time>2026-05-01T14:42:20.633Z</time></trkpt><trkpt lat="41.7448759" lon="13.7338322"><ele>995.0</ele><time>2026-05-01T14:42:21.629Z</time></trkpt><trkpt lat="41.7450875" lon="13.7338214"><ele>997.0</ele><time>2026-05-01T14:42:22.635Z</time></trkpt><trkpt lat="41.7452995" lon="13.7337841"><ele>998.5</ele><time>2026-05-01T14:42:23.637Z</time></trkpt><trkpt lat="41.7455211" lon="13.7337219"><ele>1000.0</ele><time>2026-05-01T14:42:24.638Z</time></trkpt><trkpt lat="41.7457651" lon="13.7336252"><ele>989.5</ele><time>2026-05-01T14:42:25.639Z</time></trkpt><trkpt lat="41.7460189" lon="13.7334895"><ele>979.0</ele><time>2026-05-01T14:42:26.632Z</time></trkpt><trkpt lat="41.7462858" lon="13.7333443"><ele>979.0</ele><time>2026-05-01T14:42:27.638Z</time></trkpt><trkpt lat="41.7465461" lon="13.733198"><ele>979.0</ele><time>2026-05-01T14:42:28.63Z</time></trkpt><trkpt lat="41.7467948" lon="13.7330692"><ele>984.5</ele><time>2026-05-01T14:42:29.627Z</time></trkpt><trkpt lat="41.7470265" lon="13.7329427"><ele>990.0</ele><time>2026-05-01T14:42:30.637Z</time></trkpt><trkpt lat="41.7472462" lon="13.7328242"><ele>972.0</ele><time>2026-05-01T14:42:31.634Z</time></trkpt><trkpt lat="41.7474566" lon="13.7327017"><ele>954.0</ele><time>2026-05-01T14:42:32.63Z</time></trkpt><trkpt lat="41.7476564" lon="13.7325709"><ele>960.0</ele><time>2026-05-01T14:42:33.636Z</time></trkpt><trkpt lat="41.7478495" lon="13.7324276"><ele>966.0</ele><time>2026-05-01T14:42:34.636Z</time></trkpt><trkpt lat="41.7480417" lon="13.7322711"><ele>972.0</ele><time>2026-05-01T14:42:35.63Z</time></trkpt><trkpt lat="41.7482402" lon="13.7321015"><ele>972.0</ele><time>2026-05-01T14:42:36.651Z</time></trkpt><trkpt lat="41.7484292" lon="13.7319211"><ele>972.0</ele><time>2026-05-01T14:42:37.631Z</time></trkpt><trkpt lat="41.7486047" lon="13.7317369"><ele>970.3333333333333</ele><time>2026-05-01T14:42:38.633Z</time></trkpt><trkpt lat="41.7487751" lon="13.7315572"><ele>968.6666666666666</ele><time>2026-05-01T14:42:39.631Z</time></trkpt><trkpt lat="41.7489401" lon="13.7313803"><ele>967.0</ele><time>2026-05-01T14:42:40.632Z</time></trkpt><trkpt lat="41.7491111" lon="13.7312308"><ele>967.0</ele><time>2026-05-01T14:42:41.637Z</time></trkpt><trkpt lat="41.7492904" lon="13.7310982"><ele>967.0</ele><time>2026-05-01T14:42:42.636Z</time></trkpt><trkpt lat="41.7494784" lon="13.7309715"><ele>967.0</ele><time>2026-05-01T14:42:43.633Z</time></trkpt><trkpt lat="41.7496723" lon="13.7308457"><ele>968.6666666666666</ele><time>2026-05-01T14:42:44.649Z</time></trkpt><trkpt lat="41.7498627" lon="13.7307154"><ele>970.3333333333333</ele><time>2026-05-01T14:42:45.639Z</time></trkpt><trkpt lat="41.7500477" lon="13.7305741"><ele>972.0</ele><time>2026-05-01T14:42:46.631Z</time></trkpt><trkpt lat="41.7502369" lon="13.7304319"><ele>972.0</ele><time>2026-05-01T14:42:47.637Z</time></trkpt><trkpt lat="41.7504205" lon="13.7302878"><ele>972.0</ele><time>2026-05-01T14:42:48.635Z</time></trkpt><trkpt lat="41.7506046" lon="13.7301442"><ele>972.0</ele><time>2026-05-01T14:42:49.633Z</time></trkpt><trkpt lat="41.7507867" lon="13.7300047"><ele>966.3333333333333</ele><time>2026-05-01T14:42:50.629Z</time></trkpt><trkpt lat="41.7509699" lon="13.7298687"><ele>960.6666666666666</ele><time>2026-05-01T14:42:51.632Z</time></trkpt><trkpt lat="41.7511495" lon="13.7297374"><ele>955.0</ele><time>2026-05-01T14:42:52.629Z</time></trkpt><trkpt lat="41.7513224" lon="13.7296049"><ele>955.0</ele><time>2026-05-01T14:42:53.633Z</time></trkpt><trkpt lat="41.7514915" lon="13.7294809"><ele>955.0</ele><time>2026-05-01T14:42:54.635Z</time></trkpt><trkpt lat="41.751653" lon="13.7293552"><ele>955.0</ele><time>2026-05-01T14:42:55.634Z</time></trkpt><trkpt lat="41.7518106" lon="13.729235"><ele>948.0</ele><time>2026-05-01T14:42:56.636Z</time></trkpt><trkpt lat="41.7519619" lon="13.7291137"><ele>941.0</ele><time>2026-05-01T14:42:57.638Z</time></trkpt><trkpt lat="41.7521079" lon="13.7289961"><ele>934.0</ele><time>2026-05-01T14:42:58.634Z</time></trkpt><trkpt lat="41.7522408" lon="13.7288634"><ele>934.0</ele><time>2026-05-01T14:42:59.631Z</time></trkpt><trkpt lat="41.752358" lon="13.7287115"><ele>934.0</ele><time>2026-05-01T14:43:00.638Z</time></trkpt><trkpt lat="41.7524598" lon="13.7285399"><ele>934.0</ele><time>2026-05-01T14:43:01.643Z</time></trkpt><trkpt lat="41.7525424" lon="13.7283608"><ele>930.0</ele><time>2026-05-01T14:43:02.643Z</time></trkpt><trkpt lat="41.7526109" lon="13.7281787"><ele>926.0</ele><time>2026-05-01T14:43:03.64Z</time></trkpt><trkpt lat="41.7526644" lon="13.7279861"><ele>922.0</ele><time>2026-05-01T14:43:04.64Z</time></trkpt><trkpt lat="41.7527125" lon="13.7277941"><ele>919.0</ele><time>2026-05-01T14:43:05.647Z</time></trkpt><trkpt lat="41.7527487" lon="13.7275947"><ele>916.0</ele><time>2026-05-01T14:43:06.646Z</time></trkpt><trkpt lat="41.7527685" lon="13.7273924"><ele>913.0</ele><time>2026-05-01T14:43:07.636Z</time></trkpt><trkpt lat="41.7527717" lon="13.7271774"><ele>913.0</ele><time>2026-05-01T14:43:08.637Z</time></trkpt><trkpt lat="41.7527591" lon="13.7269554"><ele>913.0</ele><time>2026-05-01T14:43:09.63Z</time></trkpt><trkpt lat="41.7527306" lon="13.7267299"><ele>913.0</ele><time>2026-05-01T14:43:10.642Z</time></trkpt><trkpt lat="41.7526787" lon="13.7265019"><ele>910.3333333333333</ele><time>2026-05-01T14:43:11.652Z</time></trkpt><trkpt lat="41.7525993" lon="13.7262785"><ele>907.6666666666667</ele><time>2026-05-01T14:43:12.639Z</time></trkpt><trkpt lat="41.7524996" lon="13.7260543"><ele>905.0</ele><time>2026-05-01T14:43:13.643Z</time></trkpt><trkpt lat="41.7523746" lon="13.7258337"><ele>905.0</ele><time>2026-05-01T14:43:14.637Z</time></trkpt><trkpt lat="41.7522249" lon="13.7256354"><ele>905.0</ele><time>2026-05-01T14:43:15.637Z</time></trkpt><trkpt lat="41.7520597" lon="13.7254529"><ele>905.0</ele><time>2026-05-01T14:43:16.633Z</time></trkpt><trkpt lat="41.7518848" lon="13.7252908"><ele>905.0</ele><time>2026-05-01T14:43:17.635Z</time></trkpt><trkpt lat="41.7517044" lon="13.7251433"><ele>905.0</ele><time>2026-05-01T14:43:18.633Z</time></trkpt><trkpt lat="41.7515261" lon="13.7250027"><ele>905.0</ele><time>2026-05-01T14:43:19.645Z</time></trkpt><trkpt lat="41.7513563" lon="13.7248628"><ele>905.0</ele><time>2026-05-01T14:43:20.644Z</time></trkpt><trkpt lat="41.7512027" lon="13.7247171"><ele>905.0</ele><time>2026-05-01T14:43:21.636Z</time></trkpt><trkpt lat="41.7510564" lon="13.724554"><ele>905.0</ele><time>2026-05-01T14:43:22.641Z</time></trkpt><trkpt lat="41.7509178" lon="13.7243539"><ele>902.6666666666667</ele><time>2026-05-01T14:43:23.633Z</time></trkpt><trkpt lat="41.750786" lon="13.7241414"><ele>900.3333333333333</ele><time>2026-05-01T14:43:24.63Z</time></trkpt><trkpt lat="41.7506704" lon="13.7239139"><ele>898.0</ele><time>2026-05-01T14:43:25.644Z</time></trkpt><trkpt lat="41.7505726" lon="13.72368"><ele>901.3333333333333</ele><time>2026-05-01T14:43:26.639Z</time></trkpt><trkpt lat="41.7504772" lon="13.7234475"><ele>904.6666666666667</ele><time>2026-05-01T14:43:27.646Z</time></trkpt><trkpt lat="41.7503744" lon="13.7232229"><ele>908.0</ele><time>2026-05-01T14:43:28.637Z</time></trkpt><trkpt lat="41.7502572" lon="13.7230075"><ele>901.0</ele><time>2026-05-01T14:43:29.647Z</time></trkpt><trkpt lat="41.750132" lon="13.7227854"><ele>894.0</ele><time>2026-05-01T14:43:30.637Z</time></trkpt><trkpt lat="41.7499996" lon="13.7225662"><ele>887.0</ele><time>2026-05-01T14:43:31.638Z</time></trkpt><trkpt lat="41.7498584" lon="13.7223517"><ele>887.0</ele><time>2026-05-01T14:43:32.64Z</time></trkpt><trkpt lat="41.7497132" lon="13.7221335"><ele>887.0</ele><time>2026-05-01T14:43:33.63Z</time></trkpt><trkpt lat="41.749563" lon="13.7219138"><ele>887.0</ele><time>2026-05-01T14:43:34.635Z</time></trkpt><trkpt lat="41.7494127" lon="13.7216932"><ele>888.6666666666667</ele><time>2026-05-01T14:43:35.642Z</time></trkpt><trkpt lat="41.7492633" lon="13.7214718"><ele>890.3333333333333</ele><time>2026-05-01T14:43:36.648Z</time></trkpt><trkpt lat="41.7491137" lon="13.7212468"><ele>892.0</ele><time>2026-05-01T14:43:37.633Z</time></trkpt><trkpt lat="41.7489646" lon="13.7210147"><ele>892.0</ele><time>2026-05-01T14:43:38.629Z</time></trkpt><trkpt lat="41.7488144" lon="13.7207808"><ele>892.0</ele><time>2026-05-01T14:43:39.631Z</time></trkpt><trkpt lat="41.7486659" lon="13.7205572"><ele>888.6666666666666</ele><time>2026-05-01T14:43:40.636Z</time></trkpt><trkpt lat="41.7485206" lon="13.7203412"><ele>885.3333333333333</ele><time>2026-05-01T14:43:41.647Z</time></trkpt><trkpt lat="41.7483757" lon="13.720135"><ele>882.0</ele><time>2026-05-01T14:43:42.639Z</time></trkpt><trkpt lat="41.7482226" lon="13.719948"><ele>882.0</ele><time>2026-05-01T14:43:43.643Z</time></trkpt><trkpt lat="41.7480668" lon="13.7197822"><ele>882.0</ele><time>2026-05-01T14:43:44.647Z</time></trkpt><trkpt lat="41.7479022" lon="13.7196374"><ele>882.0</ele><time>2026-05-01T14:43:45.634Z</time></trkpt><trkpt lat="41.7477216" lon="13.7195114"><ele>879.3333333333333</ele><time>2026-05-01T14:43:46.661Z</time></trkpt><trkpt lat="41.7475275" lon="13.7193842"><ele>876.6666666666666</ele><time>2026-05-01T14:43:47.639Z</time></trkpt><trkpt lat="41.7473096" lon="13.7192729"><ele>874.0</ele><time>2026-05-01T14:43:48.625Z</time></trkpt><trkpt lat="41.7470654" lon="13.7191751"><ele>875.5</ele><time>2026-05-01T14:43:49.638Z</time></trkpt><trkpt lat="41.7468012" lon="13.7190961"><ele>877.0</ele><time>2026-05-01T14:43:50.64Z</time></trkpt><trkpt lat="41.7465421" lon="13.7190245"><ele>877.0</ele><time>2026-05-01T14:43:51.649Z</time></trkpt><trkpt lat="41.7463117" lon="13.7189519"><ele>877.0</ele><time>2026-05-01T14:43:52.635Z</time></trkpt><trkpt lat="41.7460993" lon="13.7188818"><ele>877.0</ele><time>2026-05-01T14:43:53.645Z</time></trkpt><trkpt lat="41.7459008" lon="13.7187993"><ele>877.0</ele><time>2026-05-01T14:43:54.643Z</time></trkpt><trkpt lat="41.7457074" lon="13.7186995"><ele>877.0</ele><time>2026-05-01T14:43:55.633Z</time></trkpt><trkpt lat="41.7455199" lon="13.7185719"><ele>878.5</ele><time>2026-05-01T14:43:56.645Z</time></trkpt><trkpt lat="41.7453335" lon="13.718415"><ele>880.0</ele><time>2026-05-01T14:43:57.639Z</time></trkpt><trkpt lat="41.7451529" lon="13.7182251"><ele>880.0</ele><time>2026-05-01T14:43:58.654Z</time></trkpt><trkpt lat="41.7449951" lon="13.7180273"><ele>880.0</ele><time>2026-05-01T14:43:59.635Z</time></trkpt><trkpt lat="41.7448447" lon="13.7178421"><ele>880.0</ele><time>2026-05-01T14:44:00.637Z</time></trkpt><trkpt lat="41.7446957" lon="13.7176972"><ele>879.3333333333333</ele><time>2026-05-01T14:44:01.627Z</time></trkpt><trkpt lat="41.744545" lon="13.7175758"><ele>878.6666666666667</ele><time>2026-05-01T14:44:02.644Z</time></trkpt><trkpt lat="41.7443873" lon="13.7174897"><ele>878.0</ele><time>2026-05-01T14:44:03.636Z</time></trkpt><trkpt lat="41.7442293" lon="13.7174287"><ele>876.6666666666667</ele><time>2026-05-01T14:44:04.635Z</time></trkpt><trkpt lat="41.7440673" lon="13.717412"><ele>875.3333333333333</ele><time>2026-05-01T14:44:05.642Z</time></trkpt><trkpt lat="41.7438908" lon="13.717443"><ele>874.0</ele><time>2026-05-01T14:44:06.636Z</time></trkpt><trkpt lat="41.7437024" lon="13.7175235"><ele>872.0</ele><time>2026-05-01T14:44:07.642Z</time></trkpt><trkpt lat="41.7435177" lon="13.717612"><ele>870.0</ele><time>2026-05-01T14:44:08.627Z</time></trkpt><trkpt lat="41.7433333" lon="13.7176853"><ele>868.0</ele><time>2026-05-01T14:44:09.637Z</time></trkpt><trkpt lat="41.7431523" lon="13.7177479"><ele>870.3333333333333</ele><time>2026-05-01T14:44:10.63Z</time></trkpt><trkpt lat="41.7429783" lon="13.7178096"><ele>872.6666666666667</ele><time>2026-05-01T14:44:11.635Z</time></trkpt><trkpt lat="41.7428113" lon="13.7178561"><ele>875.0</ele><time>2026-05-01T14:44:12.63Z</time></trkpt><trkpt lat="41.7426497" lon="13.7178657"><ele>875.0</ele><time>2026-05-01T14:44:13.64Z</time></trkpt><trkpt lat="41.7424836" lon="13.717842"><ele>875.0</ele><time>2026-05-01T14:44:14.638Z</time></trkpt><trkpt lat="41.7423186" lon="13.7177944"><ele>875.0</ele><time>2026-05-01T14:44:15.661Z</time></trkpt><trkpt lat="41.7421661" lon="13.7177232"><ele>873.0</ele><time>2026-05-01T14:44:16.637Z</time></trkpt><trkpt lat="41.7420283" lon="13.7176185"><ele>871.0</ele><time>2026-05-01T14:44:17.634Z</time></trkpt><trkpt lat="41.7419114" lon="13.7174814"><ele>869.0</ele><time>2026-05-01T14:44:18.639Z</time></trkpt><trkpt lat="41.7417984" lon="13.7173072"><ele>869.0</ele><time>2026-05-01T14:44:19.635Z</time></trkpt><trkpt lat="41.7416973" lon="13.7171181"><ele>869.0</ele><time>2026-05-01T14:44:20.637Z</time></trkpt><trkpt lat="41.7416229" lon="13.7169105"><ele>869.0</ele><time>2026-05-01T14:44:21.635Z</time></trkpt><trkpt lat="41.7415745" lon="13.7166954"><ele>864.0</ele><time>2026-05-01T14:44:22.636Z</time></trkpt><trkpt lat="41.7415422" lon="13.7164582"><ele>859.0</ele><time>2026-05-01T14:44:23.631Z</time></trkpt><trkpt lat="41.7415299" lon="13.7162011"><ele>854.0</ele><time>2026-05-01T14:44:24.633Z</time></trkpt><trkpt lat="41.7415486" lon="13.7159152"><ele>850.5</ele><time>2026-05-01T14:44:25.628Z</time></trkpt><trkpt lat="41.7415848" lon="13.7156113"><ele>847.0</ele><time>2026-05-01T14:44:26.635Z</time></trkpt><trkpt lat="41.7416345" lon="13.7152999"><ele>846.6666666666666</ele><time>2026-05-01T14:44:27.639Z</time></trkpt><trkpt lat="41.7416795" lon="13.7150065"><ele>846.3333333333333</ele><time>2026-05-01T14:44:28.633Z</time></trkpt><trkpt lat="41.7417123" lon="13.7147296"><ele>846.0</ele><time>2026-05-01T14:44:29.647Z</time></trkpt><trkpt lat="41.7417462" lon="13.7144618"><ele>845.6666666666667</ele><time>2026-05-01T14:44:30.636Z</time></trkpt><trkpt lat="41.741778" lon="13.7142042"><ele>845.3333333333334</ele><time>2026-05-01T14:44:31.635Z</time></trkpt><trkpt lat="41.7417907" lon="13.7139562"><ele>845.0</ele><time>2026-05-01T14:44:32.631Z</time></trkpt><trkpt lat="41.7417799" lon="13.7137113"><ele>841.3333333333334</ele><time>2026-05-01T14:44:33.633Z</time></trkpt><trkpt lat="41.741741" lon="13.7134806"><ele>837.6666666666667</ele><time>2026-05-01T14:44:34.639Z</time></trkpt><trkpt lat="41.7416818" lon="13.7132485"><ele>834.0</ele><time>2026-05-01T14:44:35.637Z</time></trkpt><trkpt lat="41.7415919" lon="13.7130275"><ele>834.0</ele><time>2026-05-01T14:44:36.637Z</time></trkpt><trkpt lat="41.7414678" lon="13.7128234"><ele>834.0</ele><time>2026-05-01T14:44:37.641Z</time></trkpt><trkpt lat="41.7413324" lon="13.7126572"><ele>834.0</ele><time>2026-05-01T14:44:38.645Z</time></trkpt><trkpt lat="41.7411937" lon="13.7125305"><ele>831.25</ele><time>2026-05-01T14:44:39.64Z</time></trkpt><trkpt lat="41.7410729" lon="13.7124091"><ele>828.5</ele><time>2026-05-01T14:44:40.639Z</time></trkpt><trkpt lat="41.7409731" lon="13.712272"><ele>825.75</ele><time>2026-05-01T14:44:41.645Z</time></trkpt><trkpt lat="41.7408863" lon="13.7121078"><ele>823.0</ele><time>2026-05-01T14:44:42.657Z</time></trkpt><trkpt lat="41.7408154" lon="13.7119309"><ele>821.6666666666666</ele><time>2026-05-01T14:44:43.638Z</time></trkpt><trkpt lat="41.7407609" lon="13.7117398"><ele>820.3333333333333</ele><time>2026-05-01T14:44:44.634Z</time></trkpt><trkpt lat="41.7407298" lon="13.7115491"><ele>819.0</ele><time>2026-05-01T14:44:45.639Z</time></trkpt><trkpt lat="41.740728" lon="13.7113344"><ele>819.0</ele><time>2026-05-01T14:44:46.635Z</time></trkpt><trkpt lat="41.740748" lon="13.7111011"><ele>819.0</ele><time>2026-05-01T14:44:47.632Z</time></trkpt><trkpt lat="41.7407882" lon="13.7108589"><ele>819.0</ele><time>2026-05-01T14:44:48.633Z</time></trkpt><trkpt lat="41.7408486" lon="13.7106004"><ele>820.0</ele><time>2026-05-01T14:44:49.643Z</time></trkpt><trkpt lat="41.740925" lon="13.7103407"><ele>821.0</ele><time>2026-05-01T14:44:50.635Z</time></trkpt><trkpt lat="41.7410093" lon="13.7100887"><ele>822.0</ele><time>2026-05-01T14:44:51.63Z</time></trkpt><trkpt lat="41.7411106" lon="13.7098438"><ele>811.3333333333333</ele><time>2026-05-01T14:44:52.636Z</time></trkpt><trkpt lat="41.7412256" lon="13.709602"><ele>800.6666666666666</ele><time>2026-05-01T14:44:53.639Z</time></trkpt><trkpt lat="41.7413577" lon="13.7093669"><ele>790.0</ele><time>2026-05-01T14:44:54.633Z</time></trkpt><trkpt lat="41.7414976" lon="13.7091361"><ele>790.0</ele><time>2026-05-01T14:44:55.634Z</time></trkpt><trkpt lat="41.7416315" lon="13.7089"><ele>790.0</ele><time>2026-05-01T14:44:56.634Z</time></trkpt><trkpt lat="41.7417547" lon="13.7086518"><ele>790.0</ele><time>2026-05-01T14:44:57.646Z</time></trkpt><trkpt lat="41.7418685" lon="13.7083918"><ele>776.5</ele><time>2026-05-01T14:44:58.636Z</time></trkpt><trkpt lat="41.7419723" lon="13.7081175"><ele>763.0</ele><time>2026-05-01T14:44:59.645Z</time></trkpt><trkpt lat="41.742065" lon="13.7078173"><ele>768.5</ele><time>2026-05-01T14:45:00.633Z</time></trkpt><trkpt lat="41.7421529" lon="13.7074984"><ele>774.0</ele><time>2026-05-01T14:45:01.637Z</time></trkpt><trkpt lat="41.7422382" lon="13.707176"><ele>778.5</ele><time>2026-05-01T14:45:02.641Z</time></trkpt><trkpt lat="41.7423234" lon="13.70686"><ele>783.0</ele><time>2026-05-01T14:45:03.63Z</time></trkpt><trkpt lat="41.7424019" lon="13.7065554"><ele>783.0</ele><time>2026-05-01T14:45:04.642Z</time></trkpt><trkpt lat="41.7424759" lon="13.7062679"><ele>783.0</ele><time>2026-05-01T14:45:05.633Z</time></trkpt><trkpt lat="41.7425439" lon="13.7060016"><ele>783.0</ele><time>2026-05-01T14:45:06.637Z</time></trkpt><trkpt lat="41.742619" lon="13.7057594"><ele>778.3333333333333</ele><time>2026-05-01T14:45:07.632Z</time></trkpt><trkpt lat="41.7427141" lon="13.7055396"><ele>773.6666666666666</ele><time>2026-05-01T14:45:08.648Z</time></trkpt><trkpt lat="41.7428214" lon="13.7053238"><ele>769.0</ele><time>2026-05-01T14:45:09.634Z</time></trkpt><trkpt lat="41.7429518" lon="13.7051134"><ele>769.0</ele><time>2026-05-01T14:45:10.637Z</time></trkpt><trkpt lat="41.7430954" lon="13.7049237"><ele>769.0</ele><time>2026-05-01T14:45:11.636Z</time></trkpt><trkpt lat="41.7432525" lon="13.7047387"><ele>769.0</ele><time>2026-05-01T14:45:12.633Z</time></trkpt><trkpt lat="41.7434194" lon="13.7045803"><ele>766.3333333333333</ele><time>2026-05-01T14:45:13.622Z</time></trkpt><trkpt lat="41.7435825" lon="13.7044469"><ele>763.6666666666666</ele><time>2026-05-01T14:45:14.636Z</time></trkpt><trkpt lat="41.7437416" lon="13.7043297"><ele>761.0</ele><time>2026-05-01T14:45:15.629Z</time></trkpt><trkpt lat="41.7438908" lon="13.7042051"><ele>761.0</ele><time>2026-05-01T14:45:16.636Z</time></trkpt><trkpt lat="41.7440278" lon="13.7040748"><ele>761.0</ele><time>2026-05-01T14:45:17.629Z</time></trkpt><trkpt lat="41.7441605" lon="13.7039282"><ele>761.0</ele><time>2026-05-01T14:45:18.632Z</time></trkpt><trkpt lat="41.7442896" lon="13.7037554"><ele>753.6666666666666</ele><time>2026-05-01T14:45:19.633Z</time></trkpt><trkpt lat="41.7444167" lon="13.7035677"><ele>746.3333333333334</ele><time>2026-05-01T14:45:20.626Z</time></trkpt><trkpt lat="41.7445368" lon="13.7033546"><ele>739.0</ele><time>2026-05-01T14:45:21.636Z</time></trkpt><trkpt lat="41.7446573" lon="13.7031142"><ele>739.0</ele><time>2026-05-01T14:45:22.628Z</time></trkpt><trkpt lat="41.744787" lon="13.7028237"><ele>739.0</ele><time>2026-05-01T14:45:23.644Z</time></trkpt><trkpt lat="41.744917" lon="13.7025332"><ele>748.0</ele><time>2026-05-01T14:45:24.64Z</time></trkpt><trkpt lat="41.7450423" lon="13.7022544"><ele>757.0</ele><time>2026-05-01T14:45:25.638Z</time></trkpt><trkpt lat="41.7451647" lon="13.7019848"><ele>745.3333333333334</ele><time>2026-05-01T14:45:26.627Z</time></trkpt><trkpt lat="41.7452807" lon="13.7017282"><ele>733.6666666666666</ele><time>2026-05-01T14:45:27.633Z</time></trkpt><trkpt lat="41.7453916" lon="13.7014769"><ele>722.0</ele><time>2026-05-01T14:45:28.64Z</time></trkpt><trkpt lat="41.7454823" lon="13.7012334"><ele>725.3333333333333</ele><time>2026-05-01T14:45:29.633Z</time></trkpt><trkpt lat="41.7455583" lon="13.7009847"><ele>728.6666666666666</ele><time>2026-05-01T14:45:30.654Z</time></trkpt><trkpt lat="41.7456103" lon="13.7007344"><ele>732.0</ele><time>2026-05-01T14:45:31.63Z</time></trkpt><trkpt lat="41.7456315" lon="13.7004858"><ele>731.0</ele><time>2026-05-01T14:45:32.632Z</time></trkpt><trkpt lat="41.7456308" lon="13.7002195"><ele>730.0</ele><time>2026-05-01T14:45:33.636Z</time></trkpt><trkpt lat="41.7456056" lon="13.6999564"><ele>729.0</ele><time>2026-05-01T14:45:34.635Z</time></trkpt><trkpt lat="41.7455591" lon="13.699699"><ele>729.0</ele><time>2026-05-01T14:45:35.646Z</time></trkpt><trkpt lat="41.7454889" lon="13.6994597"><ele>729.0</ele><time>2026-05-01T14:45:36.649Z</time></trkpt><trkpt lat="41.7453993" lon="13.6992281"><ele>729.0</ele><time>2026-05-01T14:45:37.634Z</time></trkpt><trkpt lat="41.7452836" lon="13.6990125"><ele>725.0</ele><time>2026-05-01T14:45:38.631Z</time></trkpt><trkpt lat="41.7451373" lon="13.698816"><ele>721.0</ele><time>2026-05-01T14:45:39.634Z</time></trkpt><trkpt lat="41.7449686" lon="13.6986381"><ele>717.0</ele><time>2026-05-01T14:45:40.632Z</time></trkpt><trkpt lat="41.7447774" lon="13.6984734"><ele>717.0</ele><time>2026-05-01T14:45:41.636Z</time></trkpt><trkpt lat="41.7445828" lon="13.6983099"><ele>717.0</ele><time>2026-05-01T14:45:42.639Z</time></trkpt><trkpt lat="41.7443896" lon="13.6981505"><ele>715.3333333333334</ele><time>2026-05-01T14:45:43.635Z</time></trkpt><trkpt lat="41.7441983" lon="13.698002"><ele>713.6666666666667</ele><time>2026-05-01T14:45:44.637Z</time></trkpt><trkpt lat="41.7440163" lon="13.6978571"><ele>712.0</ele><time>2026-05-01T14:45:45.658Z</time></trkpt><trkpt lat="41.7438379" lon="13.6977188"><ele>712.0</ele><time>2026-05-01T14:45:46.641Z</time></trkpt><trkpt lat="41.743649" lon="13.6975903"><ele>712.0</ele><time>2026-05-01T14:45:47.645Z</time></trkpt><trkpt lat="41.7434607" lon="13.6974679"><ele>712.0</ele><time>2026-05-01T14:45:48.635Z</time></trkpt><trkpt lat="41.7432639" lon="13.6973686"><ele>717.5</ele><time>2026-05-01T14:45:49.646Z</time></trkpt><trkpt lat="41.7430484" lon="13.6972817"><ele>723.0</ele><time>2026-05-01T14:45:50.638Z</time></trkpt><trkpt lat="41.7428268" lon="13.6971979"><ele>718.5</ele><time>2026-05-01T14:45:51.645Z</time></trkpt><trkpt lat="41.7426028" lon="13.6971145"><ele>714.0</ele><time>2026-05-01T14:45:52.643Z</time></trkpt><trkpt lat="41.7423757" lon="13.6970314"><ele>714.0</ele><time>2026-05-01T14:45:53.643Z</time></trkpt><trkpt lat="41.7421487" lon="13.6969447"><ele>714.0</ele><time>2026-05-01T14:45:54.645Z</time></trkpt><trkpt lat="41.7419219" lon="13.6968646"><ele>708.0</ele><time>2026-05-01T14:45:55.643Z</time></trkpt><trkpt lat="41.7416994" lon="13.696783"><ele>702.0</ele><time>2026-05-01T14:45:56.65Z</time></trkpt><trkpt lat="41.7414792" lon="13.6967026"><ele>702.0</ele><time>2026-05-01T14:45:57.649Z</time></trkpt><trkpt lat="41.7412619" lon="13.6966264"><ele>702.0</ele><time>2026-05-01T14:45:58.648Z</time></trkpt><trkpt lat="41.7410477" lon="13.6965508"><ele>702.0</ele><time>2026-05-01T14:45:59.645Z</time></trkpt><trkpt lat="41.7408422" lon="13.6964725"><ele>702.3333333333334</ele><time>2026-05-01T14:46:00.643Z</time></trkpt><trkpt lat="41.7406492" lon="13.6963908"><ele>702.6666666666667</ele><time>2026-05-01T14:46:01.656Z</time></trkpt><trkpt lat="41.7404665" lon="13.6962959"><ele>703.0</ele><time>2026-05-01T14:46:02.646Z</time></trkpt><trkpt lat="41.7402872" lon="13.6961676"><ele>699.3333333333334</ele><time>2026-05-01T14:46:03.663Z</time></trkpt><trkpt lat="41.7401043" lon="13.6960046"><ele>695.6666666666666</ele><time>2026-05-01T14:46:04.644Z</time></trkpt><trkpt lat="41.7399303" lon="13.6958155"><ele>692.0</ele><time>2026-05-01T14:46:05.642Z</time></trkpt><trkpt lat="41.7397734" lon="13.6956109"><ele>692.0</ele><time>2026-05-01T14:46:06.644Z</time></trkpt><trkpt lat="41.7396256" lon="13.6954141"><ele>692.0</ele><time>2026-05-01T14:46:07.654Z</time></trkpt><trkpt lat="41.739482" lon="13.695231"><ele>692.0</ele><time>2026-05-01T14:46:08.637Z</time></trkpt><trkpt lat="41.7393421" lon="13.6950573"><ele>689.6666666666666</ele><time>2026-05-01T14:46:09.653Z</time></trkpt><trkpt lat="41.7391978" lon="13.6949077"><ele>687.3333333333334</ele><time>2026-05-01T14:46:10.643Z</time></trkpt><trkpt lat="41.7390365" lon="13.69478"><ele>685.0</ele><time>2026-05-01T14:46:11.646Z</time></trkpt><trkpt lat="41.7388657" lon="13.694666"><ele>685.0</ele><time>2026-05-01T14:46:12.637Z</time></trkpt><trkpt lat="41.738692" lon="13.6945769"><ele>685.0</ele><time>2026-05-01T14:46:13.641Z</time></trkpt><trkpt lat="41.7385196" lon="13.6945023"><ele>685.0</ele><time>2026-05-01T14:46:14.683Z</time></trkpt><trkpt lat="41.7383444" lon="13.6944457"><ele>678.3333333333334</ele><time>2026-05-01T14:46:15.646Z</time></trkpt><trkpt lat="41.738166" lon="13.6944044"><ele>671.6666666666666</ele><time>2026-05-01T14:46:16.654Z</time></trkpt><trkpt lat="41.7379806" lon="13.6943723"><ele>665.0</ele><time>2026-05-01T14:46:17.641Z</time></trkpt><trkpt lat="41.7377922" lon="13.6943508"><ele>664.3333333333333</ele><time>2026-05-01T14:46:18.639Z</time></trkpt><trkpt lat="41.7376109" lon="13.6943519"><ele>663.6666666666666</ele><time>2026-05-01T14:46:19.64Z</time></trkpt><trkpt lat="41.7374298" lon="13.6943698"><ele>663.0</ele><time>2026-05-01T14:46:20.639Z</time></trkpt><trkpt lat="41.7372529" lon="13.694398"><ele>668.3333333333334</ele><time>2026-05-01T14:46:21.636Z</time></trkpt><trkpt lat="41.7370786" lon="13.6944302"><ele>673.6666666666667</ele><time>2026-05-01T14:46:22.65Z</time></trkpt><trkpt lat="41.7369081" lon="13.6944521"><ele>679.0</ele><time>2026-05-01T14:46:23.65Z</time></trkpt><trkpt lat="41.7367423" lon="13.6944737"><ele>679.0</ele><time>2026-05-01T14:46:24.67Z</time></trkpt><trkpt lat="41.7365765" lon="13.6944799"><ele>679.0</ele><time>2026-05-01T14:46:25.64Z</time></trkpt><trkpt lat="41.7364089" lon="13.6944709"><ele>679.0</ele><time>2026-05-01T14:46:26.642Z</time></trkpt><trkpt lat="41.7362396" lon="13.6944386"><ele>672.6666666666667</ele><time>2026-05-01T14:46:27.638Z</time></trkpt><trkpt lat="41.7360772" lon="13.6943845"><ele>666.3333333333334</ele><time>2026-05-01T14:46:28.641Z</time></trkpt><trkpt lat="41.7359248" lon="13.6943139"><ele>660.0</ele><time>2026-05-01T14:46:29.639Z</time></trkpt><trkpt lat="41.7357781" lon="13.6942376"><ele>660.0</ele><time>2026-05-01T14:46:30.644Z</time></trkpt><trkpt lat="41.7356334" lon="13.6941692"><ele>660.0</ele><time>2026-05-01T14:46:31.658Z</time></trkpt><trkpt lat="41.735483" lon="13.6941083"><ele>660.0</ele><time>2026-05-01T14:46:32.638Z</time></trkpt><trkpt lat="41.7353246" lon="13.6940571"><ele>660.0</ele><time>2026-05-01T14:46:33.64Z</time></trkpt><trkpt lat="41.73516" lon="13.6940234"><ele>660.0</ele><time>2026-05-01T14:46:34.644Z</time></trkpt><trkpt lat="41.7350038" lon="13.6940026"><ele>660.0</ele><time>2026-05-01T14:46:35.651Z</time></trkpt><trkpt lat="41.7348504" lon="13.694"><ele>660.0</ele><time>2026-05-01T14:46:36.642Z</time></trkpt><trkpt lat="41.7346964" lon="13.6940102"><ele>660.0</ele><time>2026-05-01T14:46:37.655Z</time></trkpt><trkpt lat="41.7345423" lon="13.6940408"><ele>660.0</ele><time>2026-05-01T14:46:38.636Z</time></trkpt><trkpt lat="41.734391" lon="13.694079"><ele>657.0</ele><time>2026-05-01T14:46:39.632Z</time></trkpt><trkpt lat="41.7342402" lon="13.6941314"><ele>654.0</ele><time>2026-05-01T14:46:40.643Z</time></trkpt><trkpt lat="41.7340907" lon="13.6941978"><ele>651.0</ele><time>2026-05-01T14:46:41.64Z</time></trkpt><trkpt lat="41.7339433" lon="13.6942764"><ele>651.0</ele><time>2026-05-01T14:46:42.652Z</time></trkpt><trkpt lat="41.7337981" lon="13.6943647"><ele>651.0</ele><time>2026-05-01T14:46:43.647Z</time></trkpt><trkpt lat="41.7336594" lon="13.6944681"><ele>651.0</ele><time>2026-05-01T14:46:44.639Z</time></trkpt><trkpt lat="41.7335197" lon="13.6946046"><ele>649.5</ele><time>2026-05-01T14:46:45.646Z</time></trkpt><trkpt lat="41.7333692" lon="13.6947943"><ele>648.0</ele><time>2026-05-01T14:46:46.642Z</time></trkpt><trkpt lat="41.7331883" lon="13.6950182"><ele>653.5</ele><time>2026-05-01T14:46:47.641Z</time></trkpt><trkpt lat="41.7329839" lon="13.695268"><ele>659.0</ele><time>2026-05-01T14:46:48.64Z</time></trkpt><trkpt lat="41.7327831" lon="13.6955241"><ele>648.5</ele><time>2026-05-01T14:46:49.634Z</time></trkpt><trkpt lat="41.7325951" lon="13.6957777"><ele>638.0</ele><time>2026-05-01T14:46:50.637Z</time></trkpt><trkpt lat="41.7324262" lon="13.6959918"><ele>642.6666666666666</ele><time>2026-05-01T14:46:51.638Z</time></trkpt><trkpt lat="41.7322806" lon="13.6961645"><ele>647.3333333333334</ele><time>2026-05-01T14:46:52.637Z</time></trkpt><trkpt lat="41.7321551" lon="13.6963166"><ele>652.0</ele><time>2026-05-01T14:46:53.65Z</time></trkpt><trkpt lat="41.7320428" lon="13.6964485"><ele>652.0</ele><time>2026-05-01T14:46:54.642Z</time></trkpt><trkpt lat="41.7319343" lon="13.6965739"><ele>652.0</ele><time>2026-05-01T14:46:55.643Z</time></trkpt><trkpt lat="41.7318217" lon="13.6966794"><ele>652.0</ele><time>2026-05-01T14:46:56.643Z</time></trkpt><trkpt lat="41.7317047" lon="13.6967588"><ele>652.0</ele><time>2026-05-01T14:46:57.641Z</time></trkpt><trkpt lat="41.7315733" lon="13.6968238"><ele>647.5</ele><time>2026-05-01T14:46:58.637Z</time></trkpt><trkpt lat="41.7314337" lon="13.6968681"><ele>643.0</ele><time>2026-05-01T14:46:59.648Z</time></trkpt><trkpt lat="41.731299" lon="13.6969019"><ele>638.5</ele><time>2026-05-01T14:47:00.632Z</time></trkpt><trkpt lat="41.7311656" lon="13.6969161"><ele>634.0</ele><time>2026-05-01T14:47:01.645Z</time></trkpt><trkpt lat="41.7310284" lon="13.696907"><ele>632.25</ele><time>2026-05-01T14:47:02.642Z</time></trkpt><trkpt lat="41.7309008" lon="13.6968807"><ele>630.5</ele><time>2026-05-01T14:47:03.64Z</time></trkpt><trkpt lat="41.7307674" lon="13.69682"><ele>628.75</ele><time>2026-05-01T14:47:04.639Z</time></trkpt><trkpt lat="41.7306281" lon="13.6967283"><ele>627.0</ele><time>2026-05-01T14:47:05.633Z</time></trkpt><trkpt lat="41.7304842" lon="13.6966022"><ele>627.0</ele><time>2026-05-01T14:47:06.646Z</time></trkpt><trkpt lat="41.7303434" lon="13.6964391"><ele>627.0</ele><time>2026-05-01T14:47:07.641Z</time></trkpt><trkpt lat="41.7302232" lon="13.6962336"><ele>627.0</ele><time>2026-05-01T14:47:08.633Z</time></trkpt><trkpt lat="41.7301348" lon="13.6960108"><ele>623.3333333333334</ele><time>2026-05-01T14:47:09.641Z</time></trkpt><trkpt lat="41.7300732" lon="13.6957854"><ele>619.6666666666667</ele><time>2026-05-01T14:47:10.635Z</time></trkpt><trkpt lat="41.7300375" lon="13.6955493"><ele>616.0</ele><time>2026-05-01T14:47:11.633Z</time></trkpt><trkpt lat="41.7300333" lon="13.6953135"><ele>613.0</ele><time>2026-05-01T14:47:12.647Z</time></trkpt><trkpt lat="41.7300563" lon="13.6950929"><ele>610.0</ele><time>2026-05-01T14:47:13.644Z</time></trkpt><trkpt lat="41.730104" lon="13.6948758"><ele>607.0</ele><time>2026-05-01T14:47:14.639Z</time></trkpt><trkpt lat="41.7301791" lon="13.6946509"><ele>606.6666666666667</ele><time>2026-05-01T14:47:15.649Z</time></trkpt><trkpt lat="41.7302703" lon="13.6944356"><ele>606.3333333333334</ele><time>2026-05-01T14:47:16.641Z</time></trkpt><trkpt lat="41.7303791" lon="13.6942178"><ele>606.0</ele><time>2026-05-01T14:47:17.645Z</time></trkpt><trkpt lat="41.7305015" lon="13.693999"><ele>603.6666666666666</ele><time>2026-05-01T14:47:18.636Z</time></trkpt><trkpt lat="41.7306308" lon="13.6937811"><ele>601.3333333333333</ele><time>2026-05-01T14:47:19.639Z</time></trkpt><trkpt lat="41.7307581" lon="13.6935681"><ele>599.0</ele><time>2026-05-01T14:47:20.658Z</time></trkpt><trkpt lat="41.7308784" lon="13.6933366"><ele>598.3333333333333</ele><time>2026-05-01T14:47:21.649Z</time></trkpt><trkpt lat="41.7309933" lon="13.6930843"><ele>597.6666666666666</ele><time>2026-05-01T14:47:22.645Z</time></trkpt><trkpt lat="41.7310899" lon="13.6928193"><ele>597.0</ele><time>2026-05-01T14:47:23.643Z</time></trkpt><trkpt lat="41.7311715" lon="13.6925531"><ele>599.6666666666666</ele><time>2026-05-01T14:47:24.643Z</time></trkpt><trkpt lat="41.7312408" lon="13.6922781"><ele>602.3333333333333</ele><time>2026-05-01T14:47:25.68Z</time></trkpt><trkpt lat="41.7313026" lon="13.6920237"><ele>605.0</ele><time>2026-05-01T14:47:26.639Z</time></trkpt><trkpt lat="41.7313569" lon="13.6917748"><ele>605.0</ele><time>2026-05-01T14:47:27.647Z</time></trkpt><trkpt lat="41.7314116" lon="13.6915347"><ele>605.0</ele><time>2026-05-01T14:47:28.643Z</time></trkpt><trkpt lat="41.7314698" lon="13.6912964"><ele>605.0</ele><time>2026-05-01T14:47:29.644Z</time></trkpt><trkpt lat="41.7315309" lon="13.6910661"><ele>603.0</ele><time>2026-05-01T14:47:30.643Z</time></trkpt><trkpt lat="41.731593" lon="13.6908386"><ele>601.0</ele><time>2026-05-01T14:47:31.639Z</time></trkpt><trkpt lat="41.731666" lon="13.6906276"><ele>599.0</ele><time>2026-05-01T14:47:32.645Z</time></trkpt><trkpt lat="41.7317451" lon="13.6904292"><ele>599.3333333333333</ele><time>2026-05-01T14:47:33.651Z</time></trkpt><trkpt lat="41.7318271" lon="13.6902396"><ele>599.6666666666666</ele><time>2026-05-01T14:47:34.635Z</time></trkpt><trkpt lat="41.7319086" lon="13.6900568"><ele>600.0</ele><time>2026-05-01T14:47:35.668Z</time></trkpt><trkpt lat="41.7319934" lon="13.6898867"><ele>600.0</ele><time>2026-05-01T14:47:36.633Z</time></trkpt><trkpt lat="41.7320729" lon="13.6897196"><ele>600.0</ele><time>2026-05-01T14:47:37.644Z</time></trkpt><trkpt lat="41.7321505" lon="13.6895633"><ele>600.0</ele><time>2026-05-01T14:47:38.642Z</time></trkpt><trkpt lat="41.7322226" lon="13.689399"><ele>600.0</ele><time>2026-05-01T14:47:39.651Z</time></trkpt><trkpt lat="41.7322723" lon="13.6892217"><ele>596.0</ele><time>2026-05-01T14:47:40.639Z</time></trkpt><trkpt lat="41.732306" lon="13.6890433"><ele>592.0</ele><time>2026-05-01T14:47:41.641Z</time></trkpt><trkpt lat="41.7323312" lon="13.6888618"><ele>588.0</ele><time>2026-05-01T14:47:42.646Z</time></trkpt><trkpt lat="41.7323435" lon="13.6886707"><ele>584.0</ele><time>2026-05-01T14:47:43.634Z</time></trkpt><trkpt lat="41.7323431" lon="13.6884784"><ele>582.25</ele><time>2026-05-01T14:47:44.657Z</time></trkpt><trkpt lat="41.7323254" lon="13.6882877"><ele>580.5</ele><time>2026-05-01T14:47:45.637Z</time></trkpt><trkpt lat="41.7322959" lon="13.6881073"><ele>578.75</ele><time>2026-05-01T14:47:46.649Z</time></trkpt><trkpt lat="41.7322484" lon="13.6879362"><ele>577.0</ele><time>2026-05-01T14:47:47.643Z</time></trkpt><trkpt lat="41.7321897" lon="13.6877735"><ele>577.5</ele><time>2026-05-01T14:47:48.646Z</time></trkpt><trkpt lat="41.732116" lon="13.6876195"><ele>578.0</ele><time>2026-05-01T14:47:49.639Z</time></trkpt><trkpt lat="41.7320306" lon="13.687482"><ele>578.5</ele><time>2026-05-01T14:47:50.648Z</time></trkpt><trkpt lat="41.7319316" lon="13.6873508"><ele>579.0</ele><time>2026-05-01T14:47:51.645Z</time></trkpt><trkpt lat="41.7318151" lon="13.6872333"><ele>578.6666666666666</ele><time>2026-05-01T14:47:52.643Z</time></trkpt><trkpt lat="41.731683" lon="13.6871197"><ele>578.3333333333333</ele><time>2026-05-01T14:47:53.655Z</time></trkpt><trkpt lat="41.7315194" lon="13.6869975"><ele>578.0</ele><time>2026-05-01T14:47:54.644Z</time></trkpt><trkpt lat="41.7313313" lon="13.6868653"><ele>578.0</ele><time>2026-05-01T14:47:55.653Z</time></trkpt><trkpt lat="41.7311355" lon="13.6867242"><ele>578.0</ele><time>2026-05-01T14:47:56.643Z</time></trkpt><trkpt lat="41.7309374" lon="13.6866072"><ele>578.0</ele><time>2026-05-01T14:47:57.645Z</time></trkpt><trkpt lat="41.7307293" lon="13.6865136"><ele>576.0</ele><time>2026-05-01T14:47:58.644Z</time></trkpt><trkpt lat="41.7305108" lon="13.6864355"><ele>574.0</ele><time>2026-05-01T14:47:59.64Z</time></trkpt><trkpt lat="41.7302964" lon="13.6863802"><ele>572.0</ele><time>2026-05-01T14:48:00.642Z</time></trkpt><trkpt lat="41.7300895" lon="13.6863478"><ele>570.6666666666666</ele><time>2026-05-01T14:48:01.641Z</time></trkpt><trkpt lat="41.7298819" lon="13.6863347"><ele>569.3333333333334</ele><time>2026-05-01T14:48:02.636Z</time></trkpt><trkpt lat="41.729669" lon="13.686346"><ele>568.0</ele><time>2026-05-01T14:48:03.642Z</time></trkpt><trkpt lat="41.7294506" lon="13.686381"><ele>566.5</ele><time>2026-05-01T14:48:04.638Z</time></trkpt><trkpt lat="41.7292283" lon="13.6864342"><ele>565.0</ele><time>2026-05-01T14:48:05.658Z</time></trkpt><trkpt lat="41.7289997" lon="13.686494"><ele>565.0</ele><time>2026-05-01T14:48:06.634Z</time></trkpt><trkpt lat="41.7287724" lon="13.6865574"><ele>565.0</ele><time>2026-05-01T14:48:07.633Z</time></trkpt><trkpt lat="41.7285467" lon="13.6866203"><ele>565.6666666666667</ele><time>2026-05-01T14:48:08.639Z</time></trkpt><trkpt lat="41.7283253" lon="13.6866817"><ele>566.3333333333334</ele><time>2026-05-01T14:48:09.64Z</time></trkpt><trkpt lat="41.7281157" lon="13.686739"><ele>567.0</ele><time>2026-05-01T14:48:10.643Z</time></trkpt><trkpt lat="41.7279137" lon="13.6867928"><ele>567.6666666666666</ele><time>2026-05-01T14:48:11.638Z</time></trkpt><trkpt lat="41.7277133" lon="13.6868435"><ele>568.3333333333333</ele><time>2026-05-01T14:48:12.638Z</time></trkpt><trkpt lat="41.7275195" lon="13.6868906"><ele>569.0</ele><time>2026-05-01T14:48:13.638Z</time></trkpt><trkpt lat="41.7273348" lon="13.6869381"><ele>564.6666666666666</ele><time>2026-05-01T14:48:14.645Z</time></trkpt><trkpt lat="41.7271593" lon="13.6869766"><ele>560.3333333333334</ele><time>2026-05-01T14:48:15.641Z</time></trkpt><trkpt lat="41.7269948" lon="13.6869975"><ele>556.0</ele><time>2026-05-01T14:48:16.643Z</time></trkpt><trkpt lat="41.7268405" lon="13.6869914"><ele>556.0</ele><time>2026-05-01T14:48:17.648Z</time></trkpt><trkpt lat="41.7266861" lon="13.6869688"><ele>556.0</ele><time>2026-05-01T14:48:18.634Z</time></trkpt><trkpt lat="41.7265237" lon="13.6869211"><ele>556.0</ele><time>2026-05-01T14:48:19.658Z</time></trkpt><trkpt lat="41.7263564" lon="13.6868477"><ele>557.3333333333334</ele><time>2026-05-01T14:48:20.641Z</time></trkpt><trkpt lat="41.7261909" lon="13.6867534"><ele>558.6666666666666</ele><time>2026-05-01T14:48:21.638Z</time></trkpt><trkpt lat="41.7260295" lon="13.6866438"><ele>560.0</ele><time>2026-05-01T14:48:22.638Z</time></trkpt><trkpt lat="41.7258772" lon="13.6865271"><ele>560.0</ele><time>2026-05-01T14:48:23.65Z</time></trkpt><trkpt lat="41.7257368" lon="13.686383"><ele>560.0</ele><time>2026-05-01T14:48:24.646Z</time></trkpt><trkpt lat="41.7256001" lon="13.6862246"><ele>560.0</ele><time>2026-05-01T14:48:25.645Z</time></trkpt><trkpt lat="41.7254639" lon="13.6860595"><ele>559.0</ele><time>2026-05-01T14:48:26.645Z</time></trkpt><trkpt lat="41.7253271" lon="13.6858923"><ele>558.0</ele><time>2026-05-01T14:48:27.643Z</time></trkpt><trkpt lat="41.7251837" lon="13.6857242"><ele>557.0</ele><time>2026-05-01T14:48:28.65Z</time></trkpt><trkpt lat="41.7250381" lon="13.685549"><ele>557.0</ele><time>2026-05-01T14:48:29.64Z</time></trkpt><trkpt lat="41.7248935" lon="13.6853755"><ele>557.0</ele><time>2026-05-01T14:48:30.659Z</time></trkpt><trkpt lat="41.7247492" lon="13.6852105"><ele>557.0</ele><time>2026-05-01T14:48:31.642Z</time></trkpt><trkpt lat="41.7245944" lon="13.6850685"><ele>554.6666666666666</ele><time>2026-05-01T14:48:32.645Z</time></trkpt><trkpt lat="41.7244297" lon="13.6849489"><ele>552.3333333333334</ele><time>2026-05-01T14:48:33.639Z</time></trkpt><trkpt lat="41.7242522" lon="13.6848392"><ele>550.0</ele><time>2026-05-01T14:48:34.636Z</time></trkpt><trkpt lat="41.7240708" lon="13.6847331"><ele>550.0</ele><time>2026-05-01T14:48:35.645Z</time></trkpt><trkpt lat="41.7238908" lon="13.6846345"><ele>550.0</ele><time>2026-05-01T14:48:36.65Z</time></trkpt><trkpt lat="41.7237293" lon="13.6845551"><ele>550.0</ele><time>2026-05-01T14:48:37.645Z</time></trkpt><trkpt lat="41.7235937" lon="13.6844674"><ele>552.75</ele><time>2026-05-01T14:48:38.639Z</time></trkpt><trkpt lat="41.7234755" lon="13.6843618"><ele>555.5</ele><time>2026-05-01T14:48:39.644Z</time></trkpt><trkpt lat="41.7233737" lon="13.6842278"><ele>558.25</ele><time>2026-05-01T14:48:40.645Z</time></trkpt><trkpt lat="41.7232945" lon="13.6840549"><ele>561.0</ele><time>2026-05-01T14:48:41.651Z</time></trkpt><trkpt lat="41.7232451" lon="13.6838581"><ele>561.0</ele><time>2026-05-01T14:48:42.644Z</time></trkpt><trkpt lat="41.7232305" lon="13.6836563"><ele>561.0</ele><time>2026-05-01T14:48:43.644Z</time></trkpt><trkpt lat="41.7232451" lon="13.6834612"><ele>561.0</ele><time>2026-05-01T14:48:44.644Z</time></trkpt><trkpt lat="41.7232975" lon="13.6832853"><ele>561.0</ele><time>2026-05-01T14:48:45.644Z</time></trkpt><trkpt lat="41.7233852" lon="13.6831145"><ele>558.6666666666666</ele><time>2026-05-01T14:48:46.638Z</time></trkpt><trkpt lat="41.7235008" lon="13.6829535"><ele>556.3333333333333</ele><time>2026-05-01T14:48:47.643Z</time></trkpt><trkpt lat="41.7236256" lon="13.682808"><ele>554.0</ele><time>2026-05-01T14:48:48.634Z</time></trkpt><trkpt lat="41.7237583" lon="13.6826737"><ele>554.0</ele><time>2026-05-01T14:48:49.633Z</time></trkpt><trkpt lat="41.7239061" lon="13.6825412"><ele>554.0</ele><time>2026-05-01T14:48:50.648Z</time></trkpt><trkpt lat="41.7240626" lon="13.6824142"><ele>554.0</ele><time>2026-05-01T14:48:51.635Z</time></trkpt><trkpt lat="41.7242108" lon="13.6822958"><ele>554.0</ele><time>2026-05-01T14:48:52.642Z</time></trkpt><trkpt lat="41.7243486" lon="13.6821753"><ele>554.0</ele><time>2026-05-01T14:48:53.637Z</time></trkpt><trkpt lat="41.7244808" lon="13.6820438"><ele>554.0</ele><time>2026-05-01T14:48:54.634Z</time></trkpt><trkpt lat="41.7246019" lon="13.6818969"><ele>556.3333333333333</ele><time>2026-05-01T14:48:55.643Z</time></trkpt><trkpt lat="41.7247027" lon="13.6817311"><ele>558.6666666666666</ele><time>2026-05-01T14:48:56.641Z</time></trkpt><trkpt lat="41.7247913" lon="13.6815429"><ele>561.0</ele><time>2026-05-01T14:48:57.632Z</time></trkpt><trkpt lat="41.7248799" lon="13.6813383"><ele>561.0</ele><time>2026-05-01T14:48:58.636Z</time></trkpt><trkpt lat="41.7249562" lon="13.6811188"><ele>561.0</ele><time>2026-05-01T14:48:59.634Z</time></trkpt><trkpt lat="41.7250116" lon="13.6808916"><ele>561.0</ele><time>2026-05-01T14:49:00.642Z</time></trkpt><trkpt lat="41.7250484" lon="13.6806597"><ele>555.3333333333334</ele><time>2026-05-01T14:49:01.637Z</time></trkpt><trkpt lat="41.7250691" lon="13.6804261"><ele>549.6666666666667</ele><time>2026-05-01T14:49:02.64Z</time></trkpt><trkpt lat="41.7250677" lon="13.6801921"><ele>544.0</ele><time>2026-05-01T14:49:03.636Z</time></trkpt><trkpt lat="41.7250442" lon="13.6799602"><ele>541.0</ele><time>2026-05-01T14:49:04.637Z</time></trkpt><trkpt lat="41.7250096" lon="13.6797316"><ele>538.0</ele><time>2026-05-01T14:49:05.626Z</time></trkpt><trkpt lat="41.7249627" lon="13.6795175"><ele>535.0</ele><time>2026-05-01T14:49:06.636Z</time></trkpt><trkpt lat="41.7248944" lon="13.6793176"><ele>534.6666666666667</ele><time>2026-05-01T14:49:07.639Z</time></trkpt><trkpt lat="41.724806" lon="13.6791297"><ele>534.3333333333334</ele><time>2026-05-01T14:49:08.637Z</time></trkpt><trkpt lat="41.7247083" lon="13.6789588"><ele>534.0</ele><time>2026-05-01T14:49:09.648Z</time></trkpt><trkpt lat="41.7245956" lon="13.6787826"><ele>534.3333333333334</ele><time>2026-05-01T14:49:10.644Z</time></trkpt><trkpt lat="41.7244649" lon="13.6785925"><ele>534.6666666666667</ele><time>2026-05-01T14:49:11.645Z</time></trkpt><trkpt lat="41.7243301" lon="13.6783803"><ele>535.0</ele><time>2026-05-01T14:49:12.645Z</time></trkpt><trkpt lat="41.7241917" lon="13.6781578"><ele>532.5</ele><time>2026-05-01T14:49:13.639Z</time></trkpt><trkpt lat="41.7240446" lon="13.6779209"><ele>530.0</ele><time>2026-05-01T14:49:14.646Z</time></trkpt><trkpt lat="41.7238917" lon="13.6776812"><ele>530.0</ele><time>2026-05-01T14:49:15.639Z</time></trkpt><trkpt lat="41.7237427" lon="13.6774459"><ele>530.0</ele><time>2026-05-01T14:49:16.642Z</time></trkpt><trkpt lat="41.7236041" lon="13.6772204"><ele>530.0</ele><time>2026-05-01T14:49:17.634Z</time></trkpt><trkpt lat="41.72347" lon="13.677006"><ele>525.0</ele><time>2026-05-01T14:49:18.643Z</time></trkpt><trkpt lat="41.7233426" lon="13.6768017"><ele>520.0</ele><time>2026-05-01T14:49:19.645Z</time></trkpt><trkpt lat="41.7232293" lon="13.6766069"><ele>515.0</ele><time>2026-05-01T14:49:20.648Z</time></trkpt><trkpt lat="41.7231303" lon="13.6764136"><ele>515.0</ele><time>2026-05-01T14:49:21.649Z</time></trkpt><trkpt lat="41.7230473" lon="13.6762098"><ele>515.0</ele><time>2026-05-01T14:49:22.651Z</time></trkpt><trkpt lat="41.7229916" lon="13.6759894"><ele>515.0</ele><time>2026-05-01T14:49:23.648Z</time></trkpt><trkpt lat="41.7229682" lon="13.675771"><ele>518.3333333333333</ele><time>2026-05-01T14:49:24.647Z</time></trkpt><trkpt lat="41.7229671" lon="13.6755378"><ele>521.6666666666666</ele><time>2026-05-01T14:49:25.657Z</time></trkpt><trkpt lat="41.7229971" lon="13.675288"><ele>525.0</ele><time>2026-05-01T14:49:26.649Z</time></trkpt><trkpt lat="41.7230429" lon="13.6750246"><ele>525.0</ele><time>2026-05-01T14:49:27.648Z</time></trkpt><trkpt lat="41.7230991" lon="13.6747527"><ele>525.0</ele><time>2026-05-01T14:49:28.641Z</time></trkpt><trkpt lat="41.7231544" lon="13.6744829"><ele>525.0</ele><time>2026-05-01T14:49:29.636Z</time></trkpt><trkpt lat="41.7232006" lon="13.6742203"><ele>521.3333333333334</ele><time>2026-05-01T14:49:30.633Z</time></trkpt><trkpt lat="41.7232467" lon="13.6739698"><ele>517.6666666666667</ele><time>2026-05-01T14:49:31.641Z</time></trkpt><trkpt lat="41.7232885" lon="13.67373"><ele>514.0</ele><time>2026-05-01T14:49:32.646Z</time></trkpt><trkpt lat="41.7233309" lon="13.6735083"><ele>510.0</ele><time>2026-05-01T14:49:33.64Z</time></trkpt><trkpt lat="41.7233715" lon="13.6733023"><ele>506.0</ele><time>2026-05-01T14:49:34.641Z</time></trkpt><trkpt lat="41.7234169" lon="13.6731119"><ele>502.0</ele><time>2026-05-01T14:49:35.639Z</time></trkpt><trkpt lat="41.7234809" lon="13.6729328"><ele>505.33333333333337</ele><time>2026-05-01T14:49:36.645Z</time></trkpt><trkpt lat="41.7235824" lon="13.6727755"><ele>508.66666666666663</ele><time>2026-05-01T14:49:37.639Z</time></trkpt><trkpt lat="41.7237101" lon="13.6726262"><ele>512.0</ele><time>2026-05-01T14:49:38.661Z</time></trkpt><trkpt lat="41.7238549" lon="13.6724659"><ele>512.0</ele><time>2026-05-01T14:49:39.643Z</time></trkpt><trkpt lat="41.7240033" lon="13.6722859"><ele>512.0</ele><time>2026-05-01T14:49:40.643Z</time></trkpt><trkpt lat="41.7241526" lon="13.6720918"><ele>512.0</ele><time>2026-05-01T14:49:41.641Z</time></trkpt><trkpt lat="41.7242896" lon="13.6718886"><ele>513.0</ele><time>2026-05-01T14:49:42.646Z</time></trkpt><trkpt lat="41.7244105" lon="13.6716901"><ele>514.0</ele><time>2026-05-01T14:49:43.636Z</time></trkpt><trkpt lat="41.7245051" lon="13.6714964"><ele>515.0</ele><time>2026-05-01T14:49:44.632Z</time></trkpt><trkpt lat="41.72458" lon="13.6712989"><ele>509.66666666666663</ele><time>2026-05-01T14:49:45.642Z</time></trkpt><trkpt lat="41.7246221" lon="13.6710867"><ele>504.33333333333337</ele><time>2026-05-01T14:49:46.647Z</time></trkpt><trkpt lat="41.7246263" lon="13.6708696"><ele>499.0</ele><time>2026-05-01T14:49:47.645Z</time></trkpt><trkpt lat="41.7246268" lon="13.6706648"><ele>499.0</ele><time>2026-05-01T14:49:48.638Z</time></trkpt><trkpt lat="41.7246457" lon="13.6704692"><ele>499.0</ele><time>2026-05-01T14:49:49.645Z</time></trkpt><trkpt lat="41.7246905" lon="13.6702797"><ele>499.0</ele><time>2026-05-01T14:49:50.645Z</time></trkpt><trkpt lat="41.7247679" lon="13.6701169"><ele>499.0</ele><time>2026-05-01T14:49:51.645Z</time></trkpt><trkpt lat="41.7248751" lon="13.6699606"><ele>497.0</ele><time>2026-05-01T14:49:52.661Z</time></trkpt><trkpt lat="41.7250134" lon="13.669819"><ele>495.0</ele><time>2026-05-01T14:49:53.64Z</time></trkpt><trkpt lat="41.7251774" lon="13.6696998"><ele>493.0</ele><time>2026-05-01T14:49:54.636Z</time></trkpt><trkpt lat="41.7253427" lon="13.6695885"><ele>493.0</ele><time>2026-05-01T14:49:55.645Z</time></trkpt><trkpt lat="41.7254979" lon="13.6694726"><ele>493.0</ele><time>2026-05-01T14:49:56.645Z</time></trkpt><trkpt lat="41.7256453" lon="13.6693403"><ele>493.0</ele><time>2026-05-01T14:49:57.655Z</time></trkpt><trkpt lat="41.7257781" lon="13.669195"><ele>489.33333333333337</ele><time>2026-05-01T14:49:58.641Z</time></trkpt><trkpt lat="41.7258915" lon="13.669033"><ele>485.66666666666663</ele><time>2026-05-01T14:49:59.641Z</time></trkpt><trkpt lat="41.7259846" lon="13.6688578"><ele>482.0</ele><time>2026-05-01T14:50:00.649Z</time></trkpt><trkpt lat="41.7260594" lon="13.6686551"><ele>483.0</ele><time>2026-05-01T14:50:01.646Z</time></trkpt><trkpt lat="41.726107" lon="13.6684435"><ele>484.0</ele><time>2026-05-01T14:50:02.644Z</time></trkpt><trkpt lat="41.7261259" lon="13.6682234"><ele>485.0</ele><time>2026-05-01T14:50:03.659Z</time></trkpt><trkpt lat="41.726122" lon="13.6679987"><ele>481.66666666666663</ele><time>2026-05-01T14:50:04.644Z</time></trkpt><trkpt lat="41.7260961" lon="13.667765"><ele>478.33333333333337</ele><time>2026-05-01T14:50:05.658Z</time></trkpt><trkpt lat="41.7260572" lon="13.6675549"><ele>475.0</ele><time>2026-05-01T14:50:06.638Z</time></trkpt><trkpt lat="41.7259992" lon="13.6673491"><ele>472.6666666666667</ele><time>2026-05-01T14:50:07.645Z</time></trkpt><trkpt lat="41.7259382" lon="13.667148"><ele>470.33333333333337</ele><time>2026-05-01T14:50:08.64Z</time></trkpt><trkpt lat="41.7258814" lon="13.6669549"><ele>468.0</ele><time>2026-05-01T14:50:09.649Z</time></trkpt><trkpt lat="41.7258444" lon="13.6667701"><ele>467.0</ele><time>2026-05-01T14:50:10.64Z</time></trkpt><trkpt lat="41.7258332" lon="13.6665692"><ele>466.0</ele><time>2026-05-01T14:50:11.643Z</time></trkpt><trkpt lat="41.7258474" lon="13.6663654"><ele>465.0</ele><time>2026-05-01T14:50:12.641Z</time></trkpt><trkpt lat="41.7258869" lon="13.6661542"><ele>462.66666666666663</ele><time>2026-05-01T14:50:13.651Z</time></trkpt><trkpt lat="41.7259524" lon="13.6659336"><ele>460.3333333333333</ele><time>2026-05-01T14:50:14.649Z</time></trkpt><trkpt lat="41.7260269" lon="13.6657004"><ele>458.0</ele><time>2026-05-01T14:50:15.649Z</time></trkpt><trkpt lat="41.7261122" lon="13.6654529"><ele>454.66666666666663</ele><time>2026-05-01T14:50:16.645Z</time></trkpt><trkpt lat="41.7261983" lon="13.6652072"><ele>451.33333333333337</ele><time>2026-05-01T14:50:17.673Z</time></trkpt><trkpt lat="41.7262792" lon="13.664969"><ele>448.0</ele><time>2026-05-01T14:50:18.645Z</time></trkpt><trkpt lat="41.7263552" lon="13.6647458"><ele>448.0</ele><time>2026-05-01T14:50:19.643Z</time></trkpt><trkpt lat="41.7264241" lon="13.6645313"><ele>448.0</ele><time>2026-05-01T14:50:20.641Z</time></trkpt><trkpt lat="41.7264831" lon="13.664325"><ele>448.0</ele><time>2026-05-01T14:50:21.65Z</time></trkpt><trkpt lat="41.7265259" lon="13.6641045"><ele>449.33333333333337</ele><time>2026-05-01T14:50:22.65Z</time></trkpt><trkpt lat="41.7265538" lon="13.6638623"><ele>450.66666666666663</ele><time>2026-05-01T14:50:23.65Z</time></trkpt><trkpt lat="41.7265695" lon="13.6636036"><ele>452.0</ele><time>2026-05-01T14:50:24.641Z</time></trkpt><trkpt lat="41.7265774" lon="13.6633468"><ele>454.0</ele><time>2026-05-01T14:50:25.642Z</time></trkpt><trkpt lat="41.726593" lon="13.6630821"><ele>456.0</ele><time>2026-05-01T14:50:26.648Z</time></trkpt><trkpt lat="41.7266235" lon="13.6628309"><ele>458.0</ele><time>2026-05-01T14:50:27.648Z</time></trkpt><trkpt lat="41.7266625" lon="13.6625847"><ele>459.0</ele><time>2026-05-01T14:50:28.65Z</time></trkpt><trkpt lat="41.7267168" lon="13.6623417"><ele>460.0</ele><time>2026-05-01T14:50:29.656Z</time></trkpt><trkpt lat="41.7267973" lon="13.6621048"><ele>461.0</ele><time>2026-05-01T14:50:30.645Z</time></trkpt><trkpt lat="41.7269038" lon="13.6618801"><ele>455.0</ele><time>2026-05-01T14:50:31.642Z</time></trkpt><trkpt lat="41.7270267" lon="13.6616709"><ele>449.0</ele><time>2026-05-01T14:50:32.641Z</time></trkpt><trkpt lat="41.7271584" lon="13.6614807"><ele>443.0</ele><time>2026-05-01T14:50:33.639Z</time></trkpt><trkpt lat="41.7272804" lon="13.6613046"><ele>447.66666666666663</ele><time>2026-05-01T14:50:34.672Z</time></trkpt><trkpt lat="41.7273824" lon="13.6611154"><ele>452.33333333333337</ele><time>2026-05-01T14:50:35.643Z</time></trkpt><trkpt lat="41.7274667" lon="13.6609004"><ele>457.0</ele><time>2026-05-01T14:50:36.641Z</time></trkpt><trkpt lat="41.7275364" lon="13.6606514"><ele>457.0</ele><time>2026-05-01T14:50:37.639Z</time></trkpt><trkpt lat="41.7276032" lon="13.6603933"><ele>457.0</ele><time>2026-05-01T14:50:38.648Z</time></trkpt><trkpt lat="41.7276725" lon="13.6601216"><ele>457.0</ele><time>2026-05-01T14:50:39.639Z</time></trkpt><trkpt lat="41.7277452" lon="13.659837"><ele>452.0</ele><time>2026-05-01T14:50:40.641Z</time></trkpt><trkpt lat="41.7278176" lon="13.6595512"><ele>447.0</ele><time>2026-05-01T14:50:41.639Z</time></trkpt><trkpt lat="41.7278837" lon="13.6592841"><ele>442.0</ele><time>2026-05-01T14:50:42.644Z</time></trkpt><trkpt lat="41.727935" lon="13.6590284"><ele>442.0</ele><time>2026-05-01T14:50:43.638Z</time></trkpt><trkpt lat="41.727972" lon="13.6587749"><ele>442.0</ele><time>2026-05-01T14:50:44.641Z</time></trkpt><trkpt lat="41.7280033" lon="13.6585201"><ele>442.0</ele><time>2026-05-01T14:50:45.647Z</time></trkpt><trkpt lat="41.7280316" lon="13.6582574"><ele>441.0</ele><time>2026-05-01T14:50:46.646Z</time></trkpt><trkpt lat="41.7280597" lon="13.6579941"><ele>440.0</ele><time>2026-05-01T14:50:47.649Z</time></trkpt><trkpt lat="41.7280839" lon="13.6577375"><ele>439.0</ele><time>2026-05-01T14:50:48.645Z</time></trkpt><trkpt lat="41.7281079" lon="13.6574816"><ele>439.0</ele><time>2026-05-01T14:50:49.678Z</time></trkpt><trkpt lat="41.7281458" lon="13.6572235"><ele>439.0</ele><time>2026-05-01T14:50:50.646Z</time></trkpt><trkpt lat="41.7281947" lon="13.6569596"><ele>439.0</ele><time>2026-05-01T14:50:51.645Z</time></trkpt><trkpt lat="41.7282474" lon="13.6566913"><ele>439.33333333333337</ele><time>2026-05-01T14:50:52.648Z</time></trkpt><trkpt lat="41.7282996" lon="13.6564233"><ele>439.66666666666663</ele><time>2026-05-01T14:50:53.647Z</time></trkpt><trkpt lat="41.728353" lon="13.6561523"><ele>440.0</ele><time>2026-05-01T14:50:54.662Z</time></trkpt><trkpt lat="41.7284046" lon="13.6558782"><ele>440.3333333333333</ele><time>2026-05-01T14:50:55.652Z</time></trkpt><trkpt lat="41.728459" lon="13.6555997"><ele>440.66666666666663</ele><time>2026-05-01T14:50:56.643Z</time></trkpt><trkpt lat="41.728512" lon="13.655318"><ele>441.0</ele><time>2026-05-01T14:50:57.643Z</time></trkpt><trkpt lat="41.7285607" lon="13.6550403"><ele>441.0</ele><time>2026-05-01T14:50:58.647Z</time></trkpt><trkpt lat="41.7286095" lon="13.6547781"><ele>441.0</ele><time>2026-05-01T14:50:59.639Z</time></trkpt><trkpt lat="41.728657" lon="13.6545272"><ele>441.0</ele><time>2026-05-01T14:51:00.648Z</time></trkpt><trkpt lat="41.7287098" lon="13.6542856"><ele>441.66666666666663</ele><time>2026-05-01T14:51:01.642Z</time></trkpt><trkpt lat="41.7287767" lon="13.6540365"><ele>442.3333333333333</ele><time>2026-05-01T14:51:02.646Z</time></trkpt><trkpt lat="41.7288592" lon="13.6537785"><ele>443.0</ele><time>2026-05-01T14:51:03.658Z</time></trkpt><trkpt lat="41.7289531" lon="13.6535169"><ele>439.3333333333333</ele><time>2026-05-01T14:51:04.643Z</time></trkpt><trkpt lat="41.7290487" lon="13.6532465"><ele>435.66666666666663</ele><time>2026-05-01T14:51:05.65Z</time></trkpt><trkpt lat="41.7291384" lon="13.65298"><ele>432.0</ele><time>2026-05-01T14:51:06.64Z</time></trkpt><trkpt lat="41.7292196" lon="13.6527244"><ele>432.0</ele><time>2026-05-01T14:51:07.634Z</time></trkpt><trkpt lat="41.7292953" lon="13.6524731"><ele>432.0</ele><time>2026-05-01T14:51:08.638Z</time></trkpt><trkpt lat="41.7293628" lon="13.6522136"><ele>432.0</ele><time>2026-05-01T14:51:09.644Z</time></trkpt><trkpt lat="41.7294228" lon="13.6519296"><ele>432.0</ele><time>2026-05-01T14:51:10.645Z</time></trkpt><trkpt lat="41.7294689" lon="13.6516085"><ele>432.0</ele><time>2026-05-01T14:51:11.641Z</time></trkpt><trkpt lat="41.7295107" lon="13.6512666"><ele>430.5</ele><time>2026-05-01T14:51:12.64Z</time></trkpt><trkpt lat="41.7295476" lon="13.6509399"><ele>429.0</ele><time>2026-05-01T14:51:13.637Z</time></trkpt><trkpt lat="41.7295855" lon="13.6506357"><ele>429.0</ele><time>2026-05-01T14:51:14.635Z</time></trkpt><trkpt lat="41.729619" lon="13.6503561"><ele>429.0</ele><time>2026-05-01T14:51:15.639Z</time></trkpt><trkpt lat="41.7296484" lon="13.6501094"><ele>429.0</ele><time>2026-05-01T14:51:16.633Z</time></trkpt><trkpt lat="41.7296711" lon="13.6498717"><ele>427.33333333333337</ele><time>2026-05-01T14:51:17.643Z</time></trkpt><trkpt lat="41.7296793" lon="13.649643"><ele>425.6666666666667</ele><time>2026-05-01T14:51:18.635Z</time></trkpt><trkpt lat="41.7296595" lon="13.6494012"><ele>424.0</ele><time>2026-05-01T14:51:19.633Z</time></trkpt><trkpt lat="41.7296122" lon="13.6491417"><ele>421.0</ele><time>2026-05-01T14:51:20.64Z</time></trkpt><trkpt lat="41.729558" lon="13.6488513"><ele>418.0</ele><time>2026-05-01T14:51:21.641Z</time></trkpt><trkpt lat="41.7295165" lon="13.6485497"><ele>416.6666666666667</ele><time>2026-05-01T14:51:22.661Z</time></trkpt><trkpt lat="41.7294802" lon="13.6482527"><ele>415.33333333333337</ele><time>2026-05-01T14:51:23.632Z</time></trkpt><trkpt lat="41.7294447" lon="13.6479668"><ele>414.0</ele><time>2026-05-01T14:51:24.642Z</time></trkpt><trkpt lat="41.7294334" lon="13.647674"><ele>412.66666666666663</ele><time>2026-05-01T14:51:25.645Z</time></trkpt><trkpt lat="41.7294364" lon="13.6473773"><ele>411.3333333333333</ele><time>2026-05-01T14:51:26.642Z</time></trkpt><trkpt lat="41.7294456" lon="13.6470866"><ele>410.0</ele><time>2026-05-01T14:51:27.675Z</time></trkpt><trkpt lat="41.7294569" lon="13.6468136"><ele>407.66666666666663</ele><time>2026-05-01T14:51:28.644Z</time></trkpt><trkpt lat="41.7294681" lon="13.6465558"><ele>405.33333333333337</ele><time>2026-05-01T14:51:29.654Z</time></trkpt><trkpt lat="41.7294762" lon="13.6462997"><ele>403.0</ele><time>2026-05-01T14:51:30.645Z</time></trkpt><trkpt lat="41.7294839" lon="13.6460403"><ele>401.0</ele><time>2026-05-01T14:51:31.642Z</time></trkpt><trkpt lat="41.7294919" lon="13.6457679"><ele>399.0</ele><time>2026-05-01T14:51:32.656Z</time></trkpt><trkpt lat="41.7295016" lon="13.64549"><ele>397.0</ele><time>2026-05-01T14:51:33.647Z</time></trkpt><trkpt lat="41.7295126" lon="13.6452068"><ele>396.33333333333337</ele><time>2026-05-01T14:51:34.646Z</time></trkpt><trkpt lat="41.7295221" lon="13.6449227"><ele>395.66666666666663</ele><time>2026-05-01T14:51:35.653Z</time></trkpt><trkpt lat="41.7295305" lon="13.6446354"><ele>395.0</ele><time>2026-05-01T14:51:36.644Z</time></trkpt><trkpt lat="41.7295379" lon="13.6443385"><ele>394.3333333333333</ele><time>2026-05-01T14:51:37.658Z</time></trkpt><trkpt lat="41.7295345" lon="13.6440559"><ele>393.66666666666663</ele><time>2026-05-01T14:51:38.647Z</time></trkpt><trkpt lat="41.7295185" lon="13.6437767"><ele>393.0</ele><time>2026-05-01T14:51:39.649Z</time></trkpt><trkpt lat="41.7294857" lon="13.6434953"><ele>393.0</ele><time>2026-05-01T14:51:40.648Z</time></trkpt><trkpt lat="41.7294413" lon="13.6432151"><ele>393.0</ele><time>2026-05-01T14:51:41.639Z</time></trkpt><trkpt lat="41.7293853" lon="13.6429301"><ele>393.0</ele><time>2026-05-01T14:51:42.644Z</time></trkpt><trkpt lat="41.7293109" lon="13.642648"><ele>388.0</ele><time>2026-05-01T14:51:43.648Z</time></trkpt><trkpt lat="41.7292227" lon="13.6423745"><ele>383.0</ele><time>2026-05-01T14:51:44.637Z</time></trkpt><trkpt lat="41.7291252" lon="13.6421191"><ele>378.0</ele><time>2026-05-01T14:51:45.645Z</time></trkpt><trkpt lat="41.7290241" lon="13.6418776"><ele>378.0</ele><time>2026-05-01T14:51:46.644Z</time></trkpt><trkpt lat="41.7289247" lon="13.6416488"><ele>378.0</ele><time>2026-05-01T14:51:47.644Z</time></trkpt><trkpt lat="41.7288342" lon="13.6414236"><ele>378.0</ele><time>2026-05-01T14:51:48.631Z</time></trkpt><trkpt lat="41.7287503" lon="13.6412106"><ele>379.0</ele><time>2026-05-01T14:51:49.649Z</time></trkpt><trkpt lat="41.7286703" lon="13.6409986"><ele>380.0</ele><time>2026-05-01T14:51:50.64Z</time></trkpt><trkpt lat="41.7286002" lon="13.6407929"><ele>381.0</ele><time>2026-05-01T14:51:51.649Z</time></trkpt><trkpt lat="41.7285429" lon="13.6405797"><ele>373.0</ele><time>2026-05-01T14:51:52.649Z</time></trkpt><trkpt lat="41.7285022" lon="13.6403594"><ele>365.0</ele><time>2026-05-01T14:51:53.639Z</time></trkpt><trkpt lat="41.7284789" lon="13.640129"><ele>357.0</ele><time>2026-05-01T14:51:54.637Z</time></trkpt><trkpt lat="41.7284698" lon="13.6398814"><ele>356.6666666666667</ele><time>2026-05-01T14:51:55.638Z</time></trkpt><trkpt lat="41.7284709" lon="13.6396152"><ele>356.33333333333337</ele><time>2026-05-01T14:51:56.638Z</time></trkpt><trkpt lat="41.7284702" lon="13.6393358"><ele>356.0</ele><time>2026-05-01T14:51:57.636Z</time></trkpt><trkpt lat="41.7284653" lon="13.6390627"><ele>355.33333333333337</ele><time>2026-05-01T14:51:58.642Z</time></trkpt><trkpt lat="41.7284427" lon="13.6387923"><ele>354.6666666666667</ele><time>2026-05-01T14:51:59.633Z</time></trkpt><trkpt lat="41.728409" lon="13.638516"><ele>354.0</ele><time>2026-05-01T14:52:00.646Z</time></trkpt><trkpt lat="41.728363" lon="13.6382552"><ele>354.0</ele><time>2026-05-01T14:52:01.642Z</time></trkpt><trkpt lat="41.7283037" lon="13.638015"><ele>354.0</ele><time>2026-05-01T14:52:02.646Z</time></trkpt><trkpt lat="41.728236" lon="13.6377817"><ele>354.0</ele><time>2026-05-01T14:52:03.636Z</time></trkpt><trkpt lat="41.728143" lon="13.6375456"><ele>355.0</ele><time>2026-05-01T14:52:04.632Z</time></trkpt><trkpt lat="41.7280408" lon="13.6373095"><ele>356.0</ele><time>2026-05-01T14:52:05.641Z</time></trkpt><trkpt lat="41.7279285" lon="13.6370811"><ele>357.0</ele><time>2026-05-01T14:52:06.641Z</time></trkpt><trkpt lat="41.7278268" lon="13.6368585"><ele>358.0</ele><time>2026-05-01T14:52:07.665Z</time></trkpt><trkpt lat="41.7277366" lon="13.6366356"><ele>359.0</ele><time>2026-05-01T14:52:08.635Z</time></trkpt><trkpt lat="41.7276658" lon="13.6364049"><ele>360.0</ele><time>2026-05-01T14:52:09.653Z</time></trkpt><trkpt lat="41.7276043" lon="13.6361692"><ele>351.6666666666667</ele><time>2026-05-01T14:52:10.644Z</time></trkpt><trkpt lat="41.7275527" lon="13.6359176"><ele>343.33333333333337</ele><time>2026-05-01T14:52:11.647Z</time></trkpt><trkpt lat="41.7275116" lon="13.6356568"><ele>335.0</ele><time>2026-05-01T14:52:12.638Z</time></trkpt><trkpt lat="41.727483" lon="13.6353819"><ele>334.33333333333337</ele><time>2026-05-01T14:52:13.652Z</time></trkpt><trkpt lat="41.7274642" lon="13.6350985"><ele>333.6666666666667</ele><time>2026-05-01T14:52:14.638Z</time></trkpt><trkpt lat="41.7274516" lon="13.634827"><ele>333.0</ele><time>2026-05-01T14:52:15.636Z</time></trkpt><trkpt lat="41.7274388" lon="13.6345767"><ele>332.5</ele><time>2026-05-01T14:52:16.647Z</time></trkpt><trkpt lat="41.7274337" lon="13.6343516"><ele>332.0</ele><time>2026-05-01T14:52:17.64Z</time></trkpt><trkpt lat="41.727442" lon="13.6341661"><ele>331.5</ele><time>2026-05-01T14:52:18.656Z</time></trkpt><trkpt lat="41.7274589" lon="13.6340085"><ele>331.0</ele><time>2026-05-01T14:52:19.635Z</time></trkpt><trkpt lat="41.727496" lon="13.6338629"><ele>331.0</ele><time>2026-05-01T14:52:20.647Z</time></trkpt><trkpt lat="41.7275575" lon="13.6337304"><ele>331.0</ele><time>2026-05-01T14:52:21.642Z</time></trkpt><trkpt lat="41.7276369" lon="13.6336136"><ele>331.0</ele><time>2026-05-01T14:52:22.644Z</time></trkpt><trkpt lat="41.7277121" lon="13.6334902"><ele>331.0</ele><time>2026-05-01T14:52:23.642Z</time></trkpt><trkpt lat="41.727759" lon="13.633363"><ele>329.25</ele><time>2026-05-01T14:52:24.641Z</time></trkpt><trkpt lat="41.7277607" lon="13.6332197"><ele>327.5</ele><time>2026-05-01T14:52:25.642Z</time></trkpt><trkpt lat="41.7277278" lon="13.6330732"><ele>325.75</ele><time>2026-05-01T14:52:26.643Z</time></trkpt><trkpt lat="41.7276684" lon="13.6329231"><ele>324.0</ele><time>2026-05-01T14:52:27.637Z</time></trkpt><trkpt lat="41.7276034" lon="13.6327563"><ele>324.0</ele><time>2026-05-01T14:52:28.647Z</time></trkpt><trkpt lat="41.7275654" lon="13.6325754"><ele>324.0</ele><time>2026-05-01T14:52:29.649Z</time></trkpt><trkpt lat="41.7275437" lon="13.6323623"><ele>324.0</ele><time>2026-05-01T14:52:30.635Z</time></trkpt><trkpt lat="41.7275384" lon="13.6321322"><ele>323.6666666666667</ele><time>2026-05-01T14:52:31.666Z</time></trkpt><trkpt lat="41.7275498" lon="13.6318806"><ele>323.33333333333337</ele><time>2026-05-01T14:52:32.639Z</time></trkpt><trkpt lat="41.7275672" lon="13.631603"><ele>323.0</ele><time>2026-05-01T14:52:33.639Z</time></trkpt><trkpt lat="41.7275877" lon="13.6313409"><ele>322.33333333333337</ele><time>2026-05-01T14:52:34.643Z</time></trkpt><trkpt lat="41.7276196" lon="13.6311067"><ele>321.6666666666667</ele><time>2026-05-01T14:52:35.643Z</time></trkpt><trkpt lat="41.7276736" lon="13.630897"><ele>321.0</ele><time>2026-05-01T14:52:36.638Z</time></trkpt><trkpt lat="41.7277369" lon="13.6307159"><ele>323.0</ele><time>2026-05-01T14:52:37.667Z</time></trkpt><trkpt lat="41.7278097" lon="13.6305615"><ele>325.0</ele><time>2026-05-01T14:52:38.642Z</time></trkpt><trkpt lat="41.7278993" lon="13.6304305"><ele>327.0</ele><time>2026-05-01T14:52:39.65Z</time></trkpt><trkpt lat="41.7280073" lon="13.6303142"><ele>329.0</ele><time>2026-05-01T14:52:40.643Z</time></trkpt><trkpt lat="41.7281307" lon="13.6302131"><ele>329.0</ele><time>2026-05-01T14:52:41.636Z</time></trkpt><trkpt lat="41.7282679" lon="13.6301414"><ele>329.0</ele><time>2026-05-01T14:52:42.643Z</time></trkpt><trkpt lat="41.7284187" lon="13.6300838"><ele>329.0</ele><time>2026-05-01T14:52:43.636Z</time></trkpt><trkpt lat="41.72858" lon="13.6300267"><ele>329.6666666666667</ele><time>2026-05-01T14:52:44.637Z</time></trkpt><trkpt lat="41.7287419" lon="13.6299769"><ele>330.3333333333333</ele><time>2026-05-01T14:52:45.64Z</time></trkpt><trkpt lat="41.7289074" lon="13.6299162"><ele>331.0</ele><time>2026-05-01T14:52:46.643Z</time></trkpt><trkpt lat="41.7290785" lon="13.6298511"><ele>331.0</ele><time>2026-05-01T14:52:47.651Z</time></trkpt><trkpt lat="41.7292518" lon="13.6297774"><ele>331.0</ele><time>2026-05-01T14:52:48.641Z</time></trkpt><trkpt lat="41.7294317" lon="13.6296977"><ele>331.0</ele><time>2026-05-01T14:52:49.644Z</time></trkpt><trkpt lat="41.7296117" lon="13.6296169"><ele>328.0</ele><time>2026-05-01T14:52:50.641Z</time></trkpt><trkpt lat="41.7298073" lon="13.6295381"><ele>325.0</ele><time>2026-05-01T14:52:51.651Z</time></trkpt><trkpt lat="41.7300099" lon="13.6294573"><ele>322.0</ele><time>2026-05-01T14:52:52.64Z</time></trkpt><trkpt lat="41.7302207" lon="13.6293614"><ele>312.0</ele><time>2026-05-01T14:52:53.655Z</time></trkpt><trkpt lat="41.7304502" lon="13.6292552"><ele>302.0</ele><time>2026-05-01T14:52:54.641Z</time></trkpt><trkpt lat="41.7307024" lon="13.6291303"><ele>302.0</ele><time>2026-05-01T14:52:55.646Z</time></trkpt><trkpt lat="41.7309722" lon="13.6289884"><ele>302.0</ele><time>2026-05-01T14:52:56.642Z</time></trkpt><trkpt lat="41.7312565" lon="13.628831"><ele>300.5</ele><time>2026-05-01T14:52:57.645Z</time></trkpt><trkpt lat="41.7315447" lon="13.6286517"><ele>299.0</ele><time>2026-05-01T14:52:58.649Z</time></trkpt><trkpt lat="41.7318298" lon="13.6284607"><ele>298.0</ele><time>2026-05-01T14:52:59.646Z</time></trkpt><trkpt lat="41.7320964" lon="13.6282739"><ele>297.0</ele><time>2026-05-01T14:53:00.645Z</time></trkpt><trkpt lat="41.7323473" lon="13.6280878"><ele>297.0</ele><time>2026-05-01T14:53:01.645Z</time></trkpt><trkpt lat="41.7325954" lon="13.6278849"><ele>297.0</ele><time>2026-05-01T14:53:02.644Z</time></trkpt><trkpt lat="41.7328447" lon="13.6276723"><ele>297.5</ele><time>2026-05-01T14:53:03.652Z</time></trkpt><trkpt lat="41.7330933" lon="13.6274392"><ele>298.0</ele><time>2026-05-01T14:53:04.638Z</time></trkpt><trkpt lat="41.7333391" lon="13.6271968"><ele>300.5</ele><time>2026-05-01T14:53:05.642Z</time></trkpt><trkpt lat="41.7335824" lon="13.626939"><ele>303.0</ele><time>2026-05-01T14:53:06.649Z</time></trkpt><trkpt lat="41.7338201" lon="13.6266662"><ele>303.0</ele><time>2026-05-01T14:53:07.644Z</time></trkpt><trkpt lat="41.7340516" lon="13.626377"><ele>303.0</ele><time>2026-05-01T14:53:08.635Z</time></trkpt><trkpt lat="41.7342775" lon="13.6260766"><ele>302.5</ele><time>2026-05-01T14:53:09.643Z</time></trkpt><trkpt lat="41.7345011" lon="13.6257562"><ele>302.0</ele><time>2026-05-01T14:53:10.644Z</time></trkpt><trkpt lat="41.7347308" lon="13.6254112"><ele>303.0</ele><time>2026-05-01T14:53:11.654Z</time></trkpt><trkpt lat="41.7349603" lon="13.6250539"><ele>304.0</ele><time>2026-05-01T14:53:12.652Z</time></trkpt><trkpt lat="41.7351888" lon="13.6246915"><ele>304.5</ele><time>2026-05-01T14:53:13.644Z</time></trkpt><trkpt lat="41.735414" lon="13.6243467"><ele>305.0</ele><time>2026-05-01T14:53:14.649Z</time></trkpt><trkpt lat="41.735626" lon="13.6240167"><ele>305.0</ele><time>2026-05-01T14:53:15.643Z</time></trkpt><trkpt lat="41.7358322" lon="13.6237196"><ele>305.0</ele><time>2026-05-01T14:53:16.65Z</time></trkpt><trkpt lat="41.7360334" lon="13.6234312"><ele>311.5</ele><time>2026-05-01T14:53:17.643Z</time></trkpt><trkpt lat="41.7362378" lon="13.6231518"><ele>318.0</ele><time>2026-05-01T14:53:18.64Z</time></trkpt><trkpt lat="41.7364454" lon="13.622884"><ele>319.5</ele><time>2026-05-01T14:53:19.631Z</time></trkpt><trkpt lat="41.7366577" lon="13.6226309"><ele>321.0</ele><time>2026-05-01T14:53:20.647Z</time></trkpt><trkpt lat="41.7368794" lon="13.6223952"><ele>322.0</ele><time>2026-05-01T14:53:21.641Z</time></trkpt><trkpt lat="41.7371107" lon="13.6221794"><ele>323.0</ele><time>2026-05-01T14:53:22.643Z</time></trkpt><trkpt lat="41.7373488" lon="13.6219774"><ele>324.0</ele><time>2026-05-01T14:53:23.64Z</time></trkpt><trkpt lat="41.7375956" lon="13.6217982"><ele>325.0</ele><time>2026-05-01T14:53:24.648Z</time></trkpt><trkpt lat="41.7378512" lon="13.6216442"><ele>323.0</ele><time>2026-05-01T14:53:25.646Z</time></trkpt><trkpt lat="41.7381134" lon="13.6215034"><ele>321.0</ele><time>2026-05-01T14:53:26.641Z</time></trkpt><trkpt lat="41.7383896" lon="13.6213901"><ele>321.0</ele><time>2026-05-01T14:53:27.637Z</time></trkpt><trkpt lat="41.7386856" lon="13.6212895"><ele>321.0</ele><time>2026-05-01T14:53:28.64Z</time></trkpt><trkpt lat="41.7390008" lon="13.6211927"><ele>321.0</ele><time>2026-05-01T14:53:29.651Z</time></trkpt><trkpt lat="41.7393335" lon="13.6211072"><ele>321.0</ele><time>2026-05-01T14:53:30.645Z</time></trkpt><trkpt lat="41.7396768" lon="13.621023"><ele>321.0</ele><time>2026-05-01T14:53:31.647Z</time></trkpt><trkpt lat="41.7400329" lon="13.6209435"><ele>321.0</ele><time>2026-05-01T14:53:32.644Z</time></trkpt><trkpt lat="41.7404009" lon="13.6208592"><ele>321.0</ele><time>2026-05-01T14:53:33.643Z</time></trkpt><trkpt lat="41.7407749" lon="13.620774"><ele>321.0</ele><time>2026-05-01T14:53:34.642Z</time></trkpt><trkpt lat="41.7411547" lon="13.6206861"><ele>322.0</ele><time>2026-05-01T14:53:35.641Z</time></trkpt><trkpt lat="41.7415371" lon="13.6206058"><ele>323.0</ele><time>2026-05-01T14:53:36.643Z</time></trkpt><trkpt lat="41.7419052" lon="13.6205267"><ele>324.5</ele><time>2026-05-01T14:53:37.638Z</time></trkpt><trkpt lat="41.7422578" lon="13.6204548"><ele>326.0</ele><time>2026-05-01T14:53:38.641Z</time></trkpt><trkpt lat="41.7425945" lon="13.6203775"><ele>321.5</ele><time>2026-05-01T14:53:39.642Z</time></trkpt><trkpt lat="41.7429211" lon="13.6203041"><ele>317.0</ele><time>2026-05-01T14:53:40.644Z</time></trkpt><trkpt lat="41.7432416" lon="13.6202332"><ele>315.0</ele><time>2026-05-01T14:53:41.649Z</time></trkpt><trkpt lat="41.7435592" lon="13.6201612"><ele>313.0</ele><time>2026-05-01T14:53:42.645Z</time></trkpt><trkpt lat="41.7438727" lon="13.6200906"><ele>313.0</ele><time>2026-05-01T14:53:43.639Z</time></trkpt><trkpt lat="41.7441788" lon="13.6200268"><ele>313.0</ele><time>2026-05-01T14:53:44.639Z</time></trkpt><trkpt lat="41.7444816" lon="13.6199623"><ele>313.5</ele><time>2026-05-01T14:53:45.652Z</time></trkpt><trkpt lat="41.7447842" lon="13.6198988"><ele>314.0</ele><time>2026-05-01T14:53:46.638Z</time></trkpt><trkpt lat="41.7450804" lon="13.6198385"><ele>318.0</ele><time>2026-05-01T14:53:47.645Z</time></trkpt><trkpt lat="41.7453761" lon="13.6197716"><ele>322.0</ele><time>2026-05-01T14:53:48.642Z</time></trkpt><trkpt lat="41.7456671" lon="13.6197088"><ele>322.0</ele><time>2026-05-01T14:53:49.643Z</time></trkpt><trkpt lat="41.7459497" lon="13.6196489"><ele>322.0</ele><time>2026-05-01T14:53:50.64Z</time></trkpt><trkpt lat="41.7462213" lon="13.6195898"><ele>322.5</ele><time>2026-05-01T14:53:51.635Z</time></trkpt><trkpt lat="41.7464927" lon="13.6195313"><ele>323.0</ele><time>2026-05-01T14:53:52.648Z</time></trkpt><trkpt lat="41.7467617" lon="13.6194656"><ele>311.0</ele><time>2026-05-01T14:53:53.65Z</time></trkpt><trkpt lat="41.7470253" lon="13.6193974"><ele>299.0</ele><time>2026-05-01T14:53:54.639Z</time></trkpt><trkpt lat="41.7472878" lon="13.619323"><ele>299.0</ele><time>2026-05-01T14:53:55.635Z</time></trkpt><trkpt lat="41.7475523" lon="13.6192388"><ele>299.0</ele><time>2026-05-01T14:53:56.635Z</time></trkpt><trkpt lat="41.7478148" lon="13.6191474"><ele>296.0</ele><time>2026-05-01T14:53:57.644Z</time></trkpt><trkpt lat="41.7480713" lon="13.6190396"><ele>293.0</ele><time>2026-05-01T14:53:58.64Z</time></trkpt><trkpt lat="41.748328" lon="13.6189203"><ele>293.5</ele><time>2026-05-01T14:53:59.635Z</time></trkpt><trkpt lat="41.7485843" lon="13.6187906"><ele>294.0</ele><time>2026-05-01T14:54:00.637Z</time></trkpt><trkpt lat="41.7488362" lon="13.6186436"><ele>294.5</ele><time>2026-05-01T14:54:01.643Z</time></trkpt><trkpt lat="41.7490849" lon="13.6184824"><ele>295.0</ele><time>2026-05-01T14:54:02.642Z</time></trkpt><trkpt lat="41.7493267" lon="13.6182999"><ele>294.0</ele><time>2026-05-01T14:54:03.648Z</time></trkpt><trkpt lat="41.7495636" lon="13.6181078"><ele>293.0</ele><time>2026-05-01T14:54:04.64Z</time></trkpt><trkpt lat="41.7497987" lon="13.617901"><ele>293.5</ele><time>2026-05-01T14:54:05.637Z</time></trkpt><trkpt lat="41.7500294" lon="13.6176834"><ele>294.0</ele><time>2026-05-01T14:54:06.643Z</time></trkpt><trkpt lat="41.7502628" lon="13.6174463"><ele>294.0</ele><time>2026-05-01T14:54:07.639Z</time></trkpt><trkpt lat="41.750505" lon="13.617188"><ele>294.0</ele><time>2026-05-01T14:54:08.629Z</time></trkpt><trkpt lat="41.7507547" lon="13.6169187"><ele>294.0</ele><time>2026-05-01T14:54:09.656Z</time></trkpt><trkpt lat="41.7510086" lon="13.6166396"><ele>294.0</ele><time>2026-05-01T14:54:10.648Z</time></trkpt><trkpt lat="41.7512657" lon="13.6163588"><ele>295.0</ele><time>2026-05-01T14:54:11.636Z</time></trkpt><trkpt lat="41.7515251" lon="13.6160777"><ele>296.0</ele><time>2026-05-01T14:54:12.641Z</time></trkpt><trkpt lat="41.7517864" lon="13.6157883"><ele>295.0</ele><time>2026-05-01T14:54:13.643Z</time></trkpt><trkpt lat="41.7520398" lon="13.6155075"><ele>294.0</ele><time>2026-05-01T14:54:14.644Z</time></trkpt><trkpt lat="41.7522828" lon="13.6152434"><ele>294.0</ele><time>2026-05-01T14:54:15.651Z</time></trkpt><trkpt lat="41.7525145" lon="13.6149935"><ele>294.0</ele><time>2026-05-01T14:54:16.644Z</time></trkpt><trkpt lat="41.7527403" lon="13.6147497"><ele>294.5</ele><time>2026-05-01T14:54:17.645Z</time></trkpt><trkpt lat="41.752964" lon="13.6145126"><ele>295.0</ele><time>2026-05-01T14:54:18.635Z</time></trkpt><trkpt lat="41.7531883" lon="13.614292"><ele>295.5</ele><time>2026-05-01T14:54:19.64Z</time></trkpt><trkpt lat="41.7534145" lon="13.6140857"><ele>296.0</ele><time>2026-05-01T14:54:20.637Z</time></trkpt><trkpt lat="41.7536446" lon="13.613885"><ele>296.5</ele><time>2026-05-01T14:54:21.645Z</time></trkpt><trkpt lat="41.7538795" lon="13.613696"><ele>297.0</ele><time>2026-05-01T14:54:22.64Z</time></trkpt><trkpt lat="41.7541215" lon="13.6135213"><ele>297.5</ele><time>2026-05-01T14:54:23.647Z</time></trkpt><trkpt lat="41.754376" lon="13.6133651"><ele>298.0</ele><time>2026-05-01T14:54:24.641Z</time></trkpt><trkpt lat="41.754634" lon="13.6132271"><ele>298.0</ele><time>2026-05-01T14:54:25.65Z</time></trkpt><trkpt lat="41.7548968" lon="13.6131088"><ele>298.0</ele><time>2026-05-01T14:54:26.643Z</time></trkpt><trkpt lat="41.7551677" lon="13.612996"><ele>297.5</ele><time>2026-05-01T14:54:27.65Z</time></trkpt><trkpt lat="41.7554429" lon="13.6128943"><ele>297.0</ele><time>2026-05-01T14:54:28.641Z</time></trkpt><trkpt lat="41.7557211" lon="13.6128084"><ele>297.0</ele><time>2026-05-01T14:54:29.643Z</time></trkpt><trkpt lat="41.7559986" lon="13.6127375"><ele>297.0</ele><time>2026-05-01T14:54:30.639Z</time></trkpt><trkpt lat="41.756275" lon="13.6126749"><ele>297.0</ele><time>2026-05-01T14:54:31.649Z</time></trkpt><trkpt lat="41.7565484" lon="13.6126096"><ele>297.0</ele><time>2026-05-01T14:54:32.656Z</time></trkpt><trkpt lat="41.756825" lon="13.6125452"><ele>298.5</ele><time>2026-05-01T14:54:33.639Z</time></trkpt><trkpt lat="41.757102" lon="13.6124758"><ele>300.0</ele><time>2026-05-01T14:54:34.635Z</time></trkpt><trkpt lat="41.7573795" lon="13.612394"><ele>300.0</ele><time>2026-05-01T14:54:35.641Z</time></trkpt><trkpt lat="41.7576504" lon="13.6123025"><ele>300.0</ele><time>2026-05-01T14:54:36.643Z</time></trkpt><trkpt lat="41.7579195" lon="13.6121969"><ele>301.0</ele><time>2026-05-01T14:54:37.635Z</time></trkpt><trkpt lat="41.7581814" lon="13.6120715"><ele>302.0</ele><time>2026-05-01T14:54:38.642Z</time></trkpt><trkpt lat="41.7584364" lon="13.6119331"><ele>301.0</ele><time>2026-05-01T14:54:39.648Z</time></trkpt><trkpt lat="41.7586829" lon="13.6117809"><ele>300.0</ele><time>2026-05-01T14:54:40.637Z</time></trkpt><trkpt lat="41.7589157" lon="13.61161"><ele>300.0</ele><time>2026-05-01T14:54:41.638Z</time></trkpt><trkpt lat="41.7591443" lon="13.6114254"><ele>300.0</ele><time>2026-05-01T14:54:42.636Z</time></trkpt><trkpt lat="41.7593682" lon="13.6112042"><ele>298.5</ele><time>2026-05-01T14:54:43.639Z</time></trkpt><trkpt lat="41.7595916" lon="13.6109554"><ele>297.0</ele><time>2026-05-01T14:54:44.637Z</time></trkpt><trkpt lat="41.759816" lon="13.610682"><ele>297.0</ele><time>2026-05-01T14:54:45.638Z</time></trkpt><trkpt lat="41.7600379" lon="13.6103962"><ele>297.0</ele><time>2026-05-01T14:54:46.638Z</time></trkpt><trkpt lat="41.7602432" lon="13.6101247"><ele>303.0</ele><time>2026-05-01T14:54:47.625Z</time></trkpt><trkpt lat="41.7604436" lon="13.6098793"><ele>309.0</ele><time>2026-05-01T14:54:48.647Z</time></trkpt><trkpt lat="41.760653" lon="13.6096574"><ele>305.5</ele><time>2026-05-01T14:54:49.642Z</time></trkpt><trkpt lat="41.7608715" lon="13.6094556"><ele>302.0</ele><time>2026-05-01T14:54:50.64Z</time></trkpt><trkpt lat="41.7610956" lon="13.6092752"><ele>302.0</ele><time>2026-05-01T14:54:51.644Z</time></trkpt><trkpt lat="41.7613328" lon="13.6091045"><ele>302.0</ele><time>2026-05-01T14:54:52.639Z</time></trkpt><trkpt lat="41.7615897" lon="13.6089446"><ele>302.0</ele><time>2026-05-01T14:54:53.64Z</time></trkpt><trkpt lat="41.7618634" lon="13.6087867"><ele>302.0</ele><time>2026-05-01T14:54:54.647Z</time></trkpt><trkpt lat="41.7621429" lon="13.6086203"><ele>300.5</ele><time>2026-05-01T14:54:55.635Z</time></trkpt><trkpt lat="41.7624169" lon="13.6084606"><ele>299.0</ele><time>2026-05-01T14:54:56.658Z</time></trkpt><trkpt lat="41.7626733" lon="13.6083092"><ele>299.5</ele><time>2026-05-01T14:54:57.644Z</time></trkpt><trkpt lat="41.7629106" lon="13.6081594"><ele>300.0</ele><time>2026-05-01T14:54:58.641Z</time></trkpt><trkpt lat="41.7631397" lon="13.6080072"><ele>300.0</ele><time>2026-05-01T14:54:59.643Z</time></trkpt><trkpt lat="41.7633648" lon="13.6078466"><ele>300.0</ele><time>2026-05-01T14:55:00.65Z</time></trkpt><trkpt lat="41.7635891" lon="13.6076728"><ele>301.0</ele><time>2026-05-01T14:55:01.645Z</time></trkpt><trkpt lat="41.7638132" lon="13.6074782"><ele>302.0</ele><time>2026-05-01T14:55:02.642Z</time></trkpt><trkpt lat="41.7640357" lon="13.6072591"><ele>302.0</ele><time>2026-05-01T14:55:03.642Z</time></trkpt><trkpt lat="41.76426" lon="13.6070158"><ele>302.0</ele><time>2026-05-01T14:55:04.64Z</time></trkpt><trkpt lat="41.7644796" lon="13.6067463"><ele>302.0</ele><time>2026-05-01T14:55:05.655Z</time></trkpt><trkpt lat="41.7646944" lon="13.6064531"><ele>302.0</ele><time>2026-05-01T14:55:06.648Z</time></trkpt><trkpt lat="41.7649027" lon="13.6061305"><ele>303.0</ele><time>2026-05-01T14:55:07.639Z</time></trkpt><trkpt lat="41.7651106" lon="13.6057816"><ele>304.0</ele><time>2026-05-01T14:55:08.632Z</time></trkpt><trkpt lat="41.7653158" lon="13.60542"><ele>303.0</ele><time>2026-05-01T14:55:09.638Z</time></trkpt><trkpt lat="41.7655162" lon="13.6050676"><ele>302.0</ele><time>2026-05-01T14:55:10.651Z</time></trkpt><trkpt lat="41.7657011" lon="13.60475"><ele>302.5</ele><time>2026-05-01T14:55:11.633Z</time></trkpt><trkpt lat="41.7658797" lon="13.6044518"><ele>303.0</ele><time>2026-05-01T14:55:12.646Z</time></trkpt><trkpt lat="41.7660637" lon="13.6041689"><ele>303.0</ele><time>2026-05-01T14:55:13.639Z</time></trkpt><trkpt lat="41.7662536" lon="13.6038827"><ele>303.0</ele><time>2026-05-01T14:55:14.639Z</time></trkpt><trkpt lat="41.7664484" lon="13.6036074"><ele>303.0</ele><time>2026-05-01T14:55:15.635Z</time></trkpt><trkpt lat="41.7666512" lon="13.6033466"><ele>303.0</ele><time>2026-05-01T14:55:16.637Z</time></trkpt><trkpt lat="41.7668612" lon="13.6031013"><ele>304.0</ele><time>2026-05-01T14:55:17.647Z</time></trkpt><trkpt lat="41.7670738" lon="13.6028729"><ele>305.0</ele><time>2026-05-01T14:55:18.638Z</time></trkpt><trkpt lat="41.7672875" lon="13.6026615"><ele>305.0</ele><time>2026-05-01T14:55:19.657Z</time></trkpt><trkpt lat="41.7675018" lon="13.602466"><ele>305.0</ele><time>2026-05-01T14:55:20.641Z</time></trkpt><trkpt lat="41.7677076" lon="13.6022921"><ele>305.33333333333337</ele><time>2026-05-01T14:55:21.642Z</time></trkpt><trkpt lat="41.7679034" lon="13.6021325"><ele>305.6666666666667</ele><time>2026-05-01T14:55:22.647Z</time></trkpt><trkpt lat="41.7680847" lon="13.601989"><ele>306.0</ele><time>2026-05-01T14:55:23.637Z</time></trkpt><trkpt lat="41.7682564" lon="13.6018624"><ele>305.6666666666667</ele><time>2026-05-01T14:55:24.641Z</time></trkpt><trkpt lat="41.7684114" lon="13.6017574"><ele>305.33333333333337</ele><time>2026-05-01T14:55:25.643Z</time></trkpt><trkpt lat="41.7685546" lon="13.6016606"><ele>305.0</ele><time>2026-05-01T14:55:26.639Z</time></trkpt><trkpt lat="41.7686921" lon="13.6015807"><ele>305.0</ele><time>2026-05-01T14:55:27.641Z</time></trkpt><trkpt lat="41.7688204" lon="13.6015056"><ele>305.0</ele><time>2026-05-01T14:55:28.662Z</time></trkpt><trkpt lat="41.7689371" lon="13.6014367"><ele>305.0</ele><time>2026-05-01T14:55:29.638Z</time></trkpt><trkpt lat="41.769042" lon="13.6013666"><ele>305.0</ele><time>2026-05-01T14:55:30.649Z</time></trkpt><trkpt lat="41.769138" lon="13.6013055"><ele>305.0</ele><time>2026-05-01T14:55:31.646Z</time></trkpt><trkpt lat="41.7692197" lon="13.6012517"><ele>305.0</ele><time>2026-05-01T14:55:32.643Z</time></trkpt><trkpt lat="41.7692875" lon="13.6012085"><ele>305.0</ele><time>2026-05-01T14:55:33.643Z</time></trkpt><trkpt lat="41.7693518" lon="13.6011755"><ele>305.0</ele><time>2026-05-01T14:55:34.647Z</time></trkpt><trkpt lat="41.7694696" lon="13.6011321"><ele>305.0</ele><time>2026-05-01T14:55:36.645Z</time></trkpt><trkpt lat="41.7695796" lon="13.6011506"><ele>304.83333333333337</ele><time>2026-05-01T14:55:38.639Z</time></trkpt><trkpt lat="41.7696591" lon="13.6012123"><ele>304.6666666666667</ele><time>2026-05-01T14:55:40.642Z</time></trkpt><trkpt lat="41.769734" lon="13.6012898"><ele>304.5</ele><time>2026-05-01T14:55:42.655Z</time></trkpt><trkpt lat="41.7698111" lon="13.6013568"><ele>304.3333333333333</ele><time>2026-05-01T14:55:44.637Z</time></trkpt><trkpt lat="41.7698775" lon="13.6014009"><ele>304.16666666666663</ele><time>2026-05-01T14:55:46.632Z</time></trkpt><trkpt lat="41.7699385" lon="13.6013581"><ele>304.0</ele><time>2026-05-01T15:07:05.641Z</time></trkpt><trkpt lat="41.7699625" lon="13.6012759"><ele>303.66666666666663</ele><time>2026-05-01T15:07:07.644Z</time></trkpt><trkpt lat="41.7699616" lon="13.6011509"><ele>303.3333333333333</ele><time>2026-05-01T15:07:09.642Z</time></trkpt><trkpt lat="41.7699612" lon="13.601059"><ele>303.0</ele><time>2026-05-01T15:07:10.632Z</time></trkpt><trkpt lat="41.769983" lon="13.6008999"><ele>302.6666666666667</ele><time>2026-05-01T15:07:12.641Z</time></trkpt><trkpt lat="41.7700101" lon="13.6008197"><ele>302.33333333333337</ele><time>2026-05-01T15:07:13.632Z</time></trkpt><trkpt lat="41.7700464" lon="13.6007411"><ele>302.0</ele><time>2026-05-01T15:07:14.645Z</time></trkpt><trkpt lat="41.7701421" lon="13.600634"><ele>302.0</ele><time>2026-05-01T15:07:16.635Z</time></trkpt><trkpt lat="41.770206" lon="13.6005779"><ele>302.0</ele><time>2026-05-01T15:07:17.655Z</time></trkpt><trkpt lat="41.7702883" lon="13.6005189"><ele>302.0</ele><time>2026-05-01T15:07:18.633Z</time></trkpt><trkpt lat="41.7703752" lon="13.6004517"><ele>302.0</ele><time>2026-05-01T15:07:19.63Z</time></trkpt><trkpt lat="41.7704773" lon="13.6003755"><ele>302.0</ele><time>2026-05-01T15:07:20.635Z</time></trkpt><trkpt lat="41.7705884" lon="13.600291"><ele>302.0</ele><time>2026-05-01T15:07:21.636Z</time></trkpt><trkpt lat="41.7707313" lon="13.6001922"><ele>302.0</ele><time>2026-05-01T15:07:22.639Z</time></trkpt><trkpt lat="41.7708977" lon="13.600076"><ele>302.0</ele><time>2026-05-01T15:07:23.658Z</time></trkpt><trkpt lat="41.771086" lon="13.5999438"><ele>302.0</ele><time>2026-05-01T15:07:24.637Z</time></trkpt><trkpt lat="41.7712864" lon="13.5998029"><ele>302.0</ele><time>2026-05-01T15:07:25.633Z</time></trkpt><trkpt lat="41.771509" lon="13.5996473"><ele>301.5</ele><time>2026-05-01T15:07:26.636Z</time></trkpt><trkpt lat="41.7717529" lon="13.5994847"><ele>301.0</ele><time>2026-05-01T15:07:27.647Z</time></trkpt><trkpt lat="41.7720086" lon="13.5993114"><ele>300.5</ele><time>2026-05-01T15:07:28.641Z</time></trkpt><trkpt lat="41.7722796" lon="13.5991309"><ele>300.0</ele><time>2026-05-01T15:07:29.633Z</time></trkpt><trkpt lat="41.7725582" lon="13.5989386"><ele>300.5</ele><time>2026-05-01T15:07:30.644Z</time></trkpt><trkpt lat="41.7728487" lon="13.5987322"><ele>301.0</ele><time>2026-05-01T15:07:31.636Z</time></trkpt><trkpt lat="41.7731538" lon="13.5985199"><ele>301.5</ele><time>2026-05-01T15:07:32.644Z</time></trkpt><trkpt lat="41.7734668" lon="13.5983049"><ele>302.0</ele><time>2026-05-01T15:07:33.638Z</time></trkpt><trkpt lat="41.7737872" lon="13.5980783"><ele>302.0</ele><time>2026-05-01T15:07:34.639Z</time></trkpt><trkpt lat="41.7740929" lon="13.5978601"><ele>302.0</ele><time>2026-05-01T15:07:35.645Z</time></trkpt><trkpt lat="41.7743813" lon="13.5976557"><ele>303.0</ele><time>2026-05-01T15:07:36.636Z</time></trkpt><trkpt lat="41.7746596" lon="13.5974678"><ele>304.0</ele><time>2026-05-01T15:07:37.646Z</time></trkpt><trkpt lat="41.7749193" lon="13.5972848"><ele>304.0</ele><time>2026-05-01T15:07:38.631Z</time></trkpt><trkpt lat="41.7751661" lon="13.5971183"><ele>304.0</ele><time>2026-05-01T15:07:39.633Z</time></trkpt><trkpt lat="41.7754067" lon="13.5969558"><ele>304.5</ele><time>2026-05-01T15:07:40.639Z</time></trkpt><trkpt lat="41.7756321" lon="13.5967939"><ele>305.0</ele><time>2026-05-01T15:07:41.628Z</time></trkpt><trkpt lat="41.7758498" lon="13.5966512"><ele>307.0</ele><time>2026-05-01T15:07:42.64Z</time></trkpt><trkpt lat="41.7760574" lon="13.5965048"><ele>309.0</ele><time>2026-05-01T15:07:43.634Z</time></trkpt><trkpt lat="41.776263" lon="13.5963617"><ele>309.0</ele><time>2026-05-01T15:07:44.636Z</time></trkpt><trkpt lat="41.7764639" lon="13.5962187"><ele>309.0</ele><time>2026-05-01T15:07:45.645Z</time></trkpt><trkpt lat="41.7766637" lon="13.5960757"><ele>307.5</ele><time>2026-05-01T15:07:46.639Z</time></trkpt><trkpt lat="41.7768683" lon="13.5959213"><ele>306.0</ele><time>2026-05-01T15:07:47.69Z</time></trkpt><trkpt lat="41.7770786" lon="13.595756"><ele>306.0</ele><time>2026-05-01T15:07:48.631Z</time></trkpt><trkpt lat="41.7772944" lon="13.595585"><ele>306.0</ele><time>2026-05-01T15:07:49.649Z</time></trkpt><trkpt lat="41.7775082" lon="13.5954065"><ele>307.5</ele><time>2026-05-01T15:07:50.642Z</time></trkpt><trkpt lat="41.7777196" lon="13.5952149"><ele>309.0</ele><time>2026-05-01T15:07:51.631Z</time></trkpt><trkpt lat="41.7779303" lon="13.5950123"><ele>309.0</ele><time>2026-05-01T15:07:52.638Z</time></trkpt><trkpt lat="41.7781317" lon="13.5948104"><ele>309.0</ele><time>2026-05-01T15:07:53.645Z</time></trkpt><trkpt lat="41.7783259" lon="13.5946045"><ele>308.5</ele><time>2026-05-01T15:07:54.642Z</time></trkpt><trkpt lat="41.7785041" lon="13.5943978"><ele>308.0</ele><time>2026-05-01T15:07:55.649Z</time></trkpt><trkpt lat="41.7786703" lon="13.5942049"><ele>308.0</ele><time>2026-05-01T15:07:56.639Z</time></trkpt><trkpt lat="41.7788285" lon="13.5940119"><ele>308.0</ele><time>2026-05-01T15:07:57.63Z</time></trkpt><trkpt lat="41.778973" lon="13.593825"><ele>308.0</ele><time>2026-05-01T15:07:58.64Z</time></trkpt><trkpt lat="41.77911" lon="13.5936572"><ele>308.33333333333337</ele><time>2026-05-01T15:07:59.638Z</time></trkpt><trkpt lat="41.7792398" lon="13.59349"><ele>308.6666666666667</ele><time>2026-05-01T15:08:00.635Z</time></trkpt><trkpt lat="41.7793669" lon="13.593336"><ele>309.0</ele><time>2026-05-01T15:08:01.639Z</time></trkpt><trkpt lat="41.7794869" lon="13.5931965"><ele>309.0</ele><time>2026-05-01T15:08:02.637Z</time></trkpt><trkpt lat="41.779598" lon="13.5930715"><ele>309.0</ele><time>2026-05-01T15:08:03.656Z</time></trkpt><trkpt lat="41.7797022" lon="13.592957"><ele>309.0</ele><time>2026-05-01T15:08:04.636Z</time></trkpt><trkpt lat="41.7797976" lon="13.5928517"><ele>309.0</ele><time>2026-05-01T15:08:05.65Z</time></trkpt><trkpt lat="41.7798842" lon="13.5927629"><ele>308.1666666666667</ele><time>2026-05-01T15:08:06.634Z</time></trkpt><trkpt lat="41.7799576" lon="13.5926921"><ele>307.3333333333333</ele><time>2026-05-01T15:08:07.638Z</time></trkpt><trkpt lat="41.7800353" lon="13.5926535"><ele>306.5</ele><time>2026-05-01T15:08:08.644Z</time></trkpt><trkpt lat="41.7801214" lon="13.5926494"><ele>305.66666666666663</ele><time>2026-05-01T15:08:09.634Z</time></trkpt><trkpt lat="41.7801929" lon="13.5926983"><ele>304.8333333333333</ele><time>2026-05-01T15:08:10.633Z</time></trkpt><trkpt lat="41.7802493" lon="13.5927964"><ele>304.0</ele><time>2026-05-01T15:08:11.63Z</time></trkpt><trkpt lat="41.7802839" lon="13.5929041"><ele>305.0</ele><time>2026-05-01T15:08:12.636Z</time></trkpt><trkpt lat="41.7802841" lon="13.5930249"><ele>306.0</ele><time>2026-05-01T15:08:13.633Z</time></trkpt><trkpt lat="41.7802558" lon="13.5931577"><ele>307.0</ele><time>2026-05-01T15:08:14.633Z</time></trkpt><trkpt lat="41.7801926" lon="13.5932806"><ele>308.0</ele><time>2026-05-01T15:08:15.63Z</time></trkpt><trkpt lat="41.7801073" lon="13.5933686"><ele>309.0</ele><time>2026-05-01T15:08:16.634Z</time></trkpt><trkpt lat="41.7800013" lon="13.5934115"><ele>309.0</ele><time>2026-05-01T15:08:17.642Z</time></trkpt><trkpt lat="41.7798924" lon="13.5934319"><ele>309.0</ele><time>2026-05-01T15:08:18.635Z</time></trkpt><trkpt lat="41.7797935" lon="13.5934609"><ele>309.0</ele><time>2026-05-01T15:08:19.644Z</time></trkpt><trkpt lat="41.7797177" lon="13.5935106"><ele>309.0</ele><time>2026-05-01T15:08:20.633Z</time></trkpt><trkpt lat="41.7796576" lon="13.5935827"><ele>309.0</ele><time>2026-05-01T15:08:21.636Z</time></trkpt><trkpt lat="41.7796083" lon="13.5936723"><ele>310.1666666666667</ele><time>2026-05-01T15:08:22.643Z</time></trkpt><trkpt lat="41.7795786" lon="13.5937846"><ele>311.3333333333333</ele><time>2026-05-01T15:08:23.637Z</time></trkpt><trkpt lat="41.7795708" lon="13.5938996"><ele>312.5</ele><time>2026-05-01T15:08:24.66Z</time></trkpt><trkpt lat="41.7795791" lon="13.5939953"><ele>313.66666666666663</ele><time>2026-05-01T15:08:25.636Z</time></trkpt><trkpt lat="41.7796009" lon="13.594075"><ele>314.8333333333333</ele><time>2026-05-01T15:08:26.635Z</time></trkpt><trkpt lat="41.7796532" lon="13.5941366"><ele>316.0</ele><time>2026-05-01T15:08:28.636Z</time></trkpt><trkpt lat="41.7797516" lon="13.5940913"><ele>316.0</ele><time>2026-05-01T15:08:30.637Z</time></trkpt><trkpt lat="41.7798267" lon="13.5940127"><ele>316.0</ele><time>2026-05-01T15:08:31.642Z</time></trkpt><trkpt lat="41.7799187" lon="13.5939099"><ele>316.0</ele><time>2026-05-01T15:08:32.646Z</time></trkpt><trkpt lat="41.780025" lon="13.5937925"><ele>316.0</ele><time>2026-05-01T15:08:33.636Z</time></trkpt><trkpt lat="41.7801538" lon="13.5936698"><ele>317.0</ele><time>2026-05-01T15:08:34.654Z</time></trkpt><trkpt lat="41.7802825" lon="13.5935381"><ele>318.0</ele><time>2026-05-01T15:08:35.638Z</time></trkpt><trkpt lat="41.7804107" lon="13.5934039"><ele>319.0</ele><time>2026-05-01T15:08:36.64Z</time></trkpt><trkpt lat="41.7805241" lon="13.593263"><ele>319.0</ele><time>2026-05-01T15:08:37.636Z</time></trkpt><trkpt lat="41.780619" lon="13.59313"><ele>319.0</ele><time>2026-05-01T15:08:38.643Z</time></trkpt><trkpt lat="41.7806956" lon="13.5929936"><ele>319.0</ele><time>2026-05-01T15:08:39.638Z</time></trkpt><trkpt lat="41.7807528" lon="13.5928389"><ele>319.0</ele><time>2026-05-01T15:08:40.648Z</time></trkpt><trkpt lat="41.780785" lon="13.5926502"><ele>318.0</ele><time>2026-05-01T15:08:41.63Z</time></trkpt><trkpt lat="41.7808014" lon="13.5924304"><ele>317.0</ele><time>2026-05-01T15:08:42.637Z</time></trkpt><trkpt lat="41.7808099" lon="13.5922112"><ele>316.0</ele><time>2026-05-01T15:08:43.638Z</time></trkpt><trkpt lat="41.7808127" lon="13.5919959"><ele>315.75</ele><time>2026-05-01T15:08:44.636Z</time></trkpt><trkpt lat="41.7808193" lon="13.5918032"><ele>315.5</ele><time>2026-05-01T15:08:45.641Z</time></trkpt><trkpt lat="41.7808431" lon="13.591624"><ele>315.25</ele><time>2026-05-01T15:08:46.64Z</time></trkpt><trkpt lat="41.7808868" lon="13.5914602"><ele>315.0</ele><time>2026-05-01T15:08:47.639Z</time></trkpt><trkpt lat="41.7809618" lon="13.5913155"><ele>315.75</ele><time>2026-05-01T15:08:48.635Z</time></trkpt><trkpt lat="41.7810657" lon="13.5911754"><ele>316.5</ele><time>2026-05-01T15:08:49.626Z</time></trkpt><trkpt lat="41.7811792" lon="13.5910756"><ele>317.25</ele><time>2026-05-01T15:08:50.637Z</time></trkpt><trkpt lat="41.7812888" lon="13.5910267"><ele>318.0</ele><time>2026-05-01T15:08:51.628Z</time></trkpt><trkpt lat="41.7813976" lon="13.5910133"><ele>318.0</ele><time>2026-05-01T15:08:52.633Z</time></trkpt><trkpt lat="41.7815239" lon="13.5910408"><ele>318.0</ele><time>2026-05-01T15:08:53.629Z</time></trkpt><trkpt lat="41.7816687" lon="13.5910671"><ele>318.0</ele><time>2026-05-01T15:08:54.636Z</time></trkpt><trkpt lat="41.7818156" lon="13.5910714"><ele>318.0</ele><time>2026-05-01T15:08:55.636Z</time></trkpt><trkpt lat="41.7819717" lon="13.5910473"><ele>321.0</ele><time>2026-05-01T15:08:56.639Z</time></trkpt><trkpt lat="41.7821373" lon="13.5909905"><ele>324.0</ele><time>2026-05-01T15:08:57.631Z</time></trkpt><trkpt lat="41.7822934" lon="13.590918"><ele>327.0</ele><time>2026-05-01T15:08:58.629Z</time></trkpt><trkpt lat="41.7824269" lon="13.5908683"><ele>327.0</ele><time>2026-05-01T15:08:59.633Z</time></trkpt><trkpt lat="41.782528" lon="13.5908228"><ele>327.0</ele><time>2026-05-01T15:09:00.644Z</time></trkpt><trkpt lat="41.7826085" lon="13.5907628"><ele>327.0</ele><time>2026-05-01T15:09:01.627Z</time></trkpt><trkpt lat="41.7826635" lon="13.590662"><ele>327.0</ele><time>2026-05-01T15:09:02.645Z</time></trkpt><trkpt lat="41.7826767" lon="13.5905283"><ele>327.0</ele><time>2026-05-01T15:09:03.633Z</time></trkpt><trkpt lat="41.7826341" lon="13.5903809"><ele>326.5</ele><time>2026-05-01T15:09:04.629Z</time></trkpt><trkpt lat="41.7825702" lon="13.5902393"><ele>326.0</ele><time>2026-05-01T15:09:05.634Z</time></trkpt><trkpt lat="41.7825254" lon="13.5900997"><ele>325.5</ele><time>2026-05-01T15:09:06.634Z</time></trkpt><trkpt lat="41.782511" lon="13.5899545"><ele>325.0</ele><time>2026-05-01T15:09:07.639Z</time></trkpt><trkpt lat="41.7825229" lon="13.5898034"><ele>325.0</ele><time>2026-05-01T15:09:08.638Z</time></trkpt><trkpt lat="41.7825646" lon="13.5896183"><ele>325.0</ele><time>2026-05-01T15:09:09.641Z</time></trkpt><trkpt lat="41.7826132" lon="13.5894355"><ele>325.0</ele><time>2026-05-01T15:09:10.636Z</time></trkpt><trkpt lat="41.7826677" lon="13.5892671"><ele>325.0</ele><time>2026-05-01T15:09:11.636Z</time></trkpt><trkpt lat="41.7827485" lon="13.5891047"><ele>326.5</ele><time>2026-05-01T15:09:12.636Z</time></trkpt><trkpt lat="41.7828565" lon="13.5889585"><ele>328.0</ele><time>2026-05-01T15:09:13.627Z</time></trkpt><trkpt lat="41.7829639" lon="13.5888572"><ele>329.5</ele><time>2026-05-01T15:09:14.63Z</time></trkpt><trkpt lat="41.7830627" lon="13.5887943"><ele>331.0</ele><time>2026-05-01T15:09:15.638Z</time></trkpt><trkpt lat="41.7831507" lon="13.588776"><ele>331.0</ele><time>2026-05-01T15:09:16.637Z</time></trkpt><trkpt lat="41.7832454" lon="13.5887905"><ele>331.0</ele><time>2026-05-01T15:09:17.635Z</time></trkpt><trkpt lat="41.7833426" lon="13.5888648"><ele>331.0</ele><time>2026-05-01T15:09:18.637Z</time></trkpt><trkpt lat="41.7834444" lon="13.5889901"><ele>331.0</ele><time>2026-05-01T15:09:19.642Z</time></trkpt><trkpt lat="41.7835537" lon="13.5891361"><ele>330.66666666666663</ele><time>2026-05-01T15:09:20.645Z</time></trkpt><trkpt lat="41.783677" lon="13.5892968"><ele>330.3333333333333</ele><time>2026-05-01T15:09:21.646Z</time></trkpt><trkpt lat="41.7838123" lon="13.5894551"><ele>330.0</ele><time>2026-05-01T15:09:22.634Z</time></trkpt><trkpt lat="41.7839553" lon="13.5896053"><ele>332.0</ele><time>2026-05-01T15:09:23.641Z</time></trkpt><trkpt lat="41.7840814" lon="13.5897315"><ele>334.0</ele><time>2026-05-01T15:09:24.637Z</time></trkpt><trkpt lat="41.7841924" lon="13.5898421"><ele>336.0</ele><time>2026-05-01T15:09:25.629Z</time></trkpt><trkpt lat="41.7843043" lon="13.5899199"><ele>338.0</ele><time>2026-05-01T15:09:26.631Z</time></trkpt><trkpt lat="41.7844006" lon="13.589963"><ele>338.0</ele><time>2026-05-01T15:09:27.646Z</time></trkpt><trkpt lat="41.7844799" lon="13.5899431"><ele>338.0</ele><time>2026-05-01T15:09:28.631Z</time></trkpt><trkpt lat="41.7845564" lon="13.5898646"><ele>338.0</ele><time>2026-05-01T15:09:29.638Z</time></trkpt><trkpt lat="41.7846281" lon="13.5897421"><ele>338.0</ele><time>2026-05-01T15:09:30.636Z</time></trkpt><trkpt lat="41.7846986" lon="13.5895988"><ele>338.0</ele><time>2026-05-01T15:09:31.635Z</time></trkpt><trkpt lat="41.7847538" lon="13.5894831"><ele>338.0</ele><time>2026-05-01T15:09:32.623Z</time></trkpt><trkpt lat="41.7847923" lon="13.5893709"><ele>338.0</ele><time>2026-05-01T15:09:33.636Z</time></trkpt><trkpt lat="41.7847853" lon="13.5892335"><ele>338.0</ele><time>2026-05-01T15:09:34.642Z</time></trkpt><trkpt lat="41.7847498" lon="13.589075"><ele>338.0</ele><time>2026-05-01T15:09:35.627Z</time></trkpt><trkpt lat="41.7846942" lon="13.588903"><ele>338.0</ele><time>2026-05-01T15:09:36.629Z</time></trkpt><trkpt lat="41.7846571" lon="13.5887205"><ele>338.0</ele><time>2026-05-01T15:09:37.639Z</time></trkpt><trkpt lat="41.784629" lon="13.5885375"><ele>338.0</ele><time>2026-05-01T15:09:38.647Z</time></trkpt><trkpt lat="41.7846217" lon="13.5883578"><ele>338.0</ele><time>2026-05-01T15:09:39.635Z</time></trkpt><trkpt lat="41.7846377" lon="13.5881678"><ele>338.0</ele><time>2026-05-01T15:09:40.641Z</time></trkpt><trkpt lat="41.7846763" lon="13.5879518"><ele>338.0</ele><time>2026-05-01T15:09:41.636Z</time></trkpt><trkpt lat="41.7847247" lon="13.5877182"><ele>338.0</ele><time>2026-05-01T15:09:42.63Z</time></trkpt><trkpt lat="41.7847726" lon="13.587463"><ele>338.0</ele><time>2026-05-01T15:09:43.637Z</time></trkpt><trkpt lat="41.7848177" lon="13.5872045"><ele>338.0</ele><time>2026-05-01T15:09:44.641Z</time></trkpt><trkpt lat="41.7848654" lon="13.5869521"><ele>338.0</ele><time>2026-05-01T15:09:45.637Z</time></trkpt><trkpt lat="41.7849218" lon="13.5867217"><ele>335.33333333333337</ele><time>2026-05-01T15:09:46.638Z</time></trkpt><trkpt lat="41.7849921" lon="13.5864886"><ele>332.6666666666667</ele><time>2026-05-01T15:09:47.628Z</time></trkpt><trkpt lat="41.7850776" lon="13.5862545"><ele>330.0</ele><time>2026-05-01T15:09:48.631Z</time></trkpt><trkpt lat="41.7851639" lon="13.5860155"><ele>328.6666666666667</ele><time>2026-05-01T15:09:49.636Z</time></trkpt><trkpt lat="41.7852531" lon="13.5857643"><ele>327.33333333333337</ele><time>2026-05-01T15:09:50.634Z</time></trkpt><trkpt lat="41.7853402" lon="13.5855138"><ele>326.0</ele><time>2026-05-01T15:09:51.634Z</time></trkpt><trkpt lat="41.7854255" lon="13.5852806"><ele>326.0</ele><time>2026-05-01T15:09:52.636Z</time></trkpt><trkpt lat="41.7855108" lon="13.5850542"><ele>326.0</ele><time>2026-05-01T15:09:53.627Z</time></trkpt><trkpt lat="41.785604" lon="13.5848437"><ele>326.0</ele><time>2026-05-01T15:09:54.634Z</time></trkpt><trkpt lat="41.7856938" lon="13.5846433"><ele>323.6666666666667</ele><time>2026-05-01T15:09:55.632Z</time></trkpt><trkpt lat="41.7857729" lon="13.5844607"><ele>321.3333333333333</ele><time>2026-05-01T15:09:56.639Z</time></trkpt><trkpt lat="41.7858392" lon="13.5842781"><ele>319.0</ele><time>2026-05-01T15:09:57.633Z</time></trkpt><trkpt lat="41.7858949" lon="13.5840781"><ele>319.0</ele><time>2026-05-01T15:09:58.633Z</time></trkpt><trkpt lat="41.7859378" lon="13.5838797"><ele>319.0</ele><time>2026-05-01T15:09:59.64Z</time></trkpt><trkpt lat="41.7859545" lon="13.5836673"><ele>319.0</ele><time>2026-05-01T15:10:00.635Z</time></trkpt><trkpt lat="41.7859728" lon="13.5834663"><ele>318.0</ele><time>2026-05-01T15:10:01.638Z</time></trkpt><trkpt lat="41.7859915" lon="13.5832926"><ele>317.0</ele><time>2026-05-01T15:10:02.632Z</time></trkpt><trkpt lat="41.7860291" lon="13.5831371"><ele>316.0</ele><time>2026-05-01T15:10:03.644Z</time></trkpt><trkpt lat="41.7860911" lon="13.5829995"><ele>315.0</ele><time>2026-05-01T15:10:04.644Z</time></trkpt><trkpt lat="41.7861866" lon="13.5828685"><ele>316.0</ele><time>2026-05-01T15:10:05.647Z</time></trkpt><trkpt lat="41.7863141" lon="13.5827496"><ele>317.0</ele><time>2026-05-01T15:10:06.641Z</time></trkpt><trkpt lat="41.7864684" lon="13.5826241"><ele>318.0</ele><time>2026-05-01T15:10:07.638Z</time></trkpt><trkpt lat="41.7866274" lon="13.5824816"><ele>318.0</ele><time>2026-05-01T15:10:08.652Z</time></trkpt><trkpt lat="41.7867848" lon="13.5823004"><ele>318.0</ele><time>2026-05-01T15:10:09.639Z</time></trkpt><trkpt lat="41.7869392" lon="13.5821046"><ele>318.0</ele><time>2026-05-01T15:10:10.637Z</time></trkpt><trkpt lat="41.7870927" lon="13.5819211"><ele>319.3333333333333</ele><time>2026-05-01T15:10:11.64Z</time></trkpt><trkpt lat="41.7872315" lon="13.5817415"><ele>320.66666666666663</ele><time>2026-05-01T15:10:12.638Z</time></trkpt><trkpt lat="41.7873557" lon="13.5815552"><ele>322.0</ele><time>2026-05-01T15:10:13.63Z</time></trkpt><trkpt lat="41.7874639" lon="13.5813572"><ele>319.66666666666663</ele><time>2026-05-01T15:10:14.64Z</time></trkpt><trkpt lat="41.7875566" lon="13.5811391"><ele>317.3333333333333</ele><time>2026-05-01T15:10:15.643Z</time></trkpt><trkpt lat="41.7876385" lon="13.5809307"><ele>315.0</ele><time>2026-05-01T15:10:16.631Z</time></trkpt><trkpt lat="41.7877102" lon="13.5807385"><ele>316.25</ele><time>2026-05-01T15:10:17.63Z</time></trkpt><trkpt lat="41.787786" lon="13.5805647"><ele>317.5</ele><time>2026-05-01T15:10:18.638Z</time></trkpt><trkpt lat="41.7878693" lon="13.580421"><ele>318.75</ele><time>2026-05-01T15:10:19.643Z</time></trkpt><trkpt lat="41.7879819" lon="13.5802915"><ele>320.0</ele><time>2026-05-01T15:10:20.636Z</time></trkpt><trkpt lat="41.7881197" lon="13.5801459"><ele>320.0</ele><time>2026-05-01T15:10:21.639Z</time></trkpt><trkpt lat="41.788258" lon="13.5799872"><ele>320.0</ele><time>2026-05-01T15:10:22.648Z</time></trkpt><trkpt lat="41.7883953" lon="13.5798114"><ele>320.0</ele><time>2026-05-01T15:10:23.635Z</time></trkpt><trkpt lat="41.7885261" lon="13.5796372"><ele>322.0</ele><time>2026-05-01T15:10:24.633Z</time></trkpt><trkpt lat="41.7886604" lon="13.5794814"><ele>324.0</ele><time>2026-05-01T15:10:25.63Z</time></trkpt><trkpt lat="41.7887879" lon="13.579325"><ele>326.0</ele><time>2026-05-01T15:10:26.639Z</time></trkpt><trkpt lat="41.7888958" lon="13.579158"><ele>326.0</ele><time>2026-05-01T15:10:27.635Z</time></trkpt><trkpt lat="41.7889851" lon="13.5789923"><ele>326.0</ele><time>2026-05-01T15:10:28.628Z</time></trkpt><trkpt lat="41.7890589" lon="13.578849"><ele>326.0</ele><time>2026-05-01T15:10:29.634Z</time></trkpt><trkpt lat="41.7891421" lon="13.5787246"><ele>326.0</ele><time>2026-05-01T15:10:30.634Z</time></trkpt><trkpt lat="41.7892491" lon="13.578622"><ele>327.0</ele><time>2026-05-01T15:10:31.637Z</time></trkpt><trkpt lat="41.7893697" lon="13.5785468"><ele>328.0</ele><time>2026-05-01T15:10:32.63Z</time></trkpt><trkpt lat="41.7894792" lon="13.5784796"><ele>329.0</ele><time>2026-05-01T15:10:33.63Z</time></trkpt><trkpt lat="41.7895632" lon="13.5783947"><ele>330.0</ele><time>2026-05-01T15:10:34.643Z</time></trkpt><trkpt lat="41.7896217" lon="13.5782725"><ele>330.0</ele><time>2026-05-01T15:10:35.63Z</time></trkpt><trkpt lat="41.7896652" lon="13.578135"><ele>330.0</ele><time>2026-05-01T15:10:36.625Z</time></trkpt><trkpt lat="41.7897079" lon="13.5780022"><ele>330.0</ele><time>2026-05-01T15:10:37.633Z</time></trkpt><trkpt lat="41.7897807" lon="13.577883"><ele>330.0</ele><time>2026-05-01T15:10:38.634Z</time></trkpt><trkpt lat="41.7898913" lon="13.5777883"><ele>328.6666666666667</ele><time>2026-05-01T15:10:39.631Z</time></trkpt><trkpt lat="41.7900416" lon="13.5777232"><ele>327.33333333333337</ele><time>2026-05-01T15:10:40.638Z</time></trkpt><trkpt lat="41.7902063" lon="13.5776368"><ele>326.0</ele><time>2026-05-01T15:10:41.634Z</time></trkpt><trkpt lat="41.7903762" lon="13.5775192"><ele>326.0</ele><time>2026-05-01T15:10:42.65Z</time></trkpt><trkpt lat="41.7905552" lon="13.5773723"><ele>326.0</ele><time>2026-05-01T15:10:43.634Z</time></trkpt><trkpt lat="41.7907407" lon="13.577213"><ele>326.0</ele><time>2026-05-01T15:10:44.633Z</time></trkpt><trkpt lat="41.7909318" lon="13.5770524"><ele>325.6666666666667</ele><time>2026-05-01T15:10:45.63Z</time></trkpt><trkpt lat="41.7911068" lon="13.5768953"><ele>325.3333333333333</ele><time>2026-05-01T15:10:46.635Z</time></trkpt><trkpt lat="41.7912742" lon="13.5767436"><ele>325.0</ele><time>2026-05-01T15:10:47.635Z</time></trkpt><trkpt lat="41.7914298" lon="13.5766111"><ele>325.0</ele><time>2026-05-01T15:10:48.631Z</time></trkpt><trkpt lat="41.7915688" lon="13.5764848"><ele>325.0</ele><time>2026-05-01T15:10:49.636Z</time></trkpt><trkpt lat="41.7916938" lon="13.5763222"><ele>325.0</ele><time>2026-05-01T15:10:50.636Z</time></trkpt><trkpt lat="41.7918045" lon="13.5761118"><ele>327.66666666666663</ele><time>2026-05-01T15:10:51.638Z</time></trkpt><trkpt lat="41.7919185" lon="13.5758865"><ele>330.3333333333333</ele><time>2026-05-01T15:10:52.641Z</time></trkpt><trkpt lat="41.7920315" lon="13.5756738"><ele>333.0</ele><time>2026-05-01T15:10:53.641Z</time></trkpt><trkpt lat="41.7921354" lon="13.5754595"><ele>329.0</ele><time>2026-05-01T15:10:54.628Z</time></trkpt><trkpt lat="41.792232" lon="13.5752619"><ele>325.0</ele><time>2026-05-01T15:10:55.637Z</time></trkpt><trkpt lat="41.7923409" lon="13.5750861"><ele>321.0</ele><time>2026-05-01T15:10:56.629Z</time></trkpt><trkpt lat="41.792455" lon="13.5749192"><ele>321.0</ele><time>2026-05-01T15:10:57.628Z</time></trkpt><trkpt lat="41.7925841" lon="13.5747696"><ele>321.0</ele><time>2026-05-01T15:10:58.632Z</time></trkpt><trkpt lat="41.7927225" lon="13.5746276"><ele>321.0</ele><time>2026-05-01T15:10:59.622Z</time></trkpt><trkpt lat="41.7928667" lon="13.5745053"><ele>320.3333333333333</ele><time>2026-05-01T15:11:00.621Z</time></trkpt><trkpt lat="41.7930134" lon="13.5743997"><ele>319.66666666666663</ele><time>2026-05-01T15:11:01.63Z</time></trkpt><trkpt lat="41.7931769" lon="13.5743136"><ele>319.0</ele><time>2026-05-01T15:11:02.635Z</time></trkpt><trkpt lat="41.7933593" lon="13.5742342"><ele>324.66666666666663</ele><time>2026-05-01T15:11:03.63Z</time></trkpt><trkpt lat="41.793547" lon="13.5741486"><ele>330.3333333333333</ele><time>2026-05-01T15:11:04.632Z</time></trkpt><trkpt lat="41.7937216" lon="13.5740565"><ele>336.0</ele><time>2026-05-01T15:11:05.635Z</time></trkpt><trkpt lat="41.7938722" lon="13.5739764"><ele>336.0</ele><time>2026-05-01T15:11:06.639Z</time></trkpt><trkpt lat="41.7940071" lon="13.5738986"><ele>336.0</ele><time>2026-05-01T15:11:07.637Z</time></trkpt><trkpt lat="41.7941214" lon="13.5738342"><ele>336.0</ele><time>2026-05-01T15:11:08.627Z</time></trkpt><trkpt lat="41.7942185" lon="13.5737651"><ele>336.0</ele><time>2026-05-01T15:11:09.641Z</time></trkpt><trkpt lat="41.7943016" lon="13.5736482"><ele>340.6666666666667</ele><time>2026-05-01T15:11:10.638Z</time></trkpt><trkpt lat="41.7943598" lon="13.5734736"><ele>345.33333333333337</ele><time>2026-05-01T15:11:11.634Z</time></trkpt><trkpt lat="41.794382" lon="13.5732329"><ele>350.0</ele><time>2026-05-01T15:11:12.639Z</time></trkpt><trkpt lat="41.7943857" lon="13.572982"><ele>345.6666666666667</ele><time>2026-05-01T15:11:13.633Z</time></trkpt><trkpt lat="41.794389" lon="13.5727377"><ele>341.3333333333333</ele><time>2026-05-01T15:11:14.645Z</time></trkpt><trkpt lat="41.7944046" lon="13.5725206"><ele>337.0</ele><time>2026-05-01T15:11:15.629Z</time></trkpt><trkpt lat="41.7944282" lon="13.572317"><ele>337.0</ele><time>2026-05-01T15:11:16.646Z</time></trkpt><trkpt lat="41.7944554" lon="13.5720931"><ele>337.0</ele><time>2026-05-01T15:11:17.635Z</time></trkpt><trkpt lat="41.7945107" lon="13.5719196"><ele>337.0</ele><time>2026-05-01T15:11:18.634Z</time></trkpt><trkpt lat="41.7946614" lon="13.5718417"><ele>336.66666666666663</ele><time>2026-05-01T15:11:19.644Z</time></trkpt><trkpt lat="41.7948354" lon="13.571761"><ele>336.3333333333333</ele><time>2026-05-01T15:11:20.632Z</time></trkpt><trkpt lat="41.7950491" lon="13.571677"><ele>336.0</ele><time>2026-05-01T15:11:21.643Z</time></trkpt><trkpt lat="41.7952475" lon="13.5715657"><ele>336.0</ele><time>2026-05-01T15:11:22.635Z</time></trkpt><trkpt lat="41.795462" lon="13.5714652"><ele>336.0</ele><time>2026-05-01T15:11:23.633Z</time></trkpt><trkpt lat="41.7956461" lon="13.5713723"><ele>336.0</ele><time>2026-05-01T15:11:24.637Z</time></trkpt><trkpt lat="41.7958127" lon="13.571282"><ele>336.0</ele><time>2026-05-01T15:11:25.625Z</time></trkpt><trkpt lat="41.7959589" lon="13.5711989"><ele>336.0</ele><time>2026-05-01T15:11:26.638Z</time></trkpt><trkpt lat="41.7961049" lon="13.5711287"><ele>336.0</ele><time>2026-05-01T15:11:27.63Z</time></trkpt><trkpt lat="41.7962484" lon="13.5710895"><ele>333.0</ele><time>2026-05-01T15:11:28.628Z</time></trkpt><trkpt lat="41.7964027" lon="13.5710906"><ele>330.0</ele><time>2026-05-01T15:11:29.634Z</time></trkpt><trkpt lat="41.7965625" lon="13.5711267"><ele>327.0</ele><time>2026-05-01T15:11:30.632Z</time></trkpt><trkpt lat="41.7967122" lon="13.5711973"><ele>328.25</ele><time>2026-05-01T15:11:31.628Z</time></trkpt><trkpt lat="41.7968548" lon="13.5712593"><ele>329.5</ele><time>2026-05-01T15:11:32.638Z</time></trkpt><trkpt lat="41.7969866" lon="13.571254"><ele>330.75</ele><time>2026-05-01T15:11:33.632Z</time></trkpt><trkpt lat="41.7971" lon="13.5711918"><ele>332.0</ele><time>2026-05-01T15:11:34.635Z</time></trkpt><trkpt lat="41.7971968" lon="13.5710689"><ele>332.0</ele><time>2026-05-01T15:11:35.635Z</time></trkpt><trkpt lat="41.7972774" lon="13.5709321"><ele>332.0</ele><time>2026-05-01T15:11:36.631Z</time></trkpt><trkpt lat="41.7973699" lon="13.5708238"><ele>332.0</ele><time>2026-05-01T15:11:37.636Z</time></trkpt><trkpt lat="41.7974834" lon="13.5707865"><ele>332.0</ele><time>2026-05-01T15:11:38.624Z</time></trkpt><trkpt lat="41.7976201" lon="13.5707976"><ele>333.6666666666667</ele><time>2026-05-01T15:11:39.623Z</time></trkpt><trkpt lat="41.7977729" lon="13.5708503"><ele>335.3333333333333</ele><time>2026-05-01T15:11:40.636Z</time></trkpt><trkpt lat="41.7979213" lon="13.5708989"><ele>337.0</ele><time>2026-05-01T15:11:41.631Z</time></trkpt><trkpt lat="41.7980731" lon="13.5709136"><ele>337.0</ele><time>2026-05-01T15:11:42.63Z</time></trkpt><trkpt lat="41.7982167" lon="13.5708549"><ele>337.0</ele><time>2026-05-01T15:11:43.631Z</time></trkpt><trkpt lat="41.7983566" lon="13.5707822"><ele>337.0</ele><time>2026-05-01T15:11:44.635Z</time></trkpt><trkpt lat="41.7984731" lon="13.5707005"><ele>337.0</ele><time>2026-05-01T15:11:45.628Z</time></trkpt><trkpt lat="41.7986017" lon="13.5706576"><ele>338.66666666666663</ele><time>2026-05-01T15:11:46.642Z</time></trkpt><trkpt lat="41.7987613" lon="13.5706661"><ele>340.3333333333333</ele><time>2026-05-01T15:11:47.637Z</time></trkpt><trkpt lat="41.7989343" lon="13.5707216"><ele>342.0</ele><time>2026-05-01T15:11:48.631Z</time></trkpt><trkpt lat="41.7991063" lon="13.5707849"><ele>342.0</ele><time>2026-05-01T15:11:49.63Z</time></trkpt><trkpt lat="41.7992548" lon="13.5708342"><ele>342.0</ele><time>2026-05-01T15:11:50.635Z</time></trkpt><trkpt lat="41.7993847" lon="13.5708552"><ele>342.0</ele><time>2026-05-01T15:11:51.637Z</time></trkpt><trkpt lat="41.7995166" lon="13.5708088"><ele>342.0</ele><time>2026-05-01T15:11:52.626Z</time></trkpt><trkpt lat="41.7996471" lon="13.5706874"><ele>340.0</ele><time>2026-05-01T15:11:53.634Z</time></trkpt><trkpt lat="41.7997842" lon="13.5705401"><ele>338.0</ele><time>2026-05-01T15:11:54.627Z</time></trkpt><trkpt lat="41.7999239" lon="13.5703992"><ele>336.0</ele><time>2026-05-01T15:11:55.634Z</time></trkpt><trkpt lat="41.8000745" lon="13.5702942"><ele>341.0</ele><time>2026-05-01T15:11:56.643Z</time></trkpt><trkpt lat="41.8002086" lon="13.5702061"><ele>346.0</ele><time>2026-05-01T15:11:57.641Z</time></trkpt><trkpt lat="41.8003355" lon="13.5700868"><ele>351.0</ele><time>2026-05-01T15:11:58.636Z</time></trkpt><trkpt lat="41.8004429" lon="13.5699313"><ele>351.0</ele><time>2026-05-01T15:11:59.628Z</time></trkpt><trkpt lat="41.80052" lon="13.569738"><ele>351.0</ele><time>2026-05-01T15:12:00.626Z</time></trkpt><trkpt lat="41.8005978" lon="13.5695345"><ele>351.0</ele><time>2026-05-01T15:12:01.636Z</time></trkpt><trkpt lat="41.8006771" lon="13.5693366"><ele>350.75</ele><time>2026-05-01T15:12:02.63Z</time></trkpt><trkpt lat="41.800761" lon="13.569157"><ele>350.5</ele><time>2026-05-01T15:12:03.637Z</time></trkpt><trkpt lat="41.8008461" lon="13.5690062"><ele>350.25</ele><time>2026-05-01T15:12:04.643Z</time></trkpt><trkpt lat="41.8009251" lon="13.5688765"><ele>350.0</ele><time>2026-05-01T15:12:05.644Z</time></trkpt><trkpt lat="41.8010093" lon="13.5687634"><ele>347.6666666666667</ele><time>2026-05-01T15:12:06.645Z</time></trkpt><trkpt lat="41.8011321" lon="13.5686724"><ele>345.3333333333333</ele><time>2026-05-01T15:12:07.628Z</time></trkpt><trkpt lat="41.8012917" lon="13.5685973"><ele>343.0</ele><time>2026-05-01T15:12:08.643Z</time></trkpt><trkpt lat="41.8014606" lon="13.5685185"><ele>343.0</ele><time>2026-05-01T15:12:09.637Z</time></trkpt><trkpt lat="41.8016275" lon="13.5684394"><ele>343.0</ele><time>2026-05-01T15:12:10.639Z</time></trkpt><trkpt lat="41.801796" lon="13.5683723"><ele>343.0</ele><time>2026-05-01T15:12:11.644Z</time></trkpt><trkpt lat="41.8019481" lon="13.5683064"><ele>343.0</ele><time>2026-05-01T15:12:12.628Z</time></trkpt><trkpt lat="41.8020915" lon="13.5682621"><ele>343.0</ele><time>2026-05-01T15:12:13.636Z</time></trkpt><trkpt lat="41.8022255" lon="13.5682339"><ele>343.0</ele><time>2026-05-01T15:12:14.642Z</time></trkpt><trkpt lat="41.8023545" lon="13.5682507"><ele>343.0</ele><time>2026-05-01T15:12:15.634Z</time></trkpt><trkpt lat="41.8024744" lon="13.5683065"><ele>343.0</ele><time>2026-05-01T15:12:16.635Z</time></trkpt><trkpt lat="41.8025887" lon="13.5684076"><ele>343.0</ele><time>2026-05-01T15:12:17.634Z</time></trkpt><trkpt lat="41.8026905" lon="13.5685694"><ele>343.0</ele><time>2026-05-01T15:12:18.638Z</time></trkpt><trkpt lat="41.8027758" lon="13.5687436"><ele>343.79999999999995</ele><time>2026-05-01T15:12:19.636Z</time></trkpt><trkpt lat="41.8028457" lon="13.5689064"><ele>344.6</ele><time>2026-05-01T15:12:20.638Z</time></trkpt><trkpt lat="41.8028998" lon="13.5690355"><ele>345.4</ele><time>2026-05-01T15:12:21.653Z</time></trkpt><trkpt lat="41.8029684" lon="13.5691099"><ele>346.20000000000005</ele><time>2026-05-01T15:12:22.644Z</time></trkpt><trkpt lat="41.8030664" lon="13.5691088"><ele>347.0</ele><time>2026-05-01T15:12:23.644Z</time></trkpt><trkpt lat="41.8031622" lon="13.5690357"><ele>347.0</ele><time>2026-05-01T15:12:24.632Z</time></trkpt><trkpt lat="41.8032537" lon="13.5689249"><ele>347.0</ele><time>2026-05-01T15:12:25.63Z</time></trkpt><trkpt lat="41.8033315" lon="13.5687829"><ele>347.0</ele><time>2026-05-01T15:12:26.635Z</time></trkpt><trkpt lat="41.8033987" lon="13.5686006"><ele>347.0</ele><time>2026-05-01T15:12:27.634Z</time></trkpt><trkpt lat="41.803458" lon="13.5684133"><ele>346.6666666666667</ele><time>2026-05-01T15:12:28.646Z</time></trkpt><trkpt lat="41.8034669" lon="13.5681989"><ele>346.3333333333333</ele><time>2026-05-01T15:12:29.642Z</time></trkpt><trkpt lat="41.8034378" lon="13.5679583"><ele>346.0</ele><time>2026-05-01T15:12:30.635Z</time></trkpt><trkpt lat="41.8033787" lon="13.5677067"><ele>348.66666666666663</ele><time>2026-05-01T15:12:31.635Z</time></trkpt><trkpt lat="41.8033068" lon="13.5674561"><ele>351.3333333333333</ele><time>2026-05-01T15:12:32.641Z</time></trkpt><trkpt lat="41.8032446" lon="13.5671962"><ele>354.0</ele><time>2026-05-01T15:12:33.643Z</time></trkpt><trkpt lat="41.8031762" lon="13.5669557"><ele>355.6666666666667</ele><time>2026-05-01T15:12:34.642Z</time></trkpt><trkpt lat="41.8030939" lon="13.5667365"><ele>357.33333333333337</ele><time>2026-05-01T15:12:35.626Z</time></trkpt><trkpt lat="41.8030044" lon="13.5665275"><ele>359.0</ele><time>2026-05-01T15:12:36.639Z</time></trkpt><trkpt lat="41.8029337" lon="13.5663171"><ele>360.0</ele><time>2026-05-01T15:12:37.631Z</time></trkpt><trkpt lat="41.8028883" lon="13.5660825"><ele>361.0</ele><time>2026-05-01T15:12:38.636Z</time></trkpt><trkpt lat="41.8028699" lon="13.5658431"><ele>362.0</ele><time>2026-05-01T15:12:39.629Z</time></trkpt><trkpt lat="41.8028543" lon="13.5656243"><ele>362.0</ele><time>2026-05-01T15:12:40.63Z</time></trkpt><trkpt lat="41.8028221" lon="13.5654246"><ele>362.0</ele><time>2026-05-01T15:12:41.63Z</time></trkpt><trkpt lat="41.8027745" lon="13.5652526"><ele>362.0</ele><time>2026-05-01T15:12:42.636Z</time></trkpt><trkpt lat="41.8027302" lon="13.5650801"><ele>362.0</ele><time>2026-05-01T15:12:43.642Z</time></trkpt><trkpt lat="41.8026966" lon="13.5649164"><ele>361.5</ele><time>2026-05-01T15:12:44.645Z</time></trkpt><trkpt lat="41.8026963" lon="13.564743"><ele>361.0</ele><time>2026-05-01T15:12:45.629Z</time></trkpt><trkpt lat="41.8027167" lon="13.5645694"><ele>360.5</ele><time>2026-05-01T15:12:46.639Z</time></trkpt><trkpt lat="41.8027602" lon="13.5643924"><ele>360.0</ele><time>2026-05-01T15:12:47.643Z</time></trkpt><trkpt lat="41.8028305" lon="13.5642182"><ele>358.6666666666667</ele><time>2026-05-01T15:12:48.634Z</time></trkpt><trkpt lat="41.8029141" lon="13.5640379"><ele>357.33333333333337</ele><time>2026-05-01T15:12:49.64Z</time></trkpt><trkpt lat="41.8030064" lon="13.5638511"><ele>356.0</ele><time>2026-05-01T15:12:50.64Z</time></trkpt><trkpt lat="41.8031066" lon="13.5636702"><ele>353.33333333333337</ele><time>2026-05-01T15:12:51.634Z</time></trkpt><trkpt lat="41.8032098" lon="13.5634883"><ele>350.6666666666667</ele><time>2026-05-01T15:12:52.635Z</time></trkpt><trkpt lat="41.8033208" lon="13.5633153"><ele>348.0</ele><time>2026-05-01T15:12:53.641Z</time></trkpt><trkpt lat="41.8034365" lon="13.5631642"><ele>349.0</ele><time>2026-05-01T15:12:54.642Z</time></trkpt><trkpt lat="41.8035544" lon="13.5630268"><ele>350.0</ele><time>2026-05-01T15:12:55.63Z</time></trkpt><trkpt lat="41.8036749" lon="13.5629265"><ele>351.0</ele><time>2026-05-01T15:12:56.633Z</time></trkpt><trkpt lat="41.8037998" lon="13.5628575"><ele>352.0</ele><time>2026-05-01T15:12:57.628Z</time></trkpt><trkpt lat="41.8039431" lon="13.5628058"><ele>350.0</ele><time>2026-05-01T15:12:58.634Z</time></trkpt><trkpt lat="41.80411" lon="13.562775"><ele>348.0</ele><time>2026-05-01T15:12:59.634Z</time></trkpt><trkpt lat="41.8042821" lon="13.5627289"><ele>346.0</ele><time>2026-05-01T15:13:00.633Z</time></trkpt><trkpt lat="41.8044536" lon="13.5626578"><ele>346.0</ele><time>2026-05-01T15:13:01.645Z</time></trkpt><trkpt lat="41.8046305" lon="13.5625771"><ele>346.0</ele><time>2026-05-01T15:13:02.633Z</time></trkpt><trkpt lat="41.8048134" lon="13.5624829"><ele>346.0</ele><time>2026-05-01T15:13:03.642Z</time></trkpt><trkpt lat="41.8049824" lon="13.5623557"><ele>346.0</ele><time>2026-05-01T15:13:04.629Z</time></trkpt><trkpt lat="41.8051349" lon="13.5622137"><ele>346.0</ele><time>2026-05-01T15:13:05.641Z</time></trkpt><trkpt lat="41.8052795" lon="13.5620679"><ele>346.0</ele><time>2026-05-01T15:13:06.642Z</time></trkpt><trkpt lat="41.8054165" lon="13.5619351"><ele>347.3333333333333</ele><time>2026-05-01T15:13:07.638Z</time></trkpt><trkpt lat="41.805551" lon="13.5618007"><ele>348.6666666666667</ele><time>2026-05-01T15:13:08.644Z</time></trkpt><trkpt lat="41.805687" lon="13.5616726"><ele>350.0</ele><time>2026-05-01T15:13:09.632Z</time></trkpt><trkpt lat="41.8058271" lon="13.5615478"><ele>350.0</ele><time>2026-05-01T15:13:10.636Z</time></trkpt><trkpt lat="41.8059708" lon="13.5614213"><ele>350.0</ele><time>2026-05-01T15:13:11.643Z</time></trkpt><trkpt lat="41.806116" lon="13.561296"><ele>350.0</ele><time>2026-05-01T15:13:12.636Z</time></trkpt><trkpt lat="41.8062706" lon="13.5611794"><ele>349.6666666666667</ele><time>2026-05-01T15:13:13.645Z</time></trkpt><trkpt lat="41.8064337" lon="13.5610778"><ele>349.3333333333333</ele><time>2026-05-01T15:13:14.645Z</time></trkpt><trkpt lat="41.8066" lon="13.5609757"><ele>349.0</ele><time>2026-05-01T15:13:15.636Z</time></trkpt><trkpt lat="41.8067605" lon="13.5608793"><ele>349.0</ele><time>2026-05-01T15:13:16.641Z</time></trkpt><trkpt lat="41.8069316" lon="13.5607793"><ele>349.0</ele><time>2026-05-01T15:13:17.633Z</time></trkpt><trkpt lat="41.8071029" lon="13.5606822"><ele>349.0</ele><time>2026-05-01T15:13:18.64Z</time></trkpt><trkpt lat="41.8072718" lon="13.5605834"><ele>349.0</ele><time>2026-05-01T15:13:19.635Z</time></trkpt><trkpt lat="41.807426" lon="13.5604765"><ele>349.0</ele><time>2026-05-01T15:13:20.636Z</time></trkpt><trkpt lat="41.8075762" lon="13.5603507"><ele>349.0</ele><time>2026-05-01T15:13:21.638Z</time></trkpt><trkpt lat="41.8077176" lon="13.5602147"><ele>349.3333333333333</ele><time>2026-05-01T15:13:22.639Z</time></trkpt><trkpt lat="41.8078624" lon="13.5600527"><ele>349.6666666666667</ele><time>2026-05-01T15:13:23.647Z</time></trkpt><trkpt lat="41.8080062" lon="13.559884"><ele>350.0</ele><time>2026-05-01T15:13:24.637Z</time></trkpt><trkpt lat="41.8081481" lon="13.5597082"><ele>350.0</ele><time>2026-05-01T15:13:25.633Z</time></trkpt><trkpt lat="41.8082802" lon="13.5595421"><ele>350.0</ele><time>2026-05-01T15:13:26.641Z</time></trkpt><trkpt lat="41.8084053" lon="13.5593811"><ele>350.0</ele><time>2026-05-01T15:13:27.634Z</time></trkpt><trkpt lat="41.8085296" lon="13.5592225"><ele>350.6666666666667</ele><time>2026-05-01T15:13:28.649Z</time></trkpt><trkpt lat="41.8086505" lon="13.5590698"><ele>351.3333333333333</ele><time>2026-05-01T15:13:29.634Z</time></trkpt><trkpt lat="41.8087689" lon="13.5589159"><ele>352.0</ele><time>2026-05-01T15:13:30.63Z</time></trkpt><trkpt lat="41.8088868" lon="13.5587579"><ele>351.3333333333333</ele><time>2026-05-01T15:13:31.634Z</time></trkpt><trkpt lat="41.809011" lon="13.5586003"><ele>350.6666666666667</ele><time>2026-05-01T15:13:32.632Z</time></trkpt><trkpt lat="41.8091394" lon="13.5584515"><ele>350.0</ele><time>2026-05-01T15:13:33.632Z</time></trkpt><trkpt lat="41.8092655" lon="13.5582989"><ele>349.6666666666667</ele><time>2026-05-01T15:13:34.635Z</time></trkpt><trkpt lat="41.8093978" lon="13.5581548"><ele>349.3333333333333</ele><time>2026-05-01T15:13:35.64Z</time></trkpt><trkpt lat="41.8095335" lon="13.5580068"><ele>349.0</ele><time>2026-05-01T15:13:36.64Z</time></trkpt><trkpt lat="41.8096651" lon="13.5578487"><ele>349.0</ele><time>2026-05-01T15:13:37.642Z</time></trkpt><trkpt lat="41.8097919" lon="13.5576952"><ele>349.0</ele><time>2026-05-01T15:13:38.635Z</time></trkpt><trkpt lat="41.8099185" lon="13.5575385"><ele>349.0</ele><time>2026-05-01T15:13:39.651Z</time></trkpt><trkpt lat="41.8100487" lon="13.5573829"><ele>349.3333333333333</ele><time>2026-05-01T15:13:40.623Z</time></trkpt><trkpt lat="41.810181" lon="13.5572232"><ele>349.6666666666667</ele><time>2026-05-01T15:13:41.636Z</time></trkpt><trkpt lat="41.8103161" lon="13.557065"><ele>350.0</ele><time>2026-05-01T15:13:42.639Z</time></trkpt><trkpt lat="41.8104532" lon="13.5569112"><ele>350.0</ele><time>2026-05-01T15:13:43.638Z</time></trkpt><trkpt lat="41.8105928" lon="13.5567578"><ele>350.0</ele><time>2026-05-01T15:13:44.637Z</time></trkpt><trkpt lat="41.8107339" lon="13.5566138"><ele>350.0</ele><time>2026-05-01T15:13:45.639Z</time></trkpt><trkpt lat="41.8108788" lon="13.5564803"><ele>350.33333333333337</ele><time>2026-05-01T15:13:46.635Z</time></trkpt><trkpt lat="41.8110211" lon="13.5563612"><ele>350.6666666666667</ele><time>2026-05-01T15:13:47.635Z</time></trkpt><trkpt lat="41.8111704" lon="13.556255"><ele>351.0</ele><time>2026-05-01T15:13:48.628Z</time></trkpt><trkpt lat="41.8113317" lon="13.5561651"><ele>350.0</ele><time>2026-05-01T15:13:49.638Z</time></trkpt><trkpt lat="41.8115053" lon="13.5560973"><ele>349.0</ele><time>2026-05-01T15:13:50.63Z</time></trkpt><trkpt lat="41.8116817" lon="13.5560548"><ele>348.0</ele><time>2026-05-01T15:13:51.631Z</time></trkpt><trkpt lat="41.8118724" lon="13.5560194"><ele>348.0</ele><time>2026-05-01T15:13:52.641Z</time></trkpt><trkpt lat="41.8120648" lon="13.5559901"><ele>348.0</ele><time>2026-05-01T15:13:53.633Z</time></trkpt><trkpt lat="41.8122422" lon="13.5559647"><ele>348.0</ele><time>2026-05-01T15:13:54.639Z</time></trkpt><trkpt lat="41.8123994" lon="13.5559348"><ele>348.0</ele><time>2026-05-01T15:13:55.641Z</time></trkpt><trkpt lat="41.8125405" lon="13.5558911"><ele>348.0</ele><time>2026-05-01T15:13:56.641Z</time></trkpt><trkpt lat="41.8126777" lon="13.5558182"><ele>348.0</ele><time>2026-05-01T15:13:57.635Z</time></trkpt><trkpt lat="41.8127959" lon="13.5557048"><ele>348.0</ele><time>2026-05-01T15:13:58.63Z</time></trkpt><trkpt lat="41.8128979" lon="13.5555492"><ele>348.6666666666667</ele><time>2026-05-01T15:13:59.643Z</time></trkpt><trkpt lat="41.812992" lon="13.5553498"><ele>349.33333333333337</ele><time>2026-05-01T15:14:00.632Z</time></trkpt><trkpt lat="41.8130831" lon="13.5551222"><ele>350.0</ele><time>2026-05-01T15:14:01.627Z</time></trkpt><trkpt lat="41.8131863" lon="13.554889"><ele>350.0</ele><time>2026-05-01T15:14:02.635Z</time></trkpt><trkpt lat="41.8132935" lon="13.5546553"><ele>350.0</ele><time>2026-05-01T15:14:03.629Z</time></trkpt><trkpt lat="41.8133976" lon="13.5544188"><ele>350.0</ele><time>2026-05-01T15:14:04.638Z</time></trkpt><trkpt lat="41.8135082" lon="13.5541735"><ele>350.33333333333337</ele><time>2026-05-01T15:14:05.627Z</time></trkpt><trkpt lat="41.813611" lon="13.5539391"><ele>350.6666666666667</ele><time>2026-05-01T15:14:06.633Z</time></trkpt><trkpt lat="41.8137047" lon="13.5537228"><ele>351.0</ele><time>2026-05-01T15:14:07.636Z</time></trkpt><trkpt lat="41.8137972" lon="13.5535302"><ele>351.0</ele><time>2026-05-01T15:14:08.636Z</time></trkpt><trkpt lat="41.8138858" lon="13.5533517"><ele>351.0</ele><time>2026-05-01T15:14:09.636Z</time></trkpt><trkpt lat="41.8139612" lon="13.5531857"><ele>351.0</ele><time>2026-05-01T15:14:10.642Z</time></trkpt><trkpt lat="41.8140303" lon="13.5530339"><ele>351.0</ele><time>2026-05-01T15:14:11.635Z</time></trkpt><trkpt lat="41.8141034" lon="13.5528726"><ele>350.5</ele><time>2026-05-01T15:14:12.637Z</time></trkpt><trkpt lat="41.8141922" lon="13.5527409"><ele>350.0</ele><time>2026-05-01T15:14:13.632Z</time></trkpt><trkpt lat="41.8142973" lon="13.5526356"><ele>349.5</ele><time>2026-05-01T15:14:14.635Z</time></trkpt><trkpt lat="41.8144285" lon="13.5525402"><ele>349.0</ele><time>2026-05-01T15:14:15.633Z</time></trkpt><trkpt lat="41.8145878" lon="13.5524586"><ele>349.0</ele><time>2026-05-01T15:14:16.634Z</time></trkpt><trkpt lat="41.8147513" lon="13.55242"><ele>349.0</ele><time>2026-05-01T15:14:17.635Z</time></trkpt><trkpt lat="41.8149161" lon="13.5524143"><ele>349.0</ele><time>2026-05-01T15:14:18.637Z</time></trkpt><trkpt lat="41.8150828" lon="13.5524569"><ele>346.0</ele><time>2026-05-01T15:14:19.637Z</time></trkpt><trkpt lat="41.8152504" lon="13.5525425"><ele>343.0</ele><time>2026-05-01T15:14:20.636Z</time></trkpt><trkpt lat="41.8154166" lon="13.5526747"><ele>340.0</ele><time>2026-05-01T15:14:21.629Z</time></trkpt><trkpt lat="41.8155771" lon="13.5528451"><ele>346.5</ele><time>2026-05-01T15:14:22.623Z</time></trkpt><trkpt lat="41.8157454" lon="13.5530499"><ele>353.0</ele><time>2026-05-01T15:14:23.631Z</time></trkpt><trkpt lat="41.815926" lon="13.5532596"><ele>354.5</ele><time>2026-05-01T15:14:24.639Z</time></trkpt><trkpt lat="41.8161279" lon="13.5534863"><ele>356.0</ele><time>2026-05-01T15:14:25.639Z</time></trkpt><trkpt lat="41.8163468" lon="13.5537362"><ele>356.0</ele><time>2026-05-01T15:14:26.631Z</time></trkpt><trkpt lat="41.8165542" lon="13.5539722"><ele>356.0</ele><time>2026-05-01T15:14:27.627Z</time></trkpt><trkpt lat="41.816742" lon="13.5541895"><ele>353.0</ele><time>2026-05-01T15:14:28.629Z</time></trkpt><trkpt lat="41.8169111" lon="13.5543793"><ele>350.0</ele><time>2026-05-01T15:14:29.627Z</time></trkpt><trkpt lat="41.8170724" lon="13.554544"><ele>347.0</ele><time>2026-05-01T15:14:30.631Z</time></trkpt><trkpt lat="41.817237" lon="13.5546764"><ele>354.0</ele><time>2026-05-01T15:14:31.633Z</time></trkpt><trkpt lat="41.8174111" lon="13.554779"><ele>361.0</ele><time>2026-05-01T15:14:32.627Z</time></trkpt><trkpt lat="41.8175868" lon="13.5548397"><ele>368.0</ele><time>2026-05-01T15:14:33.623Z</time></trkpt><trkpt lat="41.8177652" lon="13.5548697"><ele>368.33333333333337</ele><time>2026-05-01T15:14:34.63Z</time></trkpt><trkpt lat="41.8179341" lon="13.5548589"><ele>368.6666666666667</ele><time>2026-05-01T15:14:35.629Z</time></trkpt><trkpt lat="41.8180947" lon="13.5548164"><ele>369.0</ele><time>2026-05-01T15:14:36.627Z</time></trkpt><trkpt lat="41.8182489" lon="13.5547402"><ele>369.0</ele><time>2026-05-01T15:14:37.621Z</time></trkpt><trkpt lat="41.8184036" lon="13.5546218"><ele>369.0</ele><time>2026-05-01T15:14:38.635Z</time></trkpt><trkpt lat="41.8185405" lon="13.55446"><ele>369.0</ele><time>2026-05-01T15:14:39.636Z</time></trkpt><trkpt lat="41.8186677" lon="13.5542665"><ele>366.6666666666667</ele><time>2026-05-01T15:14:40.633Z</time></trkpt><trkpt lat="41.8187836" lon="13.5540503"><ele>364.33333333333337</ele><time>2026-05-01T15:14:41.632Z</time></trkpt><trkpt lat="41.8188867" lon="13.5538361"><ele>362.0</ele><time>2026-05-01T15:14:42.628Z</time></trkpt><trkpt lat="41.8189813" lon="13.5536075"><ele>362.0</ele><time>2026-05-01T15:14:43.629Z</time></trkpt><trkpt lat="41.8190594" lon="13.5533655"><ele>362.0</ele><time>2026-05-01T15:14:44.642Z</time></trkpt><trkpt lat="41.8191229" lon="13.5531063"><ele>362.0</ele><time>2026-05-01T15:14:45.624Z</time></trkpt><trkpt lat="41.8191698" lon="13.5528122"><ele>357.5</ele><time>2026-05-01T15:14:46.629Z</time></trkpt><trkpt lat="41.8192101" lon="13.5524774"><ele>353.0</ele><time>2026-05-01T15:14:47.628Z</time></trkpt><trkpt lat="41.8192426" lon="13.5521251"><ele>351.0</ele><time>2026-05-01T15:14:48.633Z</time></trkpt><trkpt lat="41.8192881" lon="13.5517435"><ele>349.0</ele><time>2026-05-01T15:14:49.631Z</time></trkpt><trkpt lat="41.8193236" lon="13.5513335"><ele>361.5</ele><time>2026-05-01T15:14:50.642Z</time></trkpt><trkpt lat="41.8193596" lon="13.5509372"><ele>374.0</ele><time>2026-05-01T15:14:51.631Z</time></trkpt><trkpt lat="41.8193908" lon="13.5505687"><ele>376.0</ele><time>2026-05-01T15:14:52.639Z</time></trkpt><trkpt lat="41.8194251" lon="13.550249"><ele>378.0</ele><time>2026-05-01T15:14:53.64Z</time></trkpt><trkpt lat="41.8194504" lon="13.5499548"><ele>378.0</ele><time>2026-05-01T15:14:54.634Z</time></trkpt><trkpt lat="41.8194726" lon="13.5496734"><ele>378.0</ele><time>2026-05-01T15:14:55.637Z</time></trkpt><trkpt lat="41.8195013" lon="13.5493789"><ele>378.0</ele><time>2026-05-01T15:14:56.638Z</time></trkpt><trkpt lat="41.8195382" lon="13.5490481"><ele>368.0</ele><time>2026-05-01T15:14:57.641Z</time></trkpt><trkpt lat="41.819584" lon="13.5487006"><ele>358.0</ele><time>2026-05-01T15:14:58.635Z</time></trkpt><trkpt lat="41.8196277" lon="13.5483304"><ele>358.0</ele><time>2026-05-01T15:14:59.637Z</time></trkpt><trkpt lat="41.8196677" lon="13.5479216"><ele>358.0</ele><time>2026-05-01T15:15:00.652Z</time></trkpt><trkpt lat="41.8197081" lon="13.5475053"><ele>356.5</ele><time>2026-05-01T15:15:01.635Z</time></trkpt><trkpt lat="41.8197462" lon="13.5470938"><ele>355.0</ele><time>2026-05-01T15:15:02.641Z</time></trkpt><trkpt lat="41.8197794" lon="13.5467125"><ele>355.0</ele><time>2026-05-01T15:15:03.648Z</time></trkpt><trkpt lat="41.8198098" lon="13.5463624"><ele>355.0</ele><time>2026-05-01T15:15:04.639Z</time></trkpt><trkpt lat="41.8198386" lon="13.5460309"><ele>356.5</ele><time>2026-05-01T15:15:05.637Z</time></trkpt><trkpt lat="41.8198688" lon="13.5457225"><ele>358.0</ele><time>2026-05-01T15:15:06.64Z</time></trkpt><trkpt lat="41.819893" lon="13.5454316"><ele>358.0</ele><time>2026-05-01T15:15:07.643Z</time></trkpt><trkpt lat="41.819916" lon="13.5451591"><ele>358.0</ele><time>2026-05-01T15:15:08.635Z</time></trkpt><trkpt lat="41.8199415" lon="13.5449"><ele>358.0</ele><time>2026-05-01T15:15:09.642Z</time></trkpt><trkpt lat="41.8199808" lon="13.544655"><ele>357.0</ele><time>2026-05-01T15:15:10.641Z</time></trkpt><trkpt lat="41.8200382" lon="13.5444107"><ele>356.0</ele><time>2026-05-01T15:15:11.64Z</time></trkpt><trkpt lat="41.8201251" lon="13.5441675"><ele>355.0</ele><time>2026-05-01T15:15:12.639Z</time></trkpt><trkpt lat="41.8202309" lon="13.5439347"><ele>356.0</ele><time>2026-05-01T15:15:13.641Z</time></trkpt><trkpt lat="41.8203534" lon="13.5437322"><ele>357.0</ele><time>2026-05-01T15:15:14.639Z</time></trkpt><trkpt lat="41.8205" lon="13.5435343"><ele>358.0</ele><time>2026-05-01T15:15:15.65Z</time></trkpt><trkpt lat="41.8206809" lon="13.543355"><ele>358.0</ele><time>2026-05-01T15:15:16.636Z</time></trkpt><trkpt lat="41.8208784" lon="13.5432046"><ele>358.0</ele><time>2026-05-01T15:15:17.649Z</time></trkpt><trkpt lat="41.8211027" lon="13.5430651"><ele>358.0</ele><time>2026-05-01T15:15:18.639Z</time></trkpt><trkpt lat="41.8213443" lon="13.5429301"><ele>358.0</ele><time>2026-05-01T15:15:19.637Z</time></trkpt><trkpt lat="41.8215986" lon="13.5427985"><ele>359.0</ele><time>2026-05-01T15:15:20.638Z</time></trkpt><trkpt lat="41.8218419" lon="13.542694"><ele>360.0</ele><time>2026-05-01T15:15:21.638Z</time></trkpt><trkpt lat="41.8220634" lon="13.542617"><ele>360.0</ele><time>2026-05-01T15:15:22.644Z</time></trkpt><trkpt lat="41.8222768" lon="13.5425565"><ele>360.0</ele><time>2026-05-01T15:15:23.645Z</time></trkpt><trkpt lat="41.8224959" lon="13.5425042"><ele>360.0</ele><time>2026-05-01T15:15:24.638Z</time></trkpt><trkpt lat="41.8227263" lon="13.5424659"><ele>360.5</ele><time>2026-05-01T15:15:25.637Z</time></trkpt><trkpt lat="41.8229785" lon="13.5424486"><ele>361.0</ele><time>2026-05-01T15:15:26.628Z</time></trkpt><trkpt lat="41.8232395" lon="13.542449"><ele>362.0</ele><time>2026-05-01T15:15:27.634Z</time></trkpt><trkpt lat="41.8234908" lon="13.5424478"><ele>363.0</ele><time>2026-05-01T15:15:28.629Z</time></trkpt><trkpt lat="41.8237314" lon="13.5424499"><ele>363.0</ele><time>2026-05-01T15:15:29.637Z</time></trkpt><trkpt lat="41.8239653" lon="13.542455"><ele>363.0</ele><time>2026-05-01T15:15:30.638Z</time></trkpt><trkpt lat="41.8241866" lon="13.5424348"><ele>363.3333333333333</ele><time>2026-05-01T15:15:31.634Z</time></trkpt><trkpt lat="41.824386" lon="13.5423983"><ele>363.66666666666663</ele><time>2026-05-01T15:15:32.635Z</time></trkpt><trkpt lat="41.82458" lon="13.5423442"><ele>364.0</ele><time>2026-05-01T15:15:33.644Z</time></trkpt><trkpt lat="41.8247647" lon="13.5422685"><ele>364.0</ele><time>2026-05-01T15:15:34.643Z</time></trkpt><trkpt lat="41.8249566" lon="13.5421568"><ele>364.0</ele><time>2026-05-01T15:15:35.661Z</time></trkpt><trkpt lat="41.8251558" lon="13.5419995"><ele>364.0</ele><time>2026-05-01T15:15:36.636Z</time></trkpt><trkpt lat="41.8253615" lon="13.541798"><ele>365.0</ele><time>2026-05-01T15:15:37.637Z</time></trkpt><trkpt lat="41.8255695" lon="13.5415706"><ele>366.0</ele><time>2026-05-01T15:15:38.639Z</time></trkpt><trkpt lat="41.82579" lon="13.541333"><ele>366.0</ele><time>2026-05-01T15:15:39.64Z</time></trkpt><trkpt lat="41.8259992" lon="13.5411078"><ele>366.0</ele><time>2026-05-01T15:15:40.642Z</time></trkpt><trkpt lat="41.8262028" lon="13.5408915"><ele>366.0</ele><time>2026-05-01T15:15:41.642Z</time></trkpt><trkpt lat="41.8263942" lon="13.540683"><ele>366.0</ele><time>2026-05-01T15:15:42.645Z</time></trkpt><trkpt lat="41.8265831" lon="13.5404912"><ele>364.6666666666667</ele><time>2026-05-01T15:15:43.639Z</time></trkpt><trkpt lat="41.8267635" lon="13.5403037"><ele>363.33333333333337</ele><time>2026-05-01T15:15:44.643Z</time></trkpt><trkpt lat="41.826936" lon="13.5401245"><ele>362.0</ele><time>2026-05-01T15:15:45.636Z</time></trkpt><trkpt lat="41.8271069" lon="13.5399427"><ele>363.33333333333337</ele><time>2026-05-01T15:15:46.643Z</time></trkpt><trkpt lat="41.8272664" lon="13.5397375"><ele>364.6666666666667</ele><time>2026-05-01T15:15:47.639Z</time></trkpt><trkpt lat="41.8274161" lon="13.5395093"><ele>366.0</ele><time>2026-05-01T15:15:48.637Z</time></trkpt><trkpt lat="41.827566" lon="13.5392682"><ele>377.0</ele><time>2026-05-01T15:15:49.631Z</time></trkpt><trkpt lat="41.827709" lon="13.5390109"><ele>388.0</ele><time>2026-05-01T15:15:50.64Z</time></trkpt><trkpt lat="41.8278397" lon="13.5387468"><ele>385.0</ele><time>2026-05-01T15:15:51.642Z</time></trkpt><trkpt lat="41.8279642" lon="13.5384969"><ele>382.0</ele><time>2026-05-01T15:15:52.64Z</time></trkpt><trkpt lat="41.8280663" lon="13.53827"><ele>379.0</ele><time>2026-05-01T15:15:53.633Z</time></trkpt><trkpt lat="41.8281578" lon="13.5380649"><ele>376.0</ele><time>2026-05-01T15:15:54.637Z</time></trkpt><trkpt lat="41.8282561" lon="13.5378795"><ele>373.0</ele><time>2026-05-01T15:15:55.644Z</time></trkpt><trkpt lat="41.8283541" lon="13.5377252"><ele>370.0</ele><time>2026-05-01T15:15:56.648Z</time></trkpt><trkpt lat="41.8284644" lon="13.5376084"><ele>373.0</ele><time>2026-05-01T15:15:57.631Z</time></trkpt><trkpt lat="41.8285947" lon="13.5375604"><ele>376.0</ele><time>2026-05-01T15:15:58.634Z</time></trkpt><trkpt lat="41.8287655" lon="13.5375501"><ele>379.0</ele><time>2026-05-01T15:15:59.624Z</time></trkpt><trkpt lat="41.8289545" lon="13.5375697"><ele>379.0</ele><time>2026-05-01T15:16:00.632Z</time></trkpt><trkpt lat="41.8291406" lon="13.5375707"><ele>379.0</ele><time>2026-05-01T15:16:01.634Z</time></trkpt><trkpt lat="41.8293131" lon="13.5375397"><ele>379.0</ele><time>2026-05-01T15:16:02.629Z</time></trkpt><trkpt lat="41.8294687" lon="13.537473"><ele>376.66666666666663</ele><time>2026-05-01T15:16:03.634Z</time></trkpt><trkpt lat="41.8296211" lon="13.5373701"><ele>374.3333333333333</ele><time>2026-05-01T15:16:04.635Z</time></trkpt><trkpt lat="41.829767" lon="13.5372205"><ele>372.0</ele><time>2026-05-01T15:16:05.632Z</time></trkpt><trkpt lat="41.8299009" lon="13.5370409"><ele>372.0</ele><time>2026-05-01T15:16:06.648Z</time></trkpt><trkpt lat="41.8300312" lon="13.5368767"><ele>372.0</ele><time>2026-05-01T15:16:07.639Z</time></trkpt><trkpt lat="41.8301424" lon="13.5367278"><ele>372.0</ele><time>2026-05-01T15:16:08.648Z</time></trkpt><trkpt lat="41.8302346" lon="13.5365891"><ele>377.0</ele><time>2026-05-01T15:16:09.635Z</time></trkpt><trkpt lat="41.8302968" lon="13.5364258"><ele>382.0</ele><time>2026-05-01T15:16:10.629Z</time></trkpt><trkpt lat="41.8303311" lon="13.5362538"><ele>387.0</ele><time>2026-05-01T15:16:11.637Z</time></trkpt><trkpt lat="41.8303326" lon="13.5360458"><ele>392.0</ele><time>2026-05-01T15:16:12.621Z</time></trkpt><trkpt lat="41.8303186" lon="13.5358107"><ele>392.0</ele><time>2026-05-01T15:16:13.639Z</time></trkpt><trkpt lat="41.8303278" lon="13.5355719"><ele>392.0</ele><time>2026-05-01T15:16:14.632Z</time></trkpt><trkpt lat="41.8303589" lon="13.5353547"><ele>392.0</ele><time>2026-05-01T15:16:15.626Z</time></trkpt><trkpt lat="41.8304023" lon="13.5351769"><ele>388.25</ele><time>2026-05-01T15:16:16.636Z</time></trkpt><trkpt lat="41.8304627" lon="13.5350338"><ele>384.5</ele><time>2026-05-01T15:16:17.64Z</time></trkpt><trkpt lat="41.8305518" lon="13.5349274"><ele>380.75</ele><time>2026-05-01T15:16:18.631Z</time></trkpt><trkpt lat="41.8306716" lon="13.5348663"><ele>377.0</ele><time>2026-05-01T15:16:19.636Z</time></trkpt><trkpt lat="41.8308145" lon="13.5348548"><ele>377.0</ele><time>2026-05-01T15:16:20.631Z</time></trkpt><trkpt lat="41.8309511" lon="13.5348723"><ele>377.0</ele><time>2026-05-01T15:16:21.632Z</time></trkpt><trkpt lat="41.8310841" lon="13.5348695"><ele>377.0</ele><time>2026-05-01T15:16:22.638Z</time></trkpt><trkpt lat="41.831213" lon="13.5348316"><ele>377.0</ele><time>2026-05-01T15:16:23.63Z</time></trkpt><trkpt lat="41.8313338" lon="13.5347552"><ele>379.25</ele><time>2026-05-01T15:16:24.631Z</time></trkpt><trkpt lat="41.8314248" lon="13.5346549"><ele>381.5</ele><time>2026-05-01T15:16:25.637Z</time></trkpt><trkpt lat="41.8314956" lon="13.53453"><ele>383.75</ele><time>2026-05-01T15:16:26.633Z</time></trkpt><trkpt lat="41.8315367" lon="13.5343943"><ele>386.0</ele><time>2026-05-01T15:16:27.631Z</time></trkpt><trkpt lat="41.831533" lon="13.5342445"><ele>386.0</ele><time>2026-05-01T15:16:28.637Z</time></trkpt><trkpt lat="41.8314834" lon="13.5341013"><ele>386.0</ele><time>2026-05-01T15:16:29.635Z</time></trkpt><trkpt lat="41.8313689" lon="13.5339908"><ele>386.0</ele><time>2026-05-01T15:16:30.634Z</time></trkpt><trkpt lat="41.8312139" lon="13.5339179"><ele>386.0</ele><time>2026-05-01T15:16:31.637Z</time></trkpt><trkpt lat="41.8310441" lon="13.5338462"><ele>389.66666666666663</ele><time>2026-05-01T15:16:32.618Z</time></trkpt><trkpt lat="41.8308557" lon="13.5337422"><ele>393.33333333333337</ele><time>2026-05-01T15:16:33.638Z</time></trkpt><trkpt lat="41.8306644" lon="13.5335991"><ele>397.0</ele><time>2026-05-01T15:16:34.627Z</time></trkpt><trkpt lat="41.8304691" lon="13.5334361"><ele>397.0</ele><time>2026-05-01T15:16:35.636Z</time></trkpt><trkpt lat="41.8302681" lon="13.5332871"><ele>397.0</ele><time>2026-05-01T15:16:36.639Z</time></trkpt><trkpt lat="41.8300769" lon="13.5331697"><ele>397.0</ele><time>2026-05-01T15:16:37.637Z</time></trkpt><trkpt lat="41.8299173" lon="13.5330878"><ele>397.5</ele><time>2026-05-01T15:16:38.628Z</time></trkpt><trkpt lat="41.8297813" lon="13.5330037"><ele>398.0</ele><time>2026-05-01T15:16:39.653Z</time></trkpt><trkpt lat="41.8296658" lon="13.5328991"><ele>398.5</ele><time>2026-05-01T15:16:40.639Z</time></trkpt><trkpt lat="41.8295742" lon="13.532783"><ele>399.0</ele><time>2026-05-01T15:16:41.642Z</time></trkpt><trkpt lat="41.8295028" lon="13.5326416"><ele>399.0</ele><time>2026-05-01T15:16:42.64Z</time></trkpt><trkpt lat="41.8294514" lon="13.5324468"><ele>399.0</ele><time>2026-05-01T15:16:43.647Z</time></trkpt><trkpt lat="41.8294091" lon="13.5322347"><ele>399.0</ele><time>2026-05-01T15:16:44.64Z</time></trkpt><trkpt lat="41.829344" lon="13.5320358"><ele>393.25</ele><time>2026-05-01T15:16:45.644Z</time></trkpt><trkpt lat="41.8292681" lon="13.5318717"><ele>387.5</ele><time>2026-05-01T15:16:46.634Z</time></trkpt><trkpt lat="41.8292137" lon="13.5317364"><ele>381.75</ele><time>2026-05-01T15:16:47.637Z</time></trkpt><trkpt lat="41.8292088" lon="13.5315892"><ele>376.0</ele><time>2026-05-01T15:16:48.642Z</time></trkpt><trkpt lat="41.8292411" lon="13.5314215"><ele>376.0</ele><time>2026-05-01T15:16:49.639Z</time></trkpt><trkpt lat="41.8293052" lon="13.5312611"><ele>376.0</ele><time>2026-05-01T15:16:50.624Z</time></trkpt><trkpt lat="41.8293971" lon="13.5311009"><ele>376.0</ele><time>2026-05-01T15:16:51.638Z</time></trkpt><trkpt lat="41.8295054" lon="13.5309512"><ele>376.0</ele><time>2026-05-01T15:16:52.639Z</time></trkpt><trkpt lat="41.8296357" lon="13.5307967"><ele>380.3333333333333</ele><time>2026-05-01T15:16:53.633Z</time></trkpt><trkpt lat="41.8297755" lon="13.5306566"><ele>384.66666666666663</ele><time>2026-05-01T15:16:54.647Z</time></trkpt><trkpt lat="41.8299149" lon="13.5305366"><ele>389.0</ele><time>2026-05-01T15:16:55.639Z</time></trkpt><trkpt lat="41.8300483" lon="13.5304455"><ele>386.75</ele><time>2026-05-01T15:16:56.638Z</time></trkpt><trkpt lat="41.8301863" lon="13.5303771"><ele>384.5</ele><time>2026-05-01T15:16:57.635Z</time></trkpt><trkpt lat="41.8303189" lon="13.5303322"><ele>382.25</ele><time>2026-05-01T15:16:58.636Z</time></trkpt><trkpt lat="41.830451" lon="13.5303299"><ele>380.0</ele><time>2026-05-01T15:16:59.649Z</time></trkpt><trkpt lat="41.8305745" lon="13.5303362"><ele>380.0</ele><time>2026-05-01T15:17:00.637Z</time></trkpt><trkpt lat="41.8306926" lon="13.5303052"><ele>380.0</ele><time>2026-05-01T15:17:01.634Z</time></trkpt><trkpt lat="41.830819" lon="13.5302158"><ele>380.0</ele><time>2026-05-01T15:17:02.633Z</time></trkpt><trkpt lat="41.830941" lon="13.5300708"><ele>380.0</ele><time>2026-05-01T15:17:03.631Z</time></trkpt><trkpt lat="41.8310796" lon="13.5299319"><ele>383.25</ele><time>2026-05-01T15:17:04.64Z</time></trkpt><trkpt lat="41.8312092" lon="13.5298489"><ele>386.5</ele><time>2026-05-01T15:17:05.623Z</time></trkpt><trkpt lat="41.8313547" lon="13.529836"><ele>389.75</ele><time>2026-05-01T15:17:06.645Z</time></trkpt><trkpt lat="41.8315139" lon="13.5298403"><ele>393.0</ele><time>2026-05-01T15:17:07.637Z</time></trkpt><trkpt lat="41.8316921" lon="13.529835"><ele>398.0</ele><time>2026-05-01T15:17:08.635Z</time></trkpt><trkpt lat="41.8318674" lon="13.5298193"><ele>403.0</ele><time>2026-05-01T15:17:09.638Z</time></trkpt><trkpt lat="41.8320505" lon="13.529806"><ele>408.0</ele><time>2026-05-01T15:17:10.633Z</time></trkpt><trkpt lat="41.8322368" lon="13.5298003"><ele>408.0</ele><time>2026-05-01T15:17:11.63Z</time></trkpt><trkpt lat="41.8324291" lon="13.5297737"><ele>408.0</ele><time>2026-05-01T15:17:12.623Z</time></trkpt><trkpt lat="41.8326158" lon="13.5297166"><ele>408.0</ele><time>2026-05-01T15:17:13.64Z</time></trkpt><trkpt lat="41.8327937" lon="13.5296414"><ele>410.0</ele><time>2026-05-01T15:17:14.64Z</time></trkpt><trkpt lat="41.8329546" lon="13.5295669"><ele>412.0</ele><time>2026-05-01T15:17:15.631Z</time></trkpt><trkpt lat="41.8331066" lon="13.5295138"><ele>414.0</ele><time>2026-05-01T15:17:16.631Z</time></trkpt><trkpt lat="41.8332481" lon="13.5294675"><ele>415.5</ele><time>2026-05-01T15:17:17.64Z</time></trkpt><trkpt lat="41.8333713" lon="13.5293949"><ele>417.0</ele><time>2026-05-01T15:17:18.634Z</time></trkpt><trkpt lat="41.8334822" lon="13.5292843"><ele>418.5</ele><time>2026-05-01T15:17:19.627Z</time></trkpt><trkpt lat="41.8335972" lon="13.5291234"><ele>420.0</ele><time>2026-05-01T15:17:20.632Z</time></trkpt><trkpt lat="41.8337218" lon="13.5289329"><ele>420.0</ele><time>2026-05-01T15:17:21.626Z</time></trkpt><trkpt lat="41.8338633" lon="13.5287465"><ele>420.0</ele><time>2026-05-01T15:17:22.642Z</time></trkpt><trkpt lat="41.8340137" lon="13.5285802"><ele>420.0</ele><time>2026-05-01T15:17:23.631Z</time></trkpt><trkpt lat="41.834149" lon="13.5284203"><ele>418.5</ele><time>2026-05-01T15:17:24.627Z</time></trkpt><trkpt lat="41.8342568" lon="13.5282678"><ele>417.0</ele><time>2026-05-01T15:17:25.633Z</time></trkpt><trkpt lat="41.8343329" lon="13.5281027"><ele>415.5</ele><time>2026-05-01T15:17:26.627Z</time></trkpt><trkpt lat="41.834395" lon="13.5279411"><ele>414.0</ele><time>2026-05-01T15:17:27.636Z</time></trkpt><trkpt lat="41.8344549" lon="13.5278073"><ele>410.6</ele><time>2026-05-01T15:17:28.632Z</time></trkpt><trkpt lat="41.8345234" lon="13.527711"><ele>407.2</ele><time>2026-05-01T15:17:29.627Z</time></trkpt><trkpt lat="41.8346144" lon="13.5276564"><ele>403.8</ele><time>2026-05-01T15:17:30.632Z</time></trkpt><trkpt lat="41.8347264" lon="13.527648"><ele>400.40000000000003</ele><time>2026-05-01T15:17:31.633Z</time></trkpt><trkpt lat="41.8348361" lon="13.5276886"><ele>397.0</ele><time>2026-05-01T15:17:32.628Z</time></trkpt><trkpt lat="41.834932" lon="13.5277865"><ele>401.25</ele><time>2026-05-01T15:17:33.643Z</time></trkpt><trkpt lat="41.8350118" lon="13.5279378"><ele>405.5</ele><time>2026-05-01T15:17:34.63Z</time></trkpt><trkpt lat="41.835086" lon="13.5280813"><ele>409.75</ele><time>2026-05-01T15:17:35.625Z</time></trkpt><trkpt lat="41.8351772" lon="13.5281757"><ele>414.0</ele><time>2026-05-01T15:17:36.639Z</time></trkpt><trkpt lat="41.8352986" lon="13.528221"><ele>415.0</ele><time>2026-05-01T15:17:37.635Z</time></trkpt><trkpt lat="41.835435" lon="13.5282211"><ele>416.0</ele><time>2026-05-01T15:17:38.639Z</time></trkpt><trkpt lat="41.835547" lon="13.5281826"><ele>417.0</ele><time>2026-05-01T15:17:39.631Z</time></trkpt><trkpt lat="41.8356331" lon="13.5280984"><ele>418.0</ele><time>2026-05-01T15:17:40.636Z</time></trkpt><trkpt lat="41.8356906" lon="13.5279712"><ele>415.5</ele><time>2026-05-01T15:17:41.633Z</time></trkpt><trkpt lat="41.8357119" lon="13.5278088"><ele>413.0</ele><time>2026-05-01T15:17:42.627Z</time></trkpt><trkpt lat="41.8357156" lon="13.5276166"><ele>410.5</ele><time>2026-05-01T15:17:43.623Z</time></trkpt><trkpt lat="41.835714" lon="13.5274061"><ele>408.0</ele><time>2026-05-01T15:17:44.642Z</time></trkpt><trkpt lat="41.8357096" lon="13.5272012"><ele>406.25</ele><time>2026-05-01T15:17:45.636Z</time></trkpt><trkpt lat="41.8357084" lon="13.5270183"><ele>404.5</ele><time>2026-05-01T15:17:46.631Z</time></trkpt><trkpt lat="41.8357241" lon="13.5268515"><ele>402.75</ele><time>2026-05-01T15:17:47.632Z</time></trkpt><trkpt lat="41.8357684" lon="13.5267028"><ele>401.0</ele><time>2026-05-01T15:17:48.635Z</time></trkpt><trkpt lat="41.8358494" lon="13.526557"><ele>401.0</ele><time>2026-05-01T15:17:49.641Z</time></trkpt><trkpt lat="41.8359522" lon="13.5264193"><ele>401.0</ele><time>2026-05-01T15:17:50.632Z</time></trkpt><trkpt lat="41.8360653" lon="13.5262938"><ele>401.0</ele><time>2026-05-01T15:17:51.638Z</time></trkpt><trkpt lat="41.8361964" lon="13.526197"><ele>401.0</ele><time>2026-05-01T15:17:52.642Z</time></trkpt><trkpt lat="41.8363479" lon="13.5261376"><ele>402.66666666666663</ele><time>2026-05-01T15:17:53.633Z</time></trkpt><trkpt lat="41.8365065" lon="13.5260919"><ele>404.33333333333337</ele><time>2026-05-01T15:17:54.642Z</time></trkpt><trkpt lat="41.8366547" lon="13.5260112"><ele>406.0</ele><time>2026-05-01T15:17:55.643Z</time></trkpt><trkpt lat="41.8367869" lon="13.5258886"><ele>407.0</ele><time>2026-05-01T15:17:56.649Z</time></trkpt><trkpt lat="41.8368988" lon="13.525721"><ele>408.0</ele><time>2026-05-01T15:17:57.649Z</time></trkpt><trkpt lat="41.8369923" lon="13.5255327"><ele>409.0</ele><time>2026-05-01T15:17:58.628Z</time></trkpt><trkpt lat="41.8370653" lon="13.5253537"><ele>409.0</ele><time>2026-05-01T15:17:59.628Z</time></trkpt><trkpt lat="41.8371306" lon="13.5251944"><ele>409.0</ele><time>2026-05-01T15:18:00.633Z</time></trkpt><trkpt lat="41.8372175" lon="13.5250587"><ele>409.0</ele><time>2026-05-01T15:18:01.635Z</time></trkpt><trkpt lat="41.8373393" lon="13.5249531"><ele>409.0</ele><time>2026-05-01T15:18:02.634Z</time></trkpt><trkpt lat="41.8374952" lon="13.5248627"><ele>406.6666666666667</ele><time>2026-05-01T15:18:03.628Z</time></trkpt><trkpt lat="41.8376552" lon="13.5247479"><ele>404.33333333333337</ele><time>2026-05-01T15:18:04.625Z</time></trkpt><trkpt lat="41.8378225" lon="13.5246179"><ele>402.0</ele><time>2026-05-01T15:18:05.63Z</time></trkpt><trkpt lat="41.8379891" lon="13.5244764"><ele>402.0</ele><time>2026-05-01T15:18:06.628Z</time></trkpt><trkpt lat="41.8381633" lon="13.5243314"><ele>402.0</ele><time>2026-05-01T15:18:07.651Z</time></trkpt><trkpt lat="41.8383284" lon="13.5242072"><ele>402.0</ele><time>2026-05-01T15:18:08.634Z</time></trkpt><trkpt lat="41.8384682" lon="13.5240908"><ele>402.5</ele><time>2026-05-01T15:18:09.637Z</time></trkpt><trkpt lat="41.8385891" lon="13.524001"><ele>403.0</ele><time>2026-05-01T15:18:10.628Z</time></trkpt><trkpt lat="41.8387195" lon="13.523947"><ele>403.5</ele><time>2026-05-01T15:18:11.63Z</time></trkpt><trkpt lat="41.8388672" lon="13.5239403"><ele>404.0</ele><time>2026-05-01T15:18:12.635Z</time></trkpt><trkpt lat="41.8390168" lon="13.5239764"><ele>404.0</ele><time>2026-05-01T15:18:13.633Z</time></trkpt><trkpt lat="41.8391395" lon="13.5240131"><ele>404.0</ele><time>2026-05-01T15:18:14.63Z</time></trkpt><trkpt lat="41.8392421" lon="13.524081"><ele>404.0</ele><time>2026-05-01T15:18:15.623Z</time></trkpt><trkpt lat="41.8393139" lon="13.5241806"><ele>404.0</ele><time>2026-05-01T15:18:16.622Z</time></trkpt><trkpt lat="41.8393623" lon="13.5243361"><ele>407.5</ele><time>2026-05-01T15:18:17.633Z</time></trkpt><trkpt lat="41.8393856" lon="13.5245282"><ele>411.0</ele><time>2026-05-01T15:18:18.631Z</time></trkpt><trkpt lat="41.8394095" lon="13.524729"><ele>414.5</ele><time>2026-05-01T15:18:19.635Z</time></trkpt><trkpt lat="41.8394413" lon="13.5249093"><ele>418.0</ele><time>2026-05-01T15:18:20.634Z</time></trkpt><trkpt lat="41.8394766" lon="13.5250471"><ele>418.0</ele><time>2026-05-01T15:18:21.641Z</time></trkpt><trkpt lat="41.8395276" lon="13.5251343"><ele>418.0</ele><time>2026-05-01T15:18:22.633Z</time></trkpt><trkpt lat="41.839602" lon="13.5251683"><ele>418.0</ele><time>2026-05-01T15:18:23.632Z</time></trkpt><trkpt lat="41.8396849" lon="13.5251327"><ele>418.0</ele><time>2026-05-01T15:18:24.634Z</time></trkpt><trkpt lat="41.839771" lon="13.5250372"><ele>418.0</ele><time>2026-05-01T15:18:25.636Z</time></trkpt><trkpt lat="41.8398499" lon="13.5249164"><ele>418.0</ele><time>2026-05-01T15:18:26.626Z</time></trkpt><trkpt lat="41.8398771" lon="13.5247633"><ele>418.0</ele><time>2026-05-01T15:18:27.637Z</time></trkpt><trkpt lat="41.8398593" lon="13.5245695"><ele>418.0</ele><time>2026-05-01T15:18:28.656Z</time></trkpt><trkpt lat="41.8398345" lon="13.5243461"><ele>418.0</ele><time>2026-05-01T15:18:29.643Z</time></trkpt><trkpt lat="41.8398461" lon="13.5241004"><ele>418.0</ele><time>2026-05-01T15:18:30.646Z</time></trkpt><trkpt lat="41.839888" lon="13.5238838"><ele>418.0</ele><time>2026-05-01T15:18:31.632Z</time></trkpt><trkpt lat="41.8398963" lon="13.5236723"><ele>418.0</ele><time>2026-05-01T15:18:32.642Z</time></trkpt><trkpt lat="41.839862" lon="13.5234603"><ele>417.75</ele><time>2026-05-01T15:18:33.639Z</time></trkpt><trkpt lat="41.839802" lon="13.5232672"><ele>417.5</ele><time>2026-05-01T15:18:34.637Z</time></trkpt><trkpt lat="41.8397534" lon="13.5230959"><ele>417.25</ele><time>2026-05-01T15:18:35.633Z</time></trkpt><trkpt lat="41.8397413" lon="13.5229476"><ele>417.0</ele><time>2026-05-01T15:18:36.642Z</time></trkpt><trkpt lat="41.8397709" lon="13.5228061"><ele>414.75</ele><time>2026-05-01T15:18:37.636Z</time></trkpt><trkpt lat="41.839844" lon="13.5226763"><ele>412.5</ele><time>2026-05-01T15:18:38.633Z</time></trkpt><trkpt lat="41.83995" lon="13.5225656"><ele>410.25</ele><time>2026-05-01T15:18:39.638Z</time></trkpt><trkpt lat="41.8400601" lon="13.5224416"><ele>408.0</ele><time>2026-05-01T15:18:40.633Z</time></trkpt><trkpt lat="41.8401692" lon="13.5222911"><ele>407.25</ele><time>2026-05-01T15:18:41.637Z</time></trkpt><trkpt lat="41.8402574" lon="13.5221163"><ele>406.5</ele><time>2026-05-01T15:18:42.63Z</time></trkpt><trkpt lat="41.8403226" lon="13.5219492"><ele>405.75</ele><time>2026-05-01T15:18:43.626Z</time></trkpt><trkpt lat="41.8404076" lon="13.5218263"><ele>405.0</ele><time>2026-05-01T15:18:44.623Z</time></trkpt><trkpt lat="41.8405124" lon="13.5217615"><ele>405.0</ele><time>2026-05-01T15:18:45.636Z</time></trkpt><trkpt lat="41.8406337" lon="13.5217636"><ele>405.0</ele><time>2026-05-01T15:18:46.63Z</time></trkpt><trkpt lat="41.8407671" lon="13.5217971"><ele>405.0</ele><time>2026-05-01T15:18:47.631Z</time></trkpt><trkpt lat="41.840907" lon="13.5218405"><ele>405.0</ele><time>2026-05-01T15:18:48.628Z</time></trkpt><trkpt lat="41.8410486" lon="13.5218993"><ele>405.66666666666663</ele><time>2026-05-01T15:18:49.633Z</time></trkpt><trkpt lat="41.8411937" lon="13.5219934"><ele>406.3333333333333</ele><time>2026-05-01T15:18:50.629Z</time></trkpt><trkpt lat="41.8413438" lon="13.5221222"><ele>407.0</ele><time>2026-05-01T15:18:51.631Z</time></trkpt><trkpt lat="41.841482" lon="13.5222376"><ele>407.5</ele><time>2026-05-01T15:18:52.631Z</time></trkpt><trkpt lat="41.8416171" lon="13.5223305"><ele>408.0</ele><time>2026-05-01T15:18:53.62Z</time></trkpt><trkpt lat="41.841748" lon="13.522391"><ele>408.5</ele><time>2026-05-01T15:18:54.631Z</time></trkpt><trkpt lat="41.8418729" lon="13.5224119"><ele>409.0</ele><time>2026-05-01T15:18:55.615Z</time></trkpt><trkpt lat="41.8419973" lon="13.5223973"><ele>409.0</ele><time>2026-05-01T15:18:56.636Z</time></trkpt><trkpt lat="41.8420979" lon="13.5223456"><ele>409.0</ele><time>2026-05-01T15:18:57.633Z</time></trkpt><trkpt lat="41.8421644" lon="13.5222603"><ele>409.0</ele><time>2026-05-01T15:18:58.626Z</time></trkpt><trkpt lat="41.8422096" lon="13.5221432"><ele>409.0</ele><time>2026-05-01T15:18:59.635Z</time></trkpt><trkpt lat="41.8422393" lon="13.5220071"><ele>409.0</ele><time>2026-05-01T15:19:00.631Z</time></trkpt><trkpt lat="41.8422322" lon="13.5218633"><ele>409.75</ele><time>2026-05-01T15:19:01.634Z</time></trkpt><trkpt lat="41.8421825" lon="13.5217357"><ele>410.5</ele><time>2026-05-01T15:19:02.631Z</time></trkpt><trkpt lat="41.8420864" lon="13.5216248"><ele>411.25</ele><time>2026-05-01T15:19:03.629Z</time></trkpt><trkpt lat="41.8419532" lon="13.5215134"><ele>412.0</ele><time>2026-05-01T15:19:04.633Z</time></trkpt><trkpt lat="41.8418001" lon="13.5213866"><ele>417.5</ele><time>2026-05-01T15:19:05.632Z</time></trkpt><trkpt lat="41.8416185" lon="13.5212191"><ele>423.0</ele><time>2026-05-01T15:19:06.632Z</time></trkpt><trkpt lat="41.8414182" lon="13.52104"><ele>423.0</ele><time>2026-05-01T15:19:07.641Z</time></trkpt><trkpt lat="41.841237" lon="13.5208731"><ele>423.0</ele><time>2026-05-01T15:19:08.635Z</time></trkpt><trkpt lat="41.8410969" lon="13.5207279"><ele>423.0</ele><time>2026-05-01T15:19:09.636Z</time></trkpt><trkpt lat="41.8409987" lon="13.5206038"><ele>419.2</ele><time>2026-05-01T15:19:10.63Z</time></trkpt><trkpt lat="41.840921" lon="13.5205126"><ele>415.4</ele><time>2026-05-01T15:19:11.636Z</time></trkpt><trkpt lat="41.8408673" lon="13.5203992"><ele>411.59999999999997</ele><time>2026-05-01T15:19:12.635Z</time></trkpt><trkpt lat="41.8408408" lon="13.5202512"><ele>407.79999999999995</ele><time>2026-05-01T15:19:13.636Z</time></trkpt><trkpt lat="41.8408463" lon="13.5200816"><ele>404.0</ele><time>2026-05-01T15:19:14.641Z</time></trkpt><trkpt lat="41.8408775" lon="13.5198901"><ele>404.0</ele><time>2026-05-01T15:19:15.647Z</time></trkpt><trkpt lat="41.8409367" lon="13.5196888"><ele>404.0</ele><time>2026-05-01T15:19:16.634Z</time></trkpt><trkpt lat="41.8410093" lon="13.5194651"><ele>404.0</ele><time>2026-05-01T15:19:17.64Z</time></trkpt><trkpt lat="41.8410896" lon="13.5192194"><ele>409.0</ele><time>2026-05-01T15:19:18.631Z</time></trkpt><trkpt lat="41.8411884" lon="13.5189751"><ele>414.0</ele><time>2026-05-01T15:19:19.635Z</time></trkpt><trkpt lat="41.8412972" lon="13.5187407"><ele>419.0</ele><time>2026-05-01T15:19:20.643Z</time></trkpt><trkpt lat="41.8413877" lon="13.5185117"><ele>419.0</ele><time>2026-05-01T15:19:21.637Z</time></trkpt><trkpt lat="41.8414508" lon="13.5182903"><ele>419.0</ele><time>2026-05-01T15:19:22.629Z</time></trkpt><trkpt lat="41.8414929" lon="13.5180819"><ele>419.0</ele><time>2026-05-01T15:19:23.633Z</time></trkpt><trkpt lat="41.8415292" lon="13.5178884"><ele>421.25</ele><time>2026-05-01T15:19:24.632Z</time></trkpt><trkpt lat="41.8415804" lon="13.5177102"><ele>423.5</ele><time>2026-05-01T15:19:25.626Z</time></trkpt><trkpt lat="41.8416685" lon="13.5175469"><ele>425.75</ele><time>2026-05-01T15:19:26.646Z</time></trkpt><trkpt lat="41.8417782" lon="13.5174007"><ele>428.0</ele><time>2026-05-01T15:19:27.635Z</time></trkpt><trkpt lat="41.8418975" lon="13.5172875"><ele>428.0</ele><time>2026-05-01T15:19:28.634Z</time></trkpt><trkpt lat="41.8420244" lon="13.5172221"><ele>428.0</ele><time>2026-05-01T15:19:29.626Z</time></trkpt><trkpt lat="41.8421401" lon="13.517188"><ele>428.0</ele><time>2026-05-01T15:19:30.634Z</time></trkpt><trkpt lat="41.8422292" lon="13.5171362"><ele>428.0</ele><time>2026-05-01T15:19:31.633Z</time></trkpt><trkpt lat="41.842294" lon="13.5170349"><ele>425.25</ele><time>2026-05-01T15:19:32.629Z</time></trkpt><trkpt lat="41.8423336" lon="13.5168907"><ele>422.5</ele><time>2026-05-01T15:19:33.634Z</time></trkpt><trkpt lat="41.8423332" lon="13.5167129"><ele>419.75</ele><time>2026-05-01T15:19:34.636Z</time></trkpt><trkpt lat="41.8423295" lon="13.5165207"><ele>417.0</ele><time>2026-05-01T15:19:35.636Z</time></trkpt><trkpt lat="41.8423627" lon="13.516334"><ele>413.66666666666663</ele><time>2026-05-01T15:19:36.635Z</time></trkpt><trkpt lat="41.8424448" lon="13.516162"><ele>410.3333333333333</ele><time>2026-05-01T15:19:37.65Z</time></trkpt><trkpt lat="41.8425567" lon="13.5159987"><ele>407.0</ele><time>2026-05-01T15:19:38.633Z</time></trkpt><trkpt lat="41.8426828" lon="13.5158358"><ele>406.3333333333333</ele><time>2026-05-01T15:19:39.638Z</time></trkpt><trkpt lat="41.8428162" lon="13.5156803"><ele>405.66666666666663</ele><time>2026-05-01T15:19:40.631Z</time></trkpt><trkpt lat="41.842961" lon="13.5155227"><ele>405.0</ele><time>2026-05-01T15:19:41.632Z</time></trkpt><trkpt lat="41.8431079" lon="13.5153812"><ele>405.0</ele><time>2026-05-01T15:19:42.64Z</time></trkpt><trkpt lat="41.8432547" lon="13.5152666"><ele>405.0</ele><time>2026-05-01T15:19:43.642Z</time></trkpt><trkpt lat="41.8433961" lon="13.5151736"><ele>405.0</ele><time>2026-05-01T15:19:44.645Z</time></trkpt><trkpt lat="41.8435402" lon="13.5151194"><ele>408.8</ele><time>2026-05-01T15:19:45.634Z</time></trkpt><trkpt lat="41.8436726" lon="13.5150888"><ele>412.6</ele><time>2026-05-01T15:19:46.637Z</time></trkpt><trkpt lat="41.8437784" lon="13.5150664"><ele>416.4</ele><time>2026-05-01T15:19:47.637Z</time></trkpt><trkpt lat="41.843856" lon="13.5150194"><ele>420.2</ele><time>2026-05-01T15:19:48.64Z</time></trkpt><trkpt lat="41.8439084" lon="13.5149313"><ele>424.0</ele><time>2026-05-01T15:19:49.631Z</time></trkpt><trkpt lat="41.8439187" lon="13.5148036"><ele>424.0</ele><time>2026-05-01T15:19:50.625Z</time></trkpt><trkpt lat="41.8438809" lon="13.5146667"><ele>424.0</ele><time>2026-05-01T15:19:51.637Z</time></trkpt><trkpt lat="41.8438088" lon="13.5145262"><ele>424.0</ele><time>2026-05-01T15:19:52.632Z</time></trkpt><trkpt lat="41.8437493" lon="13.5143829"><ele>424.0</ele><time>2026-05-01T15:19:53.628Z</time></trkpt><trkpt lat="41.843738" lon="13.5142271"><ele>424.25</ele><time>2026-05-01T15:19:54.646Z</time></trkpt><trkpt lat="41.8437759" lon="13.5140712"><ele>424.5</ele><time>2026-05-01T15:19:55.628Z</time></trkpt><trkpt lat="41.8438442" lon="13.513908"><ele>424.75</ele><time>2026-05-01T15:19:56.624Z</time></trkpt><trkpt lat="41.8439266" lon="13.5137417"><ele>425.0</ele><time>2026-05-01T15:19:57.63Z</time></trkpt><trkpt lat="41.8440014" lon="13.5135832"><ele>420.66666666666663</ele><time>2026-05-01T15:19:58.633Z</time></trkpt><trkpt lat="41.8440856" lon="13.5134309"><ele>416.33333333333337</ele><time>2026-05-01T15:19:59.634Z</time></trkpt><trkpt lat="41.8441995" lon="13.5133039"><ele>412.0</ele><time>2026-05-01T15:20:00.626Z</time></trkpt><trkpt lat="41.8443405" lon="13.5131849"><ele>416.6666666666667</ele><time>2026-05-01T15:20:01.634Z</time></trkpt><trkpt lat="41.8444722" lon="13.5130565"><ele>421.33333333333337</ele><time>2026-05-01T15:20:02.628Z</time></trkpt><trkpt lat="41.8445857" lon="13.5128948"><ele>426.0</ele><time>2026-05-01T15:20:03.63Z</time></trkpt><trkpt lat="41.8446728" lon="13.5126878"><ele>426.0</ele><time>2026-05-01T15:20:04.637Z</time></trkpt><trkpt lat="41.8447404" lon="13.5124589"><ele>426.0</ele><time>2026-05-01T15:20:05.631Z</time></trkpt><trkpt lat="41.8447916" lon="13.5122162"><ele>426.0</ele><time>2026-05-01T15:20:06.637Z</time></trkpt><trkpt lat="41.8448481" lon="13.5119887"><ele>429.33333333333337</ele><time>2026-05-01T15:20:07.64Z</time></trkpt><trkpt lat="41.8449303" lon="13.5117855"><ele>432.6666666666667</ele><time>2026-05-01T15:20:08.634Z</time></trkpt><trkpt lat="41.845036" lon="13.5115892"><ele>436.0</ele><time>2026-05-01T15:20:09.626Z</time></trkpt><trkpt lat="41.8451474" lon="13.5113878"><ele>432.6666666666667</ele><time>2026-05-01T15:20:10.634Z</time></trkpt><trkpt lat="41.8452485" lon="13.5111677"><ele>429.33333333333337</ele><time>2026-05-01T15:20:11.636Z</time></trkpt><trkpt lat="41.8453257" lon="13.5109338"><ele>426.0</ele><time>2026-05-01T15:20:12.637Z</time></trkpt><trkpt lat="41.8453931" lon="13.5107314"><ele>426.0</ele><time>2026-05-01T15:20:13.657Z</time></trkpt><trkpt lat="41.8454701" lon="13.5105577"><ele>426.0</ele><time>2026-05-01T15:20:14.633Z</time></trkpt><trkpt lat="41.8455696" lon="13.5103963"><ele>426.0</ele><time>2026-05-01T15:20:15.635Z</time></trkpt><trkpt lat="41.8456905" lon="13.5102532"><ele>429.66666666666663</ele><time>2026-05-01T15:20:16.635Z</time></trkpt><trkpt lat="41.8458362" lon="13.5101286"><ele>433.3333333333333</ele><time>2026-05-01T15:20:17.641Z</time></trkpt><trkpt lat="41.8459793" lon="13.51004"><ele>437.0</ele><time>2026-05-01T15:20:18.639Z</time></trkpt><trkpt lat="41.8460988" lon="13.5099559"><ele>437.0</ele><time>2026-05-01T15:20:19.637Z</time></trkpt><trkpt lat="41.846198" lon="13.5098377"><ele>437.0</ele><time>2026-05-01T15:20:20.638Z</time></trkpt><trkpt lat="41.8462713" lon="13.5096717"><ele>437.0</ele><time>2026-05-01T15:20:21.639Z</time></trkpt><trkpt lat="41.846322" lon="13.509475"><ele>437.0</ele><time>2026-05-01T15:20:22.637Z</time></trkpt><trkpt lat="41.8463491" lon="13.5092552"><ele>433.0</ele><time>2026-05-01T15:20:23.629Z</time></trkpt><trkpt lat="41.8463536" lon="13.5090296"><ele>429.0</ele><time>2026-05-01T15:20:24.633Z</time></trkpt><trkpt lat="41.8463579" lon="13.5088217"><ele>425.0</ele><time>2026-05-01T15:20:25.635Z</time></trkpt><trkpt lat="41.8463728" lon="13.5086306"><ele>422.75</ele><time>2026-05-01T15:20:26.63Z</time></trkpt><trkpt lat="41.8464045" lon="13.508456"><ele>420.5</ele><time>2026-05-01T15:20:27.632Z</time></trkpt><trkpt lat="41.8464484" lon="13.508284"><ele>418.25</ele><time>2026-05-01T15:20:28.637Z</time></trkpt><trkpt lat="41.846529" lon="13.5081169"><ele>416.0</ele><time>2026-05-01T15:20:29.64Z</time></trkpt><trkpt lat="41.846645" lon="13.5079393"><ele>419.0</ele><time>2026-05-01T15:20:30.644Z</time></trkpt><trkpt lat="41.8467783" lon="13.507767"><ele>422.0</ele><time>2026-05-01T15:20:31.64Z</time></trkpt><trkpt lat="41.8469088" lon="13.5075805"><ele>425.0</ele><time>2026-05-01T15:20:32.639Z</time></trkpt><trkpt lat="41.8470408" lon="13.5073796"><ele>425.0</ele><time>2026-05-01T15:20:33.629Z</time></trkpt><trkpt lat="41.8471729" lon="13.5071699"><ele>425.0</ele><time>2026-05-01T15:20:34.625Z</time></trkpt><trkpt lat="41.8472988" lon="13.5069766"><ele>425.0</ele><time>2026-05-01T15:20:35.633Z</time></trkpt><trkpt lat="41.8474142" lon="13.5067977"><ele>425.5</ele><time>2026-05-01T15:20:36.631Z</time></trkpt><trkpt lat="41.8475112" lon="13.5066302"><ele>426.0</ele><time>2026-05-01T15:20:37.626Z</time></trkpt><trkpt lat="41.8475886" lon="13.5064723"><ele>426.5</ele><time>2026-05-01T15:20:38.643Z</time></trkpt><trkpt lat="41.8476439" lon="13.5063079"><ele>427.0</ele><time>2026-05-01T15:20:39.638Z</time></trkpt><trkpt lat="41.8476814" lon="13.5061327"><ele>427.0</ele><time>2026-05-01T15:20:40.635Z</time></trkpt><trkpt lat="41.847689" lon="13.5059622"><ele>427.0</ele><time>2026-05-01T15:20:41.628Z</time></trkpt><trkpt lat="41.8476637" lon="13.5057871"><ele>427.0</ele><time>2026-05-01T15:20:42.633Z</time></trkpt><trkpt lat="41.8475939" lon="13.5056069"><ele>427.0</ele><time>2026-05-01T15:20:43.631Z</time></trkpt><trkpt lat="41.8474923" lon="13.5054242"><ele>423.33333333333337</ele><time>2026-05-01T15:20:44.634Z</time></trkpt><trkpt lat="41.8473749" lon="13.5052423"><ele>419.66666666666663</ele><time>2026-05-01T15:20:45.645Z</time></trkpt><trkpt lat="41.8472588" lon="13.5050796"><ele>416.0</ele><time>2026-05-01T15:20:46.638Z</time></trkpt><trkpt lat="41.8471403" lon="13.5049289"><ele>416.0</ele><time>2026-05-01T15:20:47.65Z</time></trkpt><trkpt lat="41.8470358" lon="13.504791"><ele>416.0</ele><time>2026-05-01T15:20:48.638Z</time></trkpt><trkpt lat="41.8469445" lon="13.504662"><ele>416.0</ele><time>2026-05-01T15:20:49.633Z</time></trkpt><trkpt lat="41.8468625" lon="13.5045151"><ele>416.0</ele><time>2026-05-01T15:20:50.647Z</time></trkpt><trkpt lat="41.8467896" lon="13.504347"><ele>415.3333333333333</ele><time>2026-05-01T15:20:51.633Z</time></trkpt><trkpt lat="41.84673" lon="13.5041555"><ele>414.66666666666663</ele><time>2026-05-01T15:20:52.642Z</time></trkpt><trkpt lat="41.846681" lon="13.5039561"><ele>414.0</ele><time>2026-05-01T15:20:53.636Z</time></trkpt><trkpt lat="41.8466444" lon="13.5037668"><ele>414.5</ele><time>2026-05-01T15:20:54.634Z</time></trkpt><trkpt lat="41.8466196" lon="13.503595"><ele>415.0</ele><time>2026-05-01T15:20:55.632Z</time></trkpt><trkpt lat="41.8466067" lon="13.5034192"><ele>415.5</ele><time>2026-05-01T15:20:56.631Z</time></trkpt><trkpt lat="41.8466078" lon="13.5032323"><ele>416.0</ele><time>2026-05-01T15:20:57.64Z</time></trkpt><trkpt lat="41.8466349" lon="13.5030293"><ele>415.66666666666663</ele><time>2026-05-01T15:20:58.639Z</time></trkpt><trkpt lat="41.8466789" lon="13.5028178"><ele>415.33333333333337</ele><time>2026-05-01T15:20:59.653Z</time></trkpt><trkpt lat="41.8467401" lon="13.5025952"><ele>415.0</ele><time>2026-05-01T15:21:00.632Z</time></trkpt><trkpt lat="41.8468138" lon="13.5023761"><ele>416.0</ele><time>2026-05-01T15:21:01.638Z</time></trkpt><trkpt lat="41.8468903" lon="13.502178"><ele>417.0</ele><time>2026-05-01T15:21:02.642Z</time></trkpt><trkpt lat="41.846974" lon="13.502014"><ele>418.0</ele><time>2026-05-01T15:21:03.637Z</time></trkpt><trkpt lat="41.8470745" lon="13.5018718"><ele>418.0</ele><time>2026-05-01T15:21:04.635Z</time></trkpt><trkpt lat="41.8471925" lon="13.5017452"><ele>418.0</ele><time>2026-05-01T15:21:05.63Z</time></trkpt><trkpt lat="41.847313" lon="13.5016268"><ele>418.0</ele><time>2026-05-01T15:21:06.64Z</time></trkpt><trkpt lat="41.84745" lon="13.5015327"><ele>418.0</ele><time>2026-05-01T15:21:07.657Z</time></trkpt><trkpt lat="41.8476124" lon="13.5014644"><ele>418.0</ele><time>2026-05-01T15:21:08.638Z</time></trkpt><trkpt lat="41.8477691" lon="13.5013932"><ele>418.0</ele><time>2026-05-01T15:21:09.644Z</time></trkpt><trkpt lat="41.8479081" lon="13.5013102"><ele>418.33333333333337</ele><time>2026-05-01T15:21:10.644Z</time></trkpt><trkpt lat="41.8480413" lon="13.5011738"><ele>418.66666666666663</ele><time>2026-05-01T15:21:11.636Z</time></trkpt><trkpt lat="41.8481774" lon="13.5009851"><ele>419.0</ele><time>2026-05-01T15:21:12.633Z</time></trkpt><trkpt lat="41.8483208" lon="13.5007386"><ele>421.66666666666663</ele><time>2026-05-01T15:21:13.637Z</time></trkpt><trkpt lat="41.8484608" lon="13.500492"><ele>424.33333333333337</ele><time>2026-05-01T15:21:14.637Z</time></trkpt><trkpt lat="41.8485937" lon="13.5002734"><ele>427.0</ele><time>2026-05-01T15:21:15.654Z</time></trkpt><trkpt lat="41.8487201" lon="13.5000676"><ele>427.0</ele><time>2026-05-01T15:21:16.637Z</time></trkpt><trkpt lat="41.8488386" lon="13.4998704"><ele>427.0</ele><time>2026-05-01T15:21:17.635Z</time></trkpt><trkpt lat="41.8489468" lon="13.4996714"><ele>427.0</ele><time>2026-05-01T15:21:18.647Z</time></trkpt><trkpt lat="41.8490409" lon="13.4994566"><ele>423.33333333333337</ele><time>2026-05-01T15:21:19.641Z</time></trkpt><trkpt lat="41.8491297" lon="13.4992341"><ele>419.66666666666663</ele><time>2026-05-01T15:21:20.634Z</time></trkpt><trkpt lat="41.8492128" lon="13.4990197"><ele>416.0</ele><time>2026-05-01T15:21:21.645Z</time></trkpt><trkpt lat="41.8492902" lon="13.498823"><ele>418.66666666666663</ele><time>2026-05-01T15:21:22.626Z</time></trkpt><trkpt lat="41.8493755" lon="13.4986401"><ele>421.33333333333337</ele><time>2026-05-01T15:21:23.637Z</time></trkpt><trkpt lat="41.8494758" lon="13.4984666"><ele>424.0</ele><time>2026-05-01T15:21:24.637Z</time></trkpt><trkpt lat="41.8495699" lon="13.4983032"><ele>424.0</ele><time>2026-05-01T15:21:25.629Z</time></trkpt><trkpt lat="41.8496609" lon="13.4981362"><ele>424.0</ele><time>2026-05-01T15:21:26.63Z</time></trkpt><trkpt lat="41.84974" lon="13.4979423"><ele>424.0</ele><time>2026-05-01T15:21:27.636Z</time></trkpt><trkpt lat="41.8498035" lon="13.4977396"><ele>422.0</ele><time>2026-05-01T15:21:28.633Z</time></trkpt><trkpt lat="41.8498479" lon="13.497553"><ele>420.0</ele><time>2026-05-01T15:21:29.627Z</time></trkpt><trkpt lat="41.8498836" lon="13.4973713"><ele>418.0</ele><time>2026-05-01T15:21:30.636Z</time></trkpt><trkpt lat="41.8499184" lon="13.4971934"><ele>416.0</ele><time>2026-05-01T15:21:31.635Z</time></trkpt><trkpt lat="41.8499467" lon="13.4970359"><ele>415.5</ele><time>2026-05-01T15:21:32.639Z</time></trkpt><trkpt lat="41.8499705" lon="13.4968821"><ele>415.0</ele><time>2026-05-01T15:21:33.628Z</time></trkpt><trkpt lat="41.8499978" lon="13.4967248"><ele>414.5</ele><time>2026-05-01T15:21:34.639Z</time></trkpt><trkpt lat="41.8500258" lon="13.4965507"><ele>414.0</ele><time>2026-05-01T15:21:35.635Z</time></trkpt><trkpt lat="41.850059" lon="13.4963583"><ele>413.0</ele><time>2026-05-01T15:21:36.633Z</time></trkpt><trkpt lat="41.8500929" lon="13.496159"><ele>412.0</ele><time>2026-05-01T15:21:37.636Z</time></trkpt><trkpt lat="41.8501222" lon="13.4959534"><ele>411.0</ele><time>2026-05-01T15:21:38.637Z</time></trkpt><trkpt lat="41.8501585" lon="13.4957363"><ele>414.0</ele><time>2026-05-01T15:21:39.639Z</time></trkpt><trkpt lat="41.8501939" lon="13.4955198"><ele>417.0</ele><time>2026-05-01T15:21:40.644Z</time></trkpt><trkpt lat="41.8502255" lon="13.4952933"><ele>420.0</ele><time>2026-05-01T15:21:41.639Z</time></trkpt><trkpt lat="41.850246" lon="13.495055"><ele>420.0</ele><time>2026-05-01T15:21:42.642Z</time></trkpt><trkpt lat="41.8502425" lon="13.494821"><ele>420.0</ele><time>2026-05-01T15:21:43.629Z</time></trkpt><trkpt lat="41.8502253" lon="13.4945887"><ele>420.0</ele><time>2026-05-01T15:21:44.638Z</time></trkpt><trkpt lat="41.8502083" lon="13.4943674"><ele>420.66666666666663</ele><time>2026-05-01T15:21:45.638Z</time></trkpt><trkpt lat="41.850201" lon="13.4941517"><ele>421.3333333333333</ele><time>2026-05-01T15:21:46.65Z</time></trkpt><trkpt lat="41.8502196" lon="13.4939352"><ele>422.0</ele><time>2026-05-01T15:21:47.633Z</time></trkpt><trkpt lat="41.8502662" lon="13.4937058"><ele>420.66666666666663</ele><time>2026-05-01T15:21:48.65Z</time></trkpt><trkpt lat="41.8503452" lon="13.4934839"><ele>419.33333333333337</ele><time>2026-05-01T15:21:49.627Z</time></trkpt><trkpt lat="41.8504604" lon="13.4932731"><ele>418.0</ele><time>2026-05-01T15:21:50.635Z</time></trkpt><trkpt lat="41.850563" lon="13.4930826"><ele>417.25</ele><time>2026-05-01T15:21:51.632Z</time></trkpt><trkpt lat="41.8506609" lon="13.4929117"><ele>416.5</ele><time>2026-05-01T15:21:52.621Z</time></trkpt><trkpt lat="41.8507487" lon="13.4927628"><ele>415.75</ele><time>2026-05-01T15:21:53.619Z</time></trkpt><trkpt lat="41.8508133" lon="13.4926225"><ele>415.0</ele><time>2026-05-01T15:21:54.619Z</time></trkpt><trkpt lat="41.8508642" lon="13.4924568"><ele>415.0</ele><time>2026-05-01T15:21:55.618Z</time></trkpt><trkpt lat="41.850906" lon="13.4923137"><ele>415.0</ele><time>2026-05-01T15:21:56.636Z</time></trkpt><trkpt lat="41.8509631" lon="13.4921328"><ele>415.0</ele><time>2026-05-01T15:21:57.616Z</time></trkpt><trkpt lat="41.8510225" lon="13.4919229"><ele>415.0</ele><time>2026-05-01T15:21:58.615Z</time></trkpt><trkpt lat="41.851082" lon="13.4916773"><ele>418.33333333333337</ele><time>2026-05-01T15:21:59.64Z</time></trkpt><trkpt lat="41.8511217" lon="13.4914107"><ele>421.66666666666663</ele><time>2026-05-01T15:22:00.623Z</time></trkpt><trkpt lat="41.851149" lon="13.4911512"><ele>425.0</ele><time>2026-05-01T15:22:01.627Z</time></trkpt><trkpt lat="41.851168" lon="13.4909279"><ele>425.0</ele><time>2026-05-01T15:22:02.625Z</time></trkpt><trkpt lat="41.8512079" lon="13.4907098"><ele>425.0</ele><time>2026-05-01T15:22:03.639Z</time></trkpt><trkpt lat="41.8512487" lon="13.4905137"><ele>425.0</ele><time>2026-05-01T15:22:04.634Z</time></trkpt><trkpt lat="41.8512934" lon="13.4903385"><ele>424.0</ele><time>2026-05-01T15:22:05.628Z</time></trkpt><trkpt lat="41.8513505" lon="13.4901878"><ele>423.0</ele><time>2026-05-01T15:22:06.641Z</time></trkpt><trkpt lat="41.8514407" lon="13.4900443"><ele>422.0</ele><time>2026-05-01T15:22:07.617Z</time></trkpt><trkpt lat="41.8515571" lon="13.4899044"><ele>421.0</ele><time>2026-05-01T15:22:08.643Z</time></trkpt><trkpt lat="41.8516958" lon="13.4897819"><ele>422.33333333333337</ele><time>2026-05-01T15:22:09.638Z</time></trkpt><trkpt lat="41.8518346" lon="13.4896516"><ele>423.66666666666663</ele><time>2026-05-01T15:22:10.641Z</time></trkpt><trkpt lat="41.8519734" lon="13.4895012"><ele>425.0</ele><time>2026-05-01T15:22:11.632Z</time></trkpt><trkpt lat="41.8521007" lon="13.4893298"><ele>425.0</ele><time>2026-05-01T15:22:12.631Z</time></trkpt><trkpt lat="41.8522211" lon="13.4891667"><ele>425.0</ele><time>2026-05-01T15:22:13.631Z</time></trkpt><trkpt lat="41.8523489" lon="13.4890262"><ele>425.0</ele><time>2026-05-01T15:22:14.634Z</time></trkpt><trkpt lat="41.8525005" lon="13.488895"><ele>426.0</ele><time>2026-05-01T15:22:15.644Z</time></trkpt><trkpt lat="41.8526623" lon="13.4887697"><ele>427.0</ele><time>2026-05-01T15:22:16.635Z</time></trkpt><trkpt lat="41.8528259" lon="13.4886492"><ele>428.0</ele><time>2026-05-01T15:22:17.634Z</time></trkpt><trkpt lat="41.8529823" lon="13.4885353"><ele>428.0</ele><time>2026-05-01T15:22:18.626Z</time></trkpt><trkpt lat="41.8531358" lon="13.4884303"><ele>428.0</ele><time>2026-05-01T15:22:19.636Z</time></trkpt><trkpt lat="41.8532698" lon="13.4883239"><ele>428.0</ele><time>2026-05-01T15:22:20.629Z</time></trkpt><trkpt lat="41.8534016" lon="13.4882308"><ele>425.0</ele><time>2026-05-01T15:22:21.64Z</time></trkpt><trkpt lat="41.8535318" lon="13.4881305"><ele>422.0</ele><time>2026-05-01T15:22:22.626Z</time></trkpt><trkpt lat="41.853683" lon="13.4880282"><ele>419.0</ele><time>2026-05-01T15:22:23.641Z</time></trkpt><trkpt lat="41.8538402" lon="13.4879211"><ele>419.0</ele><time>2026-05-01T15:22:24.636Z</time></trkpt><trkpt lat="41.8539888" lon="13.4878272"><ele>419.0</ele><time>2026-05-01T15:22:25.636Z</time></trkpt><trkpt lat="41.8541321" lon="13.4877449"><ele>419.0</ele><time>2026-05-01T15:22:26.619Z</time></trkpt><trkpt lat="41.8542847" lon="13.4876919"><ele>420.3333333333333</ele><time>2026-05-01T15:22:27.632Z</time></trkpt><trkpt lat="41.8544634" lon="13.4876762"><ele>421.66666666666663</ele><time>2026-05-01T15:22:28.633Z</time></trkpt><trkpt lat="41.8546622" lon="13.4876705"><ele>423.0</ele><time>2026-05-01T15:22:29.635Z</time></trkpt><trkpt lat="41.8548623" lon="13.4876584"><ele>423.0</ele><time>2026-05-01T15:22:30.637Z</time></trkpt><trkpt lat="41.8550484" lon="13.4876353"><ele>423.0</ele><time>2026-05-01T15:22:31.635Z</time></trkpt><trkpt lat="41.8552239" lon="13.4876084"><ele>423.0</ele><time>2026-05-01T15:22:32.633Z</time></trkpt><trkpt lat="41.8553849" lon="13.4875825"><ele>426.0</ele><time>2026-05-01T15:22:33.634Z</time></trkpt><trkpt lat="41.8555317" lon="13.4875507"><ele>429.0</ele><time>2026-05-01T15:22:34.632Z</time></trkpt><trkpt lat="41.8556478" lon="13.4875011"><ele>432.0</ele><time>2026-05-01T15:22:35.639Z</time></trkpt><trkpt lat="41.8557455" lon="13.4874247"><ele>435.0</ele><time>2026-05-01T15:22:36.633Z</time></trkpt><trkpt lat="41.8558351" lon="13.4873153"><ele>435.0</ele><time>2026-05-01T15:22:37.627Z</time></trkpt><trkpt lat="41.8559249" lon="13.4871954"><ele>435.0</ele><time>2026-05-01T15:22:38.629Z</time></trkpt><trkpt lat="41.8560098" lon="13.4870611"><ele>435.0</ele><time>2026-05-01T15:22:39.626Z</time></trkpt><trkpt lat="41.8560836" lon="13.4869126"><ele>435.0</ele><time>2026-05-01T15:22:40.634Z</time></trkpt><trkpt lat="41.8561542" lon="13.4867435"><ele>439.33333333333337</ele><time>2026-05-01T15:22:41.633Z</time></trkpt><trkpt lat="41.8562104" lon="13.4865572"><ele>443.6666666666667</ele><time>2026-05-01T15:22:42.649Z</time></trkpt><trkpt lat="41.8562524" lon="13.4863631"><ele>448.0</ele><time>2026-05-01T15:22:43.623Z</time></trkpt><trkpt lat="41.8562787" lon="13.4861582"><ele>448.0</ele><time>2026-05-01T15:22:44.63Z</time></trkpt><trkpt lat="41.8562992" lon="13.485943"><ele>448.0</ele><time>2026-05-01T15:22:45.634Z</time></trkpt><trkpt lat="41.8563145" lon="13.4857314"><ele>448.0</ele><time>2026-05-01T15:22:46.637Z</time></trkpt><trkpt lat="41.8563281" lon="13.4855104"><ele>447.33333333333337</ele><time>2026-05-01T15:22:47.65Z</time></trkpt><trkpt lat="41.8563459" lon="13.4852905"><ele>446.66666666666663</ele><time>2026-05-01T15:22:48.63Z</time></trkpt><trkpt lat="41.8563683" lon="13.4850626"><ele>446.0</ele><time>2026-05-01T15:22:49.654Z</time></trkpt><trkpt lat="41.8563878" lon="13.484851"><ele>446.0</ele><time>2026-05-01T15:22:50.627Z</time></trkpt><trkpt lat="41.8564042" lon="13.4846384"><ele>446.0</ele><time>2026-05-01T15:22:51.632Z</time></trkpt><trkpt lat="41.8564191" lon="13.4844334"><ele>446.0</ele><time>2026-05-01T15:22:52.623Z</time></trkpt><trkpt lat="41.8564396" lon="13.4842367"><ele>443.5</ele><time>2026-05-01T15:22:53.616Z</time></trkpt><trkpt lat="41.8564734" lon="13.4840442"><ele>441.0</ele><time>2026-05-01T15:22:54.637Z</time></trkpt><trkpt lat="41.85652" lon="13.4838594"><ele>438.5</ele><time>2026-05-01T15:22:55.631Z</time></trkpt><trkpt lat="41.8565884" lon="13.4836965"><ele>436.0</ele><time>2026-05-01T15:22:56.629Z</time></trkpt><trkpt lat="41.8566655" lon="13.483536"><ele>435.75</ele><time>2026-05-01T15:22:57.632Z</time></trkpt><trkpt lat="41.8567509" lon="13.4834001"><ele>435.5</ele><time>2026-05-01T15:22:58.63Z</time></trkpt><trkpt lat="41.8568371" lon="13.4832791"><ele>435.25</ele><time>2026-05-01T15:22:59.628Z</time></trkpt><trkpt lat="41.8569122" lon="13.483174"><ele>435.0</ele><time>2026-05-01T15:23:00.626Z</time></trkpt><trkpt lat="41.8569706" lon="13.4830568"><ele>436.25</ele><time>2026-05-01T15:23:01.63Z</time></trkpt><trkpt lat="41.8570024" lon="13.4829153"><ele>437.5</ele><time>2026-05-01T15:23:02.627Z</time></trkpt><trkpt lat="41.8570001" lon="13.4827504"><ele>438.75</ele><time>2026-05-01T15:23:03.636Z</time></trkpt><trkpt lat="41.8569615" lon="13.4825819"><ele>440.0</ele><time>2026-05-01T15:23:04.629Z</time></trkpt><trkpt lat="41.8568985" lon="13.4824164"><ele>440.0</ele><time>2026-05-01T15:23:05.637Z</time></trkpt><trkpt lat="41.8568286" lon="13.4822533"><ele>440.0</ele><time>2026-05-01T15:23:06.634Z</time></trkpt><trkpt lat="41.8567739" lon="13.4821142"><ele>440.0</ele><time>2026-05-01T15:23:07.638Z</time></trkpt><trkpt lat="41.856738" lon="13.4819687"><ele>440.0</ele><time>2026-05-01T15:23:08.635Z</time></trkpt><trkpt lat="41.8567208" lon="13.4818071"><ele>438.0</ele><time>2026-05-01T15:23:09.651Z</time></trkpt><trkpt lat="41.8567176" lon="13.481648"><ele>436.0</ele><time>2026-05-01T15:23:10.631Z</time></trkpt><trkpt lat="41.8567354" lon="13.4814946"><ele>434.0</ele><time>2026-05-01T15:23:11.637Z</time></trkpt><trkpt lat="41.8567777" lon="13.4813341"><ele>432.0</ele><time>2026-05-01T15:23:12.638Z</time></trkpt><trkpt lat="41.8568478" lon="13.4811825"><ele>432.0</ele><time>2026-05-01T15:23:13.637Z</time></trkpt><trkpt lat="41.8569415" lon="13.4810557"><ele>432.0</ele><time>2026-05-01T15:23:14.646Z</time></trkpt><trkpt lat="41.8570541" lon="13.4809527"><ele>432.0</ele><time>2026-05-01T15:23:15.629Z</time></trkpt><trkpt lat="41.8571747" lon="13.4808797"><ele>432.0</ele><time>2026-05-01T15:23:16.63Z</time></trkpt><trkpt lat="41.8572887" lon="13.4808161"><ele>432.0</ele><time>2026-05-01T15:23:17.633Z</time></trkpt><trkpt lat="41.8573935" lon="13.4807413"><ele>432.00000000000006</ele><time>2026-05-01T15:23:18.631Z</time></trkpt><trkpt lat="41.8574881" lon="13.4806577"><ele>432.00000000000006</ele><time>2026-05-01T15:23:19.626Z</time></trkpt><trkpt lat="41.857572" lon="13.4805625"><ele>432.0</ele><time>2026-05-01T15:23:20.633Z</time></trkpt><trkpt lat="41.8576491" lon="13.4804637"><ele>432.0</ele><time>2026-05-01T15:23:21.633Z</time></trkpt><trkpt lat="41.8577229" lon="13.4803558"><ele>439.0</ele><time>2026-05-01T15:23:22.631Z</time></trkpt><trkpt lat="41.8577899" lon="13.4802244"><ele>446.0</ele><time>2026-05-01T15:23:23.629Z</time></trkpt><trkpt lat="41.857846" lon="13.4800755"><ele>453.0</ele><time>2026-05-01T15:23:24.628Z</time></trkpt><trkpt lat="41.8579014" lon="13.4799206"><ele>460.0</ele><time>2026-05-01T15:23:25.631Z</time></trkpt><trkpt lat="41.8579555" lon="13.4797648"><ele>460.0</ele><time>2026-05-01T15:23:26.627Z</time></trkpt><trkpt lat="41.8580076" lon="13.4796091"><ele>460.0</ele><time>2026-05-01T15:23:27.639Z</time></trkpt><trkpt lat="41.8580569" lon="13.4794498"><ele>460.0</ele><time>2026-05-01T15:23:28.63Z</time></trkpt><trkpt lat="41.8581065" lon="13.4792908"><ele>460.0</ele><time>2026-05-01T15:23:29.641Z</time></trkpt><trkpt lat="41.858156" lon="13.4791355"><ele>456.0</ele><time>2026-05-01T15:23:30.628Z</time></trkpt><trkpt lat="41.8582032" lon="13.4789854"><ele>452.0</ele><time>2026-05-01T15:23:31.625Z</time></trkpt><trkpt lat="41.8582507" lon="13.4788366"><ele>448.0</ele><time>2026-05-01T15:23:32.628Z</time></trkpt><trkpt lat="41.8583151" lon="13.4786945"><ele>444.0</ele><time>2026-05-01T15:23:33.63Z</time></trkpt><trkpt lat="41.8584015" lon="13.478544"><ele>447.33333333333337</ele><time>2026-05-01T15:23:34.639Z</time></trkpt><trkpt lat="41.858514" lon="13.4783888"><ele>450.6666666666667</ele><time>2026-05-01T15:23:35.629Z</time></trkpt><trkpt lat="41.8586365" lon="13.4782527"><ele>454.0</ele><time>2026-05-01T15:23:36.627Z</time></trkpt><trkpt lat="41.8587542" lon="13.4781432"><ele>454.0</ele><time>2026-05-01T15:23:37.634Z</time></trkpt><trkpt lat="41.8588506" lon="13.4780228"><ele>454.0</ele><time>2026-05-01T15:23:38.629Z</time></trkpt><trkpt lat="41.8589194" lon="13.4778619"><ele>454.0</ele><time>2026-05-01T15:23:39.631Z</time></trkpt><trkpt lat="41.8589677" lon="13.4776741"><ele>454.0</ele><time>2026-05-01T15:23:40.63Z</time></trkpt><trkpt lat="41.8589987" lon="13.4775122"><ele>454.75</ele><time>2026-05-01T15:23:41.651Z</time></trkpt><trkpt lat="41.8590705" lon="13.4773878"><ele>455.5</ele><time>2026-05-01T15:23:42.638Z</time></trkpt><trkpt lat="41.8591755" lon="13.4772847"><ele>456.25</ele><time>2026-05-01T15:23:43.628Z</time></trkpt><trkpt lat="41.8593095" lon="13.4772097"><ele>457.0</ele><time>2026-05-01T15:23:44.635Z</time></trkpt><trkpt lat="41.8594589" lon="13.4771275"><ele>449.33333333333337</ele><time>2026-05-01T15:23:45.629Z</time></trkpt><trkpt lat="41.8596093" lon="13.4770215"><ele>441.66666666666663</ele><time>2026-05-01T15:23:46.635Z</time></trkpt><trkpt lat="41.8597564" lon="13.4768822"><ele>434.0</ele><time>2026-05-01T15:23:47.626Z</time></trkpt><trkpt lat="41.8598979" lon="13.4767087"><ele>434.0</ele><time>2026-05-01T15:23:48.638Z</time></trkpt><trkpt lat="41.860034" lon="13.4765247"><ele>434.0</ele><time>2026-05-01T15:23:49.628Z</time></trkpt><trkpt lat="41.8601653" lon="13.4763522"><ele>434.0</ele><time>2026-05-01T15:23:50.637Z</time></trkpt><trkpt lat="41.8602904" lon="13.4761992"><ele>438.75</ele><time>2026-05-01T15:23:51.631Z</time></trkpt><trkpt lat="41.8604039" lon="13.4760656"><ele>443.5</ele><time>2026-05-01T15:23:52.631Z</time></trkpt><trkpt lat="41.8605063" lon="13.4759483"><ele>448.25</ele><time>2026-05-01T15:23:53.629Z</time></trkpt><trkpt lat="41.8605903" lon="13.4758455"><ele>453.0</ele><time>2026-05-01T15:23:54.63Z</time></trkpt><trkpt lat="41.8606409" lon="13.4757436"><ele>453.0</ele><time>2026-05-01T15:23:55.627Z</time></trkpt><trkpt lat="41.8606503" lon="13.4756134"><ele>453.0</ele><time>2026-05-01T15:23:56.63Z</time></trkpt><trkpt lat="41.860624" lon="13.475468"><ele>453.0</ele><time>2026-05-01T15:23:57.633Z</time></trkpt><trkpt lat="41.8605782" lon="13.4753137"><ele>453.0</ele><time>2026-05-01T15:23:58.634Z</time></trkpt><trkpt lat="41.8605327" lon="13.4751401"><ele>453.5</ele><time>2026-05-01T15:23:59.644Z</time></trkpt><trkpt lat="41.8605127" lon="13.4749574"><ele>454.0</ele><time>2026-05-01T15:24:00.625Z</time></trkpt><trkpt lat="41.8605053" lon="13.4747537"><ele>454.5</ele><time>2026-05-01T15:24:01.632Z</time></trkpt><trkpt lat="41.8605041" lon="13.4745402"><ele>455.0</ele><time>2026-05-01T15:24:02.635Z</time></trkpt><trkpt lat="41.860515" lon="13.4743347"><ele>455.0</ele><time>2026-05-01T15:24:03.634Z</time></trkpt><trkpt lat="41.8605379" lon="13.4741281"><ele>455.0</ele><time>2026-05-01T15:24:04.631Z</time></trkpt><trkpt lat="41.8605613" lon="13.4739368"><ele>455.0</ele><time>2026-05-01T15:24:05.63Z</time></trkpt><trkpt lat="41.8605826" lon="13.4737461"><ele>455.0</ele><time>2026-05-01T15:24:06.644Z</time></trkpt><trkpt lat="41.8605966" lon="13.4735669"><ele>453.25</ele><time>2026-05-01T15:24:07.622Z</time></trkpt><trkpt lat="41.8606115" lon="13.4733963"><ele>451.5</ele><time>2026-05-01T15:24:08.641Z</time></trkpt><trkpt lat="41.8606243" lon="13.4732221"><ele>449.75</ele><time>2026-05-01T15:24:09.631Z</time></trkpt><trkpt lat="41.8606259" lon="13.4730372"><ele>448.0</ele><time>2026-05-01T15:24:10.635Z</time></trkpt><trkpt lat="41.8606118" lon="13.472845"><ele>447.75</ele><time>2026-05-01T15:24:11.641Z</time></trkpt><trkpt lat="41.8605876" lon="13.4726631"><ele>447.5</ele><time>2026-05-01T15:24:12.63Z</time></trkpt><trkpt lat="41.8605647" lon="13.4725002"><ele>447.25</ele><time>2026-05-01T15:24:13.649Z</time></trkpt><trkpt lat="41.8605526" lon="13.4723531"><ele>447.0</ele><time>2026-05-01T15:24:14.627Z</time></trkpt><trkpt lat="41.8605707" lon="13.4722094"><ele>444.0</ele><time>2026-05-01T15:24:15.633Z</time></trkpt><trkpt lat="41.8606082" lon="13.4720601"><ele>441.0</ele><time>2026-05-01T15:24:16.636Z</time></trkpt><trkpt lat="41.8606686" lon="13.4719168"><ele>438.0</ele><time>2026-05-01T15:24:17.632Z</time></trkpt><trkpt lat="41.860752" lon="13.4718001"><ele>435.0</ele><time>2026-05-01T15:24:18.639Z</time></trkpt><trkpt lat="41.8608566" lon="13.4717099"><ele>437.0</ele><time>2026-05-01T15:24:19.626Z</time></trkpt><trkpt lat="41.8609823" lon="13.4716384"><ele>439.0</ele><time>2026-05-01T15:24:20.634Z</time></trkpt><trkpt lat="41.8611227" lon="13.4715946"><ele>441.0</ele><time>2026-05-01T15:24:21.637Z</time></trkpt><trkpt lat="41.8612766" lon="13.4715509"><ele>443.0</ele><time>2026-05-01T15:24:22.627Z</time></trkpt><trkpt lat="41.8614344" lon="13.4715194"><ele>443.0</ele><time>2026-05-01T15:24:23.639Z</time></trkpt><trkpt lat="41.8615998" lon="13.4715145"><ele>443.0</ele><time>2026-05-01T15:24:24.63Z</time></trkpt><trkpt lat="41.8617719" lon="13.4715321"><ele>443.0</ele><time>2026-05-01T15:24:25.625Z</time></trkpt><trkpt lat="41.8619411" lon="13.4715805"><ele>442.66666666666663</ele><time>2026-05-01T15:24:26.625Z</time></trkpt><trkpt lat="41.8620991" lon="13.4716398"><ele>442.33333333333337</ele><time>2026-05-01T15:24:27.632Z</time></trkpt><trkpt lat="41.8622506" lon="13.4716697"><ele>442.0</ele><time>2026-05-01T15:24:28.629Z</time></trkpt><trkpt lat="41.8624005" lon="13.471675"><ele>442.0</ele><time>2026-05-01T15:24:29.626Z</time></trkpt><trkpt lat="41.8625386" lon="13.4716564"><ele>442.0</ele><time>2026-05-01T15:24:30.628Z</time></trkpt><trkpt lat="41.8626575" lon="13.4716182"><ele>442.0</ele><time>2026-05-01T15:24:31.622Z</time></trkpt><trkpt lat="41.8627779" lon="13.4715469"><ele>442.0</ele><time>2026-05-01T15:24:32.636Z</time></trkpt><trkpt lat="41.8628934" lon="13.4714353"><ele>442.6666666666667</ele><time>2026-05-01T15:24:33.63Z</time></trkpt><trkpt lat="41.8629954" lon="13.4712815"><ele>443.33333333333337</ele><time>2026-05-01T15:24:34.62Z</time></trkpt><trkpt lat="41.863076" lon="13.4711105"><ele>444.0</ele><time>2026-05-01T15:24:35.623Z</time></trkpt><trkpt lat="41.863143" lon="13.4709021"><ele>444.0</ele><time>2026-05-01T15:24:36.628Z</time></trkpt><trkpt lat="41.8632074" lon="13.4706613"><ele>444.0</ele><time>2026-05-01T15:24:37.625Z</time></trkpt><trkpt lat="41.8632671" lon="13.4704014"><ele>444.0</ele><time>2026-05-01T15:24:38.637Z</time></trkpt><trkpt lat="41.8633335" lon="13.4701285"><ele>442.66666666666663</ele><time>2026-05-01T15:24:39.629Z</time></trkpt><trkpt lat="41.8633978" lon="13.4698577"><ele>441.3333333333333</ele><time>2026-05-01T15:24:40.629Z</time></trkpt><trkpt lat="41.8634578" lon="13.4695996"><ele>440.0</ele><time>2026-05-01T15:24:41.63Z</time></trkpt><trkpt lat="41.8635087" lon="13.4693633"><ele>444.66666666666663</ele><time>2026-05-01T15:24:42.63Z</time></trkpt><trkpt lat="41.8635571" lon="13.4691364"><ele>449.33333333333337</ele><time>2026-05-01T15:24:43.636Z</time></trkpt><trkpt lat="41.8636039" lon="13.4689044"><ele>454.0</ele><time>2026-05-01T15:24:44.625Z</time></trkpt><trkpt lat="41.8636505" lon="13.4686617"><ele>454.0</ele><time>2026-05-01T15:24:45.622Z</time></trkpt><trkpt lat="41.8637041" lon="13.4684127"><ele>454.0</ele><time>2026-05-01T15:24:46.629Z</time></trkpt><trkpt lat="41.8637721" lon="13.4681705"><ele>454.0</ele><time>2026-05-01T15:24:47.629Z</time></trkpt><trkpt lat="41.8638664" lon="13.4679258"><ele>450.6666666666667</ele><time>2026-05-01T15:24:48.628Z</time></trkpt><trkpt lat="41.8639716" lon="13.4676837"><ele>447.33333333333337</ele><time>2026-05-01T15:24:49.638Z</time></trkpt><trkpt lat="41.8640816" lon="13.4674445"><ele>444.0</ele><time>2026-05-01T15:24:50.637Z</time></trkpt><trkpt lat="41.8642002" lon="13.4672151"><ele>449.33333333333337</ele><time>2026-05-01T15:24:51.631Z</time></trkpt><trkpt lat="41.8643203" lon="13.4670052"><ele>454.6666666666667</ele><time>2026-05-01T15:24:52.641Z</time></trkpt><trkpt lat="41.8644337" lon="13.4668033"><ele>460.0</ele><time>2026-05-01T15:24:53.624Z</time></trkpt><trkpt lat="41.8645335" lon="13.4665987"><ele>460.0</ele><time>2026-05-01T15:24:54.627Z</time></trkpt><trkpt lat="41.8646201" lon="13.4663569"><ele>460.0</ele><time>2026-05-01T15:24:55.638Z</time></trkpt><trkpt lat="41.8646859" lon="13.4660915"><ele>460.0</ele><time>2026-05-01T15:24:56.631Z</time></trkpt><trkpt lat="41.8647313" lon="13.4658225"><ele>457.0</ele><time>2026-05-01T15:24:57.652Z</time></trkpt><trkpt lat="41.8647547" lon="13.4655699"><ele>454.0</ele><time>2026-05-01T15:24:58.637Z</time></trkpt><trkpt lat="41.8647457" lon="13.4653346"><ele>451.0</ele><time>2026-05-01T15:24:59.632Z</time></trkpt><trkpt lat="41.8647391" lon="13.4651116"><ele>450.0</ele><time>2026-05-01T15:25:00.655Z</time></trkpt><trkpt lat="41.8647368" lon="13.4649022"><ele>449.0</ele><time>2026-05-01T15:25:01.636Z</time></trkpt><trkpt lat="41.8647652" lon="13.4647074"><ele>448.0</ele><time>2026-05-01T15:25:02.641Z</time></trkpt><trkpt lat="41.8648224" lon="13.4645023"><ele>446.0</ele><time>2026-05-01T15:25:03.635Z</time></trkpt><trkpt lat="41.8648952" lon="13.464306"><ele>444.0</ele><time>2026-05-01T15:25:04.64Z</time></trkpt><trkpt lat="41.864958" lon="13.4641226"><ele>442.0</ele><time>2026-05-01T15:25:05.636Z</time></trkpt><trkpt lat="41.865007" lon="13.4639555"><ele>440.0</ele><time>2026-05-01T15:25:06.635Z</time></trkpt><trkpt lat="41.8650604" lon="13.4638133"><ele>441.25</ele><time>2026-05-01T15:25:07.629Z</time></trkpt><trkpt lat="41.8651307" lon="13.4636957"><ele>442.5</ele><time>2026-05-01T15:25:08.63Z</time></trkpt><trkpt lat="41.8652421" lon="13.4635832"><ele>443.75</ele><time>2026-05-01T15:25:09.636Z</time></trkpt><trkpt lat="41.8653913" lon="13.463485"><ele>445.0</ele><time>2026-05-01T15:25:10.629Z</time></trkpt><trkpt lat="41.86556" lon="13.4633989"><ele>445.0</ele><time>2026-05-01T15:25:11.653Z</time></trkpt><trkpt lat="41.8657409" lon="13.4633026"><ele>445.0</ele><time>2026-05-01T15:25:12.628Z</time></trkpt><trkpt lat="41.8659224" lon="13.4631848"><ele>445.0</ele><time>2026-05-01T15:25:13.625Z</time></trkpt><trkpt lat="41.866105" lon="13.4630518"><ele>444.33333333333337</ele><time>2026-05-01T15:25:14.639Z</time></trkpt><trkpt lat="41.8662788" lon="13.4629206"><ele>443.66666666666663</ele><time>2026-05-01T15:25:15.639Z</time></trkpt><trkpt lat="41.8664438" lon="13.4628099"><ele>443.0</ele><time>2026-05-01T15:25:16.636Z</time></trkpt><trkpt lat="41.8666157" lon="13.4627051"><ele>447.66666666666663</ele><time>2026-05-01T15:25:17.625Z</time></trkpt><trkpt lat="41.8668099" lon="13.4626161"><ele>452.33333333333337</ele><time>2026-05-01T15:25:18.635Z</time></trkpt><trkpt lat="41.8670146" lon="13.4625339"><ele>457.0</ele><time>2026-05-01T15:25:19.63Z</time></trkpt><trkpt lat="41.8672214" lon="13.4624467"><ele>457.0</ele><time>2026-05-01T15:25:20.625Z</time></trkpt><trkpt lat="41.8674229" lon="13.46235"><ele>457.0</ele><time>2026-05-01T15:25:21.625Z</time></trkpt><trkpt lat="41.8676124" lon="13.4622537"><ele>457.0</ele><time>2026-05-01T15:25:22.63Z</time></trkpt><trkpt lat="41.8677923" lon="13.462158"><ele>451.33333333333337</ele><time>2026-05-01T15:25:23.646Z</time></trkpt><trkpt lat="41.8679605" lon="13.4620599"><ele>445.66666666666663</ele><time>2026-05-01T15:25:24.634Z</time></trkpt><trkpt lat="41.8681223" lon="13.4619599"><ele>440.0</ele><time>2026-05-01T15:25:25.622Z</time></trkpt><trkpt lat="41.868281" lon="13.4618592"><ele>440.0</ele><time>2026-05-01T15:25:26.633Z</time></trkpt><trkpt lat="41.8684365" lon="13.4617642"><ele>440.0</ele><time>2026-05-01T15:25:27.632Z</time></trkpt><trkpt lat="41.8685918" lon="13.4616617"><ele>440.0</ele><time>2026-05-01T15:25:28.626Z</time></trkpt><trkpt lat="41.8687447" lon="13.4615571"><ele>440.3333333333333</ele><time>2026-05-01T15:25:29.624Z</time></trkpt><trkpt lat="41.8688892" lon="13.4614527"><ele>440.66666666666663</ele><time>2026-05-01T15:25:30.628Z</time></trkpt><trkpt lat="41.8690227" lon="13.4613414"><ele>441.0</ele><time>2026-05-01T15:25:31.62Z</time></trkpt><trkpt lat="41.8691452" lon="13.4612351"><ele>441.0</ele><time>2026-05-01T15:25:32.64Z</time></trkpt><trkpt lat="41.8692542" lon="13.4611321"><ele>441.0</ele><time>2026-05-01T15:25:33.628Z</time></trkpt><trkpt lat="41.8693467" lon="13.4610104"><ele>441.0</ele><time>2026-05-01T15:25:34.626Z</time></trkpt><trkpt lat="41.8694269" lon="13.4608758"><ele>441.0</ele><time>2026-05-01T15:25:35.638Z</time></trkpt><trkpt lat="41.8694963" lon="13.4607325"><ele>441.5</ele><time>2026-05-01T15:25:36.63Z</time></trkpt><trkpt lat="41.8695704" lon="13.4605697"><ele>442.0</ele><time>2026-05-01T15:25:37.639Z</time></trkpt><trkpt lat="41.8696573" lon="13.4604076"><ele>442.5</ele><time>2026-05-01T15:25:38.634Z</time></trkpt><trkpt lat="41.8697571" lon="13.4602558"><ele>443.0</ele><time>2026-05-01T15:25:39.624Z</time></trkpt><trkpt lat="41.8698707" lon="13.4601163"><ele>443.0</ele><time>2026-05-01T15:25:40.632Z</time></trkpt><trkpt lat="41.8700027" lon="13.4599842"><ele>443.0</ele><time>2026-05-01T15:25:41.625Z</time></trkpt><trkpt lat="41.8701495" lon="13.4598572"><ele>443.0</ele><time>2026-05-01T15:25:42.634Z</time></trkpt><trkpt lat="41.8703" lon="13.4597328"><ele>442.66666666666663</ele><time>2026-05-01T15:25:43.632Z</time></trkpt><trkpt lat="41.8704571" lon="13.4596087"><ele>442.33333333333337</ele><time>2026-05-01T15:25:44.639Z</time></trkpt><trkpt lat="41.8706124" lon="13.4594856"><ele>442.0</ele><time>2026-05-01T15:25:45.631Z</time></trkpt><trkpt lat="41.8707671" lon="13.4593641"><ele>442.0</ele><time>2026-05-01T15:25:46.638Z</time></trkpt><trkpt lat="41.8709196" lon="13.4592467"><ele>442.0</ele><time>2026-05-01T15:25:47.633Z</time></trkpt><trkpt lat="41.8710613" lon="13.45913"><ele>442.0</ele><time>2026-05-01T15:25:48.636Z</time></trkpt><trkpt lat="41.8712007" lon="13.4590238"><ele>443.33333333333337</ele><time>2026-05-01T15:25:49.65Z</time></trkpt><trkpt lat="41.8713453" lon="13.4589412"><ele>444.66666666666663</ele><time>2026-05-01T15:25:50.633Z</time></trkpt><trkpt lat="41.871497" lon="13.4588809"><ele>446.0</ele><time>2026-05-01T15:25:51.636Z</time></trkpt><trkpt lat="41.8716566" lon="13.4588397"><ele>445.66666666666663</ele><time>2026-05-01T15:25:52.629Z</time></trkpt><trkpt lat="41.8718236" lon="13.4587994"><ele>445.33333333333337</ele><time>2026-05-01T15:25:53.633Z</time></trkpt><trkpt lat="41.8719949" lon="13.4587484"><ele>445.0</ele><time>2026-05-01T15:25:54.628Z</time></trkpt><trkpt lat="41.8721719" lon="13.4586958"><ele>445.0</ele><time>2026-05-01T15:25:55.642Z</time></trkpt><trkpt lat="41.8723553" lon="13.4586395"><ele>445.0</ele><time>2026-05-01T15:25:56.639Z</time></trkpt><trkpt lat="41.8725403" lon="13.4585814"><ele>445.0</ele><time>2026-05-01T15:25:57.628Z</time></trkpt><trkpt lat="41.8727271" lon="13.4585182"><ele>446.0</ele><time>2026-05-01T15:25:58.628Z</time></trkpt><trkpt lat="41.8729108" lon="13.4584526"><ele>447.0</ele><time>2026-05-01T15:25:59.64Z</time></trkpt><trkpt lat="41.8730897" lon="13.4583785"><ele>448.0</ele><time>2026-05-01T15:26:00.636Z</time></trkpt><trkpt lat="41.8732655" lon="13.4583007"><ele>448.0</ele><time>2026-05-01T15:26:01.629Z</time></trkpt><trkpt lat="41.8734324" lon="13.458215"><ele>448.0</ele><time>2026-05-01T15:26:02.634Z</time></trkpt><trkpt lat="41.8735948" lon="13.4581275"><ele>448.0</ele><time>2026-05-01T15:26:03.633Z</time></trkpt><trkpt lat="41.8737537" lon="13.4580318"><ele>445.6666666666667</ele><time>2026-05-01T15:26:04.634Z</time></trkpt><trkpt lat="41.873912" lon="13.4579342"><ele>443.33333333333337</ele><time>2026-05-01T15:26:05.634Z</time></trkpt><trkpt lat="41.8740703" lon="13.4578346"><ele>441.0</ele><time>2026-05-01T15:26:06.63Z</time></trkpt><trkpt lat="41.8742254" lon="13.4577433"><ele>444.33333333333337</ele><time>2026-05-01T15:26:07.63Z</time></trkpt><trkpt lat="41.8743798" lon="13.4576529"><ele>447.6666666666667</ele><time>2026-05-01T15:26:08.632Z</time></trkpt><trkpt lat="41.8745309" lon="13.4575646"><ele>451.0</ele><time>2026-05-01T15:26:09.634Z</time></trkpt><trkpt lat="41.8746832" lon="13.4574715"><ele>451.0</ele><time>2026-05-01T15:26:10.63Z</time></trkpt><trkpt lat="41.8748395" lon="13.4573758"><ele>451.0</ele><time>2026-05-01T15:26:11.639Z</time></trkpt><trkpt lat="41.8749973" lon="13.4572908"><ele>451.0</ele><time>2026-05-01T15:26:12.632Z</time></trkpt><trkpt lat="41.8751624" lon="13.4572226"><ele>449.6666666666667</ele><time>2026-05-01T15:26:13.627Z</time></trkpt><trkpt lat="41.8753304" lon="13.4571733"><ele>448.33333333333337</ele><time>2026-05-01T15:26:14.631Z</time></trkpt><trkpt lat="41.8755029" lon="13.4571322"><ele>447.0</ele><time>2026-05-01T15:26:15.633Z</time></trkpt><trkpt lat="41.8756738" lon="13.4570846"><ele>447.0</ele><time>2026-05-01T15:26:16.648Z</time></trkpt><trkpt lat="41.8758414" lon="13.4570347"><ele>447.0</ele><time>2026-05-01T15:26:17.635Z</time></trkpt><trkpt lat="41.8760058" lon="13.4569891"><ele>447.0</ele><time>2026-05-01T15:26:18.634Z</time></trkpt><trkpt lat="41.8761534" lon="13.4569458"><ele>447.75</ele><time>2026-05-01T15:26:19.632Z</time></trkpt><trkpt lat="41.8762866" lon="13.4569054"><ele>448.5</ele><time>2026-05-01T15:26:20.632Z</time></trkpt><trkpt lat="41.8764107" lon="13.4568378"><ele>449.25</ele><time>2026-05-01T15:26:21.638Z</time></trkpt><trkpt lat="41.8765364" lon="13.4567368"><ele>450.0</ele><time>2026-05-01T15:26:22.634Z</time></trkpt><trkpt lat="41.8766466" lon="13.4566026"><ele>450.0</ele><time>2026-05-01T15:26:23.645Z</time></trkpt><trkpt lat="41.8767441" lon="13.456438"><ele>450.0</ele><time>2026-05-01T15:26:24.629Z</time></trkpt><trkpt lat="41.8768304" lon="13.4562516"><ele>450.0</ele><time>2026-05-01T15:26:25.63Z</time></trkpt><trkpt lat="41.8769146" lon="13.4560443"><ele>451.0</ele><time>2026-05-01T15:26:26.632Z</time></trkpt><trkpt lat="41.8770097" lon="13.4558383"><ele>452.0</ele><time>2026-05-01T15:26:27.649Z</time></trkpt><trkpt lat="41.8771141" lon="13.4556362"><ele>453.0</ele><time>2026-05-01T15:26:28.628Z</time></trkpt><trkpt lat="41.8772208" lon="13.4554339"><ele>453.0</ele><time>2026-05-01T15:26:29.65Z</time></trkpt><trkpt lat="41.8773266" lon="13.4552268"><ele>453.0</ele><time>2026-05-01T15:26:30.628Z</time></trkpt><trkpt lat="41.8774354" lon="13.4550213"><ele>453.0</ele><time>2026-05-01T15:26:31.628Z</time></trkpt><trkpt lat="41.8775444" lon="13.4548132"><ele>453.66666666666663</ele><time>2026-05-01T15:26:32.634Z</time></trkpt><trkpt lat="41.8776483" lon="13.4546107"><ele>454.3333333333333</ele><time>2026-05-01T15:26:33.627Z</time></trkpt><trkpt lat="41.8777455" lon="13.4544183"><ele>455.0</ele><time>2026-05-01T15:26:34.64Z</time></trkpt><trkpt lat="41.8778374" lon="13.4542402"><ele>455.0</ele><time>2026-05-01T15:26:35.628Z</time></trkpt><trkpt lat="41.8779255" lon="13.4540604"><ele>455.0</ele><time>2026-05-01T15:26:36.623Z</time></trkpt><trkpt lat="41.8780067" lon="13.4538875"><ele>455.0</ele><time>2026-05-01T15:26:37.63Z</time></trkpt><trkpt lat="41.8780771" lon="13.4536971"><ele>455.66666666666663</ele><time>2026-05-01T15:26:38.634Z</time></trkpt><trkpt lat="41.8781256" lon="13.4534933"><ele>456.33333333333337</ele><time>2026-05-01T15:26:39.632Z</time></trkpt><trkpt lat="41.8781556" lon="13.4532824"><ele>457.0</ele><time>2026-05-01T15:26:40.635Z</time></trkpt><trkpt lat="41.8781839" lon="13.4530757"><ele>456.33333333333337</ele><time>2026-05-01T15:26:41.631Z</time></trkpt><trkpt lat="41.8782198" lon="13.4528721"><ele>455.66666666666663</ele><time>2026-05-01T15:26:42.645Z</time></trkpt><trkpt lat="41.878275" lon="13.4526786"><ele>455.0</ele><time>2026-05-01T15:26:43.634Z</time></trkpt><trkpt lat="41.8783577" lon="13.4525058"><ele>454.66666666666663</ele><time>2026-05-01T15:26:44.631Z</time></trkpt><trkpt lat="41.8784628" lon="13.4523561"><ele>454.33333333333337</ele><time>2026-05-01T15:26:45.634Z</time></trkpt><trkpt lat="41.8785846" lon="13.4522196"><ele>454.0</ele><time>2026-05-01T15:26:46.633Z</time></trkpt><trkpt lat="41.8787246" lon="13.4521041"><ele>454.0</ele><time>2026-05-01T15:26:47.628Z</time></trkpt><trkpt lat="41.8788768" lon="13.4519919"><ele>454.0</ele><time>2026-05-01T15:26:48.652Z</time></trkpt><trkpt lat="41.8790522" lon="13.4518628"><ele>454.0</ele><time>2026-05-01T15:26:49.63Z</time></trkpt><trkpt lat="41.8792508" lon="13.4517122"><ele>457.5</ele><time>2026-05-01T15:26:50.643Z</time></trkpt><trkpt lat="41.879469" lon="13.4515596"><ele>461.0</ele><time>2026-05-01T15:26:51.634Z</time></trkpt><trkpt lat="41.8796778" lon="13.4514148"><ele>461.3333333333333</ele><time>2026-05-01T15:26:52.632Z</time></trkpt><trkpt lat="41.8798644" lon="13.4512868"><ele>461.66666666666663</ele><time>2026-05-01T15:26:53.632Z</time></trkpt><trkpt lat="41.8800387" lon="13.4511802"><ele>462.0</ele><time>2026-05-01T15:26:54.637Z</time></trkpt><trkpt lat="41.8802124" lon="13.4510915"><ele>462.0</ele><time>2026-05-01T15:26:55.63Z</time></trkpt><trkpt lat="41.8803968" lon="13.4510157"><ele>462.0</ele><time>2026-05-01T15:26:56.635Z</time></trkpt><trkpt lat="41.8805864" lon="13.4509579"><ele>462.0</ele><time>2026-05-01T15:26:57.636Z</time></trkpt><trkpt lat="41.8807771" lon="13.4509012"><ele>465.66666666666663</ele><time>2026-05-01T15:26:58.635Z</time></trkpt><trkpt lat="41.8809792" lon="13.4508365"><ele>469.3333333333333</ele><time>2026-05-01T15:26:59.64Z</time></trkpt><trkpt lat="41.881188" lon="13.4507491"><ele>473.0</ele><time>2026-05-01T15:27:00.649Z</time></trkpt><trkpt lat="41.881409" lon="13.4506375"><ele>473.0</ele><time>2026-05-01T15:27:01.637Z</time></trkpt><trkpt lat="41.8816409" lon="13.4505202"><ele>473.0</ele><time>2026-05-01T15:27:02.629Z</time></trkpt><trkpt lat="41.8818875" lon="13.4504005"><ele>467.5</ele><time>2026-05-01T15:27:03.631Z</time></trkpt><trkpt lat="41.8821445" lon="13.450273"><ele>462.0</ele><time>2026-05-01T15:27:04.636Z</time></trkpt><trkpt lat="41.8823979" lon="13.4501149"><ele>466.5</ele><time>2026-05-01T15:27:05.626Z</time></trkpt><trkpt lat="41.8826444" lon="13.4499444"><ele>471.0</ele><time>2026-05-01T15:27:06.632Z</time></trkpt><trkpt lat="41.882877" lon="13.4497577"><ele>465.5</ele><time>2026-05-01T15:27:07.647Z</time></trkpt><trkpt lat="41.8830915" lon="13.4495868"><ele>460.0</ele><time>2026-05-01T15:27:08.64Z</time></trkpt><trkpt lat="41.8832852" lon="13.4494411"><ele>461.6666666666667</ele><time>2026-05-01T15:27:09.63Z</time></trkpt><trkpt lat="41.8834686" lon="13.4493116"><ele>463.33333333333337</ele><time>2026-05-01T15:27:10.635Z</time></trkpt><trkpt lat="41.8836569" lon="13.4492006"><ele>465.0</ele><time>2026-05-01T15:27:11.626Z</time></trkpt><trkpt lat="41.8838543" lon="13.4491055"><ele>465.0</ele><time>2026-05-01T15:27:12.635Z</time></trkpt><trkpt lat="41.884061" lon="13.449014"><ele>465.0</ele><time>2026-05-01T15:27:13.626Z</time></trkpt><trkpt lat="41.8842799" lon="13.4489252"><ele>465.0</ele><time>2026-05-01T15:27:14.631Z</time></trkpt><trkpt lat="41.8845061" lon="13.4488339"><ele>461.0</ele><time>2026-05-01T15:27:15.631Z</time></trkpt><trkpt lat="41.8847386" lon="13.4487426"><ele>457.0</ele><time>2026-05-01T15:27:16.642Z</time></trkpt><trkpt lat="41.8849744" lon="13.4486543"><ele>459.0</ele><time>2026-05-01T15:27:17.634Z</time></trkpt><trkpt lat="41.8852159" lon="13.4485584"><ele>461.0</ele><time>2026-05-01T15:27:18.63Z</time></trkpt><trkpt lat="41.8854531" lon="13.4484608"><ele>461.0</ele><time>2026-05-01T15:27:19.636Z</time></trkpt><trkpt lat="41.8856779" lon="13.4483771"><ele>461.0</ele><time>2026-05-01T15:27:20.636Z</time></trkpt><trkpt lat="41.8858873" lon="13.4482857"><ele>464.0</ele><time>2026-05-01T15:27:21.65Z</time></trkpt><trkpt lat="41.8860899" lon="13.4482057"><ele>467.0</ele><time>2026-05-01T15:27:22.631Z</time></trkpt><trkpt lat="41.8862893" lon="13.4481321"><ele>470.0</ele><time>2026-05-01T15:27:23.629Z</time></trkpt><trkpt lat="41.8864899" lon="13.4480579"><ele>470.0</ele><time>2026-05-01T15:27:24.627Z</time></trkpt><trkpt lat="41.8866891" lon="13.4479611"><ele>470.0</ele><time>2026-05-01T15:27:25.636Z</time></trkpt><trkpt lat="41.8868907" lon="13.4478419"><ele>470.0</ele><time>2026-05-01T15:27:26.631Z</time></trkpt><trkpt lat="41.8870856" lon="13.447713"><ele>470.66666666666663</ele><time>2026-05-01T15:27:27.635Z</time></trkpt><trkpt lat="41.8872588" lon="13.4475663"><ele>471.33333333333337</ele><time>2026-05-01T15:27:28.639Z</time></trkpt><trkpt lat="41.8874012" lon="13.4474293"><ele>472.0</ele><time>2026-05-01T15:27:29.636Z</time></trkpt><trkpt lat="41.887527" lon="13.447294"><ele>476.6666666666667</ele><time>2026-05-01T15:27:30.631Z</time></trkpt><trkpt lat="41.8876427" lon="13.4471538"><ele>481.33333333333337</ele><time>2026-05-01T15:27:31.633Z</time></trkpt><trkpt lat="41.8877533" lon="13.4469958"><ele>486.0</ele><time>2026-05-01T15:27:32.627Z</time></trkpt><trkpt lat="41.8878617" lon="13.4468306"><ele>486.0</ele><time>2026-05-01T15:27:33.627Z</time></trkpt><trkpt lat="41.8879648" lon="13.4466548"><ele>486.0</ele><time>2026-05-01T15:27:34.627Z</time></trkpt><trkpt lat="41.888065" lon="13.446475"><ele>486.0</ele><time>2026-05-01T15:27:35.634Z</time></trkpt><trkpt lat="41.8881644" lon="13.4462866"><ele>485.33333333333337</ele><time>2026-05-01T15:27:36.64Z</time></trkpt><trkpt lat="41.8882663" lon="13.4460993"><ele>484.6666666666667</ele><time>2026-05-01T15:27:37.629Z</time></trkpt><trkpt lat="41.8883812" lon="13.4459236"><ele>484.0</ele><time>2026-05-01T15:27:38.635Z</time></trkpt><trkpt lat="41.888513" lon="13.4457614"><ele>484.0</ele><time>2026-05-01T15:27:39.628Z</time></trkpt><trkpt lat="41.8886605" lon="13.4456069"><ele>484.0</ele><time>2026-05-01T15:27:40.625Z</time></trkpt><trkpt lat="41.8888165" lon="13.4454766"><ele>484.0</ele><time>2026-05-01T15:27:41.633Z</time></trkpt><trkpt lat="41.8889812" lon="13.4453703"><ele>480.6666666666667</ele><time>2026-05-01T15:27:42.635Z</time></trkpt><trkpt lat="41.8891557" lon="13.4453002"><ele>477.33333333333337</ele><time>2026-05-01T15:27:43.637Z</time></trkpt><trkpt lat="41.8893488" lon="13.445251"><ele>474.0</ele><time>2026-05-01T15:27:44.628Z</time></trkpt><trkpt lat="41.8895554" lon="13.4451993"><ele>474.0</ele><time>2026-05-01T15:27:45.626Z</time></trkpt><trkpt lat="41.8897659" lon="13.445144"><ele>474.0</ele><time>2026-05-01T15:27:46.669Z</time></trkpt><trkpt lat="41.8899747" lon="13.4450822"><ele>474.0</ele><time>2026-05-01T15:27:47.622Z</time></trkpt><trkpt lat="41.8901694" lon="13.4450044"><ele>479.33333333333337</ele><time>2026-05-01T15:27:48.636Z</time></trkpt><trkpt lat="41.8903531" lon="13.4449138"><ele>484.6666666666667</ele><time>2026-05-01T15:27:49.636Z</time></trkpt><trkpt lat="41.8905308" lon="13.4448016"><ele>490.0</ele><time>2026-05-01T15:27:50.636Z</time></trkpt><trkpt lat="41.8906952" lon="13.4446857"><ele>491.33333333333337</ele><time>2026-05-01T15:27:51.635Z</time></trkpt><trkpt lat="41.8908481" lon="13.4445713"><ele>492.66666666666663</ele><time>2026-05-01T15:27:52.638Z</time></trkpt><trkpt lat="41.8909827" lon="13.4444283"><ele>494.0</ele><time>2026-05-01T15:27:53.628Z</time></trkpt><trkpt lat="41.8911113" lon="13.4442425"><ele>494.0</ele><time>2026-05-01T15:27:54.637Z</time></trkpt><trkpt lat="41.8912309" lon="13.4440139"><ele>494.0</ele><time>2026-05-01T15:27:55.629Z</time></trkpt><trkpt lat="41.8913501" lon="13.4437763"><ele>494.0</ele><time>2026-05-01T15:27:56.638Z</time></trkpt><trkpt lat="41.8914735" lon="13.4435811"><ele>490.3333333333333</ele><time>2026-05-01T15:27:57.626Z</time></trkpt><trkpt lat="41.8915947" lon="13.4434037"><ele>486.66666666666663</ele><time>2026-05-01T15:27:58.633Z</time></trkpt><trkpt lat="41.8917142" lon="13.4432376"><ele>483.0</ele><time>2026-05-01T15:27:59.63Z</time></trkpt><trkpt lat="41.8918364" lon="13.4430836"><ele>482.33333333333337</ele><time>2026-05-01T15:28:00.625Z</time></trkpt><trkpt lat="41.891965" lon="13.4429443"><ele>481.6666666666667</ele><time>2026-05-01T15:28:01.628Z</time></trkpt><trkpt lat="41.8920849" lon="13.4428156"><ele>481.0</ele><time>2026-05-01T15:28:02.632Z</time></trkpt><trkpt lat="41.8922111" lon="13.4427092"><ele>481.0</ele><time>2026-05-01T15:28:03.635Z</time></trkpt><trkpt lat="41.8923502" lon="13.442623"><ele>481.0</ele><time>2026-05-01T15:28:04.625Z</time></trkpt><trkpt lat="41.8925144" lon="13.4425722"><ele>481.0</ele><time>2026-05-01T15:28:05.63Z</time></trkpt><trkpt lat="41.8926982" lon="13.4425463"><ele>482.33333333333337</ele><time>2026-05-01T15:28:06.625Z</time></trkpt><trkpt lat="41.8928811" lon="13.4425352"><ele>483.66666666666663</ele><time>2026-05-01T15:28:07.627Z</time></trkpt><trkpt lat="41.8930515" lon="13.442533"><ele>485.0</ele><time>2026-05-01T15:28:08.633Z</time></trkpt><trkpt lat="41.8932119" lon="13.4425479"><ele>485.0</ele><time>2026-05-01T15:28:09.623Z</time></trkpt><trkpt lat="41.8933685" lon="13.4425773"><ele>485.0</ele><time>2026-05-01T15:28:10.631Z</time></trkpt><trkpt lat="41.8935283" lon="13.4426199"><ele>485.0</ele><time>2026-05-01T15:28:11.639Z</time></trkpt><trkpt lat="41.8936841" lon="13.4426705"><ele>484.66666666666663</ele><time>2026-05-01T15:28:12.627Z</time></trkpt><trkpt lat="41.8938347" lon="13.4427075"><ele>484.33333333333337</ele><time>2026-05-01T15:28:13.63Z</time></trkpt><trkpt lat="41.8939883" lon="13.442708"><ele>484.0</ele><time>2026-05-01T15:28:14.62Z</time></trkpt><trkpt lat="41.8941543" lon="13.4426573"><ele>488.33333333333337</ele><time>2026-05-01T15:28:15.635Z</time></trkpt><trkpt lat="41.8943326" lon="13.4425454"><ele>492.66666666666663</ele><time>2026-05-01T15:28:16.628Z</time></trkpt><trkpt lat="41.8945318" lon="13.4424134"><ele>497.0</ele><time>2026-05-01T15:28:17.648Z</time></trkpt><trkpt lat="41.8947683" lon="13.4422859"><ele>493.0</ele><time>2026-05-01T15:28:18.62Z</time></trkpt><trkpt lat="41.8950194" lon="13.4421224"><ele>489.0</ele><time>2026-05-01T15:28:19.637Z</time></trkpt><trkpt lat="41.8952671" lon="13.4419762"><ele>489.0</ele><time>2026-05-01T15:28:20.634Z</time></trkpt><trkpt lat="41.8955008" lon="13.4418614"><ele>489.0</ele><time>2026-05-01T15:28:21.626Z</time></trkpt><trkpt lat="41.8957136" lon="13.4417611"><ele>489.0</ele><time>2026-05-01T15:28:22.63Z</time></trkpt><trkpt lat="41.8959091" lon="13.4416731"><ele>489.0</ele><time>2026-05-01T15:28:23.629Z</time></trkpt><trkpt lat="41.8960933" lon="13.441594"><ele>489.0</ele><time>2026-05-01T15:28:24.633Z</time></trkpt><trkpt lat="41.8962654" lon="13.4415135"><ele>491.5</ele><time>2026-05-01T15:28:25.631Z</time></trkpt><trkpt lat="41.8964247" lon="13.4414391"><ele>494.0</ele><time>2026-05-01T15:28:26.627Z</time></trkpt><trkpt lat="41.8965599" lon="13.4413726"><ele>496.5</ele><time>2026-05-01T15:28:27.631Z</time></trkpt><trkpt lat="41.8966663" lon="13.4413142"><ele>499.0</ele><time>2026-05-01T15:28:28.633Z</time></trkpt><trkpt lat="41.8967539" lon="13.4412587"><ele>500.0</ele><time>2026-05-01T15:28:29.625Z</time></trkpt><trkpt lat="41.8968125" lon="13.441167"><ele>501.0</ele><time>2026-05-01T15:28:30.637Z</time></trkpt><trkpt lat="41.8968393" lon="13.4410442"><ele>502.0</ele><time>2026-05-01T15:28:31.622Z</time></trkpt><trkpt lat="41.8968302" lon="13.4408863"><ele>503.0</ele><time>2026-05-01T15:28:32.638Z</time></trkpt><trkpt lat="41.8968183" lon="13.440719"><ele>504.0</ele><time>2026-05-01T15:28:33.624Z</time></trkpt><trkpt lat="41.8968449" lon="13.440551"><ele>502.33333333333337</ele><time>2026-05-01T15:28:34.638Z</time></trkpt><trkpt lat="41.8969166" lon="13.4403747"><ele>500.6666666666667</ele><time>2026-05-01T15:28:35.641Z</time></trkpt><trkpt lat="41.8970172" lon="13.4401802"><ele>499.0</ele><time>2026-05-01T15:28:36.629Z</time></trkpt><trkpt lat="41.897122" lon="13.4399863"><ele>499.0</ele><time>2026-05-01T15:28:37.628Z</time></trkpt><trkpt lat="41.8972152" lon="13.4398095"><ele>499.0</ele><time>2026-05-01T15:28:38.636Z</time></trkpt><trkpt lat="41.8973012" lon="13.4396497"><ele>499.0</ele><time>2026-05-01T15:28:39.63Z</time></trkpt><trkpt lat="41.8973789" lon="13.4395109"><ele>499.0</ele><time>2026-05-01T15:28:40.634Z</time></trkpt><trkpt lat="41.8974574" lon="13.4393882"><ele>499.4</ele><time>2026-05-01T15:28:41.637Z</time></trkpt><trkpt lat="41.8975329" lon="13.4392947"><ele>499.79999999999995</ele><time>2026-05-01T15:28:42.636Z</time></trkpt><trkpt lat="41.8976066" lon="13.4392211"><ele>500.20000000000005</ele><time>2026-05-01T15:28:43.631Z</time></trkpt><trkpt lat="41.8976904" lon="13.4391685"><ele>500.6</ele><time>2026-05-01T15:28:44.63Z</time></trkpt><trkpt lat="41.897789" lon="13.4391355"><ele>501.0</ele><time>2026-05-01T15:28:45.648Z</time></trkpt><trkpt lat="41.8979023" lon="13.4391172"><ele>501.0</ele><time>2026-05-01T15:28:46.633Z</time></trkpt><trkpt lat="41.8980455" lon="13.4391113"><ele>501.0</ele><time>2026-05-01T15:28:47.636Z</time></trkpt><trkpt lat="41.898226" lon="13.4391128"><ele>501.0</ele><time>2026-05-01T15:28:48.629Z</time></trkpt><trkpt lat="41.8984146" lon="13.439126"><ele>502.66666666666663</ele><time>2026-05-01T15:28:49.637Z</time></trkpt><trkpt lat="41.8985898" lon="13.4391303"><ele>504.3333333333333</ele><time>2026-05-01T15:28:50.635Z</time></trkpt><trkpt lat="41.8987441" lon="13.4391229"><ele>506.0</ele><time>2026-05-01T15:28:51.633Z</time></trkpt><trkpt lat="41.8988871" lon="13.43911"><ele>506.0</ele><time>2026-05-01T15:28:52.639Z</time></trkpt><trkpt lat="41.8990178" lon="13.4390972"><ele>506.0</ele><time>2026-05-01T15:28:53.633Z</time></trkpt><trkpt lat="41.8991455" lon="13.4390592"><ele>506.0</ele><time>2026-05-01T15:28:54.637Z</time></trkpt><trkpt lat="41.8992856" lon="13.4389837"><ele>506.0</ele><time>2026-05-01T15:28:55.639Z</time></trkpt><trkpt lat="41.8994388" lon="13.4388702"><ele>505.0</ele><time>2026-05-01T15:28:56.631Z</time></trkpt><trkpt lat="41.8995993" lon="13.4387313"><ele>504.0</ele><time>2026-05-01T15:28:57.629Z</time></trkpt><trkpt lat="41.8997501" lon="13.438612"><ele>503.0</ele><time>2026-05-01T15:28:58.636Z</time></trkpt><trkpt lat="41.8998791" lon="13.4385127"><ele>503.0</ele><time>2026-05-01T15:28:59.636Z</time></trkpt><trkpt lat="41.8999944" lon="13.4384191"><ele>503.0</ele><time>2026-05-01T15:29:00.636Z</time></trkpt><trkpt lat="41.9000989" lon="13.4383288"><ele>503.0</ele><time>2026-05-01T15:29:01.63Z</time></trkpt><trkpt lat="41.9002021" lon="13.43822"><ele>503.0</ele><time>2026-05-01T15:29:02.634Z</time></trkpt><trkpt lat="41.9003217" lon="13.438085"><ele>505.0</ele><time>2026-05-01T15:29:03.634Z</time></trkpt><trkpt lat="41.9004613" lon="13.437932"><ele>507.0</ele><time>2026-05-01T15:29:04.634Z</time></trkpt><trkpt lat="41.9006041" lon="13.4377775"><ele>509.0</ele><time>2026-05-01T15:29:05.643Z</time></trkpt><trkpt lat="41.9007646" lon="13.4376202"><ele>511.0</ele><time>2026-05-01T15:29:06.636Z</time></trkpt><trkpt lat="41.9009308" lon="13.4374786"><ele>513.0</ele><time>2026-05-01T15:29:07.643Z</time></trkpt><trkpt lat="41.9010832" lon="13.4373333"><ele>515.0</ele><time>2026-05-01T15:29:08.636Z</time></trkpt><trkpt lat="41.9012283" lon="13.4372026"><ele>513.5</ele><time>2026-05-01T15:29:09.638Z</time></trkpt><trkpt lat="41.9013597" lon="13.4371031"><ele>512.0</ele><time>2026-05-01T15:29:10.631Z</time></trkpt><trkpt lat="41.9014782" lon="13.437035"><ele>510.5</ele><time>2026-05-01T15:29:11.639Z</time></trkpt><trkpt lat="41.9015861" lon="13.4369871"><ele>509.0</ele><time>2026-05-01T15:29:12.636Z</time></trkpt><trkpt lat="41.9016811" lon="13.4369106"><ele>509.0</ele><time>2026-05-01T15:29:13.637Z</time></trkpt><trkpt lat="41.9017483" lon="13.4368007"><ele>509.0</ele><time>2026-05-01T15:29:14.63Z</time></trkpt><trkpt lat="41.9017787" lon="13.4366492"><ele>509.0</ele><time>2026-05-01T15:29:15.632Z</time></trkpt><trkpt lat="41.9017671" lon="13.4364729"><ele>509.0</ele><time>2026-05-01T15:29:16.623Z</time></trkpt><trkpt lat="41.901739" lon="13.4362996"><ele>507.5</ele><time>2026-05-01T15:29:17.641Z</time></trkpt><trkpt lat="41.9017247" lon="13.4361378"><ele>506.0</ele><time>2026-05-01T15:29:18.63Z</time></trkpt><trkpt lat="41.9017558" lon="13.4359864"><ele>504.5</ele><time>2026-05-01T15:29:19.645Z</time></trkpt><trkpt lat="41.9018426" lon="13.4358359"><ele>503.0</ele><time>2026-05-01T15:29:20.636Z</time></trkpt><trkpt lat="41.9019625" lon="13.4356744"><ele>508.0</ele><time>2026-05-01T15:29:21.634Z</time></trkpt><trkpt lat="41.9020721" lon="13.4355018"><ele>513.0</ele><time>2026-05-01T15:29:22.637Z</time></trkpt><trkpt lat="41.902151" lon="13.4353022"><ele>518.0</ele><time>2026-05-01T15:29:23.636Z</time></trkpt><trkpt lat="41.9021988" lon="13.4350467"><ele>518.0</ele><time>2026-05-01T15:29:24.63Z</time></trkpt><trkpt lat="41.9022205" lon="13.4347638"><ele>518.0</ele><time>2026-05-01T15:29:25.627Z</time></trkpt><trkpt lat="41.9022339" lon="13.4344986"><ele>518.0</ele><time>2026-05-01T15:29:26.635Z</time></trkpt><trkpt lat="41.9022563" lon="13.4342825"><ele>516.75</ele><time>2026-05-01T15:29:27.632Z</time></trkpt><trkpt lat="41.9023047" lon="13.4340902"><ele>515.5</ele><time>2026-05-01T15:29:28.638Z</time></trkpt><trkpt lat="41.9023863" lon="13.4339355"><ele>514.25</ele><time>2026-05-01T15:29:29.628Z</time></trkpt><trkpt lat="41.9024978" lon="13.4338216"><ele>513.0</ele><time>2026-05-01T15:29:30.63Z</time></trkpt><trkpt lat="41.9026486" lon="13.4337439"><ele>512.0</ele><time>2026-05-01T15:29:31.638Z</time></trkpt><trkpt lat="41.9028264" lon="13.4336869"><ele>511.0</ele><time>2026-05-01T15:29:32.624Z</time></trkpt><trkpt lat="41.9030183" lon="13.4336028"><ele>510.0</ele><time>2026-05-01T15:29:33.638Z</time></trkpt><trkpt lat="41.9032147" lon="13.4334605"><ele>510.0</ele><time>2026-05-01T15:29:34.634Z</time></trkpt><trkpt lat="41.9033902" lon="13.4332871"><ele>510.0</ele><time>2026-05-01T15:29:35.636Z</time></trkpt><trkpt lat="41.9035385" lon="13.4331333"><ele>510.0</ele><time>2026-05-01T15:29:36.636Z</time></trkpt><trkpt lat="41.9036608" lon="13.4330131"><ele>508.75</ele><time>2026-05-01T15:29:37.632Z</time></trkpt><trkpt lat="41.9037671" lon="13.4329056"><ele>507.5</ele><time>2026-05-01T15:29:38.636Z</time></trkpt><trkpt lat="41.9038724" lon="13.43281"><ele>506.25</ele><time>2026-05-01T15:29:39.635Z</time></trkpt><trkpt lat="41.9039802" lon="13.4327457"><ele>505.0</ele><time>2026-05-01T15:29:40.644Z</time></trkpt><trkpt lat="41.9040937" lon="13.432709"><ele>505.0</ele><time>2026-05-01T15:29:41.641Z</time></trkpt><trkpt lat="41.9042094" lon="13.4327086"><ele>505.0</ele><time>2026-05-01T15:29:42.638Z</time></trkpt><trkpt lat="41.9043223" lon="13.4327463"><ele>505.0</ele><time>2026-05-01T15:29:43.636Z</time></trkpt><trkpt lat="41.9044349" lon="13.4328046"><ele>505.0</ele><time>2026-05-01T15:29:44.627Z</time></trkpt><trkpt lat="41.9045453" lon="13.4328619"><ele>505.25</ele><time>2026-05-01T15:29:45.642Z</time></trkpt><trkpt lat="41.9046628" lon="13.4328868"><ele>505.5</ele><time>2026-05-01T15:29:46.634Z</time></trkpt><trkpt lat="41.9048001" lon="13.4328851"><ele>505.75</ele><time>2026-05-01T15:29:47.635Z</time></trkpt><trkpt lat="41.9049614" lon="13.4328484"><ele>506.0</ele><time>2026-05-01T15:29:48.633Z</time></trkpt><trkpt lat="41.9051566" lon="13.4327669"><ele>509.5</ele><time>2026-05-01T15:29:49.637Z</time></trkpt><trkpt lat="41.9053847" lon="13.4326912"><ele>513.0</ele><time>2026-05-01T15:29:50.634Z</time></trkpt><trkpt lat="41.905638" lon="13.4326054"><ele>513.0</ele><time>2026-05-01T15:29:51.622Z</time></trkpt><trkpt lat="41.9059064" lon="13.4325071"><ele>513.0</ele><time>2026-05-01T15:29:52.632Z</time></trkpt><trkpt lat="41.9061773" lon="13.4324033"><ele>518.5</ele><time>2026-05-01T15:29:53.63Z</time></trkpt><trkpt lat="41.9064402" lon="13.4322958"><ele>524.0</ele><time>2026-05-01T15:29:54.622Z</time></trkpt><trkpt lat="41.9066673" lon="13.4321926"><ele>522.0</ele><time>2026-05-01T15:29:55.621Z</time></trkpt><trkpt lat="41.9068578" lon="13.4320956"><ele>520.0</ele><time>2026-05-01T15:29:56.619Z</time></trkpt><trkpt lat="41.9070337" lon="13.431989"><ele>518.0</ele><time>2026-05-01T15:29:57.624Z</time></trkpt><trkpt lat="41.9071983" lon="13.4318667"><ele>518.0</ele><time>2026-05-01T15:29:58.627Z</time></trkpt><trkpt lat="41.9073416" lon="13.4317014"><ele>518.0</ele><time>2026-05-01T15:29:59.649Z</time></trkpt><trkpt lat="41.907466" lon="13.4314925"><ele>518.0</ele><time>2026-05-01T15:30:00.627Z</time></trkpt><trkpt lat="41.9075978" lon="13.4313045"><ele>517.6666666666666</ele><time>2026-05-01T15:30:01.635Z</time></trkpt><trkpt lat="41.9077515" lon="13.4311387"><ele>517.3333333333334</ele><time>2026-05-01T15:30:02.629Z</time></trkpt><trkpt lat="41.907918" lon="13.4309993"><ele>517.0</ele><time>2026-05-01T15:30:03.633Z</time></trkpt><trkpt lat="41.9080803" lon="13.4308637"><ele>517.0</ele><time>2026-05-01T15:30:04.635Z</time></trkpt><trkpt lat="41.908232" lon="13.4306964"><ele>517.0</ele><time>2026-05-01T15:30:05.622Z</time></trkpt><trkpt lat="41.9083684" lon="13.4304794"><ele>517.0</ele><time>2026-05-01T15:30:06.64Z</time></trkpt><trkpt lat="41.9084873" lon="13.4302406"><ele>518.0</ele><time>2026-05-01T15:30:07.631Z</time></trkpt><trkpt lat="41.9085831" lon="13.4300159"><ele>519.0</ele><time>2026-05-01T15:30:08.628Z</time></trkpt><trkpt lat="41.9086629" lon="13.4298011"><ele>520.0</ele><time>2026-05-01T15:30:09.627Z</time></trkpt><trkpt lat="41.9087262" lon="13.4296024"><ele>520.0</ele><time>2026-05-01T15:30:10.634Z</time></trkpt><trkpt lat="41.9087892" lon="13.4294119"><ele>520.0</ele><time>2026-05-01T15:30:11.629Z</time></trkpt><trkpt lat="41.9088479" lon="13.4292253"><ele>520.0</ele><time>2026-05-01T15:30:12.638Z</time></trkpt><trkpt lat="41.908905" lon="13.4290404"><ele>520.0</ele><time>2026-05-01T15:30:13.635Z</time></trkpt><trkpt lat="41.9089733" lon="13.4288698"><ele>520.0</ele><time>2026-05-01T15:30:14.637Z</time></trkpt><trkpt lat="41.9090619" lon="13.4287119"><ele>520.0</ele><time>2026-05-01T15:30:15.634Z</time></trkpt><trkpt lat="41.909179" lon="13.4285695"><ele>520.0</ele><time>2026-05-01T15:30:16.629Z</time></trkpt><trkpt lat="41.9093138" lon="13.4284737"><ele>518.0</ele><time>2026-05-01T15:30:17.633Z</time></trkpt><trkpt lat="41.9094717" lon="13.4284071"><ele>516.0</ele><time>2026-05-01T15:30:18.627Z</time></trkpt><trkpt lat="41.9096436" lon="13.4283809"><ele>514.0</ele><time>2026-05-01T15:30:19.627Z</time></trkpt><trkpt lat="41.9098241" lon="13.42839"><ele>514.0</ele><time>2026-05-01T15:30:20.634Z</time></trkpt><trkpt lat="41.9100143" lon="13.4284318"><ele>514.0</ele><time>2026-05-01T15:30:21.629Z</time></trkpt><trkpt lat="41.9102203" lon="13.4285001"><ele>514.0</ele><time>2026-05-01T15:30:22.626Z</time></trkpt><trkpt lat="41.9104343" lon="13.4285849"><ele>515.3333333333334</ele><time>2026-05-01T15:30:23.627Z</time></trkpt><trkpt lat="41.910641" lon="13.4286692"><ele>516.6666666666666</ele><time>2026-05-01T15:30:24.63Z</time></trkpt><trkpt lat="41.9108294" lon="13.4287422"><ele>518.0</ele><time>2026-05-01T15:30:25.635Z</time></trkpt><trkpt lat="41.9110061" lon="13.4287961"><ele>518.0</ele><time>2026-05-01T15:30:26.635Z</time></trkpt><trkpt lat="41.9111859" lon="13.4288158"><ele>518.0</ele><time>2026-05-01T15:30:27.635Z</time></trkpt><trkpt lat="41.9113662" lon="13.4287944"><ele>518.0</ele><time>2026-05-01T15:30:28.627Z</time></trkpt><trkpt lat="41.9115444" lon="13.4287389"><ele>518.0</ele><time>2026-05-01T15:30:29.643Z</time></trkpt><trkpt lat="41.9117062" lon="13.4286627"><ele>518.0</ele><time>2026-05-01T15:30:30.634Z</time></trkpt><trkpt lat="41.9118592" lon="13.4285779"><ele>518.0</ele><time>2026-05-01T15:30:31.636Z</time></trkpt><trkpt lat="41.9120048" lon="13.4284854"><ele>520.3333333333333</ele><time>2026-05-01T15:30:32.642Z</time></trkpt><trkpt lat="41.9121464" lon="13.4283626"><ele>522.6666666666666</ele><time>2026-05-01T15:30:33.634Z</time></trkpt><trkpt lat="41.9122857" lon="13.4282317"><ele>525.0</ele><time>2026-05-01T15:30:34.635Z</time></trkpt><trkpt lat="41.9124201" lon="13.4280996"><ele>524.0</ele><time>2026-05-01T15:30:35.635Z</time></trkpt><trkpt lat="41.9125514" lon="13.4279733"><ele>523.0</ele><time>2026-05-01T15:30:36.624Z</time></trkpt><trkpt lat="41.9126788" lon="13.427864"><ele>522.0</ele><time>2026-05-01T15:30:37.632Z</time></trkpt><trkpt lat="41.9128065" lon="13.4277741"><ele>522.0</ele><time>2026-05-01T15:30:38.629Z</time></trkpt><trkpt lat="41.912938" lon="13.427693"><ele>522.0</ele><time>2026-05-01T15:30:39.634Z</time></trkpt><trkpt lat="41.9130787" lon="13.4276339"><ele>522.0</ele><time>2026-05-01T15:30:40.628Z</time></trkpt><trkpt lat="41.913228" lon="13.427581"><ele>522.0</ele><time>2026-05-01T15:30:41.629Z</time></trkpt><trkpt lat="41.9133788" lon="13.4275297"><ele>522.5</ele><time>2026-05-01T15:30:42.631Z</time></trkpt><trkpt lat="41.9135202" lon="13.4274918"><ele>523.0</ele><time>2026-05-01T15:30:43.626Z</time></trkpt><trkpt lat="41.9136528" lon="13.4274589"><ele>523.5</ele><time>2026-05-01T15:30:44.627Z</time></trkpt><trkpt lat="41.9137715" lon="13.4274211"><ele>524.0</ele><time>2026-05-01T15:30:45.634Z</time></trkpt><trkpt lat="41.9138851" lon="13.4273858"><ele>524.0</ele><time>2026-05-01T15:30:46.632Z</time></trkpt><trkpt lat="41.9139907" lon="13.4273485"><ele>524.0</ele><time>2026-05-01T15:30:47.634Z</time></trkpt><trkpt lat="41.9141011" lon="13.4273243"><ele>524.0</ele><time>2026-05-01T15:30:48.626Z</time></trkpt><trkpt lat="41.914213" lon="13.4272946"><ele>524.0</ele><time>2026-05-01T15:30:49.627Z</time></trkpt><trkpt lat="41.9143342" lon="13.4272589"><ele>523.75</ele><time>2026-05-01T15:30:50.636Z</time></trkpt><trkpt lat="41.9144545" lon="13.4272201"><ele>523.5</ele><time>2026-05-01T15:30:51.638Z</time></trkpt><trkpt lat="41.9145702" lon="13.4271845"><ele>523.25</ele><time>2026-05-01T15:30:52.63Z</time></trkpt><trkpt lat="41.914681" lon="13.4271536"><ele>523.0</ele><time>2026-05-01T15:30:53.628Z</time></trkpt><trkpt lat="41.9147871" lon="13.4271211"><ele>523.0</ele><time>2026-05-01T15:30:54.644Z</time></trkpt><trkpt lat="41.9148887" lon="13.427094"><ele>523.0</ele><time>2026-05-01T15:30:55.631Z</time></trkpt><trkpt lat="41.9149754" lon="13.4270564"><ele>523.0</ele><time>2026-05-01T15:30:56.628Z</time></trkpt><trkpt lat="41.9150619" lon="13.4270005"><ele>523.0</ele><time>2026-05-01T15:30:57.633Z</time></trkpt><trkpt lat="41.9151676" lon="13.4269414"><ele>523.0</ele><time>2026-05-01T15:30:58.63Z</time></trkpt><trkpt lat="41.9152946" lon="13.426888"><ele>524.0</ele><time>2026-05-01T15:30:59.628Z</time></trkpt><trkpt lat="41.9154317" lon="13.426832"><ele>525.0</ele><time>2026-05-01T15:31:00.639Z</time></trkpt><trkpt lat="41.9155573" lon="13.4267826"><ele>526.0</ele><time>2026-05-01T15:31:01.626Z</time></trkpt><trkpt lat="41.9156755" lon="13.4267306"><ele>527.0</ele><time>2026-05-01T15:31:02.63Z</time></trkpt><trkpt lat="41.9157864" lon="13.4267096"><ele>527.0</ele><time>2026-05-01T15:31:03.63Z</time></trkpt><trkpt lat="41.915902" lon="13.4267241"><ele>527.0</ele><time>2026-05-01T15:31:04.639Z</time></trkpt><trkpt lat="41.9160262" lon="13.4267772"><ele>527.0</ele><time>2026-05-01T15:31:05.628Z</time></trkpt><trkpt lat="41.9161563" lon="13.4268504"><ele>527.0</ele><time>2026-05-01T15:31:06.634Z</time></trkpt><trkpt lat="41.9162919" lon="13.4269375"><ele>526.75</ele><time>2026-05-01T15:31:07.634Z</time></trkpt><trkpt lat="41.916433" lon="13.4270242"><ele>526.5</ele><time>2026-05-01T15:31:08.626Z</time></trkpt><trkpt lat="41.9165737" lon="13.4271009"><ele>526.25</ele><time>2026-05-01T15:31:09.627Z</time></trkpt><trkpt lat="41.9167019" lon="13.4271638"><ele>526.0</ele><time>2026-05-01T15:31:10.642Z</time></trkpt><trkpt lat="41.9168348" lon="13.4272074"><ele>524.6666666666667</ele><time>2026-05-01T15:31:11.632Z</time></trkpt><trkpt lat="41.9169742" lon="13.4272058"><ele>523.3333333333334</ele><time>2026-05-01T15:31:12.639Z</time></trkpt><trkpt lat="41.9171234" lon="13.4271677"><ele>522.0</ele><time>2026-05-01T15:31:13.641Z</time></trkpt><trkpt lat="41.9172795" lon="13.4270953"><ele>522.0</ele><time>2026-05-01T15:31:14.631Z</time></trkpt><trkpt lat="41.9174358" lon="13.4270324"><ele>522.0</ele><time>2026-05-01T15:31:15.625Z</time></trkpt><trkpt lat="41.9175882" lon="13.4269876"><ele>522.0</ele><time>2026-05-01T15:31:16.632Z</time></trkpt><trkpt lat="41.9177476" lon="13.4269842"><ele>523.0</ele><time>2026-05-01T15:31:17.625Z</time></trkpt><trkpt lat="41.9179188" lon="13.4269957"><ele>524.0</ele><time>2026-05-01T15:31:18.626Z</time></trkpt><trkpt lat="41.9180916" lon="13.4270171"><ele>525.0</ele><time>2026-05-01T15:31:19.63Z</time></trkpt><trkpt lat="41.9182778" lon="13.4270294"><ele>525.3333333333334</ele><time>2026-05-01T15:31:20.632Z</time></trkpt><trkpt lat="41.9184653" lon="13.4270407"><ele>525.6666666666667</ele><time>2026-05-01T15:31:21.628Z</time></trkpt><trkpt lat="41.9186485" lon="13.4270526"><ele>526.0</ele><time>2026-05-01T15:31:22.63Z</time></trkpt><trkpt lat="41.9188148" lon="13.4270414"><ele>526.0</ele><time>2026-05-01T15:31:23.629Z</time></trkpt><trkpt lat="41.9189823" lon="13.4270029"><ele>526.0</ele><time>2026-05-01T15:31:24.626Z</time></trkpt><trkpt lat="41.9191467" lon="13.4269377"><ele>526.0</ele><time>2026-05-01T15:31:25.627Z</time></trkpt><trkpt lat="41.9193106" lon="13.4268338"><ele>528.6666666666667</ele><time>2026-05-01T15:31:26.626Z</time></trkpt><trkpt lat="41.9194636" lon="13.4267073"><ele>531.3333333333334</ele><time>2026-05-01T15:31:27.624Z</time></trkpt><trkpt lat="41.9196144" lon="13.4266159"><ele>534.0</ele><time>2026-05-01T15:31:28.636Z</time></trkpt><trkpt lat="41.9197777" lon="13.4265547"><ele>534.0</ele><time>2026-05-01T15:31:29.619Z</time></trkpt><trkpt lat="41.919963" lon="13.4265187"><ele>534.0</ele><time>2026-05-01T15:31:30.633Z</time></trkpt><trkpt lat="41.9201638" lon="13.4265103"><ele>534.0</ele><time>2026-05-01T15:31:31.625Z</time></trkpt><trkpt lat="41.9203774" lon="13.4264914"><ele>535.6666666666666</ele><time>2026-05-01T15:31:32.625Z</time></trkpt><trkpt lat="41.9205771" lon="13.4264679"><ele>537.3333333333333</ele><time>2026-05-01T15:31:33.626Z</time></trkpt><trkpt lat="41.9207617" lon="13.4264336"><ele>539.0</ele><time>2026-05-01T15:31:34.614Z</time></trkpt><trkpt lat="41.9209499" lon="13.4263685"><ele>538.6666666666666</ele><time>2026-05-01T15:31:35.629Z</time></trkpt><trkpt lat="41.9211501" lon="13.4262892"><ele>538.3333333333334</ele><time>2026-05-01T15:31:36.642Z</time></trkpt><trkpt lat="41.9213263" lon="13.4261798"><ele>538.0</ele><time>2026-05-01T15:31:37.625Z</time></trkpt><trkpt lat="41.9214864" lon="13.4260676"><ele>538.0</ele><time>2026-05-01T15:31:38.628Z</time></trkpt><trkpt lat="41.9216367" lon="13.4259188"><ele>538.0</ele><time>2026-05-01T15:31:39.642Z</time></trkpt><trkpt lat="41.9217798" lon="13.4257355"><ele>538.0</ele><time>2026-05-01T15:31:40.629Z</time></trkpt><trkpt lat="41.9219096" lon="13.425551"><ele>537.5</ele><time>2026-05-01T15:31:41.63Z</time></trkpt><trkpt lat="41.9220206" lon="13.4254112"><ele>537.0</ele><time>2026-05-01T15:31:42.624Z</time></trkpt><trkpt lat="41.9221083" lon="13.4253133"><ele>536.5</ele><time>2026-05-01T15:31:43.624Z</time></trkpt><trkpt lat="41.9221882" lon="13.4252151"><ele>536.0</ele><time>2026-05-01T15:31:44.628Z</time></trkpt><trkpt lat="41.9222835" lon="13.4251171"><ele>536.0</ele><time>2026-05-01T15:31:45.631Z</time></trkpt><trkpt lat="41.9224012" lon="13.4250361"><ele>536.0</ele><time>2026-05-01T15:31:46.626Z</time></trkpt><trkpt lat="41.922536" lon="13.4249626"><ele>536.0</ele><time>2026-05-01T15:31:47.628Z</time></trkpt><trkpt lat="41.9226835" lon="13.4248685"><ele>536.0</ele><time>2026-05-01T15:31:48.626Z</time></trkpt><trkpt lat="41.9228676" lon="13.4247837"><ele>534.5</ele><time>2026-05-01T15:31:49.635Z</time></trkpt><trkpt lat="41.9230807" lon="13.4247062"><ele>533.0</ele><time>2026-05-01T15:31:50.63Z</time></trkpt><trkpt lat="41.9233091" lon="13.4246259"><ele>534.5</ele><time>2026-05-01T15:31:51.626Z</time></trkpt><trkpt lat="41.9235449" lon="13.4245378"><ele>536.0</ele><time>2026-05-01T15:31:52.63Z</time></trkpt><trkpt lat="41.9237622" lon="13.4244454"><ele>536.0</ele><time>2026-05-01T15:31:53.635Z</time></trkpt><trkpt lat="41.9239639" lon="13.4243705"><ele>536.0</ele><time>2026-05-01T15:31:54.627Z</time></trkpt><trkpt lat="41.924164" lon="13.4243075"><ele>536.0</ele><time>2026-05-01T15:31:55.647Z</time></trkpt><trkpt lat="41.9243782" lon="13.4242503"><ele>538.0</ele><time>2026-05-01T15:31:56.632Z</time></trkpt><trkpt lat="41.9246117" lon="13.4242239"><ele>540.0</ele><time>2026-05-01T15:31:57.641Z</time></trkpt><trkpt lat="41.9248564" lon="13.4242092"><ele>542.0</ele><time>2026-05-01T15:31:58.626Z</time></trkpt><trkpt lat="41.925109" lon="13.4241993"><ele>544.0</ele><time>2026-05-01T15:31:59.625Z</time></trkpt><trkpt lat="41.9253684" lon="13.4241762"><ele>544.0</ele><time>2026-05-01T15:32:00.626Z</time></trkpt><trkpt lat="41.9256363" lon="13.4241576"><ele>544.0</ele><time>2026-05-01T15:32:01.631Z</time></trkpt><trkpt lat="41.9259037" lon="13.4241366"><ele>548.0</ele><time>2026-05-01T15:32:02.632Z</time></trkpt><trkpt lat="41.9261749" lon="13.4241015"><ele>552.0</ele><time>2026-05-01T15:32:03.625Z</time></trkpt><trkpt lat="41.926453" lon="13.4240395"><ele>557.5</ele><time>2026-05-01T15:32:04.637Z</time></trkpt><trkpt lat="41.9267312" lon="13.423968"><ele>563.0</ele><time>2026-05-01T15:32:05.641Z</time></trkpt><trkpt lat="41.92701" lon="13.4238933"><ele>563.0</ele><time>2026-05-01T15:32:06.629Z</time></trkpt><trkpt lat="41.9272862" lon="13.4238198"><ele>563.0</ele><time>2026-05-01T15:32:07.645Z</time></trkpt><trkpt lat="41.92756" lon="13.4237446"><ele>553.0</ele><time>2026-05-01T15:32:08.628Z</time></trkpt><trkpt lat="41.9278302" lon="13.4236675"><ele>543.0</ele><time>2026-05-01T15:32:09.63Z</time></trkpt><trkpt lat="41.9280976" lon="13.4235963"><ele>543.0</ele><time>2026-05-01T15:32:10.631Z</time></trkpt><trkpt lat="41.928366" lon="13.4235267"><ele>543.0</ele><time>2026-05-01T15:32:11.635Z</time></trkpt><trkpt lat="41.9286338" lon="13.4234614"><ele>544.0</ele><time>2026-05-01T15:32:12.628Z</time></trkpt><trkpt lat="41.9289015" lon="13.4233963"><ele>545.0</ele><time>2026-05-01T15:32:13.63Z</time></trkpt><trkpt lat="41.9291642" lon="13.4233254"><ele>545.0</ele><time>2026-05-01T15:32:14.631Z</time></trkpt><trkpt lat="41.9294171" lon="13.423257"><ele>545.0</ele><time>2026-05-01T15:32:15.621Z</time></trkpt><trkpt lat="41.9296559" lon="13.4231944"><ele>545.0</ele><time>2026-05-01T15:32:16.64Z</time></trkpt><trkpt lat="41.9298882" lon="13.4231316"><ele>545.0</ele><time>2026-05-01T15:32:17.631Z</time></trkpt><trkpt lat="41.930121" lon="13.4230715"><ele>543.0</ele><time>2026-05-01T15:32:18.631Z</time></trkpt><trkpt lat="41.9303542" lon="13.423006"><ele>541.0</ele><time>2026-05-01T15:32:19.641Z</time></trkpt><trkpt lat="41.9305839" lon="13.4229407"><ele>541.0</ele><time>2026-05-01T15:32:20.633Z</time></trkpt><trkpt lat="41.9308219" lon="13.4228781"><ele>541.0</ele><time>2026-05-01T15:32:21.649Z</time></trkpt><trkpt lat="41.9310633" lon="13.4228103"><ele>544.0</ele><time>2026-05-01T15:32:22.637Z</time></trkpt><trkpt lat="41.9313121" lon="13.4227526"><ele>547.0</ele><time>2026-05-01T15:32:23.642Z</time></trkpt><trkpt lat="41.9315567" lon="13.4226878"><ele>552.0</ele><time>2026-05-01T15:32:24.637Z</time></trkpt><trkpt lat="41.9317941" lon="13.4226149"><ele>557.0</ele><time>2026-05-01T15:32:25.627Z</time></trkpt><trkpt lat="41.9320292" lon="13.4225332"><ele>557.0</ele><time>2026-05-01T15:32:26.631Z</time></trkpt><trkpt lat="41.932269" lon="13.4224326"><ele>557.0</ele><time>2026-05-01T15:32:27.633Z</time></trkpt><trkpt lat="41.9325083" lon="13.4223126"><ele>556.5</ele><time>2026-05-01T15:32:28.631Z</time></trkpt><trkpt lat="41.9327494" lon="13.4221622"><ele>556.0</ele><time>2026-05-01T15:32:29.638Z</time></trkpt><trkpt lat="41.9329976" lon="13.4219887"><ele>556.0</ele><time>2026-05-01T15:32:30.627Z</time></trkpt><trkpt lat="41.9332574" lon="13.4218078"><ele>556.0</ele><time>2026-05-01T15:32:31.664Z</time></trkpt><trkpt lat="41.9335288" lon="13.4216237"><ele>554.5</ele><time>2026-05-01T15:32:32.636Z</time></trkpt><trkpt lat="41.9338021" lon="13.4214417"><ele>553.0</ele><time>2026-05-01T15:32:33.646Z</time></trkpt><trkpt lat="41.9340545" lon="13.4212642"><ele>560.0</ele><time>2026-05-01T15:32:34.637Z</time></trkpt><trkpt lat="41.9342897" lon="13.4210972"><ele>567.0</ele><time>2026-05-01T15:32:35.637Z</time></trkpt><trkpt lat="41.9345064" lon="13.4209351"><ele>567.0</ele><time>2026-05-01T15:32:36.641Z</time></trkpt><trkpt lat="41.9347103" lon="13.4207981"><ele>567.0</ele><time>2026-05-01T15:32:37.626Z</time></trkpt><trkpt lat="41.9349182" lon="13.4206662"><ele>567.0</ele><time>2026-05-01T15:32:38.635Z</time></trkpt><trkpt lat="41.9351275" lon="13.4205444"><ele>567.0</ele><time>2026-05-01T15:32:39.635Z</time></trkpt><trkpt lat="41.9353478" lon="13.4204258"><ele>565.0</ele><time>2026-05-01T15:32:40.641Z</time></trkpt><trkpt lat="41.9355829" lon="13.4203198"><ele>563.0</ele><time>2026-05-01T15:32:41.634Z</time></trkpt><trkpt lat="41.935823" lon="13.4202131"><ele>570.0</ele><time>2026-05-01T15:32:42.631Z</time></trkpt><trkpt lat="41.9360677" lon="13.4200963"><ele>577.0</ele><time>2026-05-01T15:32:43.63Z</time></trkpt><trkpt lat="41.9363141" lon="13.4199827"><ele>577.0</ele><time>2026-05-01T15:32:44.634Z</time></trkpt><trkpt lat="41.9365689" lon="13.419882"><ele>577.0</ele><time>2026-05-01T15:32:45.641Z</time></trkpt><trkpt lat="41.9368155" lon="13.4197783"><ele>574.5</ele><time>2026-05-01T15:32:46.632Z</time></trkpt><trkpt lat="41.9370592" lon="13.4196678"><ele>572.0</ele><time>2026-05-01T15:32:47.631Z</time></trkpt><trkpt lat="41.9373028" lon="13.4195671"><ele>572.0</ele><time>2026-05-01T15:32:48.63Z</time></trkpt><trkpt lat="41.9375411" lon="13.4194679"><ele>572.0</ele><time>2026-05-01T15:32:49.627Z</time></trkpt><trkpt lat="41.9377774" lon="13.4193725"><ele>576.5</ele><time>2026-05-01T15:32:50.634Z</time></trkpt><trkpt lat="41.9380129" lon="13.4192805"><ele>581.0</ele><time>2026-05-01T15:32:51.644Z</time></trkpt><trkpt lat="41.938245" lon="13.4191858"><ele>589.0</ele><time>2026-05-01T15:32:52.628Z</time></trkpt><trkpt lat="41.9384807" lon="13.4190854"><ele>597.0</ele><time>2026-05-01T15:32:53.63Z</time></trkpt><trkpt lat="41.9387028" lon="13.4189906"><ele>597.0</ele><time>2026-05-01T15:32:54.628Z</time></trkpt><trkpt lat="41.9389049" lon="13.418903"><ele>597.0</ele><time>2026-05-01T15:32:55.629Z</time></trkpt><trkpt lat="41.9390931" lon="13.4188234"><ele>597.0</ele><time>2026-05-01T15:32:56.628Z</time></trkpt><trkpt lat="41.939281" lon="13.418753"><ele>591.3333333333334</ele><time>2026-05-01T15:32:57.632Z</time></trkpt><trkpt lat="41.9394702" lon="13.4187041"><ele>585.6666666666667</ele><time>2026-05-01T15:32:58.625Z</time></trkpt><trkpt lat="41.9396641" lon="13.4186763"><ele>580.0</ele><time>2026-05-01T15:32:59.628Z</time></trkpt><trkpt lat="41.9398638" lon="13.4186661"><ele>582.0</ele><time>2026-05-01T15:33:00.631Z</time></trkpt><trkpt lat="41.940072" lon="13.4186801"><ele>584.0</ele><time>2026-05-01T15:33:01.63Z</time></trkpt><trkpt lat="41.9402853" lon="13.4187069"><ele>586.0</ele><time>2026-05-01T15:33:02.631Z</time></trkpt><trkpt lat="41.9404936" lon="13.4187372"><ele>586.0</ele><time>2026-05-01T15:33:03.629Z</time></trkpt><trkpt lat="41.9406848" lon="13.4187672"><ele>586.0</ele><time>2026-05-01T15:33:04.629Z</time></trkpt><trkpt lat="41.9408573" lon="13.4188048"><ele>586.0</ele><time>2026-05-01T15:33:05.63Z</time></trkpt><trkpt lat="41.9410104" lon="13.418831"><ele>588.25</ele><time>2026-05-01T15:33:06.635Z</time></trkpt><trkpt lat="41.9411521" lon="13.4188511"><ele>590.5</ele><time>2026-05-01T15:33:07.62Z</time></trkpt><trkpt lat="41.9412803" lon="13.4188853"><ele>592.75</ele><time>2026-05-01T15:33:08.634Z</time></trkpt><trkpt lat="41.941388" lon="13.4189449"><ele>595.0</ele><time>2026-05-01T15:33:09.636Z</time></trkpt><trkpt lat="41.9414634" lon="13.4190364"><ele>595.0</ele><time>2026-05-01T15:33:10.626Z</time></trkpt><trkpt lat="41.9415" lon="13.4191588"><ele>595.0</ele><time>2026-05-01T15:33:11.629Z</time></trkpt><trkpt lat="41.9415105" lon="13.4193129"><ele>595.0</ele><time>2026-05-01T15:33:12.629Z</time></trkpt><trkpt lat="41.9415109" lon="13.4194741"><ele>595.0</ele><time>2026-05-01T15:33:13.629Z</time></trkpt><trkpt lat="41.941532" lon="13.4196239"><ele>595.0</ele><time>2026-05-01T15:33:14.638Z</time></trkpt><trkpt lat="41.9415853" lon="13.4197515"><ele>599.5</ele><time>2026-05-01T15:33:15.637Z</time></trkpt><trkpt lat="41.9416636" lon="13.4198324"><ele>604.0</ele><time>2026-05-01T15:33:16.626Z</time></trkpt><trkpt lat="41.9417646" lon="13.4198633"><ele>608.5</ele><time>2026-05-01T15:33:17.626Z</time></trkpt><trkpt lat="41.9418869" lon="13.4198424"><ele>613.0</ele><time>2026-05-01T15:33:18.624Z</time></trkpt><trkpt lat="41.9419957" lon="13.4197499"><ele>611.3333333333334</ele><time>2026-05-01T15:33:19.626Z</time></trkpt><trkpt lat="41.9420918" lon="13.4196005"><ele>609.6666666666666</ele><time>2026-05-01T15:33:20.627Z</time></trkpt><trkpt lat="41.94218" lon="13.41941"><ele>608.0</ele><time>2026-05-01T15:33:21.626Z</time></trkpt><trkpt lat="41.9422771" lon="13.4191811"><ele>608.0</ele><time>2026-05-01T15:33:22.627Z</time></trkpt><trkpt lat="41.9424008" lon="13.4189581"><ele>608.0</ele><time>2026-05-01T15:33:23.619Z</time></trkpt><trkpt lat="41.9425396" lon="13.418746"><ele>608.0</ele><time>2026-05-01T15:33:24.629Z</time></trkpt><trkpt lat="41.9426643" lon="13.4185346"><ele>609.3333333333333</ele><time>2026-05-01T15:33:25.617Z</time></trkpt><trkpt lat="41.9427602" lon="13.4183091"><ele>610.6666666666666</ele><time>2026-05-01T15:33:26.635Z</time></trkpt><trkpt lat="41.9428265" lon="13.4180747"><ele>612.0</ele><time>2026-05-01T15:33:27.62Z</time></trkpt><trkpt lat="41.9428922" lon="13.4178643"><ele>612.0</ele><time>2026-05-01T15:33:28.621Z</time></trkpt><trkpt lat="41.9429643" lon="13.417677"><ele>612.0</ele><time>2026-05-01T15:33:29.628Z</time></trkpt><trkpt lat="41.9430506" lon="13.417518"><ele>612.0</ele><time>2026-05-01T15:33:30.625Z</time></trkpt><trkpt lat="41.943151" lon="13.4173817"><ele>612.0</ele><time>2026-05-01T15:33:31.632Z</time></trkpt><trkpt lat="41.9432578" lon="13.4172695"><ele>612.0</ele><time>2026-05-01T15:33:32.626Z</time></trkpt><trkpt lat="41.9433625" lon="13.4171758"><ele>612.0</ele><time>2026-05-01T15:33:33.641Z</time></trkpt><trkpt lat="41.9434511" lon="13.4170904"><ele>612.0</ele><time>2026-05-01T15:33:34.623Z</time></trkpt><trkpt lat="41.9435135" lon="13.4169807"><ele>612.0</ele><time>2026-05-01T15:33:35.63Z</time></trkpt><trkpt lat="41.943543" lon="13.4168422"><ele>612.0</ele><time>2026-05-01T15:33:36.626Z</time></trkpt><trkpt lat="41.9435533" lon="13.4166937"><ele>615.6</ele><time>2026-05-01T15:33:37.628Z</time></trkpt><trkpt lat="41.9435419" lon="13.4165407"><ele>619.2</ele><time>2026-05-01T15:33:38.626Z</time></trkpt><trkpt lat="41.9435216" lon="13.4164048"><ele>622.8</ele><time>2026-05-01T15:33:39.63Z</time></trkpt><trkpt lat="41.9434976" lon="13.4162596"><ele>626.4</ele><time>2026-05-01T15:33:40.626Z</time></trkpt><trkpt lat="41.9434815" lon="13.416108"><ele>630.0</ele><time>2026-05-01T15:33:41.627Z</time></trkpt><trkpt lat="41.9434828" lon="13.4159652"><ele>630.0</ele><time>2026-05-01T15:33:42.64Z</time></trkpt><trkpt lat="41.9435053" lon="13.4158236"><ele>630.0</ele><time>2026-05-01T15:33:43.635Z</time></trkpt><trkpt lat="41.9435494" lon="13.4156877"><ele>630.0</ele><time>2026-05-01T15:33:44.632Z</time></trkpt><trkpt lat="41.943617" lon="13.4155825"><ele>630.0</ele><time>2026-05-01T15:33:45.632Z</time></trkpt><trkpt lat="41.9437014" lon="13.4154854"><ele>630.0</ele><time>2026-05-01T15:33:46.633Z</time></trkpt><trkpt lat="41.9438012" lon="13.4153862"><ele>631.25</ele><time>2026-05-01T15:33:47.637Z</time></trkpt><trkpt lat="41.9439024" lon="13.4152886"><ele>632.5</ele><time>2026-05-01T15:33:48.635Z</time></trkpt><trkpt lat="41.9440107" lon="13.4151677"><ele>633.75</ele><time>2026-05-01T15:33:49.625Z</time></trkpt><trkpt lat="41.9441354" lon="13.4150195"><ele>635.0</ele><time>2026-05-01T15:33:50.63Z</time></trkpt><trkpt lat="41.9442685" lon="13.4148543"><ele>635.0</ele><time>2026-05-01T15:33:51.627Z</time></trkpt><trkpt lat="41.9444031" lon="13.4146772"><ele>635.0</ele><time>2026-05-01T15:33:52.634Z</time></trkpt><trkpt lat="41.9445427" lon="13.4144765"><ele>635.0</ele><time>2026-05-01T15:33:53.63Z</time></trkpt><trkpt lat="41.9446814" lon="13.4142597"><ele>632.0</ele><time>2026-05-01T15:33:54.625Z</time></trkpt><trkpt lat="41.9448137" lon="13.4140511"><ele>629.0</ele><time>2026-05-01T15:33:55.627Z</time></trkpt><trkpt lat="41.9449312" lon="13.4138545"><ele>626.0</ele><time>2026-05-01T15:33:56.627Z</time></trkpt><trkpt lat="41.9450375" lon="13.4136696"><ele>627.0</ele><time>2026-05-01T15:33:57.629Z</time></trkpt><trkpt lat="41.9451473" lon="13.4135083"><ele>628.0</ele><time>2026-05-01T15:33:58.635Z</time></trkpt><trkpt lat="41.9452783" lon="13.4133647"><ele>629.0</ele><time>2026-05-01T15:33:59.637Z</time></trkpt><trkpt lat="41.9454307" lon="13.4132618"><ele>629.0</ele><time>2026-05-01T15:34:00.633Z</time></trkpt><trkpt lat="41.9456015" lon="13.4132028"><ele>629.0</ele><time>2026-05-01T15:34:01.653Z</time></trkpt><trkpt lat="41.9457776" lon="13.4131453"><ele>629.0</ele><time>2026-05-01T15:34:02.635Z</time></trkpt><trkpt lat="41.9459381" lon="13.4130447"><ele>630.6666666666666</ele><time>2026-05-01T15:34:03.634Z</time></trkpt><trkpt lat="41.9460905" lon="13.4128989"><ele>632.3333333333334</ele><time>2026-05-01T15:34:04.637Z</time></trkpt><trkpt lat="41.9462294" lon="13.4127251"><ele>634.0</ele><time>2026-05-01T15:34:05.633Z</time></trkpt><trkpt lat="41.9463583" lon="13.4125599"><ele>634.0</ele><time>2026-05-01T15:34:06.627Z</time></trkpt><trkpt lat="41.9464887" lon="13.4124107"><ele>634.0</ele><time>2026-05-01T15:34:07.636Z</time></trkpt><trkpt lat="41.9466314" lon="13.4122865"><ele>634.0</ele><time>2026-05-01T15:34:08.639Z</time></trkpt><trkpt lat="41.9467815" lon="13.4121823"><ele>633.0</ele><time>2026-05-01T15:34:09.637Z</time></trkpt><trkpt lat="41.9469204" lon="13.4120745"><ele>632.0</ele><time>2026-05-01T15:34:10.652Z</time></trkpt><trkpt lat="41.9470363" lon="13.411908"><ele>631.0</ele><time>2026-05-01T15:34:11.643Z</time></trkpt><trkpt lat="41.9471316" lon="13.411735"><ele>631.0</ele><time>2026-05-01T15:34:12.63Z</time></trkpt><trkpt lat="41.9472325" lon="13.4116023"><ele>631.0</ele><time>2026-05-01T15:34:13.617Z</time></trkpt><trkpt lat="41.947353" lon="13.4115238"><ele>631.0</ele><time>2026-05-01T15:34:14.63Z</time></trkpt><trkpt lat="41.9474925" lon="13.4114938"><ele>631.0</ele><time>2026-05-01T15:34:15.639Z</time></trkpt><trkpt lat="41.9476539" lon="13.4114855"><ele>632.6666666666667</ele><time>2026-05-01T15:34:16.627Z</time></trkpt><trkpt lat="41.9478254" lon="13.4115015"><ele>634.3333333333334</ele><time>2026-05-01T15:34:17.647Z</time></trkpt><trkpt lat="41.9480047" lon="13.4115498"><ele>636.0</ele><time>2026-05-01T15:34:18.626Z</time></trkpt><trkpt lat="41.9481891" lon="13.4116168"><ele>636.0</ele><time>2026-05-01T15:34:19.62Z</time></trkpt><trkpt lat="41.9483661" lon="13.4116828"><ele>636.0</ele><time>2026-05-01T15:34:20.62Z</time></trkpt><trkpt lat="41.9485246" lon="13.4117411"><ele>636.0</ele><time>2026-05-01T15:34:21.634Z</time></trkpt><trkpt lat="41.9486653" lon="13.4117894"><ele>637.75</ele><time>2026-05-01T15:34:22.641Z</time></trkpt><trkpt lat="41.9487857" lon="13.4118269"><ele>639.5</ele><time>2026-05-01T15:34:23.627Z</time></trkpt><trkpt lat="41.9488936" lon="13.4118297"><ele>641.25</ele><time>2026-05-01T15:34:24.627Z</time></trkpt><trkpt lat="41.9489927" lon="13.4117815"><ele>643.0</ele><time>2026-05-01T15:34:25.63Z</time></trkpt><trkpt lat="41.9490741" lon="13.4116668"><ele>643.0</ele><time>2026-05-01T15:34:26.623Z</time></trkpt><trkpt lat="41.9491233" lon="13.4114943"><ele>643.0</ele><time>2026-05-01T15:34:27.623Z</time></trkpt><trkpt lat="41.9491521" lon="13.4112968"><ele>643.0</ele><time>2026-05-01T15:34:28.62Z</time></trkpt><trkpt lat="41.9491874" lon="13.411125"><ele>643.0</ele><time>2026-05-01T15:34:29.632Z</time></trkpt><trkpt lat="41.9492595" lon="13.410982"><ele>642.25</ele><time>2026-05-01T15:34:30.628Z</time></trkpt><trkpt lat="41.9493675" lon="13.4108819"><ele>641.5</ele><time>2026-05-01T15:34:31.621Z</time></trkpt><trkpt lat="41.9494988" lon="13.4108386"><ele>640.75</ele><time>2026-05-01T15:34:32.636Z</time></trkpt><trkpt lat="41.9496386" lon="13.4108539"><ele>640.0</ele><time>2026-05-01T15:34:33.623Z</time></trkpt><trkpt lat="41.9497829" lon="13.4109377"><ele>640.0</ele><time>2026-05-01T15:34:34.63Z</time></trkpt><trkpt lat="41.9499294" lon="13.411048"><ele>640.0</ele><time>2026-05-01T15:34:35.629Z</time></trkpt><trkpt lat="41.9500757" lon="13.4111421"><ele>640.0</ele><time>2026-05-01T15:34:36.627Z</time></trkpt><trkpt lat="41.9502107" lon="13.4112032"><ele>643.25</ele><time>2026-05-01T15:34:37.631Z</time></trkpt><trkpt lat="41.9503301" lon="13.4112224"><ele>646.5</ele><time>2026-05-01T15:34:38.628Z</time></trkpt><trkpt lat="41.9504418" lon="13.4111756"><ele>649.75</ele><time>2026-05-01T15:34:39.636Z</time></trkpt><trkpt lat="41.9505498" lon="13.4110567"><ele>653.0</ele><time>2026-05-01T15:34:40.632Z</time></trkpt><trkpt lat="41.9506444" lon="13.4108674"><ele>653.0</ele><time>2026-05-01T15:34:41.628Z</time></trkpt><trkpt lat="41.9507342" lon="13.4106443"><ele>653.0</ele><time>2026-05-01T15:34:42.628Z</time></trkpt><trkpt lat="41.9508166" lon="13.4104101"><ele>653.0</ele><time>2026-05-01T15:34:43.63Z</time></trkpt><trkpt lat="41.9508744" lon="13.4101702"><ele>655.0</ele><time>2026-05-01T15:34:44.631Z</time></trkpt><trkpt lat="41.950893" lon="13.4099563"><ele>657.0</ele><time>2026-05-01T15:34:45.624Z</time></trkpt><trkpt lat="41.950903" lon="13.4097653"><ele>659.0</ele><time>2026-05-01T15:34:46.631Z</time></trkpt><trkpt lat="41.9509362" lon="13.4095994"><ele>661.0</ele><time>2026-05-01T15:34:47.637Z</time></trkpt><trkpt lat="41.9509993" lon="13.4094712"><ele>656.75</ele><time>2026-05-01T15:34:48.627Z</time></trkpt><trkpt lat="41.9510921" lon="13.4094052"><ele>652.5</ele><time>2026-05-01T15:34:49.629Z</time></trkpt><trkpt lat="41.9512061" lon="13.4093881"><ele>648.25</ele><time>2026-05-01T15:34:50.623Z</time></trkpt><trkpt lat="41.9513323" lon="13.409444"><ele>644.0</ele><time>2026-05-01T15:34:51.628Z</time></trkpt><trkpt lat="41.9514648" lon="13.4095281"><ele>644.0</ele><time>2026-05-01T15:34:52.636Z</time></trkpt><trkpt lat="41.9516219" lon="13.4096103"><ele>644.0</ele><time>2026-05-01T15:34:53.646Z</time></trkpt><trkpt lat="41.9517946" lon="13.4096731"><ele>644.0</ele><time>2026-05-01T15:34:54.628Z</time></trkpt><trkpt lat="41.9519633" lon="13.4097079"><ele>646.3333333333333</ele><time>2026-05-01T15:34:55.639Z</time></trkpt><trkpt lat="41.9521133" lon="13.4097132"><ele>648.6666666666666</ele><time>2026-05-01T15:34:56.63Z</time></trkpt><trkpt lat="41.9522618" lon="13.4096769"><ele>651.0</ele><time>2026-05-01T15:34:57.637Z</time></trkpt><trkpt lat="41.9524131" lon="13.4095787"><ele>659.3333333333334</ele><time>2026-05-01T15:34:58.629Z</time></trkpt><trkpt lat="41.9525596" lon="13.409429"><ele>667.6666666666667</ele><time>2026-05-01T15:34:59.629Z</time></trkpt><trkpt lat="41.952708" lon="13.4092695"><ele>676.0</ele><time>2026-05-01T15:35:00.631Z</time></trkpt><trkpt lat="41.9528505" lon="13.4091129"><ele>676.0</ele><time>2026-05-01T15:35:01.62Z</time></trkpt><trkpt lat="41.9529859" lon="13.4089595"><ele>676.0</ele><time>2026-05-01T15:35:02.636Z</time></trkpt><trkpt lat="41.9531119" lon="13.4087926"><ele>676.0</ele><time>2026-05-01T15:35:03.62Z</time></trkpt><trkpt lat="41.953223" lon="13.4085946"><ele>671.6666666666667</ele><time>2026-05-01T15:35:04.635Z</time></trkpt><trkpt lat="41.9533269" lon="13.4083883"><ele>667.3333333333334</ele><time>2026-05-01T15:35:05.635Z</time></trkpt><trkpt lat="41.953424" lon="13.4081998"><ele>663.0</ele><time>2026-05-01T15:35:06.628Z</time></trkpt><trkpt lat="41.9535216" lon="13.4080308"><ele>666.0</ele><time>2026-05-01T15:35:07.631Z</time></trkpt><trkpt lat="41.953638" lon="13.4078723"><ele>669.0</ele><time>2026-05-01T15:35:08.638Z</time></trkpt><trkpt lat="41.9537792" lon="13.4077297"><ele>672.0</ele><time>2026-05-01T15:35:09.629Z</time></trkpt><trkpt lat="41.9539359" lon="13.4076038"><ele>672.0</ele><time>2026-05-01T15:35:10.633Z</time></trkpt><trkpt lat="41.9540868" lon="13.4074729"><ele>672.0</ele><time>2026-05-01T15:35:11.627Z</time></trkpt><trkpt lat="41.954216" lon="13.4073565"><ele>672.0</ele><time>2026-05-01T15:35:12.629Z</time></trkpt><trkpt lat="41.9543165" lon="13.4072313"><ele>678.6666666666666</ele><time>2026-05-01T15:35:13.622Z</time></trkpt><trkpt lat="41.954393" lon="13.4070718"><ele>685.3333333333333</ele><time>2026-05-01T15:35:14.636Z</time></trkpt><trkpt lat="41.9544319" lon="13.4068721"><ele>692.0</ele><time>2026-05-01T15:35:15.627Z</time></trkpt><trkpt lat="41.9544261" lon="13.4066453"><ele>692.0</ele><time>2026-05-01T15:35:16.63Z</time></trkpt><trkpt lat="41.954398" lon="13.4064065"><ele>692.0</ele><time>2026-05-01T15:35:17.628Z</time></trkpt><trkpt lat="41.9543709" lon="13.4061503"><ele>692.0</ele><time>2026-05-01T15:35:18.623Z</time></trkpt><trkpt lat="41.9543706" lon="13.4058862"><ele>692.0</ele><time>2026-05-01T15:35:19.641Z</time></trkpt><trkpt lat="41.9543817" lon="13.4056464"><ele>692.0</ele><time>2026-05-01T15:35:20.615Z</time></trkpt><trkpt lat="41.9543929" lon="13.4054378"><ele>692.0</ele><time>2026-05-01T15:35:21.631Z</time></trkpt><trkpt lat="41.9544092" lon="13.4052541"><ele>691.25</ele><time>2026-05-01T15:35:22.629Z</time></trkpt><trkpt lat="41.9544298" lon="13.4050808"><ele>690.5</ele><time>2026-05-01T15:35:23.636Z</time></trkpt><trkpt lat="41.9544814" lon="13.4049141"><ele>689.75</ele><time>2026-05-01T15:35:24.628Z</time></trkpt><trkpt lat="41.9545748" lon="13.4047753"><ele>689.0</ele><time>2026-05-01T15:35:25.63Z</time></trkpt><trkpt lat="41.9547099" lon="13.404654"><ele>685.3333333333333</ele><time>2026-05-01T15:35:26.633Z</time></trkpt><trkpt lat="41.954848" lon="13.4045365"><ele>681.6666666666666</ele><time>2026-05-01T15:35:27.628Z</time></trkpt><trkpt lat="41.9549869" lon="13.4043897"><ele>678.0</ele><time>2026-05-01T15:35:28.63Z</time></trkpt><trkpt lat="41.9551173" lon="13.4042319"><ele>686.3333333333334</ele><time>2026-05-01T15:35:29.623Z</time></trkpt><trkpt lat="41.9552305" lon="13.4040718"><ele>694.6666666666667</ele><time>2026-05-01T15:35:30.63Z</time></trkpt><trkpt lat="41.955331" lon="13.4039066"><ele>703.0</ele><time>2026-05-01T15:35:31.625Z</time></trkpt><trkpt lat="41.9553999" lon="13.4037139"><ele>703.0</ele><time>2026-05-01T15:35:32.629Z</time></trkpt><trkpt lat="41.9554303" lon="13.4034877"><ele>703.0</ele><time>2026-05-01T15:35:33.625Z</time></trkpt><trkpt lat="41.9554385" lon="13.4032275"><ele>703.0</ele><time>2026-05-01T15:35:34.631Z</time></trkpt><trkpt lat="41.9554259" lon="13.4029249"><ele>705.0</ele><time>2026-05-01T15:35:35.636Z</time></trkpt><trkpt lat="41.955408" lon="13.4025965"><ele>707.0</ele><time>2026-05-01T15:35:36.624Z</time></trkpt><trkpt lat="41.955393" lon="13.4022644"><ele>706.6666666666666</ele><time>2026-05-01T15:35:37.642Z</time></trkpt><trkpt lat="41.9553872" lon="13.4019709"><ele>706.3333333333334</ele><time>2026-05-01T15:35:38.631Z</time></trkpt><trkpt lat="41.9553784" lon="13.4017137"><ele>706.0</ele><time>2026-05-01T15:35:39.631Z</time></trkpt><trkpt lat="41.9553723" lon="13.4015067"><ele>706.0</ele><time>2026-05-01T15:35:40.633Z</time></trkpt><trkpt lat="41.9553609" lon="13.4013363"><ele>706.0</ele><time>2026-05-01T15:35:41.631Z</time></trkpt><trkpt lat="41.9553341" lon="13.4011651"><ele>706.0</ele><time>2026-05-01T15:35:42.643Z</time></trkpt><trkpt lat="41.9552724" lon="13.4010053"><ele>706.0</ele><time>2026-05-01T15:35:43.629Z</time></trkpt><trkpt lat="41.9551554" lon="13.4008948"><ele>701.5</ele><time>2026-05-01T15:35:44.634Z</time></trkpt><trkpt lat="41.9550132" lon="13.4008057"><ele>697.0</ele><time>2026-05-01T15:35:45.632Z</time></trkpt><trkpt lat="41.9549033" lon="13.4007205"><ele>692.5</ele><time>2026-05-01T15:35:46.638Z</time></trkpt><trkpt lat="41.9548445" lon="13.4006247"><ele>688.0</ele><time>2026-05-01T15:35:47.631Z</time></trkpt><trkpt lat="41.9548097" lon="13.4005039"><ele>691.3333333333334</ele><time>2026-05-01T15:35:48.626Z</time></trkpt><trkpt lat="41.9548049" lon="13.4003288"><ele>694.6666666666666</ele><time>2026-05-01T15:35:49.622Z</time></trkpt><trkpt lat="41.9548198" lon="13.4000964"><ele>698.0</ele><time>2026-05-01T15:35:50.628Z</time></trkpt><trkpt lat="41.9548275" lon="13.3998435"><ele>696.6666666666666</ele><time>2026-05-01T15:35:51.623Z</time></trkpt><trkpt lat="41.9548404" lon="13.3995928"><ele>695.3333333333334</ele><time>2026-05-01T15:35:52.632Z</time></trkpt><trkpt lat="41.9548759" lon="13.399339"><ele>694.0</ele><time>2026-05-01T15:35:53.626Z</time></trkpt><trkpt lat="41.9549365" lon="13.3990803"><ele>690.3333333333334</ele><time>2026-05-01T15:35:54.631Z</time></trkpt><trkpt lat="41.9549982" lon="13.3988279"><ele>686.6666666666666</ele><time>2026-05-01T15:35:55.622Z</time></trkpt><trkpt lat="41.9550658" lon="13.398589"><ele>683.0</ele><time>2026-05-01T15:35:56.628Z</time></trkpt><trkpt lat="41.955135" lon="13.3983747"><ele>690.3333333333333</ele><time>2026-05-01T15:35:57.633Z</time></trkpt><trkpt lat="41.9551995" lon="13.3981591"><ele>697.6666666666666</ele><time>2026-05-01T15:35:58.626Z</time></trkpt><trkpt lat="41.9552596" lon="13.3979426"><ele>705.0</ele><time>2026-05-01T15:35:59.635Z</time></trkpt><trkpt lat="41.955322" lon="13.397737"><ele>705.0</ele><time>2026-05-01T15:36:00.618Z</time></trkpt><trkpt lat="41.9553879" lon="13.3975521"><ele>705.0</ele><time>2026-05-01T15:36:01.62Z</time></trkpt><trkpt lat="41.9554507" lon="13.3973929"><ele>705.0</ele><time>2026-05-01T15:36:02.634Z</time></trkpt><trkpt lat="41.9555087" lon="13.3972669"><ele>705.0</ele><time>2026-05-01T15:36:03.634Z</time></trkpt><trkpt lat="41.9555742" lon="13.3971672"><ele>701.75</ele><time>2026-05-01T15:36:04.627Z</time></trkpt><trkpt lat="41.9556626" lon="13.3970957"><ele>698.5</ele><time>2026-05-01T15:36:05.627Z</time></trkpt><trkpt lat="41.9557781" lon="13.3970675"><ele>695.25</ele><time>2026-05-01T15:36:06.632Z</time></trkpt><trkpt lat="41.955906" lon="13.3971019"><ele>692.0</ele><time>2026-05-01T15:36:07.634Z</time></trkpt><trkpt lat="41.9560253" lon="13.3971858"><ele>692.0</ele><time>2026-05-01T15:36:08.626Z</time></trkpt><trkpt lat="41.9561391" lon="13.3973035"><ele>692.0</ele><time>2026-05-01T15:36:09.625Z</time></trkpt><trkpt lat="41.9562286" lon="13.3974246"><ele>692.0</ele><time>2026-05-01T15:36:10.631Z</time></trkpt><trkpt lat="41.956304" lon="13.3975495"><ele>692.0</ele><time>2026-05-01T15:36:11.631Z</time></trkpt><trkpt lat="41.9563747" lon="13.3976837"><ele>692.0</ele><time>2026-05-01T15:36:12.628Z</time></trkpt><trkpt lat="41.9564479" lon="13.3977971"><ele>692.0</ele><time>2026-05-01T15:36:13.623Z</time></trkpt><trkpt lat="41.956523" lon="13.3978909"><ele>692.0</ele><time>2026-05-01T15:36:14.625Z</time></trkpt><trkpt lat="41.9566083" lon="13.3979786"><ele>692.0</ele><time>2026-05-01T15:36:15.627Z</time></trkpt><trkpt lat="41.9567016" lon="13.3980512"><ele>692.0</ele><time>2026-05-01T15:36:16.633Z</time></trkpt><trkpt lat="41.9568013" lon="13.3980904"><ele>692.0</ele><time>2026-05-01T15:36:17.629Z</time></trkpt><trkpt lat="41.9569161" lon="13.3981038"><ele>692.0</ele><time>2026-05-01T15:36:18.625Z</time></trkpt><trkpt lat="41.9570497" lon="13.3980891"><ele>692.0</ele><time>2026-05-01T15:36:19.635Z</time></trkpt><trkpt lat="41.9571915" lon="13.3980404"><ele>692.0</ele><time>2026-05-01T15:36:20.633Z</time></trkpt><trkpt lat="41.957354" lon="13.3979578"><ele>692.0</ele><time>2026-05-01T15:36:21.631Z</time></trkpt><trkpt lat="41.9575256" lon="13.3978793"><ele>692.0</ele><time>2026-05-01T15:36:22.63Z</time></trkpt><trkpt lat="41.9576839" lon="13.3977893"><ele>692.0</ele><time>2026-05-01T15:36:23.636Z</time></trkpt><trkpt lat="41.9578249" lon="13.3976697"><ele>696.3333333333333</ele><time>2026-05-01T15:36:24.624Z</time></trkpt><trkpt lat="41.9579498" lon="13.3975148"><ele>700.6666666666666</ele><time>2026-05-01T15:36:25.627Z</time></trkpt><trkpt lat="41.9580541" lon="13.3973349"><ele>705.0</ele><time>2026-05-01T15:36:26.627Z</time></trkpt><trkpt lat="41.9581557" lon="13.397162"><ele>705.0</ele><time>2026-05-01T15:36:27.639Z</time></trkpt><trkpt lat="41.9582765" lon="13.3970045"><ele>705.0</ele><time>2026-05-01T15:36:28.632Z</time></trkpt><trkpt lat="41.9583941" lon="13.3968727"><ele>705.0</ele><time>2026-05-01T15:36:29.619Z</time></trkpt><trkpt lat="41.9584918" lon="13.3967238"><ele>720.3333333333334</ele><time>2026-05-01T15:36:30.631Z</time></trkpt><trkpt lat="41.9585697" lon="13.3965204"><ele>735.6666666666667</ele><time>2026-05-01T15:36:31.637Z</time></trkpt><trkpt lat="41.9586527" lon="13.3963028"><ele>751.0</ele><time>2026-05-01T15:36:32.631Z</time></trkpt><trkpt lat="41.958752" lon="13.3961"><ele>751.0</ele><time>2026-05-01T15:36:33.629Z</time></trkpt><trkpt lat="41.958839" lon="13.3958834"><ele>751.0</ele><time>2026-05-01T15:36:34.628Z</time></trkpt><trkpt lat="41.9589164" lon="13.3956555"><ele>751.0</ele><time>2026-05-01T15:36:35.628Z</time></trkpt><trkpt lat="41.9589954" lon="13.3954549"><ele>744.5</ele><time>2026-05-01T15:36:36.633Z</time></trkpt><trkpt lat="41.9590804" lon="13.3952817"><ele>738.0</ele><time>2026-05-01T15:36:37.628Z</time></trkpt><trkpt lat="41.9591492" lon="13.3951217"><ele>731.5</ele><time>2026-05-01T15:36:38.626Z</time></trkpt><trkpt lat="41.9591874" lon="13.394944"><ele>725.0</ele><time>2026-05-01T15:36:39.631Z</time></trkpt><trkpt lat="41.9591793" lon="13.3947751"><ele>720.8</ele><time>2026-05-01T15:36:40.624Z</time></trkpt><trkpt lat="41.9591566" lon="13.3946172"><ele>716.6</ele><time>2026-05-01T15:36:41.619Z</time></trkpt><trkpt lat="41.9591458" lon="13.3944723"><ele>712.4000000000001</ele><time>2026-05-01T15:36:42.62Z</time></trkpt><trkpt lat="41.9591659" lon="13.3943438"><ele>708.2</ele><time>2026-05-01T15:36:43.62Z</time></trkpt><trkpt lat="41.9592249" lon="13.3942421"><ele>704.0</ele><time>2026-05-01T15:36:44.621Z</time></trkpt><trkpt lat="41.9593336" lon="13.3941715"><ele>712.5</ele><time>2026-05-01T15:36:45.625Z</time></trkpt><trkpt lat="41.9594627" lon="13.3940871"><ele>721.0</ele><time>2026-05-01T15:36:46.629Z</time></trkpt><trkpt lat="41.959574" lon="13.3939812"><ele>729.5</ele><time>2026-05-01T15:36:47.634Z</time></trkpt><trkpt lat="41.9596631" lon="13.3938147"><ele>738.0</ele><time>2026-05-01T15:36:48.628Z</time></trkpt><trkpt lat="41.959737" lon="13.3935814"><ele>738.0</ele><time>2026-05-01T15:36:49.625Z</time></trkpt><trkpt lat="41.9598177" lon="13.3933293"><ele>738.0</ele><time>2026-05-01T15:36:50.625Z</time></trkpt><trkpt lat="41.9598996" lon="13.3930935"><ele>738.0</ele><time>2026-05-01T15:36:51.633Z</time></trkpt><trkpt lat="41.9599853" lon="13.3928811"><ele>741.6666666666666</ele><time>2026-05-01T15:36:52.629Z</time></trkpt><trkpt lat="41.960086" lon="13.3926793"><ele>745.3333333333333</ele><time>2026-05-01T15:36:53.619Z</time></trkpt><trkpt lat="41.960191" lon="13.3924828"><ele>749.0</ele><time>2026-05-01T15:36:54.622Z</time></trkpt><trkpt lat="41.9602905" lon="13.3923038"><ele>741.6666666666666</ele><time>2026-05-01T15:36:55.63Z</time></trkpt><trkpt lat="41.9603938" lon="13.3921511"><ele>734.3333333333334</ele><time>2026-05-01T15:36:56.629Z</time></trkpt><trkpt lat="41.960509" lon="13.3920082"><ele>727.0</ele><time>2026-05-01T15:36:57.627Z</time></trkpt><trkpt lat="41.9606357" lon="13.3918785"><ele>727.0</ele><time>2026-05-01T15:36:58.631Z</time></trkpt><trkpt lat="41.9607661" lon="13.391769"><ele>727.0</ele><time>2026-05-01T15:36:59.633Z</time></trkpt><trkpt lat="41.9609007" lon="13.3916606"><ele>727.0</ele><time>2026-05-01T15:37:00.629Z</time></trkpt><trkpt lat="41.9610259" lon="13.3915711"><ele>732.0</ele><time>2026-05-01T15:37:01.63Z</time></trkpt><trkpt lat="41.9611492" lon="13.3914952"><ele>737.0</ele><time>2026-05-01T15:37:02.624Z</time></trkpt><trkpt lat="41.9612867" lon="13.3914485"><ele>742.0</ele><time>2026-05-01T15:37:03.651Z</time></trkpt><trkpt lat="41.9614314" lon="13.3914256"><ele>747.0</ele><time>2026-05-01T15:37:04.629Z</time></trkpt><trkpt lat="41.9615766" lon="13.3914053"><ele>745.0</ele><time>2026-05-01T15:37:05.624Z</time></trkpt><trkpt lat="41.9617122" lon="13.3913621"><ele>743.0</ele><time>2026-05-01T15:37:06.628Z</time></trkpt><trkpt lat="41.9618495" lon="13.3912844"><ele>741.0</ele><time>2026-05-01T15:37:07.628Z</time></trkpt><trkpt lat="41.9619823" lon="13.3911763"><ele>739.0</ele><time>2026-05-01T15:37:08.634Z</time></trkpt><trkpt lat="41.9621062" lon="13.3910568"><ele>739.0</ele><time>2026-05-01T15:37:09.631Z</time></trkpt><trkpt lat="41.9622225" lon="13.3909398"><ele>739.0</ele><time>2026-05-01T15:37:10.633Z</time></trkpt><trkpt lat="41.9623353" lon="13.3908262"><ele>739.0</ele><time>2026-05-01T15:37:11.619Z</time></trkpt><trkpt lat="41.9624555" lon="13.3907177"><ele>739.0</ele><time>2026-05-01T15:37:12.627Z</time></trkpt><trkpt lat="41.9625852" lon="13.3906278"><ele>737.5</ele><time>2026-05-01T15:37:13.631Z</time></trkpt><trkpt lat="41.9627212" lon="13.3905589"><ele>736.0</ele><time>2026-05-01T15:37:14.628Z</time></trkpt><trkpt lat="41.9628585" lon="13.3904973"><ele>734.5</ele><time>2026-05-01T15:37:15.63Z</time></trkpt><trkpt lat="41.9629868" lon="13.390433"><ele>733.0</ele><time>2026-05-01T15:37:16.627Z</time></trkpt><trkpt lat="41.9631111" lon="13.3903763"><ele>733.0</ele><time>2026-05-01T15:37:17.636Z</time></trkpt><trkpt lat="41.9632309" lon="13.3903266"><ele>733.0</ele><time>2026-05-01T15:37:18.629Z</time></trkpt><trkpt lat="41.9633519" lon="13.3902845"><ele>733.0</ele><time>2026-05-01T15:37:19.624Z</time></trkpt><trkpt lat="41.9634733" lon="13.390248"><ele>733.0</ele><time>2026-05-01T15:37:20.623Z</time></trkpt><trkpt lat="41.9635948" lon="13.3902249"><ele>734.75</ele><time>2026-05-01T15:37:21.631Z</time></trkpt><trkpt lat="41.9637197" lon="13.3902075"><ele>736.5</ele><time>2026-05-01T15:37:22.632Z</time></trkpt><trkpt lat="41.9638409" lon="13.3901971"><ele>738.25</ele><time>2026-05-01T15:37:23.625Z</time></trkpt><trkpt lat="41.9639634" lon="13.3901989"><ele>740.0</ele><time>2026-05-01T15:37:24.615Z</time></trkpt><trkpt lat="41.9640901" lon="13.3901964"><ele>739.6</ele><time>2026-05-01T15:37:25.655Z</time></trkpt><trkpt lat="41.9642135" lon="13.3902032"><ele>739.2</ele><time>2026-05-01T15:37:26.626Z</time></trkpt><trkpt lat="41.9643218" lon="13.390216"><ele>738.8</ele><time>2026-05-01T15:37:27.638Z</time></trkpt><trkpt lat="41.9644213" lon="13.3902358"><ele>738.4</ele><time>2026-05-01T15:37:28.633Z</time></trkpt><trkpt lat="41.9645209" lon="13.3902684"><ele>738.0</ele><time>2026-05-01T15:37:29.636Z</time></trkpt><trkpt lat="41.9646228" lon="13.3903174"><ele>738.0</ele><time>2026-05-01T15:37:30.638Z</time></trkpt><trkpt lat="41.9647268" lon="13.3903913"><ele>738.0</ele><time>2026-05-01T15:37:31.629Z</time></trkpt><trkpt lat="41.9648233" lon="13.3904828"><ele>738.0</ele><time>2026-05-01T15:37:32.627Z</time></trkpt><trkpt lat="41.9649215" lon="13.3905922"><ele>738.0</ele><time>2026-05-01T15:37:33.635Z</time></trkpt><trkpt lat="41.9650316" lon="13.3907088"><ele>738.25</ele><time>2026-05-01T15:37:34.633Z</time></trkpt><trkpt lat="41.9651422" lon="13.3908337"><ele>738.5</ele><time>2026-05-01T15:37:35.636Z</time></trkpt><trkpt lat="41.9652495" lon="13.3909612"><ele>738.75</ele><time>2026-05-01T15:37:36.638Z</time></trkpt><trkpt lat="41.9653566" lon="13.3910816"><ele>739.0</ele><time>2026-05-01T15:37:37.639Z</time></trkpt><trkpt lat="41.9654651" lon="13.3912002"><ele>739.0</ele><time>2026-05-01T15:37:38.633Z</time></trkpt><trkpt lat="41.9655819" lon="13.3913038"><ele>739.0</ele><time>2026-05-01T15:37:39.631Z</time></trkpt><trkpt lat="41.9656928" lon="13.391413"><ele>739.0</ele><time>2026-05-01T15:37:40.635Z</time></trkpt><trkpt lat="41.9658017" lon="13.391511"><ele>739.0</ele><time>2026-05-01T15:37:41.637Z</time></trkpt><trkpt lat="41.9659112" lon="13.3915966"><ele>739.25</ele><time>2026-05-01T15:37:42.629Z</time></trkpt><trkpt lat="41.9660234" lon="13.3916725"><ele>739.5</ele><time>2026-05-01T15:37:43.635Z</time></trkpt><trkpt lat="41.9661332" lon="13.3917444"><ele>739.75</ele><time>2026-05-01T15:37:44.636Z</time></trkpt><trkpt lat="41.9662411" lon="13.3918158"><ele>740.0</ele><time>2026-05-01T15:37:45.638Z</time></trkpt><trkpt lat="41.9663491" lon="13.3918926"><ele>740.0</ele><time>2026-05-01T15:37:46.635Z</time></trkpt><trkpt lat="41.9664605" lon="13.3919635"><ele>740.0</ele><time>2026-05-01T15:37:47.642Z</time></trkpt><trkpt lat="41.9665755" lon="13.3920353"><ele>740.0</ele><time>2026-05-01T15:37:48.617Z</time></trkpt><trkpt lat="41.9666901" lon="13.3921115"><ele>740.0</ele><time>2026-05-01T15:37:49.637Z</time></trkpt><trkpt lat="41.9668034" lon="13.3921892"><ele>739.5</ele><time>2026-05-01T15:37:50.635Z</time></trkpt><trkpt lat="41.966916" lon="13.3922602"><ele>739.0</ele><time>2026-05-01T15:37:51.629Z</time></trkpt><trkpt lat="41.9670312" lon="13.3923398"><ele>738.5</ele><time>2026-05-01T15:37:52.651Z</time></trkpt><trkpt lat="41.9671446" lon="13.3924177"><ele>738.0</ele><time>2026-05-01T15:37:53.625Z</time></trkpt><trkpt lat="41.9672578" lon="13.3924953"><ele>738.0</ele><time>2026-05-01T15:37:54.638Z</time></trkpt><trkpt lat="41.9673717" lon="13.3925703"><ele>738.0</ele><time>2026-05-01T15:37:55.629Z</time></trkpt><trkpt lat="41.9674846" lon="13.3926501"><ele>738.0</ele><time>2026-05-01T15:37:56.636Z</time></trkpt><trkpt lat="41.9675995" lon="13.3927302"><ele>738.0</ele><time>2026-05-01T15:37:57.639Z</time></trkpt><trkpt lat="41.9677144" lon="13.3928102"><ele>738.0</ele><time>2026-05-01T15:37:58.638Z</time></trkpt><trkpt lat="41.9678324" lon="13.3928885"><ele>738.0</ele><time>2026-05-01T15:37:59.639Z</time></trkpt><trkpt lat="41.9679471" lon="13.3929584"><ele>738.0</ele><time>2026-05-01T15:38:00.632Z</time></trkpt><trkpt lat="41.9680537" lon="13.3930216"><ele>738.0</ele><time>2026-05-01T15:38:01.629Z</time></trkpt><trkpt lat="41.968151" lon="13.393082"><ele>738.2</ele><time>2026-05-01T15:38:02.633Z</time></trkpt><trkpt lat="41.9682344" lon="13.3931474"><ele>738.4</ele><time>2026-05-01T15:38:03.627Z</time></trkpt><trkpt lat="41.9683056" lon="13.3932131"><ele>738.6</ele><time>2026-05-01T15:38:04.634Z</time></trkpt><trkpt lat="41.9683692" lon="13.3932933"><ele>738.8000000000001</ele><time>2026-05-01T15:38:05.645Z</time></trkpt><trkpt lat="41.9684367" lon="13.3933754"><ele>739.0</ele><time>2026-05-01T15:38:06.639Z</time></trkpt><trkpt lat="41.9685255" lon="13.3934667"><ele>739.0</ele><time>2026-05-01T15:38:07.638Z</time></trkpt><trkpt lat="41.9686177" lon="13.3935587"><ele>739.0</ele><time>2026-05-01T15:38:08.636Z</time></trkpt><trkpt lat="41.9687025" lon="13.3936644"><ele>739.0</ele><time>2026-05-01T15:38:09.633Z</time></trkpt><trkpt lat="41.9687838" lon="13.3937836"><ele>739.0</ele><time>2026-05-01T15:38:10.64Z</time></trkpt><trkpt lat="41.9688674" lon="13.3939076"><ele>738.4000000000001</ele><time>2026-05-01T15:38:11.643Z</time></trkpt><trkpt lat="41.9689513" lon="13.3940261"><ele>737.8</ele><time>2026-05-01T15:38:12.639Z</time></trkpt><trkpt lat="41.9690295" lon="13.394142"><ele>737.2</ele><time>2026-05-01T15:38:13.633Z</time></trkpt><trkpt lat="41.9691008" lon="13.3942493"><ele>736.5999999999999</ele><time>2026-05-01T15:38:14.635Z</time></trkpt><trkpt lat="41.9691689" lon="13.3943488"><ele>736.0</ele><time>2026-05-01T15:38:15.639Z</time></trkpt><trkpt lat="41.9692315" lon="13.3944506"><ele>736.0</ele><time>2026-05-01T15:38:16.637Z</time></trkpt><trkpt lat="41.9692919" lon="13.3945418"><ele>736.0</ele><time>2026-05-01T15:38:17.634Z</time></trkpt><trkpt lat="41.9693504" lon="13.3946352"><ele>736.0</ele><time>2026-05-01T15:38:18.63Z</time></trkpt><trkpt lat="41.9694143" lon="13.3947242"><ele>736.0</ele><time>2026-05-01T15:38:19.636Z</time></trkpt><trkpt lat="41.9694737" lon="13.3948101"><ele>736.0</ele><time>2026-05-01T15:38:20.633Z</time></trkpt><trkpt lat="41.9695351" lon="13.3948969"><ele>735.5</ele><time>2026-05-01T15:38:21.636Z</time></trkpt><trkpt lat="41.9695945" lon="13.3949859"><ele>735.0</ele><time>2026-05-01T15:38:22.637Z</time></trkpt><trkpt lat="41.9696474" lon="13.395071"><ele>734.5</ele><time>2026-05-01T15:38:23.632Z</time></trkpt><trkpt lat="41.9697001" lon="13.3951559"><ele>734.0</ele><time>2026-05-01T15:38:24.631Z</time></trkpt><trkpt lat="41.9697532" lon="13.3952326"><ele>733.5</ele><time>2026-05-01T15:38:25.627Z</time></trkpt><trkpt lat="41.9698054" lon="13.3953165"><ele>733.0</ele><time>2026-05-01T15:38:26.635Z</time></trkpt><trkpt lat="41.9698599" lon="13.3953989"><ele>733.0</ele><time>2026-05-01T15:38:27.634Z</time></trkpt><trkpt lat="41.9699247" lon="13.3954834"><ele>733.0</ele><time>2026-05-01T15:38:28.625Z</time></trkpt><trkpt lat="41.9699878" lon="13.3955739"><ele>733.0</ele><time>2026-05-01T15:38:29.633Z</time></trkpt><trkpt lat="41.9700462" lon="13.3956644"><ele>733.0</ele><time>2026-05-01T15:38:30.629Z</time></trkpt><trkpt lat="41.9700988" lon="13.3957455"><ele>733.0</ele><time>2026-05-01T15:38:31.634Z</time></trkpt><trkpt lat="41.970154" lon="13.3958259"><ele>733.0</ele><time>2026-05-01T15:38:32.638Z</time></trkpt><trkpt lat="41.9702042" lon="13.3959064"><ele>732.6666666666667</ele><time>2026-05-01T15:38:33.627Z</time></trkpt><trkpt lat="41.970258" lon="13.3959803"><ele>732.3333333333334</ele><time>2026-05-01T15:38:34.638Z</time></trkpt><trkpt lat="41.9703098" lon="13.3960539"><ele>732.0</ele><time>2026-05-01T15:38:35.615Z</time></trkpt><trkpt lat="41.970358" lon="13.396127"><ele>731.6666666666666</ele><time>2026-05-01T15:38:36.637Z</time></trkpt><trkpt lat="41.9704099" lon="13.3962025"><ele>731.3333333333333</ele><time>2026-05-01T15:38:37.638Z</time></trkpt><trkpt lat="41.9704836" lon="13.3962985"><ele>731.0</ele><time>2026-05-01T15:38:38.631Z</time></trkpt><trkpt lat="41.9705656" lon="13.396414"><ele>730.5</ele><time>2026-05-01T15:38:39.635Z</time></trkpt><trkpt lat="41.9706477" lon="13.3965563"><ele>730.0</ele><time>2026-05-01T15:38:40.633Z</time></trkpt><trkpt lat="41.9707354" lon="13.3967002"><ele>729.5</ele><time>2026-05-01T15:38:41.638Z</time></trkpt><trkpt lat="41.9708315" lon="13.3968489"><ele>729.0</ele><time>2026-05-01T15:38:42.628Z</time></trkpt><trkpt lat="41.9709263" lon="13.396988"><ele>729.0</ele><time>2026-05-01T15:38:43.629Z</time></trkpt><trkpt lat="41.9710224" lon="13.3971281"><ele>729.0</ele><time>2026-05-01T15:38:44.633Z</time></trkpt><trkpt lat="41.9711194" lon="13.397272"><ele>729.0</ele><time>2026-05-01T15:38:45.633Z</time></trkpt><trkpt lat="41.971215" lon="13.3974175"><ele>729.0</ele><time>2026-05-01T15:38:46.636Z</time></trkpt><trkpt lat="41.9713106" lon="13.3975629"><ele>729.0</ele><time>2026-05-01T15:38:47.63Z</time></trkpt><trkpt lat="41.9714066" lon="13.3977097"><ele>729.0</ele><time>2026-05-01T15:38:48.636Z</time></trkpt><trkpt lat="41.971506" lon="13.3978584"><ele>729.0</ele><time>2026-05-01T15:38:49.633Z</time></trkpt><trkpt lat="41.9716054" lon="13.3980052"><ele>729.0</ele><time>2026-05-01T15:38:50.634Z</time></trkpt><trkpt lat="41.9717037" lon="13.3981504"><ele>728.25</ele><time>2026-05-01T15:38:51.641Z</time></trkpt><trkpt lat="41.971805" lon="13.3982949"><ele>727.5</ele><time>2026-05-01T15:38:52.632Z</time></trkpt><trkpt lat="41.9718964" lon="13.3984315"><ele>726.75</ele><time>2026-05-01T15:38:53.628Z</time></trkpt><trkpt lat="41.9719788" lon="13.3985616"><ele>726.0</ele><time>2026-05-01T15:38:54.632Z</time></trkpt><trkpt lat="41.9720595" lon="13.3986792"><ele>726.0</ele><time>2026-05-01T15:38:55.638Z</time></trkpt><trkpt lat="41.9721378" lon="13.3987862"><ele>726.0</ele><time>2026-05-01T15:38:56.641Z</time></trkpt><trkpt lat="41.9722089" lon="13.3988895"><ele>726.0</ele><time>2026-05-01T15:38:57.642Z</time></trkpt><trkpt lat="41.9722767" lon="13.39898"><ele>726.0</ele><time>2026-05-01T15:38:58.64Z</time></trkpt><trkpt lat="41.9723495" lon="13.3990797"><ele>726.0</ele><time>2026-05-01T15:38:59.638Z</time></trkpt><trkpt lat="41.9724324" lon="13.3992013"><ele>725.75</ele><time>2026-05-01T15:39:00.634Z</time></trkpt><trkpt lat="41.9725204" lon="13.3993317"><ele>725.5</ele><time>2026-05-01T15:39:01.634Z</time></trkpt><trkpt lat="41.9726093" lon="13.3994615"><ele>725.25</ele><time>2026-05-01T15:39:02.628Z</time></trkpt><trkpt lat="41.9726946" lon="13.3995966"><ele>725.0</ele><time>2026-05-01T15:39:03.643Z</time></trkpt><trkpt lat="41.9727883" lon="13.3997312"><ele>725.0</ele><time>2026-05-01T15:39:04.634Z</time></trkpt><trkpt lat="41.9728974" lon="13.3998803"><ele>725.0</ele><time>2026-05-01T15:39:05.641Z</time></trkpt><trkpt lat="41.9730172" lon="13.4000469"><ele>725.0</ele><time>2026-05-01T15:39:06.637Z</time></trkpt><trkpt lat="41.9731384" lon="13.4002309"><ele>725.0</ele><time>2026-05-01T15:39:07.631Z</time></trkpt><trkpt lat="41.9732527" lon="13.4004043"><ele>725.0</ele><time>2026-05-01T15:39:08.635Z</time></trkpt><trkpt lat="41.9733461" lon="13.4005454"><ele>725.0</ele><time>2026-05-01T15:39:09.639Z</time></trkpt><trkpt lat="41.9734199" lon="13.4006566"><ele>725.0</ele><time>2026-05-01T15:39:10.638Z</time></trkpt><trkpt lat="41.9734873" lon="13.400758"><ele>725.0</ele><time>2026-05-01T15:39:11.637Z</time></trkpt><trkpt lat="41.9735476" lon="13.4008508"><ele>725.0</ele><time>2026-05-01T15:39:12.633Z</time></trkpt><trkpt lat="41.9736167" lon="13.4009497"><ele>725.0</ele><time>2026-05-01T15:39:13.643Z</time></trkpt><trkpt lat="41.9736985" lon="13.4010537"><ele>725.0</ele><time>2026-05-01T15:39:14.639Z</time></trkpt><trkpt lat="41.9737811" lon="13.4011787"><ele>725.0</ele><time>2026-05-01T15:39:15.638Z</time></trkpt><trkpt lat="41.9738609" lon="13.4013196"><ele>725.3333333333333</ele><time>2026-05-01T15:39:16.631Z</time></trkpt><trkpt lat="41.9739507" lon="13.4014712"><ele>725.6666666666666</ele><time>2026-05-01T15:39:17.64Z</time></trkpt><trkpt lat="41.9740509" lon="13.4016367"><ele>726.0</ele><time>2026-05-01T15:39:18.63Z</time></trkpt><trkpt lat="41.9741688" lon="13.4018153"><ele>725.6666666666666</ele><time>2026-05-01T15:39:19.641Z</time></trkpt><trkpt lat="41.9742891" lon="13.4020022"><ele>725.3333333333333</ele><time>2026-05-01T15:39:20.632Z</time></trkpt><trkpt lat="41.9744157" lon="13.4021919"><ele>725.0</ele><time>2026-05-01T15:39:21.637Z</time></trkpt><trkpt lat="41.9745392" lon="13.4023933"><ele>725.0</ele><time>2026-05-01T15:39:22.64Z</time></trkpt><trkpt lat="41.974672" lon="13.4026032"><ele>725.0</ele><time>2026-05-01T15:39:23.639Z</time></trkpt><trkpt lat="41.9748077" lon="13.402828"><ele>725.0</ele><time>2026-05-01T15:39:24.633Z</time></trkpt><trkpt lat="41.9749458" lon="13.403049"><ele>725.0</ele><time>2026-05-01T15:39:25.64Z</time></trkpt><trkpt lat="41.9750866" lon="13.4032742"><ele>725.0</ele><time>2026-05-01T15:39:26.628Z</time></trkpt><trkpt lat="41.9752296" lon="13.4034995"><ele>725.0</ele><time>2026-05-01T15:39:27.639Z</time></trkpt><trkpt lat="41.9753671" lon="13.4037252"><ele>724.6666666666666</ele><time>2026-05-01T15:39:28.632Z</time></trkpt><trkpt lat="41.9755065" lon="13.4039428"><ele>724.3333333333334</ele><time>2026-05-01T15:39:29.64Z</time></trkpt><trkpt lat="41.9756456" lon="13.4041617"><ele>724.0</ele><time>2026-05-01T15:39:30.632Z</time></trkpt><trkpt lat="41.9757838" lon="13.4043764"><ele>724.3333333333334</ele><time>2026-05-01T15:39:31.636Z</time></trkpt><trkpt lat="41.9759193" lon="13.4045875"><ele>724.6666666666666</ele><time>2026-05-01T15:39:32.642Z</time></trkpt><trkpt lat="41.9760453" lon="13.4047922"><ele>725.0</ele><time>2026-05-01T15:39:33.642Z</time></trkpt><trkpt lat="41.9761737" lon="13.4049972"><ele>725.3333333333333</ele><time>2026-05-01T15:39:34.647Z</time></trkpt><trkpt lat="41.9762993" lon="13.4051985"><ele>725.6666666666666</ele><time>2026-05-01T15:39:35.641Z</time></trkpt><trkpt lat="41.9764275" lon="13.4053986"><ele>726.0</ele><time>2026-05-01T15:39:36.645Z</time></trkpt><trkpt lat="41.976554" lon="13.4056054"><ele>726.0</ele><time>2026-05-01T15:39:37.646Z</time></trkpt><trkpt lat="41.9766815" lon="13.4058066"><ele>726.0</ele><time>2026-05-01T15:39:38.637Z</time></trkpt><trkpt lat="41.9768075" lon="13.4060029"><ele>726.0</ele><time>2026-05-01T15:39:39.631Z</time></trkpt><trkpt lat="41.9769317" lon="13.406205"><ele>725.6666666666666</ele><time>2026-05-01T15:39:40.641Z</time></trkpt><trkpt lat="41.9770586" lon="13.4064014"><ele>725.3333333333333</ele><time>2026-05-01T15:39:41.637Z</time></trkpt><trkpt lat="41.9771859" lon="13.4065868"><ele>725.0</ele><time>2026-05-01T15:39:42.641Z</time></trkpt><trkpt lat="41.9773154" lon="13.4067763"><ele>725.0</ele><time>2026-05-01T15:39:43.637Z</time></trkpt><trkpt lat="41.9774482" lon="13.4069652"><ele>725.0</ele><time>2026-05-01T15:39:44.634Z</time></trkpt><trkpt lat="41.9775871" lon="13.4071572"><ele>725.0</ele><time>2026-05-01T15:39:45.626Z</time></trkpt><trkpt lat="41.9777332" lon="13.407356"><ele>724.3333333333333</ele><time>2026-05-01T15:39:46.634Z</time></trkpt><trkpt lat="41.9778787" lon="13.4075542"><ele>723.6666666666666</ele><time>2026-05-01T15:39:47.641Z</time></trkpt><trkpt lat="41.9780231" lon="13.4077532"><ele>723.0</ele><time>2026-05-01T15:39:48.634Z</time></trkpt><trkpt lat="41.9781647" lon="13.4079448"><ele>722.6666666666666</ele><time>2026-05-01T15:39:49.632Z</time></trkpt><trkpt lat="41.9783035" lon="13.4081324"><ele>722.3333333333333</ele><time>2026-05-01T15:39:50.645Z</time></trkpt><trkpt lat="41.9784436" lon="13.4083171"><ele>722.0</ele><time>2026-05-01T15:39:51.645Z</time></trkpt><trkpt lat="41.9785813" lon="13.408498"><ele>722.3333333333333</ele><time>2026-05-01T15:39:52.641Z</time></trkpt><trkpt lat="41.9787163" lon="13.4086797"><ele>722.6666666666666</ele><time>2026-05-01T15:39:53.638Z</time></trkpt><trkpt lat="41.9788487" lon="13.4088716"><ele>723.0</ele><time>2026-05-01T15:39:54.642Z</time></trkpt><trkpt lat="41.9789937" lon="13.4090669"><ele>723.0</ele><time>2026-05-01T15:39:55.637Z</time></trkpt><trkpt lat="41.9791369" lon="13.4092646"><ele>723.0</ele><time>2026-05-01T15:39:56.641Z</time></trkpt><trkpt lat="41.9792783" lon="13.409455"><ele>723.0</ele><time>2026-05-01T15:39:57.642Z</time></trkpt><trkpt lat="41.9794206" lon="13.409648"><ele>723.6666666666666</ele><time>2026-05-01T15:39:58.639Z</time></trkpt><trkpt lat="41.9795624" lon="13.4098382"><ele>724.3333333333333</ele><time>2026-05-01T15:39:59.635Z</time></trkpt><trkpt lat="41.9797022" lon="13.4100265"><ele>725.0</ele><time>2026-05-01T15:40:00.649Z</time></trkpt><trkpt lat="41.9798389" lon="13.4102102"><ele>725.0</ele><time>2026-05-01T15:40:01.635Z</time></trkpt><trkpt lat="41.9799702" lon="13.410393"><ele>725.0</ele><time>2026-05-01T15:40:02.632Z</time></trkpt><trkpt lat="41.9800989" lon="13.4105749"><ele>725.0</ele><time>2026-05-01T15:40:03.646Z</time></trkpt><trkpt lat="41.9802294" lon="13.4107535"><ele>725.6666666666666</ele><time>2026-05-01T15:40:04.633Z</time></trkpt><trkpt lat="41.9803658" lon="13.4109388"><ele>726.3333333333334</ele><time>2026-05-01T15:40:05.648Z</time></trkpt><trkpt lat="41.9805058" lon="13.4111251"><ele>727.0</ele><time>2026-05-01T15:40:06.635Z</time></trkpt><trkpt lat="41.9806458" lon="13.4113103"><ele>727.6666666666667</ele><time>2026-05-01T15:40:07.639Z</time></trkpt><trkpt lat="41.9807869" lon="13.4114942"><ele>728.3333333333334</ele><time>2026-05-01T15:40:08.637Z</time></trkpt><trkpt lat="41.9809233" lon="13.4116843"><ele>729.0</ele><time>2026-05-01T15:40:09.643Z</time></trkpt><trkpt lat="41.9810616" lon="13.4118751"><ele>729.3333333333334</ele><time>2026-05-01T15:40:10.637Z</time></trkpt><trkpt lat="41.9812076" lon="13.4120683"><ele>729.6666666666667</ele><time>2026-05-01T15:40:11.645Z</time></trkpt><trkpt lat="41.9813564" lon="13.4122589"><ele>730.0</ele><time>2026-05-01T15:40:12.636Z</time></trkpt><trkpt lat="41.9815087" lon="13.4124516"><ele>731.0</ele><time>2026-05-01T15:40:13.638Z</time></trkpt><trkpt lat="41.9816658" lon="13.4126635"><ele>732.0</ele><time>2026-05-01T15:40:14.636Z</time></trkpt><trkpt lat="41.9818221" lon="13.412882"><ele>733.0</ele><time>2026-05-01T15:40:15.647Z</time></trkpt><trkpt lat="41.9819687" lon="13.4130958"><ele>733.3333333333334</ele><time>2026-05-01T15:40:16.639Z</time></trkpt><trkpt lat="41.9821177" lon="13.4133031"><ele>733.6666666666666</ele><time>2026-05-01T15:40:17.643Z</time></trkpt><trkpt lat="41.9822742" lon="13.4135152"><ele>734.0</ele><time>2026-05-01T15:40:18.642Z</time></trkpt><trkpt lat="41.9824382" lon="13.4137435"><ele>731.5</ele><time>2026-05-01T15:40:19.641Z</time></trkpt><trkpt lat="41.9826032" lon="13.4139689"><ele>729.0</ele><time>2026-05-01T15:40:20.632Z</time></trkpt><trkpt lat="41.9827736" lon="13.4141922"><ele>729.0</ele><time>2026-05-01T15:40:21.643Z</time></trkpt><trkpt lat="41.9829493" lon="13.4144179"><ele>729.0</ele><time>2026-05-01T15:40:22.633Z</time></trkpt><trkpt lat="41.9831286" lon="13.4146438"><ele>728.0</ele><time>2026-05-01T15:40:23.628Z</time></trkpt><trkpt lat="41.9833073" lon="13.4148798"><ele>727.0</ele><time>2026-05-01T15:40:24.636Z</time></trkpt><trkpt lat="41.9834877" lon="13.4151165"><ele>726.5</ele><time>2026-05-01T15:40:25.637Z</time></trkpt><trkpt lat="41.9836706" lon="13.4153572"><ele>726.0</ele><time>2026-05-01T15:40:26.66Z</time></trkpt><trkpt lat="41.9838482" lon="13.4155981"><ele>726.0</ele><time>2026-05-01T15:40:27.637Z</time></trkpt><trkpt lat="41.9840264" lon="13.4158272"><ele>726.0</ele><time>2026-05-01T15:40:28.634Z</time></trkpt><trkpt lat="41.9841932" lon="13.4160515"><ele>726.0</ele><time>2026-05-01T15:40:29.635Z</time></trkpt><trkpt lat="41.9843499" lon="13.4162579"><ele>726.0</ele><time>2026-05-01T15:40:30.631Z</time></trkpt><trkpt lat="41.984498" lon="13.4164504"><ele>726.0</ele><time>2026-05-01T15:40:31.661Z</time></trkpt><trkpt lat="41.9846416" lon="13.416635"><ele>726.0</ele><time>2026-05-01T15:40:32.638Z</time></trkpt><trkpt lat="41.9847752" lon="13.416808"><ele>726.0</ele><time>2026-05-01T15:40:33.644Z</time></trkpt><trkpt lat="41.9849005" lon="13.4169742"><ele>726.0</ele><time>2026-05-01T15:40:34.638Z</time></trkpt><trkpt lat="41.9850128" lon="13.417129"><ele>727.0</ele><time>2026-05-01T15:40:35.645Z</time></trkpt><trkpt lat="41.9851249" lon="13.4172722"><ele>728.0</ele><time>2026-05-01T15:40:36.648Z</time></trkpt><trkpt lat="41.985235" lon="13.4174139"><ele>729.0</ele><time>2026-05-01T15:40:37.641Z</time></trkpt><trkpt lat="41.9853456" lon="13.4175531"><ele>729.0</ele><time>2026-05-01T15:40:38.648Z</time></trkpt><trkpt lat="41.9854602" lon="13.4176911"><ele>729.0</ele><time>2026-05-01T15:40:39.638Z</time></trkpt><trkpt lat="41.9855807" lon="13.4178258"><ele>729.0</ele><time>2026-05-01T15:40:40.632Z</time></trkpt><trkpt lat="41.9856954" lon="13.4179545"><ele>729.5</ele><time>2026-05-01T15:40:41.642Z</time></trkpt><trkpt lat="41.9858093" lon="13.4180756"><ele>730.0</ele><time>2026-05-01T15:40:42.634Z</time></trkpt><trkpt lat="41.9859219" lon="13.4181925"><ele>730.5</ele><time>2026-05-01T15:40:43.653Z</time></trkpt><trkpt lat="41.9860343" lon="13.4183048"><ele>731.0</ele><time>2026-05-01T15:40:44.637Z</time></trkpt><trkpt lat="41.9861462" lon="13.4184121"><ele>732.0</ele><time>2026-05-01T15:40:45.634Z</time></trkpt><trkpt lat="41.9862637" lon="13.4185059"><ele>733.0</ele><time>2026-05-01T15:40:46.636Z</time></trkpt><trkpt lat="41.9863847" lon="13.4185967"><ele>734.0</ele><time>2026-05-01T15:40:47.642Z</time></trkpt><trkpt lat="41.9865215" lon="13.4186817"><ele>735.0</ele><time>2026-05-01T15:40:48.635Z</time></trkpt><trkpt lat="41.9866677" lon="13.4187548"><ele>735.0</ele><time>2026-05-01T15:40:49.639Z</time></trkpt><trkpt lat="41.986822" lon="13.418811"><ele>735.0</ele><time>2026-05-01T15:40:50.641Z</time></trkpt><trkpt lat="41.9869721" lon="13.4188542"><ele>735.0</ele><time>2026-05-01T15:40:51.648Z</time></trkpt><trkpt lat="41.9871138" lon="13.4188839"><ele>735.0</ele><time>2026-05-01T15:40:52.63Z</time></trkpt><trkpt lat="41.9872526" lon="13.4188949"><ele>735.0</ele><time>2026-05-01T15:40:53.643Z</time></trkpt><trkpt lat="41.9873948" lon="13.4188921"><ele>735.0</ele><time>2026-05-01T15:40:54.63Z</time></trkpt><trkpt lat="41.9875364" lon="13.4188741"><ele>735.0</ele><time>2026-05-01T15:40:55.632Z</time></trkpt><trkpt lat="41.9876719" lon="13.4188492"><ele>735.5</ele><time>2026-05-01T15:40:56.634Z</time></trkpt><trkpt lat="41.98781" lon="13.4188095"><ele>736.0</ele><time>2026-05-01T15:40:57.636Z</time></trkpt><trkpt lat="41.9879506" lon="13.4187536"><ele>736.5</ele><time>2026-05-01T15:40:58.637Z</time></trkpt><trkpt lat="41.9880855" lon="13.418673"><ele>737.0</ele><time>2026-05-01T15:40:59.642Z</time></trkpt><trkpt lat="41.9882239" lon="13.4185669"><ele>739.6666666666666</ele><time>2026-05-01T15:41:00.634Z</time></trkpt><trkpt lat="41.9883654" lon="13.4184449"><ele>742.3333333333334</ele><time>2026-05-01T15:41:01.637Z</time></trkpt><trkpt lat="41.9885272" lon="13.4183156"><ele>745.0</ele><time>2026-05-01T15:41:02.635Z</time></trkpt><trkpt lat="41.9886988" lon="13.4181827"><ele>745.0</ele><time>2026-05-01T15:41:03.633Z</time></trkpt><trkpt lat="41.9888827" lon="13.4180489"><ele>745.0</ele><time>2026-05-01T15:41:04.638Z</time></trkpt><trkpt lat="41.9890864" lon="13.4179163"><ele>745.0</ele><time>2026-05-01T15:41:05.638Z</time></trkpt><trkpt lat="41.9893113" lon="13.4177239"><ele>746.5</ele><time>2026-05-01T15:41:06.642Z</time></trkpt><trkpt lat="41.9895675" lon="13.4175417"><ele>748.0</ele><time>2026-05-01T15:41:07.635Z</time></trkpt><trkpt lat="41.9898429" lon="13.4173489"><ele>748.0</ele><time>2026-05-01T15:41:08.647Z</time></trkpt><trkpt lat="41.9901346" lon="13.417159"><ele>748.0</ele><time>2026-05-01T15:41:09.63Z</time></trkpt><trkpt lat="41.9903971" lon="13.4169415"><ele>748.0</ele><time>2026-05-01T15:41:10.638Z</time></trkpt><trkpt lat="41.9906342" lon="13.4167283"><ele>748.0</ele><time>2026-05-01T15:41:11.636Z</time></trkpt><trkpt lat="41.9908591" lon="13.4165347"><ele>750.5</ele><time>2026-05-01T15:41:12.635Z</time></trkpt><trkpt lat="41.9910696" lon="13.4163569"><ele>753.0</ele><time>2026-05-01T15:41:13.635Z</time></trkpt><trkpt lat="41.9912701" lon="13.4161901"><ele>753.0</ele><time>2026-05-01T15:41:14.637Z</time></trkpt><trkpt lat="41.9914617" lon="13.4160321"><ele>753.0</ele><time>2026-05-01T15:41:15.638Z</time></trkpt><trkpt lat="41.9916443" lon="13.4158742"><ele>753.0</ele><time>2026-05-01T15:41:16.631Z</time></trkpt><trkpt lat="41.9918199" lon="13.4157044"><ele>754.3333333333334</ele><time>2026-05-01T15:41:17.639Z</time></trkpt><trkpt lat="41.9919846" lon="13.4155297"><ele>755.6666666666667</ele><time>2026-05-01T15:41:18.637Z</time></trkpt><trkpt lat="41.9921368" lon="13.4153406"><ele>757.0</ele><time>2026-05-01T15:41:19.628Z</time></trkpt><trkpt lat="41.9922828" lon="13.4151468"><ele>757.0</ele><time>2026-05-01T15:41:20.623Z</time></trkpt><trkpt lat="41.9924198" lon="13.4149477"><ele>757.0</ele><time>2026-05-01T15:41:21.636Z</time></trkpt><trkpt lat="41.9925457" lon="13.4147438"><ele>757.0</ele><time>2026-05-01T15:41:22.636Z</time></trkpt><trkpt lat="41.9926518" lon="13.4145461"><ele>761.6666666666667</ele><time>2026-05-01T15:41:23.633Z</time></trkpt><trkpt lat="41.9927397" lon="13.4143171"><ele>766.3333333333334</ele><time>2026-05-01T15:41:24.63Z</time></trkpt><trkpt lat="41.9928094" lon="13.4140654"><ele>771.0</ele><time>2026-05-01T15:41:25.633Z</time></trkpt><trkpt lat="41.9928668" lon="13.4137983"><ele>771.0</ele><time>2026-05-01T15:41:26.642Z</time></trkpt><trkpt lat="41.9929336" lon="13.4135405"><ele>771.0</ele><time>2026-05-01T15:41:27.641Z</time></trkpt><trkpt lat="41.9929961" lon="13.4133063"><ele>771.0</ele><time>2026-05-01T15:41:28.628Z</time></trkpt><trkpt lat="41.9930552" lon="13.4130931"><ele>768.6666666666666</ele><time>2026-05-01T15:41:29.655Z</time></trkpt><trkpt lat="41.9931235" lon="13.4128833"><ele>766.3333333333333</ele><time>2026-05-01T15:41:30.633Z</time></trkpt><trkpt lat="41.9932215" lon="13.4126617"><ele>764.0</ele><time>2026-05-01T15:41:31.642Z</time></trkpt><trkpt lat="41.9933504" lon="13.4124465"><ele>772.5</ele><time>2026-05-01T15:41:32.635Z</time></trkpt><trkpt lat="41.9934911" lon="13.4122144"><ele>781.0</ele><time>2026-05-01T15:41:33.631Z</time></trkpt><trkpt lat="41.9936364" lon="13.4119589"><ele>781.0</ele><time>2026-05-01T15:41:34.632Z</time></trkpt><trkpt lat="41.9937811" lon="13.4116864"><ele>781.0</ele><time>2026-05-01T15:41:35.639Z</time></trkpt><trkpt lat="41.9939223" lon="13.4114064"><ele>775.5</ele><time>2026-05-01T15:41:36.64Z</time></trkpt><trkpt lat="41.9940663" lon="13.4111129"><ele>770.0</ele><time>2026-05-01T15:41:37.636Z</time></trkpt><trkpt lat="41.9942038" lon="13.4108197"><ele>779.0</ele><time>2026-05-01T15:41:38.642Z</time></trkpt><trkpt lat="41.9943316" lon="13.4105313"><ele>788.0</ele><time>2026-05-01T15:41:39.648Z</time></trkpt><trkpt lat="41.9944637" lon="13.4102483"><ele>788.0</ele><time>2026-05-01T15:41:40.638Z</time></trkpt><trkpt lat="41.9946017" lon="13.4099739"><ele>788.0</ele><time>2026-05-01T15:41:41.632Z</time></trkpt><trkpt lat="41.9947399" lon="13.409714"><ele>791.6666666666667</ele><time>2026-05-01T15:41:42.635Z</time></trkpt><trkpt lat="41.9948711" lon="13.40948"><ele>795.3333333333333</ele><time>2026-05-01T15:41:43.639Z</time></trkpt><trkpt lat="41.9949979" lon="13.4092685"><ele>799.0</ele><time>2026-05-01T15:41:44.638Z</time></trkpt><trkpt lat="41.9951271" lon="13.4090643"><ele>799.0</ele><time>2026-05-01T15:41:45.638Z</time></trkpt><trkpt lat="41.9952605" lon="13.4088608"><ele>799.0</ele><time>2026-05-01T15:41:46.633Z</time></trkpt><trkpt lat="41.9953976" lon="13.4086728"><ele>799.0</ele><time>2026-05-01T15:41:47.639Z</time></trkpt><trkpt lat="41.9955363" lon="13.40851"><ele>799.3333333333333</ele><time>2026-05-01T15:41:48.631Z</time></trkpt><trkpt lat="41.9956729" lon="13.4083863"><ele>799.6666666666667</ele><time>2026-05-01T15:41:49.636Z</time></trkpt><trkpt lat="41.9958091" lon="13.4082926"><ele>800.0</ele><time>2026-05-01T15:41:50.646Z</time></trkpt><trkpt lat="41.9959579" lon="13.4082186"><ele>800.0</ele><time>2026-05-01T15:41:51.633Z</time></trkpt><trkpt lat="41.9961073" lon="13.4081611"><ele>800.0</ele><time>2026-05-01T15:41:52.634Z</time></trkpt><trkpt lat="41.9962682" lon="13.4080749"><ele>800.0</ele><time>2026-05-01T15:41:53.64Z</time></trkpt><trkpt lat="41.9964556" lon="13.4079825"><ele>797.5</ele><time>2026-05-01T15:41:54.635Z</time></trkpt><trkpt lat="41.9966579" lon="13.4078644"><ele>795.0</ele><time>2026-05-01T15:41:55.637Z</time></trkpt><trkpt lat="41.9968702" lon="13.4077344"><ele>795.0</ele><time>2026-05-01T15:41:56.632Z</time></trkpt><trkpt lat="41.9970773" lon="13.4075801"><ele>795.0</ele><time>2026-05-01T15:41:57.641Z</time></trkpt><trkpt lat="41.997272" lon="13.4074356"><ele>795.0</ele><time>2026-05-01T15:41:58.64Z</time></trkpt><trkpt lat="41.9974483" lon="13.4073044"><ele>795.0</ele><time>2026-05-01T15:41:59.643Z</time></trkpt><trkpt lat="41.9976113" lon="13.4071942"><ele>795.0</ele><time>2026-05-01T15:42:00.637Z</time></trkpt><trkpt lat="41.9977638" lon="13.4070929"><ele>792.6666666666667</ele><time>2026-05-01T15:42:01.641Z</time></trkpt><trkpt lat="41.9979247" lon="13.406997"><ele>790.3333333333334</ele><time>2026-05-01T15:42:02.637Z</time></trkpt><trkpt lat="41.9980964" lon="13.4069301"><ele>788.0</ele><time>2026-05-01T15:42:03.632Z</time></trkpt><trkpt lat="41.9982734" lon="13.4068754"><ele>786.0</ele><time>2026-05-01T15:42:04.632Z</time></trkpt><trkpt lat="41.998428" lon="13.4068304"><ele>784.0</ele><time>2026-05-01T15:42:05.635Z</time></trkpt><trkpt lat="41.9985681" lon="13.406804"><ele>782.0</ele><time>2026-05-01T15:42:06.629Z</time></trkpt><trkpt lat="41.9986808" lon="13.4068455"><ele>780.0</ele><time>2026-05-01T15:42:07.634Z</time></trkpt><trkpt lat="41.9988031" lon="13.4069338"><ele>780.0</ele><time>2026-05-01T15:42:08.643Z</time></trkpt><trkpt lat="41.9989353" lon="13.4070551"><ele>780.0</ele><time>2026-05-01T15:42:09.631Z</time></trkpt><trkpt lat="41.9990815" lon="13.4071805"><ele>780.0</ele><time>2026-05-01T15:42:10.637Z</time></trkpt><trkpt lat="41.9992267" lon="13.4073084"><ele>786.75</ele><time>2026-05-01T15:42:11.638Z</time></trkpt><trkpt lat="41.9993553" lon="13.4074286"><ele>793.5</ele><time>2026-05-01T15:42:12.637Z</time></trkpt><trkpt lat="41.9994569" lon="13.4075209"><ele>800.25</ele><time>2026-05-01T15:42:13.633Z</time></trkpt><trkpt lat="41.9995455" lon="13.4075714"><ele>807.0</ele><time>2026-05-01T15:42:14.633Z</time></trkpt><trkpt lat="41.9996335" lon="13.407561"><ele>807.0</ele><time>2026-05-01T15:42:15.641Z</time></trkpt><trkpt lat="41.9997264" lon="13.4074874"><ele>807.0</ele><time>2026-05-01T15:42:16.638Z</time></trkpt><trkpt lat="41.999834" lon="13.4073963"><ele>807.0</ele><time>2026-05-01T15:42:17.63Z</time></trkpt><trkpt lat="41.9999488" lon="13.4073091"><ele>807.0</ele><time>2026-05-01T15:42:18.627Z</time></trkpt><trkpt lat="42.0000744" lon="13.4072362"><ele>807.0</ele><time>2026-05-01T15:42:19.647Z</time></trkpt><trkpt lat="42.0002085" lon="13.407207"><ele>807.0</ele><time>2026-05-01T15:42:20.639Z</time></trkpt><trkpt lat="42.0003523" lon="13.407238"><ele>807.0</ele><time>2026-05-01T15:42:21.631Z</time></trkpt><trkpt lat="42.0004986" lon="13.407309"><ele>807.0</ele><time>2026-05-01T15:42:22.633Z</time></trkpt><trkpt lat="42.000625" lon="13.4073695"><ele>807.0</ele><time>2026-05-01T15:42:23.632Z</time></trkpt><trkpt lat="42.0007372" lon="13.4073824"><ele>807.0</ele><time>2026-05-01T15:42:24.627Z</time></trkpt><trkpt lat="42.0008302" lon="13.4073616"><ele>807.0</ele><time>2026-05-01T15:42:25.626Z</time></trkpt><trkpt lat="42.0009189" lon="13.4072487"><ele>807.0</ele><time>2026-05-01T15:42:26.626Z</time></trkpt><trkpt lat="42.0010014" lon="13.4070878"><ele>804.6666666666667</ele><time>2026-05-01T15:42:27.622Z</time></trkpt><trkpt lat="42.0011055" lon="13.4069053"><ele>802.3333333333334</ele><time>2026-05-01T15:42:28.64Z</time></trkpt><trkpt lat="42.0012389" lon="13.4067222"><ele>800.0</ele><time>2026-05-01T15:42:29.637Z</time></trkpt><trkpt lat="42.0013912" lon="13.4065123"><ele>804.0</ele><time>2026-05-01T15:42:30.642Z</time></trkpt><trkpt lat="42.0015642" lon="13.406298"><ele>808.0</ele><time>2026-05-01T15:42:31.638Z</time></trkpt><trkpt lat="42.0017571" lon="13.4060718"><ele>808.0</ele><time>2026-05-01T15:42:32.632Z</time></trkpt><trkpt lat="42.0019479" lon="13.4058692"><ele>808.0</ele><time>2026-05-01T15:42:33.629Z</time></trkpt><trkpt lat="42.0021177" lon="13.4056999"><ele>808.0</ele><time>2026-05-01T15:42:34.627Z</time></trkpt><trkpt lat="42.0022855" lon="13.4055366"><ele>808.0</ele><time>2026-05-01T15:42:35.629Z</time></trkpt><trkpt lat="42.0024557" lon="13.4053816"><ele>808.0</ele><time>2026-05-01T15:42:36.636Z</time></trkpt><trkpt lat="42.0026287" lon="13.4052512"><ele>808.25</ele><time>2026-05-01T15:42:37.639Z</time></trkpt><trkpt lat="42.0027796" lon="13.4051521"><ele>808.5</ele><time>2026-05-01T15:42:38.634Z</time></trkpt><trkpt lat="42.0029107" lon="13.4050751"><ele>808.75</ele><time>2026-05-01T15:42:39.639Z</time></trkpt><trkpt lat="42.0030349" lon="13.4050155"><ele>809.0</ele><time>2026-05-01T15:42:40.634Z</time></trkpt><trkpt lat="42.003167" lon="13.4049742"><ele>809.0</ele><time>2026-05-01T15:42:41.629Z</time></trkpt><trkpt lat="42.0033054" lon="13.4049491"><ele>809.0</ele><time>2026-05-01T15:42:42.633Z</time></trkpt><trkpt lat="42.0034488" lon="13.4049398"><ele>809.0</ele><time>2026-05-01T15:42:43.631Z</time></trkpt><trkpt lat="42.0035948" lon="13.4049315"><ele>809.0</ele><time>2026-05-01T15:42:44.623Z</time></trkpt><trkpt lat="42.0037416" lon="13.4049257"><ele>815.0</ele><time>2026-05-01T15:42:45.626Z</time></trkpt><trkpt lat="42.0038823" lon="13.4049109"><ele>821.0</ele><time>2026-05-01T15:42:46.636Z</time></trkpt><trkpt lat="42.0040403" lon="13.4048812"><ele>827.0</ele><time>2026-05-01T15:42:47.634Z</time></trkpt><trkpt lat="42.0042138" lon="13.4048465"><ele>829.3333333333334</ele><time>2026-05-01T15:42:48.64Z</time></trkpt><trkpt lat="42.0044037" lon="13.4048286"><ele>831.6666666666667</ele><time>2026-05-01T15:42:49.634Z</time></trkpt><trkpt lat="42.0046174" lon="13.4048169"><ele>834.0</ele><time>2026-05-01T15:42:50.639Z</time></trkpt><trkpt lat="42.0048401" lon="13.4047915"><ele>836.6666666666667</ele><time>2026-05-01T15:42:51.636Z</time></trkpt><trkpt lat="42.0050382" lon="13.4047724"><ele>839.3333333333334</ele><time>2026-05-01T15:42:52.639Z</time></trkpt><trkpt lat="42.0052309" lon="13.4047725"><ele>842.0</ele><time>2026-05-01T15:42:53.646Z</time></trkpt><trkpt lat="42.0054195" lon="13.4048086"><ele>842.0</ele><time>2026-05-01T15:42:54.635Z</time></trkpt><trkpt lat="42.0055913" lon="13.4048653"><ele>842.0</ele><time>2026-05-01T15:42:55.633Z</time></trkpt><trkpt lat="42.0057292" lon="13.4049209"><ele>842.0</ele><time>2026-05-01T15:42:56.634Z</time></trkpt><trkpt lat="42.0058394" lon="13.4049958"><ele>842.0</ele><time>2026-05-01T15:42:57.633Z</time></trkpt><trkpt lat="42.005925" lon="13.4051082"><ele>841.0</ele><time>2026-05-01T15:42:58.63Z</time></trkpt><trkpt lat="42.0059619" lon="13.4052674"><ele>840.0</ele><time>2026-05-01T15:42:59.647Z</time></trkpt><trkpt lat="42.0059841" lon="13.4054289"><ele>839.0</ele><time>2026-05-01T15:43:00.632Z</time></trkpt><trkpt lat="42.0060386" lon="13.4055754"><ele>838.0</ele><time>2026-05-01T15:43:01.633Z</time></trkpt><trkpt lat="42.0061229" lon="13.4057289"><ele>842.25</ele><time>2026-05-01T15:43:02.641Z</time></trkpt><trkpt lat="42.0062198" lon="13.4058843"><ele>846.5</ele><time>2026-05-01T15:43:03.635Z</time></trkpt><trkpt lat="42.0063174" lon="13.4060249"><ele>850.75</ele><time>2026-05-01T15:43:04.632Z</time></trkpt><trkpt lat="42.0064088" lon="13.4061196"><ele>855.0</ele><time>2026-05-01T15:43:05.633Z</time></trkpt><trkpt lat="42.0065039" lon="13.4061718"><ele>855.0</ele><time>2026-05-01T15:43:06.631Z</time></trkpt><trkpt lat="42.0066064" lon="13.4061625"><ele>855.0</ele><time>2026-05-01T15:43:07.634Z</time></trkpt><trkpt lat="42.006714" lon="13.4060803"><ele>855.0</ele><time>2026-05-01T15:43:08.636Z</time></trkpt><trkpt lat="42.0068051" lon="13.4059323"><ele>855.0</ele><time>2026-05-01T15:43:09.638Z</time></trkpt><trkpt lat="42.0068537" lon="13.4057268"><ele>853.5</ele><time>2026-05-01T15:43:10.629Z</time></trkpt><trkpt lat="42.0068907" lon="13.4055129"><ele>852.0</ele><time>2026-05-01T15:43:11.639Z</time></trkpt><trkpt lat="42.0069355" lon="13.4053382"><ele>850.5</ele><time>2026-05-01T15:43:12.628Z</time></trkpt><trkpt lat="42.0069931" lon="13.4052019"><ele>849.0</ele><time>2026-05-01T15:43:13.644Z</time></trkpt><trkpt lat="42.0070571" lon="13.405075"><ele>845.25</ele><time>2026-05-01T15:43:14.637Z</time></trkpt><trkpt lat="42.0071264" lon="13.4049618"><ele>841.5</ele><time>2026-05-01T15:43:15.641Z</time></trkpt><trkpt lat="42.0072074" lon="13.4048496"><ele>837.75</ele><time>2026-05-01T15:43:16.638Z</time></trkpt><trkpt lat="42.007321" lon="13.4047566"><ele>834.0</ele><time>2026-05-01T15:43:17.637Z</time></trkpt><trkpt lat="42.007465" lon="13.4046706"><ele>835.6666666666667</ele><time>2026-05-01T15:43:18.628Z</time></trkpt><trkpt lat="42.0076256" lon="13.4045615"><ele>837.3333333333334</ele><time>2026-05-01T15:43:19.636Z</time></trkpt><trkpt lat="42.0078097" lon="13.4044141"><ele>839.0</ele><time>2026-05-01T15:43:20.626Z</time></trkpt><trkpt lat="42.0080064" lon="13.4042571"><ele>839.0</ele><time>2026-05-01T15:43:21.636Z</time></trkpt><trkpt lat="42.0081695" lon="13.4041289"><ele>839.0</ele><time>2026-05-01T15:43:22.633Z</time></trkpt><trkpt lat="42.0083085" lon="13.4040362"><ele>839.0</ele><time>2026-05-01T15:43:23.625Z</time></trkpt><trkpt lat="42.008455" lon="13.4039663"><ele>846.6666666666667</ele><time>2026-05-01T15:43:24.62Z</time></trkpt><trkpt lat="42.0086254" lon="13.4039155"><ele>854.3333333333333</ele><time>2026-05-01T15:43:25.632Z</time></trkpt><trkpt lat="42.008822" lon="13.4038759"><ele>862.0</ele><time>2026-05-01T15:43:26.64Z</time></trkpt><trkpt lat="42.0090297" lon="13.4038475"><ele>856.0</ele><time>2026-05-01T15:43:27.625Z</time></trkpt><trkpt lat="42.0092344" lon="13.4037975"><ele>850.0</ele><time>2026-05-01T15:43:28.627Z</time></trkpt><trkpt lat="42.0094132" lon="13.4037417"><ele>844.0</ele><time>2026-05-01T15:43:29.629Z</time></trkpt><trkpt lat="42.0095716" lon="13.4036897"><ele>844.0</ele><time>2026-05-01T15:43:30.629Z</time></trkpt><trkpt lat="42.0097175" lon="13.4036619"><ele>844.0</ele><time>2026-05-01T15:43:31.625Z</time></trkpt><trkpt lat="42.0098794" lon="13.4036653"><ele>844.0</ele><time>2026-05-01T15:43:32.63Z</time></trkpt><trkpt lat="42.0100373" lon="13.4036983"><ele>846.0</ele><time>2026-05-01T15:43:33.631Z</time></trkpt><trkpt lat="42.0101891" lon="13.4037431"><ele>848.0</ele><time>2026-05-01T15:43:34.634Z</time></trkpt><trkpt lat="42.0103237" lon="13.4037792"><ele>850.0</ele><time>2026-05-01T15:43:35.622Z</time></trkpt><trkpt lat="42.0104467" lon="13.4038043"><ele>852.0</ele><time>2026-05-01T15:43:36.624Z</time></trkpt><trkpt lat="42.0105652" lon="13.4037749"><ele>852.0</ele><time>2026-05-01T15:43:37.631Z</time></trkpt><trkpt lat="42.010683" lon="13.4036788"><ele>852.0</ele><time>2026-05-01T15:43:38.642Z</time></trkpt><trkpt lat="42.0108062" lon="13.4035458"><ele>852.0</ele><time>2026-05-01T15:43:39.636Z</time></trkpt><trkpt lat="42.0109391" lon="13.4034015"><ele>857.0</ele><time>2026-05-01T15:43:40.644Z</time></trkpt><trkpt lat="42.0110726" lon="13.4032781"><ele>862.0</ele><time>2026-05-01T15:43:41.634Z</time></trkpt><trkpt lat="42.0112137" lon="13.4031775"><ele>867.0</ele><time>2026-05-01T15:43:42.623Z</time></trkpt><trkpt lat="42.0113858" lon="13.4031083"><ele>867.0</ele><time>2026-05-01T15:43:43.632Z</time></trkpt><trkpt lat="42.0115799" lon="13.4030455"><ele>867.0</ele><time>2026-05-01T15:43:44.626Z</time></trkpt><trkpt lat="42.0117902" lon="13.4029819"><ele>867.0</ele><time>2026-05-01T15:43:45.636Z</time></trkpt><trkpt lat="42.0119943" lon="13.4029129"><ele>866.3333333333333</ele><time>2026-05-01T15:43:46.634Z</time></trkpt><trkpt lat="42.0121842" lon="13.402859"><ele>865.6666666666666</ele><time>2026-05-01T15:43:47.632Z</time></trkpt><trkpt lat="42.0123748" lon="13.402822"><ele>865.0</ele><time>2026-05-01T15:43:48.648Z</time></trkpt><trkpt lat="42.0125766" lon="13.4027904"><ele>865.0</ele><time>2026-05-01T15:43:49.628Z</time></trkpt><trkpt lat="42.0127796" lon="13.4027772"><ele>865.0</ele><time>2026-05-01T15:43:50.622Z</time></trkpt><trkpt lat="42.0129796" lon="13.4027611"><ele>865.0</ele><time>2026-05-01T15:43:51.635Z</time></trkpt><trkpt lat="42.0131889" lon="13.4027433"><ele>868.3333333333333</ele><time>2026-05-01T15:43:52.632Z</time></trkpt><trkpt lat="42.0134001" lon="13.4027165"><ele>871.6666666666667</ele><time>2026-05-01T15:43:53.644Z</time></trkpt><trkpt lat="42.0136015" lon="13.4026968"><ele>875.0</ele><time>2026-05-01T15:43:54.632Z</time></trkpt><trkpt lat="42.013799" lon="13.4026743"><ele>875.0</ele><time>2026-05-01T15:43:55.634Z</time></trkpt><trkpt lat="42.0139863" lon="13.402651"><ele>875.0</ele><time>2026-05-01T15:43:56.63Z</time></trkpt><trkpt lat="42.014177" lon="13.4026263"><ele>875.0</ele><time>2026-05-01T15:43:57.627Z</time></trkpt><trkpt lat="42.0143642" lon="13.4025778"><ele>878.3333333333334</ele><time>2026-05-01T15:43:58.634Z</time></trkpt><trkpt lat="42.0145647" lon="13.402492"><ele>881.6666666666667</ele><time>2026-05-01T15:43:59.639Z</time></trkpt><trkpt lat="42.0147581" lon="13.4023932"><ele>885.0</ele><time>2026-05-01T15:44:00.633Z</time></trkpt><trkpt lat="42.0149472" lon="13.4023004"><ele>883.3333333333333</ele><time>2026-05-01T15:44:01.636Z</time></trkpt><trkpt lat="42.0151257" lon="13.4022168"><ele>881.6666666666666</ele><time>2026-05-01T15:44:02.654Z</time></trkpt><trkpt lat="42.0152987" lon="13.4021506"><ele>880.0</ele><time>2026-05-01T15:44:03.64Z</time></trkpt><trkpt lat="42.0154483" lon="13.4020795"><ele>880.0</ele><time>2026-05-01T15:44:04.631Z</time></trkpt><trkpt lat="42.0155835" lon="13.4020132"><ele>880.0</ele><time>2026-05-01T15:44:05.637Z</time></trkpt><trkpt lat="42.0157076" lon="13.4019637"><ele>880.0</ele><time>2026-05-01T15:44:06.637Z</time></trkpt><trkpt lat="42.0158338" lon="13.4019683"><ele>880.0</ele><time>2026-05-01T15:44:07.637Z</time></trkpt><trkpt lat="42.0159715" lon="13.4020248"><ele>881.6666666666666</ele><time>2026-05-01T15:44:08.64Z</time></trkpt><trkpt lat="42.0161159" lon="13.4021373"><ele>883.3333333333333</ele><time>2026-05-01T15:44:09.643Z</time></trkpt><trkpt lat="42.0162612" lon="13.4022455"><ele>885.0</ele><time>2026-05-01T15:44:10.632Z</time></trkpt><trkpt lat="42.0163984" lon="13.4023447"><ele>886.3333333333333</ele><time>2026-05-01T15:44:11.647Z</time></trkpt><trkpt lat="42.0165309" lon="13.4024802"><ele>887.6666666666666</ele><time>2026-05-01T15:44:12.644Z</time></trkpt><trkpt lat="42.0166515" lon="13.4026669"><ele>889.0</ele><time>2026-05-01T15:44:13.636Z</time></trkpt><trkpt lat="42.0167541" lon="13.4028803"><ele>892.6666666666666</ele><time>2026-05-01T15:44:14.635Z</time></trkpt><trkpt lat="42.0168244" lon="13.4030982"><ele>896.3333333333333</ele><time>2026-05-01T15:44:15.636Z</time></trkpt><trkpt lat="42.0168497" lon="13.4033108"><ele>900.0</ele><time>2026-05-01T15:44:16.634Z</time></trkpt><trkpt lat="42.016831" lon="13.4035387"><ele>900.0</ele><time>2026-05-01T15:44:17.637Z</time></trkpt><trkpt lat="42.0168219" lon="13.4037421"><ele>900.0</ele><time>2026-05-01T15:44:18.632Z</time></trkpt><trkpt lat="42.0168437" lon="13.4039173"><ele>900.0</ele><time>2026-05-01T15:44:19.63Z</time></trkpt><trkpt lat="42.0169045" lon="13.404061"><ele>900.0</ele><time>2026-05-01T15:44:20.632Z</time></trkpt><trkpt lat="42.017026" lon="13.4041616"><ele>899.5</ele><time>2026-05-01T15:44:21.638Z</time></trkpt><trkpt lat="42.0171635" lon="13.4042385"><ele>899.0</ele><time>2026-05-01T15:44:22.641Z</time></trkpt><trkpt lat="42.0172893" lon="13.4043068"><ele>898.5</ele><time>2026-05-01T15:44:23.632Z</time></trkpt><trkpt lat="42.0173992" lon="13.404375"><ele>898.0</ele><time>2026-05-01T15:44:24.646Z</time></trkpt><trkpt lat="42.0174916" lon="13.4044617"><ele>898.0</ele><time>2026-05-01T15:44:25.632Z</time></trkpt><trkpt lat="42.0175666" lon="13.4045557"><ele>898.0</ele><time>2026-05-01T15:44:26.643Z</time></trkpt><trkpt lat="42.0176248" lon="13.4046566"><ele>898.0</ele><time>2026-05-01T15:44:27.632Z</time></trkpt><trkpt lat="42.017668" lon="13.4047787"><ele>898.0</ele><time>2026-05-01T15:44:28.636Z</time></trkpt><trkpt lat="42.0177099" lon="13.4049036"><ele>898.0</ele><time>2026-05-01T15:44:29.632Z</time></trkpt><trkpt lat="42.0177464" lon="13.4050373"><ele>898.25</ele><time>2026-05-01T15:44:30.647Z</time></trkpt><trkpt lat="42.0177656" lon="13.4051923"><ele>898.5</ele><time>2026-05-01T15:44:31.647Z</time></trkpt><trkpt lat="42.0177811" lon="13.4053437"><ele>898.75</ele><time>2026-05-01T15:44:32.629Z</time></trkpt><trkpt lat="42.0177925" lon="13.4055009"><ele>899.0</ele><time>2026-05-01T15:44:33.643Z</time></trkpt><trkpt lat="42.0177931" lon="13.4056517"><ele>898.0</ele><time>2026-05-01T15:44:34.626Z</time></trkpt><trkpt lat="42.0177886" lon="13.4058032"><ele>897.0</ele><time>2026-05-01T15:44:35.631Z</time></trkpt><trkpt lat="42.0177849" lon="13.4059657"><ele>896.0</ele><time>2026-05-01T15:44:36.632Z</time></trkpt><trkpt lat="42.0177692" lon="13.406127"><ele>895.0</ele><time>2026-05-01T15:44:37.638Z</time></trkpt><trkpt lat="42.0177613" lon="13.4062893"><ele>894.2</ele><time>2026-05-01T15:44:38.629Z</time></trkpt><trkpt lat="42.017745" lon="13.4064485"><ele>893.4</ele><time>2026-05-01T15:44:39.635Z</time></trkpt><trkpt lat="42.0177179" lon="13.4065897"><ele>892.5999999999999</ele><time>2026-05-01T15:44:40.638Z</time></trkpt><trkpt lat="42.0176846" lon="13.406714"><ele>891.8</ele><time>2026-05-01T15:44:41.638Z</time></trkpt><trkpt lat="42.0176381" lon="13.4068259"><ele>891.0</ele><time>2026-05-01T15:44:42.636Z</time></trkpt><trkpt lat="42.0175921" lon="13.4069285"><ele>891.0000000000001</ele><time>2026-05-01T15:44:43.645Z</time></trkpt><trkpt lat="42.0175479" lon="13.4070233"><ele>891.0</ele><time>2026-05-01T15:44:44.633Z</time></trkpt><trkpt lat="42.0175101" lon="13.4071168"><ele>891.0</ele><time>2026-05-01T15:44:45.655Z</time></trkpt><trkpt lat="42.0174749" lon="13.4072005"><ele>891.0</ele><time>2026-05-01T15:44:46.641Z</time></trkpt><trkpt lat="42.0174529" lon="13.4072831"><ele>891.0</ele><time>2026-05-01T15:44:47.633Z</time></trkpt><trkpt lat="42.0174567" lon="13.4073729"><ele>891.0000000000001</ele><time>2026-05-01T15:44:48.634Z</time></trkpt><trkpt lat="42.0174835" lon="13.4074553"><ele>891.0</ele><time>2026-05-01T15:44:49.622Z</time></trkpt><trkpt lat="42.0175265" lon="13.40752"><ele>891.0</ele><time>2026-05-01T15:44:50.64Z</time></trkpt><trkpt lat="42.0175931" lon="13.4074993"><ele>890.9999999999999</ele><time>2026-05-01T15:44:51.637Z</time></trkpt><trkpt lat="42.0176798" lon="13.4074389"><ele>890.9999999999999</ele><time>2026-05-01T15:44:52.632Z</time></trkpt><trkpt lat="42.0177689" lon="13.4073264"><ele>891.0</ele><time>2026-05-01T15:44:53.639Z</time></trkpt><trkpt lat="42.0178776" lon="13.4071784"><ele>891.0</ele><time>2026-05-01T15:44:54.628Z</time></trkpt><trkpt lat="42.0179965" lon="13.4070206"><ele>891.0</ele><time>2026-05-01T15:44:55.64Z</time></trkpt><trkpt lat="42.0181091" lon="13.4068949"><ele>891.0</ele><time>2026-05-01T15:44:56.631Z</time></trkpt><trkpt lat="42.0182162" lon="13.406786"><ele>891.0</ele><time>2026-05-01T15:44:57.634Z</time></trkpt><trkpt lat="42.018313" lon="13.4066851"><ele>891.0</ele><time>2026-05-01T15:44:58.64Z</time></trkpt><trkpt lat="42.018393" lon="13.4066049"><ele>891.1999999999999</ele><time>2026-05-01T15:44:59.633Z</time></trkpt><trkpt lat="42.0184733" lon="13.4065332"><ele>891.3999999999999</ele><time>2026-05-01T15:45:00.628Z</time></trkpt><trkpt lat="42.0185525" lon="13.4064914"><ele>891.6</ele><time>2026-05-01T15:45:01.632Z</time></trkpt><trkpt lat="42.0186455" lon="13.406487"><ele>891.8</ele><time>2026-05-01T15:45:02.634Z</time></trkpt><trkpt lat="42.0187377" lon="13.4065237"><ele>892.0</ele><time>2026-05-01T15:45:03.627Z</time></trkpt><trkpt lat="42.0188201" lon="13.4065814"><ele>892.0</ele><time>2026-05-01T15:45:04.637Z</time></trkpt><trkpt lat="42.0188962" lon="13.4066575"><ele>892.0</ele><time>2026-05-01T15:45:05.639Z</time></trkpt><trkpt lat="42.0189733" lon="13.4067324"><ele>892.0</ele><time>2026-05-01T15:45:06.631Z</time></trkpt><trkpt lat="42.019058" lon="13.4068131"><ele>892.0</ele><time>2026-05-01T15:45:07.636Z</time></trkpt><trkpt lat="42.0191502" lon="13.4068936"><ele>892.0</ele><time>2026-05-01T15:45:08.632Z</time></trkpt><trkpt lat="42.0192611" lon="13.4069682"><ele>892.0</ele><time>2026-05-01T15:45:09.634Z</time></trkpt><trkpt lat="42.0193993" lon="13.4070381"><ele>892.0</ele><time>2026-05-01T15:45:10.641Z</time></trkpt><trkpt lat="42.0195712" lon="13.4071403"><ele>892.0</ele><time>2026-05-01T15:45:11.631Z</time></trkpt><trkpt lat="42.0197408" lon="13.407268"><ele>888.0</ele><time>2026-05-01T15:45:12.636Z</time></trkpt><trkpt lat="42.0199028" lon="13.4073806"><ele>884.0</ele><time>2026-05-01T15:45:13.647Z</time></trkpt><trkpt lat="42.0200472" lon="13.407478"><ele>880.0</ele><time>2026-05-01T15:45:14.639Z</time></trkpt><trkpt lat="42.0201887" lon="13.4075419"><ele>880.0</ele><time>2026-05-01T15:45:15.64Z</time></trkpt><trkpt lat="42.0203472" lon="13.4075415"><ele>880.0</ele><time>2026-05-01T15:45:16.635Z</time></trkpt><trkpt lat="42.0205076" lon="13.4074985"><ele>880.0</ele><time>2026-05-01T15:45:17.623Z</time></trkpt><trkpt lat="42.0206507" lon="13.4074509"><ele>880.0</ele><time>2026-05-01T15:45:18.639Z</time></trkpt><trkpt lat="42.0207877" lon="13.4073894"><ele>880.0</ele><time>2026-05-01T15:45:19.632Z</time></trkpt><trkpt lat="42.0209121" lon="13.4072943"><ele>880.0</ele><time>2026-05-01T15:45:20.64Z</time></trkpt><trkpt lat="42.0210211" lon="13.4071529"><ele>880.0</ele><time>2026-05-01T15:45:21.627Z</time></trkpt><trkpt lat="42.021112" lon="13.4069847"><ele>883.0</ele><time>2026-05-01T15:45:22.639Z</time></trkpt><trkpt lat="42.0211918" lon="13.4067944"><ele>886.0</ele><time>2026-05-01T15:45:23.626Z</time></trkpt><trkpt lat="42.0212728" lon="13.4066262"><ele>889.0</ele><time>2026-05-01T15:45:24.63Z</time></trkpt><trkpt lat="42.0213759" lon="13.4065015"><ele>889.0</ele><time>2026-05-01T15:45:25.62Z</time></trkpt><trkpt lat="42.0214998" lon="13.4064138"><ele>889.0</ele><time>2026-05-01T15:45:26.629Z</time></trkpt><trkpt lat="42.0216361" lon="13.4063622"><ele>889.0</ele><time>2026-05-01T15:45:27.624Z</time></trkpt><trkpt lat="42.0217704" lon="13.4063281"><ele>889.0</ele><time>2026-05-01T15:45:28.631Z</time></trkpt><trkpt lat="42.0218937" lon="13.4063517"><ele>887.75</ele><time>2026-05-01T15:45:29.627Z</time></trkpt><trkpt lat="42.0220027" lon="13.4063763"><ele>886.5</ele><time>2026-05-01T15:45:30.63Z</time></trkpt><trkpt lat="42.0221123" lon="13.4063696"><ele>885.25</ele><time>2026-05-01T15:45:31.63Z</time></trkpt><trkpt lat="42.0222193" lon="13.4062844"><ele>884.0</ele><time>2026-05-01T15:45:32.632Z</time></trkpt><trkpt lat="42.0223106" lon="13.4061377"><ele>884.0</ele><time>2026-05-01T15:45:33.633Z</time></trkpt><trkpt lat="42.0223878" lon="13.4059469"><ele>884.0</ele><time>2026-05-01T15:45:34.636Z</time></trkpt><trkpt lat="42.022453" lon="13.4057473"><ele>884.0</ele><time>2026-05-01T15:45:35.621Z</time></trkpt><trkpt lat="42.0225089" lon="13.4055645"><ele>881.75</ele><time>2026-05-01T15:45:36.633Z</time></trkpt><trkpt lat="42.0225422" lon="13.4053636"><ele>879.5</ele><time>2026-05-01T15:45:37.629Z</time></trkpt><trkpt lat="42.0225668" lon="13.405166"><ele>877.25</ele><time>2026-05-01T15:45:38.627Z</time></trkpt><trkpt lat="42.0225901" lon="13.4049883"><ele>875.0</ele><time>2026-05-01T15:45:39.633Z</time></trkpt><trkpt lat="42.0226282" lon="13.4048512"><ele>875.0</ele><time>2026-05-01T15:45:40.629Z</time></trkpt><trkpt lat="42.0227024" lon="13.4047531"><ele>875.0</ele><time>2026-05-01T15:45:41.625Z</time></trkpt><trkpt lat="42.0228129" lon="13.4046955"><ele>875.0</ele><time>2026-05-01T15:45:42.623Z</time></trkpt><trkpt lat="42.022923" lon="13.4047107"><ele>875.0</ele><time>2026-05-01T15:45:43.63Z</time></trkpt><trkpt lat="42.0230452" lon="13.4047665"><ele>875.0</ele><time>2026-05-01T15:45:44.63Z</time></trkpt><trkpt lat="42.0231494" lon="13.4048762"><ele>875.0</ele><time>2026-05-01T15:45:45.628Z</time></trkpt><trkpt lat="42.0232225" lon="13.4050145"><ele>875.0</ele><time>2026-05-01T15:45:46.626Z</time></trkpt><trkpt lat="42.0232629" lon="13.4051872"><ele>875.0</ele><time>2026-05-01T15:45:47.636Z</time></trkpt><trkpt lat="42.0232988" lon="13.4053844"><ele>868.0</ele><time>2026-05-01T15:45:48.638Z</time></trkpt><trkpt lat="42.023362" lon="13.4055841"><ele>861.0</ele><time>2026-05-01T15:45:49.631Z</time></trkpt><trkpt lat="42.0234648" lon="13.4057708"><ele>854.0</ele><time>2026-05-01T15:45:50.637Z</time></trkpt><trkpt lat="42.0235843" lon="13.4059618"><ele>854.0</ele><time>2026-05-01T15:45:51.639Z</time></trkpt><trkpt lat="42.0237204" lon="13.4061394"><ele>854.0</ele><time>2026-05-01T15:45:52.639Z</time></trkpt><trkpt lat="42.0238688" lon="13.4063052"><ele>854.0</ele><time>2026-05-01T15:45:53.63Z</time></trkpt><trkpt lat="42.0240168" lon="13.4064633"><ele>852.0</ele><time>2026-05-01T15:45:54.64Z</time></trkpt><trkpt lat="42.0241505" lon="13.4066027"><ele>850.0</ele><time>2026-05-01T15:45:55.635Z</time></trkpt><trkpt lat="42.0242794" lon="13.4067231"><ele>848.0</ele><time>2026-05-01T15:45:56.628Z</time></trkpt><trkpt lat="42.02442" lon="13.4068245"><ele>848.0</ele><time>2026-05-01T15:45:57.639Z</time></trkpt><trkpt lat="42.0245788" lon="13.4068925"><ele>848.0</ele><time>2026-05-01T15:45:58.63Z</time></trkpt><trkpt lat="42.024751" lon="13.4069455"><ele>848.0</ele><time>2026-05-01T15:45:59.628Z</time></trkpt><trkpt lat="42.0249288" lon="13.4069874"><ele>849.0</ele><time>2026-05-01T15:46:00.633Z</time></trkpt><trkpt lat="42.0251003" lon="13.4070301"><ele>850.0</ele><time>2026-05-01T15:46:01.627Z</time></trkpt><trkpt lat="42.0252581" lon="13.4070771"><ele>851.0</ele><time>2026-05-01T15:46:02.626Z</time></trkpt><trkpt lat="42.0254152" lon="13.4071272"><ele>845.6666666666667</ele><time>2026-05-01T15:46:03.643Z</time></trkpt><trkpt lat="42.0255778" lon="13.4071782"><ele>840.3333333333333</ele><time>2026-05-01T15:46:04.633Z</time></trkpt><trkpt lat="42.0257485" lon="13.4072215"><ele>835.0</ele><time>2026-05-01T15:46:05.631Z</time></trkpt><trkpt lat="42.0259125" lon="13.4072503"><ele>835.0</ele><time>2026-05-01T15:46:06.645Z</time></trkpt><trkpt lat="42.0260679" lon="13.4072787"><ele>835.0</ele><time>2026-05-01T15:46:07.634Z</time></trkpt><trkpt lat="42.0262197" lon="13.4073111"><ele>835.0</ele><time>2026-05-01T15:46:08.636Z</time></trkpt><trkpt lat="42.0263685" lon="13.4073388"><ele>835.0</ele><time>2026-05-01T15:46:09.64Z</time></trkpt><trkpt lat="42.0265143" lon="13.4073748"><ele>835.0</ele><time>2026-05-01T15:46:10.646Z</time></trkpt><trkpt lat="42.0266443" lon="13.4074339"><ele>835.0</ele><time>2026-05-01T15:46:11.634Z</time></trkpt><trkpt lat="42.0267504" lon="13.4075165"><ele>835.0</ele><time>2026-05-01T15:46:12.634Z</time></trkpt><trkpt lat="42.0268324" lon="13.4076345"><ele>836.0</ele><time>2026-05-01T15:46:13.626Z</time></trkpt><trkpt lat="42.0268956" lon="13.4077805"><ele>837.0</ele><time>2026-05-01T15:46:14.632Z</time></trkpt><trkpt lat="42.0269867" lon="13.4079336"><ele>838.0</ele><time>2026-05-01T15:46:15.628Z</time></trkpt><trkpt lat="42.0271148" lon="13.408055"><ele>839.0</ele><time>2026-05-01T15:46:16.634Z</time></trkpt><trkpt lat="42.0272671" lon="13.4081624"><ele>838.0</ele><time>2026-05-01T15:46:17.638Z</time></trkpt><trkpt lat="42.0274343" lon="13.4082518"><ele>837.0</ele><time>2026-05-01T15:46:18.637Z</time></trkpt><trkpt lat="42.027615" lon="13.4083058"><ele>836.0</ele><time>2026-05-01T15:46:19.628Z</time></trkpt><trkpt lat="42.0277841" lon="13.4083435"><ele>836.0</ele><time>2026-05-01T15:46:20.641Z</time></trkpt><trkpt lat="42.0279403" lon="13.4083731"><ele>836.0</ele><time>2026-05-01T15:46:21.636Z</time></trkpt><trkpt lat="42.0280764" lon="13.4083999"><ele>836.0</ele><time>2026-05-01T15:46:22.643Z</time></trkpt><trkpt lat="42.0281975" lon="13.4084239"><ele>836.0</ele><time>2026-05-01T15:46:23.632Z</time></trkpt><trkpt lat="42.0283164" lon="13.4084122"><ele>834.5</ele><time>2026-05-01T15:46:24.639Z</time></trkpt><trkpt lat="42.0284338" lon="13.408348"><ele>833.0</ele><time>2026-05-01T15:46:25.63Z</time></trkpt><trkpt lat="42.0285392" lon="13.4082235"><ele>831.5</ele><time>2026-05-01T15:46:26.638Z</time></trkpt><trkpt lat="42.0286393" lon="13.4080563"><ele>830.0</ele><time>2026-05-01T15:46:27.636Z</time></trkpt><trkpt lat="42.0287293" lon="13.4078661"><ele>835.5</ele><time>2026-05-01T15:46:28.623Z</time></trkpt><trkpt lat="42.0288143" lon="13.4077106"><ele>841.0</ele><time>2026-05-01T15:46:29.634Z</time></trkpt><trkpt lat="42.0288987" lon="13.4075821"><ele>846.5</ele><time>2026-05-01T15:46:30.634Z</time></trkpt><trkpt lat="42.0289859" lon="13.4074592"><ele>852.0</ele><time>2026-05-01T15:46:31.639Z</time></trkpt><trkpt lat="42.0290689" lon="13.407373"><ele>847.0</ele><time>2026-05-01T15:46:32.636Z</time></trkpt><trkpt lat="42.0291627" lon="13.4073451"><ele>842.0</ele><time>2026-05-01T15:46:33.641Z</time></trkpt><trkpt lat="42.0292625" lon="13.4073712"><ele>837.0</ele><time>2026-05-01T15:46:34.636Z</time></trkpt><trkpt lat="42.0293645" lon="13.407471"><ele>832.0</ele><time>2026-05-01T15:46:35.634Z</time></trkpt><trkpt lat="42.0294462" lon="13.4076152"><ele>832.0</ele><time>2026-05-01T15:46:36.647Z</time></trkpt><trkpt lat="42.0295107" lon="13.4078144"><ele>832.0</ele><time>2026-05-01T15:46:37.635Z</time></trkpt><trkpt lat="42.0295758" lon="13.4080072"><ele>832.0</ele><time>2026-05-01T15:46:38.632Z</time></trkpt><trkpt lat="42.029649" lon="13.4081842"><ele>824.6666666666666</ele><time>2026-05-01T15:46:39.626Z</time></trkpt><trkpt lat="42.0297396" lon="13.4083607"><ele>817.3333333333333</ele><time>2026-05-01T15:46:40.632Z</time></trkpt><trkpt lat="42.0298463" lon="13.408523"><ele>810.0</ele><time>2026-05-01T15:46:41.625Z</time></trkpt><trkpt lat="42.029947" lon="13.4086577"><ele>808.0</ele><time>2026-05-01T15:46:42.624Z</time></trkpt><trkpt lat="42.0300498" lon="13.4087632"><ele>806.0</ele><time>2026-05-01T15:46:43.636Z</time></trkpt><trkpt lat="42.0301703" lon="13.408824"><ele>804.0</ele><time>2026-05-01T15:46:44.63Z</time></trkpt><trkpt lat="42.0303189" lon="13.4088722"><ele>802.0</ele><time>2026-05-01T15:46:45.632Z</time></trkpt><trkpt lat="42.0304812" lon="13.4088909"><ele>802.0</ele><time>2026-05-01T15:46:46.641Z</time></trkpt><trkpt lat="42.0306502" lon="13.4088765"><ele>802.0</ele><time>2026-05-01T15:46:47.629Z</time></trkpt><trkpt lat="42.0308149" lon="13.4088471"><ele>802.0</ele><time>2026-05-01T15:46:48.635Z</time></trkpt><trkpt lat="42.0309628" lon="13.4087986"><ele>809.0</ele><time>2026-05-01T15:46:49.629Z</time></trkpt><trkpt lat="42.0310995" lon="13.4087333"><ele>816.0</ele><time>2026-05-01T15:46:50.627Z</time></trkpt><trkpt lat="42.0312198" lon="13.4086447"><ele>823.0</ele><time>2026-05-01T15:46:51.634Z</time></trkpt><trkpt lat="42.0313113" lon="13.4085188"><ele>830.0</ele><time>2026-05-01T15:46:52.636Z</time></trkpt><trkpt lat="42.0313778" lon="13.4083556"><ele>830.0</ele><time>2026-05-01T15:46:53.631Z</time></trkpt><trkpt lat="42.0314229" lon="13.4081694"><ele>830.0</ele><time>2026-05-01T15:46:54.636Z</time></trkpt><trkpt lat="42.0314562" lon="13.4079896"><ele>830.0</ele><time>2026-05-01T15:46:55.632Z</time></trkpt><trkpt lat="42.0315005" lon="13.4078468"><ele>830.0</ele><time>2026-05-01T15:46:56.638Z</time></trkpt><trkpt lat="42.0315742" lon="13.4077446"><ele>828.5</ele><time>2026-05-01T15:46:57.636Z</time></trkpt><trkpt lat="42.0316845" lon="13.4077052"><ele>827.0</ele><time>2026-05-01T15:46:58.627Z</time></trkpt><trkpt lat="42.0318075" lon="13.4077235"><ele>825.5</ele><time>2026-05-01T15:46:59.645Z</time></trkpt><trkpt lat="42.0319314" lon="13.4078046"><ele>824.0</ele><time>2026-05-01T15:47:00.633Z</time></trkpt><trkpt lat="42.0320455" lon="13.4079108"><ele>824.0</ele><time>2026-05-01T15:47:01.635Z</time></trkpt><trkpt lat="42.0321645" lon="13.4079769"><ele>824.0</ele><time>2026-05-01T15:47:02.629Z</time></trkpt><trkpt lat="42.0322876" lon="13.4080031"><ele>824.0</ele><time>2026-05-01T15:47:03.627Z</time></trkpt><trkpt lat="42.0324139" lon="13.4079834"><ele>824.0</ele><time>2026-05-01T15:47:04.627Z</time></trkpt><trkpt lat="42.032545" lon="13.4079102"><ele>823.75</ele><time>2026-05-01T15:47:05.624Z</time></trkpt><trkpt lat="42.0326696" lon="13.4078242"><ele>823.5</ele><time>2026-05-01T15:47:06.64Z</time></trkpt><trkpt lat="42.0327828" lon="13.4077926"><ele>823.25</ele><time>2026-05-01T15:47:07.627Z</time></trkpt><trkpt lat="42.0328761" lon="13.4078373"><ele>823.0</ele><time>2026-05-01T15:47:08.634Z</time></trkpt><trkpt lat="42.0329457" lon="13.4079382"><ele>817.5</ele><time>2026-05-01T15:47:09.625Z</time></trkpt><trkpt lat="42.0329839" lon="13.4080897"><ele>812.0</ele><time>2026-05-01T15:47:10.625Z</time></trkpt><trkpt lat="42.0330013" lon="13.408289"><ele>806.5</ele><time>2026-05-01T15:47:11.627Z</time></trkpt><trkpt lat="42.0330209" lon="13.4084903"><ele>801.0</ele><time>2026-05-01T15:47:12.633Z</time></trkpt><trkpt lat="42.0330538" lon="13.4086744"><ele>801.0</ele><time>2026-05-01T15:47:13.626Z</time></trkpt><trkpt lat="42.0331066" lon="13.4088148"><ele>801.0</ele><time>2026-05-01T15:47:14.634Z</time></trkpt><trkpt lat="42.0331903" lon="13.408925"><ele>801.0</ele><time>2026-05-01T15:47:15.641Z</time></trkpt><trkpt lat="42.0332959" lon="13.4090006"><ele>801.0</ele><time>2026-05-01T15:47:16.632Z</time></trkpt><trkpt lat="42.0334268" lon="13.4090309"><ele>798.5</ele><time>2026-05-01T15:47:17.627Z</time></trkpt><trkpt lat="42.0335655" lon="13.4090169"><ele>796.0</ele><time>2026-05-01T15:47:18.641Z</time></trkpt><trkpt lat="42.0336831" lon="13.4089619"><ele>793.5</ele><time>2026-05-01T15:47:19.627Z</time></trkpt><trkpt lat="42.0337861" lon="13.4088635"><ele>791.0</ele><time>2026-05-01T15:47:20.63Z</time></trkpt><trkpt lat="42.0338827" lon="13.4087131"><ele>794.0</ele><time>2026-05-01T15:47:21.633Z</time></trkpt><trkpt lat="42.0339877" lon="13.4085462"><ele>797.0</ele><time>2026-05-01T15:47:22.632Z</time></trkpt><trkpt lat="42.0340812" lon="13.4083908"><ele>800.0</ele><time>2026-05-01T15:47:23.631Z</time></trkpt><trkpt lat="42.0341786" lon="13.4082654"><ele>803.0</ele><time>2026-05-01T15:47:24.636Z</time></trkpt><trkpt lat="42.0342857" lon="13.4081775"><ele>803.0</ele><time>2026-05-01T15:47:25.632Z</time></trkpt><trkpt lat="42.034413" lon="13.4081094"><ele>803.0</ele><time>2026-05-01T15:47:26.634Z</time></trkpt><trkpt lat="42.0345594" lon="13.4080477"><ele>803.0</ele><time>2026-05-01T15:47:27.641Z</time></trkpt><trkpt lat="42.0347173" lon="13.4079931"><ele>806.3333333333334</ele><time>2026-05-01T15:47:28.641Z</time></trkpt><trkpt lat="42.0348713" lon="13.407946"><ele>809.6666666666667</ele><time>2026-05-01T15:47:29.645Z</time></trkpt><trkpt lat="42.035025" lon="13.4079002"><ele>813.0</ele><time>2026-05-01T15:47:30.636Z</time></trkpt><trkpt lat="42.0351742" lon="13.4078357"><ele>813.0</ele><time>2026-05-01T15:47:31.641Z</time></trkpt><trkpt lat="42.0353164" lon="13.407741"><ele>813.0</ele><time>2026-05-01T15:47:32.624Z</time></trkpt><trkpt lat="42.0354623" lon="13.4076038"><ele>813.0</ele><time>2026-05-01T15:47:33.641Z</time></trkpt><trkpt lat="42.0356096" lon="13.4074504"><ele>813.0</ele><time>2026-05-01T15:47:34.633Z</time></trkpt><trkpt lat="42.0357526" lon="13.4073065"><ele>813.0</ele><time>2026-05-01T15:47:35.635Z</time></trkpt><trkpt lat="42.0359052" lon="13.4071737"><ele>813.0</ele><time>2026-05-01T15:47:36.633Z</time></trkpt><trkpt lat="42.0360748" lon="13.4070629"><ele>814.6666666666667</ele><time>2026-05-01T15:47:37.64Z</time></trkpt><trkpt lat="42.0362679" lon="13.4069679"><ele>816.3333333333334</ele><time>2026-05-01T15:47:38.632Z</time></trkpt><trkpt lat="42.0364712" lon="13.4068877"><ele>818.0</ele><time>2026-05-01T15:47:39.636Z</time></trkpt><trkpt lat="42.0366703" lon="13.4068062"><ele>812.0</ele><time>2026-05-01T15:47:40.639Z</time></trkpt><trkpt lat="42.036858" lon="13.4067358"><ele>806.0</ele><time>2026-05-01T15:47:41.633Z</time></trkpt><trkpt lat="42.0370378" lon="13.4066685"><ele>800.0</ele><time>2026-05-01T15:47:42.634Z</time></trkpt><trkpt lat="42.0372076" lon="13.4066077"><ele>800.0</ele><time>2026-05-01T15:47:43.639Z</time></trkpt><trkpt lat="42.0373698" lon="13.4065494"><ele>800.0</ele><time>2026-05-01T15:47:44.625Z</time></trkpt><trkpt lat="42.0375259" lon="13.4064925"><ele>800.0</ele><time>2026-05-01T15:47:45.64Z</time></trkpt><trkpt lat="42.0376634" lon="13.4064326"><ele>802.0</ele><time>2026-05-01T15:47:46.625Z</time></trkpt><trkpt lat="42.0377721" lon="13.4063888"><ele>804.0</ele><time>2026-05-01T15:47:47.636Z</time></trkpt><trkpt lat="42.0378588" lon="13.4063459"><ele>806.0</ele><time>2026-05-01T15:47:48.631Z</time></trkpt><trkpt lat="42.0379344" lon="13.4063085"><ele>808.0</ele><time>2026-05-01T15:47:49.634Z</time></trkpt><trkpt lat="42.0379976" lon="13.4062854"><ele>810.0</ele><time>2026-05-01T15:47:50.633Z</time></trkpt><trkpt lat="42.0380837" lon="13.4063492"><ele>805.8</ele><time>2026-05-01T15:47:52.64Z</time></trkpt><trkpt lat="42.0380598" lon="13.4064955"><ele>801.6</ele><time>2026-05-01T15:47:54.635Z</time></trkpt><trkpt lat="42.0380022" lon="13.4065465"><ele>797.4000000000001</ele><time>2026-05-01T15:47:55.631Z</time></trkpt><trkpt lat="42.0379119" lon="13.4065816"><ele>793.2</ele><time>2026-05-01T15:47:56.625Z</time></trkpt><trkpt lat="42.0377881" lon="13.4066243"><ele>789.0</ele><time>2026-05-01T15:47:57.634Z</time></trkpt><trkpt lat="42.0376356" lon="13.4066649"><ele>792.6666666666667</ele><time>2026-05-01T15:47:58.631Z</time></trkpt><trkpt lat="42.0374558" lon="13.4067273"><ele>796.3333333333334</ele><time>2026-05-01T15:47:59.635Z</time></trkpt><trkpt lat="42.0372624" lon="13.4067878"><ele>800.0</ele><time>2026-05-01T15:48:00.633Z</time></trkpt><trkpt lat="42.0370508" lon="13.4068907"><ele>800.0</ele><time>2026-05-01T15:48:01.641Z</time></trkpt><trkpt lat="42.0368182" lon="13.4070224"><ele>800.0</ele><time>2026-05-01T15:48:02.637Z</time></trkpt><trkpt lat="42.0365637" lon="13.4071804"><ele>795.0</ele><time>2026-05-01T15:48:03.634Z</time></trkpt><trkpt lat="42.0362991" lon="13.4073596"><ele>790.0</ele><time>2026-05-01T15:48:04.638Z</time></trkpt><trkpt lat="42.0360457" lon="13.4075621"><ele>790.0</ele><time>2026-05-01T15:48:05.638Z</time></trkpt><trkpt lat="42.0358073" lon="13.4077564"><ele>790.0</ele><time>2026-05-01T15:48:06.637Z</time></trkpt><trkpt lat="42.0355871" lon="13.4079497"><ele>785.5</ele><time>2026-05-01T15:48:07.637Z</time></trkpt><trkpt lat="42.0353761" lon="13.4081351"><ele>781.0</ele><time>2026-05-01T15:48:08.632Z</time></trkpt><trkpt lat="42.0351751" lon="13.4083052"><ele>781.0</ele><time>2026-05-01T15:48:09.627Z</time></trkpt><trkpt lat="42.0349837" lon="13.408472"><ele>781.0</ele><time>2026-05-01T15:48:10.633Z</time></trkpt><trkpt lat="42.0348065" lon="13.4086371"><ele>781.0</ele><time>2026-05-01T15:48:11.636Z</time></trkpt><trkpt lat="42.034641" lon="13.4088048"><ele>779.3333333333333</ele><time>2026-05-01T15:48:12.63Z</time></trkpt><trkpt lat="42.0344853" lon="13.4089736"><ele>777.6666666666667</ele><time>2026-05-01T15:48:13.64Z</time></trkpt><trkpt lat="42.0343461" lon="13.4091527"><ele>776.0</ele><time>2026-05-01T15:48:14.63Z</time></trkpt><trkpt lat="42.0342261" lon="13.4093199"><ele>772.0</ele><time>2026-05-01T15:48:15.632Z</time></trkpt><trkpt lat="42.0341065" lon="13.409485"><ele>768.0</ele><time>2026-05-01T15:48:16.642Z</time></trkpt><trkpt lat="42.0339848" lon="13.4096314"><ele>764.0</ele><time>2026-05-01T15:48:17.639Z</time></trkpt><trkpt lat="42.0338591" lon="13.4097559"><ele>764.0</ele><time>2026-05-01T15:48:18.646Z</time></trkpt><trkpt lat="42.0337192" lon="13.4098621"><ele>764.0</ele><time>2026-05-01T15:48:19.636Z</time></trkpt><trkpt lat="42.0335642" lon="13.4099424"><ele>764.0</ele><time>2026-05-01T15:48:20.637Z</time></trkpt><trkpt lat="42.0333931" lon="13.4100186"><ele>764.3333333333333</ele><time>2026-05-01T15:48:21.639Z</time></trkpt><trkpt lat="42.0332107" lon="13.4100961"><ele>764.6666666666666</ele><time>2026-05-01T15:48:22.632Z</time></trkpt><trkpt lat="42.0330174" lon="13.4101789"><ele>765.0</ele><time>2026-05-01T15:48:23.632Z</time></trkpt><trkpt lat="42.0328277" lon="13.4102618"><ele>765.0</ele><time>2026-05-01T15:48:24.632Z</time></trkpt><trkpt lat="42.0326421" lon="13.4103359"><ele>765.0</ele><time>2026-05-01T15:48:25.627Z</time></trkpt><trkpt lat="42.0324653" lon="13.4103979"><ele>765.0</ele><time>2026-05-01T15:48:26.63Z</time></trkpt><trkpt lat="42.0322929" lon="13.4104475"><ele>758.3333333333334</ele><time>2026-05-01T15:48:27.664Z</time></trkpt><trkpt lat="42.0321196" lon="13.4104965"><ele>751.6666666666667</ele><time>2026-05-01T15:48:28.631Z</time></trkpt><trkpt lat="42.031938" lon="13.4105353"><ele>745.0</ele><time>2026-05-01T15:48:29.646Z</time></trkpt><trkpt lat="42.0317547" lon="13.4105754"><ele>745.3333333333334</ele><time>2026-05-01T15:48:30.627Z</time></trkpt><trkpt lat="42.031565" lon="13.4106133"><ele>745.6666666666666</ele><time>2026-05-01T15:48:31.634Z</time></trkpt><trkpt lat="42.031369" lon="13.4106476"><ele>746.0</ele><time>2026-05-01T15:48:32.64Z</time></trkpt><trkpt lat="42.0311787" lon="13.41068"><ele>746.0</ele><time>2026-05-01T15:48:33.632Z</time></trkpt><trkpt lat="42.0309994" lon="13.4107001"><ele>746.0</ele><time>2026-05-01T15:48:34.635Z</time></trkpt><trkpt lat="42.0308222" lon="13.4107219"><ele>746.0</ele><time>2026-05-01T15:48:35.64Z</time></trkpt><trkpt lat="42.0306379" lon="13.4107575"><ele>746.0</ele><time>2026-05-01T15:48:36.64Z</time></trkpt><trkpt lat="42.0304523" lon="13.4107903"><ele>746.0</ele><time>2026-05-01T15:48:37.631Z</time></trkpt><trkpt lat="42.0302663" lon="13.4108218"><ele>746.0</ele><time>2026-05-01T15:48:38.634Z</time></trkpt><trkpt lat="42.0300744" lon="13.4108545"><ele>744.6666666666666</ele><time>2026-05-01T15:48:39.637Z</time></trkpt><trkpt lat="42.029886" lon="13.4108854"><ele>743.3333333333334</ele><time>2026-05-01T15:48:40.637Z</time></trkpt><trkpt lat="42.0297066" lon="13.4109138"><ele>742.0</ele><time>2026-05-01T15:48:41.635Z</time></trkpt><trkpt lat="42.0295381" lon="13.4109445"><ele>742.0</ele><time>2026-05-01T15:48:42.649Z</time></trkpt><trkpt lat="42.0293794" lon="13.4109786"><ele>742.0</ele><time>2026-05-01T15:48:43.628Z</time></trkpt><trkpt lat="42.0292362" lon="13.4110022"><ele>742.0</ele><time>2026-05-01T15:48:44.628Z</time></trkpt><trkpt lat="42.0290934" lon="13.4110339"><ele>740.6666666666667</ele><time>2026-05-01T15:48:45.63Z</time></trkpt><trkpt lat="42.028953" lon="13.4110498"><ele>739.3333333333334</ele><time>2026-05-01T15:48:46.635Z</time></trkpt><trkpt lat="42.0288019" lon="13.4110436"><ele>738.0</ele><time>2026-05-01T15:48:47.635Z</time></trkpt><trkpt lat="42.0286437" lon="13.4110214"><ele>738.0</ele><time>2026-05-01T15:48:48.633Z</time></trkpt><trkpt lat="42.0284837" lon="13.4109996"><ele>738.0</ele><time>2026-05-01T15:48:49.633Z</time></trkpt><trkpt lat="42.0283083" lon="13.4109971"><ele>738.0</ele><time>2026-05-01T15:48:50.633Z</time></trkpt><trkpt lat="42.028105" lon="13.4110138"><ele>738.0</ele><time>2026-05-01T15:48:51.638Z</time></trkpt><trkpt lat="42.0278824" lon="13.4110238"><ele>738.0</ele><time>2026-05-01T15:48:52.635Z</time></trkpt><trkpt lat="42.0276328" lon="13.4110359"><ele>737.5</ele><time>2026-05-01T15:48:53.637Z</time></trkpt><trkpt lat="42.0273753" lon="13.411074"><ele>737.0</ele><time>2026-05-01T15:48:54.646Z</time></trkpt><trkpt lat="42.027128" lon="13.4111182"><ele>737.0</ele><time>2026-05-01T15:48:55.632Z</time></trkpt><trkpt lat="42.0268919" lon="13.4111866"><ele>737.0</ele><time>2026-05-01T15:48:56.628Z</time></trkpt><trkpt lat="42.0266547" lon="13.4112938"><ele>729.5</ele><time>2026-05-01T15:48:57.645Z</time></trkpt><trkpt lat="42.0264274" lon="13.411408"><ele>722.0</ele><time>2026-05-01T15:48:58.64Z</time></trkpt><trkpt lat="42.0262076" lon="13.4115017"><ele>722.0</ele><time>2026-05-01T15:48:59.647Z</time></trkpt><trkpt lat="42.0259824" lon="13.4115907"><ele>722.0</ele><time>2026-05-01T15:49:00.629Z</time></trkpt><trkpt lat="42.0257615" lon="13.4116499"><ele>721.6666666666666</ele><time>2026-05-01T15:49:01.643Z</time></trkpt><trkpt lat="42.0255448" lon="13.4116914"><ele>721.3333333333334</ele><time>2026-05-01T15:49:02.637Z</time></trkpt><trkpt lat="42.0253419" lon="13.4117246"><ele>721.0</ele><time>2026-05-01T15:49:03.629Z</time></trkpt><trkpt lat="42.0251512" lon="13.4117699"><ele>721.0</ele><time>2026-05-01T15:49:04.63Z</time></trkpt><trkpt lat="42.024989" lon="13.4118207"><ele>721.0</ele><time>2026-05-01T15:49:05.635Z</time></trkpt><trkpt lat="42.0248485" lon="13.4118963"><ele>721.0</ele><time>2026-05-01T15:49:06.636Z</time></trkpt><trkpt lat="42.0247139" lon="13.4119973"><ele>721.0</ele><time>2026-05-01T15:49:07.635Z</time></trkpt><trkpt lat="42.0245889" lon="13.4121303"><ele>721.0</ele><time>2026-05-01T15:49:08.633Z</time></trkpt><trkpt lat="42.0244786" lon="13.4122882"><ele>721.0</ele><time>2026-05-01T15:49:09.63Z</time></trkpt><trkpt lat="42.024389" lon="13.4124749"><ele>721.0</ele><time>2026-05-01T15:49:10.631Z</time></trkpt><trkpt lat="42.0243084" lon="13.4126741"><ele>721.0</ele><time>2026-05-01T15:49:11.636Z</time></trkpt><trkpt lat="42.0242208" lon="13.4128602"><ele>721.0</ele><time>2026-05-01T15:49:12.629Z</time></trkpt><trkpt lat="42.0241059" lon="13.4130245"><ele>718.0</ele><time>2026-05-01T15:49:13.639Z</time></trkpt><trkpt lat="42.0239853" lon="13.4131653"><ele>715.0</ele><time>2026-05-01T15:49:14.64Z</time></trkpt><trkpt lat="42.0238669" lon="13.4132842"><ele>712.0</ele><time>2026-05-01T15:49:15.636Z</time></trkpt><trkpt lat="42.0237554" lon="13.4133995"><ele>709.0</ele><time>2026-05-01T15:49:16.637Z</time></trkpt><trkpt lat="42.0236662" lon="13.413496"><ele>709.0</ele><time>2026-05-01T15:49:17.631Z</time></trkpt><trkpt lat="42.0235879" lon="13.413592"><ele>709.0</ele><time>2026-05-01T15:49:18.63Z</time></trkpt><trkpt lat="42.0235299" lon="13.413699"><ele>709.0</ele><time>2026-05-01T15:49:19.637Z</time></trkpt><trkpt lat="42.0235017" lon="13.4138279"><ele>709.0</ele><time>2026-05-01T15:49:20.63Z</time></trkpt><trkpt lat="42.0235199" lon="13.4139724"><ele>709.0</ele><time>2026-05-01T15:49:21.638Z</time></trkpt><trkpt lat="42.0235644" lon="13.4141266"><ele>708.0</ele><time>2026-05-01T15:49:22.652Z</time></trkpt><trkpt lat="42.023622" lon="13.414267"><ele>707.0</ele><time>2026-05-01T15:49:23.636Z</time></trkpt><trkpt lat="42.0236778" lon="13.4143946"><ele>706.0</ele><time>2026-05-01T15:49:24.632Z</time></trkpt><trkpt lat="42.0237263" lon="13.4145116"><ele>705.0</ele><time>2026-05-01T15:49:25.638Z</time></trkpt><trkpt lat="42.0237715" lon="13.4146377"><ele>704.0</ele><time>2026-05-01T15:49:26.647Z</time></trkpt><trkpt lat="42.0238237" lon="13.4147725"><ele>703.25</ele><time>2026-05-01T15:49:27.634Z</time></trkpt><trkpt lat="42.0238797" lon="13.4149085"><ele>702.5</ele><time>2026-05-01T15:49:28.632Z</time></trkpt><trkpt lat="42.0239402" lon="13.4150456"><ele>701.75</ele><time>2026-05-01T15:49:29.633Z</time></trkpt><trkpt lat="42.0239984" lon="13.4151872"><ele>701.0</ele><time>2026-05-01T15:49:30.63Z</time></trkpt><trkpt lat="42.0240585" lon="13.4153382"><ele>701.0</ele><time>2026-05-01T15:49:31.64Z</time></trkpt><trkpt lat="42.0241189" lon="13.41549"><ele>701.0</ele><time>2026-05-01T15:49:32.637Z</time></trkpt><trkpt lat="42.0241753" lon="13.4156401"><ele>701.0</ele><time>2026-05-01T15:49:33.635Z</time></trkpt><trkpt lat="42.0242323" lon="13.4157808"><ele>701.0</ele><time>2026-05-01T15:49:34.637Z</time></trkpt><trkpt lat="42.0242854" lon="13.4159252"><ele>701.0</ele><time>2026-05-01T15:49:35.639Z</time></trkpt><trkpt lat="42.0243395" lon="13.4160663"><ele>701.0</ele><time>2026-05-01T15:49:36.647Z</time></trkpt><trkpt lat="42.0243922" lon="13.4161999"><ele>701.0</ele><time>2026-05-01T15:49:37.63Z</time></trkpt><trkpt lat="42.0244386" lon="13.4163191"><ele>701.0</ele><time>2026-05-01T15:49:38.64Z</time></trkpt><trkpt lat="42.024484" lon="13.4164249"><ele>701.0</ele><time>2026-05-01T15:49:39.638Z</time></trkpt><trkpt lat="42.0245213" lon="13.4165159"><ele>701.0</ele><time>2026-05-01T15:49:40.637Z</time></trkpt><trkpt lat="42.0245504" lon="13.4165956"><ele>701.0</ele><time>2026-05-01T15:49:41.634Z</time></trkpt><trkpt lat="42.0245805" lon="13.4166723"><ele>701.0</ele><time>2026-05-01T15:49:42.633Z</time></trkpt><trkpt lat="42.0246097" lon="13.4167497"><ele>701.0</ele><time>2026-05-01T15:49:43.636Z</time></trkpt><trkpt lat="42.024643" lon="13.4168349"><ele>701.0</ele><time>2026-05-01T15:49:44.63Z</time></trkpt><trkpt lat="42.0246812" lon="13.416922"><ele>701.0</ele><time>2026-05-01T15:49:45.639Z</time></trkpt><trkpt lat="42.0247248" lon="13.4170194"><ele>701.0</ele><time>2026-05-01T15:49:46.632Z</time></trkpt><trkpt lat="42.0247705" lon="13.4171278"><ele>700.75</ele><time>2026-05-01T15:49:47.636Z</time></trkpt><trkpt lat="42.0248227" lon="13.4172496"><ele>700.5</ele><time>2026-05-01T15:49:48.637Z</time></trkpt><trkpt lat="42.0248734" lon="13.417382"><ele>700.25</ele><time>2026-05-01T15:49:49.639Z</time></trkpt><trkpt lat="42.0249335" lon="13.4175196"><ele>700.0</ele><time>2026-05-01T15:49:50.63Z</time></trkpt><trkpt lat="42.0249993" lon="13.4176713"><ele>699.75</ele><time>2026-05-01T15:49:51.634Z</time></trkpt><trkpt lat="42.0250705" lon="13.4178369"><ele>699.5</ele><time>2026-05-01T15:49:52.635Z</time></trkpt><trkpt lat="42.0251396" lon="13.4180186"><ele>699.25</ele><time>2026-05-01T15:49:53.636Z</time></trkpt><trkpt lat="42.0252018" lon="13.4181894"><ele>699.0</ele><time>2026-05-01T15:49:54.63Z</time></trkpt><trkpt lat="42.0252629" lon="13.4183572"><ele>698.75</ele><time>2026-05-01T15:49:55.64Z</time></trkpt><trkpt lat="42.025326" lon="13.4185213"><ele>698.5</ele><time>2026-05-01T15:49:56.643Z</time></trkpt><trkpt lat="42.0253838" lon="13.4186745"><ele>698.25</ele><time>2026-05-01T15:49:57.634Z</time></trkpt><trkpt lat="42.0254414" lon="13.418819"><ele>698.0</ele><time>2026-05-01T15:49:58.641Z</time></trkpt><trkpt lat="42.0254957" lon="13.4189565"><ele>697.75</ele><time>2026-05-01T15:49:59.634Z</time></trkpt><trkpt lat="42.0255549" lon="13.4190975"><ele>697.5</ele><time>2026-05-01T15:50:00.645Z</time></trkpt><trkpt lat="42.0256179" lon="13.4192474"><ele>697.25</ele><time>2026-05-01T15:50:01.638Z</time></trkpt><trkpt lat="42.0256817" lon="13.4194015"><ele>697.0</ele><time>2026-05-01T15:50:02.631Z</time></trkpt><trkpt lat="42.0257441" lon="13.4195486"><ele>697.0</ele><time>2026-05-01T15:50:03.645Z</time></trkpt><trkpt lat="42.0258018" lon="13.4196988"><ele>697.0</ele><time>2026-05-01T15:50:04.638Z</time></trkpt><trkpt lat="42.0258566" lon="13.4198434"><ele>697.0</ele><time>2026-05-01T15:50:05.652Z</time></trkpt><trkpt lat="42.0259075" lon="13.4199855"><ele>697.0</ele><time>2026-05-01T15:50:06.639Z</time></trkpt><trkpt lat="42.0259577" lon="13.4201239"><ele>697.0</ele><time>2026-05-01T15:50:07.631Z</time></trkpt><trkpt lat="42.0260076" lon="13.4202619"><ele>697.0</ele><time>2026-05-01T15:50:08.632Z</time></trkpt><trkpt lat="42.0260609" lon="13.4204011"><ele>697.0</ele><time>2026-05-01T15:50:09.64Z</time></trkpt><trkpt lat="42.0261168" lon="13.4205437"><ele>697.0</ele><time>2026-05-01T15:50:10.64Z</time></trkpt><trkpt lat="42.0261741" lon="13.4206892"><ele>696.6</ele><time>2026-05-01T15:50:11.628Z</time></trkpt><trkpt lat="42.0262305" lon="13.4208301"><ele>696.2</ele><time>2026-05-01T15:50:12.638Z</time></trkpt><trkpt lat="42.0262824" lon="13.420966"><ele>695.8</ele><time>2026-05-01T15:50:13.637Z</time></trkpt><trkpt lat="42.0263301" lon="13.4210892"><ele>695.4</ele><time>2026-05-01T15:50:14.643Z</time></trkpt><trkpt lat="42.0263778" lon="13.4212036"><ele>695.0</ele><time>2026-05-01T15:50:15.63Z</time></trkpt><trkpt lat="42.0264257" lon="13.4213189"><ele>694.6</ele><time>2026-05-01T15:50:16.638Z</time></trkpt><trkpt lat="42.026473" lon="13.4214352"><ele>694.2</ele><time>2026-05-01T15:50:17.648Z</time></trkpt><trkpt lat="42.0265213" lon="13.4215533"><ele>693.8</ele><time>2026-05-01T15:50:18.63Z</time></trkpt><trkpt lat="42.0265672" lon="13.4216624"><ele>693.4</ele><time>2026-05-01T15:50:19.633Z</time></trkpt><trkpt lat="42.0266122" lon="13.4217647"><ele>693.0</ele><time>2026-05-01T15:50:20.637Z</time></trkpt><trkpt lat="42.0266519" lon="13.4218623"><ele>693.0</ele><time>2026-05-01T15:50:21.645Z</time></trkpt><trkpt lat="42.0266925" lon="13.4219635"><ele>693.0</ele><time>2026-05-01T15:50:22.643Z</time></trkpt><trkpt lat="42.0267347" lon="13.4220731"><ele>693.0</ele><time>2026-05-01T15:50:23.641Z</time></trkpt><trkpt lat="42.0267778" lon="13.4221771"><ele>693.0</ele><time>2026-05-01T15:50:24.646Z</time></trkpt><trkpt lat="42.0268225" lon="13.422292"><ele>693.0</ele><time>2026-05-01T15:50:25.636Z</time></trkpt><trkpt lat="42.0268716" lon="13.4224205"><ele>693.0</ele><time>2026-05-01T15:50:26.654Z</time></trkpt><trkpt lat="42.0269198" lon="13.4225394"><ele>693.0</ele><time>2026-05-01T15:50:27.64Z</time></trkpt><trkpt lat="42.0269612" lon="13.4226484"><ele>693.0</ele><time>2026-05-01T15:50:28.636Z</time></trkpt><trkpt lat="42.0270022" lon="13.4227419"><ele>693.0</ele><time>2026-05-01T15:50:29.64Z</time></trkpt><trkpt lat="42.0270363" lon="13.422828"><ele>693.0</ele><time>2026-05-01T15:50:30.64Z</time></trkpt><trkpt lat="42.0270694" lon="13.4229189"><ele>693.0</ele><time>2026-05-01T15:50:31.638Z</time></trkpt><trkpt lat="42.027106" lon="13.423021"><ele>692.5999999999999</ele><time>2026-05-01T15:50:32.636Z</time></trkpt><trkpt lat="42.0271527" lon="13.4231405"><ele>692.1999999999999</ele><time>2026-05-01T15:50:33.636Z</time></trkpt><trkpt lat="42.0272018" lon="13.4232702"><ele>691.8</ele><time>2026-05-01T15:50:34.636Z</time></trkpt><trkpt lat="42.0272581" lon="13.4234004"><ele>691.4</ele><time>2026-05-01T15:50:35.637Z</time></trkpt><trkpt lat="42.0273229" lon="13.4235411"><ele>691.0</ele><time>2026-05-01T15:50:36.632Z</time></trkpt><trkpt lat="42.0273967" lon="13.4236944"><ele>691.0</ele><time>2026-05-01T15:50:37.637Z</time></trkpt><trkpt lat="42.0274682" lon="13.4238633"><ele>691.0</ele><time>2026-05-01T15:50:38.641Z</time></trkpt><trkpt lat="42.0275315" lon="13.4240353"><ele>691.0</ele><time>2026-05-01T15:50:39.636Z</time></trkpt><trkpt lat="42.0275891" lon="13.4241922"><ele>691.0</ele><time>2026-05-01T15:50:40.631Z</time></trkpt><trkpt lat="42.0276332" lon="13.4243183"><ele>691.0</ele><time>2026-05-01T15:50:41.625Z</time></trkpt><trkpt lat="42.0276659" lon="13.4244069"><ele>691.0</ele><time>2026-05-01T15:50:42.635Z</time></trkpt><trkpt lat="42.0277058" lon="13.4244982"><ele>691.0</ele><time>2026-05-01T15:50:44.633Z</time></trkpt><trkpt lat="42.0277464" lon="13.4246053"><ele>691.0</ele><time>2026-05-01T15:51:07.64Z</time></trkpt><trkpt lat="42.0278011" lon="13.4247305"><ele>691.0</ele><time>2026-05-01T15:51:09.632Z</time></trkpt><trkpt lat="42.027858" lon="13.4248745"><ele>691.0</ele><time>2026-05-01T15:51:11.624Z</time></trkpt><trkpt lat="42.0279108" lon="13.4250029"><ele>691.0</ele><time>2026-05-01T15:51:13.632Z</time></trkpt><trkpt lat="42.0279422" lon="13.4250838"><ele>691.0</ele><time>2026-05-01T15:51:14.642Z</time></trkpt><trkpt lat="42.0279762" lon="13.4251822"><ele>691.0</ele><time>2026-05-01T15:51:15.638Z</time></trkpt><trkpt lat="42.0280239" lon="13.4252865"><ele>691.0</ele><time>2026-05-01T15:51:16.634Z</time></trkpt><trkpt lat="42.0280889" lon="13.425392"><ele>691.0</ele><time>2026-05-01T15:51:17.652Z</time></trkpt><trkpt lat="42.0281771" lon="13.4254792"><ele>691.0</ele><time>2026-05-01T15:51:18.63Z</time></trkpt><trkpt lat="42.0282762" lon="13.4255583"><ele>691.0</ele><time>2026-05-01T15:51:19.633Z</time></trkpt><trkpt lat="42.0283751" lon="13.4256273"><ele>691.0</ele><time>2026-05-01T15:51:20.634Z</time></trkpt><trkpt lat="42.0284707" lon="13.4256872"><ele>691.0</ele><time>2026-05-01T15:51:21.624Z</time></trkpt><trkpt lat="42.0285453" lon="13.4257423"><ele>691.0</ele><time>2026-05-01T15:51:22.63Z</time></trkpt><trkpt lat="42.0285966" lon="13.4257991"><ele>691.0</ele><time>2026-05-01T15:51:23.631Z</time></trkpt><trkpt lat="42.0286307" lon="13.4259245"><ele>691.0</ele><time>2026-05-01T15:51:25.624Z</time></trkpt><trkpt lat="42.0286043" lon="13.4260084"><ele>691.0</ele><time>2026-05-01T15:51:26.633Z</time></trkpt><trkpt lat="42.0285668" lon="13.4260918"><ele>691.0</ele><time>2026-05-01T15:51:27.637Z</time></trkpt><trkpt lat="42.028523" lon="13.426192"><ele>691.0</ele><time>2026-05-01T15:51:28.626Z</time></trkpt><trkpt lat="42.028478" lon="13.4262928"><ele>690.6666666666667</ele><time>2026-05-01T15:51:29.636Z</time></trkpt><trkpt lat="42.0284381" lon="13.4263888"><ele>690.3333333333334</ele><time>2026-05-01T15:51:30.628Z</time></trkpt><trkpt lat="42.0284014" lon="13.4264684"><ele>690.0</ele><time>2026-05-01T15:51:31.636Z</time></trkpt><trkpt lat="42.0283524" lon="13.4265972"><ele>689.6666666666666</ele><time>2026-05-01T15:51:33.636Z</time></trkpt><trkpt lat="42.0283237" lon="13.4266749"><ele>689.3333333333333</ele><time>2026-05-01T15:51:34.642Z</time></trkpt><trkpt lat="42.0282817" lon="13.4267896"><ele>689.0</ele><time>2026-05-01T15:51:35.631Z</time></trkpt><trkpt lat="42.0282301" lon="13.4269089"><ele>689.0</ele><time>2026-05-01T15:51:36.64Z</time></trkpt><trkpt lat="42.0281798" lon="13.4270176"><ele>689.0</ele><time>2026-05-01T15:51:37.641Z</time></trkpt><trkpt lat="42.0281385" lon="13.4271258"><ele>689.0</ele><time>2026-05-01T15:51:38.627Z</time></trkpt><trkpt lat="42.0280997" lon="13.4272269"><ele>689.0</ele><time>2026-05-01T15:51:39.641Z</time></trkpt><trkpt lat="42.0280693" lon="13.4273206"><ele>689.0</ele><time>2026-05-01T15:51:40.641Z</time></trkpt><trkpt lat="42.0280351" lon="13.4273947"><ele>689.0</ele><time>2026-05-01T15:51:41.649Z</time></trkpt><trkpt lat="42.0279869" lon="13.4275072"><ele>688.6666666666666</ele><time>2026-05-01T15:51:43.63Z</time></trkpt><trkpt lat="42.0279692" lon="13.4276032"><ele>688.3333333333333</ele><time>2026-05-01T15:51:46.642Z</time></trkpt><trkpt lat="42.0279916" lon="13.4276831"><ele>688.0</ele><time>2026-05-01T15:51:55.644Z</time></trkpt><trkpt lat="42.0280232" lon="13.4277929"><ele>687.6666666666666</ele><time>2026-05-01T15:51:57.644Z</time></trkpt><trkpt lat="42.028088" lon="13.4278906"><ele>687.3333333333334</ele><time>2026-05-01T15:51:59.638Z</time></trkpt><trkpt lat="42.0281754" lon="13.427957"><ele>687.0</ele><time>2026-05-01T15:52:01.635Z</time></trkpt><trkpt lat="42.0282159" lon="13.4278694"><ele>687.0</ele><time>2026-05-01T15:52:04.649Z</time></trkpt><trkpt lat="42.0281651" lon="13.4278059"><ele>687.0</ele><time>2026-05-01T15:52:06.632Z</time></trkpt><trkpt lat="42.028109" lon="13.4277529"><ele>687.0</ele><time>2026-05-01T15:52:39.624Z</time></trkpt><trkpt lat="42.028124" lon="13.4278432"><ele>687.0</ele><time>2026-05-01T15:53:25.61Z</time></trkpt><trkpt lat="42.0281785" lon="13.4278966"><ele>687.0</ele><time>2026-05-01T15:54:14.614Z</time></trkpt><trkpt lat="42.0282251" lon="13.4279629"><ele>687.0</ele><time>2026-05-01T15:54:42.62Z</time></trkpt><trkpt lat="42.0282889" lon="13.4279672"><ele>687.0</ele><time>2026-05-01T15:54:46.617Z</time></trkpt><trkpt lat="42.0282435" lon="13.4279064"><ele>687.0</ele><time>2026-05-01T15:55:04.617Z</time></trkpt></trkseg><trkseg><trkpt lat="42.0281042" lon="13.4276968"><ele>687.0</ele><time>2026-05-01T17:06:51.418Z</time></trkpt><trkpt lat="42.0280225" lon="13.4276337"><ele>687.0</ele><time>2026-05-01T17:07:31.41Z</time></trkpt><trkpt lat="42.0279586" lon="13.427592"><ele>687.0</ele><time>2026-05-01T17:07:33.43Z</time></trkpt><trkpt lat="42.0278603" lon="13.4275376"><ele>687.0</ele><time>2026-05-01T17:07:35.427Z</time></trkpt><trkpt lat="42.0278027" lon="13.4274882"><ele>687.0</ele><time>2026-05-01T17:07:36.433Z</time></trkpt><trkpt lat="42.0277422" lon="13.4274262"><ele>687.0</ele><time>2026-05-01T17:07:37.425Z</time></trkpt><trkpt lat="42.0276827" lon="13.4273643"><ele>687.0</ele><time>2026-05-01T17:07:38.423Z</time></trkpt><trkpt lat="42.0276242" lon="13.4272797"><ele>687.0</ele><time>2026-05-01T17:07:39.422Z</time></trkpt><trkpt lat="42.0275712" lon="13.4272097"><ele>687.0</ele><time>2026-05-01T17:07:40.415Z</time></trkpt><trkpt lat="42.0275179" lon="13.4271304"><ele>687.0</ele><time>2026-05-01T17:07:41.421Z</time></trkpt><trkpt lat="42.0274653" lon="13.42706"><ele>687.0</ele><time>2026-05-01T17:07:42.415Z</time></trkpt><trkpt lat="42.0274137" lon="13.4269869"><ele>687.0</ele><time>2026-05-01T17:07:43.42Z</time></trkpt><trkpt lat="42.0273632" lon="13.4269248"><ele>687.1666666666666</ele><time>2026-05-01T17:07:44.424Z</time></trkpt><trkpt lat="42.0273202" lon="13.4267757"><ele>687.3333333333334</ele><time>2026-05-01T17:07:46.429Z</time></trkpt><trkpt lat="42.0273475" lon="13.4266821"><ele>687.5</ele><time>2026-05-01T17:07:47.426Z</time></trkpt><trkpt lat="42.0274015" lon="13.4266125"><ele>687.6666666666667</ele><time>2026-05-01T17:07:48.428Z</time></trkpt><trkpt lat="42.0274768" lon="13.4265628"><ele>687.8333333333334</ele><time>2026-05-01T17:07:49.427Z</time></trkpt><trkpt lat="42.0275481" lon="13.4265199"><ele>688.0</ele><time>2026-05-01T17:07:50.431Z</time></trkpt><trkpt lat="42.0276175" lon="13.4264645"><ele>688.1428571428572</ele><time>2026-05-01T17:07:51.435Z</time></trkpt><trkpt lat="42.0276769" lon="13.4264032"><ele>688.2857142857143</ele><time>2026-05-01T17:07:52.436Z</time></trkpt><trkpt lat="42.027732" lon="13.4263353"><ele>688.4285714285714</ele><time>2026-05-01T17:07:53.43Z</time></trkpt><trkpt lat="42.0277839" lon="13.4262612"><ele>688.5714285714287</ele><time>2026-05-01T17:07:54.438Z</time></trkpt><trkpt lat="42.0278322" lon="13.4261905"><ele>688.7142857142858</ele><time>2026-05-01T17:07:55.428Z</time></trkpt><trkpt lat="42.0278768" lon="13.4261188"><ele>688.8571428571429</ele><time>2026-05-01T17:07:56.421Z</time></trkpt><trkpt lat="42.0279096" lon="13.4260423"><ele>689.0</ele><time>2026-05-01T17:07:57.423Z</time></trkpt><trkpt lat="42.0279387" lon="13.4259665"><ele>689.3333333333333</ele><time>2026-05-01T17:07:58.419Z</time></trkpt><trkpt lat="42.0279891" lon="13.4258398"><ele>689.6666666666666</ele><time>2026-05-01T17:08:00.438Z</time></trkpt><trkpt lat="42.0280349" lon="13.4257282"><ele>690.0</ele><time>2026-05-01T17:08:02.43Z</time></trkpt><trkpt lat="42.0280807" lon="13.4256384"><ele>690.3333333333334</ele><time>2026-05-01T17:08:04.432Z</time></trkpt><trkpt lat="42.0281329" lon="13.4255737"><ele>690.6666666666667</ele><time>2026-05-01T17:08:06.44Z</time></trkpt><trkpt lat="42.0282101" lon="13.4255537"><ele>691.0</ele><time>2026-05-01T17:08:08.426Z</time></trkpt><trkpt lat="42.0283324" lon="13.425603"><ele>690.9999999999999</ele><time>2026-05-01T17:08:10.432Z</time></trkpt><trkpt lat="42.0284018" lon="13.4256472"><ele>691.0</ele><time>2026-05-01T17:08:11.422Z</time></trkpt><trkpt lat="42.0284709" lon="13.425695"><ele>691.0</ele><time>2026-05-01T17:08:12.424Z</time></trkpt><trkpt lat="42.0285296" lon="13.4257415"><ele>691.0</ele><time>2026-05-01T17:08:13.425Z</time></trkpt><trkpt lat="42.0285899" lon="13.4257907"><ele>691.0</ele><time>2026-05-01T17:08:14.423Z</time></trkpt><trkpt lat="42.028652" lon="13.4258439"><ele>690.9999999999999</ele><time>2026-05-01T17:08:15.43Z</time></trkpt><trkpt lat="42.028718" lon="13.425894"><ele>691.0</ele><time>2026-05-01T17:08:16.428Z</time></trkpt><trkpt lat="42.0287853" lon="13.4259519"><ele>691.0</ele><time>2026-05-01T17:08:17.447Z</time></trkpt><trkpt lat="42.0288459" lon="13.4260052"><ele>691.0</ele><time>2026-05-01T17:08:18.426Z</time></trkpt><trkpt lat="42.028923" lon="13.4260877"><ele>691.0</ele><time>2026-05-01T17:08:20.426Z</time></trkpt><trkpt lat="42.0289708" lon="13.426144"><ele>691.0</ele><time>2026-05-01T17:08:37.429Z</time></trkpt><trkpt lat="42.0289144" lon="13.4262038"><ele>691.0</ele><time>2026-05-01T17:09:34.422Z</time></trkpt><trkpt lat="42.0290827" lon="13.4262192"><ele>691.0</ele><time>2026-05-01T17:10:24.443Z</time></trkpt><trkpt lat="42.0291504" lon="13.4262535"><ele>691.0</ele><time>2026-05-01T17:10:25.429Z</time></trkpt><trkpt lat="42.0292331" lon="13.4262952"><ele>691.0</ele><time>2026-05-01T17:10:26.428Z</time></trkpt><trkpt lat="42.0293131" lon="13.4263348"><ele>691.0</ele><time>2026-05-01T17:10:27.429Z</time></trkpt><trkpt lat="42.02939" lon="13.4263855"><ele>691.0</ele><time>2026-05-01T17:10:28.43Z</time></trkpt><trkpt lat="42.029457" lon="13.426443"><ele>691.0</ele><time>2026-05-01T17:10:29.439Z</time></trkpt><trkpt lat="42.0295213" lon="13.4264911"><ele>690.5</ele><time>2026-05-01T17:10:30.423Z</time></trkpt><trkpt lat="42.0295822" lon="13.4265367"><ele>690.0</ele><time>2026-05-01T17:10:31.432Z</time></trkpt><trkpt lat="42.0296491" lon="13.4265876"><ele>689.5</ele><time>2026-05-01T17:10:32.431Z</time></trkpt><trkpt lat="42.0297213" lon="13.4266336"><ele>689.0</ele><time>2026-05-01T17:10:33.428Z</time></trkpt><trkpt lat="42.029779" lon="13.4266934"><ele>688.5</ele><time>2026-05-01T17:10:34.423Z</time></trkpt><trkpt lat="42.0298441" lon="13.4267409"><ele>688.0</ele><time>2026-05-01T17:10:35.43Z</time></trkpt><trkpt lat="42.0299155" lon="13.426783"><ele>688.3333333333334</ele><time>2026-05-01T17:10:36.429Z</time></trkpt><trkpt lat="42.0299882" lon="13.4268341"><ele>688.6666666666667</ele><time>2026-05-01T17:10:37.423Z</time></trkpt><trkpt lat="42.0300559" lon="13.4268792"><ele>689.0</ele><time>2026-05-01T17:10:38.437Z</time></trkpt><trkpt lat="42.0301144" lon="13.4269211"><ele>689.3333333333334</ele><time>2026-05-01T17:10:39.427Z</time></trkpt><trkpt lat="42.0302188" lon="13.4270015"><ele>689.6666666666666</ele><time>2026-05-01T17:10:41.421Z</time></trkpt><trkpt lat="42.0302819" lon="13.4270384"><ele>690.0</ele><time>2026-05-01T17:10:42.428Z</time></trkpt><trkpt lat="42.0303707" lon="13.4271158"><ele>690.0</ele><time>2026-05-01T17:10:43.427Z</time></trkpt><trkpt lat="42.0304789" lon="13.4272071"><ele>690.0</ele><time>2026-05-01T17:10:44.437Z</time></trkpt><trkpt lat="42.0305849" lon="13.4272758"><ele>690.0</ele><time>2026-05-01T17:10:45.424Z</time></trkpt><trkpt lat="42.0306863" lon="13.4273424"><ele>690.0</ele><time>2026-05-01T17:10:46.428Z</time></trkpt><trkpt lat="42.0307968" lon="13.4274146"><ele>690.0</ele><time>2026-05-01T17:10:47.422Z</time></trkpt><trkpt lat="42.0309446" lon="13.4275013"><ele>690.0</ele><time>2026-05-01T17:10:48.429Z</time></trkpt><trkpt lat="42.0311078" lon="13.4276329"><ele>690.0</ele><time>2026-05-01T17:10:49.432Z</time></trkpt><trkpt lat="42.0312797" lon="13.4277759"><ele>690.0</ele><time>2026-05-01T17:10:50.421Z</time></trkpt><trkpt lat="42.0314632" lon="13.4278996"><ele>690.0</ele><time>2026-05-01T17:10:51.436Z</time></trkpt><trkpt lat="42.0316282" lon="13.4280156"><ele>690.0</ele><time>2026-05-01T17:10:52.425Z</time></trkpt><trkpt lat="42.0317661" lon="13.4281248"><ele>689.5</ele><time>2026-05-01T17:10:53.426Z</time></trkpt><trkpt lat="42.0318992" lon="13.4282189"><ele>689.0</ele><time>2026-05-01T17:10:54.424Z</time></trkpt><trkpt lat="42.0320283" lon="13.4283017"><ele>688.5</ele><time>2026-05-01T17:10:55.436Z</time></trkpt><trkpt lat="42.0321528" lon="13.4283756"><ele>688.0</ele><time>2026-05-01T17:10:56.416Z</time></trkpt><trkpt lat="42.0322743" lon="13.4284735"><ele>688.0</ele><time>2026-05-01T17:10:57.43Z</time></trkpt><trkpt lat="42.0324229" lon="13.4286072"><ele>688.0</ele><time>2026-05-01T17:10:58.441Z</time></trkpt><trkpt lat="42.0325979" lon="13.428752"><ele>688.0</ele><time>2026-05-01T17:10:59.451Z</time></trkpt><trkpt lat="42.0327687" lon="13.4288729"><ele>688.0</ele><time>2026-05-01T17:11:00.44Z</time></trkpt><trkpt lat="42.0329171" lon="13.4289852"><ele>688.0</ele><time>2026-05-01T17:11:01.436Z</time></trkpt><trkpt lat="42.0330613" lon="13.4290874"><ele>688.0</ele><time>2026-05-01T17:11:02.436Z</time></trkpt><trkpt lat="42.0331978" lon="13.4291839"><ele>688.5</ele><time>2026-05-01T17:11:03.437Z</time></trkpt><trkpt lat="42.0333183" lon="13.4292701"><ele>689.0</ele><time>2026-05-01T17:11:04.442Z</time></trkpt><trkpt lat="42.0334242" lon="13.4293444"><ele>689.5</ele><time>2026-05-01T17:11:05.447Z</time></trkpt><trkpt lat="42.0335272" lon="13.4294044"><ele>690.0</ele><time>2026-05-01T17:11:06.427Z</time></trkpt><trkpt lat="42.0336109" lon="13.4294573"><ele>690.0</ele><time>2026-05-01T17:11:07.433Z</time></trkpt><trkpt lat="42.0336812" lon="13.4295166"><ele>690.0</ele><time>2026-05-01T17:11:08.433Z</time></trkpt><trkpt lat="42.0337365" lon="13.4295995"><ele>690.0</ele><time>2026-05-01T17:11:09.428Z</time></trkpt><trkpt lat="42.0337735" lon="13.4296909"><ele>690.0</ele><time>2026-05-01T17:11:10.431Z</time></trkpt><trkpt lat="42.0338101" lon="13.4297762"><ele>690.0</ele><time>2026-05-01T17:11:11.43Z</time></trkpt><trkpt lat="42.0338826" lon="13.4298246"><ele>690.0</ele><time>2026-05-01T17:11:12.423Z</time></trkpt><trkpt lat="42.0340063" lon="13.4298293"><ele>689.75</ele><time>2026-05-01T17:11:13.424Z</time></trkpt><trkpt lat="42.0341278" lon="13.429868"><ele>689.5</ele><time>2026-05-01T17:11:14.418Z</time></trkpt><trkpt lat="42.0342524" lon="13.4299485"><ele>689.25</ele><time>2026-05-01T17:11:15.444Z</time></trkpt><trkpt lat="42.0343833" lon="13.4300273"><ele>689.0</ele><time>2026-05-01T17:11:16.421Z</time></trkpt><trkpt lat="42.0345099" lon="13.4301048"><ele>689.5</ele><time>2026-05-01T17:11:17.426Z</time></trkpt><trkpt lat="42.0346196" lon="13.4301825"><ele>690.0</ele><time>2026-05-01T17:11:18.425Z</time></trkpt><trkpt lat="42.0347203" lon="13.4302584"><ele>690.5</ele><time>2026-05-01T17:11:19.429Z</time></trkpt><trkpt lat="42.0348234" lon="13.4303259"><ele>691.0</ele><time>2026-05-01T17:11:20.423Z</time></trkpt><trkpt lat="42.0349399" lon="13.4304085"><ele>691.0</ele><time>2026-05-01T17:11:21.429Z</time></trkpt><trkpt lat="42.0350733" lon="13.4305191"><ele>691.0</ele><time>2026-05-01T17:11:22.431Z</time></trkpt><trkpt lat="42.0352066" lon="13.4306479"><ele>691.0</ele><time>2026-05-01T17:11:23.433Z</time></trkpt><trkpt lat="42.0353318" lon="13.4307778"><ele>691.0</ele><time>2026-05-01T17:11:24.428Z</time></trkpt><trkpt lat="42.0354388" lon="13.4308913"><ele>691.0</ele><time>2026-05-01T17:11:25.419Z</time></trkpt><trkpt lat="42.0355141" lon="13.4309991"><ele>691.0</ele><time>2026-05-01T17:11:26.426Z</time></trkpt><trkpt lat="42.0355713" lon="13.4310856"><ele>691.0</ele><time>2026-05-01T17:11:27.431Z</time></trkpt><trkpt lat="42.0356156" lon="13.4311564"><ele>691.0</ele><time>2026-05-01T17:11:28.425Z</time></trkpt><trkpt lat="42.0356748" lon="13.4312527"><ele>690.8</ele><time>2026-05-01T17:11:30.426Z</time></trkpt><trkpt lat="42.0357372" lon="13.4313549"><ele>690.5999999999999</ele><time>2026-05-01T17:11:33.435Z</time></trkpt><trkpt lat="42.0358194" lon="13.4314836"><ele>690.4</ele><time>2026-05-01T17:11:35.438Z</time></trkpt><trkpt lat="42.0358804" lon="13.4315606"><ele>690.2</ele><time>2026-05-01T17:11:36.43Z</time></trkpt><trkpt lat="42.035946" lon="13.4316382"><ele>690.0</ele><time>2026-05-01T17:11:37.423Z</time></trkpt><trkpt lat="42.0360011" lon="13.4316905"><ele>690.0</ele><time>2026-05-01T17:11:38.428Z</time></trkpt><trkpt lat="42.0360543" lon="13.4317508"><ele>690.0</ele><time>2026-05-01T17:11:39.428Z</time></trkpt><trkpt lat="42.0361105" lon="13.4318087"><ele>690.0</ele><time>2026-05-01T17:11:40.432Z</time></trkpt><trkpt lat="42.0361685" lon="13.4318847"><ele>690.0</ele><time>2026-05-01T17:11:41.426Z</time></trkpt><trkpt lat="42.0362295" lon="13.4319613"><ele>690.0</ele><time>2026-05-01T17:11:42.434Z</time></trkpt><trkpt lat="42.0362903" lon="13.4320487"><ele>690.0</ele><time>2026-05-01T17:11:43.409Z</time></trkpt><trkpt lat="42.036348" lon="13.4321484"><ele>690.0</ele><time>2026-05-01T17:11:44.434Z</time></trkpt><trkpt lat="42.0364056" lon="13.432261"><ele>690.0</ele><time>2026-05-01T17:11:45.425Z</time></trkpt><trkpt lat="42.0364576" lon="13.4323881"><ele>690.0</ele><time>2026-05-01T17:11:46.427Z</time></trkpt><trkpt lat="42.036516" lon="13.4325117"><ele>690.0</ele><time>2026-05-01T17:11:47.428Z</time></trkpt><trkpt lat="42.0365732" lon="13.4326356"><ele>690.0</ele><time>2026-05-01T17:11:48.41Z</time></trkpt><trkpt lat="42.0366274" lon="13.4327696"><ele>690.0</ele><time>2026-05-01T17:11:49.439Z</time></trkpt><trkpt lat="42.0366819" lon="13.4329008"><ele>690.0</ele><time>2026-05-01T17:11:50.438Z</time></trkpt><trkpt lat="42.0367359" lon="13.4330358"><ele>690.0</ele><time>2026-05-01T17:11:51.428Z</time></trkpt><trkpt lat="42.0367861" lon="13.4331737"><ele>690.0</ele><time>2026-05-01T17:11:52.433Z</time></trkpt><trkpt lat="42.0368396" lon="13.4333004"><ele>690.0</ele><time>2026-05-01T17:11:53.424Z</time></trkpt><trkpt lat="42.0368894" lon="13.4334072"><ele>690.0</ele><time>2026-05-01T17:11:54.427Z</time></trkpt><trkpt lat="42.0369363" lon="13.4335175"><ele>690.0</ele><time>2026-05-01T17:11:55.428Z</time></trkpt><trkpt lat="42.0369854" lon="13.4336359"><ele>690.0</ele><time>2026-05-01T17:11:56.428Z</time></trkpt><trkpt lat="42.0370317" lon="13.4337537"><ele>690.0</ele><time>2026-05-01T17:11:57.423Z</time></trkpt><trkpt lat="42.037069" lon="13.4338522"><ele>690.0</ele><time>2026-05-01T17:11:58.426Z</time></trkpt><trkpt lat="42.0371052" lon="13.4339401"><ele>689.8</ele><time>2026-05-01T17:11:59.449Z</time></trkpt><trkpt lat="42.0371789" lon="13.4340844"><ele>689.6</ele><time>2026-05-01T17:12:01.431Z</time></trkpt><trkpt lat="42.0372166" lon="13.4341687"><ele>689.4000000000001</ele><time>2026-05-01T17:12:02.43Z</time></trkpt><trkpt lat="42.0372415" lon="13.4342468"><ele>689.2</ele><time>2026-05-01T17:12:03.429Z</time></trkpt><trkpt lat="42.0373034" lon="13.4344069"><ele>689.0</ele><time>2026-05-01T17:12:05.428Z</time></trkpt><trkpt lat="42.0373423" lon="13.4345037"><ele>689.0</ele><time>2026-05-01T17:12:06.443Z</time></trkpt><trkpt lat="42.037392" lon="13.4346121"><ele>689.0</ele><time>2026-05-01T17:12:07.43Z</time></trkpt><trkpt lat="42.0374407" lon="13.4347389"><ele>689.0</ele><time>2026-05-01T17:12:08.425Z</time></trkpt><trkpt lat="42.0374864" lon="13.434871"><ele>689.0</ele><time>2026-05-01T17:12:09.428Z</time></trkpt><trkpt lat="42.0375381" lon="13.4349886"><ele>689.0</ele><time>2026-05-01T17:12:10.429Z</time></trkpt><trkpt lat="42.0375831" lon="13.4350921"><ele>689.0</ele><time>2026-05-01T17:12:11.431Z</time></trkpt><trkpt lat="42.0376203" lon="13.4351821"><ele>689.0</ele><time>2026-05-01T17:12:12.424Z</time></trkpt><trkpt lat="42.0376542" lon="13.4352663"><ele>689.0</ele><time>2026-05-01T17:12:13.432Z</time></trkpt><trkpt lat="42.0376801" lon="13.435345"><ele>689.0</ele><time>2026-05-01T17:12:14.426Z</time></trkpt><trkpt lat="42.0377156" lon="13.4354288"><ele>689.0</ele><time>2026-05-01T17:12:15.425Z</time></trkpt><trkpt lat="42.0377524" lon="13.4355224"><ele>689.0</ele><time>2026-05-01T17:12:16.425Z</time></trkpt><trkpt lat="42.0377925" lon="13.4356223"><ele>689.0</ele><time>2026-05-01T17:12:17.43Z</time></trkpt><trkpt lat="42.0378379" lon="13.4357249"><ele>689.0</ele><time>2026-05-01T17:12:18.421Z</time></trkpt><trkpt lat="42.0378829" lon="13.4358374"><ele>689.0</ele><time>2026-05-01T17:12:19.425Z</time></trkpt><trkpt lat="42.0379132" lon="13.4359389"><ele>689.0</ele><time>2026-05-01T17:12:20.427Z</time></trkpt><trkpt lat="42.0379454" lon="13.4360222"><ele>689.0</ele><time>2026-05-01T17:12:21.431Z</time></trkpt><trkpt lat="42.0380075" lon="13.4361618"><ele>689.0</ele><time>2026-05-01T17:12:23.427Z</time></trkpt><trkpt lat="42.0380662" lon="13.4363036"><ele>689.0</ele><time>2026-05-01T17:12:25.436Z</time></trkpt><trkpt lat="42.0381252" lon="13.43644"><ele>689.0</ele><time>2026-05-01T17:12:27.438Z</time></trkpt><trkpt lat="42.0381589" lon="13.4365178"><ele>689.0</ele><time>2026-05-01T17:12:28.425Z</time></trkpt><trkpt lat="42.038204" lon="13.4366277"><ele>689.0</ele><time>2026-05-01T17:12:29.429Z</time></trkpt><trkpt lat="42.0382646" lon="13.4367638"><ele>689.0</ele><time>2026-05-01T17:12:30.428Z</time></trkpt><trkpt lat="42.0383189" lon="13.4369126"><ele>689.0</ele><time>2026-05-01T17:12:31.442Z</time></trkpt><trkpt lat="42.0383845" lon="13.4370579"><ele>689.0</ele><time>2026-05-01T17:12:32.427Z</time></trkpt><trkpt lat="42.0384629" lon="13.4372255"><ele>689.0</ele><time>2026-05-01T17:12:33.431Z</time></trkpt><trkpt lat="42.0385451" lon="13.4374182"><ele>689.0</ele><time>2026-05-01T17:12:34.423Z</time></trkpt><trkpt lat="42.0386073" lon="13.4376062"><ele>688.5</ele><time>2026-05-01T17:12:35.441Z</time></trkpt><trkpt lat="42.0386629" lon="13.4377714"><ele>688.0</ele><time>2026-05-01T17:12:36.429Z</time></trkpt><trkpt lat="42.0387251" lon="13.4379122"><ele>687.5</ele><time>2026-05-01T17:12:37.427Z</time></trkpt><trkpt lat="42.0387844" lon="13.4380525"><ele>687.0</ele><time>2026-05-01T17:12:38.419Z</time></trkpt><trkpt lat="42.0388449" lon="13.4382347"><ele>687.0</ele><time>2026-05-01T17:12:39.42Z</time></trkpt><trkpt lat="42.038923" lon="13.4384363"><ele>687.0</ele><time>2026-05-01T17:12:40.433Z</time></trkpt><trkpt lat="42.0390037" lon="13.4386301"><ele>687.0</ele><time>2026-05-01T17:12:41.431Z</time></trkpt><trkpt lat="42.0390678" lon="13.4387567"><ele>687.0</ele><time>2026-05-01T17:12:42.436Z</time></trkpt><trkpt lat="42.0391036" lon="13.4388766"><ele>687.75</ele><time>2026-05-01T17:12:43.437Z</time></trkpt><trkpt lat="42.0391581" lon="13.4390204"><ele>688.5</ele><time>2026-05-01T17:12:44.425Z</time></trkpt><trkpt lat="42.0392236" lon="13.4391644"><ele>689.25</ele><time>2026-05-01T17:12:45.442Z</time></trkpt><trkpt lat="42.0392808" lon="13.4392976"><ele>690.0</ele><time>2026-05-01T17:12:46.434Z</time></trkpt><trkpt lat="42.0393291" lon="13.4394197"><ele>690.0</ele><time>2026-05-01T17:12:47.431Z</time></trkpt><trkpt lat="42.039377" lon="13.4395258"><ele>690.0</ele><time>2026-05-01T17:12:48.427Z</time></trkpt><trkpt lat="42.0394155" lon="13.4396151"><ele>690.0</ele><time>2026-05-01T17:12:49.427Z</time></trkpt><trkpt lat="42.039446" lon="13.4396993"><ele>690.0</ele><time>2026-05-01T17:12:50.431Z</time></trkpt><trkpt lat="42.0394521" lon="13.4398355"><ele>690.0</ele><time>2026-05-01T17:12:52.426Z</time></trkpt><trkpt lat="42.039429" lon="13.4399231"><ele>690.0</ele><time>2026-05-01T17:12:54.437Z</time></trkpt><trkpt lat="42.0393764" lon="13.440023"><ele>689.6</ele><time>2026-05-01T17:12:56.427Z</time></trkpt><trkpt lat="42.0394259" lon="13.4401437"><ele>689.2</ele><time>2026-05-01T17:12:58.427Z</time></trkpt><trkpt lat="42.0395229" lon="13.4401962"><ele>688.8</ele><time>2026-05-01T17:13:00.425Z</time></trkpt><trkpt lat="42.0396405" lon="13.4402251"><ele>688.4</ele><time>2026-05-01T17:13:02.437Z</time></trkpt><trkpt lat="42.0397027" lon="13.4402786"><ele>688.0</ele><time>2026-05-01T17:13:03.431Z</time></trkpt><trkpt lat="42.0397622" lon="13.4403608"><ele>687.8</ele><time>2026-05-01T17:13:04.423Z</time></trkpt><trkpt lat="42.0398296" lon="13.4404768"><ele>687.5999999999999</ele><time>2026-05-01T17:13:05.426Z</time></trkpt><trkpt lat="42.0398939" lon="13.4405971"><ele>687.4000000000001</ele><time>2026-05-01T17:13:06.433Z</time></trkpt><trkpt lat="42.0399555" lon="13.4407194"><ele>687.2</ele><time>2026-05-01T17:13:07.432Z</time></trkpt><trkpt lat="42.0400212" lon="13.4408393"><ele>687.0</ele><time>2026-05-01T17:13:08.427Z</time></trkpt><trkpt lat="42.0400923" lon="13.4409743"><ele>688.0</ele><time>2026-05-01T17:13:09.427Z</time></trkpt><trkpt lat="42.0401651" lon="13.4411081"><ele>689.0</ele><time>2026-05-01T17:13:10.427Z</time></trkpt><trkpt lat="42.0402346" lon="13.4412458"><ele>690.0</ele><time>2026-05-01T17:13:11.424Z</time></trkpt><trkpt lat="42.040308" lon="13.4413809"><ele>691.0</ele><time>2026-05-01T17:13:12.429Z</time></trkpt><trkpt lat="42.0403821" lon="13.4415182"><ele>691.0</ele><time>2026-05-01T17:13:13.434Z</time></trkpt><trkpt lat="42.040446" lon="13.4416368"><ele>691.0</ele><time>2026-05-01T17:13:14.425Z</time></trkpt><trkpt lat="42.0404959" lon="13.4417409"><ele>691.0</ele><time>2026-05-01T17:13:15.427Z</time></trkpt><trkpt lat="42.040542" lon="13.4418221"><ele>691.0</ele><time>2026-05-01T17:13:16.428Z</time></trkpt><trkpt lat="42.0405859" lon="13.4419077"><ele>691.0</ele><time>2026-05-01T17:13:17.422Z</time></trkpt><trkpt lat="42.0406364" lon="13.4419976"><ele>691.0</ele><time>2026-05-01T17:13:18.43Z</time></trkpt><trkpt lat="42.0406872" lon="13.4420848"><ele>691.1999999999999</ele><time>2026-05-01T17:13:19.435Z</time></trkpt><trkpt lat="42.040736" lon="13.4421745"><ele>691.4</ele><time>2026-05-01T17:13:20.438Z</time></trkpt><trkpt lat="42.0407977" lon="13.4422848"><ele>691.6</ele><time>2026-05-01T17:13:21.425Z</time></trkpt><trkpt lat="42.0408699" lon="13.4424173"><ele>691.8</ele><time>2026-05-01T17:13:22.432Z</time></trkpt><trkpt lat="42.040949" lon="13.4425628"><ele>692.0</ele><time>2026-05-01T17:13:23.44Z</time></trkpt><trkpt lat="42.0410252" lon="13.4427135"><ele>693.25</ele><time>2026-05-01T17:13:24.431Z</time></trkpt><trkpt lat="42.0410998" lon="13.4428616"><ele>694.5</ele><time>2026-05-01T17:13:25.437Z</time></trkpt><trkpt lat="42.0411573" lon="13.4430039"><ele>695.75</ele><time>2026-05-01T17:13:26.435Z</time></trkpt><trkpt lat="42.0412196" lon="13.4431379"><ele>697.0</ele><time>2026-05-01T17:13:27.427Z</time></trkpt><trkpt lat="42.0413079" lon="13.4432898"><ele>697.0</ele><time>2026-05-01T17:13:28.434Z</time></trkpt><trkpt lat="42.0414277" lon="13.4434979"><ele>697.0</ele><time>2026-05-01T17:13:29.424Z</time></trkpt><trkpt lat="42.0415678" lon="13.4437307"><ele>697.0</ele><time>2026-05-01T17:13:30.431Z</time></trkpt><trkpt lat="42.0416937" lon="13.4439544"><ele>697.3333333333334</ele><time>2026-05-01T17:13:31.425Z</time></trkpt><trkpt lat="42.0418009" lon="13.444145"><ele>697.6666666666666</ele><time>2026-05-01T17:13:32.435Z</time></trkpt><trkpt lat="42.0418972" lon="13.4443189"><ele>698.0</ele><time>2026-05-01T17:13:33.426Z</time></trkpt><trkpt lat="42.0419894" lon="13.4444817"><ele>698.0</ele><time>2026-05-01T17:13:34.426Z</time></trkpt><trkpt lat="42.0420702" lon="13.4446247"><ele>698.0</ele><time>2026-05-01T17:13:35.427Z</time></trkpt><trkpt lat="42.0421446" lon="13.4447646"><ele>698.0</ele><time>2026-05-01T17:13:36.428Z</time></trkpt><trkpt lat="42.0422076" lon="13.4448875"><ele>698.0</ele><time>2026-05-01T17:13:37.428Z</time></trkpt><trkpt lat="42.0422688" lon="13.445004"><ele>698.2</ele><time>2026-05-01T17:13:38.438Z</time></trkpt><trkpt lat="42.0423252" lon="13.4451118"><ele>698.4</ele><time>2026-05-01T17:13:39.424Z</time></trkpt><trkpt lat="42.0423748" lon="13.4452132"><ele>698.6</ele><time>2026-05-01T17:13:40.434Z</time></trkpt><trkpt lat="42.0424228" lon="13.4453135"><ele>698.8000000000001</ele><time>2026-05-01T17:13:41.426Z</time></trkpt><trkpt lat="42.0424727" lon="13.4454096"><ele>699.0</ele><time>2026-05-01T17:13:42.426Z</time></trkpt><trkpt lat="42.0425254" lon="13.4455099"><ele>699.4000000000001</ele><time>2026-05-01T17:13:43.43Z</time></trkpt><trkpt lat="42.0425872" lon="13.4456174"><ele>699.8</ele><time>2026-05-01T17:13:44.437Z</time></trkpt><trkpt lat="42.0426548" lon="13.4457278"><ele>700.2</ele><time>2026-05-01T17:13:45.419Z</time></trkpt><trkpt lat="42.0427164" lon="13.4458331"><ele>700.5999999999999</ele><time>2026-05-01T17:13:46.427Z</time></trkpt><trkpt lat="42.0427715" lon="13.4459308"><ele>701.0</ele><time>2026-05-01T17:13:47.426Z</time></trkpt><trkpt lat="42.0428286" lon="13.4460189"><ele>701.0</ele><time>2026-05-01T17:13:48.426Z</time></trkpt><trkpt lat="42.0428837" lon="13.4461174"><ele>701.0</ele><time>2026-05-01T17:13:49.433Z</time></trkpt><trkpt lat="42.0429364" lon="13.4462159"><ele>701.0</ele><time>2026-05-01T17:13:50.441Z</time></trkpt><trkpt lat="42.0429839" lon="13.4463136"><ele>701.0</ele><time>2026-05-01T17:13:51.43Z</time></trkpt><trkpt lat="42.0430236" lon="13.4464119"><ele>701.0</ele><time>2026-05-01T17:13:52.435Z</time></trkpt><trkpt lat="42.0430681" lon="13.4464986"><ele>701.0</ele><time>2026-05-01T17:13:53.432Z</time></trkpt><trkpt lat="42.0431186" lon="13.4465815"><ele>701.4</ele><time>2026-05-01T17:13:54.426Z</time></trkpt><trkpt lat="42.0431741" lon="13.446672"><ele>701.8</ele><time>2026-05-01T17:13:55.441Z</time></trkpt><trkpt lat="42.0432371" lon="13.4467735"><ele>702.1999999999999</ele><time>2026-05-01T17:13:56.427Z</time></trkpt><trkpt lat="42.0433034" lon="13.4468875"><ele>702.5999999999999</ele><time>2026-05-01T17:13:57.433Z</time></trkpt><trkpt lat="42.043371" lon="13.4470133"><ele>703.0</ele><time>2026-05-01T17:13:58.436Z</time></trkpt><trkpt lat="42.0434415" lon="13.4471436"><ele>703.0</ele><time>2026-05-01T17:13:59.428Z</time></trkpt><trkpt lat="42.0435258" lon="13.4473038"><ele>703.0</ele><time>2026-05-01T17:14:00.428Z</time></trkpt><trkpt lat="42.0436412" lon="13.4475204"><ele>703.0</ele><time>2026-05-01T17:14:01.436Z</time></trkpt><trkpt lat="42.0437743" lon="13.4477891"><ele>702.5</ele><time>2026-05-01T17:14:02.434Z</time></trkpt><trkpt lat="42.0439256" lon="13.4480881"><ele>702.0</ele><time>2026-05-01T17:14:03.433Z</time></trkpt><trkpt lat="42.0440876" lon="13.4483691"><ele>701.6666666666666</ele><time>2026-05-01T17:14:04.434Z</time></trkpt><trkpt lat="42.0442237" lon="13.4486113"><ele>701.3333333333333</ele><time>2026-05-01T17:14:05.443Z</time></trkpt><trkpt lat="42.044339" lon="13.4488267"><ele>701.0</ele><time>2026-05-01T17:14:06.429Z</time></trkpt><trkpt lat="42.0444435" lon="13.4490159"><ele>701.0</ele><time>2026-05-01T17:14:07.43Z</time></trkpt><trkpt lat="42.0445269" lon="13.4491786"><ele>701.0</ele><time>2026-05-01T17:14:08.427Z</time></trkpt><trkpt lat="42.044601" lon="13.4493347"><ele>701.0</ele><time>2026-05-01T17:14:09.433Z</time></trkpt><trkpt lat="42.0446773" lon="13.4494862"><ele>701.0</ele><time>2026-05-01T17:14:10.426Z</time></trkpt><trkpt lat="42.0447622" lon="13.4496496"><ele>700.6666666666666</ele><time>2026-05-01T17:14:11.428Z</time></trkpt><trkpt lat="42.0448692" lon="13.449832"><ele>700.3333333333334</ele><time>2026-05-01T17:14:12.437Z</time></trkpt><trkpt lat="42.044988" lon="13.4500431"><ele>700.0</ele><time>2026-05-01T17:14:13.427Z</time></trkpt><trkpt lat="42.0451148" lon="13.4502762"><ele>701.0</ele><time>2026-05-01T17:14:14.423Z</time></trkpt><trkpt lat="42.0452585" lon="13.4505383"><ele>702.0</ele><time>2026-05-01T17:14:15.428Z</time></trkpt><trkpt lat="42.0454089" lon="13.4508297"><ele>702.0</ele><time>2026-05-01T17:14:16.427Z</time></trkpt><trkpt lat="42.0455792" lon="13.4511276"><ele>702.0</ele><time>2026-05-01T17:14:17.424Z</time></trkpt><trkpt lat="42.0457453" lon="13.4514099"><ele>703.0</ele><time>2026-05-01T17:14:18.425Z</time></trkpt><trkpt lat="42.0458924" lon="13.4516769"><ele>704.0</ele><time>2026-05-01T17:14:19.431Z</time></trkpt><trkpt lat="42.0460169" lon="13.4519203"><ele>704.0</ele><time>2026-05-01T17:14:20.43Z</time></trkpt><trkpt lat="42.0461273" lon="13.452121"><ele>704.0</ele><time>2026-05-01T17:14:21.432Z</time></trkpt><trkpt lat="42.0462356" lon="13.4523094"><ele>704.0</ele><time>2026-05-01T17:14:22.426Z</time></trkpt><trkpt lat="42.0463444" lon="13.4524943"><ele>704.0</ele><time>2026-05-01T17:14:23.439Z</time></trkpt><trkpt lat="42.0464412" lon="13.4526725"><ele>704.0</ele><time>2026-05-01T17:14:24.442Z</time></trkpt><trkpt lat="42.0465293" lon="13.4528389"><ele>704.0</ele><time>2026-05-01T17:14:25.43Z</time></trkpt><trkpt lat="42.0466169" lon="13.4529966"><ele>704.25</ele><time>2026-05-01T17:14:26.434Z</time></trkpt><trkpt lat="42.0467062" lon="13.4531485"><ele>704.5</ele><time>2026-05-01T17:14:27.442Z</time></trkpt><trkpt lat="42.0467932" lon="13.4533004"><ele>704.75</ele><time>2026-05-01T17:14:28.436Z</time></trkpt><trkpt lat="42.0468902" lon="13.4534607"><ele>705.0</ele><time>2026-05-01T17:14:29.433Z</time></trkpt><trkpt lat="42.0469875" lon="13.4536263"><ele>705.0</ele><time>2026-05-01T17:14:30.424Z</time></trkpt><trkpt lat="42.0470834" lon="13.4538161"><ele>705.0</ele><time>2026-05-01T17:14:31.43Z</time></trkpt><trkpt lat="42.0471856" lon="13.4540186"><ele>705.0</ele><time>2026-05-01T17:14:32.428Z</time></trkpt><trkpt lat="42.0472917" lon="13.4542282"><ele>705.0</ele><time>2026-05-01T17:14:33.442Z</time></trkpt><trkpt lat="42.0474131" lon="13.4544297"><ele>705.0</ele><time>2026-05-01T17:14:34.436Z</time></trkpt><trkpt lat="42.0475402" lon="13.4546397"><ele>705.0</ele><time>2026-05-01T17:14:35.462Z</time></trkpt><trkpt lat="42.0476611" lon="13.4548646"><ele>705.3333333333334</ele><time>2026-05-01T17:14:36.437Z</time></trkpt><trkpt lat="42.0477726" lon="13.4551048"><ele>705.6666666666667</ele><time>2026-05-01T17:14:37.433Z</time></trkpt><trkpt lat="42.0478935" lon="13.4553441"><ele>706.0</ele><time>2026-05-01T17:14:38.431Z</time></trkpt><trkpt lat="42.0480249" lon="13.4555785"><ele>706.0</ele><time>2026-05-01T17:14:39.434Z</time></trkpt><trkpt lat="42.0481547" lon="13.4558137"><ele>706.0</ele><time>2026-05-01T17:14:40.435Z</time></trkpt><trkpt lat="42.0482765" lon="13.4560484"><ele>706.0</ele><time>2026-05-01T17:14:41.424Z</time></trkpt><trkpt lat="42.0484001" lon="13.4562785"><ele>706.0</ele><time>2026-05-01T17:14:42.434Z</time></trkpt><trkpt lat="42.0485261" lon="13.4565045"><ele>706.0</ele><time>2026-05-01T17:14:43.428Z</time></trkpt><trkpt lat="42.0486476" lon="13.4567239"><ele>706.0</ele><time>2026-05-01T17:14:44.435Z</time></trkpt><trkpt lat="42.0487666" lon="13.4569406"><ele>705.3333333333334</ele><time>2026-05-01T17:14:45.42Z</time></trkpt><trkpt lat="42.0488816" lon="13.4571568"><ele>704.6666666666666</ele><time>2026-05-01T17:14:46.434Z</time></trkpt><trkpt lat="42.0489952" lon="13.4573688"><ele>704.0</ele><time>2026-05-01T17:14:47.433Z</time></trkpt><trkpt lat="42.0491072" lon="13.4575764"><ele>704.0</ele><time>2026-05-01T17:14:48.433Z</time></trkpt><trkpt lat="42.0492202" lon="13.4577828"><ele>704.0</ele><time>2026-05-01T17:14:49.43Z</time></trkpt><trkpt lat="42.0493284" lon="13.4579887"><ele>704.0</ele><time>2026-05-01T17:14:50.43Z</time></trkpt><trkpt lat="42.0494385" lon="13.4581864"><ele>704.0</ele><time>2026-05-01T17:14:51.443Z</time></trkpt><trkpt lat="42.0495462" lon="13.4583871"><ele>704.0</ele><time>2026-05-01T17:14:52.435Z</time></trkpt><trkpt lat="42.0496486" lon="13.4585738"><ele>704.0</ele><time>2026-05-01T17:14:53.428Z</time></trkpt><trkpt lat="42.0497497" lon="13.4587518"><ele>704.3333333333333</ele><time>2026-05-01T17:14:54.434Z</time></trkpt><trkpt lat="42.0498462" lon="13.4589249"><ele>704.6666666666666</ele><time>2026-05-01T17:14:55.438Z</time></trkpt><trkpt lat="42.0499388" lon="13.4590956"><ele>705.0</ele><time>2026-05-01T17:14:56.435Z</time></trkpt><trkpt lat="42.0500336" lon="13.4592676"><ele>705.0</ele><time>2026-05-01T17:14:57.425Z</time></trkpt><trkpt lat="42.0501288" lon="13.4594392"><ele>705.0</ele><time>2026-05-01T17:14:58.434Z</time></trkpt><trkpt lat="42.0502206" lon="13.4596083"><ele>705.0</ele><time>2026-05-01T17:14:59.436Z</time></trkpt><trkpt lat="42.0503113" lon="13.4597684"><ele>704.75</ele><time>2026-05-01T17:15:00.433Z</time></trkpt><trkpt lat="42.0503911" lon="13.4599275"><ele>704.5</ele><time>2026-05-01T17:15:01.43Z</time></trkpt><trkpt lat="42.0504716" lon="13.4600763"><ele>704.25</ele><time>2026-05-01T17:15:02.432Z</time></trkpt><trkpt lat="42.0505456" lon="13.4602153"><ele>704.0</ele><time>2026-05-01T17:15:03.433Z</time></trkpt><trkpt lat="42.0506155" lon="13.4603454"><ele>704.0</ele><time>2026-05-01T17:15:04.437Z</time></trkpt><trkpt lat="42.0506854" lon="13.4604695"><ele>704.0</ele><time>2026-05-01T17:15:05.434Z</time></trkpt><trkpt lat="42.0507493" lon="13.4605903"><ele>704.0</ele><time>2026-05-01T17:15:06.427Z</time></trkpt><trkpt lat="42.0508175" lon="13.4607089"><ele>704.0</ele><time>2026-05-01T17:15:07.433Z</time></trkpt><trkpt lat="42.0508837" lon="13.4608247"><ele>704.0</ele><time>2026-05-01T17:15:08.431Z</time></trkpt><trkpt lat="42.0509492" lon="13.4609478"><ele>704.0</ele><time>2026-05-01T17:15:09.431Z</time></trkpt><trkpt lat="42.0510161" lon="13.4610679"><ele>704.0</ele><time>2026-05-01T17:15:10.423Z</time></trkpt><trkpt lat="42.0510807" lon="13.4611867"><ele>704.0</ele><time>2026-05-01T17:15:11.433Z</time></trkpt><trkpt lat="42.0511357" lon="13.4612966"><ele>704.0</ele><time>2026-05-01T17:15:12.429Z</time></trkpt><trkpt lat="42.0511918" lon="13.4614013"><ele>704.0</ele><time>2026-05-01T17:15:13.43Z</time></trkpt><trkpt lat="42.0512368" lon="13.4614853"><ele>703.5</ele><time>2026-05-01T17:15:14.435Z</time></trkpt><trkpt lat="42.0512955" lon="13.4615803"><ele>703.0</ele><time>2026-05-01T17:15:16.436Z</time></trkpt><trkpt lat="42.051346" lon="13.461663"><ele>702.5</ele><time>2026-05-01T17:15:34.435Z</time></trkpt><trkpt lat="42.0514326" lon="13.4617889"><ele>702.0</ele><time>2026-05-01T17:15:36.433Z</time></trkpt><trkpt lat="42.0514731" lon="13.461865"><ele>701.5</ele><time>2026-05-01T17:15:37.431Z</time></trkpt><trkpt lat="42.0515191" lon="13.4619491"><ele>701.0</ele><time>2026-05-01T17:15:38.426Z</time></trkpt><trkpt lat="42.0515694" lon="13.4620454"><ele>701.6666666666666</ele><time>2026-05-01T17:15:39.431Z</time></trkpt><trkpt lat="42.0516496" lon="13.4621766"><ele>702.3333333333334</ele><time>2026-05-01T17:15:40.429Z</time></trkpt><trkpt lat="42.0517586" lon="13.4623748"><ele>703.0</ele><time>2026-05-01T17:15:41.426Z</time></trkpt><trkpt lat="42.0518659" lon="13.4626057"><ele>703.0</ele><time>2026-05-01T17:15:42.449Z</time></trkpt><trkpt lat="42.051988" lon="13.462854"><ele>703.0</ele><time>2026-05-01T17:15:43.433Z</time></trkpt><trkpt lat="42.0521095" lon="13.4630736"><ele>703.0</ele><time>2026-05-01T17:15:44.434Z</time></trkpt><trkpt lat="42.0522082" lon="13.4632889"><ele>702.0</ele><time>2026-05-01T17:15:45.437Z</time></trkpt><trkpt lat="42.0523222" lon="13.4634871"><ele>701.0</ele><time>2026-05-01T17:15:46.426Z</time></trkpt><trkpt lat="42.0524242" lon="13.4636807"><ele>700.0</ele><time>2026-05-01T17:15:47.44Z</time></trkpt><trkpt lat="42.0525231" lon="13.4638715"><ele>700.0</ele><time>2026-05-01T17:15:48.423Z</time></trkpt><trkpt lat="42.052623" lon="13.4640607"><ele>700.0</ele><time>2026-05-01T17:15:49.43Z</time></trkpt><trkpt lat="42.0527159" lon="13.4642511"><ele>700.0</ele><time>2026-05-01T17:15:50.439Z</time></trkpt><trkpt lat="42.0528158" lon="13.4644357"><ele>699.3333333333334</ele><time>2026-05-01T17:15:51.436Z</time></trkpt><trkpt lat="42.0529156" lon="13.4646197"><ele>698.6666666666666</ele><time>2026-05-01T17:15:52.441Z</time></trkpt><trkpt lat="42.0530122" lon="13.4648058"><ele>698.0</ele><time>2026-05-01T17:15:53.435Z</time></trkpt><trkpt lat="42.0531091" lon="13.4649832"><ele>698.0</ele><time>2026-05-01T17:15:54.435Z</time></trkpt><trkpt lat="42.0532017" lon="13.4651566"><ele>698.0</ele><time>2026-05-01T17:15:55.425Z</time></trkpt><trkpt lat="42.0532951" lon="13.4653402"><ele>698.0</ele><time>2026-05-01T17:15:56.435Z</time></trkpt><trkpt lat="42.0533874" lon="13.4655184"><ele>698.3333333333333</ele><time>2026-05-01T17:15:57.429Z</time></trkpt><trkpt lat="42.0534807" lon="13.4656948"><ele>698.6666666666666</ele><time>2026-05-01T17:15:58.432Z</time></trkpt><trkpt lat="42.0535718" lon="13.4658748"><ele>699.0</ele><time>2026-05-01T17:15:59.432Z</time></trkpt><trkpt lat="42.0536615" lon="13.4660519"><ele>699.0</ele><time>2026-05-01T17:16:00.427Z</time></trkpt><trkpt lat="42.053756" lon="13.4662308"><ele>699.0</ele><time>2026-05-01T17:16:01.435Z</time></trkpt><trkpt lat="42.0538482" lon="13.4664101"><ele>699.0</ele><time>2026-05-01T17:16:02.434Z</time></trkpt><trkpt lat="42.0539417" lon="13.4665852"><ele>699.0</ele><time>2026-05-01T17:16:03.428Z</time></trkpt><trkpt lat="42.0540327" lon="13.4667577"><ele>699.0</ele><time>2026-05-01T17:16:04.433Z</time></trkpt><trkpt lat="42.0541242" lon="13.4669298"><ele>699.0</ele><time>2026-05-01T17:16:05.432Z</time></trkpt><trkpt lat="42.0542129" lon="13.4670989"><ele>698.0</ele><time>2026-05-01T17:16:06.431Z</time></trkpt><trkpt lat="42.0543047" lon="13.4672718"><ele>697.0</ele><time>2026-05-01T17:16:07.417Z</time></trkpt><trkpt lat="42.0543994" lon="13.4674519"><ele>696.0</ele><time>2026-05-01T17:16:08.431Z</time></trkpt><trkpt lat="42.0544955" lon="13.4676319"><ele>696.0</ele><time>2026-05-01T17:16:09.427Z</time></trkpt><trkpt lat="42.054591" lon="13.4678145"><ele>696.0</ele><time>2026-05-01T17:16:10.433Z</time></trkpt><trkpt lat="42.0546879" lon="13.4680013"><ele>696.0</ele><time>2026-05-01T17:16:11.443Z</time></trkpt><trkpt lat="42.054788" lon="13.4681863"><ele>695.3333333333334</ele><time>2026-05-01T17:16:12.417Z</time></trkpt><trkpt lat="42.0548872" lon="13.4683738"><ele>694.6666666666667</ele><time>2026-05-01T17:16:13.429Z</time></trkpt><trkpt lat="42.0549826" lon="13.4685589"><ele>694.0</ele><time>2026-05-01T17:16:14.434Z</time></trkpt><trkpt lat="42.0550855" lon="13.4687508"><ele>694.3333333333334</ele><time>2026-05-01T17:16:15.434Z</time></trkpt><trkpt lat="42.0551845" lon="13.4689416"><ele>694.6666666666666</ele><time>2026-05-01T17:16:16.427Z</time></trkpt><trkpt lat="42.0552836" lon="13.469131"><ele>695.0</ele><time>2026-05-01T17:16:17.419Z</time></trkpt><trkpt lat="42.0553836" lon="13.4693143"><ele>695.0</ele><time>2026-05-01T17:16:18.431Z</time></trkpt><trkpt lat="42.0554785" lon="13.4694914"><ele>695.0</ele><time>2026-05-01T17:16:19.434Z</time></trkpt><trkpt lat="42.0555725" lon="13.4696634"><ele>695.0</ele><time>2026-05-01T17:16:20.429Z</time></trkpt><trkpt lat="42.0556659" lon="13.4698326"><ele>695.0</ele><time>2026-05-01T17:16:21.432Z</time></trkpt><trkpt lat="42.0557543" lon="13.4700004"><ele>695.0</ele><time>2026-05-01T17:16:22.443Z</time></trkpt><trkpt lat="42.0558385" lon="13.4701708"><ele>695.0</ele><time>2026-05-01T17:16:23.433Z</time></trkpt><trkpt lat="42.0559286" lon="13.4703368"><ele>694.25</ele><time>2026-05-01T17:16:24.44Z</time></trkpt><trkpt lat="42.056026" lon="13.470495"><ele>693.5</ele><time>2026-05-01T17:16:25.418Z</time></trkpt><trkpt lat="42.0561111" lon="13.470652"><ele>692.75</ele><time>2026-05-01T17:16:26.431Z</time></trkpt><trkpt lat="42.0561998" lon="13.470783"><ele>692.0</ele><time>2026-05-01T17:16:27.422Z</time></trkpt><trkpt lat="42.0563111" lon="13.4708822"><ele>692.0</ele><time>2026-05-01T17:16:28.432Z</time></trkpt><trkpt lat="42.0564375" lon="13.4709329"><ele>692.0</ele><time>2026-05-01T17:16:29.442Z</time></trkpt><trkpt lat="42.0565598" lon="13.4709536"><ele>692.0</ele><time>2026-05-01T17:16:30.434Z</time></trkpt><trkpt lat="42.0566789" lon="13.4709623"><ele>692.0</ele><time>2026-05-01T17:16:31.425Z</time></trkpt><trkpt lat="42.0567873" lon="13.470995"><ele>692.6</ele><time>2026-05-01T17:16:32.434Z</time></trkpt><trkpt lat="42.0568734" lon="13.4710666"><ele>693.2</ele><time>2026-05-01T17:16:33.44Z</time></trkpt><trkpt lat="42.0569413" lon="13.471167"><ele>693.8</ele><time>2026-05-01T17:16:34.425Z</time></trkpt><trkpt lat="42.0569877" lon="13.4712861"><ele>694.4</ele><time>2026-05-01T17:16:35.432Z</time></trkpt><trkpt lat="42.0570195" lon="13.4714133"><ele>695.0</ele><time>2026-05-01T17:16:36.441Z</time></trkpt><trkpt lat="42.0570525" lon="13.47154"><ele>695.0</ele><time>2026-05-01T17:16:37.444Z</time></trkpt><trkpt lat="42.0570923" lon="13.4716739"><ele>695.0</ele><time>2026-05-01T17:16:38.433Z</time></trkpt><trkpt lat="42.0571472" lon="13.4718218"><ele>695.0</ele><time>2026-05-01T17:16:39.432Z</time></trkpt><trkpt lat="42.0572015" lon="13.4719653"><ele>695.0</ele><time>2026-05-01T17:16:40.43Z</time></trkpt><trkpt lat="42.057245" lon="13.4721303"><ele>694.6666666666666</ele><time>2026-05-01T17:16:41.437Z</time></trkpt><trkpt lat="42.0572747" lon="13.4723166"><ele>694.3333333333334</ele><time>2026-05-01T17:16:42.433Z</time></trkpt><trkpt lat="42.0573268" lon="13.4725092"><ele>694.0</ele><time>2026-05-01T17:16:43.431Z</time></trkpt><trkpt lat="42.0573889" lon="13.4727134"><ele>694.0</ele><time>2026-05-01T17:16:44.427Z</time></trkpt><trkpt lat="42.0574519" lon="13.4729179"><ele>694.0</ele><time>2026-05-01T17:16:45.432Z</time></trkpt><trkpt lat="42.0575134" lon="13.4731133"><ele>694.0</ele><time>2026-05-01T17:16:46.427Z</time></trkpt><trkpt lat="42.0575791" lon="13.4733207"><ele>694.3333333333334</ele><time>2026-05-01T17:16:47.431Z</time></trkpt><trkpt lat="42.0576523" lon="13.4735421"><ele>694.6666666666666</ele><time>2026-05-01T17:16:48.434Z</time></trkpt><trkpt lat="42.0577238" lon="13.473734"><ele>695.0</ele><time>2026-05-01T17:16:49.431Z</time></trkpt><trkpt lat="42.0578027" lon="13.4738964"><ele>695.0</ele><time>2026-05-01T17:16:50.438Z</time></trkpt><trkpt lat="42.0578846" lon="13.4740451"><ele>695.0</ele><time>2026-05-01T17:16:51.439Z</time></trkpt><trkpt lat="42.0579604" lon="13.4741979"><ele>695.0</ele><time>2026-05-01T17:16:52.431Z</time></trkpt><trkpt lat="42.0580392" lon="13.4743664"><ele>695.0</ele><time>2026-05-01T17:16:53.432Z</time></trkpt><trkpt lat="42.058115" lon="13.4745388"><ele>694.6666666666666</ele><time>2026-05-01T17:16:54.436Z</time></trkpt><trkpt lat="42.0581864" lon="13.4747205"><ele>694.3333333333334</ele><time>2026-05-01T17:16:55.448Z</time></trkpt><trkpt lat="42.0582488" lon="13.4749023"><ele>694.0</ele><time>2026-05-01T17:16:56.43Z</time></trkpt><trkpt lat="42.058316" lon="13.4750874"><ele>695.3333333333334</ele><time>2026-05-01T17:16:57.442Z</time></trkpt><trkpt lat="42.0583834" lon="13.4752754"><ele>696.6666666666666</ele><time>2026-05-01T17:16:58.425Z</time></trkpt><trkpt lat="42.0584452" lon="13.4754719"><ele>698.0</ele><time>2026-05-01T17:16:59.426Z</time></trkpt><trkpt lat="42.0585127" lon="13.4756661"><ele>698.0</ele><time>2026-05-01T17:17:00.431Z</time></trkpt><trkpt lat="42.0585795" lon="13.4758636"><ele>698.0</ele><time>2026-05-01T17:17:01.424Z</time></trkpt><trkpt lat="42.0586452" lon="13.476065"><ele>698.0</ele><time>2026-05-01T17:17:02.439Z</time></trkpt><trkpt lat="42.0587081" lon="13.476271"><ele>696.0</ele><time>2026-05-01T17:17:03.43Z</time></trkpt><trkpt lat="42.0587699" lon="13.4764802"><ele>694.0</ele><time>2026-05-01T17:17:04.43Z</time></trkpt><trkpt lat="42.0588359" lon="13.4766805"><ele>692.0</ele><time>2026-05-01T17:17:05.424Z</time></trkpt><trkpt lat="42.0589072" lon="13.476889"><ele>692.0</ele><time>2026-05-01T17:17:06.433Z</time></trkpt><trkpt lat="42.0589767" lon="13.4770969"><ele>692.0</ele><time>2026-05-01T17:17:07.431Z</time></trkpt><trkpt lat="42.0590468" lon="13.4773036"><ele>692.0</ele><time>2026-05-01T17:17:08.429Z</time></trkpt><trkpt lat="42.0591166" lon="13.4775093"><ele>693.3333333333333</ele><time>2026-05-01T17:17:09.431Z</time></trkpt><trkpt lat="42.0591854" lon="13.4777136"><ele>694.6666666666666</ele><time>2026-05-01T17:17:10.42Z</time></trkpt><trkpt lat="42.059256" lon="13.477918"><ele>696.0</ele><time>2026-05-01T17:17:11.438Z</time></trkpt><trkpt lat="42.0593245" lon="13.4781226"><ele>696.0</ele><time>2026-05-01T17:17:12.423Z</time></trkpt><trkpt lat="42.0593971" lon="13.4783286"><ele>696.0</ele><time>2026-05-01T17:17:13.427Z</time></trkpt><trkpt lat="42.0594713" lon="13.4785331"><ele>696.0</ele><time>2026-05-01T17:17:14.426Z</time></trkpt><trkpt lat="42.0595452" lon="13.4787544"><ele>694.3333333333334</ele><time>2026-05-01T17:17:15.429Z</time></trkpt><trkpt lat="42.0596222" lon="13.4789778"><ele>692.6666666666667</ele><time>2026-05-01T17:17:16.426Z</time></trkpt><trkpt lat="42.059695" lon="13.4791995"><ele>691.0</ele><time>2026-05-01T17:17:17.429Z</time></trkpt><trkpt lat="42.0597694" lon="13.4794155"><ele>690.0</ele><time>2026-05-01T17:17:18.421Z</time></trkpt><trkpt lat="42.059837" lon="13.4796203"><ele>689.0</ele><time>2026-05-01T17:17:19.43Z</time></trkpt><trkpt lat="42.0599004" lon="13.47981"><ele>688.0</ele><time>2026-05-01T17:17:20.444Z</time></trkpt><trkpt lat="42.0599705" lon="13.4800028"><ele>690.6666666666667</ele><time>2026-05-01T17:17:21.423Z</time></trkpt><trkpt lat="42.0600331" lon="13.4801967"><ele>693.3333333333334</ele><time>2026-05-01T17:17:22.424Z</time></trkpt><trkpt lat="42.0600991" lon="13.480382"><ele>696.0</ele><time>2026-05-01T17:17:23.429Z</time></trkpt><trkpt lat="42.0601659" lon="13.480569"><ele>696.0</ele><time>2026-05-01T17:17:24.433Z</time></trkpt><trkpt lat="42.0602279" lon="13.4807484"><ele>696.0</ele><time>2026-05-01T17:17:25.433Z</time></trkpt><trkpt lat="42.0602895" lon="13.4809302"><ele>696.0</ele><time>2026-05-01T17:17:26.425Z</time></trkpt><trkpt lat="42.0603507" lon="13.4811168"><ele>696.0</ele><time>2026-05-01T17:17:27.423Z</time></trkpt><trkpt lat="42.0604135" lon="13.4813055"><ele>694.6666666666666</ele><time>2026-05-01T17:17:28.431Z</time></trkpt><trkpt lat="42.0604741" lon="13.4814926"><ele>693.3333333333333</ele><time>2026-05-01T17:17:29.425Z</time></trkpt><trkpt lat="42.0605353" lon="13.4816786"><ele>692.0</ele><time>2026-05-01T17:17:30.44Z</time></trkpt><trkpt lat="42.0605945" lon="13.481863"><ele>692.0</ele><time>2026-05-01T17:17:31.441Z</time></trkpt><trkpt lat="42.060656" lon="13.4820473"><ele>692.0</ele><time>2026-05-01T17:17:32.426Z</time></trkpt><trkpt lat="42.0607246" lon="13.4822389"><ele>692.0</ele><time>2026-05-01T17:17:33.439Z</time></trkpt><trkpt lat="42.0607986" lon="13.4824387"><ele>692.3333333333333</ele><time>2026-05-01T17:17:34.432Z</time></trkpt><trkpt lat="42.0608599" lon="13.4826392"><ele>692.6666666666666</ele><time>2026-05-01T17:17:35.44Z</time></trkpt><trkpt lat="42.0609202" lon="13.4828269"><ele>693.0</ele><time>2026-05-01T17:17:36.432Z</time></trkpt><trkpt lat="42.0609805" lon="13.4830086"><ele>693.0</ele><time>2026-05-01T17:17:37.431Z</time></trkpt><trkpt lat="42.0610379" lon="13.483186"><ele>693.0</ele><time>2026-05-01T17:17:38.427Z</time></trkpt><trkpt lat="42.0610948" lon="13.4833568"><ele>693.0</ele><time>2026-05-01T17:17:39.437Z</time></trkpt><trkpt lat="42.0611508" lon="13.483517"><ele>693.0</ele><time>2026-05-01T17:17:40.432Z</time></trkpt><trkpt lat="42.0612081" lon="13.4836716"><ele>691.3333333333334</ele><time>2026-05-01T17:17:41.427Z</time></trkpt><trkpt lat="42.0612786" lon="13.4838312"><ele>689.6666666666667</ele><time>2026-05-01T17:17:42.429Z</time></trkpt><trkpt lat="42.0613742" lon="13.4840015"><ele>688.0</ele><time>2026-05-01T17:17:43.425Z</time></trkpt><trkpt lat="42.061488" lon="13.4841786"><ele>689.0</ele><time>2026-05-01T17:17:44.431Z</time></trkpt><trkpt lat="42.0616197" lon="13.4843522"><ele>690.0</ele><time>2026-05-01T17:17:45.429Z</time></trkpt><trkpt lat="42.0617892" lon="13.4845448"><ele>691.0</ele><time>2026-05-01T17:17:46.434Z</time></trkpt><trkpt lat="42.0619835" lon="13.4847563"><ele>691.0</ele><time>2026-05-01T17:17:47.428Z</time></trkpt><trkpt lat="42.0621937" lon="13.4849845"><ele>691.0</ele><time>2026-05-01T17:17:48.43Z</time></trkpt><trkpt lat="42.0624161" lon="13.4852216"><ele>692.5</ele><time>2026-05-01T17:17:49.43Z</time></trkpt><trkpt lat="42.0626565" lon="13.4854795"><ele>694.0</ele><time>2026-05-01T17:17:50.439Z</time></trkpt><trkpt lat="42.0629183" lon="13.485754"><ele>694.0</ele><time>2026-05-01T17:17:51.43Z</time></trkpt><trkpt lat="42.063168" lon="13.4860271"><ele>694.0</ele><time>2026-05-01T17:17:52.432Z</time></trkpt><trkpt lat="42.0633969" lon="13.4862729"><ele>696.0</ele><time>2026-05-01T17:17:53.433Z</time></trkpt><trkpt lat="42.063599" lon="13.4864944"><ele>698.0</ele><time>2026-05-01T17:17:54.433Z</time></trkpt><trkpt lat="42.0637804" lon="13.4866889"><ele>698.0</ele><time>2026-05-01T17:17:55.428Z</time></trkpt><trkpt lat="42.0639463" lon="13.4868663"><ele>698.0</ele><time>2026-05-01T17:17:56.429Z</time></trkpt><trkpt lat="42.0641038" lon="13.4870168"><ele>698.0</ele><time>2026-05-01T17:17:57.434Z</time></trkpt><trkpt lat="42.0642647" lon="13.4871303"><ele>699.3333333333333</ele><time>2026-05-01T17:17:58.441Z</time></trkpt><trkpt lat="42.0644539" lon="13.4872062"><ele>700.6666666666666</ele><time>2026-05-01T17:17:59.427Z</time></trkpt><trkpt lat="42.0646669" lon="13.4872551"><ele>702.0</ele><time>2026-05-01T17:18:00.425Z</time></trkpt><trkpt lat="42.064884" lon="13.4872848"><ele>706.6666666666666</ele><time>2026-05-01T17:18:01.42Z</time></trkpt><trkpt lat="42.0650552" lon="13.4873746"><ele>711.3333333333333</ele><time>2026-05-01T17:18:02.43Z</time></trkpt><trkpt lat="42.0651689" lon="13.4875743"><ele>716.0</ele><time>2026-05-01T17:18:03.436Z</time></trkpt><trkpt lat="42.0652714" lon="13.4878114"><ele>712.0</ele><time>2026-05-01T17:18:04.435Z</time></trkpt><trkpt lat="42.0653649" lon="13.488076"><ele>708.0</ele><time>2026-05-01T17:18:05.428Z</time></trkpt><trkpt lat="42.0654775" lon="13.4883569"><ele>708.0</ele><time>2026-05-01T17:18:06.437Z</time></trkpt><trkpt lat="42.065594" lon="13.4886353"><ele>708.0</ele><time>2026-05-01T17:18:07.437Z</time></trkpt><trkpt lat="42.0657191" lon="13.4889159"><ele>709.0</ele><time>2026-05-01T17:18:08.43Z</time></trkpt><trkpt lat="42.0658448" lon="13.4892095"><ele>710.0</ele><time>2026-05-01T17:18:09.43Z</time></trkpt><trkpt lat="42.0659734" lon="13.4895077"><ele>707.5</ele><time>2026-05-01T17:18:10.428Z</time></trkpt><trkpt lat="42.0661056" lon="13.4898114"><ele>705.0</ele><time>2026-05-01T17:18:11.44Z</time></trkpt><trkpt lat="42.0662374" lon="13.4901101"><ele>705.0</ele><time>2026-05-01T17:18:12.434Z</time></trkpt><trkpt lat="42.0663745" lon="13.4904118"><ele>705.0</ele><time>2026-05-01T17:18:13.43Z</time></trkpt><trkpt lat="42.0665165" lon="13.4907187"><ele>705.0</ele><time>2026-05-01T17:18:14.427Z</time></trkpt><trkpt lat="42.0666557" lon="13.4910216"><ele>705.0</ele><time>2026-05-01T17:18:15.431Z</time></trkpt><trkpt lat="42.0667946" lon="13.4913274"><ele>705.0</ele><time>2026-05-01T17:18:16.443Z</time></trkpt><trkpt lat="42.0669271" lon="13.491634"><ele>705.0</ele><time>2026-05-01T17:18:17.434Z</time></trkpt><trkpt lat="42.0670626" lon="13.4919392"><ele>703.0</ele><time>2026-05-01T17:18:18.443Z</time></trkpt><trkpt lat="42.0671976" lon="13.4922381"><ele>701.0</ele><time>2026-05-01T17:18:19.435Z</time></trkpt><trkpt lat="42.0673302" lon="13.4925422"><ele>705.0</ele><time>2026-05-01T17:18:20.433Z</time></trkpt><trkpt lat="42.0674605" lon="13.4928459"><ele>709.0</ele><time>2026-05-01T17:18:21.429Z</time></trkpt><trkpt lat="42.0675944" lon="13.4931483"><ele>709.0</ele><time>2026-05-01T17:18:22.424Z</time></trkpt><trkpt lat="42.0677286" lon="13.4934496"><ele>709.0</ele><time>2026-05-01T17:18:23.433Z</time></trkpt><trkpt lat="42.0678614" lon="13.4937531"><ele>705.0</ele><time>2026-05-01T17:18:24.43Z</time></trkpt><trkpt lat="42.0679923" lon="13.4940554"><ele>701.0</ele><time>2026-05-01T17:18:25.427Z</time></trkpt><trkpt lat="42.0681233" lon="13.4943545"><ele>698.5</ele><time>2026-05-01T17:18:26.428Z</time></trkpt><trkpt lat="42.0682514" lon="13.4946477"><ele>696.0</ele><time>2026-05-01T17:18:27.437Z</time></trkpt><trkpt lat="42.0683779" lon="13.4949396"><ele>701.5</ele><time>2026-05-01T17:18:28.427Z</time></trkpt><trkpt lat="42.0685068" lon="13.4952337"><ele>707.0</ele><time>2026-05-01T17:18:29.436Z</time></trkpt><trkpt lat="42.0686375" lon="13.4955285"><ele>707.0</ele><time>2026-05-01T17:18:30.429Z</time></trkpt><trkpt lat="42.0687628" lon="13.4958171"><ele>707.0</ele><time>2026-05-01T17:18:31.433Z</time></trkpt><trkpt lat="42.0688866" lon="13.4961032"><ele>705.0</ele><time>2026-05-01T17:18:32.433Z</time></trkpt><trkpt lat="42.0690142" lon="13.4963933"><ele>703.0</ele><time>2026-05-01T17:18:33.434Z</time></trkpt><trkpt lat="42.0691418" lon="13.4966785"><ele>707.0</ele><time>2026-05-01T17:18:34.434Z</time></trkpt><trkpt lat="42.0692716" lon="13.4969718"><ele>711.0</ele><time>2026-05-01T17:18:35.429Z</time></trkpt><trkpt lat="42.0694012" lon="13.4972573"><ele>711.0</ele><time>2026-05-01T17:18:36.431Z</time></trkpt><trkpt lat="42.0695297" lon="13.4975442"><ele>711.0</ele><time>2026-05-01T17:18:37.418Z</time></trkpt><trkpt lat="42.0696536" lon="13.4978208"><ele>708.5</ele><time>2026-05-01T17:18:38.427Z</time></trkpt><trkpt lat="42.0697733" lon="13.4981035"><ele>706.0</ele><time>2026-05-01T17:18:39.434Z</time></trkpt><trkpt lat="42.0698979" lon="13.4983824"><ele>709.5</ele><time>2026-05-01T17:18:40.444Z</time></trkpt><trkpt lat="42.0700247" lon="13.4986526"><ele>713.0</ele><time>2026-05-01T17:18:41.434Z</time></trkpt><trkpt lat="42.0701632" lon="13.4989335"><ele>713.0</ele><time>2026-05-01T17:18:42.433Z</time></trkpt><trkpt lat="42.0703068" lon="13.4992646"><ele>713.0</ele><time>2026-05-01T17:18:43.409Z</time></trkpt><trkpt lat="42.0704552" lon="13.4996013"><ele>711.0</ele><time>2026-05-01T17:18:44.443Z</time></trkpt><trkpt lat="42.0706031" lon="13.4999051"><ele>709.0</ele><time>2026-05-01T17:18:45.459Z</time></trkpt><trkpt lat="42.0707362" lon="13.5001698"><ele>712.0</ele><time>2026-05-01T17:18:46.435Z</time></trkpt><trkpt lat="42.0708657" lon="13.5004285"><ele>715.0</ele><time>2026-05-01T17:18:47.433Z</time></trkpt><trkpt lat="42.0709939" lon="13.5006856"><ele>715.0</ele><time>2026-05-01T17:18:48.436Z</time></trkpt><trkpt lat="42.0711142" lon="13.5009635"><ele>715.0</ele><time>2026-05-01T17:18:49.438Z</time></trkpt><trkpt lat="42.0712356" lon="13.5012691"><ele>711.5</ele><time>2026-05-01T17:18:50.436Z</time></trkpt><trkpt lat="42.0713767" lon="13.5015709"><ele>708.0</ele><time>2026-05-01T17:18:51.419Z</time></trkpt><trkpt lat="42.0715215" lon="13.5018788"><ele>709.0</ele><time>2026-05-01T17:18:52.442Z</time></trkpt><trkpt lat="42.0716638" lon="13.5021731"><ele>710.0</ele><time>2026-05-01T17:18:53.426Z</time></trkpt><trkpt lat="42.0718004" lon="13.5024641"><ele>710.0</ele><time>2026-05-01T17:18:54.436Z</time></trkpt><trkpt lat="42.0719426" lon="13.5027479"><ele>710.0</ele><time>2026-05-01T17:18:55.434Z</time></trkpt><trkpt lat="42.0720871" lon="13.5030365"><ele>709.0</ele><time>2026-05-01T17:18:56.434Z</time></trkpt><trkpt lat="42.0722229" lon="13.5033474"><ele>708.0</ele><time>2026-05-01T17:18:57.444Z</time></trkpt><trkpt lat="42.072381" lon="13.5036833"><ele>710.5</ele><time>2026-05-01T17:18:58.427Z</time></trkpt><trkpt lat="42.0725626" lon="13.504043"><ele>713.0</ele><time>2026-05-01T17:18:59.428Z</time></trkpt><trkpt lat="42.0727408" lon="13.5044329"><ele>711.5</ele><time>2026-05-01T17:19:00.424Z</time></trkpt><trkpt lat="42.072923" lon="13.5048252"><ele>710.0</ele><time>2026-05-01T17:19:01.43Z</time></trkpt><trkpt lat="42.0731076" lon="13.5052148"><ele>710.0</ele><time>2026-05-01T17:19:02.436Z</time></trkpt><trkpt lat="42.0733081" lon="13.5056187"><ele>710.0</ele><time>2026-05-01T17:19:03.427Z</time></trkpt><trkpt lat="42.0735169" lon="13.5060301"><ele>708.5</ele><time>2026-05-01T17:19:04.439Z</time></trkpt><trkpt lat="42.0737271" lon="13.5064509"><ele>707.0</ele><time>2026-05-01T17:19:05.427Z</time></trkpt><trkpt lat="42.073928" lon="13.506885"><ele>708.5</ele><time>2026-05-01T17:19:06.419Z</time></trkpt><trkpt lat="42.0741101" lon="13.5073027"><ele>710.0</ele><time>2026-05-01T17:19:07.43Z</time></trkpt><trkpt lat="42.0742886" lon="13.5076813"><ele>709.0</ele><time>2026-05-01T17:19:08.433Z</time></trkpt><trkpt lat="42.0744674" lon="13.5080498"><ele>708.0</ele><time>2026-05-01T17:19:09.431Z</time></trkpt><trkpt lat="42.0746536" lon="13.5084199"><ele>708.0</ele><time>2026-05-01T17:19:10.426Z</time></trkpt><trkpt lat="42.0748669" lon="13.5087875"><ele>708.0</ele><time>2026-05-01T17:19:11.435Z</time></trkpt><trkpt lat="42.0751112" lon="13.5091449"><ele>711.0</ele><time>2026-05-01T17:19:12.425Z</time></trkpt><trkpt lat="42.075379" lon="13.5095139"><ele>714.0</ele><time>2026-05-01T17:19:13.431Z</time></trkpt><trkpt lat="42.0756407" lon="13.5098836"><ele>714.5</ele><time>2026-05-01T17:19:14.437Z</time></trkpt><trkpt lat="42.0758836" lon="13.5102073"><ele>715.0</ele><time>2026-05-01T17:19:15.424Z</time></trkpt><trkpt lat="42.0761018" lon="13.5105326"><ele>715.0</ele><time>2026-05-01T17:19:16.436Z</time></trkpt><trkpt lat="42.0763037" lon="13.5108254"><ele>715.0</ele><time>2026-05-01T17:19:17.435Z</time></trkpt><trkpt lat="42.076495" lon="13.5111065"><ele>718.0</ele><time>2026-05-01T17:19:18.427Z</time></trkpt><trkpt lat="42.0766808" lon="13.5113897"><ele>721.0</ele><time>2026-05-01T17:19:19.434Z</time></trkpt><trkpt lat="42.0768644" lon="13.5116861"><ele>721.0</ele><time>2026-05-01T17:19:20.434Z</time></trkpt><trkpt lat="42.0770274" lon="13.512014"><ele>721.0</ele><time>2026-05-01T17:19:21.432Z</time></trkpt><trkpt lat="42.0771773" lon="13.5123597"><ele>718.0</ele><time>2026-05-01T17:19:22.443Z</time></trkpt><trkpt lat="42.0772992" lon="13.5126627"><ele>715.0</ele><time>2026-05-01T17:19:23.441Z</time></trkpt><trkpt lat="42.0774217" lon="13.5129388"><ele>717.3333333333334</ele><time>2026-05-01T17:19:24.425Z</time></trkpt><trkpt lat="42.0775265" lon="13.5131678"><ele>719.6666666666666</ele><time>2026-05-01T17:19:25.432Z</time></trkpt><trkpt lat="42.0776227" lon="13.5133887"><ele>722.0</ele><time>2026-05-01T17:19:26.431Z</time></trkpt><trkpt lat="42.0777269" lon="13.513585"><ele>721.3333333333333</ele><time>2026-05-01T17:19:27.434Z</time></trkpt><trkpt lat="42.0778414" lon="13.5137633"><ele>720.6666666666666</ele><time>2026-05-01T17:19:28.432Z</time></trkpt><trkpt lat="42.0779902" lon="13.5139532"><ele>720.0</ele><time>2026-05-01T17:19:29.443Z</time></trkpt><trkpt lat="42.0781673" lon="13.5141562"><ele>721.0</ele><time>2026-05-01T17:19:30.437Z</time></trkpt><trkpt lat="42.0783589" lon="13.5144027"><ele>722.0</ele><time>2026-05-01T17:19:31.435Z</time></trkpt><trkpt lat="42.078562" lon="13.5146707"><ele>722.0</ele><time>2026-05-01T17:19:32.43Z</time></trkpt><trkpt lat="42.0787811" lon="13.5149611"><ele>722.0</ele><time>2026-05-01T17:19:33.433Z</time></trkpt><trkpt lat="42.0790207" lon="13.5152491"><ele>723.0</ele><time>2026-05-01T17:19:34.427Z</time></trkpt><trkpt lat="42.0792755" lon="13.5155441"><ele>724.0</ele><time>2026-05-01T17:19:35.44Z</time></trkpt><trkpt lat="42.0795271" lon="13.5158579"><ele>724.0</ele><time>2026-05-01T17:19:36.439Z</time></trkpt><trkpt lat="42.0797814" lon="13.5161729"><ele>724.0</ele><time>2026-05-01T17:19:37.429Z</time></trkpt><trkpt lat="42.0800193" lon="13.5164727"><ele>725.0</ele><time>2026-05-01T17:19:38.434Z</time></trkpt><trkpt lat="42.0802393" lon="13.5167366"><ele>726.0</ele><time>2026-05-01T17:19:39.437Z</time></trkpt><trkpt lat="42.0804417" lon="13.5169763"><ele>725.0</ele><time>2026-05-01T17:19:40.429Z</time></trkpt><trkpt lat="42.0806273" lon="13.5172076"><ele>724.0</ele><time>2026-05-01T17:19:41.433Z</time></trkpt><trkpt lat="42.0808036" lon="13.5174294"><ele>727.0</ele><time>2026-05-01T17:19:42.432Z</time></trkpt><trkpt lat="42.0809735" lon="13.5176605"><ele>730.0</ele><time>2026-05-01T17:19:43.432Z</time></trkpt><trkpt lat="42.0811374" lon="13.5179002"><ele>729.3333333333334</ele><time>2026-05-01T17:19:44.432Z</time></trkpt><trkpt lat="42.0812862" lon="13.5181351"><ele>728.6666666666666</ele><time>2026-05-01T17:19:45.439Z</time></trkpt><trkpt lat="42.0814137" lon="13.5183498"><ele>728.0</ele><time>2026-05-01T17:19:46.456Z</time></trkpt><trkpt lat="42.0815153" lon="13.5185286"><ele>728.0</ele><time>2026-05-01T17:19:47.431Z</time></trkpt><trkpt lat="42.0815981" lon="13.5186612"><ele>728.0</ele><time>2026-05-01T17:19:48.432Z</time></trkpt><trkpt lat="42.0816638" lon="13.5187669"><ele>728.0</ele><time>2026-05-01T17:19:49.435Z</time></trkpt><trkpt lat="42.0817076" lon="13.5188471"><ele>728.0</ele><time>2026-05-01T17:19:50.434Z</time></trkpt><trkpt lat="42.0817506" lon="13.5189155"><ele>728.0</ele><time>2026-05-01T17:19:52.436Z</time></trkpt><trkpt lat="42.0817968" lon="13.5189774"><ele>728.0</ele><time>2026-05-01T17:19:54.437Z</time></trkpt><trkpt lat="42.0818472" lon="13.5190371"><ele>729.0</ele><time>2026-05-01T17:19:55.436Z</time></trkpt><trkpt lat="42.0819065" lon="13.5191337"><ele>730.0</ele><time>2026-05-01T17:19:56.433Z</time></trkpt><trkpt lat="42.0819687" lon="13.5192662"><ele>731.0</ele><time>2026-05-01T17:19:57.437Z</time></trkpt><trkpt lat="42.0820418" lon="13.5194119"><ele>732.0</ele><time>2026-05-01T17:19:58.435Z</time></trkpt><trkpt lat="42.0821381" lon="13.5195475"><ele>731.6666666666666</ele><time>2026-05-01T17:19:59.432Z</time></trkpt><trkpt lat="42.0822663" lon="13.5196584"><ele>731.3333333333333</ele><time>2026-05-01T17:20:00.431Z</time></trkpt><trkpt lat="42.0824077" lon="13.5197535"><ele>731.0</ele><time>2026-05-01T17:20:01.429Z</time></trkpt><trkpt lat="42.0825699" lon="13.5198263"><ele>732.6666666666666</ele><time>2026-05-01T17:20:02.436Z</time></trkpt><trkpt lat="42.0827625" lon="13.5198872"><ele>734.3333333333334</ele><time>2026-05-01T17:20:03.437Z</time></trkpt><trkpt lat="42.0829886" lon="13.5199502"><ele>736.0</ele><time>2026-05-01T17:20:04.422Z</time></trkpt><trkpt lat="42.0832329" lon="13.5200272"><ele>740.5</ele><time>2026-05-01T17:20:05.438Z</time></trkpt><trkpt lat="42.0834737" lon="13.5201171"><ele>745.0</ele><time>2026-05-01T17:20:06.423Z</time></trkpt><trkpt lat="42.083687" lon="13.520236"><ele>745.0</ele><time>2026-05-01T17:20:07.434Z</time></trkpt><trkpt lat="42.0838685" lon="13.5203711"><ele>745.0</ele><time>2026-05-01T17:20:08.425Z</time></trkpt><trkpt lat="42.0840362" lon="13.5205137"><ele>745.0</ele><time>2026-05-01T17:20:09.435Z</time></trkpt><trkpt lat="42.0841985" lon="13.5206499"><ele>744.6666666666667</ele><time>2026-05-01T17:20:10.428Z</time></trkpt><trkpt lat="42.0843494" lon="13.5207766"><ele>744.3333333333334</ele><time>2026-05-01T17:20:11.434Z</time></trkpt><trkpt lat="42.0844916" lon="13.520897"><ele>744.0</ele><time>2026-05-01T17:20:12.433Z</time></trkpt><trkpt lat="42.0846307" lon="13.5210079"><ele>744.0</ele><time>2026-05-01T17:20:13.429Z</time></trkpt><trkpt lat="42.0847652" lon="13.5211135"><ele>744.0</ele><time>2026-05-01T17:20:14.435Z</time></trkpt><trkpt lat="42.084899" lon="13.5212026"><ele>744.0</ele><time>2026-05-01T17:20:15.429Z</time></trkpt><trkpt lat="42.0850388" lon="13.5212659"><ele>743.75</ele><time>2026-05-01T17:20:16.43Z</time></trkpt><trkpt lat="42.0851844" lon="13.5212955"><ele>743.5</ele><time>2026-05-01T17:20:17.431Z</time></trkpt><trkpt lat="42.0853334" lon="13.5213175"><ele>743.25</ele><time>2026-05-01T17:20:18.432Z</time></trkpt><trkpt lat="42.0854788" lon="13.5213285"><ele>743.0</ele><time>2026-05-01T17:20:19.429Z</time></trkpt><trkpt lat="42.0856149" lon="13.5213341"><ele>743.0</ele><time>2026-05-01T17:20:20.439Z</time></trkpt><trkpt lat="42.0857351" lon="13.521344"><ele>743.0</ele><time>2026-05-01T17:20:21.426Z</time></trkpt><trkpt lat="42.0858422" lon="13.5213565"><ele>743.0</ele><time>2026-05-01T17:20:22.434Z</time></trkpt><trkpt lat="42.0859437" lon="13.521378"><ele>743.0</ele><time>2026-05-01T17:20:23.437Z</time></trkpt><trkpt lat="42.086035" lon="13.5214254"><ele>743.0</ele><time>2026-05-01T17:20:24.44Z</time></trkpt><trkpt lat="42.0861029" lon="13.5215202"><ele>744.0</ele><time>2026-05-01T17:20:25.43Z</time></trkpt><trkpt lat="42.0861407" lon="13.5216442"><ele>745.0</ele><time>2026-05-01T17:20:26.431Z</time></trkpt><trkpt lat="42.0861671" lon="13.5217936"><ele>746.0</ele><time>2026-05-01T17:20:27.428Z</time></trkpt><trkpt lat="42.0861715" lon="13.5219447"><ele>747.0</ele><time>2026-05-01T17:20:28.44Z</time></trkpt><trkpt lat="42.0861694" lon="13.5221082"><ele>748.0</ele><time>2026-05-01T17:20:29.438Z</time></trkpt><trkpt lat="42.086172" lon="13.5222701"><ele>748.25</ele><time>2026-05-01T17:20:30.437Z</time></trkpt><trkpt lat="42.0861661" lon="13.5224345"><ele>748.5</ele><time>2026-05-01T17:20:31.43Z</time></trkpt><trkpt lat="42.0861477" lon="13.5226114"><ele>748.75</ele><time>2026-05-01T17:20:32.433Z</time></trkpt><trkpt lat="42.0861236" lon="13.5227821"><ele>749.0</ele><time>2026-05-01T17:20:33.438Z</time></trkpt><trkpt lat="42.0860955" lon="13.5229591"><ele>749.5</ele><time>2026-05-01T17:20:34.428Z</time></trkpt><trkpt lat="42.0860694" lon="13.5231345"><ele>750.0</ele><time>2026-05-01T17:20:35.431Z</time></trkpt><trkpt lat="42.0860397" lon="13.5233085"><ele>750.5</ele><time>2026-05-01T17:20:36.431Z</time></trkpt><trkpt lat="42.0860076" lon="13.5234853"><ele>751.0</ele><time>2026-05-01T17:20:37.427Z</time></trkpt><trkpt lat="42.0859776" lon="13.5236633"><ele>751.0</ele><time>2026-05-01T17:20:38.429Z</time></trkpt><trkpt lat="42.0859473" lon="13.5238368"><ele>751.0</ele><time>2026-05-01T17:20:39.438Z</time></trkpt><trkpt lat="42.0859191" lon="13.5240122"><ele>751.0</ele><time>2026-05-01T17:20:40.429Z</time></trkpt><trkpt lat="42.0858879" lon="13.5241893"><ele>751.0</ele><time>2026-05-01T17:20:41.434Z</time></trkpt><trkpt lat="42.0858497" lon="13.5243588"><ele>751.0</ele><time>2026-05-01T17:20:42.433Z</time></trkpt><trkpt lat="42.0858038" lon="13.5245267"><ele>751.0</ele><time>2026-05-01T17:20:43.438Z</time></trkpt><trkpt lat="42.0857514" lon="13.5246918"><ele>751.0</ele><time>2026-05-01T17:20:44.432Z</time></trkpt><trkpt lat="42.0856938" lon="13.524852"><ele>751.0</ele><time>2026-05-01T17:20:45.43Z</time></trkpt><trkpt lat="42.0856373" lon="13.5250043"><ele>750.5</ele><time>2026-05-01T17:20:46.428Z</time></trkpt><trkpt lat="42.0855815" lon="13.5251593"><ele>750.0</ele><time>2026-05-01T17:20:47.434Z</time></trkpt><trkpt lat="42.0855365" lon="13.5253164"><ele>749.5</ele><time>2026-05-01T17:20:48.428Z</time></trkpt><trkpt lat="42.0855102" lon="13.5254792"><ele>749.0</ele><time>2026-05-01T17:20:49.433Z</time></trkpt><trkpt lat="42.0855075" lon="13.5256468"><ele>750.0</ele><time>2026-05-01T17:20:50.42Z</time></trkpt><trkpt lat="42.0855392" lon="13.5258007"><ele>751.0</ele><time>2026-05-01T17:20:51.464Z</time></trkpt><trkpt lat="42.0855931" lon="13.525945"><ele>752.0</ele><time>2026-05-01T17:20:52.428Z</time></trkpt><trkpt lat="42.0856589" lon="13.5260938"><ele>753.0</ele><time>2026-05-01T17:20:53.433Z</time></trkpt><trkpt lat="42.0857302" lon="13.5262421"><ele>754.25</ele><time>2026-05-01T17:20:54.438Z</time></trkpt><trkpt lat="42.0858015" lon="13.5263929"><ele>755.5</ele><time>2026-05-01T17:20:55.432Z</time></trkpt><trkpt lat="42.0858712" lon="13.5265498"><ele>756.75</ele><time>2026-05-01T17:20:56.431Z</time></trkpt><trkpt lat="42.0859406" lon="13.5267106"><ele>758.0</ele><time>2026-05-01T17:20:57.436Z</time></trkpt><trkpt lat="42.086011" lon="13.5268716"><ele>758.0</ele><time>2026-05-01T17:20:58.434Z</time></trkpt><trkpt lat="42.0860844" lon="13.5270319"><ele>758.0</ele><time>2026-05-01T17:20:59.444Z</time></trkpt><trkpt lat="42.0861579" lon="13.5271943"><ele>758.0</ele><time>2026-05-01T17:21:00.431Z</time></trkpt><trkpt lat="42.0862264" lon="13.5273562"><ele>758.0</ele><time>2026-05-01T17:21:01.429Z</time></trkpt><trkpt lat="42.0862951" lon="13.5275157"><ele>759.0</ele><time>2026-05-01T17:21:02.432Z</time></trkpt><trkpt lat="42.0863568" lon="13.5276792"><ele>760.0</ele><time>2026-05-01T17:21:03.431Z</time></trkpt><trkpt lat="42.0864166" lon="13.5278401"><ele>761.0</ele><time>2026-05-01T17:21:04.433Z</time></trkpt><trkpt lat="42.086466" lon="13.5280051"><ele>762.0</ele><time>2026-05-01T17:21:05.439Z</time></trkpt><trkpt lat="42.0865099" lon="13.5281664"><ele>762.25</ele><time>2026-05-01T17:21:06.432Z</time></trkpt><trkpt lat="42.0865473" lon="13.5283312"><ele>762.5</ele><time>2026-05-01T17:21:07.43Z</time></trkpt><trkpt lat="42.0865779" lon="13.5284977"><ele>762.75</ele><time>2026-05-01T17:21:08.431Z</time></trkpt><trkpt lat="42.0865993" lon="13.5286651"><ele>763.0</ele><time>2026-05-01T17:21:09.437Z</time></trkpt><trkpt lat="42.0866107" lon="13.5288329"><ele>765.0</ele><time>2026-05-01T17:21:10.433Z</time></trkpt><trkpt lat="42.0866227" lon="13.5290003"><ele>767.0</ele><time>2026-05-01T17:21:11.435Z</time></trkpt><trkpt lat="42.0866282" lon="13.5291688"><ele>769.0</ele><time>2026-05-01T17:21:12.437Z</time></trkpt><trkpt lat="42.0866322" lon="13.5293393"><ele>771.0</ele><time>2026-05-01T17:21:13.426Z</time></trkpt><trkpt lat="42.0866375" lon="13.5295064"><ele>771.25</ele><time>2026-05-01T17:21:14.425Z</time></trkpt><trkpt lat="42.0866413" lon="13.5296721"><ele>771.5</ele><time>2026-05-01T17:21:15.432Z</time></trkpt><trkpt lat="42.0866475" lon="13.5298456"><ele>771.75</ele><time>2026-05-01T17:21:16.436Z</time></trkpt><trkpt lat="42.0866536" lon="13.5300256"><ele>772.0</ele><time>2026-05-01T17:21:17.425Z</time></trkpt><trkpt lat="42.0866535" lon="13.530203"><ele>772.0</ele><time>2026-05-01T17:21:18.433Z</time></trkpt><trkpt lat="42.0866551" lon="13.53039"><ele>772.0</ele><time>2026-05-01T17:21:19.441Z</time></trkpt><trkpt lat="42.0866579" lon="13.5305823"><ele>772.0</ele><time>2026-05-01T17:21:20.43Z</time></trkpt><trkpt lat="42.0866624" lon="13.530777"><ele>772.0</ele><time>2026-05-01T17:21:21.436Z</time></trkpt><trkpt lat="42.0866707" lon="13.5309713"><ele>772.75</ele><time>2026-05-01T17:21:22.428Z</time></trkpt><trkpt lat="42.0866859" lon="13.531166"><ele>773.5</ele><time>2026-05-01T17:21:23.432Z</time></trkpt><trkpt lat="42.0867071" lon="13.5313591"><ele>774.25</ele><time>2026-05-01T17:21:24.426Z</time></trkpt><trkpt lat="42.0867372" lon="13.5315523"><ele>775.0</ele><time>2026-05-01T17:21:25.431Z</time></trkpt><trkpt lat="42.0867731" lon="13.53175"><ele>775.0</ele><time>2026-05-01T17:21:26.423Z</time></trkpt><trkpt lat="42.08681" lon="13.5319468"><ele>775.0</ele><time>2026-05-01T17:21:27.43Z</time></trkpt><trkpt lat="42.0868471" lon="13.5321387"><ele>775.0</ele><time>2026-05-01T17:21:28.427Z</time></trkpt><trkpt lat="42.0868848" lon="13.5323264"><ele>775.0</ele><time>2026-05-01T17:21:29.452Z</time></trkpt><trkpt lat="42.0869246" lon="13.532512"><ele>775.5</ele><time>2026-05-01T17:21:30.432Z</time></trkpt><trkpt lat="42.0869619" lon="13.5326998"><ele>776.0</ele><time>2026-05-01T17:21:31.421Z</time></trkpt><trkpt lat="42.0869975" lon="13.5328861"><ele>776.5</ele><time>2026-05-01T17:21:32.431Z</time></trkpt><trkpt lat="42.0870341" lon="13.5330774"><ele>777.0</ele><time>2026-05-01T17:21:33.43Z</time></trkpt><trkpt lat="42.087068" lon="13.5332592"><ele>777.0</ele><time>2026-05-01T17:21:34.434Z</time></trkpt><trkpt lat="42.0870974" lon="13.5334384"><ele>777.0</ele><time>2026-05-01T17:21:35.439Z</time></trkpt><trkpt lat="42.0871256" lon="13.5336169"><ele>777.0</ele><time>2026-05-01T17:21:36.431Z</time></trkpt><trkpt lat="42.0871516" lon="13.533799"><ele>777.0</ele><time>2026-05-01T17:21:37.432Z</time></trkpt><trkpt lat="42.0871874" lon="13.5339887"><ele>777.6666666666667</ele><time>2026-05-01T17:21:38.437Z</time></trkpt><trkpt lat="42.0872242" lon="13.5341842"><ele>778.3333333333334</ele><time>2026-05-01T17:21:39.43Z</time></trkpt><trkpt lat="42.0872652" lon="13.5343844"><ele>779.0</ele><time>2026-05-01T17:21:40.44Z</time></trkpt><trkpt lat="42.0873056" lon="13.5345859"><ele>779.0</ele><time>2026-05-01T17:21:41.427Z</time></trkpt><trkpt lat="42.0873497" lon="13.5347889"><ele>779.0</ele><time>2026-05-01T17:21:42.429Z</time></trkpt><trkpt lat="42.087404" lon="13.5349826"><ele>779.0</ele><time>2026-05-01T17:21:43.422Z</time></trkpt><trkpt lat="42.0874657" lon="13.5351863"><ele>780.6666666666667</ele><time>2026-05-01T17:21:44.438Z</time></trkpt><trkpt lat="42.0875365" lon="13.5353924"><ele>782.3333333333333</ele><time>2026-05-01T17:21:45.429Z</time></trkpt><trkpt lat="42.0876096" lon="13.5355987"><ele>784.0</ele><time>2026-05-01T17:21:46.425Z</time></trkpt><trkpt lat="42.0876778" lon="13.5357918"><ele>784.0</ele><time>2026-05-01T17:21:47.442Z</time></trkpt><trkpt lat="42.0877429" lon="13.5359728"><ele>784.0</ele><time>2026-05-01T17:21:48.428Z</time></trkpt><trkpt lat="42.0878051" lon="13.5361556"><ele>784.0</ele><time>2026-05-01T17:21:49.434Z</time></trkpt><trkpt lat="42.0878655" lon="13.5363331"><ele>784.0</ele><time>2026-05-01T17:21:50.434Z</time></trkpt><trkpt lat="42.0879235" lon="13.5365102"><ele>783.75</ele><time>2026-05-01T17:21:51.431Z</time></trkpt><trkpt lat="42.0879814" lon="13.5366823"><ele>783.5</ele><time>2026-05-01T17:21:52.42Z</time></trkpt><trkpt lat="42.088041" lon="13.5368578"><ele>783.25</ele><time>2026-05-01T17:21:53.434Z</time></trkpt><trkpt lat="42.088097" lon="13.537034"><ele>783.0</ele><time>2026-05-01T17:21:54.435Z</time></trkpt><trkpt lat="42.0881397" lon="13.5372247"><ele>783.0</ele><time>2026-05-01T17:21:55.441Z</time></trkpt><trkpt lat="42.0881655" lon="13.5373999"><ele>783.0</ele><time>2026-05-01T17:21:56.432Z</time></trkpt><trkpt lat="42.0881879" lon="13.537565"><ele>783.0</ele><time>2026-05-01T17:21:57.435Z</time></trkpt><trkpt lat="42.0882056" lon="13.5377136"><ele>783.0</ele><time>2026-05-01T17:21:58.434Z</time></trkpt><trkpt lat="42.0882251" lon="13.5378536"><ele>783.1666666666666</ele><time>2026-05-01T17:21:59.435Z</time></trkpt><trkpt lat="42.0882451" lon="13.537992"><ele>783.3333333333333</ele><time>2026-05-01T17:22:00.437Z</time></trkpt><trkpt lat="42.0882584" lon="13.5381218"><ele>783.5</ele><time>2026-05-01T17:22:01.422Z</time></trkpt><trkpt lat="42.0882731" lon="13.5382367"><ele>783.6666666666666</ele><time>2026-05-01T17:22:02.424Z</time></trkpt><trkpt lat="42.0882831" lon="13.5383444"><ele>783.8333333333333</ele><time>2026-05-01T17:22:03.434Z</time></trkpt><trkpt lat="42.0882973" lon="13.5384512"><ele>784.0</ele><time>2026-05-01T17:22:04.433Z</time></trkpt><trkpt lat="42.0883128" lon="13.5385694"><ele>786.0</ele><time>2026-05-01T17:22:05.435Z</time></trkpt><trkpt lat="42.0883291" lon="13.5386979"><ele>788.0</ele><time>2026-05-01T17:22:06.43Z</time></trkpt><trkpt lat="42.0883477" lon="13.5388405"><ele>790.0</ele><time>2026-05-01T17:22:07.427Z</time></trkpt><trkpt lat="42.088363" lon="13.5389982"><ele>792.0</ele><time>2026-05-01T17:22:08.433Z</time></trkpt><trkpt lat="42.0883629" lon="13.5391593"><ele>794.0</ele><time>2026-05-01T17:22:09.432Z</time></trkpt><trkpt lat="42.088349" lon="13.5393128"><ele>794.0</ele><time>2026-05-01T17:22:10.434Z</time></trkpt><trkpt lat="42.0883283" lon="13.5394663"><ele>794.0</ele><time>2026-05-01T17:22:11.431Z</time></trkpt><trkpt lat="42.0883089" lon="13.5396294"><ele>794.0</ele><time>2026-05-01T17:22:12.427Z</time></trkpt><trkpt lat="42.0882981" lon="13.539797"><ele>794.0</ele><time>2026-05-01T17:22:13.431Z</time></trkpt><trkpt lat="42.0882925" lon="13.5399637"><ele>794.0</ele><time>2026-05-01T17:22:14.43Z</time></trkpt><trkpt lat="42.0882916" lon="13.5401307"><ele>794.0</ele><time>2026-05-01T17:22:15.427Z</time></trkpt><trkpt lat="42.0882968" lon="13.5402938"><ele>794.0</ele><time>2026-05-01T17:22:16.429Z</time></trkpt><trkpt lat="42.0883155" lon="13.5404526"><ele>794.0</ele><time>2026-05-01T17:22:17.431Z</time></trkpt><trkpt lat="42.0883506" lon="13.5405945"><ele>794.2</ele><time>2026-05-01T17:22:18.436Z</time></trkpt><trkpt lat="42.088403" lon="13.5407358"><ele>794.4000000000001</ele><time>2026-05-01T17:22:19.433Z</time></trkpt><trkpt lat="42.088475" lon="13.5408544"><ele>794.6</ele><time>2026-05-01T17:22:20.426Z</time></trkpt><trkpt lat="42.0885452" lon="13.5409598"><ele>794.8</ele><time>2026-05-01T17:22:21.429Z</time></trkpt><trkpt lat="42.0885995" lon="13.5410601"><ele>795.0</ele><time>2026-05-01T17:22:22.423Z</time></trkpt><trkpt lat="42.0886446" lon="13.5411687"><ele>795.1666666666666</ele><time>2026-05-01T17:22:23.433Z</time></trkpt><trkpt lat="42.0886764" lon="13.5412927"><ele>795.3333333333333</ele><time>2026-05-01T17:22:24.438Z</time></trkpt><trkpt lat="42.0886886" lon="13.5414138"><ele>795.5</ele><time>2026-05-01T17:22:25.428Z</time></trkpt><trkpt lat="42.0886886" lon="13.5415254"><ele>795.6666666666666</ele><time>2026-05-01T17:22:26.44Z</time></trkpt><trkpt lat="42.0886654" lon="13.5416315"><ele>795.8333333333333</ele><time>2026-05-01T17:22:27.428Z</time></trkpt><trkpt lat="42.0886229" lon="13.5417259"><ele>796.0</ele><time>2026-05-01T17:22:28.429Z</time></trkpt><trkpt lat="42.0885455" lon="13.5418129"><ele>796.0</ele><time>2026-05-01T17:22:29.424Z</time></trkpt><trkpt lat="42.088437" lon="13.5418852"><ele>796.0</ele><time>2026-05-01T17:22:30.421Z</time></trkpt><trkpt lat="42.0882983" lon="13.5419624"><ele>796.0</ele><time>2026-05-01T17:22:31.425Z</time></trkpt><trkpt lat="42.0881477" lon="13.542048"><ele>796.0</ele><time>2026-05-01T17:22:32.427Z</time></trkpt><trkpt lat="42.0880079" lon="13.5421235"><ele>795.0</ele><time>2026-05-01T17:22:33.429Z</time></trkpt><trkpt lat="42.0879048" lon="13.542212"><ele>794.0</ele><time>2026-05-01T17:22:34.435Z</time></trkpt><trkpt lat="42.0878176" lon="13.5423369"><ele>793.0</ele><time>2026-05-01T17:22:35.433Z</time></trkpt><trkpt lat="42.0877419" lon="13.5425091"><ele>792.0</ele><time>2026-05-01T17:22:36.418Z</time></trkpt><trkpt lat="42.0876685" lon="13.5427384"><ele>797.3333333333333</ele><time>2026-05-01T17:22:37.422Z</time></trkpt><trkpt lat="42.0876027" lon="13.542973"><ele>802.6666666666666</ele><time>2026-05-01T17:22:38.426Z</time></trkpt><trkpt lat="42.0875368" lon="13.5431868"><ele>808.0</ele><time>2026-05-01T17:22:39.42Z</time></trkpt><trkpt lat="42.0874662" lon="13.5433569"><ele>810.0</ele><time>2026-05-01T17:22:40.445Z</time></trkpt><trkpt lat="42.0873672" lon="13.5434978"><ele>812.0</ele><time>2026-05-01T17:22:41.436Z</time></trkpt><trkpt lat="42.0872485" lon="13.5436249"><ele>814.0</ele><time>2026-05-01T17:22:42.438Z</time></trkpt><trkpt lat="42.0870941" lon="13.5437302"><ele>814.0</ele><time>2026-05-01T17:22:43.441Z</time></trkpt><trkpt lat="42.0869046" lon="13.5438372"><ele>814.0</ele><time>2026-05-01T17:22:44.419Z</time></trkpt><trkpt lat="42.0867127" lon="13.5439295"><ele>814.0</ele><time>2026-05-01T17:22:45.434Z</time></trkpt><trkpt lat="42.0865463" lon="13.5440153"><ele>813.75</ele><time>2026-05-01T17:22:46.423Z</time></trkpt><trkpt lat="42.0864114" lon="13.5440792"><ele>813.5</ele><time>2026-05-01T17:22:47.426Z</time></trkpt><trkpt lat="42.0862982" lon="13.5441339"><ele>813.25</ele><time>2026-05-01T17:22:48.441Z</time></trkpt><trkpt lat="42.086206" lon="13.5442272"><ele>813.0</ele><time>2026-05-01T17:22:49.42Z</time></trkpt><trkpt lat="42.0861278" lon="13.544363"><ele>813.0</ele><time>2026-05-01T17:22:50.424Z</time></trkpt><trkpt lat="42.0860614" lon="13.5445361"><ele>813.0</ele><time>2026-05-01T17:22:51.428Z</time></trkpt><trkpt lat="42.086034" lon="13.5447601"><ele>813.0</ele><time>2026-05-01T17:22:52.418Z</time></trkpt><trkpt lat="42.0860159" lon="13.5449974"><ele>815.0</ele><time>2026-05-01T17:22:53.424Z</time></trkpt><trkpt lat="42.0859922" lon="13.5452123"><ele>817.0</ele><time>2026-05-01T17:22:54.423Z</time></trkpt><trkpt lat="42.0859675" lon="13.5453985"><ele>819.0</ele><time>2026-05-01T17:22:55.425Z</time></trkpt><trkpt lat="42.0859502" lon="13.5455667"><ele>821.0</ele><time>2026-05-01T17:22:56.422Z</time></trkpt><trkpt lat="42.0859292" lon="13.5457237"><ele>822.0</ele><time>2026-05-01T17:22:57.425Z</time></trkpt><trkpt lat="42.0859069" lon="13.5458735"><ele>823.0</ele><time>2026-05-01T17:22:58.434Z</time></trkpt><trkpt lat="42.0858906" lon="13.5460194"><ele>824.0</ele><time>2026-05-01T17:22:59.426Z</time></trkpt><trkpt lat="42.0858732" lon="13.5461449"><ele>825.0</ele><time>2026-05-01T17:23:00.427Z</time></trkpt><trkpt lat="42.0858589" lon="13.5462608"><ele>826.0</ele><time>2026-05-01T17:23:01.434Z</time></trkpt><trkpt lat="42.0858412" lon="13.5463644"><ele>826.3333333333333</ele><time>2026-05-01T17:23:02.422Z</time></trkpt><trkpt lat="42.085824" lon="13.5464632"><ele>826.6666666666666</ele><time>2026-05-01T17:23:03.421Z</time></trkpt><trkpt lat="42.0858076" lon="13.5465551"><ele>827.0</ele><time>2026-05-01T17:23:04.423Z</time></trkpt><trkpt lat="42.0857863" lon="13.5466452"><ele>827.3333333333333</ele><time>2026-05-01T17:23:05.419Z</time></trkpt><trkpt lat="42.0857597" lon="13.5467284"><ele>827.6666666666666</ele><time>2026-05-01T17:23:06.443Z</time></trkpt><trkpt lat="42.0857169" lon="13.5468304"><ele>828.0</ele><time>2026-05-01T17:23:07.415Z</time></trkpt><trkpt lat="42.0856544" lon="13.5469586"><ele>830.75</ele><time>2026-05-01T17:23:08.42Z</time></trkpt><trkpt lat="42.0855774" lon="13.5470976"><ele>833.5</ele><time>2026-05-01T17:23:09.434Z</time></trkpt><trkpt lat="42.0854808" lon="13.547243"><ele>836.25</ele><time>2026-05-01T17:23:10.424Z</time></trkpt><trkpt lat="42.0853765" lon="13.5473959"><ele>839.0</ele><time>2026-05-01T17:23:11.431Z</time></trkpt><trkpt lat="42.0852792" lon="13.5475379"><ele>839.0</ele><time>2026-05-01T17:23:12.438Z</time></trkpt><trkpt lat="42.0851986" lon="13.5476625"><ele>839.0</ele><time>2026-05-01T17:23:13.433Z</time></trkpt><trkpt lat="42.0851315" lon="13.5477721"><ele>839.0</ele><time>2026-05-01T17:23:14.43Z</time></trkpt><trkpt lat="42.0850599" lon="13.54785"><ele>839.0</ele><time>2026-05-01T17:23:15.428Z</time></trkpt><trkpt lat="42.0849925" lon="13.5479088"><ele>839.0</ele><time>2026-05-01T17:23:16.415Z</time></trkpt><trkpt lat="42.0849368" lon="13.5479653"><ele>837.2</ele><time>2026-05-01T17:23:17.436Z</time></trkpt><trkpt lat="42.0848486" lon="13.5480274"><ele>835.4000000000001</ele><time>2026-05-01T17:23:19.417Z</time></trkpt><trkpt lat="42.0847525" lon="13.5479905"><ele>833.6</ele><time>2026-05-01T17:23:22.424Z</time></trkpt><trkpt lat="42.0846632" lon="13.5479545"><ele>831.8</ele><time>2026-05-01T17:23:24.427Z</time></trkpt><trkpt lat="42.0845685" lon="13.5479394"><ele>830.0</ele><time>2026-05-01T17:23:26.426Z</time></trkpt><trkpt lat="42.0844444" lon="13.547936"><ele>830.0000000000001</ele><time>2026-05-01T17:23:28.425Z</time></trkpt><trkpt lat="42.0843816" lon="13.5479299"><ele>830.0</ele><time>2026-05-01T17:23:29.433Z</time></trkpt><trkpt lat="42.0842585" lon="13.5479337"><ele>830.0</ele><time>2026-05-01T17:23:31.423Z</time></trkpt><trkpt lat="42.0841842" lon="13.5479392"><ele>830.0</ele><time>2026-05-01T17:23:32.437Z</time></trkpt><trkpt lat="42.0841074" lon="13.5479578"><ele>830.0000000000001</ele><time>2026-05-01T17:23:33.432Z</time></trkpt><trkpt lat="42.0840471" lon="13.5480025"><ele>830.0</ele><time>2026-05-01T17:23:34.434Z</time></trkpt><trkpt lat="42.0839856" lon="13.5481266"><ele>827.2</ele><time>2026-05-01T17:23:36.428Z</time></trkpt><trkpt lat="42.084002" lon="13.5482495"><ele>824.4</ele><time>2026-05-01T17:23:38.43Z</time></trkpt><trkpt lat="42.0840236" lon="13.548371"><ele>821.5999999999999</ele><time>2026-05-01T17:23:40.427Z</time></trkpt><trkpt lat="42.0840416" lon="13.5485458"><ele>818.8</ele><time>2026-05-01T17:23:42.429Z</time></trkpt><trkpt lat="42.0840667" lon="13.5486957"><ele>816.0</ele><time>2026-05-01T17:23:43.433Z</time></trkpt><trkpt lat="42.0840844" lon="13.548881"><ele>816.0</ele><time>2026-05-01T17:23:44.429Z</time></trkpt><trkpt lat="42.0840889" lon="13.5490756"><ele>816.0</ele><time>2026-05-01T17:23:45.422Z</time></trkpt><trkpt lat="42.0841068" lon="13.5492478"><ele>816.0</ele><time>2026-05-01T17:23:46.428Z</time></trkpt><trkpt lat="42.0841187" lon="13.5493941"><ele>816.0</ele><time>2026-05-01T17:23:47.427Z</time></trkpt><trkpt lat="42.0841076" lon="13.549513"><ele>818.8</ele><time>2026-05-01T17:23:48.434Z</time></trkpt><trkpt lat="42.0840693" lon="13.5496132"><ele>821.5999999999999</ele><time>2026-05-01T17:23:49.429Z</time></trkpt><trkpt lat="42.0840037" lon="13.5496893"><ele>824.4</ele><time>2026-05-01T17:23:50.431Z</time></trkpt><trkpt lat="42.0839086" lon="13.549733"><ele>827.2</ele><time>2026-05-01T17:23:51.422Z</time></trkpt><trkpt lat="42.0837952" lon="13.5497538"><ele>830.0</ele><time>2026-05-01T17:23:52.424Z</time></trkpt><trkpt lat="42.0836652" lon="13.5497679"><ele>830.0</ele><time>2026-05-01T17:23:53.428Z</time></trkpt><trkpt lat="42.0835232" lon="13.5497836"><ele>830.0</ele><time>2026-05-01T17:23:54.425Z</time></trkpt><trkpt lat="42.0833928" lon="13.5497962"><ele>830.0</ele><time>2026-05-01T17:23:55.429Z</time></trkpt><trkpt lat="42.083267" lon="13.5498034"><ele>830.0</ele><time>2026-05-01T17:23:56.429Z</time></trkpt><trkpt lat="42.0831406" lon="13.5498108"><ele>828.5</ele><time>2026-05-01T17:23:57.435Z</time></trkpt><trkpt lat="42.0830252" lon="13.5498207"><ele>827.0</ele><time>2026-05-01T17:23:58.419Z</time></trkpt><trkpt lat="42.0829061" lon="13.5498294"><ele>825.5</ele><time>2026-05-01T17:23:59.439Z</time></trkpt><trkpt lat="42.0827728" lon="13.5498361"><ele>824.0</ele><time>2026-05-01T17:24:00.429Z</time></trkpt><trkpt lat="42.0826257" lon="13.5498475"><ele>824.0</ele><time>2026-05-01T17:24:01.424Z</time></trkpt><trkpt lat="42.0824794" lon="13.5498631"><ele>824.0</ele><time>2026-05-01T17:24:02.429Z</time></trkpt><trkpt lat="42.0823533" lon="13.5498749"><ele>824.0</ele><time>2026-05-01T17:24:03.433Z</time></trkpt><trkpt lat="42.0822331" lon="13.5498858"><ele>824.0</ele><time>2026-05-01T17:24:04.423Z</time></trkpt><trkpt lat="42.082124" lon="13.5498943"><ele>822.5000000000001</ele><time>2026-05-01T17:24:05.432Z</time></trkpt><trkpt lat="42.0820277" lon="13.549898"><ele>821.0</ele><time>2026-05-01T17:24:06.423Z</time></trkpt><trkpt lat="42.0819456" lon="13.5499015"><ele>819.5</ele><time>2026-05-01T17:24:07.433Z</time></trkpt><trkpt lat="42.0818783" lon="13.5499036"><ele>818.0</ele><time>2026-05-01T17:24:08.428Z</time></trkpt><trkpt lat="42.0817799" lon="13.5499084"><ele>816.5000000000001</ele><time>2026-05-01T17:24:10.428Z</time></trkpt><trkpt lat="42.0817033" lon="13.549915"><ele>815.0</ele><time>2026-05-01T17:24:13.437Z</time></trkpt><trkpt lat="42.0816493" lon="13.5499742"><ele>813.8</ele><time>2026-05-01T17:24:18.427Z</time></trkpt><trkpt lat="42.0815857" lon="13.5499088"><ele>812.6</ele><time>2026-05-01T17:37:11.426Z</time></trkpt><trkpt lat="42.0814612" lon="13.5499272"><ele>811.4000000000001</ele><time>2026-05-01T17:37:13.421Z</time></trkpt><trkpt lat="42.0813825" lon="13.5499553"><ele>810.2</ele><time>2026-05-01T17:37:14.427Z</time></trkpt><trkpt lat="42.0812962" lon="13.5499703"><ele>809.0</ele><time>2026-05-01T17:37:15.433Z</time></trkpt><trkpt lat="42.0811884" lon="13.5499807"><ele>809.0</ele><time>2026-05-01T17:37:16.428Z</time></trkpt><trkpt lat="42.0810776" lon="13.549992"><ele>809.0</ele><time>2026-05-01T17:37:17.443Z</time></trkpt><trkpt lat="42.0809642" lon="13.5500036"><ele>809.0</ele><time>2026-05-01T17:37:18.422Z</time></trkpt><trkpt lat="42.0808482" lon="13.5500023"><ele>809.0</ele><time>2026-05-01T17:37:19.418Z</time></trkpt><trkpt lat="42.0807324" lon="13.5500084"><ele>807.2</ele><time>2026-05-01T17:37:20.428Z</time></trkpt><trkpt lat="42.0806196" lon="13.5500221"><ele>805.4000000000001</ele><time>2026-05-01T17:37:21.423Z</time></trkpt><trkpt lat="42.0805186" lon="13.5500328"><ele>803.6</ele><time>2026-05-01T17:37:22.439Z</time></trkpt><trkpt lat="42.0804212" lon="13.5500435"><ele>801.8</ele><time>2026-05-01T17:37:23.417Z</time></trkpt><trkpt lat="42.080332" lon="13.5500528"><ele>800.0</ele><time>2026-05-01T17:37:24.427Z</time></trkpt><trkpt lat="42.0802481" lon="13.5500661"><ele>800.0000000000001</ele><time>2026-05-01T17:37:25.43Z</time></trkpt><trkpt lat="42.0801736" lon="13.5500875"><ele>800.0</ele><time>2026-05-01T17:37:26.433Z</time></trkpt><trkpt lat="42.0801074" lon="13.5501221"><ele>800.0</ele><time>2026-05-01T17:37:27.426Z</time></trkpt><trkpt lat="42.0800441" lon="13.5501716"><ele>800.0</ele><time>2026-05-01T17:37:28.422Z</time></trkpt><trkpt lat="42.0799808" lon="13.5502457"><ele>800.0000000000001</ele><time>2026-05-01T17:37:29.442Z</time></trkpt><trkpt lat="42.0799191" lon="13.550326"><ele>800.0</ele><time>2026-05-01T17:37:30.431Z</time></trkpt><trkpt lat="42.0798631" lon="13.5504046"><ele>799.8333333333334</ele><time>2026-05-01T17:37:31.428Z</time></trkpt><trkpt lat="42.079806" lon="13.5504783"><ele>799.6666666666667</ele><time>2026-05-01T17:37:32.425Z</time></trkpt><trkpt lat="42.0797493" lon="13.5505437"><ele>799.5</ele><time>2026-05-01T17:37:33.431Z</time></trkpt><trkpt lat="42.0796837" lon="13.5506063"><ele>799.3333333333333</ele><time>2026-05-01T17:37:34.438Z</time></trkpt><trkpt lat="42.0796214" lon="13.5506572"><ele>799.1666666666666</ele><time>2026-05-01T17:37:35.441Z</time></trkpt><trkpt lat="42.0795368" lon="13.5507022"><ele>799.0</ele><time>2026-05-01T17:37:36.427Z</time></trkpt><trkpt lat="42.0794289" lon="13.5507313"><ele>799.0</ele><time>2026-05-01T17:37:37.446Z</time></trkpt><trkpt lat="42.0793134" lon="13.5507729"><ele>799.0</ele><time>2026-05-01T17:37:38.429Z</time></trkpt><trkpt lat="42.0792072" lon="13.5508135"><ele>799.0</ele><time>2026-05-01T17:37:39.432Z</time></trkpt><trkpt lat="42.0791177" lon="13.5508513"><ele>799.0</ele><time>2026-05-01T17:37:40.421Z</time></trkpt><trkpt lat="42.0790336" lon="13.5508822"><ele>799.0</ele><time>2026-05-01T17:37:41.427Z</time></trkpt><trkpt lat="42.0789573" lon="13.5509077"><ele>797.1428571428572</ele><time>2026-05-01T17:37:42.429Z</time></trkpt><trkpt lat="42.0788836" lon="13.5509314"><ele>795.2857142857142</ele><time>2026-05-01T17:37:43.425Z</time></trkpt><trkpt lat="42.0788103" lon="13.5509419"><ele>793.4285714285714</ele><time>2026-05-01T17:37:44.417Z</time></trkpt><trkpt lat="42.0787404" lon="13.5509196"><ele>791.5714285714287</ele><time>2026-05-01T17:37:45.435Z</time></trkpt><trkpt lat="42.0786819" lon="13.5508694"><ele>789.7142857142858</ele><time>2026-05-01T17:37:46.424Z</time></trkpt><trkpt lat="42.0786426" lon="13.5507912"><ele>787.8571428571429</ele><time>2026-05-01T17:37:47.426Z</time></trkpt><trkpt lat="42.0786395" lon="13.5507028"><ele>786.0</ele><time>2026-05-01T17:37:48.432Z</time></trkpt><trkpt lat="42.078666" lon="13.5506157"><ele>786.0000000000001</ele><time>2026-05-01T17:37:49.434Z</time></trkpt><trkpt lat="42.0787079" lon="13.5505521"><ele>786.0</ele><time>2026-05-01T17:37:50.432Z</time></trkpt><trkpt lat="42.0787539" lon="13.5504906"><ele>786.0</ele><time>2026-05-01T17:37:51.423Z</time></trkpt><trkpt lat="42.0788003" lon="13.5504332"><ele>786.0</ele><time>2026-05-01T17:37:52.434Z</time></trkpt><trkpt lat="42.0788544" lon="13.5503809"><ele>786.0</ele><time>2026-05-01T17:37:53.435Z</time></trkpt><trkpt lat="42.0789072" lon="13.5503264"><ele>786.0000000000001</ele><time>2026-05-01T17:37:54.439Z</time></trkpt><trkpt lat="42.0789674" lon="13.5502555"><ele>786.0</ele><time>2026-05-01T17:37:55.431Z</time></trkpt><trkpt lat="42.0790344" lon="13.550178"><ele>786.8</ele><time>2026-05-01T17:37:56.43Z</time></trkpt><trkpt lat="42.0791024" lon="13.5501094"><ele>787.5999999999999</ele><time>2026-05-01T17:37:57.436Z</time></trkpt><trkpt lat="42.0791828" lon="13.5500369"><ele>788.4</ele><time>2026-05-01T17:37:58.421Z</time></trkpt><trkpt lat="42.0792605" lon="13.5499567"><ele>789.2</ele><time>2026-05-01T17:37:59.433Z</time></trkpt><trkpt lat="42.0793364" lon="13.5498606"><ele>790.0</ele><time>2026-05-01T17:38:00.433Z</time></trkpt><trkpt lat="42.0794275" lon="13.5497486"><ele>790.0</ele><time>2026-05-01T17:38:01.426Z</time></trkpt><trkpt lat="42.0795399" lon="13.5496178"><ele>790.0</ele><time>2026-05-01T17:38:02.423Z</time></trkpt><trkpt lat="42.0796655" lon="13.5494911"><ele>790.0</ele><time>2026-05-01T17:38:03.429Z</time></trkpt><trkpt lat="42.0797691" lon="13.5493738"><ele>790.0</ele><time>2026-05-01T17:38:04.435Z</time></trkpt><trkpt lat="42.0798626" lon="13.5492757"><ele>789.75</ele><time>2026-05-01T17:38:05.429Z</time></trkpt><trkpt lat="42.0799466" lon="13.5491876"><ele>789.5</ele><time>2026-05-01T17:38:06.427Z</time></trkpt><trkpt lat="42.0800323" lon="13.5490939"><ele>789.25</ele><time>2026-05-01T17:38:07.435Z</time></trkpt><trkpt lat="42.0801288" lon="13.5489757"><ele>789.0</ele><time>2026-05-01T17:38:08.425Z</time></trkpt><trkpt lat="42.0802798" lon="13.5488179"><ele>784.0</ele><time>2026-05-01T17:38:09.431Z</time></trkpt><trkpt lat="42.0804683" lon="13.548634"><ele>779.0</ele><time>2026-05-01T17:38:10.431Z</time></trkpt><trkpt lat="42.0806598" lon="13.5484381"><ele>781.0</ele><time>2026-05-01T17:38:11.427Z</time></trkpt><trkpt lat="42.0808485" lon="13.5482471"><ele>783.0</ele><time>2026-05-01T17:38:12.428Z</time></trkpt><trkpt lat="42.0810158" lon="13.5480753"><ele>785.0</ele><time>2026-05-01T17:38:13.429Z</time></trkpt><trkpt lat="42.0811692" lon="13.5479039"><ele>780.3333333333334</ele><time>2026-05-01T17:38:14.43Z</time></trkpt><trkpt lat="42.0813109" lon="13.5477536"><ele>775.6666666666667</ele><time>2026-05-01T17:38:15.427Z</time></trkpt><trkpt lat="42.0814506" lon="13.5476152"><ele>771.0</ele><time>2026-05-01T17:38:16.423Z</time></trkpt><trkpt lat="42.0815967" lon="13.5475046"><ele>771.5</ele><time>2026-05-01T17:38:17.426Z</time></trkpt><trkpt lat="42.0817294" lon="13.5474112"><ele>772.0</ele><time>2026-05-01T17:38:18.434Z</time></trkpt><trkpt lat="42.0818654" lon="13.5473559"><ele>772.5</ele><time>2026-05-01T17:38:19.425Z</time></trkpt><trkpt lat="42.0819829" lon="13.5473068"><ele>773.0</ele><time>2026-05-01T17:38:20.426Z</time></trkpt><trkpt lat="42.0821004" lon="13.5472549"><ele>773.0</ele><time>2026-05-01T17:38:21.419Z</time></trkpt><trkpt lat="42.0822086" lon="13.5471772"><ele>773.0</ele><time>2026-05-01T17:38:22.425Z</time></trkpt><trkpt lat="42.0823004" lon="13.5470594"><ele>773.0</ele><time>2026-05-01T17:38:23.433Z</time></trkpt><trkpt lat="42.0823736" lon="13.5469062"><ele>773.0</ele><time>2026-05-01T17:38:24.431Z</time></trkpt><trkpt lat="42.0824312" lon="13.5467177"><ele>773.75</ele><time>2026-05-01T17:38:25.433Z</time></trkpt><trkpt lat="42.0824759" lon="13.5465255"><ele>774.5</ele><time>2026-05-01T17:38:26.423Z</time></trkpt><trkpt lat="42.0825111" lon="13.5463474"><ele>775.25</ele><time>2026-05-01T17:38:27.425Z</time></trkpt><trkpt lat="42.0825417" lon="13.5461732"><ele>776.0</ele><time>2026-05-01T17:38:28.423Z</time></trkpt><trkpt lat="42.0825604" lon="13.5460166"><ele>774.5</ele><time>2026-05-01T17:38:29.433Z</time></trkpt><trkpt lat="42.0825724" lon="13.5458515"><ele>773.0</ele><time>2026-05-01T17:38:30.426Z</time></trkpt><trkpt lat="42.0825751" lon="13.5456913"><ele>771.5</ele><time>2026-05-01T17:38:31.426Z</time></trkpt><trkpt lat="42.082566" lon="13.5455111"><ele>770.0</ele><time>2026-05-01T17:38:32.428Z</time></trkpt><trkpt lat="42.0825488" lon="13.5453359"><ele>769.5</ele><time>2026-05-01T17:38:33.424Z</time></trkpt><trkpt lat="42.08253" lon="13.5451615"><ele>769.0</ele><time>2026-05-01T17:38:34.426Z</time></trkpt><trkpt lat="42.0825007" lon="13.5449989"><ele>768.5</ele><time>2026-05-01T17:38:35.43Z</time></trkpt><trkpt lat="42.0824773" lon="13.5448489"><ele>768.0</ele><time>2026-05-01T17:38:36.424Z</time></trkpt><trkpt lat="42.0824502" lon="13.5447073"><ele>765.4</ele><time>2026-05-01T17:38:37.42Z</time></trkpt><trkpt lat="42.0824257" lon="13.5445654"><ele>762.8</ele><time>2026-05-01T17:38:38.425Z</time></trkpt><trkpt lat="42.0824076" lon="13.5444312"><ele>760.2</ele><time>2026-05-01T17:38:39.426Z</time></trkpt><trkpt lat="42.082397" lon="13.5442909"><ele>757.6</ele><time>2026-05-01T17:38:40.424Z</time></trkpt><trkpt lat="42.0823898" lon="13.5441512"><ele>755.0</ele><time>2026-05-01T17:38:41.429Z</time></trkpt><trkpt lat="42.0823883" lon="13.5440088"><ele>754.8</ele><time>2026-05-01T17:38:42.418Z</time></trkpt><trkpt lat="42.0823911" lon="13.5438975"><ele>754.6</ele><time>2026-05-01T17:38:43.431Z</time></trkpt><trkpt lat="42.0823891" lon="13.5438123"><ele>754.4000000000001</ele><time>2026-05-01T17:38:44.429Z</time></trkpt><trkpt lat="42.0823737" lon="13.5436506"><ele>754.2</ele><time>2026-05-01T17:38:46.413Z</time></trkpt><trkpt lat="42.082338" lon="13.5434706"><ele>754.0</ele><time>2026-05-01T17:38:48.424Z</time></trkpt><trkpt lat="42.0823379" lon="13.5433399"><ele>753.8000000000001</ele><time>2026-05-01T17:38:49.424Z</time></trkpt><trkpt lat="42.0823508" lon="13.5431884"><ele>753.6</ele><time>2026-05-01T17:38:50.424Z</time></trkpt><trkpt lat="42.0823599" lon="13.5430386"><ele>753.4</ele><time>2026-05-01T17:38:51.425Z</time></trkpt><trkpt lat="42.0823732" lon="13.5429199"><ele>753.2</ele><time>2026-05-01T17:38:52.424Z</time></trkpt><trkpt lat="42.0824095" lon="13.5428332"><ele>753.0</ele><time>2026-05-01T17:38:53.426Z</time></trkpt><trkpt lat="42.0824545" lon="13.5427666"><ele>753.0</ele><time>2026-05-01T17:38:54.428Z</time></trkpt><trkpt lat="42.0825093" lon="13.5426987"><ele>753.0</ele><time>2026-05-01T17:38:55.42Z</time></trkpt><trkpt lat="42.0825596" lon="13.5426383"><ele>753.0</ele><time>2026-05-01T17:38:56.424Z</time></trkpt><trkpt lat="42.0825494" lon="13.5424915"><ele>753.0</ele><time>2026-05-01T17:38:58.425Z</time></trkpt><trkpt lat="42.0824929" lon="13.5423939"><ele>753.0</ele><time>2026-05-01T17:38:59.426Z</time></trkpt><trkpt lat="42.0824346" lon="13.5422888"><ele>753.0</ele><time>2026-05-01T17:39:00.432Z</time></trkpt><trkpt lat="42.0823871" lon="13.5421821"><ele>752.0</ele><time>2026-05-01T17:39:01.415Z</time></trkpt><trkpt lat="42.0823379" lon="13.5420681"><ele>751.0</ele><time>2026-05-01T17:39:02.441Z</time></trkpt><trkpt lat="42.0822904" lon="13.5419604"><ele>750.0</ele><time>2026-05-01T17:39:03.429Z</time></trkpt><trkpt lat="42.0822467" lon="13.5418495"><ele>749.0</ele><time>2026-05-01T17:39:04.429Z</time></trkpt><trkpt lat="42.0821986" lon="13.5417531"><ele>748.0</ele><time>2026-05-01T17:39:05.437Z</time></trkpt><trkpt lat="42.0821563" lon="13.5416635"><ele>747.0</ele><time>2026-05-01T17:39:06.432Z</time></trkpt><trkpt lat="42.0821108" lon="13.5415818"><ele>746.8333333333334</ele><time>2026-05-01T17:39:07.427Z</time></trkpt><trkpt lat="42.0820734" lon="13.5415061"><ele>746.6666666666666</ele><time>2026-05-01T17:39:08.433Z</time></trkpt><trkpt lat="42.0820266" lon="13.5414317"><ele>746.5</ele><time>2026-05-01T17:39:09.427Z</time></trkpt><trkpt lat="42.0819685" lon="13.541347"><ele>746.3333333333333</ele><time>2026-05-01T17:39:10.437Z</time></trkpt><trkpt lat="42.0819058" lon="13.5412755"><ele>746.1666666666666</ele><time>2026-05-01T17:39:11.424Z</time></trkpt><trkpt lat="42.0818426" lon="13.5412084"><ele>746.0</ele><time>2026-05-01T17:39:12.424Z</time></trkpt><trkpt lat="42.0817674" lon="13.5411621"><ele>746.0</ele><time>2026-05-01T17:39:13.421Z</time></trkpt><trkpt lat="42.0816853" lon="13.5411327"><ele>746.0</ele><time>2026-05-01T17:39:14.428Z</time></trkpt><trkpt lat="42.081619" lon="13.541116"><ele>746.0</ele><time>2026-05-01T17:39:15.423Z</time></trkpt><trkpt lat="42.0814892" lon="13.5410755"><ele>746.0</ele><time>2026-05-01T17:39:17.426Z</time></trkpt><trkpt lat="42.0814133" lon="13.5410589"><ele>746.0</ele><time>2026-05-01T17:39:18.446Z</time></trkpt><trkpt lat="42.0813191" lon="13.5410494"><ele>745.75</ele><time>2026-05-01T17:39:19.427Z</time></trkpt><trkpt lat="42.0812119" lon="13.5410441"><ele>745.5</ele><time>2026-05-01T17:39:20.421Z</time></trkpt><trkpt lat="42.0810673" lon="13.5410481"><ele>745.25</ele><time>2026-05-01T17:39:21.432Z</time></trkpt><trkpt lat="42.0809143" lon="13.5410523"><ele>745.0</ele><time>2026-05-01T17:39:22.428Z</time></trkpt><trkpt lat="42.0807741" lon="13.5410481"><ele>744.75</ele><time>2026-05-01T17:39:23.427Z</time></trkpt><trkpt lat="42.0806244" lon="13.5410585"><ele>744.5</ele><time>2026-05-01T17:39:24.426Z</time></trkpt><trkpt lat="42.0804707" lon="13.5410574"><ele>744.25</ele><time>2026-05-01T17:39:25.433Z</time></trkpt><trkpt lat="42.0803439" lon="13.5410443"><ele>744.0</ele><time>2026-05-01T17:39:26.42Z</time></trkpt><trkpt lat="42.0802267" lon="13.5410422"><ele>744.0</ele><time>2026-05-01T17:39:27.428Z</time></trkpt><trkpt lat="42.0801203" lon="13.5410234"><ele>744.0</ele><time>2026-05-01T17:39:28.425Z</time></trkpt><trkpt lat="42.080019" lon="13.5409886"><ele>744.0</ele><time>2026-05-01T17:39:29.425Z</time></trkpt><trkpt lat="42.0799252" lon="13.5409444"><ele>744.0</ele><time>2026-05-01T17:39:30.434Z</time></trkpt><trkpt lat="42.0798246" lon="13.5408801"><ele>744.0</ele><time>2026-05-01T17:39:31.424Z</time></trkpt><trkpt lat="42.0797404" lon="13.5407885"><ele>743.8000000000001</ele><time>2026-05-01T17:39:32.425Z</time></trkpt><trkpt lat="42.0796804" lon="13.5406788"><ele>743.6</ele><time>2026-05-01T17:39:33.427Z</time></trkpt><trkpt lat="42.0796471" lon="13.5405555"><ele>743.4</ele><time>2026-05-01T17:39:34.42Z</time></trkpt><trkpt lat="42.0796338" lon="13.5404353"><ele>743.2</ele><time>2026-05-01T17:39:35.431Z</time></trkpt><trkpt lat="42.0796109" lon="13.540314"><ele>743.0</ele><time>2026-05-01T17:39:36.426Z</time></trkpt><trkpt lat="42.079597" lon="13.5401956"><ele>743.4</ele><time>2026-05-01T17:39:37.422Z</time></trkpt><trkpt lat="42.0795782" lon="13.5400853"><ele>743.8</ele><time>2026-05-01T17:39:38.433Z</time></trkpt><trkpt lat="42.0795604" lon="13.5399616"><ele>744.2</ele><time>2026-05-01T17:39:39.435Z</time></trkpt><trkpt lat="42.0795217" lon="13.5398319"><ele>744.6</ele><time>2026-05-01T17:39:40.429Z</time></trkpt><trkpt lat="42.079461" lon="13.5397068"><ele>745.0</ele><time>2026-05-01T17:39:41.432Z</time></trkpt><trkpt lat="42.0793996" lon="13.5396053"><ele>744.1666666666667</ele><time>2026-05-01T17:39:42.426Z</time></trkpt><trkpt lat="42.0793413" lon="13.5395172"><ele>743.3333333333334</ele><time>2026-05-01T17:39:43.433Z</time></trkpt><trkpt lat="42.079292" lon="13.5394338"><ele>742.5</ele><time>2026-05-01T17:39:44.421Z</time></trkpt><trkpt lat="42.0792367" lon="13.5393407"><ele>741.6666666666666</ele><time>2026-05-01T17:39:45.426Z</time></trkpt><trkpt lat="42.0791794" lon="13.5392517"><ele>740.8333333333333</ele><time>2026-05-01T17:39:46.427Z</time></trkpt><trkpt lat="42.0791199" lon="13.5391712"><ele>740.0</ele><time>2026-05-01T17:39:47.426Z</time></trkpt><trkpt lat="42.0790532" lon="13.5390991"><ele>739.5</ele><time>2026-05-01T17:39:48.422Z</time></trkpt><trkpt lat="42.0789787" lon="13.5390365"><ele>739.0</ele><time>2026-05-01T17:39:49.425Z</time></trkpt><trkpt lat="42.0789011" lon="13.5389928"><ele>738.5</ele><time>2026-05-01T17:39:50.416Z</time></trkpt><trkpt lat="42.0788201" lon="13.5389619"><ele>738.0</ele><time>2026-05-01T17:39:51.42Z</time></trkpt><trkpt lat="42.0787305" lon="13.5389502"><ele>737.5</ele><time>2026-05-01T17:39:52.424Z</time></trkpt><trkpt lat="42.078636" lon="13.5389534"><ele>737.0</ele><time>2026-05-01T17:39:53.42Z</time></trkpt><trkpt lat="42.0785293" lon="13.5389652"><ele>737.0</ele><time>2026-05-01T17:39:54.421Z</time></trkpt><trkpt lat="42.0784435" lon="13.5389603"><ele>737.0</ele><time>2026-05-01T17:39:55.414Z</time></trkpt><trkpt lat="42.0783689" lon="13.5389612"><ele>737.0</ele><time>2026-05-01T17:39:56.415Z</time></trkpt><trkpt lat="42.0782973" lon="13.5389716"><ele>737.0</ele><time>2026-05-01T17:39:57.424Z</time></trkpt><trkpt lat="42.0781862" lon="13.5390134"><ele>737.0</ele><time>2026-05-01T17:39:59.424Z</time></trkpt><trkpt lat="42.078096" lon="13.539073"><ele>737.0</ele><time>2026-05-01T17:40:01.421Z</time></trkpt><trkpt lat="42.0779897" lon="13.5391841"><ele>736.0</ele><time>2026-05-01T17:40:03.423Z</time></trkpt><trkpt lat="42.0778919" lon="13.5392414"><ele>735.0</ele><time>2026-05-01T17:40:04.421Z</time></trkpt><trkpt lat="42.0777721" lon="13.5392966"><ele>734.0</ele><time>2026-05-01T17:40:05.423Z</time></trkpt><trkpt lat="42.0776562" lon="13.5393571"><ele>733.0</ele><time>2026-05-01T17:40:06.431Z</time></trkpt><trkpt lat="42.077553" lon="13.5394195"><ele>733.0</ele><time>2026-05-01T17:40:07.423Z</time></trkpt><trkpt lat="42.0774605" lon="13.5394581"><ele>733.0</ele><time>2026-05-01T17:40:08.425Z</time></trkpt><trkpt lat="42.0773905" lon="13.539478"><ele>733.0</ele><time>2026-05-01T17:40:09.424Z</time></trkpt><trkpt lat="42.077292" lon="13.5394647"><ele>733.0</ele><time>2026-05-01T17:40:11.431Z</time></trkpt><trkpt lat="42.0772429" lon="13.5393408"><ele>733.0</ele><time>2026-05-01T17:40:13.434Z</time></trkpt><trkpt lat="42.0772463" lon="13.5392523"><ele>733.0</ele><time>2026-05-01T17:40:14.422Z</time></trkpt><trkpt lat="42.077254" lon="13.5391403"><ele>731.75</ele><time>2026-05-01T17:40:15.426Z</time></trkpt><trkpt lat="42.0772485" lon="13.5390033"><ele>730.5</ele><time>2026-05-01T17:40:16.437Z</time></trkpt><trkpt lat="42.0772292" lon="13.5388181"><ele>729.25</ele><time>2026-05-01T17:40:17.431Z</time></trkpt><trkpt lat="42.0771852" lon="13.5385617"><ele>728.0</ele><time>2026-05-01T17:40:18.427Z</time></trkpt><trkpt lat="42.0771363" lon="13.5382696"><ele>728.0</ele><time>2026-05-01T17:40:19.416Z</time></trkpt><trkpt lat="42.0770666" lon="13.5379436"><ele>728.0</ele><time>2026-05-01T17:40:20.432Z</time></trkpt><trkpt lat="42.0769937" lon="13.5376"><ele>728.0</ele><time>2026-05-01T17:40:21.42Z</time></trkpt><trkpt lat="42.0769199" lon="13.5372761"><ele>728.0</ele><time>2026-05-01T17:40:22.435Z</time></trkpt><trkpt lat="42.0768644" lon="13.5369763"><ele>727.6666666666666</ele><time>2026-05-01T17:40:23.424Z</time></trkpt><trkpt lat="42.0768026" lon="13.5366941"><ele>727.3333333333334</ele><time>2026-05-01T17:40:24.428Z</time></trkpt><trkpt lat="42.0767494" lon="13.5364297"><ele>727.0</ele><time>2026-05-01T17:40:25.424Z</time></trkpt><trkpt lat="42.076701" lon="13.536179"><ele>726.3333333333334</ele><time>2026-05-01T17:40:26.42Z</time></trkpt><trkpt lat="42.0766565" lon="13.5359476"><ele>725.6666666666666</ele><time>2026-05-01T17:40:27.433Z</time></trkpt><trkpt lat="42.0766128" lon="13.5357327"><ele>725.0</ele><time>2026-05-01T17:40:28.427Z</time></trkpt><trkpt lat="42.0765705" lon="13.5355335"><ele>724.25</ele><time>2026-05-01T17:40:29.433Z</time></trkpt><trkpt lat="42.0765277" lon="13.5353416"><ele>723.5</ele><time>2026-05-01T17:40:30.43Z</time></trkpt><trkpt lat="42.0764764" lon="13.5351645"><ele>722.75</ele><time>2026-05-01T17:40:31.436Z</time></trkpt><trkpt lat="42.0764073" lon="13.534987"><ele>722.0</ele><time>2026-05-01T17:40:32.431Z</time></trkpt><trkpt lat="42.076334" lon="13.5348024"><ele>722.0</ele><time>2026-05-01T17:40:33.445Z</time></trkpt><trkpt lat="42.0762629" lon="13.534608"><ele>722.0</ele><time>2026-05-01T17:40:34.428Z</time></trkpt><trkpt lat="42.0761887" lon="13.5344209"><ele>722.0</ele><time>2026-05-01T17:40:35.438Z</time></trkpt><trkpt lat="42.0761128" lon="13.5342312"><ele>722.3333333333333</ele><time>2026-05-01T17:40:36.433Z</time></trkpt><trkpt lat="42.0760341" lon="13.5340316"><ele>722.6666666666666</ele><time>2026-05-01T17:40:37.431Z</time></trkpt><trkpt lat="42.0759562" lon="13.533823"><ele>723.0</ele><time>2026-05-01T17:40:38.426Z</time></trkpt><trkpt lat="42.0758792" lon="13.5336135"><ele>723.3333333333334</ele><time>2026-05-01T17:40:39.428Z</time></trkpt><trkpt lat="42.075798" lon="13.5334052"><ele>723.6666666666667</ele><time>2026-05-01T17:40:40.451Z</time></trkpt><trkpt lat="42.0757124" lon="13.5331951"><ele>724.0</ele><time>2026-05-01T17:40:41.431Z</time></trkpt><trkpt lat="42.0756269" lon="13.5329864"><ele>723.0</ele><time>2026-05-01T17:40:42.427Z</time></trkpt><trkpt lat="42.0755435" lon="13.5327685"><ele>722.0</ele><time>2026-05-01T17:40:43.432Z</time></trkpt><trkpt lat="42.075457" lon="13.53255"><ele>721.0</ele><time>2026-05-01T17:40:44.428Z</time></trkpt><trkpt lat="42.07537" lon="13.5323367"><ele>721.0</ele><time>2026-05-01T17:40:45.443Z</time></trkpt><trkpt lat="42.0752807" lon="13.5321245"><ele>721.0</ele><time>2026-05-01T17:40:46.425Z</time></trkpt><trkpt lat="42.0751905" lon="13.5319103"><ele>721.0</ele><time>2026-05-01T17:40:47.447Z</time></trkpt><trkpt lat="42.0751048" lon="13.531706"><ele>720.75</ele><time>2026-05-01T17:40:48.425Z</time></trkpt><trkpt lat="42.0750255" lon="13.5315115"><ele>720.5</ele><time>2026-05-01T17:40:49.43Z</time></trkpt><trkpt lat="42.0749579" lon="13.531334"><ele>720.25</ele><time>2026-05-01T17:40:50.426Z</time></trkpt><trkpt lat="42.0748995" lon="13.5311735"><ele>720.0</ele><time>2026-05-01T17:40:51.434Z</time></trkpt><trkpt lat="42.0748412" lon="13.5310193"><ele>718.0</ele><time>2026-05-01T17:40:52.427Z</time></trkpt><trkpt lat="42.0747942" lon="13.5308899"><ele>718.0</ele><time>2026-05-01T17:40:53.424Z</time></trkpt><trkpt lat="42.0747509" lon="13.5307806"><ele>718.0</ele><time>2026-05-01T17:40:54.431Z</time></trkpt><trkpt lat="42.0747202" lon="13.5306895"><ele>718.0</ele><time>2026-05-01T17:40:55.441Z</time></trkpt><trkpt lat="42.074674" lon="13.5305636"><ele>718.0</ele><time>2026-05-01T17:40:57.437Z</time></trkpt><trkpt lat="42.074616" lon="13.5305263"><ele>718.0</ele><time>2026-05-01T17:41:00.438Z</time></trkpt></trkseg></trk></gpx>